<?xml version="1.0" encoding="UTF-8" standalone="no" ?>
<gpx xmlns="http://www.topografix.com/GPX/1/1" xmlns:xsi="http://www.w3.org/2001/XMLSchema-instance" xsi:schemaLocation="http://www.topografix.com/GPX/1/1 http://www.topografix.com/GPX/1/1/gpx.xsd" version="1.1" creator="VisuGPX - https://www.visugpx.com">
  <metadata>
    <name>2017-04-24 Bike ride-Col de la Croix de Montmain via St Cyr-le-Chatoux</name>
    <desc><![CDATA[2017-04-24 Bike ride-Col de la Croix de Montmain via St Cyr-le-Chatoux]]></desc>
  </metadata>
  <wpt lat="45.9245" lon="4.73715">
    <ele>174</ele>
    <name><![CDATA[2017-04-24 10:04 (Start)]]></name>
  </wpt>
  <wpt lat="45.92468" lon="4.737">
    <ele>174</ele>
    <name><![CDATA[2017-04-24 10:04 (End)]]></name>
    <desc><![CDATA[Created by Google My Tracks on Android  Name: 2017-04-24 10:04 Activity type: biking Description: - Total distance: 60.09 km (37.3 mi) Total time: 3:53:31 Moving time: 3:21:43 Average speed: 15.44 km/h (9.6 mi/h) Average moving speed: 17.87 km/h (11.1 mi/h) Max speed: 39.63 km/h (24.6 mi/h) Average pace: 3:53 min/km (6:15 min/mi) Average moving pace: 3:21 min/km (5:24 min/mi) Fastest pace: 1:31 min/km (2:26 min/mi) Max elevation: 739 m (2426 ft) Min elevation: 166 m (545 ft) Elevation gain: 1311 m (4300 ft) Max grade: 21 % Min grade: -28 % Recorded: 24/04/2017 10:04]]></desc>
  </wpt>
  <trk>
    <name><![CDATA[2017-04-24 10:04]]></name>
    <trkseg>
      <trkpt lat="45.9245" lon="4.73715">
        <ele>174</ele>
        <time>2017-04-24T08:04:52.015Z</time>
      </trkpt>
      <trkpt lat="45.92456" lon="4.73708">
        <ele>174</ele>
        <time>2017-04-24T08:06:19Z</time>
      </trkpt>
      <trkpt lat="45.92458" lon="4.73706">
        <ele>174</ele>
        <time>2017-04-24T08:06:20Z</time>
      </trkpt>
      <trkpt lat="45.9246" lon="4.73695">
        <ele>174</ele>
        <time>2017-04-24T08:06:25Z</time>
      </trkpt>
      <trkpt lat="45.9246" lon="4.73692">
        <ele>174</ele>
        <time>2017-04-24T08:06:26Z</time>
      </trkpt>
      <trkpt lat="45.92461" lon="4.73681">
        <ele>174</ele>
        <time>2017-04-24T08:06:29Z</time>
      </trkpt>
      <trkpt lat="45.92461" lon="4.73676">
        <ele>174</ele>
        <time>2017-04-24T08:06:30Z</time>
      </trkpt>
      <trkpt lat="45.92462" lon="4.73666">
        <ele>174</ele>
        <time>2017-04-24T08:06:32Z</time>
      </trkpt>
      <trkpt lat="45.92463" lon="4.7366">
        <ele>174</ele>
        <time>2017-04-24T08:06:33Z</time>
      </trkpt>
      <trkpt lat="45.92467" lon="4.73649">
        <ele>174</ele>
        <time>2017-04-24T08:06:35Z</time>
      </trkpt>
      <trkpt lat="45.92469" lon="4.73644">
        <ele>174</ele>
        <time>2017-04-24T08:06:36Z</time>
      </trkpt>
      <trkpt lat="45.92477" lon="4.73642">
        <ele>174</ele>
        <time>2017-04-24T08:06:38Z</time>
      </trkpt>
      <trkpt lat="45.9248" lon="4.73642">
        <ele>174</ele>
        <time>2017-04-24T08:06:39Z</time>
      </trkpt>
      <trkpt lat="45.92486" lon="4.7364">
        <ele>174</ele>
        <time>2017-04-24T08:06:41Z</time>
      </trkpt>
      <trkpt lat="45.92489" lon="4.7364">
        <ele>174</ele>
        <time>2017-04-24T08:06:42Z</time>
      </trkpt>
      <trkpt lat="45.92496" lon="4.7364">
        <ele>174</ele>
        <time>2017-04-24T08:06:44Z</time>
      </trkpt>
      <trkpt lat="45.925" lon="4.7364">
        <ele>174</ele>
        <time>2017-04-24T08:06:45Z</time>
      </trkpt>
      <trkpt lat="45.92509" lon="4.73639">
        <ele>174</ele>
        <time>2017-04-24T08:06:47Z</time>
      </trkpt>
      <trkpt lat="45.92514" lon="4.73639">
        <ele>174</ele>
        <time>2017-04-24T08:06:48Z</time>
      </trkpt>
      <trkpt lat="45.92522" lon="4.7364">
        <ele>173</ele>
        <time>2017-04-24T08:06:50Z</time>
      </trkpt>
      <trkpt lat="45.92527" lon="4.7364">
        <ele>173</ele>
        <time>2017-04-24T08:06:51Z</time>
      </trkpt>
      <trkpt lat="45.92535" lon="4.73638">
        <ele>173</ele>
        <time>2017-04-24T08:06:53Z</time>
      </trkpt>
      <trkpt lat="45.9254" lon="4.73637">
        <ele>173</ele>
        <time>2017-04-24T08:06:54Z</time>
      </trkpt>
      <trkpt lat="45.92544" lon="4.73636">
        <ele>173</ele>
        <time>2017-04-24T08:06:55Z</time>
      </trkpt>
      <trkpt lat="45.92549" lon="4.73634">
        <ele>173</ele>
        <time>2017-04-24T08:06:56Z</time>
      </trkpt>
      <trkpt lat="45.92554" lon="4.73632">
        <ele>173</ele>
        <time>2017-04-24T08:06:57Z</time>
      </trkpt>
      <trkpt lat="45.92559" lon="4.7363">
        <ele>173</ele>
        <time>2017-04-24T08:06:58Z</time>
      </trkpt>
      <trkpt lat="45.92564" lon="4.73629">
        <ele>173</ele>
        <time>2017-04-24T08:06:59Z</time>
      </trkpt>
      <trkpt lat="45.92568" lon="4.73628">
        <ele>173</ele>
        <time>2017-04-24T08:07:00Z</time>
      </trkpt>
      <trkpt lat="45.92577" lon="4.73627">
        <ele>173</ele>
        <time>2017-04-24T08:07:02Z</time>
      </trkpt>
      <trkpt lat="45.92581" lon="4.73625">
        <ele>173</ele>
        <time>2017-04-24T08:07:03Z</time>
      </trkpt>
      <trkpt lat="45.92585" lon="4.73624">
        <ele>172</ele>
        <time>2017-04-24T08:07:04Z</time>
      </trkpt>
      <trkpt lat="45.9259" lon="4.73623">
        <ele>173</ele>
        <time>2017-04-24T08:07:05Z</time>
      </trkpt>
      <trkpt lat="45.92595" lon="4.73623">
        <ele>173</ele>
        <time>2017-04-24T08:07:06Z</time>
      </trkpt>
      <trkpt lat="45.926" lon="4.73623">
        <ele>173</ele>
        <time>2017-04-24T08:07:07Z</time>
      </trkpt>
      <trkpt lat="45.92605" lon="4.73624">
        <ele>173</ele>
        <time>2017-04-24T08:07:08Z</time>
      </trkpt>
      <trkpt lat="45.9261" lon="4.73627">
        <ele>173</ele>
        <time>2017-04-24T08:07:09Z</time>
      </trkpt>
      <trkpt lat="45.92614" lon="4.73631">
        <ele>173</ele>
        <time>2017-04-24T08:07:10Z</time>
      </trkpt>
      <trkpt lat="45.92618" lon="4.73636">
        <ele>173</ele>
        <time>2017-04-24T08:07:11Z</time>
      </trkpt>
      <trkpt lat="45.92622" lon="4.73642">
        <ele>173</ele>
        <time>2017-04-24T08:07:12Z</time>
      </trkpt>
      <trkpt lat="45.92625" lon="4.73648">
        <ele>173</ele>
        <time>2017-04-24T08:07:13Z</time>
      </trkpt>
      <trkpt lat="45.92628" lon="4.73655">
        <ele>173</ele>
        <time>2017-04-24T08:07:14Z</time>
      </trkpt>
      <trkpt lat="45.92631" lon="4.73662">
        <ele>173</ele>
        <time>2017-04-24T08:07:15Z</time>
      </trkpt>
      <trkpt lat="45.92633" lon="4.73668">
        <ele>173</ele>
        <time>2017-04-24T08:07:16Z</time>
      </trkpt>
      <trkpt lat="45.92637" lon="4.73675">
        <ele>173</ele>
        <time>2017-04-24T08:07:17Z</time>
      </trkpt>
      <trkpt lat="45.92641" lon="4.7368">
        <ele>173</ele>
        <time>2017-04-24T08:07:18Z</time>
      </trkpt>
      <trkpt lat="45.92645" lon="4.73686">
        <ele>173</ele>
        <time>2017-04-24T08:07:19Z</time>
      </trkpt>
      <trkpt lat="45.9265" lon="4.7369">
        <ele>173</ele>
        <time>2017-04-24T08:07:20Z</time>
      </trkpt>
      <trkpt lat="45.92655" lon="4.73694">
        <ele>173</ele>
        <time>2017-04-24T08:07:21Z</time>
      </trkpt>
      <trkpt lat="45.9266" lon="4.73698">
        <ele>173</ele>
        <time>2017-04-24T08:07:22Z</time>
      </trkpt>
      <trkpt lat="45.92665" lon="4.73701">
        <ele>173</ele>
        <time>2017-04-24T08:07:23Z</time>
      </trkpt>
      <trkpt lat="45.9267" lon="4.73704">
        <ele>174</ele>
        <time>2017-04-24T08:07:24Z</time>
      </trkpt>
      <trkpt lat="45.92675" lon="4.73706">
        <ele>174</ele>
        <time>2017-04-24T08:07:25Z</time>
      </trkpt>
      <trkpt lat="45.92681" lon="4.73708">
        <ele>173</ele>
        <time>2017-04-24T08:07:26Z</time>
      </trkpt>
      <trkpt lat="45.92686" lon="4.73709">
        <ele>173</ele>
        <time>2017-04-24T08:07:27Z</time>
      </trkpt>
      <trkpt lat="45.92692" lon="4.7371">
        <ele>173</ele>
        <time>2017-04-24T08:07:28Z</time>
      </trkpt>
      <trkpt lat="45.92699" lon="4.7371">
        <ele>173</ele>
        <time>2017-04-24T08:07:29Z</time>
      </trkpt>
      <trkpt lat="45.92705" lon="4.73711">
        <ele>173</ele>
        <time>2017-04-24T08:07:30Z</time>
      </trkpt>
      <trkpt lat="45.92711" lon="4.73712">
        <ele>173</ele>
        <time>2017-04-24T08:07:31Z</time>
      </trkpt>
      <trkpt lat="45.92718" lon="4.73713">
        <ele>173</ele>
        <time>2017-04-24T08:07:32Z</time>
      </trkpt>
      <trkpt lat="45.92724" lon="4.73715">
        <ele>173</ele>
        <time>2017-04-24T08:07:33Z</time>
      </trkpt>
      <trkpt lat="45.92729" lon="4.73716">
        <ele>173</ele>
        <time>2017-04-24T08:07:34Z</time>
      </trkpt>
      <trkpt lat="45.92735" lon="4.73717">
        <ele>173</ele>
        <time>2017-04-24T08:07:35Z</time>
      </trkpt>
      <trkpt lat="45.92741" lon="4.73719">
        <ele>173</ele>
        <time>2017-04-24T08:07:36Z</time>
      </trkpt>
      <trkpt lat="45.92746" lon="4.7372">
        <ele>173</ele>
        <time>2017-04-24T08:07:37Z</time>
      </trkpt>
      <trkpt lat="45.92751" lon="4.73721">
        <ele>172</ele>
        <time>2017-04-24T08:07:38Z</time>
      </trkpt>
      <trkpt lat="45.92757" lon="4.73723">
        <ele>172</ele>
        <time>2017-04-24T08:07:39Z</time>
      </trkpt>
      <trkpt lat="45.92762" lon="4.73726">
        <ele>172</ele>
        <time>2017-04-24T08:07:40Z</time>
      </trkpt>
      <trkpt lat="45.92766" lon="4.73727">
        <ele>172</ele>
        <time>2017-04-24T08:07:41Z</time>
      </trkpt>
      <trkpt lat="45.92773" lon="4.73729">
        <ele>172</ele>
        <time>2017-04-24T08:07:43Z</time>
      </trkpt>
      <trkpt lat="45.92777" lon="4.73728">
        <ele>172</ele>
        <time>2017-04-24T08:07:44Z</time>
      </trkpt>
      <trkpt lat="45.92781" lon="4.73718">
        <ele>172</ele>
        <time>2017-04-24T08:07:46Z</time>
      </trkpt>
      <trkpt lat="45.92783" lon="4.73712">
        <ele>172</ele>
        <time>2017-04-24T08:07:47Z</time>
      </trkpt>
      <trkpt lat="45.92784" lon="4.73704">
        <ele>172</ele>
        <time>2017-04-24T08:07:48Z</time>
      </trkpt>
      <trkpt lat="45.92786" lon="4.73697">
        <ele>172</ele>
        <time>2017-04-24T08:07:49Z</time>
      </trkpt>
      <trkpt lat="45.92788" lon="4.73689">
        <ele>172</ele>
        <time>2017-04-24T08:07:50Z</time>
      </trkpt>
      <trkpt lat="45.9279" lon="4.73681">
        <ele>172</ele>
        <time>2017-04-24T08:07:51Z</time>
      </trkpt>
      <trkpt lat="45.92792" lon="4.73675">
        <ele>172</ele>
        <time>2017-04-24T08:07:52Z</time>
      </trkpt>
      <trkpt lat="45.92793" lon="4.73667">
        <ele>172</ele>
        <time>2017-04-24T08:07:53Z</time>
      </trkpt>
      <trkpt lat="45.92795" lon="4.7366">
        <ele>172</ele>
        <time>2017-04-24T08:07:54Z</time>
      </trkpt>
      <trkpt lat="45.92796" lon="4.73652">
        <ele>172</ele>
        <time>2017-04-24T08:07:55Z</time>
      </trkpt>
      <trkpt lat="45.92798" lon="4.73645">
        <ele>172</ele>
        <time>2017-04-24T08:07:56Z</time>
      </trkpt>
      <trkpt lat="45.92801" lon="4.73639">
        <ele>172</ele>
        <time>2017-04-24T08:07:57Z</time>
      </trkpt>
      <trkpt lat="45.92806" lon="4.73629">
        <ele>172</ele>
        <time>2017-04-24T08:07:59Z</time>
      </trkpt>
      <trkpt lat="45.9281" lon="4.73624">
        <ele>172</ele>
        <time>2017-04-24T08:08:00Z</time>
      </trkpt>
      <trkpt lat="45.92813" lon="4.73619">
        <ele>172</ele>
        <time>2017-04-24T08:08:01Z</time>
      </trkpt>
      <trkpt lat="45.92815" lon="4.73613">
        <ele>172</ele>
        <time>2017-04-24T08:08:02Z</time>
      </trkpt>
      <trkpt lat="45.92817" lon="4.73605">
        <ele>172</ele>
        <time>2017-04-24T08:08:03Z</time>
      </trkpt>
      <trkpt lat="45.92817" lon="4.73598">
        <ele>171</ele>
        <time>2017-04-24T08:08:04Z</time>
      </trkpt>
      <trkpt lat="45.92818" lon="4.73589">
        <ele>171</ele>
        <time>2017-04-24T08:08:05Z</time>
      </trkpt>
      <trkpt lat="45.92818" lon="4.73581">
        <ele>171</ele>
        <time>2017-04-24T08:08:06Z</time>
      </trkpt>
      <trkpt lat="45.92819" lon="4.73573">
        <ele>171</ele>
        <time>2017-04-24T08:08:07Z</time>
      </trkpt>
      <trkpt lat="45.92819" lon="4.73564">
        <ele>171</ele>
        <time>2017-04-24T08:08:08Z</time>
      </trkpt>
      <trkpt lat="45.9282" lon="4.73556">
        <ele>171</ele>
        <time>2017-04-24T08:08:09Z</time>
      </trkpt>
      <trkpt lat="45.9282" lon="4.73548">
        <ele>171</ele>
        <time>2017-04-24T08:08:10Z</time>
      </trkpt>
      <trkpt lat="45.92821" lon="4.73539">
        <ele>172</ele>
        <time>2017-04-24T08:08:11Z</time>
      </trkpt>
      <trkpt lat="45.92823" lon="4.73531">
        <ele>172</ele>
        <time>2017-04-24T08:08:12Z</time>
      </trkpt>
      <trkpt lat="45.92823" lon="4.73523">
        <ele>172</ele>
        <time>2017-04-24T08:08:13Z</time>
      </trkpt>
      <trkpt lat="45.92824" lon="4.73515">
        <ele>172</ele>
        <time>2017-04-24T08:08:14Z</time>
      </trkpt>
      <trkpt lat="45.92825" lon="4.73507">
        <ele>172</ele>
        <time>2017-04-24T08:08:15Z</time>
      </trkpt>
      <trkpt lat="45.92826" lon="4.73499">
        <ele>172</ele>
        <time>2017-04-24T08:08:16Z</time>
      </trkpt>
      <trkpt lat="45.92826" lon="4.73491">
        <ele>172</ele>
        <time>2017-04-24T08:08:17Z</time>
      </trkpt>
      <trkpt lat="45.92827" lon="4.73482">
        <ele>172</ele>
        <time>2017-04-24T08:08:18Z</time>
      </trkpt>
      <trkpt lat="45.92828" lon="4.73474">
        <ele>172</ele>
        <time>2017-04-24T08:08:19Z</time>
      </trkpt>
      <trkpt lat="45.92829" lon="4.73465">
        <ele>172</ele>
        <time>2017-04-24T08:08:20Z</time>
      </trkpt>
      <trkpt lat="45.9283" lon="4.73457">
        <ele>172</ele>
        <time>2017-04-24T08:08:21Z</time>
      </trkpt>
      <trkpt lat="45.92831" lon="4.73448">
        <ele>172</ele>
        <time>2017-04-24T08:08:22Z</time>
      </trkpt>
      <trkpt lat="45.92831" lon="4.7344">
        <ele>172</ele>
        <time>2017-04-24T08:08:23Z</time>
      </trkpt>
      <trkpt lat="45.92832" lon="4.73432">
        <ele>172</ele>
        <time>2017-04-24T08:08:24Z</time>
      </trkpt>
      <trkpt lat="45.92833" lon="4.73423">
        <ele>172</ele>
        <time>2017-04-24T08:08:25Z</time>
      </trkpt>
      <trkpt lat="45.92834" lon="4.73415">
        <ele>172</ele>
        <time>2017-04-24T08:08:26Z</time>
      </trkpt>
      <trkpt lat="45.92835" lon="4.73407">
        <ele>172</ele>
        <time>2017-04-24T08:08:27Z</time>
      </trkpt>
      <trkpt lat="45.92836" lon="4.73398">
        <ele>172</ele>
        <time>2017-04-24T08:08:28Z</time>
      </trkpt>
      <trkpt lat="45.92837" lon="4.73389">
        <ele>172</ele>
        <time>2017-04-24T08:08:29Z</time>
      </trkpt>
      <trkpt lat="45.92837" lon="4.73381">
        <ele>172</ele>
        <time>2017-04-24T08:08:30Z</time>
      </trkpt>
      <trkpt lat="45.92838" lon="4.73373">
        <ele>171</ele>
        <time>2017-04-24T08:08:31Z</time>
      </trkpt>
      <trkpt lat="45.92839" lon="4.73365">
        <ele>171</ele>
        <time>2017-04-24T08:08:32Z</time>
      </trkpt>
      <trkpt lat="45.9284" lon="4.73356">
        <ele>171</ele>
        <time>2017-04-24T08:08:33Z</time>
      </trkpt>
      <trkpt lat="45.92841" lon="4.73348">
        <ele>171</ele>
        <time>2017-04-24T08:08:34Z</time>
      </trkpt>
      <trkpt lat="45.92842" lon="4.7334">
        <ele>171</ele>
        <time>2017-04-24T08:08:35Z</time>
      </trkpt>
      <trkpt lat="45.92842" lon="4.73332">
        <ele>171</ele>
        <time>2017-04-24T08:08:36Z</time>
      </trkpt>
      <trkpt lat="45.92843" lon="4.73324">
        <ele>171</ele>
        <time>2017-04-24T08:08:37Z</time>
      </trkpt>
      <trkpt lat="45.92844" lon="4.73316">
        <ele>171</ele>
        <time>2017-04-24T08:08:38Z</time>
      </trkpt>
      <trkpt lat="45.92845" lon="4.73308">
        <ele>171</ele>
        <time>2017-04-24T08:08:39Z</time>
      </trkpt>
      <trkpt lat="45.92845" lon="4.733">
        <ele>171</ele>
        <time>2017-04-24T08:08:40Z</time>
      </trkpt>
      <trkpt lat="45.92846" lon="4.73292">
        <ele>171</ele>
        <time>2017-04-24T08:08:41Z</time>
      </trkpt>
      <trkpt lat="45.92847" lon="4.73283">
        <ele>171</ele>
        <time>2017-04-24T08:08:42Z</time>
      </trkpt>
      <trkpt lat="45.92848" lon="4.73275">
        <ele>171</ele>
        <time>2017-04-24T08:08:43Z</time>
      </trkpt>
      <trkpt lat="45.92849" lon="4.73266">
        <ele>171</ele>
        <time>2017-04-24T08:08:44Z</time>
      </trkpt>
      <trkpt lat="45.92851" lon="4.73258">
        <ele>171</ele>
        <time>2017-04-24T08:08:45Z</time>
      </trkpt>
      <trkpt lat="45.92852" lon="4.7325">
        <ele>171</ele>
        <time>2017-04-24T08:08:46Z</time>
      </trkpt>
      <trkpt lat="45.92854" lon="4.73242">
        <ele>171</ele>
        <time>2017-04-24T08:08:47Z</time>
      </trkpt>
      <trkpt lat="45.92855" lon="4.73233">
        <ele>171</ele>
        <time>2017-04-24T08:08:48Z</time>
      </trkpt>
      <trkpt lat="45.92855" lon="4.73225">
        <ele>171</ele>
        <time>2017-04-24T08:08:49Z</time>
      </trkpt>
      <trkpt lat="45.92856" lon="4.73217">
        <ele>171</ele>
        <time>2017-04-24T08:08:50Z</time>
      </trkpt>
      <trkpt lat="45.92856" lon="4.73209">
        <ele>171</ele>
        <time>2017-04-24T08:08:51Z</time>
      </trkpt>
      <trkpt lat="45.92857" lon="4.73201">
        <ele>171</ele>
        <time>2017-04-24T08:08:52Z</time>
      </trkpt>
      <trkpt lat="45.92859" lon="4.73193">
        <ele>171</ele>
        <time>2017-04-24T08:08:53Z</time>
      </trkpt>
      <trkpt lat="45.9286" lon="4.73185">
        <ele>171</ele>
        <time>2017-04-24T08:08:54Z</time>
      </trkpt>
      <trkpt lat="45.92862" lon="4.73177">
        <ele>171</ele>
        <time>2017-04-24T08:08:55Z</time>
      </trkpt>
      <trkpt lat="45.92863" lon="4.73168">
        <ele>171</ele>
        <time>2017-04-24T08:08:56Z</time>
      </trkpt>
      <trkpt lat="45.92864" lon="4.7316">
        <ele>171</ele>
        <time>2017-04-24T08:08:57Z</time>
      </trkpt>
      <trkpt lat="45.92865" lon="4.73152">
        <ele>171</ele>
        <time>2017-04-24T08:08:58Z</time>
      </trkpt>
      <trkpt lat="45.92865" lon="4.73144">
        <ele>171</ele>
        <time>2017-04-24T08:08:59Z</time>
      </trkpt>
      <trkpt lat="45.92866" lon="4.73136">
        <ele>171</ele>
        <time>2017-04-24T08:09:00Z</time>
      </trkpt>
      <trkpt lat="45.92868" lon="4.73126">
        <ele>171</ele>
        <time>2017-04-24T08:09:01Z</time>
      </trkpt>
      <trkpt lat="45.9287" lon="4.73118">
        <ele>171</ele>
        <time>2017-04-24T08:09:02Z</time>
      </trkpt>
      <trkpt lat="45.92871" lon="4.73111">
        <ele>172</ele>
        <time>2017-04-24T08:09:03Z</time>
      </trkpt>
      <trkpt lat="45.92873" lon="4.73103">
        <ele>172</ele>
        <time>2017-04-24T08:09:04Z</time>
      </trkpt>
      <trkpt lat="45.92875" lon="4.73096">
        <ele>172</ele>
        <time>2017-04-24T08:09:05Z</time>
      </trkpt>
      <trkpt lat="45.92878" lon="4.73089">
        <ele>172</ele>
        <time>2017-04-24T08:09:06Z</time>
      </trkpt>
      <trkpt lat="45.92881" lon="4.73082">
        <ele>172</ele>
        <time>2017-04-24T08:09:07Z</time>
      </trkpt>
      <trkpt lat="45.92883" lon="4.73076">
        <ele>172</ele>
        <time>2017-04-24T08:09:08Z</time>
      </trkpt>
      <trkpt lat="45.92887" lon="4.73069">
        <ele>172</ele>
        <time>2017-04-24T08:09:09Z</time>
      </trkpt>
      <trkpt lat="45.9289" lon="4.73062">
        <ele>172</ele>
        <time>2017-04-24T08:09:10Z</time>
      </trkpt>
      <trkpt lat="45.92894" lon="4.73056">
        <ele>172</ele>
        <time>2017-04-24T08:09:11Z</time>
      </trkpt>
      <trkpt lat="45.92898" lon="4.73049">
        <ele>172</ele>
        <time>2017-04-24T08:09:12Z</time>
      </trkpt>
      <trkpt lat="45.92902" lon="4.73042">
        <ele>172</ele>
        <time>2017-04-24T08:09:13Z</time>
      </trkpt>
      <trkpt lat="45.92906" lon="4.73036">
        <ele>172</ele>
        <time>2017-04-24T08:09:14Z</time>
      </trkpt>
      <trkpt lat="45.92911" lon="4.7303">
        <ele>172</ele>
        <time>2017-04-24T08:09:15Z</time>
      </trkpt>
      <trkpt lat="45.92916" lon="4.73023">
        <ele>172</ele>
        <time>2017-04-24T08:09:16Z</time>
      </trkpt>
      <trkpt lat="45.92921" lon="4.73017">
        <ele>172</ele>
        <time>2017-04-24T08:09:17Z</time>
      </trkpt>
      <trkpt lat="45.92926" lon="4.73011">
        <ele>172</ele>
        <time>2017-04-24T08:09:18Z</time>
      </trkpt>
      <trkpt lat="45.92931" lon="4.73005">
        <ele>172</ele>
        <time>2017-04-24T08:09:19Z</time>
      </trkpt>
      <trkpt lat="45.92936" lon="4.72999">
        <ele>171</ele>
        <time>2017-04-24T08:09:20Z</time>
      </trkpt>
      <trkpt lat="45.92941" lon="4.72993">
        <ele>171</ele>
        <time>2017-04-24T08:09:21Z</time>
      </trkpt>
      <trkpt lat="45.92946" lon="4.72987">
        <ele>171</ele>
        <time>2017-04-24T08:09:22Z</time>
      </trkpt>
      <trkpt lat="45.92951" lon="4.72982">
        <ele>171</ele>
        <time>2017-04-24T08:09:23Z</time>
      </trkpt>
      <trkpt lat="45.92957" lon="4.72976">
        <ele>171</ele>
        <time>2017-04-24T08:09:24Z</time>
      </trkpt>
      <trkpt lat="45.92962" lon="4.7297">
        <ele>171</ele>
        <time>2017-04-24T08:09:25Z</time>
      </trkpt>
      <trkpt lat="45.92967" lon="4.72964">
        <ele>171</ele>
        <time>2017-04-24T08:09:26Z</time>
      </trkpt>
      <trkpt lat="45.92972" lon="4.72958">
        <ele>171</ele>
        <time>2017-04-24T08:09:27Z</time>
      </trkpt>
      <trkpt lat="45.92977" lon="4.72951">
        <ele>171</ele>
        <time>2017-04-24T08:09:28Z</time>
      </trkpt>
      <trkpt lat="45.92981" lon="4.72945">
        <ele>171</ele>
        <time>2017-04-24T08:09:29Z</time>
      </trkpt>
      <trkpt lat="45.92986" lon="4.72938">
        <ele>171</ele>
        <time>2017-04-24T08:09:30Z</time>
      </trkpt>
      <trkpt lat="45.9299" lon="4.72933">
        <ele>171</ele>
        <time>2017-04-24T08:09:31Z</time>
      </trkpt>
      <trkpt lat="45.92995" lon="4.72926">
        <ele>171</ele>
        <time>2017-04-24T08:09:32Z</time>
      </trkpt>
      <trkpt lat="45.92999" lon="4.72919">
        <ele>171</ele>
        <time>2017-04-24T08:09:33Z</time>
      </trkpt>
      <trkpt lat="45.93004" lon="4.72912">
        <ele>171</ele>
        <time>2017-04-24T08:09:34Z</time>
      </trkpt>
      <trkpt lat="45.9301" lon="4.72906">
        <ele>171</ele>
        <time>2017-04-24T08:09:35Z</time>
      </trkpt>
      <trkpt lat="45.93015" lon="4.72899">
        <ele>172</ele>
        <time>2017-04-24T08:09:36Z</time>
      </trkpt>
      <trkpt lat="45.9302" lon="4.72894">
        <ele>172</ele>
        <time>2017-04-24T08:09:37Z</time>
      </trkpt>
      <trkpt lat="45.93025" lon="4.72888">
        <ele>172</ele>
        <time>2017-04-24T08:09:38Z</time>
      </trkpt>
      <trkpt lat="45.93029" lon="4.72881">
        <ele>172</ele>
        <time>2017-04-24T08:09:39Z</time>
      </trkpt>
      <trkpt lat="45.93034" lon="4.72875">
        <ele>172</ele>
        <time>2017-04-24T08:09:40Z</time>
      </trkpt>
      <trkpt lat="45.93039" lon="4.72869">
        <ele>172</ele>
        <time>2017-04-24T08:09:41Z</time>
      </trkpt>
      <trkpt lat="45.93044" lon="4.72864">
        <ele>172</ele>
        <time>2017-04-24T08:09:42Z</time>
      </trkpt>
      <trkpt lat="45.93049" lon="4.72859">
        <ele>172</ele>
        <time>2017-04-24T08:09:43Z</time>
      </trkpt>
      <trkpt lat="45.93053" lon="4.72854">
        <ele>172</ele>
        <time>2017-04-24T08:09:44Z</time>
      </trkpt>
      <trkpt lat="45.93058" lon="4.72849">
        <ele>172</ele>
        <time>2017-04-24T08:09:45Z</time>
      </trkpt>
      <trkpt lat="45.93062" lon="4.72844">
        <ele>172</ele>
        <time>2017-04-24T08:09:46Z</time>
      </trkpt>
      <trkpt lat="45.93066" lon="4.7284">
        <ele>173</ele>
        <time>2017-04-24T08:09:47Z</time>
      </trkpt>
      <trkpt lat="45.9307" lon="4.72835">
        <ele>173</ele>
        <time>2017-04-24T08:09:48Z</time>
      </trkpt>
      <trkpt lat="45.93074" lon="4.7283">
        <ele>173</ele>
        <time>2017-04-24T08:09:49Z</time>
      </trkpt>
      <trkpt lat="45.93078" lon="4.72826">
        <ele>173</ele>
        <time>2017-04-24T08:09:50Z</time>
      </trkpt>
      <trkpt lat="45.93083" lon="4.72821">
        <ele>173</ele>
        <time>2017-04-24T08:09:51Z</time>
      </trkpt>
      <trkpt lat="45.9309" lon="4.72812">
        <ele>172</ele>
        <time>2017-04-24T08:09:52Z</time>
      </trkpt>
      <trkpt lat="45.93093" lon="4.72804">
        <ele>171</ele>
        <time>2017-04-24T08:09:53Z</time>
      </trkpt>
      <trkpt lat="45.93097" lon="4.72797">
        <ele>171</ele>
        <time>2017-04-24T08:09:54Z</time>
      </trkpt>
      <trkpt lat="45.93102" lon="4.72791">
        <ele>171</ele>
        <time>2017-04-24T08:09:55Z</time>
      </trkpt>
      <trkpt lat="45.93107" lon="4.72786">
        <ele>171</ele>
        <time>2017-04-24T08:09:56Z</time>
      </trkpt>
      <trkpt lat="45.93112" lon="4.72781">
        <ele>171</ele>
        <time>2017-04-24T08:09:57Z</time>
      </trkpt>
      <trkpt lat="45.93117" lon="4.72775">
        <ele>171</ele>
        <time>2017-04-24T08:09:58Z</time>
      </trkpt>
      <trkpt lat="45.93122" lon="4.72768">
        <ele>171</ele>
        <time>2017-04-24T08:09:59Z</time>
      </trkpt>
      <trkpt lat="45.93127" lon="4.72762">
        <ele>171</ele>
        <time>2017-04-24T08:10:00Z</time>
      </trkpt>
      <trkpt lat="45.93132" lon="4.72756">
        <ele>171</ele>
        <time>2017-04-24T08:10:01Z</time>
      </trkpt>
      <trkpt lat="45.93138" lon="4.7275">
        <ele>170</ele>
        <time>2017-04-24T08:10:02Z</time>
      </trkpt>
      <trkpt lat="45.93143" lon="4.72746">
        <ele>170</ele>
        <time>2017-04-24T08:10:03Z</time>
      </trkpt>
      <trkpt lat="45.93149" lon="4.72741">
        <ele>170</ele>
        <time>2017-04-24T08:10:04Z</time>
      </trkpt>
      <trkpt lat="45.93154" lon="4.72735">
        <ele>170</ele>
        <time>2017-04-24T08:10:05Z</time>
      </trkpt>
      <trkpt lat="45.93159" lon="4.7273">
        <ele>170</ele>
        <time>2017-04-24T08:10:06Z</time>
      </trkpt>
      <trkpt lat="45.93164" lon="4.72724">
        <ele>170</ele>
        <time>2017-04-24T08:10:07Z</time>
      </trkpt>
      <trkpt lat="45.93169" lon="4.72719">
        <ele>170</ele>
        <time>2017-04-24T08:10:08Z</time>
      </trkpt>
      <trkpt lat="45.93174" lon="4.72714">
        <ele>170</ele>
        <time>2017-04-24T08:10:09Z</time>
      </trkpt>
      <trkpt lat="45.93178" lon="4.72708">
        <ele>169</ele>
        <time>2017-04-24T08:10:10Z</time>
      </trkpt>
      <trkpt lat="45.93182" lon="4.72703">
        <ele>169</ele>
        <time>2017-04-24T08:10:11Z</time>
      </trkpt>
      <trkpt lat="45.93186" lon="4.72697">
        <ele>169</ele>
        <time>2017-04-24T08:10:12Z</time>
      </trkpt>
      <trkpt lat="45.93191" lon="4.72691">
        <ele>169</ele>
        <time>2017-04-24T08:10:13Z</time>
      </trkpt>
      <trkpt lat="45.93196" lon="4.72686">
        <ele>169</ele>
        <time>2017-04-24T08:10:14Z</time>
      </trkpt>
      <trkpt lat="45.932" lon="4.7268">
        <ele>169</ele>
        <time>2017-04-24T08:10:15Z</time>
      </trkpt>
      <trkpt lat="45.93206" lon="4.72675">
        <ele>169</ele>
        <time>2017-04-24T08:10:16Z</time>
      </trkpt>
      <trkpt lat="45.9321" lon="4.7267">
        <ele>169</ele>
        <time>2017-04-24T08:10:17Z</time>
      </trkpt>
      <trkpt lat="45.93215" lon="4.72665">
        <ele>170</ele>
        <time>2017-04-24T08:10:18Z</time>
      </trkpt>
      <trkpt lat="45.93219" lon="4.72659">
        <ele>170</ele>
        <time>2017-04-24T08:10:19Z</time>
      </trkpt>
      <trkpt lat="45.93224" lon="4.72654">
        <ele>170</ele>
        <time>2017-04-24T08:10:20Z</time>
      </trkpt>
      <trkpt lat="45.93228" lon="4.72649">
        <ele>170</ele>
        <time>2017-04-24T08:10:21Z</time>
      </trkpt>
      <trkpt lat="45.93234" lon="4.72644">
        <ele>170</ele>
        <time>2017-04-24T08:10:22Z</time>
      </trkpt>
      <trkpt lat="45.93239" lon="4.72639">
        <ele>170</ele>
        <time>2017-04-24T08:10:23Z</time>
      </trkpt>
      <trkpt lat="45.93244" lon="4.72634">
        <ele>170</ele>
        <time>2017-04-24T08:10:24Z</time>
      </trkpt>
      <trkpt lat="45.93249" lon="4.72628">
        <ele>170</ele>
        <time>2017-04-24T08:10:25Z</time>
      </trkpt>
      <trkpt lat="45.93254" lon="4.72622">
        <ele>170</ele>
        <time>2017-04-24T08:10:26Z</time>
      </trkpt>
      <trkpt lat="45.93259" lon="4.72616">
        <ele>170</ele>
        <time>2017-04-24T08:10:27Z</time>
      </trkpt>
      <trkpt lat="45.93264" lon="4.72611">
        <ele>170</ele>
        <time>2017-04-24T08:10:28Z</time>
      </trkpt>
      <trkpt lat="45.93269" lon="4.72605">
        <ele>170</ele>
        <time>2017-04-24T08:10:29Z</time>
      </trkpt>
      <trkpt lat="45.93273" lon="4.726">
        <ele>170</ele>
        <time>2017-04-24T08:10:30Z</time>
      </trkpt>
      <trkpt lat="45.93277" lon="4.72594">
        <ele>170</ele>
        <time>2017-04-24T08:10:31Z</time>
      </trkpt>
      <trkpt lat="45.93282" lon="4.72588">
        <ele>170</ele>
        <time>2017-04-24T08:10:32Z</time>
      </trkpt>
      <trkpt lat="45.93287" lon="4.72582">
        <ele>171</ele>
        <time>2017-04-24T08:10:33Z</time>
      </trkpt>
      <trkpt lat="45.93294" lon="4.72576">
        <ele>171</ele>
        <time>2017-04-24T08:10:34Z</time>
      </trkpt>
      <trkpt lat="45.93299" lon="4.7257">
        <ele>171</ele>
        <time>2017-04-24T08:10:35Z</time>
      </trkpt>
      <trkpt lat="45.93304" lon="4.72565">
        <ele>171</ele>
        <time>2017-04-24T08:10:36Z</time>
      </trkpt>
      <trkpt lat="45.93309" lon="4.72559">
        <ele>172</ele>
        <time>2017-04-24T08:10:37Z</time>
      </trkpt>
      <trkpt lat="45.93313" lon="4.72553">
        <ele>172</ele>
        <time>2017-04-24T08:10:38Z</time>
      </trkpt>
      <trkpt lat="45.93317" lon="4.72548">
        <ele>172</ele>
        <time>2017-04-24T08:10:39Z</time>
      </trkpt>
      <trkpt lat="45.93322" lon="4.72543">
        <ele>172</ele>
        <time>2017-04-24T08:10:40Z</time>
      </trkpt>
      <trkpt lat="45.93327" lon="4.72538">
        <ele>172</ele>
        <time>2017-04-24T08:10:41Z</time>
      </trkpt>
      <trkpt lat="45.93331" lon="4.72533">
        <ele>172</ele>
        <time>2017-04-24T08:10:42Z</time>
      </trkpt>
      <trkpt lat="45.93336" lon="4.72528">
        <ele>172</ele>
        <time>2017-04-24T08:10:43Z</time>
      </trkpt>
      <trkpt lat="45.9334" lon="4.72523">
        <ele>172</ele>
        <time>2017-04-24T08:10:44Z</time>
      </trkpt>
      <trkpt lat="45.93345" lon="4.72518">
        <ele>172</ele>
        <time>2017-04-24T08:10:45Z</time>
      </trkpt>
      <trkpt lat="45.93349" lon="4.72513">
        <ele>172</ele>
        <time>2017-04-24T08:10:46Z</time>
      </trkpt>
      <trkpt lat="45.93354" lon="4.72507">
        <ele>172</ele>
        <time>2017-04-24T08:10:47Z</time>
      </trkpt>
      <trkpt lat="45.93359" lon="4.72502">
        <ele>172</ele>
        <time>2017-04-24T08:10:48Z</time>
      </trkpt>
      <trkpt lat="45.93364" lon="4.72497">
        <ele>173</ele>
        <time>2017-04-24T08:10:49Z</time>
      </trkpt>
      <trkpt lat="45.93369" lon="4.72492">
        <ele>173</ele>
        <time>2017-04-24T08:10:50Z</time>
      </trkpt>
      <trkpt lat="45.93374" lon="4.72486">
        <ele>173</ele>
        <time>2017-04-24T08:10:51Z</time>
      </trkpt>
      <trkpt lat="45.93378" lon="4.7248">
        <ele>173</ele>
        <time>2017-04-24T08:10:52Z</time>
      </trkpt>
      <trkpt lat="45.93383" lon="4.72474">
        <ele>173</ele>
        <time>2017-04-24T08:10:53Z</time>
      </trkpt>
      <trkpt lat="45.93387" lon="4.72468">
        <ele>173</ele>
        <time>2017-04-24T08:10:54Z</time>
      </trkpt>
      <trkpt lat="45.93391" lon="4.72461">
        <ele>173</ele>
        <time>2017-04-24T08:10:55Z</time>
      </trkpt>
      <trkpt lat="45.93393" lon="4.72455">
        <ele>173</ele>
        <time>2017-04-24T08:10:56Z</time>
      </trkpt>
      <trkpt lat="45.93395" lon="4.72448">
        <ele>173</ele>
        <time>2017-04-24T08:10:57Z</time>
      </trkpt>
      <trkpt lat="45.93396" lon="4.72441">
        <ele>173</ele>
        <time>2017-04-24T08:10:58Z</time>
      </trkpt>
      <trkpt lat="45.93398" lon="4.72435">
        <ele>173</ele>
        <time>2017-04-24T08:10:59Z</time>
      </trkpt>
      <trkpt lat="45.93401" lon="4.72429">
        <ele>173</ele>
        <time>2017-04-24T08:11:00Z</time>
      </trkpt>
      <trkpt lat="45.93405" lon="4.72423">
        <ele>174</ele>
        <time>2017-04-24T08:11:01Z</time>
      </trkpt>
      <trkpt lat="45.93408" lon="4.72418">
        <ele>174</ele>
        <time>2017-04-24T08:11:02Z</time>
      </trkpt>
      <trkpt lat="45.93414" lon="4.72414">
        <ele>174</ele>
        <time>2017-04-24T08:11:03Z</time>
      </trkpt>
      <trkpt lat="45.93419" lon="4.72411">
        <ele>174</ele>
        <time>2017-04-24T08:11:04Z</time>
      </trkpt>
      <trkpt lat="45.93425" lon="4.72407">
        <ele>174</ele>
        <time>2017-04-24T08:11:05Z</time>
      </trkpt>
      <trkpt lat="45.93431" lon="4.72404">
        <ele>174</ele>
        <time>2017-04-24T08:11:06Z</time>
      </trkpt>
      <trkpt lat="45.93437" lon="4.72401">
        <ele>173</ele>
        <time>2017-04-24T08:11:07Z</time>
      </trkpt>
      <trkpt lat="45.93443" lon="4.72397">
        <ele>173</ele>
        <time>2017-04-24T08:11:08Z</time>
      </trkpt>
      <trkpt lat="45.93448" lon="4.72392">
        <ele>173</ele>
        <time>2017-04-24T08:11:09Z</time>
      </trkpt>
      <trkpt lat="45.93453" lon="4.72388">
        <ele>173</ele>
        <time>2017-04-24T08:11:10Z</time>
      </trkpt>
      <trkpt lat="45.93458" lon="4.72382">
        <ele>173</ele>
        <time>2017-04-24T08:11:11Z</time>
      </trkpt>
      <trkpt lat="45.93463" lon="4.72376">
        <ele>173</ele>
        <time>2017-04-24T08:11:12Z</time>
      </trkpt>
      <trkpt lat="45.93468" lon="4.72369">
        <ele>173</ele>
        <time>2017-04-24T08:11:13Z</time>
      </trkpt>
      <trkpt lat="45.93472" lon="4.72363">
        <ele>173</ele>
        <time>2017-04-24T08:11:14Z</time>
      </trkpt>
      <trkpt lat="45.93476" lon="4.72357">
        <ele>173</ele>
        <time>2017-04-24T08:11:15Z</time>
      </trkpt>
      <trkpt lat="45.9348" lon="4.7235">
        <ele>173</ele>
        <time>2017-04-24T08:11:16Z</time>
      </trkpt>
      <trkpt lat="45.93484" lon="4.72344">
        <ele>173</ele>
        <time>2017-04-24T08:11:17Z</time>
      </trkpt>
      <trkpt lat="45.93489" lon="4.72337">
        <ele>173</ele>
        <time>2017-04-24T08:11:18Z</time>
      </trkpt>
      <trkpt lat="45.93493" lon="4.72331">
        <ele>173</ele>
        <time>2017-04-24T08:11:19Z</time>
      </trkpt>
      <trkpt lat="45.93497" lon="4.72325">
        <ele>173</ele>
        <time>2017-04-24T08:11:20Z</time>
      </trkpt>
      <trkpt lat="45.93501" lon="4.72319">
        <ele>173</ele>
        <time>2017-04-24T08:11:21Z</time>
      </trkpt>
      <trkpt lat="45.93505" lon="4.72314">
        <ele>173</ele>
        <time>2017-04-24T08:11:22Z</time>
      </trkpt>
      <trkpt lat="45.93509" lon="4.72308">
        <ele>173</ele>
        <time>2017-04-24T08:11:23Z</time>
      </trkpt>
      <trkpt lat="45.93512" lon="4.72303">
        <ele>172</ele>
        <time>2017-04-24T08:11:24Z</time>
      </trkpt>
      <trkpt lat="45.93515" lon="4.72297">
        <ele>172</ele>
        <time>2017-04-24T08:11:25Z</time>
      </trkpt>
      <trkpt lat="45.93519" lon="4.72291">
        <ele>172</ele>
        <time>2017-04-24T08:11:26Z</time>
      </trkpt>
      <trkpt lat="45.93521" lon="4.72285">
        <ele>172</ele>
        <time>2017-04-24T08:11:27Z</time>
      </trkpt>
      <trkpt lat="45.93524" lon="4.72279">
        <ele>172</ele>
        <time>2017-04-24T08:11:28Z</time>
      </trkpt>
      <trkpt lat="45.93527" lon="4.72273">
        <ele>172</ele>
        <time>2017-04-24T08:11:29Z</time>
      </trkpt>
      <trkpt lat="45.9353" lon="4.72268">
        <ele>172</ele>
        <time>2017-04-24T08:11:30Z</time>
      </trkpt>
      <trkpt lat="45.93532" lon="4.72262">
        <ele>172</ele>
        <time>2017-04-24T08:11:31Z</time>
      </trkpt>
      <trkpt lat="45.93535" lon="4.72255">
        <ele>172</ele>
        <time>2017-04-24T08:11:32Z</time>
      </trkpt>
      <trkpt lat="45.93538" lon="4.72249">
        <ele>172</ele>
        <time>2017-04-24T08:11:33Z</time>
      </trkpt>
      <trkpt lat="45.9354" lon="4.72242">
        <ele>172</ele>
        <time>2017-04-24T08:11:34Z</time>
      </trkpt>
      <trkpt lat="45.93543" lon="4.72235">
        <ele>172</ele>
        <time>2017-04-24T08:11:35Z</time>
      </trkpt>
      <trkpt lat="45.93546" lon="4.72228">
        <ele>172</ele>
        <time>2017-04-24T08:11:36Z</time>
      </trkpt>
      <trkpt lat="45.93549" lon="4.72221">
        <ele>172</ele>
        <time>2017-04-24T08:11:37Z</time>
      </trkpt>
      <trkpt lat="45.93553" lon="4.72214">
        <ele>173</ele>
        <time>2017-04-24T08:11:38Z</time>
      </trkpt>
      <trkpt lat="45.93558" lon="4.72208">
        <ele>173</ele>
        <time>2017-04-24T08:11:39Z</time>
      </trkpt>
      <trkpt lat="45.93563" lon="4.72201">
        <ele>173</ele>
        <time>2017-04-24T08:11:40Z</time>
      </trkpt>
      <trkpt lat="45.93569" lon="4.72197">
        <ele>173</ele>
        <time>2017-04-24T08:11:41Z</time>
      </trkpt>
      <trkpt lat="45.93575" lon="4.72192">
        <ele>173</ele>
        <time>2017-04-24T08:11:42Z</time>
      </trkpt>
      <trkpt lat="45.9358" lon="4.72187">
        <ele>173</ele>
        <time>2017-04-24T08:11:43Z</time>
      </trkpt>
      <trkpt lat="45.93585" lon="4.72182">
        <ele>173</ele>
        <time>2017-04-24T08:11:44Z</time>
      </trkpt>
      <trkpt lat="45.93591" lon="4.72177">
        <ele>173</ele>
        <time>2017-04-24T08:11:45Z</time>
      </trkpt>
      <trkpt lat="45.93596" lon="4.72173">
        <ele>173</ele>
        <time>2017-04-24T08:11:46Z</time>
      </trkpt>
      <trkpt lat="45.93601" lon="4.72169">
        <ele>173</ele>
        <time>2017-04-24T08:11:47Z</time>
      </trkpt>
      <trkpt lat="45.93606" lon="4.72165">
        <ele>173</ele>
        <time>2017-04-24T08:11:48Z</time>
      </trkpt>
      <trkpt lat="45.9361" lon="4.72161">
        <ele>173</ele>
        <time>2017-04-24T08:11:49Z</time>
      </trkpt>
      <trkpt lat="45.93615" lon="4.72156">
        <ele>173</ele>
        <time>2017-04-24T08:11:50Z</time>
      </trkpt>
      <trkpt lat="45.9362" lon="4.72151">
        <ele>173</ele>
        <time>2017-04-24T08:11:51Z</time>
      </trkpt>
      <trkpt lat="45.93624" lon="4.72146">
        <ele>173</ele>
        <time>2017-04-24T08:11:52Z</time>
      </trkpt>
      <trkpt lat="45.93629" lon="4.72141">
        <ele>173</ele>
        <time>2017-04-24T08:11:53Z</time>
      </trkpt>
      <trkpt lat="45.93633" lon="4.72135">
        <ele>173</ele>
        <time>2017-04-24T08:11:54Z</time>
      </trkpt>
      <trkpt lat="45.93637" lon="4.72129">
        <ele>173</ele>
        <time>2017-04-24T08:11:55Z</time>
      </trkpt>
      <trkpt lat="45.9364" lon="4.72122">
        <ele>173</ele>
        <time>2017-04-24T08:11:56Z</time>
      </trkpt>
      <trkpt lat="45.93644" lon="4.72116">
        <ele>173</ele>
        <time>2017-04-24T08:11:57Z</time>
      </trkpt>
      <trkpt lat="45.93647" lon="4.7211">
        <ele>173</ele>
        <time>2017-04-24T08:11:58Z</time>
      </trkpt>
      <trkpt lat="45.9365" lon="4.72103">
        <ele>173</ele>
        <time>2017-04-24T08:11:59Z</time>
      </trkpt>
      <trkpt lat="45.93654" lon="4.72097">
        <ele>173</ele>
        <time>2017-04-24T08:12:00Z</time>
      </trkpt>
      <trkpt lat="45.93658" lon="4.72091">
        <ele>173</ele>
        <time>2017-04-24T08:12:01Z</time>
      </trkpt>
      <trkpt lat="45.93661" lon="4.72084">
        <ele>172</ele>
        <time>2017-04-24T08:12:02Z</time>
      </trkpt>
      <trkpt lat="45.93665" lon="4.72078">
        <ele>173</ele>
        <time>2017-04-24T08:12:03Z</time>
      </trkpt>
      <trkpt lat="45.93668" lon="4.72071">
        <ele>172</ele>
        <time>2017-04-24T08:12:04Z</time>
      </trkpt>
      <trkpt lat="45.93672" lon="4.72065">
        <ele>172</ele>
        <time>2017-04-24T08:12:05Z</time>
      </trkpt>
      <trkpt lat="45.93676" lon="4.72058">
        <ele>172</ele>
        <time>2017-04-24T08:12:06Z</time>
      </trkpt>
      <trkpt lat="45.93679" lon="4.72051">
        <ele>172</ele>
        <time>2017-04-24T08:12:07Z</time>
      </trkpt>
      <trkpt lat="45.93682" lon="4.72044">
        <ele>172</ele>
        <time>2017-04-24T08:12:08Z</time>
      </trkpt>
      <trkpt lat="45.93686" lon="4.72037">
        <ele>173</ele>
        <time>2017-04-24T08:12:09Z</time>
      </trkpt>
      <trkpt lat="45.93689" lon="4.72029">
        <ele>173</ele>
        <time>2017-04-24T08:12:10Z</time>
      </trkpt>
      <trkpt lat="45.93695" lon="4.72022">
        <ele>172</ele>
        <time>2017-04-24T08:12:11Z</time>
      </trkpt>
      <trkpt lat="45.93699" lon="4.72016">
        <ele>172</ele>
        <time>2017-04-24T08:12:12Z</time>
      </trkpt>
      <trkpt lat="45.93703" lon="4.7201">
        <ele>172</ele>
        <time>2017-04-24T08:12:13Z</time>
      </trkpt>
      <trkpt lat="45.93707" lon="4.72004">
        <ele>172</ele>
        <time>2017-04-24T08:12:14Z</time>
      </trkpt>
      <trkpt lat="45.93712" lon="4.71998">
        <ele>172</ele>
        <time>2017-04-24T08:12:15Z</time>
      </trkpt>
      <trkpt lat="45.93716" lon="4.71991">
        <ele>172</ele>
        <time>2017-04-24T08:12:16Z</time>
      </trkpt>
      <trkpt lat="45.9372" lon="4.71985">
        <ele>172</ele>
        <time>2017-04-24T08:12:17Z</time>
      </trkpt>
      <trkpt lat="45.93724" lon="4.71978">
        <ele>172</ele>
        <time>2017-04-24T08:12:18Z</time>
      </trkpt>
      <trkpt lat="45.93728" lon="4.71971">
        <ele>172</ele>
        <time>2017-04-24T08:12:19Z</time>
      </trkpt>
      <trkpt lat="45.93733" lon="4.71965">
        <ele>172</ele>
        <time>2017-04-24T08:12:20Z</time>
      </trkpt>
      <trkpt lat="45.93738" lon="4.71959">
        <ele>172</ele>
        <time>2017-04-24T08:12:21Z</time>
      </trkpt>
      <trkpt lat="45.93743" lon="4.71955">
        <ele>172</ele>
        <time>2017-04-24T08:12:22Z</time>
      </trkpt>
      <trkpt lat="45.93748" lon="4.7195">
        <ele>172</ele>
        <time>2017-04-24T08:12:23Z</time>
      </trkpt>
      <trkpt lat="45.93752" lon="4.71944">
        <ele>171</ele>
        <time>2017-04-24T08:12:24Z</time>
      </trkpt>
      <trkpt lat="45.93756" lon="4.71937">
        <ele>171</ele>
        <time>2017-04-24T08:12:25Z</time>
      </trkpt>
      <trkpt lat="45.9376" lon="4.7193">
        <ele>171</ele>
        <time>2017-04-24T08:12:26Z</time>
      </trkpt>
      <trkpt lat="45.93764" lon="4.71923">
        <ele>171</ele>
        <time>2017-04-24T08:12:27Z</time>
      </trkpt>
      <trkpt lat="45.93767" lon="4.71916">
        <ele>172</ele>
        <time>2017-04-24T08:12:28Z</time>
      </trkpt>
      <trkpt lat="45.9377" lon="4.71908">
        <ele>172</ele>
        <time>2017-04-24T08:12:29Z</time>
      </trkpt>
      <trkpt lat="45.93773" lon="4.71901">
        <ele>172</ele>
        <time>2017-04-24T08:12:30Z</time>
      </trkpt>
      <trkpt lat="45.93775" lon="4.71893">
        <ele>172</ele>
        <time>2017-04-24T08:12:31Z</time>
      </trkpt>
      <trkpt lat="45.93777" lon="4.71885">
        <ele>172</ele>
        <time>2017-04-24T08:12:32Z</time>
      </trkpt>
      <trkpt lat="45.93778" lon="4.71877">
        <ele>172</ele>
        <time>2017-04-24T08:12:33Z</time>
      </trkpt>
      <trkpt lat="45.93782" lon="4.71869">
        <ele>172</ele>
        <time>2017-04-24T08:12:34Z</time>
      </trkpt>
      <trkpt lat="45.93786" lon="4.71862">
        <ele>172</ele>
        <time>2017-04-24T08:12:35Z</time>
      </trkpt>
      <trkpt lat="45.9379" lon="4.71856">
        <ele>172</ele>
        <time>2017-04-24T08:12:36Z</time>
      </trkpt>
      <trkpt lat="45.93795" lon="4.71849">
        <ele>172</ele>
        <time>2017-04-24T08:12:37Z</time>
      </trkpt>
      <trkpt lat="45.93799" lon="4.71841">
        <ele>172</ele>
        <time>2017-04-24T08:12:38Z</time>
      </trkpt>
      <trkpt lat="45.93803" lon="4.71834">
        <ele>172</ele>
        <time>2017-04-24T08:12:39Z</time>
      </trkpt>
      <trkpt lat="45.93807" lon="4.71827">
        <ele>173</ele>
        <time>2017-04-24T08:12:40Z</time>
      </trkpt>
      <trkpt lat="45.93811" lon="4.7182">
        <ele>173</ele>
        <time>2017-04-24T08:12:41Z</time>
      </trkpt>
      <trkpt lat="45.93814" lon="4.71812">
        <ele>173</ele>
        <time>2017-04-24T08:12:42Z</time>
      </trkpt>
      <trkpt lat="45.93818" lon="4.71805">
        <ele>174</ele>
        <time>2017-04-24T08:12:43Z</time>
      </trkpt>
      <trkpt lat="45.93823" lon="4.71798">
        <ele>174</ele>
        <time>2017-04-24T08:12:44Z</time>
      </trkpt>
      <trkpt lat="45.93827" lon="4.71791">
        <ele>174</ele>
        <time>2017-04-24T08:12:45Z</time>
      </trkpt>
      <trkpt lat="45.93831" lon="4.71784">
        <ele>174</ele>
        <time>2017-04-24T08:12:46Z</time>
      </trkpt>
      <trkpt lat="45.93835" lon="4.71778">
        <ele>173</ele>
        <time>2017-04-24T08:12:47Z</time>
      </trkpt>
      <trkpt lat="45.93839" lon="4.71771">
        <ele>173</ele>
        <time>2017-04-24T08:12:48Z</time>
      </trkpt>
      <trkpt lat="45.93843" lon="4.71764">
        <ele>174</ele>
        <time>2017-04-24T08:12:49Z</time>
      </trkpt>
      <trkpt lat="45.93848" lon="4.71758">
        <ele>174</ele>
        <time>2017-04-24T08:12:50Z</time>
      </trkpt>
      <trkpt lat="45.93853" lon="4.71752">
        <ele>174</ele>
        <time>2017-04-24T08:12:51Z</time>
      </trkpt>
      <trkpt lat="45.93858" lon="4.71746">
        <ele>174</ele>
        <time>2017-04-24T08:12:52Z</time>
      </trkpt>
      <trkpt lat="45.93864" lon="4.71741">
        <ele>174</ele>
        <time>2017-04-24T08:12:53Z</time>
      </trkpt>
      <trkpt lat="45.93869" lon="4.71735">
        <ele>174</ele>
        <time>2017-04-24T08:12:54Z</time>
      </trkpt>
      <trkpt lat="45.93874" lon="4.71729">
        <ele>174</ele>
        <time>2017-04-24T08:12:55Z</time>
      </trkpt>
      <trkpt lat="45.93879" lon="4.71723">
        <ele>174</ele>
        <time>2017-04-24T08:12:56Z</time>
      </trkpt>
      <trkpt lat="45.93885" lon="4.71718">
        <ele>174</ele>
        <time>2017-04-24T08:12:57Z</time>
      </trkpt>
      <trkpt lat="45.9389" lon="4.71712">
        <ele>174</ele>
        <time>2017-04-24T08:12:58Z</time>
      </trkpt>
      <trkpt lat="45.93896" lon="4.71706">
        <ele>174</ele>
        <time>2017-04-24T08:12:59Z</time>
      </trkpt>
      <trkpt lat="45.93901" lon="4.71701">
        <ele>174</ele>
        <time>2017-04-24T08:13:00Z</time>
      </trkpt>
      <trkpt lat="45.93908" lon="4.71697">
        <ele>174</ele>
        <time>2017-04-24T08:13:01Z</time>
      </trkpt>
      <trkpt lat="45.93916" lon="4.71693">
        <ele>174</ele>
        <time>2017-04-24T08:13:02Z</time>
      </trkpt>
      <trkpt lat="45.93923" lon="4.7169">
        <ele>175</ele>
        <time>2017-04-24T08:13:03Z</time>
      </trkpt>
      <trkpt lat="45.9393" lon="4.71687">
        <ele>175</ele>
        <time>2017-04-24T08:13:04Z</time>
      </trkpt>
      <trkpt lat="45.93936" lon="4.71685">
        <ele>175</ele>
        <time>2017-04-24T08:13:05Z</time>
      </trkpt>
      <trkpt lat="45.93943" lon="4.71683">
        <ele>175</ele>
        <time>2017-04-24T08:13:06Z</time>
      </trkpt>
      <trkpt lat="45.93948" lon="4.71681">
        <ele>175</ele>
        <time>2017-04-24T08:13:07Z</time>
      </trkpt>
      <trkpt lat="45.93954" lon="4.71678">
        <ele>175</ele>
        <time>2017-04-24T08:13:08Z</time>
      </trkpt>
      <trkpt lat="45.9396" lon="4.71675">
        <ele>175</ele>
        <time>2017-04-24T08:13:09Z</time>
      </trkpt>
      <trkpt lat="45.93966" lon="4.71672">
        <ele>175</ele>
        <time>2017-04-24T08:13:10Z</time>
      </trkpt>
      <trkpt lat="45.93972" lon="4.7167">
        <ele>175</ele>
        <time>2017-04-24T08:13:11Z</time>
      </trkpt>
      <trkpt lat="45.93977" lon="4.71667">
        <ele>176</ele>
        <time>2017-04-24T08:13:12Z</time>
      </trkpt>
      <trkpt lat="45.93982" lon="4.71664">
        <ele>177</ele>
        <time>2017-04-24T08:13:13Z</time>
      </trkpt>
      <trkpt lat="45.93987" lon="4.71663">
        <ele>177</ele>
        <time>2017-04-24T08:13:14Z</time>
      </trkpt>
      <trkpt lat="45.93993" lon="4.71664">
        <ele>177</ele>
        <time>2017-04-24T08:13:15Z</time>
      </trkpt>
      <trkpt lat="45.93998" lon="4.71666">
        <ele>177</ele>
        <time>2017-04-24T08:13:16Z</time>
      </trkpt>
      <trkpt lat="45.94005" lon="4.71673">
        <ele>176</ele>
        <time>2017-04-24T08:13:18Z</time>
      </trkpt>
      <trkpt lat="45.94009" lon="4.71674">
        <ele>176</ele>
        <time>2017-04-24T08:13:19Z</time>
      </trkpt>
      <trkpt lat="45.94016" lon="4.71668">
        <ele>176</ele>
        <time>2017-04-24T08:13:21Z</time>
      </trkpt>
      <trkpt lat="45.94018" lon="4.71662">
        <ele>176</ele>
        <time>2017-04-24T08:13:22Z</time>
      </trkpt>
      <trkpt lat="45.9402" lon="4.71656">
        <ele>176</ele>
        <time>2017-04-24T08:13:23Z</time>
      </trkpt>
      <trkpt lat="45.94023" lon="4.71651">
        <ele>175</ele>
        <time>2017-04-24T08:13:24Z</time>
      </trkpt>
      <trkpt lat="45.94027" lon="4.71647">
        <ele>175</ele>
        <time>2017-04-24T08:13:25Z</time>
      </trkpt>
      <trkpt lat="45.94032" lon="4.71644">
        <ele>175</ele>
        <time>2017-04-24T08:13:26Z</time>
      </trkpt>
      <trkpt lat="45.94038" lon="4.71642">
        <ele>175</ele>
        <time>2017-04-24T08:13:27Z</time>
      </trkpt>
      <trkpt lat="45.94043" lon="4.7164">
        <ele>175</ele>
        <time>2017-04-24T08:13:28Z</time>
      </trkpt>
      <trkpt lat="45.94048" lon="4.71637">
        <ele>175</ele>
        <time>2017-04-24T08:13:29Z</time>
      </trkpt>
      <trkpt lat="45.94053" lon="4.71635">
        <ele>175</ele>
        <time>2017-04-24T08:13:30Z</time>
      </trkpt>
      <trkpt lat="45.94059" lon="4.71632">
        <ele>174</ele>
        <time>2017-04-24T08:13:31Z</time>
      </trkpt>
      <trkpt lat="45.94064" lon="4.71629">
        <ele>174</ele>
        <time>2017-04-24T08:13:32Z</time>
      </trkpt>
      <trkpt lat="45.9407" lon="4.71626">
        <ele>174</ele>
        <time>2017-04-24T08:13:33Z</time>
      </trkpt>
      <trkpt lat="45.94074" lon="4.71624">
        <ele>174</ele>
        <time>2017-04-24T08:13:34Z</time>
      </trkpt>
      <trkpt lat="45.94079" lon="4.71622">
        <ele>174</ele>
        <time>2017-04-24T08:13:35Z</time>
      </trkpt>
      <trkpt lat="45.94084" lon="4.7162">
        <ele>173</ele>
        <time>2017-04-24T08:13:36Z</time>
      </trkpt>
      <trkpt lat="45.9409" lon="4.71618">
        <ele>173</ele>
        <time>2017-04-24T08:13:37Z</time>
      </trkpt>
      <trkpt lat="45.94095" lon="4.71615">
        <ele>173</ele>
        <time>2017-04-24T08:13:38Z</time>
      </trkpt>
      <trkpt lat="45.94101" lon="4.7161">
        <ele>173</ele>
        <time>2017-04-24T08:13:39Z</time>
      </trkpt>
      <trkpt lat="45.94106" lon="4.71607">
        <ele>173</ele>
        <time>2017-04-24T08:13:40Z</time>
      </trkpt>
      <trkpt lat="45.94112" lon="4.71604">
        <ele>173</ele>
        <time>2017-04-24T08:13:41Z</time>
      </trkpt>
      <trkpt lat="45.9412" lon="4.71603">
        <ele>173</ele>
        <time>2017-04-24T08:13:42Z</time>
      </trkpt>
      <trkpt lat="45.94126" lon="4.71601">
        <ele>173</ele>
        <time>2017-04-24T08:13:43Z</time>
      </trkpt>
      <trkpt lat="45.94133" lon="4.71598">
        <ele>173</ele>
        <time>2017-04-24T08:13:44Z</time>
      </trkpt>
      <trkpt lat="45.9414" lon="4.71597">
        <ele>173</ele>
        <time>2017-04-24T08:13:45Z</time>
      </trkpt>
      <trkpt lat="45.94146" lon="4.71595">
        <ele>173</ele>
        <time>2017-04-24T08:13:46Z</time>
      </trkpt>
      <trkpt lat="45.94151" lon="4.71593">
        <ele>173</ele>
        <time>2017-04-24T08:13:47Z</time>
      </trkpt>
      <trkpt lat="45.94158" lon="4.7159">
        <ele>174</ele>
        <time>2017-04-24T08:13:48Z</time>
      </trkpt>
      <trkpt lat="45.94164" lon="4.71588">
        <ele>174</ele>
        <time>2017-04-24T08:13:49Z</time>
      </trkpt>
      <trkpt lat="45.9417" lon="4.71586">
        <ele>174</ele>
        <time>2017-04-24T08:13:50Z</time>
      </trkpt>
      <trkpt lat="45.94176" lon="4.71585">
        <ele>174</ele>
        <time>2017-04-24T08:13:51Z</time>
      </trkpt>
      <trkpt lat="45.9418" lon="4.71583">
        <ele>174</ele>
        <time>2017-04-24T08:13:52Z</time>
      </trkpt>
      <trkpt lat="45.94185" lon="4.71581">
        <ele>174</ele>
        <time>2017-04-24T08:13:53Z</time>
      </trkpt>
      <trkpt lat="45.9419" lon="4.7158">
        <ele>174</ele>
        <time>2017-04-24T08:13:54Z</time>
      </trkpt>
      <trkpt lat="45.94196" lon="4.71578">
        <ele>174</ele>
        <time>2017-04-24T08:13:55Z</time>
      </trkpt>
      <trkpt lat="45.94201" lon="4.71576">
        <ele>174</ele>
        <time>2017-04-24T08:13:56Z</time>
      </trkpt>
      <trkpt lat="45.94205" lon="4.71574">
        <ele>174</ele>
        <time>2017-04-24T08:13:57Z</time>
      </trkpt>
      <trkpt lat="45.9421" lon="4.71572">
        <ele>174</ele>
        <time>2017-04-24T08:13:58Z</time>
      </trkpt>
      <trkpt lat="45.94216" lon="4.7157">
        <ele>174</ele>
        <time>2017-04-24T08:13:59Z</time>
      </trkpt>
      <trkpt lat="45.94221" lon="4.71569">
        <ele>174</ele>
        <time>2017-04-24T08:14:00Z</time>
      </trkpt>
      <trkpt lat="45.94227" lon="4.71567">
        <ele>174</ele>
        <time>2017-04-24T08:14:01Z</time>
      </trkpt>
      <trkpt lat="45.94232" lon="4.71564">
        <ele>174</ele>
        <time>2017-04-24T08:14:02Z</time>
      </trkpt>
      <trkpt lat="45.94237" lon="4.71562">
        <ele>174</ele>
        <time>2017-04-24T08:14:03Z</time>
      </trkpt>
      <trkpt lat="45.94243" lon="4.7156">
        <ele>174</ele>
        <time>2017-04-24T08:14:04Z</time>
      </trkpt>
      <trkpt lat="45.94248" lon="4.71557">
        <ele>174</ele>
        <time>2017-04-24T08:14:05Z</time>
      </trkpt>
      <trkpt lat="45.94252" lon="4.71554">
        <ele>175</ele>
        <time>2017-04-24T08:14:06Z</time>
      </trkpt>
      <trkpt lat="45.94258" lon="4.71552">
        <ele>175</ele>
        <time>2017-04-24T08:14:07Z</time>
      </trkpt>
      <trkpt lat="45.94263" lon="4.71549">
        <ele>175</ele>
        <time>2017-04-24T08:14:08Z</time>
      </trkpt>
      <trkpt lat="45.94269" lon="4.71548">
        <ele>175</ele>
        <time>2017-04-24T08:14:09Z</time>
      </trkpt>
      <trkpt lat="45.94275" lon="4.71547">
        <ele>175</ele>
        <time>2017-04-24T08:14:10Z</time>
      </trkpt>
      <trkpt lat="45.94281" lon="4.71544">
        <ele>175</ele>
        <time>2017-04-24T08:14:11Z</time>
      </trkpt>
      <trkpt lat="45.94287" lon="4.71542">
        <ele>175</ele>
        <time>2017-04-24T08:14:12Z</time>
      </trkpt>
      <trkpt lat="45.94292" lon="4.7154">
        <ele>175</ele>
        <time>2017-04-24T08:14:13Z</time>
      </trkpt>
      <trkpt lat="45.94298" lon="4.71538">
        <ele>175</ele>
        <time>2017-04-24T08:14:14Z</time>
      </trkpt>
      <trkpt lat="45.94304" lon="4.71536">
        <ele>175</ele>
        <time>2017-04-24T08:14:15Z</time>
      </trkpt>
      <trkpt lat="45.94309" lon="4.71534">
        <ele>175</ele>
        <time>2017-04-24T08:14:16Z</time>
      </trkpt>
      <trkpt lat="45.94314" lon="4.71533">
        <ele>175</ele>
        <time>2017-04-24T08:14:17Z</time>
      </trkpt>
      <trkpt lat="45.94318" lon="4.7153">
        <ele>175</ele>
        <time>2017-04-24T08:14:18Z</time>
      </trkpt>
      <trkpt lat="45.94323" lon="4.71528">
        <ele>176</ele>
        <time>2017-04-24T08:14:19Z</time>
      </trkpt>
      <trkpt lat="45.94328" lon="4.71527">
        <ele>176</ele>
        <time>2017-04-24T08:14:20Z</time>
      </trkpt>
      <trkpt lat="45.94333" lon="4.71525">
        <ele>176</ele>
        <time>2017-04-24T08:14:21Z</time>
      </trkpt>
      <trkpt lat="45.94338" lon="4.71524">
        <ele>176</ele>
        <time>2017-04-24T08:14:22Z</time>
      </trkpt>
      <trkpt lat="45.94343" lon="4.71522">
        <ele>176</ele>
        <time>2017-04-24T08:14:23Z</time>
      </trkpt>
      <trkpt lat="45.94348" lon="4.71519">
        <ele>176</ele>
        <time>2017-04-24T08:14:24Z</time>
      </trkpt>
      <trkpt lat="45.94354" lon="4.71519">
        <ele>176</ele>
        <time>2017-04-24T08:14:25Z</time>
      </trkpt>
      <trkpt lat="45.94358" lon="4.71517">
        <ele>176</ele>
        <time>2017-04-24T08:14:26Z</time>
      </trkpt>
      <trkpt lat="45.94363" lon="4.71515">
        <ele>176</ele>
        <time>2017-04-24T08:14:27Z</time>
      </trkpt>
      <trkpt lat="45.94368" lon="4.71513">
        <ele>176</ele>
        <time>2017-04-24T08:14:28Z</time>
      </trkpt>
      <trkpt lat="45.94373" lon="4.71512">
        <ele>176</ele>
        <time>2017-04-24T08:14:29Z</time>
      </trkpt>
      <trkpt lat="45.94378" lon="4.7151">
        <ele>177</ele>
        <time>2017-04-24T08:14:30Z</time>
      </trkpt>
      <trkpt lat="45.94383" lon="4.71509">
        <ele>177</ele>
        <time>2017-04-24T08:14:31Z</time>
      </trkpt>
      <trkpt lat="45.94389" lon="4.71507">
        <ele>177</ele>
        <time>2017-04-24T08:14:32Z</time>
      </trkpt>
      <trkpt lat="45.94394" lon="4.71506">
        <ele>177</ele>
        <time>2017-04-24T08:14:33Z</time>
      </trkpt>
      <trkpt lat="45.94399" lon="4.71503">
        <ele>177</ele>
        <time>2017-04-24T08:14:34Z</time>
      </trkpt>
      <trkpt lat="45.94404" lon="4.715">
        <ele>178</ele>
        <time>2017-04-24T08:14:35Z</time>
      </trkpt>
      <trkpt lat="45.94409" lon="4.71497">
        <ele>178</ele>
        <time>2017-04-24T08:14:36Z</time>
      </trkpt>
      <trkpt lat="45.94414" lon="4.71494">
        <ele>178</ele>
        <time>2017-04-24T08:14:37Z</time>
      </trkpt>
      <trkpt lat="45.94419" lon="4.71491">
        <ele>178</ele>
        <time>2017-04-24T08:14:38Z</time>
      </trkpt>
      <trkpt lat="45.94424" lon="4.71488">
        <ele>178</ele>
        <time>2017-04-24T08:14:39Z</time>
      </trkpt>
      <trkpt lat="45.94428" lon="4.71486">
        <ele>178</ele>
        <time>2017-04-24T08:14:40Z</time>
      </trkpt>
      <trkpt lat="45.94432" lon="4.71482">
        <ele>179</ele>
        <time>2017-04-24T08:14:41Z</time>
      </trkpt>
      <trkpt lat="45.94437" lon="4.71479">
        <ele>179</ele>
        <time>2017-04-24T08:14:42Z</time>
      </trkpt>
      <trkpt lat="45.94441" lon="4.71477">
        <ele>179</ele>
        <time>2017-04-24T08:14:43Z</time>
      </trkpt>
      <trkpt lat="45.94446" lon="4.71474">
        <ele>179</ele>
        <time>2017-04-24T08:14:44Z</time>
      </trkpt>
      <trkpt lat="45.94451" lon="4.71471">
        <ele>179</ele>
        <time>2017-04-24T08:14:45Z</time>
      </trkpt>
      <trkpt lat="45.94456" lon="4.71469">
        <ele>179</ele>
        <time>2017-04-24T08:14:46Z</time>
      </trkpt>
      <trkpt lat="45.94462" lon="4.71466">
        <ele>179</ele>
        <time>2017-04-24T08:14:47Z</time>
      </trkpt>
      <trkpt lat="45.94468" lon="4.71462">
        <ele>179</ele>
        <time>2017-04-24T08:14:48Z</time>
      </trkpt>
      <trkpt lat="45.94473" lon="4.71458">
        <ele>179</ele>
        <time>2017-04-24T08:14:49Z</time>
      </trkpt>
      <trkpt lat="45.94478" lon="4.71454">
        <ele>179</ele>
        <time>2017-04-24T08:14:50Z</time>
      </trkpt>
      <trkpt lat="45.94483" lon="4.71452">
        <ele>179</ele>
        <time>2017-04-24T08:14:51Z</time>
      </trkpt>
      <trkpt lat="45.94487" lon="4.71449">
        <ele>180</ele>
        <time>2017-04-24T08:14:52Z</time>
      </trkpt>
      <trkpt lat="45.94495" lon="4.71445">
        <ele>180</ele>
        <time>2017-04-24T08:14:54Z</time>
      </trkpt>
      <trkpt lat="45.94499" lon="4.71443">
        <ele>180</ele>
        <time>2017-04-24T08:14:55Z</time>
      </trkpt>
      <trkpt lat="45.94504" lon="4.71441">
        <ele>181</ele>
        <time>2017-04-24T08:14:56Z</time>
      </trkpt>
      <trkpt lat="45.94509" lon="4.71439">
        <ele>181</ele>
        <time>2017-04-24T08:14:57Z</time>
      </trkpt>
      <trkpt lat="45.94515" lon="4.71437">
        <ele>181</ele>
        <time>2017-04-24T08:14:58Z</time>
      </trkpt>
      <trkpt lat="45.94521" lon="4.71436">
        <ele>181</ele>
        <time>2017-04-24T08:14:59Z</time>
      </trkpt>
      <trkpt lat="45.94526" lon="4.71434">
        <ele>181</ele>
        <time>2017-04-24T08:15:00Z</time>
      </trkpt>
      <trkpt lat="45.94532" lon="4.71432">
        <ele>181</ele>
        <time>2017-04-24T08:15:01Z</time>
      </trkpt>
      <trkpt lat="45.94537" lon="4.7143">
        <ele>181</ele>
        <time>2017-04-24T08:15:02Z</time>
      </trkpt>
      <trkpt lat="45.94542" lon="4.71429">
        <ele>181</ele>
        <time>2017-04-24T08:15:03Z</time>
      </trkpt>
      <trkpt lat="45.94547" lon="4.71427">
        <ele>181</ele>
        <time>2017-04-24T08:15:04Z</time>
      </trkpt>
      <trkpt lat="45.94552" lon="4.71426">
        <ele>181</ele>
        <time>2017-04-24T08:15:05Z</time>
      </trkpt>
      <trkpt lat="45.94557" lon="4.71425">
        <ele>182</ele>
        <time>2017-04-24T08:15:06Z</time>
      </trkpt>
      <trkpt lat="45.94562" lon="4.71423">
        <ele>182</ele>
        <time>2017-04-24T08:15:07Z</time>
      </trkpt>
      <trkpt lat="45.94567" lon="4.71422">
        <ele>183</ele>
        <time>2017-04-24T08:15:08Z</time>
      </trkpt>
      <trkpt lat="45.94572" lon="4.71422">
        <ele>183</ele>
        <time>2017-04-24T08:15:09Z</time>
      </trkpt>
      <trkpt lat="45.94576" lon="4.71423">
        <ele>183</ele>
        <time>2017-04-24T08:15:10Z</time>
      </trkpt>
      <trkpt lat="45.94581" lon="4.71424">
        <ele>184</ele>
        <time>2017-04-24T08:15:11Z</time>
      </trkpt>
      <trkpt lat="45.94586" lon="4.71425">
        <ele>184</ele>
        <time>2017-04-24T08:15:12Z</time>
      </trkpt>
      <trkpt lat="45.9459" lon="4.71426">
        <ele>183</ele>
        <time>2017-04-24T08:15:13Z</time>
      </trkpt>
      <trkpt lat="45.94595" lon="4.71427">
        <ele>183</ele>
        <time>2017-04-24T08:15:14Z</time>
      </trkpt>
      <trkpt lat="45.946" lon="4.71428">
        <ele>183</ele>
        <time>2017-04-24T08:15:15Z</time>
      </trkpt>
      <trkpt lat="45.94605" lon="4.71429">
        <ele>182</ele>
        <time>2017-04-24T08:15:16Z</time>
      </trkpt>
      <trkpt lat="45.94612" lon="4.71434">
        <ele>182</ele>
        <time>2017-04-24T08:15:17Z</time>
      </trkpt>
      <trkpt lat="45.94619" lon="4.71437">
        <ele>182</ele>
        <time>2017-04-24T08:15:18Z</time>
      </trkpt>
      <trkpt lat="45.94624" lon="4.71439">
        <ele>181</ele>
        <time>2017-04-24T08:15:19Z</time>
      </trkpt>
      <trkpt lat="45.9463" lon="4.7144">
        <ele>181</ele>
        <time>2017-04-24T08:15:20Z</time>
      </trkpt>
      <trkpt lat="45.94635" lon="4.71441">
        <ele>181</ele>
        <time>2017-04-24T08:15:21Z</time>
      </trkpt>
      <trkpt lat="45.9464" lon="4.71442">
        <ele>181</ele>
        <time>2017-04-24T08:15:22Z</time>
      </trkpt>
      <trkpt lat="45.94645" lon="4.71444">
        <ele>181</ele>
        <time>2017-04-24T08:15:23Z</time>
      </trkpt>
      <trkpt lat="45.9465" lon="4.71444">
        <ele>181</ele>
        <time>2017-04-24T08:15:24Z</time>
      </trkpt>
      <trkpt lat="45.94655" lon="4.71445">
        <ele>181</ele>
        <time>2017-04-24T08:15:25Z</time>
      </trkpt>
      <trkpt lat="45.9466" lon="4.71445">
        <ele>181</ele>
        <time>2017-04-24T08:15:26Z</time>
      </trkpt>
      <trkpt lat="45.94665" lon="4.71445">
        <ele>181</ele>
        <time>2017-04-24T08:15:27Z</time>
      </trkpt>
      <trkpt lat="45.94669" lon="4.71445">
        <ele>182</ele>
        <time>2017-04-24T08:15:28Z</time>
      </trkpt>
      <trkpt lat="45.94674" lon="4.71445">
        <ele>182</ele>
        <time>2017-04-24T08:15:29Z</time>
      </trkpt>
      <trkpt lat="45.94679" lon="4.71445">
        <ele>182</ele>
        <time>2017-04-24T08:15:30Z</time>
      </trkpt>
      <trkpt lat="45.94684" lon="4.71445">
        <ele>182</ele>
        <time>2017-04-24T08:15:31Z</time>
      </trkpt>
      <trkpt lat="45.94689" lon="4.71446">
        <ele>182</ele>
        <time>2017-04-24T08:15:32Z</time>
      </trkpt>
      <trkpt lat="45.94694" lon="4.71447">
        <ele>182</ele>
        <time>2017-04-24T08:15:33Z</time>
      </trkpt>
      <trkpt lat="45.94702" lon="4.71448">
        <ele>182</ele>
        <time>2017-04-24T08:15:35Z</time>
      </trkpt>
      <trkpt lat="45.94707" lon="4.71448">
        <ele>182</ele>
        <time>2017-04-24T08:15:36Z</time>
      </trkpt>
      <trkpt lat="45.94712" lon="4.71448">
        <ele>182</ele>
        <time>2017-04-24T08:15:37Z</time>
      </trkpt>
      <trkpt lat="45.94717" lon="4.71448">
        <ele>182</ele>
        <time>2017-04-24T08:15:38Z</time>
      </trkpt>
      <trkpt lat="45.94723" lon="4.71448">
        <ele>182</ele>
        <time>2017-04-24T08:15:39Z</time>
      </trkpt>
      <trkpt lat="45.94728" lon="4.71448">
        <ele>182</ele>
        <time>2017-04-24T08:15:40Z</time>
      </trkpt>
      <trkpt lat="45.94733" lon="4.71448">
        <ele>182</ele>
        <time>2017-04-24T08:15:41Z</time>
      </trkpt>
      <trkpt lat="45.94738" lon="4.71448">
        <ele>182</ele>
        <time>2017-04-24T08:15:42Z</time>
      </trkpt>
      <trkpt lat="45.94743" lon="4.71448">
        <ele>183</ele>
        <time>2017-04-24T08:15:43Z</time>
      </trkpt>
      <trkpt lat="45.94747" lon="4.71447">
        <ele>183</ele>
        <time>2017-04-24T08:15:44Z</time>
      </trkpt>
      <trkpt lat="45.94752" lon="4.71447">
        <ele>184</ele>
        <time>2017-04-24T08:15:45Z</time>
      </trkpt>
      <trkpt lat="45.94758" lon="4.71447">
        <ele>183</ele>
        <time>2017-04-24T08:15:46Z</time>
      </trkpt>
      <trkpt lat="45.94762" lon="4.71447">
        <ele>183</ele>
        <time>2017-04-24T08:15:47Z</time>
      </trkpt>
      <trkpt lat="45.94767" lon="4.71448">
        <ele>183</ele>
        <time>2017-04-24T08:15:48Z</time>
      </trkpt>
      <trkpt lat="45.94773" lon="4.71448">
        <ele>183</ele>
        <time>2017-04-24T08:15:49Z</time>
      </trkpt>
      <trkpt lat="45.94778" lon="4.71449">
        <ele>183</ele>
        <time>2017-04-24T08:15:50Z</time>
      </trkpt>
      <trkpt lat="45.94784" lon="4.7145">
        <ele>183</ele>
        <time>2017-04-24T08:15:51Z</time>
      </trkpt>
      <trkpt lat="45.94789" lon="4.7145">
        <ele>183</ele>
        <time>2017-04-24T08:15:52Z</time>
      </trkpt>
      <trkpt lat="45.94795" lon="4.71451">
        <ele>183</ele>
        <time>2017-04-24T08:15:53Z</time>
      </trkpt>
      <trkpt lat="45.948" lon="4.71452">
        <ele>183</ele>
        <time>2017-04-24T08:15:54Z</time>
      </trkpt>
      <trkpt lat="45.94806" lon="4.71453">
        <ele>183</ele>
        <time>2017-04-24T08:15:55Z</time>
      </trkpt>
      <trkpt lat="45.94813" lon="4.71453">
        <ele>183</ele>
        <time>2017-04-24T08:15:56Z</time>
      </trkpt>
      <trkpt lat="45.94819" lon="4.71455">
        <ele>183</ele>
        <time>2017-04-24T08:15:57Z</time>
      </trkpt>
      <trkpt lat="45.94825" lon="4.71456">
        <ele>183</ele>
        <time>2017-04-24T08:15:58Z</time>
      </trkpt>
      <trkpt lat="45.94831" lon="4.71457">
        <ele>183</ele>
        <time>2017-04-24T08:15:59Z</time>
      </trkpt>
      <trkpt lat="45.94837" lon="4.71458">
        <ele>184</ele>
        <time>2017-04-24T08:16:00Z</time>
      </trkpt>
      <trkpt lat="45.94843" lon="4.71458">
        <ele>184</ele>
        <time>2017-04-24T08:16:01Z</time>
      </trkpt>
      <trkpt lat="45.94849" lon="4.71458">
        <ele>184</ele>
        <time>2017-04-24T08:16:02Z</time>
      </trkpt>
      <trkpt lat="45.94855" lon="4.71458">
        <ele>184</ele>
        <time>2017-04-24T08:16:03Z</time>
      </trkpt>
      <trkpt lat="45.94861" lon="4.71459">
        <ele>183</ele>
        <time>2017-04-24T08:16:04Z</time>
      </trkpt>
      <trkpt lat="45.94866" lon="4.7146">
        <ele>183</ele>
        <time>2017-04-24T08:16:05Z</time>
      </trkpt>
      <trkpt lat="45.94873" lon="4.71461">
        <ele>183</ele>
        <time>2017-04-24T08:16:06Z</time>
      </trkpt>
      <trkpt lat="45.94878" lon="4.71461">
        <ele>183</ele>
        <time>2017-04-24T08:16:07Z</time>
      </trkpt>
      <trkpt lat="45.94883" lon="4.71461">
        <ele>183</ele>
        <time>2017-04-24T08:16:08Z</time>
      </trkpt>
      <trkpt lat="45.94889" lon="4.71461">
        <ele>183</ele>
        <time>2017-04-24T08:16:09Z</time>
      </trkpt>
      <trkpt lat="45.94895" lon="4.71462">
        <ele>183</ele>
        <time>2017-04-24T08:16:10Z</time>
      </trkpt>
      <trkpt lat="45.94901" lon="4.71461">
        <ele>183</ele>
        <time>2017-04-24T08:16:11Z</time>
      </trkpt>
      <trkpt lat="45.94907" lon="4.71463">
        <ele>183</ele>
        <time>2017-04-24T08:16:12Z</time>
      </trkpt>
      <trkpt lat="45.94913" lon="4.71464">
        <ele>183</ele>
        <time>2017-04-24T08:16:13Z</time>
      </trkpt>
      <trkpt lat="45.94919" lon="4.71464">
        <ele>183</ele>
        <time>2017-04-24T08:16:14Z</time>
      </trkpt>
      <trkpt lat="45.94925" lon="4.71465">
        <ele>183</ele>
        <time>2017-04-24T08:16:15Z</time>
      </trkpt>
      <trkpt lat="45.9493" lon="4.71465">
        <ele>183</ele>
        <time>2017-04-24T08:16:16Z</time>
      </trkpt>
      <trkpt lat="45.94936" lon="4.71466">
        <ele>183</ele>
        <time>2017-04-24T08:16:17Z</time>
      </trkpt>
      <trkpt lat="45.94941" lon="4.71467">
        <ele>183</ele>
        <time>2017-04-24T08:16:18Z</time>
      </trkpt>
      <trkpt lat="45.94946" lon="4.71469">
        <ele>183</ele>
        <time>2017-04-24T08:16:19Z</time>
      </trkpt>
      <trkpt lat="45.94951" lon="4.71472">
        <ele>183</ele>
        <time>2017-04-24T08:16:20Z</time>
      </trkpt>
      <trkpt lat="45.94956" lon="4.71475">
        <ele>183</ele>
        <time>2017-04-24T08:16:21Z</time>
      </trkpt>
      <trkpt lat="45.94961" lon="4.71479">
        <ele>183</ele>
        <time>2017-04-24T08:16:22Z</time>
      </trkpt>
      <trkpt lat="45.94966" lon="4.71481">
        <ele>183</ele>
        <time>2017-04-24T08:16:23Z</time>
      </trkpt>
      <trkpt lat="45.94972" lon="4.71481">
        <ele>183</ele>
        <time>2017-04-24T08:16:24Z</time>
      </trkpt>
      <trkpt lat="45.94977" lon="4.71479">
        <ele>183</ele>
        <time>2017-04-24T08:16:25Z</time>
      </trkpt>
      <trkpt lat="45.94983" lon="4.71477">
        <ele>183</ele>
        <time>2017-04-24T08:16:26Z</time>
      </trkpt>
      <trkpt lat="45.94988" lon="4.71473">
        <ele>183</ele>
        <time>2017-04-24T08:16:27Z</time>
      </trkpt>
      <trkpt lat="45.94993" lon="4.71472">
        <ele>183</ele>
        <time>2017-04-24T08:16:28Z</time>
      </trkpt>
      <trkpt lat="45.94999" lon="4.71471">
        <ele>183</ele>
        <time>2017-04-24T08:16:29Z</time>
      </trkpt>
      <trkpt lat="45.95004" lon="4.71472">
        <ele>182</ele>
        <time>2017-04-24T08:16:30Z</time>
      </trkpt>
      <trkpt lat="45.9501" lon="4.71473">
        <ele>182</ele>
        <time>2017-04-24T08:16:31Z</time>
      </trkpt>
      <trkpt lat="45.95016" lon="4.71474">
        <ele>182</ele>
        <time>2017-04-24T08:16:32Z</time>
      </trkpt>
      <trkpt lat="45.95023" lon="4.71474">
        <ele>182</ele>
        <time>2017-04-24T08:16:33Z</time>
      </trkpt>
      <trkpt lat="45.95029" lon="4.71474">
        <ele>181</ele>
        <time>2017-04-24T08:16:34Z</time>
      </trkpt>
      <trkpt lat="45.95035" lon="4.71475">
        <ele>181</ele>
        <time>2017-04-24T08:16:35Z</time>
      </trkpt>
      <trkpt lat="45.95043" lon="4.71475">
        <ele>181</ele>
        <time>2017-04-24T08:16:36Z</time>
      </trkpt>
      <trkpt lat="45.95049" lon="4.71476">
        <ele>181</ele>
        <time>2017-04-24T08:16:37Z</time>
      </trkpt>
      <trkpt lat="45.95057" lon="4.71477">
        <ele>181</ele>
        <time>2017-04-24T08:16:38Z</time>
      </trkpt>
      <trkpt lat="45.95064" lon="4.71477">
        <ele>181</ele>
        <time>2017-04-24T08:16:39Z</time>
      </trkpt>
      <trkpt lat="45.95072" lon="4.71477">
        <ele>181</ele>
        <time>2017-04-24T08:16:40Z</time>
      </trkpt>
      <trkpt lat="45.9508" lon="4.71477">
        <ele>181</ele>
        <time>2017-04-24T08:16:41Z</time>
      </trkpt>
      <trkpt lat="45.95088" lon="4.71477">
        <ele>179</ele>
        <time>2017-04-24T08:16:42Z</time>
      </trkpt>
      <trkpt lat="45.95096" lon="4.71478">
        <ele>179</ele>
        <time>2017-04-24T08:16:43Z</time>
      </trkpt>
      <trkpt lat="45.95103" lon="4.71478">
        <ele>179</ele>
        <time>2017-04-24T08:16:44Z</time>
      </trkpt>
      <trkpt lat="45.95112" lon="4.71478">
        <ele>179</ele>
        <time>2017-04-24T08:16:45Z</time>
      </trkpt>
      <trkpt lat="45.95119" lon="4.71478">
        <ele>178</ele>
        <time>2017-04-24T08:16:46Z</time>
      </trkpt>
      <trkpt lat="45.95128" lon="4.71478">
        <ele>178</ele>
        <time>2017-04-24T08:16:47Z</time>
      </trkpt>
      <trkpt lat="45.95135" lon="4.71479">
        <ele>178</ele>
        <time>2017-04-24T08:16:48Z</time>
      </trkpt>
      <trkpt lat="45.95144" lon="4.7148">
        <ele>178</ele>
        <time>2017-04-24T08:16:49Z</time>
      </trkpt>
      <trkpt lat="45.95152" lon="4.7148">
        <ele>178</ele>
        <time>2017-04-24T08:16:50Z</time>
      </trkpt>
      <trkpt lat="45.95159" lon="4.71481">
        <ele>178</ele>
        <time>2017-04-24T08:16:51Z</time>
      </trkpt>
      <trkpt lat="45.95167" lon="4.71483">
        <ele>178</ele>
        <time>2017-04-24T08:16:52Z</time>
      </trkpt>
      <trkpt lat="45.95174" lon="4.71485">
        <ele>177</ele>
        <time>2017-04-24T08:16:53Z</time>
      </trkpt>
      <trkpt lat="45.95183" lon="4.71486">
        <ele>177</ele>
        <time>2017-04-24T08:16:54Z</time>
      </trkpt>
      <trkpt lat="45.95191" lon="4.71486">
        <ele>177</ele>
        <time>2017-04-24T08:16:55Z</time>
      </trkpt>
      <trkpt lat="45.95198" lon="4.71487">
        <ele>177</ele>
        <time>2017-04-24T08:16:56Z</time>
      </trkpt>
      <trkpt lat="45.95206" lon="4.71487">
        <ele>177</ele>
        <time>2017-04-24T08:16:57Z</time>
      </trkpt>
      <trkpt lat="45.95214" lon="4.71486">
        <ele>177</ele>
        <time>2017-04-24T08:16:58Z</time>
      </trkpt>
      <trkpt lat="45.95221" lon="4.71487">
        <ele>177</ele>
        <time>2017-04-24T08:16:59Z</time>
      </trkpt>
      <trkpt lat="45.95229" lon="4.71486">
        <ele>177</ele>
        <time>2017-04-24T08:17:00Z</time>
      </trkpt>
      <trkpt lat="45.95237" lon="4.71488">
        <ele>177</ele>
        <time>2017-04-24T08:17:01Z</time>
      </trkpt>
      <trkpt lat="45.95245" lon="4.71488">
        <ele>177</ele>
        <time>2017-04-24T08:17:02Z</time>
      </trkpt>
      <trkpt lat="45.95252" lon="4.71487">
        <ele>176</ele>
        <time>2017-04-24T08:17:03Z</time>
      </trkpt>
      <trkpt lat="45.9526" lon="4.71487">
        <ele>176</ele>
        <time>2017-04-24T08:17:04Z</time>
      </trkpt>
      <trkpt lat="45.95267" lon="4.71487">
        <ele>176</ele>
        <time>2017-04-24T08:17:05Z</time>
      </trkpt>
      <trkpt lat="45.95275" lon="4.71487">
        <ele>176</ele>
        <time>2017-04-24T08:17:06Z</time>
      </trkpt>
      <trkpt lat="45.95282" lon="4.71488">
        <ele>176</ele>
        <time>2017-04-24T08:17:07Z</time>
      </trkpt>
      <trkpt lat="45.95289" lon="4.71488">
        <ele>176</ele>
        <time>2017-04-24T08:17:08Z</time>
      </trkpt>
      <trkpt lat="45.95295" lon="4.7149">
        <ele>176</ele>
        <time>2017-04-24T08:17:09Z</time>
      </trkpt>
      <trkpt lat="45.95302" lon="4.71491">
        <ele>175</ele>
        <time>2017-04-24T08:17:10Z</time>
      </trkpt>
      <trkpt lat="45.95308" lon="4.71493">
        <ele>175</ele>
        <time>2017-04-24T08:17:11Z</time>
      </trkpt>
      <trkpt lat="45.95314" lon="4.71494">
        <ele>175</ele>
        <time>2017-04-24T08:17:12Z</time>
      </trkpt>
      <trkpt lat="45.95321" lon="4.71495">
        <ele>175</ele>
        <time>2017-04-24T08:17:13Z</time>
      </trkpt>
      <trkpt lat="45.95327" lon="4.71496">
        <ele>174</ele>
        <time>2017-04-24T08:17:14Z</time>
      </trkpt>
      <trkpt lat="45.95334" lon="4.71497">
        <ele>174</ele>
        <time>2017-04-24T08:17:15Z</time>
      </trkpt>
      <trkpt lat="45.95339" lon="4.71497">
        <ele>174</ele>
        <time>2017-04-24T08:17:16Z</time>
      </trkpt>
      <trkpt lat="45.95345" lon="4.71497">
        <ele>174</ele>
        <time>2017-04-24T08:17:17Z</time>
      </trkpt>
      <trkpt lat="45.9535" lon="4.71498">
        <ele>175</ele>
        <time>2017-04-24T08:17:18Z</time>
      </trkpt>
      <trkpt lat="45.95356" lon="4.71498">
        <ele>175</ele>
        <time>2017-04-24T08:17:19Z</time>
      </trkpt>
      <trkpt lat="45.95362" lon="4.71499">
        <ele>175</ele>
        <time>2017-04-24T08:17:20Z</time>
      </trkpt>
      <trkpt lat="45.95368" lon="4.71499">
        <ele>175</ele>
        <time>2017-04-24T08:17:21Z</time>
      </trkpt>
      <trkpt lat="45.95375" lon="4.71501">
        <ele>174</ele>
        <time>2017-04-24T08:17:22Z</time>
      </trkpt>
      <trkpt lat="45.95381" lon="4.71502">
        <ele>174</ele>
        <time>2017-04-24T08:17:23Z</time>
      </trkpt>
      <trkpt lat="45.95387" lon="4.71503">
        <ele>174</ele>
        <time>2017-04-24T08:17:24Z</time>
      </trkpt>
      <trkpt lat="45.95393" lon="4.71502">
        <ele>174</ele>
        <time>2017-04-24T08:17:25Z</time>
      </trkpt>
      <trkpt lat="45.95399" lon="4.71501">
        <ele>174</ele>
        <time>2017-04-24T08:17:26Z</time>
      </trkpt>
      <trkpt lat="45.95405" lon="4.71501">
        <ele>174</ele>
        <time>2017-04-24T08:17:27Z</time>
      </trkpt>
      <trkpt lat="45.95411" lon="4.71502">
        <ele>174</ele>
        <time>2017-04-24T08:17:28Z</time>
      </trkpt>
      <trkpt lat="45.95417" lon="4.71502">
        <ele>174</ele>
        <time>2017-04-24T08:17:29Z</time>
      </trkpt>
      <trkpt lat="45.95423" lon="4.71503">
        <ele>174</ele>
        <time>2017-04-24T08:17:30Z</time>
      </trkpt>
      <trkpt lat="45.95429" lon="4.71503">
        <ele>174</ele>
        <time>2017-04-24T08:17:31Z</time>
      </trkpt>
      <trkpt lat="45.95434" lon="4.71503">
        <ele>175</ele>
        <time>2017-04-24T08:17:32Z</time>
      </trkpt>
      <trkpt lat="45.9544" lon="4.71503">
        <ele>175</ele>
        <time>2017-04-24T08:17:33Z</time>
      </trkpt>
      <trkpt lat="45.95447" lon="4.71504">
        <ele>175</ele>
        <time>2017-04-24T08:17:34Z</time>
      </trkpt>
      <trkpt lat="45.95453" lon="4.71504">
        <ele>175</ele>
        <time>2017-04-24T08:17:35Z</time>
      </trkpt>
      <trkpt lat="45.95458" lon="4.71505">
        <ele>175</ele>
        <time>2017-04-24T08:17:36Z</time>
      </trkpt>
      <trkpt lat="45.95464" lon="4.71506">
        <ele>175</ele>
        <time>2017-04-24T08:17:37Z</time>
      </trkpt>
      <trkpt lat="45.9547" lon="4.71506">
        <ele>175</ele>
        <time>2017-04-24T08:17:38Z</time>
      </trkpt>
      <trkpt lat="45.95476" lon="4.71507">
        <ele>176</ele>
        <time>2017-04-24T08:17:39Z</time>
      </trkpt>
      <trkpt lat="45.95482" lon="4.71508">
        <ele>176</ele>
        <time>2017-04-24T08:17:40Z</time>
      </trkpt>
      <trkpt lat="45.95488" lon="4.71508">
        <ele>176</ele>
        <time>2017-04-24T08:17:41Z</time>
      </trkpt>
      <trkpt lat="45.95494" lon="4.71509">
        <ele>176</ele>
        <time>2017-04-24T08:17:42Z</time>
      </trkpt>
      <trkpt lat="45.95499" lon="4.7151">
        <ele>176</ele>
        <time>2017-04-24T08:17:43Z</time>
      </trkpt>
      <trkpt lat="45.95505" lon="4.71511">
        <ele>177</ele>
        <time>2017-04-24T08:17:44Z</time>
      </trkpt>
      <trkpt lat="45.95511" lon="4.71511">
        <ele>177</ele>
        <time>2017-04-24T08:17:45Z</time>
      </trkpt>
      <trkpt lat="45.95517" lon="4.7151">
        <ele>177</ele>
        <time>2017-04-24T08:17:46Z</time>
      </trkpt>
      <trkpt lat="45.95522" lon="4.71511">
        <ele>177</ele>
        <time>2017-04-24T08:17:47Z</time>
      </trkpt>
      <trkpt lat="45.95528" lon="4.71511">
        <ele>177</ele>
        <time>2017-04-24T08:17:48Z</time>
      </trkpt>
      <trkpt lat="45.95534" lon="4.71511">
        <ele>177</ele>
        <time>2017-04-24T08:17:49Z</time>
      </trkpt>
      <trkpt lat="45.9554" lon="4.71511">
        <ele>177</ele>
        <time>2017-04-24T08:17:50Z</time>
      </trkpt>
      <trkpt lat="45.95546" lon="4.71512">
        <ele>178</ele>
        <time>2017-04-24T08:17:51Z</time>
      </trkpt>
      <trkpt lat="45.95552" lon="4.71512">
        <ele>178</ele>
        <time>2017-04-24T08:17:52Z</time>
      </trkpt>
      <trkpt lat="45.95557" lon="4.71512">
        <ele>178</ele>
        <time>2017-04-24T08:17:53Z</time>
      </trkpt>
      <trkpt lat="45.95563" lon="4.71513">
        <ele>178</ele>
        <time>2017-04-24T08:17:54Z</time>
      </trkpt>
      <trkpt lat="45.95568" lon="4.71514">
        <ele>178</ele>
        <time>2017-04-24T08:17:55Z</time>
      </trkpt>
      <trkpt lat="45.95572" lon="4.71514">
        <ele>178</ele>
        <time>2017-04-24T08:17:56Z</time>
      </trkpt>
      <trkpt lat="45.95577" lon="4.71514">
        <ele>179</ele>
        <time>2017-04-24T08:17:57Z</time>
      </trkpt>
      <trkpt lat="45.95582" lon="4.71515">
        <ele>179</ele>
        <time>2017-04-24T08:17:58Z</time>
      </trkpt>
      <trkpt lat="45.95587" lon="4.71515">
        <ele>179</ele>
        <time>2017-04-24T08:17:59Z</time>
      </trkpt>
      <trkpt lat="45.95593" lon="4.71515">
        <ele>179</ele>
        <time>2017-04-24T08:18:00Z</time>
      </trkpt>
      <trkpt lat="45.95598" lon="4.71515">
        <ele>179</ele>
        <time>2017-04-24T08:18:01Z</time>
      </trkpt>
      <trkpt lat="45.95604" lon="4.71515">
        <ele>179</ele>
        <time>2017-04-24T08:18:02Z</time>
      </trkpt>
      <trkpt lat="45.95609" lon="4.71516">
        <ele>179</ele>
        <time>2017-04-24T08:18:03Z</time>
      </trkpt>
      <trkpt lat="45.95615" lon="4.71516">
        <ele>179</ele>
        <time>2017-04-24T08:18:04Z</time>
      </trkpt>
      <trkpt lat="45.9562" lon="4.71516">
        <ele>179</ele>
        <time>2017-04-24T08:18:05Z</time>
      </trkpt>
      <trkpt lat="45.95625" lon="4.71516">
        <ele>179</ele>
        <time>2017-04-24T08:18:06Z</time>
      </trkpt>
      <trkpt lat="45.95631" lon="4.71516">
        <ele>179</ele>
        <time>2017-04-24T08:18:07Z</time>
      </trkpt>
      <trkpt lat="45.95636" lon="4.71517">
        <ele>180</ele>
        <time>2017-04-24T08:18:08Z</time>
      </trkpt>
      <trkpt lat="45.95641" lon="4.71517">
        <ele>180</ele>
        <time>2017-04-24T08:18:09Z</time>
      </trkpt>
      <trkpt lat="45.95647" lon="4.71518">
        <ele>180</ele>
        <time>2017-04-24T08:18:10Z</time>
      </trkpt>
      <trkpt lat="45.95652" lon="4.71519">
        <ele>180</ele>
        <time>2017-04-24T08:18:11Z</time>
      </trkpt>
      <trkpt lat="45.95657" lon="4.71519">
        <ele>180</ele>
        <time>2017-04-24T08:18:12Z</time>
      </trkpt>
      <trkpt lat="45.95662" lon="4.71519">
        <ele>180</ele>
        <time>2017-04-24T08:18:13Z</time>
      </trkpt>
      <trkpt lat="45.95668" lon="4.71519">
        <ele>181</ele>
        <time>2017-04-24T08:18:14Z</time>
      </trkpt>
      <trkpt lat="45.95673" lon="4.71519">
        <ele>181</ele>
        <time>2017-04-24T08:18:15Z</time>
      </trkpt>
      <trkpt lat="45.95678" lon="4.71519">
        <ele>180</ele>
        <time>2017-04-24T08:18:16Z</time>
      </trkpt>
      <trkpt lat="45.95683" lon="4.71519">
        <ele>180</ele>
        <time>2017-04-24T08:18:17Z</time>
      </trkpt>
      <trkpt lat="45.95689" lon="4.7152">
        <ele>180</ele>
        <time>2017-04-24T08:18:18Z</time>
      </trkpt>
      <trkpt lat="45.95694" lon="4.7152">
        <ele>180</ele>
        <time>2017-04-24T08:18:19Z</time>
      </trkpt>
      <trkpt lat="45.957" lon="4.7152">
        <ele>180</ele>
        <time>2017-04-24T08:18:20Z</time>
      </trkpt>
      <trkpt lat="45.95705" lon="4.71521">
        <ele>180</ele>
        <time>2017-04-24T08:18:21Z</time>
      </trkpt>
      <trkpt lat="45.9571" lon="4.71521">
        <ele>180</ele>
        <time>2017-04-24T08:18:22Z</time>
      </trkpt>
      <trkpt lat="45.95715" lon="4.71522">
        <ele>180</ele>
        <time>2017-04-24T08:18:23Z</time>
      </trkpt>
      <trkpt lat="45.95721" lon="4.71523">
        <ele>180</ele>
        <time>2017-04-24T08:18:24Z</time>
      </trkpt>
      <trkpt lat="45.95727" lon="4.71524">
        <ele>180</ele>
        <time>2017-04-24T08:18:25Z</time>
      </trkpt>
      <trkpt lat="45.95733" lon="4.71525">
        <ele>180</ele>
        <time>2017-04-24T08:18:26Z</time>
      </trkpt>
      <trkpt lat="45.9574" lon="4.71525">
        <ele>180</ele>
        <time>2017-04-24T08:18:27Z</time>
      </trkpt>
      <trkpt lat="45.95746" lon="4.71525">
        <ele>180</ele>
        <time>2017-04-24T08:18:28Z</time>
      </trkpt>
      <trkpt lat="45.95752" lon="4.71525">
        <ele>181</ele>
        <time>2017-04-24T08:18:29Z</time>
      </trkpt>
      <trkpt lat="45.95758" lon="4.71526">
        <ele>181</ele>
        <time>2017-04-24T08:18:30Z</time>
      </trkpt>
      <trkpt lat="45.95763" lon="4.71526">
        <ele>181</ele>
        <time>2017-04-24T08:18:31Z</time>
      </trkpt>
      <trkpt lat="45.95768" lon="4.71527">
        <ele>181</ele>
        <time>2017-04-24T08:18:32Z</time>
      </trkpt>
      <trkpt lat="45.95774" lon="4.71527">
        <ele>181</ele>
        <time>2017-04-24T08:18:33Z</time>
      </trkpt>
      <trkpt lat="45.95779" lon="4.71527">
        <ele>181</ele>
        <time>2017-04-24T08:18:34Z</time>
      </trkpt>
      <trkpt lat="45.95784" lon="4.71528">
        <ele>181</ele>
        <time>2017-04-24T08:18:35Z</time>
      </trkpt>
      <trkpt lat="45.95789" lon="4.71527">
        <ele>181</ele>
        <time>2017-04-24T08:18:36Z</time>
      </trkpt>
      <trkpt lat="45.95794" lon="4.71527">
        <ele>181</ele>
        <time>2017-04-24T08:18:37Z</time>
      </trkpt>
      <trkpt lat="45.95799" lon="4.71527">
        <ele>181</ele>
        <time>2017-04-24T08:18:38Z</time>
      </trkpt>
      <trkpt lat="45.95805" lon="4.71527">
        <ele>181</ele>
        <time>2017-04-24T08:18:39Z</time>
      </trkpt>
      <trkpt lat="45.9581" lon="4.71528">
        <ele>181</ele>
        <time>2017-04-24T08:18:40Z</time>
      </trkpt>
      <trkpt lat="45.95815" lon="4.71528">
        <ele>181</ele>
        <time>2017-04-24T08:18:41Z</time>
      </trkpt>
      <trkpt lat="45.9582" lon="4.71528">
        <ele>181</ele>
        <time>2017-04-24T08:18:42Z</time>
      </trkpt>
      <trkpt lat="45.95825" lon="4.71529">
        <ele>181</ele>
        <time>2017-04-24T08:18:43Z</time>
      </trkpt>
      <trkpt lat="45.95829" lon="4.71529">
        <ele>181</ele>
        <time>2017-04-24T08:18:44Z</time>
      </trkpt>
      <trkpt lat="45.95834" lon="4.7153">
        <ele>182</ele>
        <time>2017-04-24T08:18:45Z</time>
      </trkpt>
      <trkpt lat="45.95839" lon="4.7153">
        <ele>182</ele>
        <time>2017-04-24T08:18:46Z</time>
      </trkpt>
      <trkpt lat="45.95843" lon="4.7153">
        <ele>182</ele>
        <time>2017-04-24T08:18:47Z</time>
      </trkpt>
      <trkpt lat="45.95848" lon="4.71531">
        <ele>182</ele>
        <time>2017-04-24T08:18:48Z</time>
      </trkpt>
      <trkpt lat="45.95854" lon="4.71531">
        <ele>182</ele>
        <time>2017-04-24T08:18:49Z</time>
      </trkpt>
      <trkpt lat="45.95859" lon="4.71532">
        <ele>182</ele>
        <time>2017-04-24T08:18:50Z</time>
      </trkpt>
      <trkpt lat="45.95864" lon="4.71532">
        <ele>182</ele>
        <time>2017-04-24T08:18:51Z</time>
      </trkpt>
      <trkpt lat="45.95869" lon="4.71533">
        <ele>182</ele>
        <time>2017-04-24T08:18:52Z</time>
      </trkpt>
      <trkpt lat="45.95874" lon="4.71534">
        <ele>182</ele>
        <time>2017-04-24T08:18:53Z</time>
      </trkpt>
      <trkpt lat="45.95879" lon="4.71534">
        <ele>182</ele>
        <time>2017-04-24T08:18:54Z</time>
      </trkpt>
      <trkpt lat="45.95884" lon="4.71535">
        <ele>182</ele>
        <time>2017-04-24T08:18:55Z</time>
      </trkpt>
      <trkpt lat="45.95889" lon="4.71536">
        <ele>182</ele>
        <time>2017-04-24T08:18:56Z</time>
      </trkpt>
      <trkpt lat="45.95894" lon="4.71536">
        <ele>182</ele>
        <time>2017-04-24T08:18:57Z</time>
      </trkpt>
      <trkpt lat="45.95899" lon="4.71537">
        <ele>182</ele>
        <time>2017-04-24T08:18:58Z</time>
      </trkpt>
      <trkpt lat="45.95904" lon="4.71537">
        <ele>182</ele>
        <time>2017-04-24T08:18:59Z</time>
      </trkpt>
      <trkpt lat="45.95908" lon="4.71537">
        <ele>182</ele>
        <time>2017-04-24T08:19:00Z</time>
      </trkpt>
      <trkpt lat="45.95913" lon="4.71538">
        <ele>182</ele>
        <time>2017-04-24T08:19:01Z</time>
      </trkpt>
      <trkpt lat="45.95918" lon="4.71538">
        <ele>183</ele>
        <time>2017-04-24T08:19:02Z</time>
      </trkpt>
      <trkpt lat="45.95923" lon="4.71538">
        <ele>183</ele>
        <time>2017-04-24T08:19:03Z</time>
      </trkpt>
      <trkpt lat="45.95927" lon="4.71538">
        <ele>183</ele>
        <time>2017-04-24T08:19:04Z</time>
      </trkpt>
      <trkpt lat="45.95933" lon="4.71538">
        <ele>183</ele>
        <time>2017-04-24T08:19:05Z</time>
      </trkpt>
      <trkpt lat="45.95938" lon="4.71538">
        <ele>183</ele>
        <time>2017-04-24T08:19:06Z</time>
      </trkpt>
      <trkpt lat="45.95942" lon="4.71538">
        <ele>183</ele>
        <time>2017-04-24T08:19:07Z</time>
      </trkpt>
      <trkpt lat="45.95947" lon="4.71538">
        <ele>183</ele>
        <time>2017-04-24T08:19:08Z</time>
      </trkpt>
      <trkpt lat="45.95952" lon="4.71539">
        <ele>183</ele>
        <time>2017-04-24T08:19:09Z</time>
      </trkpt>
      <trkpt lat="45.95957" lon="4.7154">
        <ele>183</ele>
        <time>2017-04-24T08:19:10Z</time>
      </trkpt>
      <trkpt lat="45.95961" lon="4.71542">
        <ele>183</ele>
        <time>2017-04-24T08:19:11Z</time>
      </trkpt>
      <trkpt lat="45.95966" lon="4.71544">
        <ele>183</ele>
        <time>2017-04-24T08:19:12Z</time>
      </trkpt>
      <trkpt lat="45.95971" lon="4.71546">
        <ele>183</ele>
        <time>2017-04-24T08:19:13Z</time>
      </trkpt>
      <trkpt lat="45.95976" lon="4.71547">
        <ele>183</ele>
        <time>2017-04-24T08:19:14Z</time>
      </trkpt>
      <trkpt lat="45.95981" lon="4.71547">
        <ele>183</ele>
        <time>2017-04-24T08:19:15Z</time>
      </trkpt>
      <trkpt lat="45.95986" lon="4.71545">
        <ele>184</ele>
        <time>2017-04-24T08:19:16Z</time>
      </trkpt>
      <trkpt lat="45.9599" lon="4.71543">
        <ele>184</ele>
        <time>2017-04-24T08:19:17Z</time>
      </trkpt>
      <trkpt lat="45.95995" lon="4.71542">
        <ele>184</ele>
        <time>2017-04-24T08:19:18Z</time>
      </trkpt>
      <trkpt lat="45.96001" lon="4.7154">
        <ele>185</ele>
        <time>2017-04-24T08:19:19Z</time>
      </trkpt>
      <trkpt lat="45.96006" lon="4.71538">
        <ele>185</ele>
        <time>2017-04-24T08:19:20Z</time>
      </trkpt>
      <trkpt lat="45.96012" lon="4.71538">
        <ele>185</ele>
        <time>2017-04-24T08:19:21Z</time>
      </trkpt>
      <trkpt lat="45.96017" lon="4.71539">
        <ele>185</ele>
        <time>2017-04-24T08:19:22Z</time>
      </trkpt>
      <trkpt lat="45.96022" lon="4.71539">
        <ele>185</ele>
        <time>2017-04-24T08:19:23Z</time>
      </trkpt>
      <trkpt lat="45.96027" lon="4.71539">
        <ele>185</ele>
        <time>2017-04-24T08:19:24Z</time>
      </trkpt>
      <trkpt lat="45.96033" lon="4.71539">
        <ele>185</ele>
        <time>2017-04-24T08:19:25Z</time>
      </trkpt>
      <trkpt lat="45.96038" lon="4.71539">
        <ele>185</ele>
        <time>2017-04-24T08:19:26Z</time>
      </trkpt>
      <trkpt lat="45.96044" lon="4.7154">
        <ele>185</ele>
        <time>2017-04-24T08:19:27Z</time>
      </trkpt>
      <trkpt lat="45.96048" lon="4.71541">
        <ele>185</ele>
        <time>2017-04-24T08:19:28Z</time>
      </trkpt>
      <trkpt lat="45.96053" lon="4.71542">
        <ele>185</ele>
        <time>2017-04-24T08:19:29Z</time>
      </trkpt>
      <trkpt lat="45.96057" lon="4.71542">
        <ele>185</ele>
        <time>2017-04-24T08:19:30Z</time>
      </trkpt>
      <trkpt lat="45.96063" lon="4.71544">
        <ele>185</ele>
        <time>2017-04-24T08:19:31Z</time>
      </trkpt>
      <trkpt lat="45.96068" lon="4.71545">
        <ele>185</ele>
        <time>2017-04-24T08:19:32Z</time>
      </trkpt>
      <trkpt lat="45.96074" lon="4.71547">
        <ele>185</ele>
        <time>2017-04-24T08:19:33Z</time>
      </trkpt>
      <trkpt lat="45.9608" lon="4.71548">
        <ele>185</ele>
        <time>2017-04-24T08:19:34Z</time>
      </trkpt>
      <trkpt lat="45.96086" lon="4.71549">
        <ele>185</ele>
        <time>2017-04-24T08:19:35Z</time>
      </trkpt>
      <trkpt lat="45.96092" lon="4.7155">
        <ele>185</ele>
        <time>2017-04-24T08:19:36Z</time>
      </trkpt>
      <trkpt lat="45.96099" lon="4.71552">
        <ele>185</ele>
        <time>2017-04-24T08:19:37Z</time>
      </trkpt>
      <trkpt lat="45.96105" lon="4.71553">
        <ele>184</ele>
        <time>2017-04-24T08:19:38Z</time>
      </trkpt>
      <trkpt lat="45.96111" lon="4.71554">
        <ele>184</ele>
        <time>2017-04-24T08:19:39Z</time>
      </trkpt>
      <trkpt lat="45.96117" lon="4.71555">
        <ele>184</ele>
        <time>2017-04-24T08:19:40Z</time>
      </trkpt>
      <trkpt lat="45.96123" lon="4.71556">
        <ele>184</ele>
        <time>2017-04-24T08:19:41Z</time>
      </trkpt>
      <trkpt lat="45.96129" lon="4.71558">
        <ele>184</ele>
        <time>2017-04-24T08:19:42Z</time>
      </trkpt>
      <trkpt lat="45.96135" lon="4.71558">
        <ele>184</ele>
        <time>2017-04-24T08:19:43Z</time>
      </trkpt>
      <trkpt lat="45.96142" lon="4.71558">
        <ele>184</ele>
        <time>2017-04-24T08:19:44Z</time>
      </trkpt>
      <trkpt lat="45.96148" lon="4.71559">
        <ele>184</ele>
        <time>2017-04-24T08:19:45Z</time>
      </trkpt>
      <trkpt lat="45.96154" lon="4.7156">
        <ele>183</ele>
        <time>2017-04-24T08:19:46Z</time>
      </trkpt>
      <trkpt lat="45.9616" lon="4.71561">
        <ele>183</ele>
        <time>2017-04-24T08:19:47Z</time>
      </trkpt>
      <trkpt lat="45.96166" lon="4.71562">
        <ele>183</ele>
        <time>2017-04-24T08:19:48Z</time>
      </trkpt>
      <trkpt lat="45.96171" lon="4.71562">
        <ele>183</ele>
        <time>2017-04-24T08:19:49Z</time>
      </trkpt>
      <trkpt lat="45.96177" lon="4.71563">
        <ele>183</ele>
        <time>2017-04-24T08:19:50Z</time>
      </trkpt>
      <trkpt lat="45.96183" lon="4.71563">
        <ele>183</ele>
        <time>2017-04-24T08:19:51Z</time>
      </trkpt>
      <trkpt lat="45.96189" lon="4.71564">
        <ele>183</ele>
        <time>2017-04-24T08:19:52Z</time>
      </trkpt>
      <trkpt lat="45.96194" lon="4.71566">
        <ele>183</ele>
        <time>2017-04-24T08:19:53Z</time>
      </trkpt>
      <trkpt lat="45.962" lon="4.71567">
        <ele>183</ele>
        <time>2017-04-24T08:19:54Z</time>
      </trkpt>
      <trkpt lat="45.96207" lon="4.71568">
        <ele>183</ele>
        <time>2017-04-24T08:19:55Z</time>
      </trkpt>
      <trkpt lat="45.96212" lon="4.71569">
        <ele>183</ele>
        <time>2017-04-24T08:19:56Z</time>
      </trkpt>
      <trkpt lat="45.96218" lon="4.7157">
        <ele>183</ele>
        <time>2017-04-24T08:19:57Z</time>
      </trkpt>
      <trkpt lat="45.96224" lon="4.7157">
        <ele>183</ele>
        <time>2017-04-24T08:19:58Z</time>
      </trkpt>
      <trkpt lat="45.9623" lon="4.71571">
        <ele>183</ele>
        <time>2017-04-24T08:19:59Z</time>
      </trkpt>
      <trkpt lat="45.96237" lon="4.71572">
        <ele>183</ele>
        <time>2017-04-24T08:20:00Z</time>
      </trkpt>
      <trkpt lat="45.96244" lon="4.71573">
        <ele>182</ele>
        <time>2017-04-24T08:20:01Z</time>
      </trkpt>
      <trkpt lat="45.96251" lon="4.71574">
        <ele>182</ele>
        <time>2017-04-24T08:20:02Z</time>
      </trkpt>
      <trkpt lat="45.96258" lon="4.71575">
        <ele>183</ele>
        <time>2017-04-24T08:20:03Z</time>
      </trkpt>
      <trkpt lat="45.96264" lon="4.71576">
        <ele>183</ele>
        <time>2017-04-24T08:20:04Z</time>
      </trkpt>
      <trkpt lat="45.9627" lon="4.71578">
        <ele>183</ele>
        <time>2017-04-24T08:20:05Z</time>
      </trkpt>
      <trkpt lat="45.96276" lon="4.71579">
        <ele>184</ele>
        <time>2017-04-24T08:20:06Z</time>
      </trkpt>
      <trkpt lat="45.96282" lon="4.71579">
        <ele>184</ele>
        <time>2017-04-24T08:20:07Z</time>
      </trkpt>
      <trkpt lat="45.96287" lon="4.7158">
        <ele>184</ele>
        <time>2017-04-24T08:20:08Z</time>
      </trkpt>
      <trkpt lat="45.96292" lon="4.71582">
        <ele>184</ele>
        <time>2017-04-24T08:20:09Z</time>
      </trkpt>
      <trkpt lat="45.96297" lon="4.71582">
        <ele>184</ele>
        <time>2017-04-24T08:20:10Z</time>
      </trkpt>
      <trkpt lat="45.96302" lon="4.71583">
        <ele>184</ele>
        <time>2017-04-24T08:20:11Z</time>
      </trkpt>
      <trkpt lat="45.96308" lon="4.71585">
        <ele>181</ele>
        <time>2017-04-24T08:20:12Z</time>
      </trkpt>
      <trkpt lat="45.96314" lon="4.71586">
        <ele>181</ele>
        <time>2017-04-24T08:20:13Z</time>
      </trkpt>
      <trkpt lat="45.96319" lon="4.71587">
        <ele>182</ele>
        <time>2017-04-24T08:20:14Z</time>
      </trkpt>
      <trkpt lat="45.96325" lon="4.71588">
        <ele>182</ele>
        <time>2017-04-24T08:20:15Z</time>
      </trkpt>
      <trkpt lat="45.96331" lon="4.71589">
        <ele>182</ele>
        <time>2017-04-24T08:20:16Z</time>
      </trkpt>
      <trkpt lat="45.96336" lon="4.71589">
        <ele>183</ele>
        <time>2017-04-24T08:20:17Z</time>
      </trkpt>
      <trkpt lat="45.96342" lon="4.7159">
        <ele>182</ele>
        <time>2017-04-24T08:20:18Z</time>
      </trkpt>
      <trkpt lat="45.96348" lon="4.71591">
        <ele>182</ele>
        <time>2017-04-24T08:20:19Z</time>
      </trkpt>
      <trkpt lat="45.96354" lon="4.71592">
        <ele>182</ele>
        <time>2017-04-24T08:20:20Z</time>
      </trkpt>
      <trkpt lat="45.9636" lon="4.71593">
        <ele>182</ele>
        <time>2017-04-24T08:20:21Z</time>
      </trkpt>
      <trkpt lat="45.96366" lon="4.71594">
        <ele>182</ele>
        <time>2017-04-24T08:20:22Z</time>
      </trkpt>
      <trkpt lat="45.96372" lon="4.71596">
        <ele>182</ele>
        <time>2017-04-24T08:20:23Z</time>
      </trkpt>
      <trkpt lat="45.96378" lon="4.71597">
        <ele>182</ele>
        <time>2017-04-24T08:20:24Z</time>
      </trkpt>
      <trkpt lat="45.96384" lon="4.71598">
        <ele>182</ele>
        <time>2017-04-24T08:20:25Z</time>
      </trkpt>
      <trkpt lat="45.9639" lon="4.71599">
        <ele>183</ele>
        <time>2017-04-24T08:20:26Z</time>
      </trkpt>
      <trkpt lat="45.96396" lon="4.71601">
        <ele>183</ele>
        <time>2017-04-24T08:20:27Z</time>
      </trkpt>
      <trkpt lat="45.96401" lon="4.71602">
        <ele>183</ele>
        <time>2017-04-24T08:20:28Z</time>
      </trkpt>
      <trkpt lat="45.96407" lon="4.71604">
        <ele>183</ele>
        <time>2017-04-24T08:20:29Z</time>
      </trkpt>
      <trkpt lat="45.96413" lon="4.71605">
        <ele>183</ele>
        <time>2017-04-24T08:20:30Z</time>
      </trkpt>
      <trkpt lat="45.96419" lon="4.71606">
        <ele>183</ele>
        <time>2017-04-24T08:20:31Z</time>
      </trkpt>
      <trkpt lat="45.96425" lon="4.71607">
        <ele>183</ele>
        <time>2017-04-24T08:20:32Z</time>
      </trkpt>
      <trkpt lat="45.96431" lon="4.71608">
        <ele>183</ele>
        <time>2017-04-24T08:20:33Z</time>
      </trkpt>
      <trkpt lat="45.96437" lon="4.71608">
        <ele>183</ele>
        <time>2017-04-24T08:20:34Z</time>
      </trkpt>
      <trkpt lat="45.96443" lon="4.71609">
        <ele>183</ele>
        <time>2017-04-24T08:20:35Z</time>
      </trkpt>
      <trkpt lat="45.96449" lon="4.7161">
        <ele>183</ele>
        <time>2017-04-24T08:20:36Z</time>
      </trkpt>
      <trkpt lat="45.96455" lon="4.71611">
        <ele>183</ele>
        <time>2017-04-24T08:20:37Z</time>
      </trkpt>
      <trkpt lat="45.96461" lon="4.71613">
        <ele>183</ele>
        <time>2017-04-24T08:20:38Z</time>
      </trkpt>
      <trkpt lat="45.96466" lon="4.71614">
        <ele>183</ele>
        <time>2017-04-24T08:20:39Z</time>
      </trkpt>
      <trkpt lat="45.96471" lon="4.71615">
        <ele>183</ele>
        <time>2017-04-24T08:20:40Z</time>
      </trkpt>
      <trkpt lat="45.96477" lon="4.71615">
        <ele>183</ele>
        <time>2017-04-24T08:20:41Z</time>
      </trkpt>
      <trkpt lat="45.96481" lon="4.71615">
        <ele>183</ele>
        <time>2017-04-24T08:20:42Z</time>
      </trkpt>
      <trkpt lat="45.96486" lon="4.71616">
        <ele>183</ele>
        <time>2017-04-24T08:20:43Z</time>
      </trkpt>
      <trkpt lat="45.96491" lon="4.71617">
        <ele>183</ele>
        <time>2017-04-24T08:20:44Z</time>
      </trkpt>
      <trkpt lat="45.96496" lon="4.71618">
        <ele>183</ele>
        <time>2017-04-24T08:20:45Z</time>
      </trkpt>
      <trkpt lat="45.96501" lon="4.71619">
        <ele>184</ele>
        <time>2017-04-24T08:20:46Z</time>
      </trkpt>
      <trkpt lat="45.96506" lon="4.71622">
        <ele>184</ele>
        <time>2017-04-24T08:20:47Z</time>
      </trkpt>
      <trkpt lat="45.9651" lon="4.71626">
        <ele>184</ele>
        <time>2017-04-24T08:20:48Z</time>
      </trkpt>
      <trkpt lat="45.96514" lon="4.71631">
        <ele>183</ele>
        <time>2017-04-24T08:20:49Z</time>
      </trkpt>
      <trkpt lat="45.96518" lon="4.71635">
        <ele>183</ele>
        <time>2017-04-24T08:20:50Z</time>
      </trkpt>
      <trkpt lat="45.96523" lon="4.71639">
        <ele>183</ele>
        <time>2017-04-24T08:20:51Z</time>
      </trkpt>
      <trkpt lat="45.96529" lon="4.71639">
        <ele>183</ele>
        <time>2017-04-24T08:20:52Z</time>
      </trkpt>
      <trkpt lat="45.96534" lon="4.71638">
        <ele>184</ele>
        <time>2017-04-24T08:20:53Z</time>
      </trkpt>
      <trkpt lat="45.96539" lon="4.71635">
        <ele>184</ele>
        <time>2017-04-24T08:20:54Z</time>
      </trkpt>
      <trkpt lat="45.96544" lon="4.71631">
        <ele>184</ele>
        <time>2017-04-24T08:20:55Z</time>
      </trkpt>
      <trkpt lat="45.96549" lon="4.71628">
        <ele>184</ele>
        <time>2017-04-24T08:20:56Z</time>
      </trkpt>
      <trkpt lat="45.96555" lon="4.71626">
        <ele>184</ele>
        <time>2017-04-24T08:20:57Z</time>
      </trkpt>
      <trkpt lat="45.9656" lon="4.71626">
        <ele>185</ele>
        <time>2017-04-24T08:20:58Z</time>
      </trkpt>
      <trkpt lat="45.96566" lon="4.71628">
        <ele>185</ele>
        <time>2017-04-24T08:20:59Z</time>
      </trkpt>
      <trkpt lat="45.96572" lon="4.71629">
        <ele>185</ele>
        <time>2017-04-24T08:21:00Z</time>
      </trkpt>
      <trkpt lat="45.96577" lon="4.7163">
        <ele>185</ele>
        <time>2017-04-24T08:21:01Z</time>
      </trkpt>
      <trkpt lat="45.96583" lon="4.7163">
        <ele>185</ele>
        <time>2017-04-24T08:21:02Z</time>
      </trkpt>
      <trkpt lat="45.96589" lon="4.7163">
        <ele>187</ele>
        <time>2017-04-24T08:21:03Z</time>
      </trkpt>
      <trkpt lat="45.96594" lon="4.71629">
        <ele>187</ele>
        <time>2017-04-24T08:21:04Z</time>
      </trkpt>
      <trkpt lat="45.96599" lon="4.71629">
        <ele>187</ele>
        <time>2017-04-24T08:21:05Z</time>
      </trkpt>
      <trkpt lat="45.96604" lon="4.71629">
        <ele>187</ele>
        <time>2017-04-24T08:21:06Z</time>
      </trkpt>
      <trkpt lat="45.9661" lon="4.7163">
        <ele>187</ele>
        <time>2017-04-24T08:21:07Z</time>
      </trkpt>
      <trkpt lat="45.96615" lon="4.71631">
        <ele>187</ele>
        <time>2017-04-24T08:21:08Z</time>
      </trkpt>
      <trkpt lat="45.9662" lon="4.71632">
        <ele>187</ele>
        <time>2017-04-24T08:21:09Z</time>
      </trkpt>
      <trkpt lat="45.96626" lon="4.71632">
        <ele>188</ele>
        <time>2017-04-24T08:21:10Z</time>
      </trkpt>
      <trkpt lat="45.96631" lon="4.71634">
        <ele>188</ele>
        <time>2017-04-24T08:21:11Z</time>
      </trkpt>
      <trkpt lat="45.96637" lon="4.71635">
        <ele>188</ele>
        <time>2017-04-24T08:21:12Z</time>
      </trkpt>
      <trkpt lat="45.96643" lon="4.71635">
        <ele>188</ele>
        <time>2017-04-24T08:21:13Z</time>
      </trkpt>
      <trkpt lat="45.96648" lon="4.71637">
        <ele>188</ele>
        <time>2017-04-24T08:21:14Z</time>
      </trkpt>
      <trkpt lat="45.96655" lon="4.71637">
        <ele>188</ele>
        <time>2017-04-24T08:21:15Z</time>
      </trkpt>
      <trkpt lat="45.96661" lon="4.71638">
        <ele>188</ele>
        <time>2017-04-24T08:21:16Z</time>
      </trkpt>
      <trkpt lat="45.96666" lon="4.71638">
        <ele>188</ele>
        <time>2017-04-24T08:21:17Z</time>
      </trkpt>
      <trkpt lat="45.96671" lon="4.7164">
        <ele>189</ele>
        <time>2017-04-24T08:21:18Z</time>
      </trkpt>
      <trkpt lat="45.96676" lon="4.71641">
        <ele>189</ele>
        <time>2017-04-24T08:21:19Z</time>
      </trkpt>
      <trkpt lat="45.96682" lon="4.71641">
        <ele>190</ele>
        <time>2017-04-24T08:21:20Z</time>
      </trkpt>
      <trkpt lat="45.96687" lon="4.71642">
        <ele>190</ele>
        <time>2017-04-24T08:21:21Z</time>
      </trkpt>
      <trkpt lat="45.96692" lon="4.71643">
        <ele>190</ele>
        <time>2017-04-24T08:21:22Z</time>
      </trkpt>
      <trkpt lat="45.96698" lon="4.71643">
        <ele>190</ele>
        <time>2017-04-24T08:21:23Z</time>
      </trkpt>
      <trkpt lat="45.96703" lon="4.71645">
        <ele>190</ele>
        <time>2017-04-24T08:21:24Z</time>
      </trkpt>
      <trkpt lat="45.96709" lon="4.71646">
        <ele>190</ele>
        <time>2017-04-24T08:21:25Z</time>
      </trkpt>
      <trkpt lat="45.96714" lon="4.71647">
        <ele>190</ele>
        <time>2017-04-24T08:21:26Z</time>
      </trkpt>
      <trkpt lat="45.96719" lon="4.71648">
        <ele>190</ele>
        <time>2017-04-24T08:21:27Z</time>
      </trkpt>
      <trkpt lat="45.96725" lon="4.7165">
        <ele>190</ele>
        <time>2017-04-24T08:21:28Z</time>
      </trkpt>
      <trkpt lat="45.96731" lon="4.71652">
        <ele>190</ele>
        <time>2017-04-24T08:21:29Z</time>
      </trkpt>
      <trkpt lat="45.96736" lon="4.71654">
        <ele>190</ele>
        <time>2017-04-24T08:21:30Z</time>
      </trkpt>
      <trkpt lat="45.96741" lon="4.71655">
        <ele>190</ele>
        <time>2017-04-24T08:21:31Z</time>
      </trkpt>
      <trkpt lat="45.96746" lon="4.71657">
        <ele>190</ele>
        <time>2017-04-24T08:21:32Z</time>
      </trkpt>
      <trkpt lat="45.96751" lon="4.71659">
        <ele>190</ele>
        <time>2017-04-24T08:21:33Z</time>
      </trkpt>
      <trkpt lat="45.96757" lon="4.7166">
        <ele>190</ele>
        <time>2017-04-24T08:21:34Z</time>
      </trkpt>
      <trkpt lat="45.96762" lon="4.71661">
        <ele>191</ele>
        <time>2017-04-24T08:21:35Z</time>
      </trkpt>
      <trkpt lat="45.96767" lon="4.71661">
        <ele>191</ele>
        <time>2017-04-24T08:21:36Z</time>
      </trkpt>
      <trkpt lat="45.96771" lon="4.71662">
        <ele>191</ele>
        <time>2017-04-24T08:21:37Z</time>
      </trkpt>
      <trkpt lat="45.96776" lon="4.71663">
        <ele>192</ele>
        <time>2017-04-24T08:21:38Z</time>
      </trkpt>
      <trkpt lat="45.96781" lon="4.71665">
        <ele>192</ele>
        <time>2017-04-24T08:21:39Z</time>
      </trkpt>
      <trkpt lat="45.96786" lon="4.71666">
        <ele>192</ele>
        <time>2017-04-24T08:21:40Z</time>
      </trkpt>
      <trkpt lat="45.96792" lon="4.71666">
        <ele>192</ele>
        <time>2017-04-24T08:21:41Z</time>
      </trkpt>
      <trkpt lat="45.96796" lon="4.71668">
        <ele>188</ele>
        <time>2017-04-24T08:21:42Z</time>
      </trkpt>
      <trkpt lat="45.96801" lon="4.71669">
        <ele>188</ele>
        <time>2017-04-24T08:21:43Z</time>
      </trkpt>
      <trkpt lat="45.96806" lon="4.7167">
        <ele>189</ele>
        <time>2017-04-24T08:21:44Z</time>
      </trkpt>
      <trkpt lat="45.96812" lon="4.71671">
        <ele>189</ele>
        <time>2017-04-24T08:21:45Z</time>
      </trkpt>
      <trkpt lat="45.96817" lon="4.71671">
        <ele>189</ele>
        <time>2017-04-24T08:21:46Z</time>
      </trkpt>
      <trkpt lat="45.96822" lon="4.71672">
        <ele>190</ele>
        <time>2017-04-24T08:21:47Z</time>
      </trkpt>
      <trkpt lat="45.96828" lon="4.71672">
        <ele>191</ele>
        <time>2017-04-24T08:21:48Z</time>
      </trkpt>
      <trkpt lat="45.96833" lon="4.71672">
        <ele>191</ele>
        <time>2017-04-24T08:21:49Z</time>
      </trkpt>
      <trkpt lat="45.96838" lon="4.71674">
        <ele>191</ele>
        <time>2017-04-24T08:21:50Z</time>
      </trkpt>
      <trkpt lat="45.96844" lon="4.71674">
        <ele>191</ele>
        <time>2017-04-24T08:21:51Z</time>
      </trkpt>
      <trkpt lat="45.96849" lon="4.71675">
        <ele>191</ele>
        <time>2017-04-24T08:21:52Z</time>
      </trkpt>
      <trkpt lat="45.96854" lon="4.71676">
        <ele>190</ele>
        <time>2017-04-24T08:21:53Z</time>
      </trkpt>
      <trkpt lat="45.9686" lon="4.71676">
        <ele>190</ele>
        <time>2017-04-24T08:21:54Z</time>
      </trkpt>
      <trkpt lat="45.96866" lon="4.71676">
        <ele>190</ele>
        <time>2017-04-24T08:21:55Z</time>
      </trkpt>
      <trkpt lat="45.96871" lon="4.71676">
        <ele>190</ele>
        <time>2017-04-24T08:21:56Z</time>
      </trkpt>
      <trkpt lat="45.96876" lon="4.71676">
        <ele>190</ele>
        <time>2017-04-24T08:21:57Z</time>
      </trkpt>
      <trkpt lat="45.96882" lon="4.71677">
        <ele>190</ele>
        <time>2017-04-24T08:21:58Z</time>
      </trkpt>
      <trkpt lat="45.96887" lon="4.71678">
        <ele>191</ele>
        <time>2017-04-24T08:21:59Z</time>
      </trkpt>
      <trkpt lat="45.96891" lon="4.71678">
        <ele>191</ele>
        <time>2017-04-24T08:22:00Z</time>
      </trkpt>
      <trkpt lat="45.96896" lon="4.71678">
        <ele>191</ele>
        <time>2017-04-24T08:22:01Z</time>
      </trkpt>
      <trkpt lat="45.969" lon="4.71678">
        <ele>192</ele>
        <time>2017-04-24T08:22:02Z</time>
      </trkpt>
      <trkpt lat="45.96905" lon="4.71679">
        <ele>192</ele>
        <time>2017-04-24T08:22:03Z</time>
      </trkpt>
      <trkpt lat="45.9691" lon="4.71679">
        <ele>192</ele>
        <time>2017-04-24T08:22:04Z</time>
      </trkpt>
      <trkpt lat="45.96915" lon="4.7168">
        <ele>192</ele>
        <time>2017-04-24T08:22:05Z</time>
      </trkpt>
      <trkpt lat="45.9692" lon="4.71681">
        <ele>193</ele>
        <time>2017-04-24T08:22:06Z</time>
      </trkpt>
      <trkpt lat="45.96926" lon="4.71682">
        <ele>193</ele>
        <time>2017-04-24T08:22:07Z</time>
      </trkpt>
      <trkpt lat="45.96932" lon="4.71681">
        <ele>192</ele>
        <time>2017-04-24T08:22:08Z</time>
      </trkpt>
      <trkpt lat="45.96937" lon="4.71681">
        <ele>192</ele>
        <time>2017-04-24T08:22:09Z</time>
      </trkpt>
      <trkpt lat="45.96942" lon="4.71681">
        <ele>192</ele>
        <time>2017-04-24T08:22:10Z</time>
      </trkpt>
      <trkpt lat="45.96948" lon="4.7168">
        <ele>192</ele>
        <time>2017-04-24T08:22:11Z</time>
      </trkpt>
      <trkpt lat="45.96954" lon="4.7168">
        <ele>192</ele>
        <time>2017-04-24T08:22:12Z</time>
      </trkpt>
      <trkpt lat="45.96959" lon="4.71681">
        <ele>192</ele>
        <time>2017-04-24T08:22:13Z</time>
      </trkpt>
      <trkpt lat="45.96965" lon="4.71681">
        <ele>192</ele>
        <time>2017-04-24T08:22:14Z</time>
      </trkpt>
      <trkpt lat="45.9697" lon="4.71682">
        <ele>192</ele>
        <time>2017-04-24T08:22:15Z</time>
      </trkpt>
      <trkpt lat="45.96975" lon="4.71682">
        <ele>192</ele>
        <time>2017-04-24T08:22:16Z</time>
      </trkpt>
      <trkpt lat="45.96981" lon="4.71682">
        <ele>192</ele>
        <time>2017-04-24T08:22:17Z</time>
      </trkpt>
      <trkpt lat="45.96986" lon="4.71681">
        <ele>192</ele>
        <time>2017-04-24T08:22:18Z</time>
      </trkpt>
      <trkpt lat="45.9699" lon="4.71683">
        <ele>192</ele>
        <time>2017-04-24T08:22:19Z</time>
      </trkpt>
      <trkpt lat="45.96995" lon="4.71683">
        <ele>192</ele>
        <time>2017-04-24T08:22:20Z</time>
      </trkpt>
      <trkpt lat="45.97" lon="4.71684">
        <ele>193</ele>
        <time>2017-04-24T08:22:21Z</time>
      </trkpt>
      <trkpt lat="45.97006" lon="4.71685">
        <ele>193</ele>
        <time>2017-04-24T08:22:22Z</time>
      </trkpt>
      <trkpt lat="45.97012" lon="4.71687">
        <ele>193</ele>
        <time>2017-04-24T08:22:23Z</time>
      </trkpt>
      <trkpt lat="45.97017" lon="4.71688">
        <ele>193</ele>
        <time>2017-04-24T08:22:24Z</time>
      </trkpt>
      <trkpt lat="45.97023" lon="4.71689">
        <ele>193</ele>
        <time>2017-04-24T08:22:25Z</time>
      </trkpt>
      <trkpt lat="45.97028" lon="4.7169">
        <ele>193</ele>
        <time>2017-04-24T08:22:26Z</time>
      </trkpt>
      <trkpt lat="45.97034" lon="4.71689">
        <ele>193</ele>
        <time>2017-04-24T08:22:27Z</time>
      </trkpt>
      <trkpt lat="45.97039" lon="4.7169">
        <ele>193</ele>
        <time>2017-04-24T08:22:28Z</time>
      </trkpt>
      <trkpt lat="45.97045" lon="4.71691">
        <ele>193</ele>
        <time>2017-04-24T08:22:29Z</time>
      </trkpt>
      <trkpt lat="45.9705" lon="4.71692">
        <ele>193</ele>
        <time>2017-04-24T08:22:30Z</time>
      </trkpt>
      <trkpt lat="45.97055" lon="4.71694">
        <ele>193</ele>
        <time>2017-04-24T08:22:31Z</time>
      </trkpt>
      <trkpt lat="45.9706" lon="4.71695">
        <ele>193</ele>
        <time>2017-04-24T08:22:32Z</time>
      </trkpt>
      <trkpt lat="45.97065" lon="4.71696">
        <ele>193</ele>
        <time>2017-04-24T08:22:33Z</time>
      </trkpt>
      <trkpt lat="45.9707" lon="4.71696">
        <ele>193</ele>
        <time>2017-04-24T08:22:34Z</time>
      </trkpt>
      <trkpt lat="45.97075" lon="4.71697">
        <ele>193</ele>
        <time>2017-04-24T08:22:35Z</time>
      </trkpt>
      <trkpt lat="45.9708" lon="4.71698">
        <ele>193</ele>
        <time>2017-04-24T08:22:36Z</time>
      </trkpt>
      <trkpt lat="45.97085" lon="4.71698">
        <ele>194</ele>
        <time>2017-04-24T08:22:37Z</time>
      </trkpt>
      <trkpt lat="45.97091" lon="4.71698">
        <ele>194</ele>
        <time>2017-04-24T08:22:38Z</time>
      </trkpt>
      <trkpt lat="45.97096" lon="4.71699">
        <ele>194</ele>
        <time>2017-04-24T08:22:39Z</time>
      </trkpt>
      <trkpt lat="45.97102" lon="4.71699">
        <ele>194</ele>
        <time>2017-04-24T08:22:40Z</time>
      </trkpt>
      <trkpt lat="45.97107" lon="4.71699">
        <ele>194</ele>
        <time>2017-04-24T08:22:41Z</time>
      </trkpt>
      <trkpt lat="45.97112" lon="4.71699">
        <ele>194</ele>
        <time>2017-04-24T08:22:42Z</time>
      </trkpt>
      <trkpt lat="45.97117" lon="4.717">
        <ele>194</ele>
        <time>2017-04-24T08:22:43Z</time>
      </trkpt>
      <trkpt lat="45.97122" lon="4.71701">
        <ele>194</ele>
        <time>2017-04-24T08:22:44Z</time>
      </trkpt>
      <trkpt lat="45.97128" lon="4.71701">
        <ele>194</ele>
        <time>2017-04-24T08:22:45Z</time>
      </trkpt>
      <trkpt lat="45.97134" lon="4.71701">
        <ele>194</ele>
        <time>2017-04-24T08:22:46Z</time>
      </trkpt>
      <trkpt lat="45.9714" lon="4.71701">
        <ele>195</ele>
        <time>2017-04-24T08:22:47Z</time>
      </trkpt>
      <trkpt lat="45.97146" lon="4.71702">
        <ele>195</ele>
        <time>2017-04-24T08:22:48Z</time>
      </trkpt>
      <trkpt lat="45.97151" lon="4.71702">
        <ele>195</ele>
        <time>2017-04-24T08:22:49Z</time>
      </trkpt>
      <trkpt lat="45.97157" lon="4.71702">
        <ele>195</ele>
        <time>2017-04-24T08:22:50Z</time>
      </trkpt>
      <trkpt lat="45.97162" lon="4.71702">
        <ele>195</ele>
        <time>2017-04-24T08:22:51Z</time>
      </trkpt>
      <trkpt lat="45.97167" lon="4.71703">
        <ele>196</ele>
        <time>2017-04-24T08:22:52Z</time>
      </trkpt>
      <trkpt lat="45.97173" lon="4.71702">
        <ele>196</ele>
        <time>2017-04-24T08:22:53Z</time>
      </trkpt>
      <trkpt lat="45.97178" lon="4.71703">
        <ele>196</ele>
        <time>2017-04-24T08:22:54Z</time>
      </trkpt>
      <trkpt lat="45.97184" lon="4.71703">
        <ele>196</ele>
        <time>2017-04-24T08:22:55Z</time>
      </trkpt>
      <trkpt lat="45.97189" lon="4.71703">
        <ele>196</ele>
        <time>2017-04-24T08:22:56Z</time>
      </trkpt>
      <trkpt lat="45.97195" lon="4.71704">
        <ele>196</ele>
        <time>2017-04-24T08:22:57Z</time>
      </trkpt>
      <trkpt lat="45.972" lon="4.71704">
        <ele>196</ele>
        <time>2017-04-24T08:22:58Z</time>
      </trkpt>
      <trkpt lat="45.97206" lon="4.71705">
        <ele>196</ele>
        <time>2017-04-24T08:22:59Z</time>
      </trkpt>
      <trkpt lat="45.97212" lon="4.71705">
        <ele>196</ele>
        <time>2017-04-24T08:23:00Z</time>
      </trkpt>
      <trkpt lat="45.97217" lon="4.71706">
        <ele>196</ele>
        <time>2017-04-24T08:23:01Z</time>
      </trkpt>
      <trkpt lat="45.97223" lon="4.71706">
        <ele>196</ele>
        <time>2017-04-24T08:23:02Z</time>
      </trkpt>
      <trkpt lat="45.97229" lon="4.71706">
        <ele>196</ele>
        <time>2017-04-24T08:23:03Z</time>
      </trkpt>
      <trkpt lat="45.97235" lon="4.71706">
        <ele>197</ele>
        <time>2017-04-24T08:23:04Z</time>
      </trkpt>
      <trkpt lat="45.9724" lon="4.71707">
        <ele>197</ele>
        <time>2017-04-24T08:23:05Z</time>
      </trkpt>
      <trkpt lat="45.97245" lon="4.71709">
        <ele>197</ele>
        <time>2017-04-24T08:23:06Z</time>
      </trkpt>
      <trkpt lat="45.9725" lon="4.7171">
        <ele>196</ele>
        <time>2017-04-24T08:23:07Z</time>
      </trkpt>
      <trkpt lat="45.97256" lon="4.7171">
        <ele>196</ele>
        <time>2017-04-24T08:23:08Z</time>
      </trkpt>
      <trkpt lat="45.97261" lon="4.71712">
        <ele>196</ele>
        <time>2017-04-24T08:23:09Z</time>
      </trkpt>
      <trkpt lat="45.97266" lon="4.71712">
        <ele>196</ele>
        <time>2017-04-24T08:23:10Z</time>
      </trkpt>
      <trkpt lat="45.97271" lon="4.71714">
        <ele>196</ele>
        <time>2017-04-24T08:23:11Z</time>
      </trkpt>
      <trkpt lat="45.97277" lon="4.71715">
        <ele>196</ele>
        <time>2017-04-24T08:23:12Z</time>
      </trkpt>
      <trkpt lat="45.97281" lon="4.71718">
        <ele>196</ele>
        <time>2017-04-24T08:23:13Z</time>
      </trkpt>
      <trkpt lat="45.97285" lon="4.71724">
        <ele>196</ele>
        <time>2017-04-24T08:23:14Z</time>
      </trkpt>
      <trkpt lat="45.97288" lon="4.71729">
        <ele>196</ele>
        <time>2017-04-24T08:23:15Z</time>
      </trkpt>
      <trkpt lat="45.97292" lon="4.71733">
        <ele>196</ele>
        <time>2017-04-24T08:23:16Z</time>
      </trkpt>
      <trkpt lat="45.97298" lon="4.71736">
        <ele>196</ele>
        <time>2017-04-24T08:23:17Z</time>
      </trkpt>
      <trkpt lat="45.97303" lon="4.71735">
        <ele>196</ele>
        <time>2017-04-24T08:23:18Z</time>
      </trkpt>
      <trkpt lat="45.97308" lon="4.71733">
        <ele>196</ele>
        <time>2017-04-24T08:23:19Z</time>
      </trkpt>
      <trkpt lat="45.97314" lon="4.7173">
        <ele>196</ele>
        <time>2017-04-24T08:23:20Z</time>
      </trkpt>
      <trkpt lat="45.97319" lon="4.71726">
        <ele>196</ele>
        <time>2017-04-24T08:23:21Z</time>
      </trkpt>
      <trkpt lat="45.97324" lon="4.71722">
        <ele>196</ele>
        <time>2017-04-24T08:23:22Z</time>
      </trkpt>
      <trkpt lat="45.97329" lon="4.71719">
        <ele>196</ele>
        <time>2017-04-24T08:23:23Z</time>
      </trkpt>
      <trkpt lat="45.97335" lon="4.71718">
        <ele>195</ele>
        <time>2017-04-24T08:23:24Z</time>
      </trkpt>
      <trkpt lat="45.97339" lon="4.71719">
        <ele>195</ele>
        <time>2017-04-24T08:23:25Z</time>
      </trkpt>
      <trkpt lat="45.97345" lon="4.71719">
        <ele>195</ele>
        <time>2017-04-24T08:23:26Z</time>
      </trkpt>
      <trkpt lat="45.97351" lon="4.7172">
        <ele>195</ele>
        <time>2017-04-24T08:23:27Z</time>
      </trkpt>
      <trkpt lat="45.97356" lon="4.7172">
        <ele>195</ele>
        <time>2017-04-24T08:23:28Z</time>
      </trkpt>
      <trkpt lat="45.97361" lon="4.7172">
        <ele>195</ele>
        <time>2017-04-24T08:23:29Z</time>
      </trkpt>
      <trkpt lat="45.97366" lon="4.7172">
        <ele>195</ele>
        <time>2017-04-24T08:23:30Z</time>
      </trkpt>
      <trkpt lat="45.97371" lon="4.71721">
        <ele>195</ele>
        <time>2017-04-24T08:23:31Z</time>
      </trkpt>
      <trkpt lat="45.97377" lon="4.71721">
        <ele>195</ele>
        <time>2017-04-24T08:23:32Z</time>
      </trkpt>
      <trkpt lat="45.97381" lon="4.71721">
        <ele>195</ele>
        <time>2017-04-24T08:23:33Z</time>
      </trkpt>
      <trkpt lat="45.97386" lon="4.71722">
        <ele>195</ele>
        <time>2017-04-24T08:23:34Z</time>
      </trkpt>
      <trkpt lat="45.97391" lon="4.71722">
        <ele>195</ele>
        <time>2017-04-24T08:23:35Z</time>
      </trkpt>
      <trkpt lat="45.97396" lon="4.71723">
        <ele>195</ele>
        <time>2017-04-24T08:23:36Z</time>
      </trkpt>
      <trkpt lat="45.97402" lon="4.71724">
        <ele>195</ele>
        <time>2017-04-24T08:23:37Z</time>
      </trkpt>
      <trkpt lat="45.97408" lon="4.71725">
        <ele>195</ele>
        <time>2017-04-24T08:23:38Z</time>
      </trkpt>
      <trkpt lat="45.97413" lon="4.71725">
        <ele>195</ele>
        <time>2017-04-24T08:23:39Z</time>
      </trkpt>
      <trkpt lat="45.97418" lon="4.71726">
        <ele>196</ele>
        <time>2017-04-24T08:23:40Z</time>
      </trkpt>
      <trkpt lat="45.97423" lon="4.71726">
        <ele>196</ele>
        <time>2017-04-24T08:23:41Z</time>
      </trkpt>
      <trkpt lat="45.97429" lon="4.71726">
        <ele>196</ele>
        <time>2017-04-24T08:23:42Z</time>
      </trkpt>
      <trkpt lat="45.97434" lon="4.71727">
        <ele>196</ele>
        <time>2017-04-24T08:23:43Z</time>
      </trkpt>
      <trkpt lat="45.97439" lon="4.71728">
        <ele>196</ele>
        <time>2017-04-24T08:23:44Z</time>
      </trkpt>
      <trkpt lat="45.97444" lon="4.71728">
        <ele>196</ele>
        <time>2017-04-24T08:23:45Z</time>
      </trkpt>
      <trkpt lat="45.9745" lon="4.71729">
        <ele>196</ele>
        <time>2017-04-24T08:23:46Z</time>
      </trkpt>
      <trkpt lat="45.97455" lon="4.71728">
        <ele>197</ele>
        <time>2017-04-24T08:23:47Z</time>
      </trkpt>
      <trkpt lat="45.9746" lon="4.71729">
        <ele>197</ele>
        <time>2017-04-24T08:23:48Z</time>
      </trkpt>
      <trkpt lat="45.97466" lon="4.7173">
        <ele>197</ele>
        <time>2017-04-24T08:23:49Z</time>
      </trkpt>
      <trkpt lat="45.97471" lon="4.71731">
        <ele>197</ele>
        <time>2017-04-24T08:23:50Z</time>
      </trkpt>
      <trkpt lat="45.97476" lon="4.71732">
        <ele>197</ele>
        <time>2017-04-24T08:23:51Z</time>
      </trkpt>
      <trkpt lat="45.97482" lon="4.71732">
        <ele>197</ele>
        <time>2017-04-24T08:23:52Z</time>
      </trkpt>
      <trkpt lat="45.97487" lon="4.71732">
        <ele>197</ele>
        <time>2017-04-24T08:23:53Z</time>
      </trkpt>
      <trkpt lat="45.97492" lon="4.71732">
        <ele>197</ele>
        <time>2017-04-24T08:23:54Z</time>
      </trkpt>
      <trkpt lat="45.97498" lon="4.71733">
        <ele>197</ele>
        <time>2017-04-24T08:23:55Z</time>
      </trkpt>
      <trkpt lat="45.97503" lon="4.71733">
        <ele>197</ele>
        <time>2017-04-24T08:23:56Z</time>
      </trkpt>
      <trkpt lat="45.97508" lon="4.71734">
        <ele>197</ele>
        <time>2017-04-24T08:23:57Z</time>
      </trkpt>
      <trkpt lat="45.97514" lon="4.71734">
        <ele>198</ele>
        <time>2017-04-24T08:23:58Z</time>
      </trkpt>
      <trkpt lat="45.9752" lon="4.71734">
        <ele>198</ele>
        <time>2017-04-24T08:23:59Z</time>
      </trkpt>
      <trkpt lat="45.97525" lon="4.71735">
        <ele>198</ele>
        <time>2017-04-24T08:24:00Z</time>
      </trkpt>
      <trkpt lat="45.97531" lon="4.71735">
        <ele>198</ele>
        <time>2017-04-24T08:24:01Z</time>
      </trkpt>
      <trkpt lat="45.97537" lon="4.71735">
        <ele>198</ele>
        <time>2017-04-24T08:24:02Z</time>
      </trkpt>
      <trkpt lat="45.97544" lon="4.71735">
        <ele>198</ele>
        <time>2017-04-24T08:24:03Z</time>
      </trkpt>
      <trkpt lat="45.9755" lon="4.71735">
        <ele>198</ele>
        <time>2017-04-24T08:24:04Z</time>
      </trkpt>
      <trkpt lat="45.97555" lon="4.71736">
        <ele>197</ele>
        <time>2017-04-24T08:24:05Z</time>
      </trkpt>
      <trkpt lat="45.97561" lon="4.71736">
        <ele>197</ele>
        <time>2017-04-24T08:24:06Z</time>
      </trkpt>
      <trkpt lat="45.97566" lon="4.71736">
        <ele>197</ele>
        <time>2017-04-24T08:24:07Z</time>
      </trkpt>
      <trkpt lat="45.97571" lon="4.71737">
        <ele>197</ele>
        <time>2017-04-24T08:24:08Z</time>
      </trkpt>
      <trkpt lat="45.97576" lon="4.71737">
        <ele>197</ele>
        <time>2017-04-24T08:24:09Z</time>
      </trkpt>
      <trkpt lat="45.97581" lon="4.71738">
        <ele>196</ele>
        <time>2017-04-24T08:24:10Z</time>
      </trkpt>
      <trkpt lat="45.97587" lon="4.71743">
        <ele>196</ele>
        <time>2017-04-24T08:24:12Z</time>
      </trkpt>
      <trkpt lat="45.97591" lon="4.71747">
        <ele>196</ele>
        <time>2017-04-24T08:24:13Z</time>
      </trkpt>
      <trkpt lat="45.97594" lon="4.71751">
        <ele>195</ele>
        <time>2017-04-24T08:24:14Z</time>
      </trkpt>
      <trkpt lat="45.97599" lon="4.71754">
        <ele>194</ele>
        <time>2017-04-24T08:24:15Z</time>
      </trkpt>
      <trkpt lat="45.97604" lon="4.71757">
        <ele>194</ele>
        <time>2017-04-24T08:24:16Z</time>
      </trkpt>
      <trkpt lat="45.97609" lon="4.71759">
        <ele>194</ele>
        <time>2017-04-24T08:24:17Z</time>
      </trkpt>
      <trkpt lat="45.97615" lon="4.71756">
        <ele>194</ele>
        <time>2017-04-24T08:24:18Z</time>
      </trkpt>
      <trkpt lat="45.97621" lon="4.71753">
        <ele>194</ele>
        <time>2017-04-24T08:24:19Z</time>
      </trkpt>
      <trkpt lat="45.97627" lon="4.71749">
        <ele>196</ele>
        <time>2017-04-24T08:24:20Z</time>
      </trkpt>
      <trkpt lat="45.97631" lon="4.71746">
        <ele>196</ele>
        <time>2017-04-24T08:24:21Z</time>
      </trkpt>
      <trkpt lat="45.9764" lon="4.71744">
        <ele>196</ele>
        <time>2017-04-24T08:24:23Z</time>
      </trkpt>
      <trkpt lat="45.97645" lon="4.71744">
        <ele>196</ele>
        <time>2017-04-24T08:24:24Z</time>
      </trkpt>
      <trkpt lat="45.97651" lon="4.71744">
        <ele>195</ele>
        <time>2017-04-24T08:24:25Z</time>
      </trkpt>
      <trkpt lat="45.97657" lon="4.71745">
        <ele>195</ele>
        <time>2017-04-24T08:24:26Z</time>
      </trkpt>
      <trkpt lat="45.97663" lon="4.71746">
        <ele>195</ele>
        <time>2017-04-24T08:24:27Z</time>
      </trkpt>
      <trkpt lat="45.97668" lon="4.71746">
        <ele>194</ele>
        <time>2017-04-24T08:24:28Z</time>
      </trkpt>
      <trkpt lat="45.97674" lon="4.71747">
        <ele>195</ele>
        <time>2017-04-24T08:24:29Z</time>
      </trkpt>
      <trkpt lat="45.97681" lon="4.71747">
        <ele>195</ele>
        <time>2017-04-24T08:24:30Z</time>
      </trkpt>
      <trkpt lat="45.97686" lon="4.71748">
        <ele>195</ele>
        <time>2017-04-24T08:24:31Z</time>
      </trkpt>
      <trkpt lat="45.97692" lon="4.71748">
        <ele>196</ele>
        <time>2017-04-24T08:24:32Z</time>
      </trkpt>
      <trkpt lat="45.97699" lon="4.71749">
        <ele>196</ele>
        <time>2017-04-24T08:24:33Z</time>
      </trkpt>
      <trkpt lat="45.97705" lon="4.71749">
        <ele>196</ele>
        <time>2017-04-24T08:24:34Z</time>
      </trkpt>
      <trkpt lat="45.97714" lon="4.7175">
        <ele>196</ele>
        <time>2017-04-24T08:24:35Z</time>
      </trkpt>
      <trkpt lat="45.97722" lon="4.7175">
        <ele>195</ele>
        <time>2017-04-24T08:24:36Z</time>
      </trkpt>
      <trkpt lat="45.97729" lon="4.71752">
        <ele>195</ele>
        <time>2017-04-24T08:24:37Z</time>
      </trkpt>
      <trkpt lat="45.97736" lon="4.71753">
        <ele>195</ele>
        <time>2017-04-24T08:24:38Z</time>
      </trkpt>
      <trkpt lat="45.97742" lon="4.71754">
        <ele>196</ele>
        <time>2017-04-24T08:24:39Z</time>
      </trkpt>
      <trkpt lat="45.97748" lon="4.71754">
        <ele>196</ele>
        <time>2017-04-24T08:24:40Z</time>
      </trkpt>
      <trkpt lat="45.97754" lon="4.71754">
        <ele>196</ele>
        <time>2017-04-24T08:24:41Z</time>
      </trkpt>
      <trkpt lat="45.9776" lon="4.71755">
        <ele>196</ele>
        <time>2017-04-24T08:24:42Z</time>
      </trkpt>
      <trkpt lat="45.97766" lon="4.71755">
        <ele>196</ele>
        <time>2017-04-24T08:24:43Z</time>
      </trkpt>
      <trkpt lat="45.97772" lon="4.71756">
        <ele>195</ele>
        <time>2017-04-24T08:24:44Z</time>
      </trkpt>
      <trkpt lat="45.97778" lon="4.71756">
        <ele>195</ele>
        <time>2017-04-24T08:24:45Z</time>
      </trkpt>
      <trkpt lat="45.97783" lon="4.71756">
        <ele>195</ele>
        <time>2017-04-24T08:24:46Z</time>
      </trkpt>
      <trkpt lat="45.97789" lon="4.71756">
        <ele>195</ele>
        <time>2017-04-24T08:24:47Z</time>
      </trkpt>
      <trkpt lat="45.97794" lon="4.71756">
        <ele>195</ele>
        <time>2017-04-24T08:24:48Z</time>
      </trkpt>
      <trkpt lat="45.97799" lon="4.71755">
        <ele>195</ele>
        <time>2017-04-24T08:24:49Z</time>
      </trkpt>
      <trkpt lat="45.97804" lon="4.71755">
        <ele>195</ele>
        <time>2017-04-24T08:24:50Z</time>
      </trkpt>
      <trkpt lat="45.97809" lon="4.71754">
        <ele>195</ele>
        <time>2017-04-24T08:24:51Z</time>
      </trkpt>
      <trkpt lat="45.97815" lon="4.71754">
        <ele>195</ele>
        <time>2017-04-24T08:24:52Z</time>
      </trkpt>
      <trkpt lat="45.97819" lon="4.71755">
        <ele>195</ele>
        <time>2017-04-24T08:24:53Z</time>
      </trkpt>
      <trkpt lat="45.97824" lon="4.71755">
        <ele>195</ele>
        <time>2017-04-24T08:24:54Z</time>
      </trkpt>
      <trkpt lat="45.97832" lon="4.71755">
        <ele>195</ele>
        <time>2017-04-24T08:24:56Z</time>
      </trkpt>
      <trkpt lat="45.97834" lon="4.71756">
        <ele>195</ele>
        <time>2017-04-24T08:24:57Z</time>
      </trkpt>
      <trkpt lat="45.97841" lon="4.71758">
        <ele>195</ele>
        <time>2017-04-24T08:25:00Z</time>
      </trkpt>
      <trkpt lat="45.97844" lon="4.71762">
        <ele>195</ele>
        <time>2017-04-24T08:25:01Z</time>
      </trkpt>
      <trkpt lat="45.97847" lon="4.71767">
        <ele>195</ele>
        <time>2017-04-24T08:25:02Z</time>
      </trkpt>
      <trkpt lat="45.9785" lon="4.71772">
        <ele>195</ele>
        <time>2017-04-24T08:25:03Z</time>
      </trkpt>
      <trkpt lat="45.97854" lon="4.71776">
        <ele>194</ele>
        <time>2017-04-24T08:25:04Z</time>
      </trkpt>
      <trkpt lat="45.97858" lon="4.7178">
        <ele>194</ele>
        <time>2017-04-24T08:25:05Z</time>
      </trkpt>
      <trkpt lat="45.97863" lon="4.71783">
        <ele>194</ele>
        <time>2017-04-24T08:25:06Z</time>
      </trkpt>
      <trkpt lat="45.97869" lon="4.71786">
        <ele>194</ele>
        <time>2017-04-24T08:25:07Z</time>
      </trkpt>
      <trkpt lat="45.97874" lon="4.71785">
        <ele>194</ele>
        <time>2017-04-24T08:25:08Z</time>
      </trkpt>
      <trkpt lat="45.9788" lon="4.71783">
        <ele>194</ele>
        <time>2017-04-24T08:25:09Z</time>
      </trkpt>
      <trkpt lat="45.97885" lon="4.71778">
        <ele>194</ele>
        <time>2017-04-24T08:25:10Z</time>
      </trkpt>
      <trkpt lat="45.97889" lon="4.71772">
        <ele>194</ele>
        <time>2017-04-24T08:25:11Z</time>
      </trkpt>
      <trkpt lat="45.97892" lon="4.71765">
        <ele>194</ele>
        <time>2017-04-24T08:25:12Z</time>
      </trkpt>
      <trkpt lat="45.97894" lon="4.71757">
        <ele>195</ele>
        <time>2017-04-24T08:25:13Z</time>
      </trkpt>
      <trkpt lat="45.97895" lon="4.71748">
        <ele>196</ele>
        <time>2017-04-24T08:25:14Z</time>
      </trkpt>
      <trkpt lat="45.97896" lon="4.71739">
        <ele>196</ele>
        <time>2017-04-24T08:25:15Z</time>
      </trkpt>
      <trkpt lat="45.97897" lon="4.7173">
        <ele>196</ele>
        <time>2017-04-24T08:25:16Z</time>
      </trkpt>
      <trkpt lat="45.97898" lon="4.71721">
        <ele>196</ele>
        <time>2017-04-24T08:25:17Z</time>
      </trkpt>
      <trkpt lat="45.979" lon="4.71712">
        <ele>196</ele>
        <time>2017-04-24T08:25:18Z</time>
      </trkpt>
      <trkpt lat="45.97903" lon="4.71704">
        <ele>196</ele>
        <time>2017-04-24T08:25:19Z</time>
      </trkpt>
      <trkpt lat="45.97907" lon="4.71696">
        <ele>196</ele>
        <time>2017-04-24T08:25:20Z</time>
      </trkpt>
      <trkpt lat="45.97912" lon="4.71689">
        <ele>196</ele>
        <time>2017-04-24T08:25:21Z</time>
      </trkpt>
      <trkpt lat="45.97917" lon="4.71685">
        <ele>196</ele>
        <time>2017-04-24T08:25:22Z</time>
      </trkpt>
      <trkpt lat="45.97923" lon="4.7168">
        <ele>197</ele>
        <time>2017-04-24T08:25:23Z</time>
      </trkpt>
      <trkpt lat="45.97928" lon="4.71676">
        <ele>197</ele>
        <time>2017-04-24T08:25:24Z</time>
      </trkpt>
      <trkpt lat="45.97933" lon="4.71671">
        <ele>197</ele>
        <time>2017-04-24T08:25:25Z</time>
      </trkpt>
      <trkpt lat="45.97939" lon="4.71666">
        <ele>197</ele>
        <time>2017-04-24T08:25:26Z</time>
      </trkpt>
      <trkpt lat="45.97943" lon="4.71662">
        <ele>197</ele>
        <time>2017-04-24T08:25:27Z</time>
      </trkpt>
      <trkpt lat="45.97947" lon="4.71658">
        <ele>197</ele>
        <time>2017-04-24T08:25:28Z</time>
      </trkpt>
      <trkpt lat="45.97952" lon="4.71654">
        <ele>197</ele>
        <time>2017-04-24T08:25:29Z</time>
      </trkpt>
      <trkpt lat="45.97957" lon="4.71649">
        <ele>197</ele>
        <time>2017-04-24T08:25:30Z</time>
      </trkpt>
      <trkpt lat="45.97961" lon="4.71645">
        <ele>197</ele>
        <time>2017-04-24T08:25:31Z</time>
      </trkpt>
      <trkpt lat="45.97966" lon="4.71642">
        <ele>197</ele>
        <time>2017-04-24T08:25:32Z</time>
      </trkpt>
      <trkpt lat="45.97971" lon="4.71638">
        <ele>197</ele>
        <time>2017-04-24T08:25:33Z</time>
      </trkpt>
      <trkpt lat="45.97976" lon="4.71634">
        <ele>197</ele>
        <time>2017-04-24T08:25:34Z</time>
      </trkpt>
      <trkpt lat="45.9798" lon="4.7163">
        <ele>197</ele>
        <time>2017-04-24T08:25:35Z</time>
      </trkpt>
      <trkpt lat="45.97985" lon="4.71626">
        <ele>197</ele>
        <time>2017-04-24T08:25:36Z</time>
      </trkpt>
      <trkpt lat="45.9799" lon="4.71623">
        <ele>197</ele>
        <time>2017-04-24T08:25:37Z</time>
      </trkpt>
      <trkpt lat="45.97995" lon="4.7162">
        <ele>198</ele>
        <time>2017-04-24T08:25:38Z</time>
      </trkpt>
      <trkpt lat="45.98" lon="4.71617">
        <ele>198</ele>
        <time>2017-04-24T08:25:39Z</time>
      </trkpt>
      <trkpt lat="45.98005" lon="4.71614">
        <ele>198</ele>
        <time>2017-04-24T08:25:40Z</time>
      </trkpt>
      <trkpt lat="45.9801" lon="4.7161">
        <ele>198</ele>
        <time>2017-04-24T08:25:41Z</time>
      </trkpt>
      <trkpt lat="45.98015" lon="4.71606">
        <ele>198</ele>
        <time>2017-04-24T08:25:42Z</time>
      </trkpt>
      <trkpt lat="45.9802" lon="4.71602">
        <ele>198</ele>
        <time>2017-04-24T08:25:43Z</time>
      </trkpt>
      <trkpt lat="45.98025" lon="4.71597">
        <ele>198</ele>
        <time>2017-04-24T08:25:44Z</time>
      </trkpt>
      <trkpt lat="45.9803" lon="4.71594">
        <ele>198</ele>
        <time>2017-04-24T08:25:45Z</time>
      </trkpt>
      <trkpt lat="45.98036" lon="4.7159">
        <ele>198</ele>
        <time>2017-04-24T08:25:46Z</time>
      </trkpt>
      <trkpt lat="45.98041" lon="4.71586">
        <ele>198</ele>
        <time>2017-04-24T08:25:47Z</time>
      </trkpt>
      <trkpt lat="45.98046" lon="4.71582">
        <ele>198</ele>
        <time>2017-04-24T08:25:48Z</time>
      </trkpt>
      <trkpt lat="45.98051" lon="4.71578">
        <ele>198</ele>
        <time>2017-04-24T08:25:49Z</time>
      </trkpt>
      <trkpt lat="45.98056" lon="4.71573">
        <ele>198</ele>
        <time>2017-04-24T08:25:50Z</time>
      </trkpt>
      <trkpt lat="45.98061" lon="4.7157">
        <ele>198</ele>
        <time>2017-04-24T08:25:51Z</time>
      </trkpt>
      <trkpt lat="45.98065" lon="4.71567">
        <ele>198</ele>
        <time>2017-04-24T08:25:52Z</time>
      </trkpt>
      <trkpt lat="45.98071" lon="4.71563">
        <ele>198</ele>
        <time>2017-04-24T08:25:53Z</time>
      </trkpt>
      <trkpt lat="45.98077" lon="4.7156">
        <ele>198</ele>
        <time>2017-04-24T08:25:54Z</time>
      </trkpt>
      <trkpt lat="45.98082" lon="4.71557">
        <ele>198</ele>
        <time>2017-04-24T08:25:55Z</time>
      </trkpt>
      <trkpt lat="45.98086" lon="4.71554">
        <ele>198</ele>
        <time>2017-04-24T08:25:56Z</time>
      </trkpt>
      <trkpt lat="45.98091" lon="4.7155">
        <ele>198</ele>
        <time>2017-04-24T08:25:57Z</time>
      </trkpt>
      <trkpt lat="45.98095" lon="4.71546">
        <ele>197</ele>
        <time>2017-04-24T08:25:58Z</time>
      </trkpt>
      <trkpt lat="45.981" lon="4.71543">
        <ele>197</ele>
        <time>2017-04-24T08:25:59Z</time>
      </trkpt>
      <trkpt lat="45.98105" lon="4.71539">
        <ele>197</ele>
        <time>2017-04-24T08:26:00Z</time>
      </trkpt>
      <trkpt lat="45.9811" lon="4.71535">
        <ele>197</ele>
        <time>2017-04-24T08:26:01Z</time>
      </trkpt>
      <trkpt lat="45.98114" lon="4.71532">
        <ele>197</ele>
        <time>2017-04-24T08:26:02Z</time>
      </trkpt>
      <trkpt lat="45.98119" lon="4.71528">
        <ele>197</ele>
        <time>2017-04-24T08:26:03Z</time>
      </trkpt>
      <trkpt lat="45.98124" lon="4.71525">
        <ele>197</ele>
        <time>2017-04-24T08:26:04Z</time>
      </trkpt>
      <trkpt lat="45.98129" lon="4.71522">
        <ele>197</ele>
        <time>2017-04-24T08:26:05Z</time>
      </trkpt>
      <trkpt lat="45.98135" lon="4.71518">
        <ele>197</ele>
        <time>2017-04-24T08:26:06Z</time>
      </trkpt>
      <trkpt lat="45.98142" lon="4.71515">
        <ele>197</ele>
        <time>2017-04-24T08:26:07Z</time>
      </trkpt>
      <trkpt lat="45.98148" lon="4.71513">
        <ele>197</ele>
        <time>2017-04-24T08:26:08Z</time>
      </trkpt>
      <trkpt lat="45.98153" lon="4.7151">
        <ele>197</ele>
        <time>2017-04-24T08:26:09Z</time>
      </trkpt>
      <trkpt lat="45.98159" lon="4.71506">
        <ele>197</ele>
        <time>2017-04-24T08:26:10Z</time>
      </trkpt>
      <trkpt lat="45.98164" lon="4.71505">
        <ele>197</ele>
        <time>2017-04-24T08:26:11Z</time>
      </trkpt>
      <trkpt lat="45.9817" lon="4.71504">
        <ele>197</ele>
        <time>2017-04-24T08:26:12Z</time>
      </trkpt>
      <trkpt lat="45.98176" lon="4.71503">
        <ele>197</ele>
        <time>2017-04-24T08:26:13Z</time>
      </trkpt>
      <trkpt lat="45.98182" lon="4.71504">
        <ele>197</ele>
        <time>2017-04-24T08:26:14Z</time>
      </trkpt>
      <trkpt lat="45.98187" lon="4.71504">
        <ele>197</ele>
        <time>2017-04-24T08:26:15Z</time>
      </trkpt>
      <trkpt lat="45.98193" lon="4.71505">
        <ele>197</ele>
        <time>2017-04-24T08:26:16Z</time>
      </trkpt>
      <trkpt lat="45.98199" lon="4.71507">
        <ele>197</ele>
        <time>2017-04-24T08:26:17Z</time>
      </trkpt>
      <trkpt lat="45.98206" lon="4.71509">
        <ele>197</ele>
        <time>2017-04-24T08:26:18Z</time>
      </trkpt>
      <trkpt lat="45.9821" lon="4.71511">
        <ele>196</ele>
        <time>2017-04-24T08:26:19Z</time>
      </trkpt>
      <trkpt lat="45.98215" lon="4.71514">
        <ele>196</ele>
        <time>2017-04-24T08:26:20Z</time>
      </trkpt>
      <trkpt lat="45.9822" lon="4.71516">
        <ele>196</ele>
        <time>2017-04-24T08:26:21Z</time>
      </trkpt>
      <trkpt lat="45.98225" lon="4.71517">
        <ele>196</ele>
        <time>2017-04-24T08:26:22Z</time>
      </trkpt>
      <trkpt lat="45.9823" lon="4.71518">
        <ele>196</ele>
        <time>2017-04-24T08:26:23Z</time>
      </trkpt>
      <trkpt lat="45.98234" lon="4.71519">
        <ele>196</ele>
        <time>2017-04-24T08:26:24Z</time>
      </trkpt>
      <trkpt lat="45.98239" lon="4.71521">
        <ele>196</ele>
        <time>2017-04-24T08:26:25Z</time>
      </trkpt>
      <trkpt lat="45.98244" lon="4.71523">
        <ele>196</ele>
        <time>2017-04-24T08:26:26Z</time>
      </trkpt>
      <trkpt lat="45.98248" lon="4.71525">
        <ele>196</ele>
        <time>2017-04-24T08:26:27Z</time>
      </trkpt>
      <trkpt lat="45.98253" lon="4.71529">
        <ele>197</ele>
        <time>2017-04-24T08:26:28Z</time>
      </trkpt>
      <trkpt lat="45.98258" lon="4.71532">
        <ele>197</ele>
        <time>2017-04-24T08:26:29Z</time>
      </trkpt>
      <trkpt lat="45.98263" lon="4.71533">
        <ele>197</ele>
        <time>2017-04-24T08:26:30Z</time>
      </trkpt>
      <trkpt lat="45.98267" lon="4.71535">
        <ele>197</ele>
        <time>2017-04-24T08:26:31Z</time>
      </trkpt>
      <trkpt lat="45.98272" lon="4.71538">
        <ele>197</ele>
        <time>2017-04-24T08:26:32Z</time>
      </trkpt>
      <trkpt lat="45.98277" lon="4.71543">
        <ele>198</ele>
        <time>2017-04-24T08:26:33Z</time>
      </trkpt>
      <trkpt lat="45.98283" lon="4.71547">
        <ele>198</ele>
        <time>2017-04-24T08:26:34Z</time>
      </trkpt>
      <trkpt lat="45.98288" lon="4.71551">
        <ele>198</ele>
        <time>2017-04-24T08:26:35Z</time>
      </trkpt>
      <trkpt lat="45.98293" lon="4.71555">
        <ele>198</ele>
        <time>2017-04-24T08:26:36Z</time>
      </trkpt>
      <trkpt lat="45.98299" lon="4.71558">
        <ele>198</ele>
        <time>2017-04-24T08:26:37Z</time>
      </trkpt>
      <trkpt lat="45.98304" lon="4.71562">
        <ele>198</ele>
        <time>2017-04-24T08:26:38Z</time>
      </trkpt>
      <trkpt lat="45.9831" lon="4.71565">
        <ele>198</ele>
        <time>2017-04-24T08:26:39Z</time>
      </trkpt>
      <trkpt lat="45.98315" lon="4.71568">
        <ele>198</ele>
        <time>2017-04-24T08:26:40Z</time>
      </trkpt>
      <trkpt lat="45.98321" lon="4.71572">
        <ele>198</ele>
        <time>2017-04-24T08:26:41Z</time>
      </trkpt>
      <trkpt lat="45.98326" lon="4.71575">
        <ele>199</ele>
        <time>2017-04-24T08:26:42Z</time>
      </trkpt>
      <trkpt lat="45.98331" lon="4.71578">
        <ele>199</ele>
        <time>2017-04-24T08:26:43Z</time>
      </trkpt>
      <trkpt lat="45.98336" lon="4.71581">
        <ele>199</ele>
        <time>2017-04-24T08:26:44Z</time>
      </trkpt>
      <trkpt lat="45.9834" lon="4.71584">
        <ele>199</ele>
        <time>2017-04-24T08:26:45Z</time>
      </trkpt>
      <trkpt lat="45.98344" lon="4.71588">
        <ele>199</ele>
        <time>2017-04-24T08:26:46Z</time>
      </trkpt>
      <trkpt lat="45.98349" lon="4.7159">
        <ele>198</ele>
        <time>2017-04-24T08:26:47Z</time>
      </trkpt>
      <trkpt lat="45.98357" lon="4.71593">
        <ele>198</ele>
        <time>2017-04-24T08:26:49Z</time>
      </trkpt>
      <trkpt lat="45.98361" lon="4.71595">
        <ele>198</ele>
        <time>2017-04-24T08:26:50Z</time>
      </trkpt>
      <trkpt lat="45.98369" lon="4.71597">
        <ele>198</ele>
        <time>2017-04-24T08:26:52Z</time>
      </trkpt>
      <trkpt lat="45.98372" lon="4.71598">
        <ele>198</ele>
        <time>2017-04-24T08:26:53Z</time>
      </trkpt>
      <trkpt lat="45.98375" lon="4.71597">
        <ele>198</ele>
        <time>2017-04-24T08:26:55Z</time>
      </trkpt>
      <trkpt lat="45.98376" lon="4.71597">
        <ele>198</ele>
        <time>2017-04-24T08:26:56Z</time>
      </trkpt>
      <trkpt lat="45.98384" lon="4.71594">
        <ele>198</ele>
        <time>2017-04-24T08:27:02Z</time>
      </trkpt>
      <trkpt lat="45.98386" lon="4.71593">
        <ele>198</ele>
        <time>2017-04-24T08:27:03Z</time>
      </trkpt>
      <trkpt lat="45.98393" lon="4.71588">
        <ele>198</ele>
        <time>2017-04-24T08:27:06Z</time>
      </trkpt>
      <trkpt lat="45.98396" lon="4.71584">
        <ele>197</ele>
        <time>2017-04-24T08:27:07Z</time>
      </trkpt>
      <trkpt lat="45.98403" lon="4.71576">
        <ele>198</ele>
        <time>2017-04-24T08:27:09Z</time>
      </trkpt>
      <trkpt lat="45.98407" lon="4.71572">
        <ele>198</ele>
        <time>2017-04-24T08:27:10Z</time>
      </trkpt>
      <trkpt lat="45.98412" lon="4.71567">
        <ele>198</ele>
        <time>2017-04-24T08:27:11Z</time>
      </trkpt>
      <trkpt lat="45.98416" lon="4.71562">
        <ele>198</ele>
        <time>2017-04-24T08:27:12Z</time>
      </trkpt>
      <trkpt lat="45.98419" lon="4.71558">
        <ele>197</ele>
        <time>2017-04-24T08:27:13Z</time>
      </trkpt>
      <trkpt lat="45.98424" lon="4.71552">
        <ele>197</ele>
        <time>2017-04-24T08:27:14Z</time>
      </trkpt>
      <trkpt lat="45.9843" lon="4.71544">
        <ele>197</ele>
        <time>2017-04-24T08:27:16Z</time>
      </trkpt>
      <trkpt lat="45.98432" lon="4.71542">
        <ele>197</ele>
        <time>2017-04-24T08:27:17Z</time>
      </trkpt>
      <trkpt lat="45.98438" lon="4.71535">
        <ele>197</ele>
        <time>2017-04-24T08:27:21Z</time>
      </trkpt>
      <trkpt lat="45.9844" lon="4.71534">
        <ele>197</ele>
        <time>2017-04-24T08:27:22Z</time>
      </trkpt>
      <trkpt lat="45.98446" lon="4.71533">
        <ele>197</ele>
        <time>2017-04-24T08:27:24Z</time>
      </trkpt>
      <trkpt lat="45.98451" lon="4.71531">
        <ele>197</ele>
        <time>2017-04-24T08:27:25Z</time>
      </trkpt>
      <trkpt lat="45.98456" lon="4.7153">
        <ele>197</ele>
        <time>2017-04-24T08:27:26Z</time>
      </trkpt>
      <trkpt lat="45.98461" lon="4.71528">
        <ele>197</ele>
        <time>2017-04-24T08:27:27Z</time>
      </trkpt>
      <trkpt lat="45.98466" lon="4.71528">
        <ele>197</ele>
        <time>2017-04-24T08:27:28Z</time>
      </trkpt>
      <trkpt lat="45.98471" lon="4.71525">
        <ele>197</ele>
        <time>2017-04-24T08:27:29Z</time>
      </trkpt>
      <trkpt lat="45.98477" lon="4.71523">
        <ele>196</ele>
        <time>2017-04-24T08:27:30Z</time>
      </trkpt>
      <trkpt lat="45.98483" lon="4.7152">
        <ele>196</ele>
        <time>2017-04-24T08:27:31Z</time>
      </trkpt>
      <trkpt lat="45.98489" lon="4.71518">
        <ele>196</ele>
        <time>2017-04-24T08:27:32Z</time>
      </trkpt>
      <trkpt lat="45.98496" lon="4.71517">
        <ele>196</ele>
        <time>2017-04-24T08:27:33Z</time>
      </trkpt>
      <trkpt lat="45.98503" lon="4.71517">
        <ele>195</ele>
        <time>2017-04-24T08:27:34Z</time>
      </trkpt>
      <trkpt lat="45.9851" lon="4.71515">
        <ele>195</ele>
        <time>2017-04-24T08:27:35Z</time>
      </trkpt>
      <trkpt lat="45.98516" lon="4.71514">
        <ele>195</ele>
        <time>2017-04-24T08:27:36Z</time>
      </trkpt>
      <trkpt lat="45.98524" lon="4.71512">
        <ele>194</ele>
        <time>2017-04-24T08:27:37Z</time>
      </trkpt>
      <trkpt lat="45.9853" lon="4.7151">
        <ele>194</ele>
        <time>2017-04-24T08:27:38Z</time>
      </trkpt>
      <trkpt lat="45.98537" lon="4.71508">
        <ele>194</ele>
        <time>2017-04-24T08:27:39Z</time>
      </trkpt>
      <trkpt lat="45.98544" lon="4.71506">
        <ele>194</ele>
        <time>2017-04-24T08:27:40Z</time>
      </trkpt>
      <trkpt lat="45.98552" lon="4.71504">
        <ele>194</ele>
        <time>2017-04-24T08:27:41Z</time>
      </trkpt>
      <trkpt lat="45.98559" lon="4.71501">
        <ele>193</ele>
        <time>2017-04-24T08:27:42Z</time>
      </trkpt>
      <trkpt lat="45.98567" lon="4.71497">
        <ele>193</ele>
        <time>2017-04-24T08:27:43Z</time>
      </trkpt>
      <trkpt lat="45.98573" lon="4.71493">
        <ele>192</ele>
        <time>2017-04-24T08:27:44Z</time>
      </trkpt>
      <trkpt lat="45.9858" lon="4.7149">
        <ele>192</ele>
        <time>2017-04-24T08:27:45Z</time>
      </trkpt>
      <trkpt lat="45.98588" lon="4.71488">
        <ele>191</ele>
        <time>2017-04-24T08:27:46Z</time>
      </trkpt>
      <trkpt lat="45.98596" lon="4.71486">
        <ele>191</ele>
        <time>2017-04-24T08:27:47Z</time>
      </trkpt>
      <trkpt lat="45.98605" lon="4.71484">
        <ele>191</ele>
        <time>2017-04-24T08:27:48Z</time>
      </trkpt>
      <trkpt lat="45.98613" lon="4.71481">
        <ele>191</ele>
        <time>2017-04-24T08:27:49Z</time>
      </trkpt>
      <trkpt lat="45.98622" lon="4.71479">
        <ele>190</ele>
        <time>2017-04-24T08:27:50Z</time>
      </trkpt>
      <trkpt lat="45.98629" lon="4.71477">
        <ele>190</ele>
        <time>2017-04-24T08:27:51Z</time>
      </trkpt>
      <trkpt lat="45.98636" lon="4.71475">
        <ele>190</ele>
        <time>2017-04-24T08:27:52Z</time>
      </trkpt>
      <trkpt lat="45.98642" lon="4.71473">
        <ele>190</ele>
        <time>2017-04-24T08:27:53Z</time>
      </trkpt>
      <trkpt lat="45.98651" lon="4.71471">
        <ele>190</ele>
        <time>2017-04-24T08:27:55Z</time>
      </trkpt>
      <trkpt lat="45.98653" lon="4.7147">
        <ele>190</ele>
        <time>2017-04-24T08:27:56Z</time>
      </trkpt>
      <trkpt lat="45.98659" lon="4.71471">
        <ele>190</ele>
        <time>2017-04-24T08:28:00Z</time>
      </trkpt>
      <trkpt lat="45.98659" lon="4.71471">
        <ele>190</ele>
        <time>2017-04-24T08:28:01Z</time>
      </trkpt>
      <trkpt lat="45.98661" lon="4.71476">
        <ele>190</ele>
        <time>2017-04-24T08:28:15Z</time>
      </trkpt>
      <trkpt lat="45.98662" lon="4.7148">
        <ele>190</ele>
        <time>2017-04-24T08:28:16Z</time>
      </trkpt>
      <trkpt lat="45.98668" lon="4.71488">
        <ele>188</ele>
        <time>2017-04-24T08:28:18Z</time>
      </trkpt>
      <trkpt lat="45.98673" lon="4.71489">
        <ele>188</ele>
        <time>2017-04-24T08:28:19Z</time>
      </trkpt>
      <trkpt lat="45.98678" lon="4.7149">
        <ele>188</ele>
        <time>2017-04-24T08:28:20Z</time>
      </trkpt>
      <trkpt lat="45.98683" lon="4.71489">
        <ele>188</ele>
        <time>2017-04-24T08:28:21Z</time>
      </trkpt>
      <trkpt lat="45.98689" lon="4.71492">
        <ele>187</ele>
        <time>2017-04-24T08:28:22Z</time>
      </trkpt>
      <trkpt lat="45.98695" lon="4.71493">
        <ele>187</ele>
        <time>2017-04-24T08:28:23Z</time>
      </trkpt>
      <trkpt lat="45.98702" lon="4.71496">
        <ele>187</ele>
        <time>2017-04-24T08:28:24Z</time>
      </trkpt>
      <trkpt lat="45.98708" lon="4.71498">
        <ele>187</ele>
        <time>2017-04-24T08:28:25Z</time>
      </trkpt>
      <trkpt lat="45.98714" lon="4.71498">
        <ele>186</ele>
        <time>2017-04-24T08:28:26Z</time>
      </trkpt>
      <trkpt lat="45.9872" lon="4.71498">
        <ele>186</ele>
        <time>2017-04-24T08:28:27Z</time>
      </trkpt>
      <trkpt lat="45.98725" lon="4.71499">
        <ele>186</ele>
        <time>2017-04-24T08:28:28Z</time>
      </trkpt>
      <trkpt lat="45.98731" lon="4.71498">
        <ele>185</ele>
        <time>2017-04-24T08:28:29Z</time>
      </trkpt>
      <trkpt lat="45.98738" lon="4.71497">
        <ele>185</ele>
        <time>2017-04-24T08:28:30Z</time>
      </trkpt>
      <trkpt lat="45.98743" lon="4.71497">
        <ele>185</ele>
        <time>2017-04-24T08:28:31Z</time>
      </trkpt>
      <trkpt lat="45.98749" lon="4.71496">
        <ele>184</ele>
        <time>2017-04-24T08:28:32Z</time>
      </trkpt>
      <trkpt lat="45.98755" lon="4.71496">
        <ele>184</ele>
        <time>2017-04-24T08:28:33Z</time>
      </trkpt>
      <trkpt lat="45.9876" lon="4.71495">
        <ele>184</ele>
        <time>2017-04-24T08:28:34Z</time>
      </trkpt>
      <trkpt lat="45.98766" lon="4.71494">
        <ele>184</ele>
        <time>2017-04-24T08:28:35Z</time>
      </trkpt>
      <trkpt lat="45.9877" lon="4.71494">
        <ele>184</ele>
        <time>2017-04-24T08:28:36Z</time>
      </trkpt>
      <trkpt lat="45.98775" lon="4.71494">
        <ele>184</ele>
        <time>2017-04-24T08:28:37Z</time>
      </trkpt>
      <trkpt lat="45.9878" lon="4.71494">
        <ele>184</ele>
        <time>2017-04-24T08:28:38Z</time>
      </trkpt>
      <trkpt lat="45.98785" lon="4.71493">
        <ele>184</ele>
        <time>2017-04-24T08:28:39Z</time>
      </trkpt>
      <trkpt lat="45.98791" lon="4.71492">
        <ele>184</ele>
        <time>2017-04-24T08:28:40Z</time>
      </trkpt>
      <trkpt lat="45.98797" lon="4.7149">
        <ele>184</ele>
        <time>2017-04-24T08:28:41Z</time>
      </trkpt>
      <trkpt lat="45.98802" lon="4.71489">
        <ele>184</ele>
        <time>2017-04-24T08:28:42Z</time>
      </trkpt>
      <trkpt lat="45.98807" lon="4.71489">
        <ele>184</ele>
        <time>2017-04-24T08:28:43Z</time>
      </trkpt>
      <trkpt lat="45.98811" lon="4.71488">
        <ele>184</ele>
        <time>2017-04-24T08:28:44Z</time>
      </trkpt>
      <trkpt lat="45.98816" lon="4.71489">
        <ele>184</ele>
        <time>2017-04-24T08:28:45Z</time>
      </trkpt>
      <trkpt lat="45.98821" lon="4.71488">
        <ele>184</ele>
        <time>2017-04-24T08:28:46Z</time>
      </trkpt>
      <trkpt lat="45.98826" lon="4.71489">
        <ele>184</ele>
        <time>2017-04-24T08:28:47Z</time>
      </trkpt>
      <trkpt lat="45.98832" lon="4.71489">
        <ele>184</ele>
        <time>2017-04-24T08:28:48Z</time>
      </trkpt>
      <trkpt lat="45.98841" lon="4.71489">
        <ele>184</ele>
        <time>2017-04-24T08:28:49Z</time>
      </trkpt>
      <trkpt lat="45.98847" lon="4.71488">
        <ele>184</ele>
        <time>2017-04-24T08:28:50Z</time>
      </trkpt>
      <trkpt lat="45.98853" lon="4.71488">
        <ele>184</ele>
        <time>2017-04-24T08:28:51Z</time>
      </trkpt>
      <trkpt lat="45.98859" lon="4.71486">
        <ele>184</ele>
        <time>2017-04-24T08:28:52Z</time>
      </trkpt>
      <trkpt lat="45.98864" lon="4.71485">
        <ele>184</ele>
        <time>2017-04-24T08:28:53Z</time>
      </trkpt>
      <trkpt lat="45.98869" lon="4.71484">
        <ele>184</ele>
        <time>2017-04-24T08:28:54Z</time>
      </trkpt>
      <trkpt lat="45.98877" lon="4.71493">
        <ele>184</ele>
        <time>2017-04-24T08:28:55Z</time>
      </trkpt>
      <trkpt lat="45.98884" lon="4.71498">
        <ele>184</ele>
        <time>2017-04-24T08:28:56Z</time>
      </trkpt>
      <trkpt lat="45.9889" lon="4.71499">
        <ele>184</ele>
        <time>2017-04-24T08:28:57Z</time>
      </trkpt>
      <trkpt lat="45.98895" lon="4.715">
        <ele>184</ele>
        <time>2017-04-24T08:28:58Z</time>
      </trkpt>
      <trkpt lat="45.98901" lon="4.715">
        <ele>185</ele>
        <time>2017-04-24T08:28:59Z</time>
      </trkpt>
      <trkpt lat="45.98906" lon="4.71501">
        <ele>185</ele>
        <time>2017-04-24T08:29:00Z</time>
      </trkpt>
      <trkpt lat="45.98911" lon="4.71501">
        <ele>185</ele>
        <time>2017-04-24T08:29:01Z</time>
      </trkpt>
      <trkpt lat="45.98918" lon="4.715">
        <ele>185</ele>
        <time>2017-04-24T08:29:03Z</time>
      </trkpt>
      <trkpt lat="45.98921" lon="4.715">
        <ele>185</ele>
        <time>2017-04-24T08:29:04Z</time>
      </trkpt>
      <trkpt lat="45.98926" lon="4.71501">
        <ele>185</ele>
        <time>2017-04-24T08:29:05Z</time>
      </trkpt>
      <trkpt lat="45.98933" lon="4.71505">
        <ele>186</ele>
        <time>2017-04-24T08:29:06Z</time>
      </trkpt>
      <trkpt lat="45.9894" lon="4.71509">
        <ele>186</ele>
        <time>2017-04-24T08:29:08Z</time>
      </trkpt>
      <trkpt lat="45.98942" lon="4.7151">
        <ele>186</ele>
        <time>2017-04-24T08:29:09Z</time>
      </trkpt>
      <trkpt lat="45.98949" lon="4.71509">
        <ele>186</ele>
        <time>2017-04-24T08:29:13Z</time>
      </trkpt>
      <trkpt lat="45.9895" lon="4.71509">
        <ele>186</ele>
        <time>2017-04-24T08:29:14Z</time>
      </trkpt>
      <trkpt lat="45.98951" lon="4.71509">
        <ele>186</ele>
        <time>2017-04-24T08:29:15Z</time>
      </trkpt>
      <trkpt lat="45.98952" lon="4.71508">
        <ele>186</ele>
        <time>2017-04-24T08:29:16Z</time>
      </trkpt>
      <trkpt lat="45.98957" lon="4.71498">
        <ele>186</ele>
        <time>2017-04-24T08:29:20Z</time>
      </trkpt>
      <trkpt lat="45.98958" lon="4.71496">
        <ele>186</ele>
        <time>2017-04-24T08:29:21Z</time>
      </trkpt>
      <trkpt lat="45.98963" lon="4.71485">
        <ele>186</ele>
        <time>2017-04-24T08:29:25Z</time>
      </trkpt>
      <trkpt lat="45.98962" lon="4.71483">
        <ele>186</ele>
        <time>2017-04-24T08:29:26Z</time>
      </trkpt>
      <trkpt lat="45.98962" lon="4.71473">
        <ele>186</ele>
        <time>2017-04-24T08:29:30Z</time>
      </trkpt>
      <trkpt lat="45.98962" lon="4.71469">
        <ele>186</ele>
        <time>2017-04-24T08:29:31Z</time>
      </trkpt>
      <trkpt lat="45.9896" lon="4.71458">
        <ele>186</ele>
        <time>2017-04-24T08:29:34Z</time>
      </trkpt>
      <trkpt lat="45.98958" lon="4.71455">
        <ele>186</ele>
        <time>2017-04-24T08:29:35Z</time>
      </trkpt>
      <trkpt lat="45.98954" lon="4.71448">
        <ele>186</ele>
        <time>2017-04-24T08:29:37Z</time>
      </trkpt>
      <trkpt lat="45.98953" lon="4.71444">
        <ele>186</ele>
        <time>2017-04-24T08:29:38Z</time>
      </trkpt>
      <trkpt lat="45.98951" lon="4.71432">
        <ele>186</ele>
        <time>2017-04-24T08:29:41Z</time>
      </trkpt>
      <trkpt lat="45.98951" lon="4.71427">
        <ele>186</ele>
        <time>2017-04-24T08:29:42Z</time>
      </trkpt>
      <trkpt lat="45.98951" lon="4.71415">
        <ele>186</ele>
        <time>2017-04-24T08:29:44Z</time>
      </trkpt>
      <trkpt lat="45.98951" lon="4.71409">
        <ele>186</ele>
        <time>2017-04-24T08:29:45Z</time>
      </trkpt>
      <trkpt lat="45.98949" lon="4.71398">
        <ele>185</ele>
        <time>2017-04-24T08:29:47Z</time>
      </trkpt>
      <trkpt lat="45.98948" lon="4.71391">
        <ele>185</ele>
        <time>2017-04-24T08:29:48Z</time>
      </trkpt>
      <trkpt lat="45.98948" lon="4.71382">
        <ele>185</ele>
        <time>2017-04-24T08:29:50Z</time>
      </trkpt>
      <trkpt lat="45.98944" lon="4.71378">
        <ele>185</ele>
        <time>2017-04-24T08:29:51Z</time>
      </trkpt>
      <trkpt lat="45.9894" lon="4.71369">
        <ele>185</ele>
        <time>2017-04-24T08:29:54Z</time>
      </trkpt>
      <trkpt lat="45.9894" lon="4.71366">
        <ele>185</ele>
        <time>2017-04-24T08:29:55Z</time>
      </trkpt>
      <trkpt lat="45.98939" lon="4.71354">
        <ele>185</ele>
        <time>2017-04-24T08:29:57Z</time>
      </trkpt>
      <trkpt lat="45.98939" lon="4.71348">
        <ele>185</ele>
        <time>2017-04-24T08:29:58Z</time>
      </trkpt>
      <trkpt lat="45.98938" lon="4.71335">
        <ele>185</ele>
        <time>2017-04-24T08:30:00Z</time>
      </trkpt>
      <trkpt lat="45.98938" lon="4.71329">
        <ele>185</ele>
        <time>2017-04-24T08:30:01Z</time>
      </trkpt>
      <trkpt lat="45.98938" lon="4.71319">
        <ele>185</ele>
        <time>2017-04-24T08:30:03Z</time>
      </trkpt>
      <trkpt lat="45.98938" lon="4.71314">
        <ele>185</ele>
        <time>2017-04-24T08:30:04Z</time>
      </trkpt>
      <trkpt lat="45.98938" lon="4.71304">
        <ele>185</ele>
        <time>2017-04-24T08:30:06Z</time>
      </trkpt>
      <trkpt lat="45.98938" lon="4.713">
        <ele>185</ele>
        <time>2017-04-24T08:30:07Z</time>
      </trkpt>
      <trkpt lat="45.98938" lon="4.71289">
        <ele>185</ele>
        <time>2017-04-24T08:30:10Z</time>
      </trkpt>
      <trkpt lat="45.98938" lon="4.71286">
        <ele>185</ele>
        <time>2017-04-24T08:30:11Z</time>
      </trkpt>
      <trkpt lat="45.98938" lon="4.71274">
        <ele>186</ele>
        <time>2017-04-24T08:30:14Z</time>
      </trkpt>
      <trkpt lat="45.98938" lon="4.71268">
        <ele>186</ele>
        <time>2017-04-24T08:30:15Z</time>
      </trkpt>
      <trkpt lat="45.98937" lon="4.71256">
        <ele>185</ele>
        <time>2017-04-24T08:30:17Z</time>
      </trkpt>
      <trkpt lat="45.98936" lon="4.71251">
        <ele>185</ele>
        <time>2017-04-24T08:30:18Z</time>
      </trkpt>
      <trkpt lat="45.98934" lon="4.7124">
        <ele>186</ele>
        <time>2017-04-24T08:30:20Z</time>
      </trkpt>
      <trkpt lat="45.98932" lon="4.71236">
        <ele>186</ele>
        <time>2017-04-24T08:30:21Z</time>
      </trkpt>
      <trkpt lat="45.98931" lon="4.71227">
        <ele>186</ele>
        <time>2017-04-24T08:30:23Z</time>
      </trkpt>
      <trkpt lat="45.98932" lon="4.71221">
        <ele>186</ele>
        <time>2017-04-24T08:30:24Z</time>
      </trkpt>
      <trkpt lat="45.98932" lon="4.71208">
        <ele>186</ele>
        <time>2017-04-24T08:30:26Z</time>
      </trkpt>
      <trkpt lat="45.98932" lon="4.71201">
        <ele>186</ele>
        <time>2017-04-24T08:30:27Z</time>
      </trkpt>
      <trkpt lat="45.98931" lon="4.71194">
        <ele>186</ele>
        <time>2017-04-24T08:30:28Z</time>
      </trkpt>
      <trkpt lat="45.98932" lon="4.71187">
        <ele>186</ele>
        <time>2017-04-24T08:30:29Z</time>
      </trkpt>
      <trkpt lat="45.98931" lon="4.7118">
        <ele>186</ele>
        <time>2017-04-24T08:30:30Z</time>
      </trkpt>
      <trkpt lat="45.98931" lon="4.71171">
        <ele>186</ele>
        <time>2017-04-24T08:30:31Z</time>
      </trkpt>
      <trkpt lat="45.98929" lon="4.71164">
        <ele>186</ele>
        <time>2017-04-24T08:30:32Z</time>
      </trkpt>
      <trkpt lat="45.98928" lon="4.71157">
        <ele>186</ele>
        <time>2017-04-24T08:30:33Z</time>
      </trkpt>
      <trkpt lat="45.98926" lon="4.7115">
        <ele>186</ele>
        <time>2017-04-24T08:30:34Z</time>
      </trkpt>
      <trkpt lat="45.98926" lon="4.71143">
        <ele>186</ele>
        <time>2017-04-24T08:30:35Z</time>
      </trkpt>
      <trkpt lat="45.98925" lon="4.71137">
        <ele>186</ele>
        <time>2017-04-24T08:30:36Z</time>
      </trkpt>
      <trkpt lat="45.98923" lon="4.7113">
        <ele>186</ele>
        <time>2017-04-24T08:30:37Z</time>
      </trkpt>
      <trkpt lat="45.98923" lon="4.71122">
        <ele>186</ele>
        <time>2017-04-24T08:30:38Z</time>
      </trkpt>
      <trkpt lat="45.98923" lon="4.71114">
        <ele>186</ele>
        <time>2017-04-24T08:30:39Z</time>
      </trkpt>
      <trkpt lat="45.98925" lon="4.71103">
        <ele>186</ele>
        <time>2017-04-24T08:30:40Z</time>
      </trkpt>
      <trkpt lat="45.98925" lon="4.71094">
        <ele>186</ele>
        <time>2017-04-24T08:30:41Z</time>
      </trkpt>
      <trkpt lat="45.98925" lon="4.71083">
        <ele>185</ele>
        <time>2017-04-24T08:30:42Z</time>
      </trkpt>
      <trkpt lat="45.98925" lon="4.71072">
        <ele>186</ele>
        <time>2017-04-24T08:30:43Z</time>
      </trkpt>
      <trkpt lat="45.98926" lon="4.71063">
        <ele>186</ele>
        <time>2017-04-24T08:30:44Z</time>
      </trkpt>
      <trkpt lat="45.98925" lon="4.71054">
        <ele>186</ele>
        <time>2017-04-24T08:30:45Z</time>
      </trkpt>
      <trkpt lat="45.98925" lon="4.71045">
        <ele>186</ele>
        <time>2017-04-24T08:30:46Z</time>
      </trkpt>
      <trkpt lat="45.98925" lon="4.71036">
        <ele>186</ele>
        <time>2017-04-24T08:30:47Z</time>
      </trkpt>
      <trkpt lat="45.98924" lon="4.71029">
        <ele>185</ele>
        <time>2017-04-24T08:30:48Z</time>
      </trkpt>
      <trkpt lat="45.98923" lon="4.71022">
        <ele>185</ele>
        <time>2017-04-24T08:30:49Z</time>
      </trkpt>
      <trkpt lat="45.98925" lon="4.71015">
        <ele>185</ele>
        <time>2017-04-24T08:30:50Z</time>
      </trkpt>
      <trkpt lat="45.98925" lon="4.71009">
        <ele>185</ele>
        <time>2017-04-24T08:30:51Z</time>
      </trkpt>
      <trkpt lat="45.98926" lon="4.71002">
        <ele>185</ele>
        <time>2017-04-24T08:30:52Z</time>
      </trkpt>
      <trkpt lat="45.98925" lon="4.70995">
        <ele>185</ele>
        <time>2017-04-24T08:30:53Z</time>
      </trkpt>
      <trkpt lat="45.98926" lon="4.70982">
        <ele>185</ele>
        <time>2017-04-24T08:30:55Z</time>
      </trkpt>
      <trkpt lat="45.98926" lon="4.70975">
        <ele>185</ele>
        <time>2017-04-24T08:30:56Z</time>
      </trkpt>
      <trkpt lat="45.98926" lon="4.70969">
        <ele>185</ele>
        <time>2017-04-24T08:30:57Z</time>
      </trkpt>
      <trkpt lat="45.98927" lon="4.70962">
        <ele>185</ele>
        <time>2017-04-24T08:30:58Z</time>
      </trkpt>
      <trkpt lat="45.98927" lon="4.70955">
        <ele>185</ele>
        <time>2017-04-24T08:30:59Z</time>
      </trkpt>
      <trkpt lat="45.98926" lon="4.70949">
        <ele>185</ele>
        <time>2017-04-24T08:31:00Z</time>
      </trkpt>
      <trkpt lat="45.98927" lon="4.70939">
        <ele>185</ele>
        <time>2017-04-24T08:31:01Z</time>
      </trkpt>
      <trkpt lat="45.98925" lon="4.70933">
        <ele>185</ele>
        <time>2017-04-24T08:31:02Z</time>
      </trkpt>
      <trkpt lat="45.98924" lon="4.70922">
        <ele>185</ele>
        <time>2017-04-24T08:31:04Z</time>
      </trkpt>
      <trkpt lat="45.98923" lon="4.70915">
        <ele>185</ele>
        <time>2017-04-24T08:31:05Z</time>
      </trkpt>
      <trkpt lat="45.98921" lon="4.70905">
        <ele>186</ele>
        <time>2017-04-24T08:31:06Z</time>
      </trkpt>
      <trkpt lat="45.9892" lon="4.70898">
        <ele>186</ele>
        <time>2017-04-24T08:31:07Z</time>
      </trkpt>
      <trkpt lat="45.98919" lon="4.70886">
        <ele>186</ele>
        <time>2017-04-24T08:31:09Z</time>
      </trkpt>
      <trkpt lat="45.98919" lon="4.70882">
        <ele>186</ele>
        <time>2017-04-24T08:31:10Z</time>
      </trkpt>
      <trkpt lat="45.9892" lon="4.70879">
        <ele>186</ele>
        <time>2017-04-24T08:31:11Z</time>
      </trkpt>
      <trkpt lat="45.98919" lon="4.70879">
        <ele>186</ele>
        <time>2017-04-24T08:31:12Z</time>
      </trkpt>
      <trkpt lat="45.98916" lon="4.70878">
        <ele>186</ele>
        <time>2017-04-24T08:32:01Z</time>
      </trkpt>
      <trkpt lat="45.98912" lon="4.70874">
        <ele>186</ele>
        <time>2017-04-24T08:32:02Z</time>
      </trkpt>
      <trkpt lat="45.98907" lon="4.70863">
        <ele>186</ele>
        <time>2017-04-24T08:32:05Z</time>
      </trkpt>
      <trkpt lat="45.98907" lon="4.70858">
        <ele>186</ele>
        <time>2017-04-24T08:32:06Z</time>
      </trkpt>
      <trkpt lat="45.98906" lon="4.70849">
        <ele>186</ele>
        <time>2017-04-24T08:32:08Z</time>
      </trkpt>
      <trkpt lat="45.98908" lon="4.70845">
        <ele>187</ele>
        <time>2017-04-24T08:32:09Z</time>
      </trkpt>
      <trkpt lat="45.98913" lon="4.70836">
        <ele>187</ele>
        <time>2017-04-24T08:32:11Z</time>
      </trkpt>
      <trkpt lat="45.98915" lon="4.70831">
        <ele>187</ele>
        <time>2017-04-24T08:32:12Z</time>
      </trkpt>
      <trkpt lat="45.9892" lon="4.70821">
        <ele>188</ele>
        <time>2017-04-24T08:32:14Z</time>
      </trkpt>
      <trkpt lat="45.98924" lon="4.70815">
        <ele>188</ele>
        <time>2017-04-24T08:32:15Z</time>
      </trkpt>
      <trkpt lat="45.98927" lon="4.70809">
        <ele>188</ele>
        <time>2017-04-24T08:32:16Z</time>
      </trkpt>
      <trkpt lat="45.9893" lon="4.70803">
        <ele>188</ele>
        <time>2017-04-24T08:32:17Z</time>
      </trkpt>
      <trkpt lat="45.98933" lon="4.70797">
        <ele>189</ele>
        <time>2017-04-24T08:32:18Z</time>
      </trkpt>
      <trkpt lat="45.98936" lon="4.70791">
        <ele>189</ele>
        <time>2017-04-24T08:32:19Z</time>
      </trkpt>
      <trkpt lat="45.98939" lon="4.70786">
        <ele>189</ele>
        <time>2017-04-24T08:32:20Z</time>
      </trkpt>
      <trkpt lat="45.98942" lon="4.70781">
        <ele>189</ele>
        <time>2017-04-24T08:32:21Z</time>
      </trkpt>
      <trkpt lat="45.98945" lon="4.70775">
        <ele>189</ele>
        <time>2017-04-24T08:32:22Z</time>
      </trkpt>
      <trkpt lat="45.98948" lon="4.70769">
        <ele>189</ele>
        <time>2017-04-24T08:32:23Z</time>
      </trkpt>
      <trkpt lat="45.98951" lon="4.70763">
        <ele>189</ele>
        <time>2017-04-24T08:32:24Z</time>
      </trkpt>
      <trkpt lat="45.98955" lon="4.70757">
        <ele>189</ele>
        <time>2017-04-24T08:32:25Z</time>
      </trkpt>
      <trkpt lat="45.98958" lon="4.70752">
        <ele>189</ele>
        <time>2017-04-24T08:32:26Z</time>
      </trkpt>
      <trkpt lat="45.98961" lon="4.70747">
        <ele>190</ele>
        <time>2017-04-24T08:32:27Z</time>
      </trkpt>
      <trkpt lat="45.98965" lon="4.70743">
        <ele>190</ele>
        <time>2017-04-24T08:32:28Z</time>
      </trkpt>
      <trkpt lat="45.98969" lon="4.7074">
        <ele>190</ele>
        <time>2017-04-24T08:32:29Z</time>
      </trkpt>
      <trkpt lat="45.98972" lon="4.70735">
        <ele>191</ele>
        <time>2017-04-24T08:32:30Z</time>
      </trkpt>
      <trkpt lat="45.98976" lon="4.70731">
        <ele>191</ele>
        <time>2017-04-24T08:32:31Z</time>
      </trkpt>
      <trkpt lat="45.98979" lon="4.70727">
        <ele>191</ele>
        <time>2017-04-24T08:32:32Z</time>
      </trkpt>
      <trkpt lat="45.98983" lon="4.70723">
        <ele>191</ele>
        <time>2017-04-24T08:32:33Z</time>
      </trkpt>
      <trkpt lat="45.98989" lon="4.7072">
        <ele>191</ele>
        <time>2017-04-24T08:32:35Z</time>
      </trkpt>
      <trkpt lat="45.98992" lon="4.70719">
        <ele>191</ele>
        <time>2017-04-24T08:32:36Z</time>
      </trkpt>
      <trkpt lat="45.99" lon="4.70715">
        <ele>191</ele>
        <time>2017-04-24T08:32:39Z</time>
      </trkpt>
      <trkpt lat="45.99002" lon="4.70713">
        <ele>192</ele>
        <time>2017-04-24T08:32:40Z</time>
      </trkpt>
      <trkpt lat="45.99007" lon="4.70703">
        <ele>192</ele>
        <time>2017-04-24T08:32:43Z</time>
      </trkpt>
      <trkpt lat="45.99007" lon="4.70699">
        <ele>192</ele>
        <time>2017-04-24T08:32:44Z</time>
      </trkpt>
      <trkpt lat="45.99009" lon="4.7069">
        <ele>192</ele>
        <time>2017-04-24T08:32:46Z</time>
      </trkpt>
      <trkpt lat="45.99009" lon="4.70685">
        <ele>192</ele>
        <time>2017-04-24T08:32:47Z</time>
      </trkpt>
      <trkpt lat="45.9901" lon="4.70676">
        <ele>192</ele>
        <time>2017-04-24T08:32:49Z</time>
      </trkpt>
      <trkpt lat="45.99012" lon="4.70672">
        <ele>192</ele>
        <time>2017-04-24T08:32:50Z</time>
      </trkpt>
      <trkpt lat="45.99015" lon="4.70664">
        <ele>193</ele>
        <time>2017-04-24T08:32:52Z</time>
      </trkpt>
      <trkpt lat="45.99017" lon="4.7066">
        <ele>194</ele>
        <time>2017-04-24T08:32:53Z</time>
      </trkpt>
      <trkpt lat="45.9902" lon="4.70652">
        <ele>194</ele>
        <time>2017-04-24T08:32:55Z</time>
      </trkpt>
      <trkpt lat="45.99022" lon="4.70648">
        <ele>194</ele>
        <time>2017-04-24T08:32:56Z</time>
      </trkpt>
      <trkpt lat="45.99025" lon="4.70638">
        <ele>194</ele>
        <time>2017-04-24T08:32:59Z</time>
      </trkpt>
      <trkpt lat="45.99026" lon="4.70635">
        <ele>195</ele>
        <time>2017-04-24T08:33:00Z</time>
      </trkpt>
      <trkpt lat="45.99031" lon="4.70627">
        <ele>195</ele>
        <time>2017-04-24T08:33:03Z</time>
      </trkpt>
      <trkpt lat="45.99033" lon="4.70624">
        <ele>195</ele>
        <time>2017-04-24T08:33:04Z</time>
      </trkpt>
      <trkpt lat="45.99038" lon="4.70614">
        <ele>195</ele>
        <time>2017-04-24T08:33:08Z</time>
      </trkpt>
      <trkpt lat="45.9904" lon="4.70611">
        <ele>195</ele>
        <time>2017-04-24T08:33:09Z</time>
      </trkpt>
      <trkpt lat="45.99045" lon="4.706">
        <ele>195</ele>
        <time>2017-04-24T08:33:13Z</time>
      </trkpt>
      <trkpt lat="45.99047" lon="4.70597">
        <ele>196</ele>
        <time>2017-04-24T08:33:14Z</time>
      </trkpt>
      <trkpt lat="45.99051" lon="4.70589">
        <ele>196</ele>
        <time>2017-04-24T08:33:17Z</time>
      </trkpt>
      <trkpt lat="45.99053" lon="4.70586">
        <ele>196</ele>
        <time>2017-04-24T08:33:18Z</time>
      </trkpt>
      <trkpt lat="45.99058" lon="4.70577">
        <ele>198</ele>
        <time>2017-04-24T08:33:21Z</time>
      </trkpt>
      <trkpt lat="45.99059" lon="4.70574">
        <ele>198</ele>
        <time>2017-04-24T08:33:22Z</time>
      </trkpt>
      <trkpt lat="45.99064" lon="4.70568">
        <ele>198</ele>
        <time>2017-04-24T08:33:24Z</time>
      </trkpt>
      <trkpt lat="45.99065" lon="4.70565">
        <ele>198</ele>
        <time>2017-04-24T08:33:25Z</time>
      </trkpt>
      <trkpt lat="45.99071" lon="4.70557">
        <ele>198</ele>
        <time>2017-04-24T08:33:28Z</time>
      </trkpt>
      <trkpt lat="45.99073" lon="4.70554">
        <ele>199</ele>
        <time>2017-04-24T08:33:29Z</time>
      </trkpt>
      <trkpt lat="45.99077" lon="4.70545">
        <ele>199</ele>
        <time>2017-04-24T08:33:32Z</time>
      </trkpt>
      <trkpt lat="45.99079" lon="4.70543">
        <ele>199</ele>
        <time>2017-04-24T08:33:33Z</time>
      </trkpt>
      <trkpt lat="45.99083" lon="4.70534">
        <ele>199</ele>
        <time>2017-04-24T08:33:36Z</time>
      </trkpt>
      <trkpt lat="45.99084" lon="4.70531">
        <ele>200</ele>
        <time>2017-04-24T08:33:37Z</time>
      </trkpt>
      <trkpt lat="45.99089" lon="4.70521">
        <ele>200</ele>
        <time>2017-04-24T08:33:40Z</time>
      </trkpt>
      <trkpt lat="45.9909" lon="4.70517">
        <ele>200</ele>
        <time>2017-04-24T08:33:41Z</time>
      </trkpt>
      <trkpt lat="45.99093" lon="4.7051">
        <ele>201</ele>
        <time>2017-04-24T08:33:43Z</time>
      </trkpt>
      <trkpt lat="45.99094" lon="4.70506">
        <ele>201</ele>
        <time>2017-04-24T08:33:44Z</time>
      </trkpt>
      <trkpt lat="45.99098" lon="4.70497">
        <ele>202</ele>
        <time>2017-04-24T08:33:47Z</time>
      </trkpt>
      <trkpt lat="45.99099" lon="4.70494">
        <ele>202</ele>
        <time>2017-04-24T08:33:48Z</time>
      </trkpt>
      <trkpt lat="45.99103" lon="4.70485">
        <ele>203</ele>
        <time>2017-04-24T08:33:50Z</time>
      </trkpt>
      <trkpt lat="45.99105" lon="4.70481">
        <ele>203</ele>
        <time>2017-04-24T08:33:51Z</time>
      </trkpt>
      <trkpt lat="45.99108" lon="4.7047">
        <ele>203</ele>
        <time>2017-04-24T08:33:54Z</time>
      </trkpt>
      <trkpt lat="45.99109" lon="4.70466">
        <ele>203</ele>
        <time>2017-04-24T08:33:55Z</time>
      </trkpt>
      <trkpt lat="45.9911" lon="4.70456">
        <ele>204</ele>
        <time>2017-04-24T08:33:58Z</time>
      </trkpt>
      <trkpt lat="45.99111" lon="4.70453">
        <ele>204</ele>
        <time>2017-04-24T08:33:59Z</time>
      </trkpt>
      <trkpt lat="45.99111" lon="4.70443">
        <ele>204</ele>
        <time>2017-04-24T08:34:02Z</time>
      </trkpt>
      <trkpt lat="45.99111" lon="4.7044">
        <ele>204</ele>
        <time>2017-04-24T08:34:03Z</time>
      </trkpt>
      <trkpt lat="45.99111" lon="4.7043">
        <ele>204</ele>
        <time>2017-04-24T08:34:06Z</time>
      </trkpt>
      <trkpt lat="45.99112" lon="4.70426">
        <ele>204</ele>
        <time>2017-04-24T08:34:07Z</time>
      </trkpt>
      <trkpt lat="45.99113" lon="4.70416">
        <ele>207</ele>
        <time>2017-04-24T08:34:10Z</time>
      </trkpt>
      <trkpt lat="45.99114" lon="4.70412">
        <ele>207</ele>
        <time>2017-04-24T08:34:11Z</time>
      </trkpt>
      <trkpt lat="45.99115" lon="4.70402">
        <ele>207</ele>
        <time>2017-04-24T08:34:14Z</time>
      </trkpt>
      <trkpt lat="45.99116" lon="4.70399">
        <ele>207</ele>
        <time>2017-04-24T08:34:15Z</time>
      </trkpt>
      <trkpt lat="45.99117" lon="4.70389">
        <ele>207</ele>
        <time>2017-04-24T08:34:18Z</time>
      </trkpt>
      <trkpt lat="45.99118" lon="4.70386">
        <ele>207</ele>
        <time>2017-04-24T08:34:19Z</time>
      </trkpt>
      <trkpt lat="45.9912" lon="4.70377">
        <ele>208</ele>
        <time>2017-04-24T08:34:21Z</time>
      </trkpt>
      <trkpt lat="45.99122" lon="4.70373">
        <ele>208</ele>
        <time>2017-04-24T08:34:22Z</time>
      </trkpt>
      <trkpt lat="45.99125" lon="4.70361">
        <ele>208</ele>
        <time>2017-04-24T08:34:25Z</time>
      </trkpt>
      <trkpt lat="45.99126" lon="4.70356">
        <ele>208</ele>
        <time>2017-04-24T08:34:26Z</time>
      </trkpt>
      <trkpt lat="45.99127" lon="4.70345">
        <ele>208</ele>
        <time>2017-04-24T08:34:29Z</time>
      </trkpt>
      <trkpt lat="45.99127" lon="4.70342">
        <ele>208</ele>
        <time>2017-04-24T08:34:30Z</time>
      </trkpt>
      <trkpt lat="45.99128" lon="4.7033">
        <ele>211</ele>
        <time>2017-04-24T08:34:34Z</time>
      </trkpt>
      <trkpt lat="45.99128" lon="4.70327">
        <ele>211</ele>
        <time>2017-04-24T08:34:35Z</time>
      </trkpt>
      <trkpt lat="45.99128" lon="4.70316">
        <ele>211</ele>
        <time>2017-04-24T08:34:38Z</time>
      </trkpt>
      <trkpt lat="45.99127" lon="4.70313">
        <ele>211</ele>
        <time>2017-04-24T08:34:39Z</time>
      </trkpt>
      <trkpt lat="45.99127" lon="4.70303">
        <ele>211</ele>
        <time>2017-04-24T08:34:41Z</time>
      </trkpt>
      <trkpt lat="45.99126" lon="4.70299">
        <ele>211</ele>
        <time>2017-04-24T08:34:42Z</time>
      </trkpt>
      <trkpt lat="45.99126" lon="4.70286">
        <ele>211</ele>
        <time>2017-04-24T08:34:46Z</time>
      </trkpt>
      <trkpt lat="45.99127" lon="4.70282">
        <ele>211</ele>
        <time>2017-04-24T08:34:47Z</time>
      </trkpt>
      <trkpt lat="45.99127" lon="4.70271">
        <ele>211</ele>
        <time>2017-04-24T08:34:51Z</time>
      </trkpt>
      <trkpt lat="45.99127" lon="4.70268">
        <ele>211</ele>
        <time>2017-04-24T08:34:52Z</time>
      </trkpt>
      <trkpt lat="45.99128" lon="4.70258">
        <ele>212</ele>
        <time>2017-04-24T08:34:55Z</time>
      </trkpt>
      <trkpt lat="45.99129" lon="4.70254">
        <ele>212</ele>
        <time>2017-04-24T08:34:56Z</time>
      </trkpt>
      <trkpt lat="45.99132" lon="4.70246">
        <ele>214</ele>
        <time>2017-04-24T08:34:58Z</time>
      </trkpt>
      <trkpt lat="45.99133" lon="4.70242">
        <ele>214</ele>
        <time>2017-04-24T08:34:59Z</time>
      </trkpt>
      <trkpt lat="45.99135" lon="4.70232">
        <ele>214</ele>
        <time>2017-04-24T08:35:02Z</time>
      </trkpt>
      <trkpt lat="45.99135" lon="4.70229">
        <ele>214</ele>
        <time>2017-04-24T08:35:03Z</time>
      </trkpt>
      <trkpt lat="45.99137" lon="4.70219">
        <ele>214</ele>
        <time>2017-04-24T08:35:07Z</time>
      </trkpt>
      <trkpt lat="45.99138" lon="4.70217">
        <ele>214</ele>
        <time>2017-04-24T08:35:08Z</time>
      </trkpt>
      <trkpt lat="45.99141" lon="4.70205">
        <ele>215</ele>
        <time>2017-04-24T08:35:11Z</time>
      </trkpt>
      <trkpt lat="45.99142" lon="4.70201">
        <ele>215</ele>
        <time>2017-04-24T08:35:12Z</time>
      </trkpt>
      <trkpt lat="45.99144" lon="4.7019">
        <ele>215</ele>
        <time>2017-04-24T08:35:15Z</time>
      </trkpt>
      <trkpt lat="45.99144" lon="4.70186">
        <ele>215</ele>
        <time>2017-04-24T08:35:16Z</time>
      </trkpt>
      <trkpt lat="45.99142" lon="4.70177">
        <ele>215</ele>
        <time>2017-04-24T08:35:19Z</time>
      </trkpt>
      <trkpt lat="45.99143" lon="4.70172">
        <ele>216</ele>
        <time>2017-04-24T08:35:20Z</time>
      </trkpt>
      <trkpt lat="45.99144" lon="4.7016">
        <ele>217</ele>
        <time>2017-04-24T08:35:24Z</time>
      </trkpt>
      <trkpt lat="45.99145" lon="4.70158">
        <ele>217</ele>
        <time>2017-04-24T08:35:25Z</time>
      </trkpt>
      <trkpt lat="45.99145" lon="4.70145">
        <ele>217</ele>
        <time>2017-04-24T08:35:29Z</time>
      </trkpt>
      <trkpt lat="45.99145" lon="4.70143">
        <ele>217</ele>
        <time>2017-04-24T08:35:30Z</time>
      </trkpt>
      <trkpt lat="45.99146" lon="4.70134">
        <ele>217</ele>
        <time>2017-04-24T08:35:33Z</time>
      </trkpt>
      <trkpt lat="45.99147" lon="4.7013">
        <ele>217</ele>
        <time>2017-04-24T08:35:34Z</time>
      </trkpt>
      <trkpt lat="45.99147" lon="4.70121">
        <ele>217</ele>
        <time>2017-04-24T08:35:36Z</time>
      </trkpt>
      <trkpt lat="45.99148" lon="4.70117">
        <ele>217</ele>
        <time>2017-04-24T08:35:37Z</time>
      </trkpt>
      <trkpt lat="45.9915" lon="4.70106">
        <ele>217</ele>
        <time>2017-04-24T08:35:40Z</time>
      </trkpt>
      <trkpt lat="45.99151" lon="4.70102">
        <ele>217</ele>
        <time>2017-04-24T08:35:41Z</time>
      </trkpt>
      <trkpt lat="45.99153" lon="4.70092">
        <ele>217</ele>
        <time>2017-04-24T08:35:44Z</time>
      </trkpt>
      <trkpt lat="45.99152" lon="4.70089">
        <ele>217</ele>
        <time>2017-04-24T08:35:45Z</time>
      </trkpt>
      <trkpt lat="45.99152" lon="4.70076">
        <ele>218</ele>
        <time>2017-04-24T08:35:49Z</time>
      </trkpt>
      <trkpt lat="45.99153" lon="4.70073">
        <ele>218</ele>
        <time>2017-04-24T08:35:50Z</time>
      </trkpt>
      <trkpt lat="45.99156" lon="4.70063">
        <ele>218</ele>
        <time>2017-04-24T08:35:53Z</time>
      </trkpt>
      <trkpt lat="45.99157" lon="4.7006">
        <ele>218</ele>
        <time>2017-04-24T08:35:54Z</time>
      </trkpt>
      <trkpt lat="45.99159" lon="4.70048">
        <ele>218</ele>
        <time>2017-04-24T08:35:58Z</time>
      </trkpt>
      <trkpt lat="45.99159" lon="4.70046">
        <ele>218</ele>
        <time>2017-04-24T08:35:59Z</time>
      </trkpt>
      <trkpt lat="45.99159" lon="4.70034">
        <ele>219</ele>
        <time>2017-04-24T08:36:02Z</time>
      </trkpt>
      <trkpt lat="45.99159" lon="4.7003">
        <ele>219</ele>
        <time>2017-04-24T08:36:03Z</time>
      </trkpt>
      <trkpt lat="45.99159" lon="4.70019">
        <ele>219</ele>
        <time>2017-04-24T08:36:06Z</time>
      </trkpt>
      <trkpt lat="45.99158" lon="4.70016">
        <ele>219</ele>
        <time>2017-04-24T08:36:07Z</time>
      </trkpt>
      <trkpt lat="45.99156" lon="4.70006">
        <ele>219</ele>
        <time>2017-04-24T08:36:10Z</time>
      </trkpt>
      <trkpt lat="45.99156" lon="4.70003">
        <ele>219</ele>
        <time>2017-04-24T08:36:11Z</time>
      </trkpt>
      <trkpt lat="45.99159" lon="4.69993">
        <ele>220</ele>
        <time>2017-04-24T08:36:14Z</time>
      </trkpt>
      <trkpt lat="45.9916" lon="4.6999">
        <ele>220</ele>
        <time>2017-04-24T08:36:15Z</time>
      </trkpt>
      <trkpt lat="45.99162" lon="4.69979">
        <ele>220</ele>
        <time>2017-04-24T08:36:18Z</time>
      </trkpt>
      <trkpt lat="45.99161" lon="4.69974">
        <ele>220</ele>
        <time>2017-04-24T08:36:19Z</time>
      </trkpt>
      <trkpt lat="45.99159" lon="4.69963">
        <ele>220</ele>
        <time>2017-04-24T08:36:22Z</time>
      </trkpt>
      <trkpt lat="45.99159" lon="4.69958">
        <ele>220</ele>
        <time>2017-04-24T08:36:23Z</time>
      </trkpt>
      <trkpt lat="45.9916" lon="4.69946">
        <ele>220</ele>
        <time>2017-04-24T08:36:26Z</time>
      </trkpt>
      <trkpt lat="45.9916" lon="4.69942">
        <ele>220</ele>
        <time>2017-04-24T08:36:27Z</time>
      </trkpt>
      <trkpt lat="45.99159" lon="4.69932">
        <ele>220</ele>
        <time>2017-04-24T08:36:30Z</time>
      </trkpt>
      <trkpt lat="45.99159" lon="4.69929">
        <ele>220</ele>
        <time>2017-04-24T08:36:31Z</time>
      </trkpt>
      <trkpt lat="45.99161" lon="4.69918">
        <ele>220</ele>
        <time>2017-04-24T08:36:34Z</time>
      </trkpt>
      <trkpt lat="45.99161" lon="4.69914">
        <ele>220</ele>
        <time>2017-04-24T08:36:35Z</time>
      </trkpt>
      <trkpt lat="45.99162" lon="4.69906">
        <ele>221</ele>
        <time>2017-04-24T08:36:37Z</time>
      </trkpt>
      <trkpt lat="45.99163" lon="4.69902">
        <ele>221</ele>
        <time>2017-04-24T08:36:38Z</time>
      </trkpt>
      <trkpt lat="45.99163" lon="4.69891">
        <ele>222</ele>
        <time>2017-04-24T08:36:41Z</time>
      </trkpt>
      <trkpt lat="45.99162" lon="4.69888">
        <ele>222</ele>
        <time>2017-04-24T08:36:42Z</time>
      </trkpt>
      <trkpt lat="45.99161" lon="4.69878">
        <ele>222</ele>
        <time>2017-04-24T08:36:45Z</time>
      </trkpt>
      <trkpt lat="45.99162" lon="4.69874">
        <ele>222</ele>
        <time>2017-04-24T08:36:46Z</time>
      </trkpt>
      <trkpt lat="45.99164" lon="4.69862">
        <ele>223</ele>
        <time>2017-04-24T08:36:49Z</time>
      </trkpt>
      <trkpt lat="45.99164" lon="4.69858">
        <ele>223</ele>
        <time>2017-04-24T08:36:50Z</time>
      </trkpt>
      <trkpt lat="45.99164" lon="4.69847">
        <ele>223</ele>
        <time>2017-04-24T08:36:53Z</time>
      </trkpt>
      <trkpt lat="45.99165" lon="4.69842">
        <ele>223</ele>
        <time>2017-04-24T08:36:54Z</time>
      </trkpt>
      <trkpt lat="45.99166" lon="4.6983">
        <ele>224</ele>
        <time>2017-04-24T08:36:57Z</time>
      </trkpt>
      <trkpt lat="45.99166" lon="4.69827">
        <ele>224</ele>
        <time>2017-04-24T08:36:58Z</time>
      </trkpt>
      <trkpt lat="45.99166" lon="4.69815">
        <ele>225</ele>
        <time>2017-04-24T08:37:01Z</time>
      </trkpt>
      <trkpt lat="45.99166" lon="4.69811">
        <ele>225</ele>
        <time>2017-04-24T08:37:02Z</time>
      </trkpt>
      <trkpt lat="45.99166" lon="4.69799">
        <ele>225</ele>
        <time>2017-04-24T08:37:05Z</time>
      </trkpt>
      <trkpt lat="45.99167" lon="4.69794">
        <ele>225</ele>
        <time>2017-04-24T08:37:06Z</time>
      </trkpt>
      <trkpt lat="45.99169" lon="4.69783">
        <ele>226</ele>
        <time>2017-04-24T08:37:09Z</time>
      </trkpt>
      <trkpt lat="45.9917" lon="4.69778">
        <ele>226</ele>
        <time>2017-04-24T08:37:10Z</time>
      </trkpt>
      <trkpt lat="45.9917" lon="4.69766">
        <ele>226</ele>
        <time>2017-04-24T08:37:13Z</time>
      </trkpt>
      <trkpt lat="45.9917" lon="4.69762">
        <ele>226</ele>
        <time>2017-04-24T08:37:14Z</time>
      </trkpt>
      <trkpt lat="45.9917" lon="4.69749">
        <ele>227</ele>
        <time>2017-04-24T08:37:17Z</time>
      </trkpt>
      <trkpt lat="45.99171" lon="4.69745">
        <ele>227</ele>
        <time>2017-04-24T08:37:18Z</time>
      </trkpt>
      <trkpt lat="45.99172" lon="4.69737">
        <ele>227</ele>
        <time>2017-04-24T08:37:20Z</time>
      </trkpt>
      <trkpt lat="45.99172" lon="4.69732">
        <ele>227</ele>
        <time>2017-04-24T08:37:21Z</time>
      </trkpt>
      <trkpt lat="45.99172" lon="4.69721">
        <ele>228</ele>
        <time>2017-04-24T08:37:24Z</time>
      </trkpt>
      <trkpt lat="45.99172" lon="4.69717">
        <ele>228</ele>
        <time>2017-04-24T08:37:25Z</time>
      </trkpt>
      <trkpt lat="45.99171" lon="4.69706">
        <ele>228</ele>
        <time>2017-04-24T08:37:28Z</time>
      </trkpt>
      <trkpt lat="45.99171" lon="4.69703">
        <ele>228</ele>
        <time>2017-04-24T08:37:29Z</time>
      </trkpt>
      <trkpt lat="45.9917" lon="4.69693">
        <ele>228</ele>
        <time>2017-04-24T08:37:32Z</time>
      </trkpt>
      <trkpt lat="45.9917" lon="4.69689">
        <ele>228</ele>
        <time>2017-04-24T08:37:33Z</time>
      </trkpt>
      <trkpt lat="45.9917" lon="4.69677">
        <ele>228</ele>
        <time>2017-04-24T08:37:37Z</time>
      </trkpt>
      <trkpt lat="45.9917" lon="4.69674">
        <ele>228</ele>
        <time>2017-04-24T08:37:38Z</time>
      </trkpt>
      <trkpt lat="45.99171" lon="4.69662">
        <ele>229</ele>
        <time>2017-04-24T08:37:41Z</time>
      </trkpt>
      <trkpt lat="45.99172" lon="4.69658">
        <ele>229</ele>
        <time>2017-04-24T08:37:42Z</time>
      </trkpt>
      <trkpt lat="45.99171" lon="4.69648">
        <ele>229</ele>
        <time>2017-04-24T08:37:45Z</time>
      </trkpt>
      <trkpt lat="45.99171" lon="4.69644">
        <ele>229</ele>
        <time>2017-04-24T08:37:46Z</time>
      </trkpt>
      <trkpt lat="45.99171" lon="4.69634">
        <ele>230</ele>
        <time>2017-04-24T08:37:48Z</time>
      </trkpt>
      <trkpt lat="45.99171" lon="4.6963">
        <ele>230</ele>
        <time>2017-04-24T08:37:49Z</time>
      </trkpt>
      <trkpt lat="45.99172" lon="4.69621">
        <ele>230</ele>
        <time>2017-04-24T08:37:51Z</time>
      </trkpt>
      <trkpt lat="45.99173" lon="4.69616">
        <ele>230</ele>
        <time>2017-04-24T08:37:52Z</time>
      </trkpt>
      <trkpt lat="45.99175" lon="4.69607">
        <ele>230</ele>
        <time>2017-04-24T08:37:54Z</time>
      </trkpt>
      <trkpt lat="45.99175" lon="4.69604">
        <ele>230</ele>
        <time>2017-04-24T08:37:55Z</time>
      </trkpt>
      <trkpt lat="45.99175" lon="4.69592">
        <ele>230</ele>
        <time>2017-04-24T08:37:58Z</time>
      </trkpt>
      <trkpt lat="45.99174" lon="4.69588">
        <ele>230</ele>
        <time>2017-04-24T08:37:59Z</time>
      </trkpt>
      <trkpt lat="45.99174" lon="4.69577">
        <ele>231</ele>
        <time>2017-04-24T08:38:02Z</time>
      </trkpt>
      <trkpt lat="45.99174" lon="4.69572">
        <ele>231</ele>
        <time>2017-04-24T08:38:03Z</time>
      </trkpt>
      <trkpt lat="45.99174" lon="4.6956">
        <ele>232</ele>
        <time>2017-04-24T08:38:06Z</time>
      </trkpt>
      <trkpt lat="45.99175" lon="4.69555">
        <ele>232</ele>
        <time>2017-04-24T08:38:07Z</time>
      </trkpt>
      <trkpt lat="45.99174" lon="4.69543">
        <ele>233</ele>
        <time>2017-04-24T08:38:10Z</time>
      </trkpt>
      <trkpt lat="45.99174" lon="4.69539">
        <ele>233</ele>
        <time>2017-04-24T08:38:11Z</time>
      </trkpt>
      <trkpt lat="45.99175" lon="4.69526">
        <ele>233</ele>
        <time>2017-04-24T08:38:13Z</time>
      </trkpt>
      <trkpt lat="45.99176" lon="4.69521">
        <ele>233</ele>
        <time>2017-04-24T08:38:14Z</time>
      </trkpt>
      <trkpt lat="45.99179" lon="4.69511">
        <ele>234</ele>
        <time>2017-04-24T08:38:16Z</time>
      </trkpt>
      <trkpt lat="45.9918" lon="4.69507">
        <ele>234</ele>
        <time>2017-04-24T08:38:17Z</time>
      </trkpt>
      <trkpt lat="45.99182" lon="4.69497">
        <ele>234</ele>
        <time>2017-04-24T08:38:19Z</time>
      </trkpt>
      <trkpt lat="45.99184" lon="4.69493">
        <ele>234</ele>
        <time>2017-04-24T08:38:20Z</time>
      </trkpt>
      <trkpt lat="45.99186" lon="4.69484">
        <ele>235</ele>
        <time>2017-04-24T08:38:22Z</time>
      </trkpt>
      <trkpt lat="45.99187" lon="4.69479">
        <ele>235</ele>
        <time>2017-04-24T08:38:23Z</time>
      </trkpt>
      <trkpt lat="45.99189" lon="4.6947">
        <ele>235</ele>
        <time>2017-04-24T08:38:25Z</time>
      </trkpt>
      <trkpt lat="45.99191" lon="4.69466">
        <ele>235</ele>
        <time>2017-04-24T08:38:26Z</time>
      </trkpt>
      <trkpt lat="45.99193" lon="4.69456">
        <ele>235</ele>
        <time>2017-04-24T08:38:28Z</time>
      </trkpt>
      <trkpt lat="45.99194" lon="4.69451">
        <ele>235</ele>
        <time>2017-04-24T08:38:29Z</time>
      </trkpt>
      <trkpt lat="45.99197" lon="4.6944">
        <ele>235</ele>
        <time>2017-04-24T08:38:31Z</time>
      </trkpt>
      <trkpt lat="45.99199" lon="4.69434">
        <ele>235</ele>
        <time>2017-04-24T08:38:32Z</time>
      </trkpt>
      <trkpt lat="45.99201" lon="4.69424">
        <ele>235</ele>
        <time>2017-04-24T08:38:34Z</time>
      </trkpt>
      <trkpt lat="45.99202" lon="4.69419">
        <ele>235</ele>
        <time>2017-04-24T08:38:35Z</time>
      </trkpt>
      <trkpt lat="45.99204" lon="4.69409">
        <ele>235</ele>
        <time>2017-04-24T08:38:37Z</time>
      </trkpt>
      <trkpt lat="45.99206" lon="4.69404">
        <ele>236</ele>
        <time>2017-04-24T08:38:38Z</time>
      </trkpt>
      <trkpt lat="45.99208" lon="4.69393">
        <ele>236</ele>
        <time>2017-04-24T08:38:40Z</time>
      </trkpt>
      <trkpt lat="45.99209" lon="4.69388">
        <ele>236</ele>
        <time>2017-04-24T08:38:41Z</time>
      </trkpt>
      <trkpt lat="45.9921" lon="4.69379">
        <ele>236</ele>
        <time>2017-04-24T08:38:43Z</time>
      </trkpt>
      <trkpt lat="45.9921" lon="4.69374">
        <ele>236</ele>
        <time>2017-04-24T08:38:44Z</time>
      </trkpt>
      <trkpt lat="45.99211" lon="4.69364">
        <ele>236</ele>
        <time>2017-04-24T08:38:46Z</time>
      </trkpt>
      <trkpt lat="45.99212" lon="4.69359">
        <ele>236</ele>
        <time>2017-04-24T08:38:47Z</time>
      </trkpt>
      <trkpt lat="45.99213" lon="4.69348">
        <ele>236</ele>
        <time>2017-04-24T08:38:49Z</time>
      </trkpt>
      <trkpt lat="45.99214" lon="4.69343">
        <ele>236</ele>
        <time>2017-04-24T08:38:50Z</time>
      </trkpt>
      <trkpt lat="45.99215" lon="4.69333">
        <ele>237</ele>
        <time>2017-04-24T08:38:52Z</time>
      </trkpt>
      <trkpt lat="45.99215" lon="4.69327">
        <ele>237</ele>
        <time>2017-04-24T08:38:53Z</time>
      </trkpt>
      <trkpt lat="45.99216" lon="4.69317">
        <ele>237</ele>
        <time>2017-04-24T08:38:55Z</time>
      </trkpt>
      <trkpt lat="45.99217" lon="4.69312">
        <ele>237</ele>
        <time>2017-04-24T08:38:56Z</time>
      </trkpt>
      <trkpt lat="45.99218" lon="4.69302">
        <ele>237</ele>
        <time>2017-04-24T08:38:58Z</time>
      </trkpt>
      <trkpt lat="45.99218" lon="4.69297">
        <ele>237</ele>
        <time>2017-04-24T08:38:59Z</time>
      </trkpt>
      <trkpt lat="45.9922" lon="4.69285">
        <ele>237</ele>
        <time>2017-04-24T08:39:01Z</time>
      </trkpt>
      <trkpt lat="45.99221" lon="4.6928">
        <ele>237</ele>
        <time>2017-04-24T08:39:02Z</time>
      </trkpt>
      <trkpt lat="45.99223" lon="4.69269">
        <ele>237</ele>
        <time>2017-04-24T08:39:04Z</time>
      </trkpt>
      <trkpt lat="45.99223" lon="4.69264">
        <ele>237</ele>
        <time>2017-04-24T08:39:05Z</time>
      </trkpt>
      <trkpt lat="45.99224" lon="4.69254">
        <ele>237</ele>
        <time>2017-04-24T08:39:07Z</time>
      </trkpt>
      <trkpt lat="45.99225" lon="4.69248">
        <ele>238</ele>
        <time>2017-04-24T08:39:08Z</time>
      </trkpt>
      <trkpt lat="45.99227" lon="4.69237">
        <ele>238</ele>
        <time>2017-04-24T08:39:10Z</time>
      </trkpt>
      <trkpt lat="45.99227" lon="4.69231">
        <ele>238</ele>
        <time>2017-04-24T08:39:11Z</time>
      </trkpt>
      <trkpt lat="45.99229" lon="4.6922">
        <ele>238</ele>
        <time>2017-04-24T08:39:13Z</time>
      </trkpt>
      <trkpt lat="45.99229" lon="4.69215">
        <ele>238</ele>
        <time>2017-04-24T08:39:14Z</time>
      </trkpt>
      <trkpt lat="45.9923" lon="4.69204">
        <ele>238</ele>
        <time>2017-04-24T08:39:16Z</time>
      </trkpt>
      <trkpt lat="45.9923" lon="4.69198">
        <ele>238</ele>
        <time>2017-04-24T08:39:17Z</time>
      </trkpt>
      <trkpt lat="45.99231" lon="4.69187">
        <ele>238</ele>
        <time>2017-04-24T08:39:19Z</time>
      </trkpt>
      <trkpt lat="45.99232" lon="4.69181">
        <ele>238</ele>
        <time>2017-04-24T08:39:20Z</time>
      </trkpt>
      <trkpt lat="45.99234" lon="4.69169">
        <ele>238</ele>
        <time>2017-04-24T08:39:22Z</time>
      </trkpt>
      <trkpt lat="45.99235" lon="4.69163">
        <ele>239</ele>
        <time>2017-04-24T08:39:23Z</time>
      </trkpt>
      <trkpt lat="45.99236" lon="4.69152">
        <ele>239</ele>
        <time>2017-04-24T08:39:25Z</time>
      </trkpt>
      <trkpt lat="45.99236" lon="4.69146">
        <ele>239</ele>
        <time>2017-04-24T08:39:26Z</time>
      </trkpt>
      <trkpt lat="45.99238" lon="4.69134">
        <ele>240</ele>
        <time>2017-04-24T08:39:28Z</time>
      </trkpt>
      <trkpt lat="45.99239" lon="4.69129">
        <ele>240</ele>
        <time>2017-04-24T08:39:29Z</time>
      </trkpt>
      <trkpt lat="45.99241" lon="4.69119">
        <ele>240</ele>
        <time>2017-04-24T08:39:31Z</time>
      </trkpt>
      <trkpt lat="45.99243" lon="4.69112">
        <ele>240</ele>
        <time>2017-04-24T08:39:32Z</time>
      </trkpt>
      <trkpt lat="45.99245" lon="4.69106">
        <ele>241</ele>
        <time>2017-04-24T08:39:33Z</time>
      </trkpt>
      <trkpt lat="45.99246" lon="4.691">
        <ele>241</ele>
        <time>2017-04-24T08:39:34Z</time>
      </trkpt>
      <trkpt lat="45.99247" lon="4.69093">
        <ele>241</ele>
        <time>2017-04-24T08:39:35Z</time>
      </trkpt>
      <trkpt lat="45.99249" lon="4.69086">
        <ele>242</ele>
        <time>2017-04-24T08:39:36Z</time>
      </trkpt>
      <trkpt lat="45.9925" lon="4.69079">
        <ele>242</ele>
        <time>2017-04-24T08:39:37Z</time>
      </trkpt>
      <trkpt lat="45.99252" lon="4.69072">
        <ele>241</ele>
        <time>2017-04-24T08:39:38Z</time>
      </trkpt>
      <trkpt lat="45.99253" lon="4.69066">
        <ele>241</ele>
        <time>2017-04-24T08:39:39Z</time>
      </trkpt>
      <trkpt lat="45.99255" lon="4.6906">
        <ele>241</ele>
        <time>2017-04-24T08:39:40Z</time>
      </trkpt>
      <trkpt lat="45.99257" lon="4.69053">
        <ele>241</ele>
        <time>2017-04-24T08:39:41Z</time>
      </trkpt>
      <trkpt lat="45.99258" lon="4.69047">
        <ele>241</ele>
        <time>2017-04-24T08:39:42Z</time>
      </trkpt>
      <trkpt lat="45.9926" lon="4.69036">
        <ele>241</ele>
        <time>2017-04-24T08:39:44Z</time>
      </trkpt>
      <trkpt lat="45.99261" lon="4.6903">
        <ele>241</ele>
        <time>2017-04-24T08:39:45Z</time>
      </trkpt>
      <trkpt lat="45.99262" lon="4.69024">
        <ele>241</ele>
        <time>2017-04-24T08:39:46Z</time>
      </trkpt>
      <trkpt lat="45.99263" lon="4.69017">
        <ele>241</ele>
        <time>2017-04-24T08:39:47Z</time>
      </trkpt>
      <trkpt lat="45.99265" lon="4.69004">
        <ele>242</ele>
        <time>2017-04-24T08:39:49Z</time>
      </trkpt>
      <trkpt lat="45.99267" lon="4.68997">
        <ele>242</ele>
        <time>2017-04-24T08:39:50Z</time>
      </trkpt>
      <trkpt lat="45.99268" lon="4.6899">
        <ele>242</ele>
        <time>2017-04-24T08:39:51Z</time>
      </trkpt>
      <trkpt lat="45.9927" lon="4.68983">
        <ele>242</ele>
        <time>2017-04-24T08:39:52Z</time>
      </trkpt>
      <trkpt lat="45.99272" lon="4.68971">
        <ele>242</ele>
        <time>2017-04-24T08:39:54Z</time>
      </trkpt>
      <trkpt lat="45.99273" lon="4.68965">
        <ele>242</ele>
        <time>2017-04-24T08:39:55Z</time>
      </trkpt>
      <trkpt lat="45.99275" lon="4.68954">
        <ele>242</ele>
        <time>2017-04-24T08:39:57Z</time>
      </trkpt>
      <trkpt lat="45.99276" lon="4.68948">
        <ele>242</ele>
        <time>2017-04-24T08:39:58Z</time>
      </trkpt>
      <trkpt lat="45.99277" lon="4.68938">
        <ele>242</ele>
        <time>2017-04-24T08:40:00Z</time>
      </trkpt>
      <trkpt lat="45.99277" lon="4.68932">
        <ele>242</ele>
        <time>2017-04-24T08:40:01Z</time>
      </trkpt>
      <trkpt lat="45.99278" lon="4.6892">
        <ele>242</ele>
        <time>2017-04-24T08:40:03Z</time>
      </trkpt>
      <trkpt lat="45.99277" lon="4.68914">
        <ele>242</ele>
        <time>2017-04-24T08:40:04Z</time>
      </trkpt>
      <trkpt lat="45.99277" lon="4.68908">
        <ele>242</ele>
        <time>2017-04-24T08:40:05Z</time>
      </trkpt>
      <trkpt lat="45.99278" lon="4.68901">
        <ele>242</ele>
        <time>2017-04-24T08:40:06Z</time>
      </trkpt>
      <trkpt lat="45.99278" lon="4.68888">
        <ele>242</ele>
        <time>2017-04-24T08:40:08Z</time>
      </trkpt>
      <trkpt lat="45.99279" lon="4.68881">
        <ele>242</ele>
        <time>2017-04-24T08:40:09Z</time>
      </trkpt>
      <trkpt lat="45.9928" lon="4.68869">
        <ele>242</ele>
        <time>2017-04-24T08:40:11Z</time>
      </trkpt>
      <trkpt lat="45.99281" lon="4.68861">
        <ele>242</ele>
        <time>2017-04-24T08:40:12Z</time>
      </trkpt>
      <trkpt lat="45.99282" lon="4.68855">
        <ele>241</ele>
        <time>2017-04-24T08:40:13Z</time>
      </trkpt>
      <trkpt lat="45.99284" lon="4.68847">
        <ele>241</ele>
        <time>2017-04-24T08:40:14Z</time>
      </trkpt>
      <trkpt lat="45.99286" lon="4.6884">
        <ele>241</ele>
        <time>2017-04-24T08:40:15Z</time>
      </trkpt>
      <trkpt lat="45.99287" lon="4.68833">
        <ele>241</ele>
        <time>2017-04-24T08:40:16Z</time>
      </trkpt>
      <trkpt lat="45.99288" lon="4.68825">
        <ele>241</ele>
        <time>2017-04-24T08:40:17Z</time>
      </trkpt>
      <trkpt lat="45.99289" lon="4.68819">
        <ele>241</ele>
        <time>2017-04-24T08:40:18Z</time>
      </trkpt>
      <trkpt lat="45.99291" lon="4.68811">
        <ele>241</ele>
        <time>2017-04-24T08:40:19Z</time>
      </trkpt>
      <trkpt lat="45.99291" lon="4.68804">
        <ele>241</ele>
        <time>2017-04-24T08:40:20Z</time>
      </trkpt>
      <trkpt lat="45.99292" lon="4.68797">
        <ele>241</ele>
        <time>2017-04-24T08:40:21Z</time>
      </trkpt>
      <trkpt lat="45.99293" lon="4.6879">
        <ele>241</ele>
        <time>2017-04-24T08:40:22Z</time>
      </trkpt>
      <trkpt lat="45.99295" lon="4.68783">
        <ele>241</ele>
        <time>2017-04-24T08:40:23Z</time>
      </trkpt>
      <trkpt lat="45.99295" lon="4.68776">
        <ele>241</ele>
        <time>2017-04-24T08:40:24Z</time>
      </trkpt>
      <trkpt lat="45.99297" lon="4.68769">
        <ele>241</ele>
        <time>2017-04-24T08:40:25Z</time>
      </trkpt>
      <trkpt lat="45.99298" lon="4.68763">
        <ele>241</ele>
        <time>2017-04-24T08:40:26Z</time>
      </trkpt>
      <trkpt lat="45.99298" lon="4.68756">
        <ele>241</ele>
        <time>2017-04-24T08:40:27Z</time>
      </trkpt>
      <trkpt lat="45.993" lon="4.68749">
        <ele>241</ele>
        <time>2017-04-24T08:40:28Z</time>
      </trkpt>
      <trkpt lat="45.99301" lon="4.68743">
        <ele>241</ele>
        <time>2017-04-24T08:40:29Z</time>
      </trkpt>
      <trkpt lat="45.99302" lon="4.68736">
        <ele>241</ele>
        <time>2017-04-24T08:40:30Z</time>
      </trkpt>
      <trkpt lat="45.99304" lon="4.68725">
        <ele>241</ele>
        <time>2017-04-24T08:40:32Z</time>
      </trkpt>
      <trkpt lat="45.99304" lon="4.68719">
        <ele>241</ele>
        <time>2017-04-24T08:40:33Z</time>
      </trkpt>
      <trkpt lat="45.99305" lon="4.68708">
        <ele>241</ele>
        <time>2017-04-24T08:40:35Z</time>
      </trkpt>
      <trkpt lat="45.99305" lon="4.68703">
        <ele>241</ele>
        <time>2017-04-24T08:40:36Z</time>
      </trkpt>
      <trkpt lat="45.99305" lon="4.68692">
        <ele>241</ele>
        <time>2017-04-24T08:40:38Z</time>
      </trkpt>
      <trkpt lat="45.99305" lon="4.68686">
        <ele>241</ele>
        <time>2017-04-24T08:40:39Z</time>
      </trkpt>
      <trkpt lat="45.99307" lon="4.68674">
        <ele>241</ele>
        <time>2017-04-24T08:40:41Z</time>
      </trkpt>
      <trkpt lat="45.99306" lon="4.68668">
        <ele>241</ele>
        <time>2017-04-24T08:40:42Z</time>
      </trkpt>
      <trkpt lat="45.99307" lon="4.68661">
        <ele>241</ele>
        <time>2017-04-24T08:40:43Z</time>
      </trkpt>
      <trkpt lat="45.99308" lon="4.68654">
        <ele>241</ele>
        <time>2017-04-24T08:40:44Z</time>
      </trkpt>
      <trkpt lat="45.9931" lon="4.68642">
        <ele>242</ele>
        <time>2017-04-24T08:40:46Z</time>
      </trkpt>
      <trkpt lat="45.99312" lon="4.68636">
        <ele>242</ele>
        <time>2017-04-24T08:40:47Z</time>
      </trkpt>
      <trkpt lat="45.99313" lon="4.68623">
        <ele>242</ele>
        <time>2017-04-24T08:40:49Z</time>
      </trkpt>
      <trkpt lat="45.99315" lon="4.68617">
        <ele>242</ele>
        <time>2017-04-24T08:40:50Z</time>
      </trkpt>
      <trkpt lat="45.99316" lon="4.6861">
        <ele>242</ele>
        <time>2017-04-24T08:40:51Z</time>
      </trkpt>
      <trkpt lat="45.99317" lon="4.68604">
        <ele>242</ele>
        <time>2017-04-24T08:40:52Z</time>
      </trkpt>
      <trkpt lat="45.99319" lon="4.68597">
        <ele>242</ele>
        <time>2017-04-24T08:40:53Z</time>
      </trkpt>
      <trkpt lat="45.9932" lon="4.68591">
        <ele>242</ele>
        <time>2017-04-24T08:40:54Z</time>
      </trkpt>
      <trkpt lat="45.99321" lon="4.68584">
        <ele>242</ele>
        <time>2017-04-24T08:40:55Z</time>
      </trkpt>
      <trkpt lat="45.99322" lon="4.68578">
        <ele>243</ele>
        <time>2017-04-24T08:40:56Z</time>
      </trkpt>
      <trkpt lat="45.99322" lon="4.68566">
        <ele>243</ele>
        <time>2017-04-24T08:40:58Z</time>
      </trkpt>
      <trkpt lat="45.99323" lon="4.68559">
        <ele>243</ele>
        <time>2017-04-24T08:40:59Z</time>
      </trkpt>
      <trkpt lat="45.99324" lon="4.68552">
        <ele>243</ele>
        <time>2017-04-24T08:41:00Z</time>
      </trkpt>
      <trkpt lat="45.99325" lon="4.68546">
        <ele>243</ele>
        <time>2017-04-24T08:41:01Z</time>
      </trkpt>
      <trkpt lat="45.99326" lon="4.68534">
        <ele>244</ele>
        <time>2017-04-24T08:41:03Z</time>
      </trkpt>
      <trkpt lat="45.99327" lon="4.68528">
        <ele>244</ele>
        <time>2017-04-24T08:41:04Z</time>
      </trkpt>
      <trkpt lat="45.99328" lon="4.68522">
        <ele>244</ele>
        <time>2017-04-24T08:41:05Z</time>
      </trkpt>
      <trkpt lat="45.99329" lon="4.68515">
        <ele>244</ele>
        <time>2017-04-24T08:41:06Z</time>
      </trkpt>
      <trkpt lat="45.9933" lon="4.68509">
        <ele>245</ele>
        <time>2017-04-24T08:41:07Z</time>
      </trkpt>
      <trkpt lat="45.99332" lon="4.68502">
        <ele>245</ele>
        <time>2017-04-24T08:41:08Z</time>
      </trkpt>
      <trkpt lat="45.99334" lon="4.68496">
        <ele>245</ele>
        <time>2017-04-24T08:41:09Z</time>
      </trkpt>
      <trkpt lat="45.99334" lon="4.68489">
        <ele>244</ele>
        <time>2017-04-24T08:41:10Z</time>
      </trkpt>
      <trkpt lat="45.99335" lon="4.68483">
        <ele>244</ele>
        <time>2017-04-24T08:41:11Z</time>
      </trkpt>
      <trkpt lat="45.99336" lon="4.68476">
        <ele>244</ele>
        <time>2017-04-24T08:41:12Z</time>
      </trkpt>
      <trkpt lat="45.99336" lon="4.68464">
        <ele>244</ele>
        <time>2017-04-24T08:41:14Z</time>
      </trkpt>
      <trkpt lat="45.99336" lon="4.68457">
        <ele>244</ele>
        <time>2017-04-24T08:41:15Z</time>
      </trkpt>
      <trkpt lat="45.99338" lon="4.68451">
        <ele>244</ele>
        <time>2017-04-24T08:41:16Z</time>
      </trkpt>
      <trkpt lat="45.99339" lon="4.68444">
        <ele>244</ele>
        <time>2017-04-24T08:41:17Z</time>
      </trkpt>
      <trkpt lat="45.99341" lon="4.68432">
        <ele>244</ele>
        <time>2017-04-24T08:41:19Z</time>
      </trkpt>
      <trkpt lat="45.99343" lon="4.68426">
        <ele>244</ele>
        <time>2017-04-24T08:41:20Z</time>
      </trkpt>
      <trkpt lat="45.99344" lon="4.68416">
        <ele>244</ele>
        <time>2017-04-24T08:41:22Z</time>
      </trkpt>
      <trkpt lat="45.99345" lon="4.6841">
        <ele>244</ele>
        <time>2017-04-24T08:41:23Z</time>
      </trkpt>
      <trkpt lat="45.99347" lon="4.68404">
        <ele>244</ele>
        <time>2017-04-24T08:41:24Z</time>
      </trkpt>
      <trkpt lat="45.99348" lon="4.68397">
        <ele>244</ele>
        <time>2017-04-24T08:41:25Z</time>
      </trkpt>
      <trkpt lat="45.9935" lon="4.68389">
        <ele>244</ele>
        <time>2017-04-24T08:41:26Z</time>
      </trkpt>
      <trkpt lat="45.99351" lon="4.68382">
        <ele>244</ele>
        <time>2017-04-24T08:41:27Z</time>
      </trkpt>
      <trkpt lat="45.99353" lon="4.6837">
        <ele>244</ele>
        <time>2017-04-24T08:41:29Z</time>
      </trkpt>
      <trkpt lat="45.99354" lon="4.68365">
        <ele>244</ele>
        <time>2017-04-24T08:41:30Z</time>
      </trkpt>
      <trkpt lat="45.99355" lon="4.68359">
        <ele>244</ele>
        <time>2017-04-24T08:41:31Z</time>
      </trkpt>
      <trkpt lat="45.99356" lon="4.68352">
        <ele>244</ele>
        <time>2017-04-24T08:41:32Z</time>
      </trkpt>
      <trkpt lat="45.99357" lon="4.6834">
        <ele>244</ele>
        <time>2017-04-24T08:41:34Z</time>
      </trkpt>
      <trkpt lat="45.99358" lon="4.68334">
        <ele>244</ele>
        <time>2017-04-24T08:41:35Z</time>
      </trkpt>
      <trkpt lat="45.99359" lon="4.68321">
        <ele>244</ele>
        <time>2017-04-24T08:41:37Z</time>
      </trkpt>
      <trkpt lat="45.99359" lon="4.68315">
        <ele>244</ele>
        <time>2017-04-24T08:41:38Z</time>
      </trkpt>
      <trkpt lat="45.99359" lon="4.68309">
        <ele>244</ele>
        <time>2017-04-24T08:41:39Z</time>
      </trkpt>
      <trkpt lat="45.9936" lon="4.68302">
        <ele>244</ele>
        <time>2017-04-24T08:41:40Z</time>
      </trkpt>
      <trkpt lat="45.99361" lon="4.68291">
        <ele>244</ele>
        <time>2017-04-24T08:41:42Z</time>
      </trkpt>
      <trkpt lat="45.99362" lon="4.68285">
        <ele>244</ele>
        <time>2017-04-24T08:41:43Z</time>
      </trkpt>
      <trkpt lat="45.99363" lon="4.68273">
        <ele>244</ele>
        <time>2017-04-24T08:41:45Z</time>
      </trkpt>
      <trkpt lat="45.99365" lon="4.68266">
        <ele>244</ele>
        <time>2017-04-24T08:41:46Z</time>
      </trkpt>
      <trkpt lat="45.99367" lon="4.68259">
        <ele>244</ele>
        <time>2017-04-24T08:41:47Z</time>
      </trkpt>
      <trkpt lat="45.99368" lon="4.68252">
        <ele>244</ele>
        <time>2017-04-24T08:41:48Z</time>
      </trkpt>
      <trkpt lat="45.99369" lon="4.68245">
        <ele>244</ele>
        <time>2017-04-24T08:41:49Z</time>
      </trkpt>
      <trkpt lat="45.99371" lon="4.68238">
        <ele>244</ele>
        <time>2017-04-24T08:41:50Z</time>
      </trkpt>
      <trkpt lat="45.99372" lon="4.68231">
        <ele>244</ele>
        <time>2017-04-24T08:41:51Z</time>
      </trkpt>
      <trkpt lat="45.99373" lon="4.68225">
        <ele>244</ele>
        <time>2017-04-24T08:41:52Z</time>
      </trkpt>
      <trkpt lat="45.99374" lon="4.68213">
        <ele>244</ele>
        <time>2017-04-24T08:41:54Z</time>
      </trkpt>
      <trkpt lat="45.99375" lon="4.68207">
        <ele>244</ele>
        <time>2017-04-24T08:41:55Z</time>
      </trkpt>
      <trkpt lat="45.99377" lon="4.68195">
        <ele>244</ele>
        <time>2017-04-24T08:41:57Z</time>
      </trkpt>
      <trkpt lat="45.99378" lon="4.68188">
        <ele>244</ele>
        <time>2017-04-24T08:41:58Z</time>
      </trkpt>
      <trkpt lat="45.99378" lon="4.68182">
        <ele>244</ele>
        <time>2017-04-24T08:41:59Z</time>
      </trkpt>
      <trkpt lat="45.99379" lon="4.68175">
        <ele>244</ele>
        <time>2017-04-24T08:42:00Z</time>
      </trkpt>
      <trkpt lat="45.9938" lon="4.68169">
        <ele>244</ele>
        <time>2017-04-24T08:42:01Z</time>
      </trkpt>
      <trkpt lat="45.99381" lon="4.68162">
        <ele>245</ele>
        <time>2017-04-24T08:42:02Z</time>
      </trkpt>
      <trkpt lat="45.99382" lon="4.68151">
        <ele>245</ele>
        <time>2017-04-24T08:42:04Z</time>
      </trkpt>
      <trkpt lat="45.99383" lon="4.68145">
        <ele>245</ele>
        <time>2017-04-24T08:42:05Z</time>
      </trkpt>
      <trkpt lat="45.99385" lon="4.68133">
        <ele>245</ele>
        <time>2017-04-24T08:42:07Z</time>
      </trkpt>
      <trkpt lat="45.99386" lon="4.68127">
        <ele>245</ele>
        <time>2017-04-24T08:42:08Z</time>
      </trkpt>
      <trkpt lat="45.99388" lon="4.68115">
        <ele>245</ele>
        <time>2017-04-24T08:42:10Z</time>
      </trkpt>
      <trkpt lat="45.99388" lon="4.68108">
        <ele>246</ele>
        <time>2017-04-24T08:42:11Z</time>
      </trkpt>
      <trkpt lat="45.99388" lon="4.68102">
        <ele>246</ele>
        <time>2017-04-24T08:42:12Z</time>
      </trkpt>
      <trkpt lat="45.9939" lon="4.68094">
        <ele>246</ele>
        <time>2017-04-24T08:42:13Z</time>
      </trkpt>
      <trkpt lat="45.99391" lon="4.68082">
        <ele>247</ele>
        <time>2017-04-24T08:42:15Z</time>
      </trkpt>
      <trkpt lat="45.99392" lon="4.68076">
        <ele>247</ele>
        <time>2017-04-24T08:42:16Z</time>
      </trkpt>
      <trkpt lat="45.99394" lon="4.68064">
        <ele>247</ele>
        <time>2017-04-24T08:42:18Z</time>
      </trkpt>
      <trkpt lat="45.99395" lon="4.68059">
        <ele>247</ele>
        <time>2017-04-24T08:42:19Z</time>
      </trkpt>
      <trkpt lat="45.99396" lon="4.68049">
        <ele>247</ele>
        <time>2017-04-24T08:42:21Z</time>
      </trkpt>
      <trkpt lat="45.99396" lon="4.68045">
        <ele>247</ele>
        <time>2017-04-24T08:42:22Z</time>
      </trkpt>
      <trkpt lat="45.99397" lon="4.68034">
        <ele>247</ele>
        <time>2017-04-24T08:42:24Z</time>
      </trkpt>
      <trkpt lat="45.99399" lon="4.68028">
        <ele>247</ele>
        <time>2017-04-24T08:42:25Z</time>
      </trkpt>
      <trkpt lat="45.99401" lon="4.68017">
        <ele>247</ele>
        <time>2017-04-24T08:42:27Z</time>
      </trkpt>
      <trkpt lat="45.99402" lon="4.68012">
        <ele>247</ele>
        <time>2017-04-24T08:42:28Z</time>
      </trkpt>
      <trkpt lat="45.99403" lon="4.68001">
        <ele>247</ele>
        <time>2017-04-24T08:42:30Z</time>
      </trkpt>
      <trkpt lat="45.99404" lon="4.67995">
        <ele>248</ele>
        <time>2017-04-24T08:42:31Z</time>
      </trkpt>
      <trkpt lat="45.99406" lon="4.67983">
        <ele>248</ele>
        <time>2017-04-24T08:42:33Z</time>
      </trkpt>
      <trkpt lat="45.99407" lon="4.67978">
        <ele>248</ele>
        <time>2017-04-24T08:42:34Z</time>
      </trkpt>
      <trkpt lat="45.99408" lon="4.67966">
        <ele>248</ele>
        <time>2017-04-24T08:42:36Z</time>
      </trkpt>
      <trkpt lat="45.99409" lon="4.67961">
        <ele>248</ele>
        <time>2017-04-24T08:42:37Z</time>
      </trkpt>
      <trkpt lat="45.99411" lon="4.6795">
        <ele>249</ele>
        <time>2017-04-24T08:42:39Z</time>
      </trkpt>
      <trkpt lat="45.99412" lon="4.67945">
        <ele>249</ele>
        <time>2017-04-24T08:42:40Z</time>
      </trkpt>
      <trkpt lat="45.99414" lon="4.67933">
        <ele>249</ele>
        <time>2017-04-24T08:42:42Z</time>
      </trkpt>
      <trkpt lat="45.99415" lon="4.67928">
        <ele>249</ele>
        <time>2017-04-24T08:42:43Z</time>
      </trkpt>
      <trkpt lat="45.99417" lon="4.67917">
        <ele>250</ele>
        <time>2017-04-24T08:42:45Z</time>
      </trkpt>
      <trkpt lat="45.99418" lon="4.67911">
        <ele>250</ele>
        <time>2017-04-24T08:42:46Z</time>
      </trkpt>
      <trkpt lat="45.9942" lon="4.67899">
        <ele>250</ele>
        <time>2017-04-24T08:42:48Z</time>
      </trkpt>
      <trkpt lat="45.99421" lon="4.67893">
        <ele>250</ele>
        <time>2017-04-24T08:42:49Z</time>
      </trkpt>
      <trkpt lat="45.99423" lon="4.67882">
        <ele>250</ele>
        <time>2017-04-24T08:42:51Z</time>
      </trkpt>
      <trkpt lat="45.99424" lon="4.67877">
        <ele>250</ele>
        <time>2017-04-24T08:42:52Z</time>
      </trkpt>
      <trkpt lat="45.99425" lon="4.67867">
        <ele>251</ele>
        <time>2017-04-24T08:42:54Z</time>
      </trkpt>
      <trkpt lat="45.99426" lon="4.67862">
        <ele>251</ele>
        <time>2017-04-24T08:42:55Z</time>
      </trkpt>
      <trkpt lat="45.99428" lon="4.67851">
        <ele>251</ele>
        <time>2017-04-24T08:42:57Z</time>
      </trkpt>
      <trkpt lat="45.99428" lon="4.67845">
        <ele>251</ele>
        <time>2017-04-24T08:42:58Z</time>
      </trkpt>
      <trkpt lat="45.9943" lon="4.67834">
        <ele>251</ele>
        <time>2017-04-24T08:43:00Z</time>
      </trkpt>
      <trkpt lat="45.99431" lon="4.67829">
        <ele>251</ele>
        <time>2017-04-24T08:43:01Z</time>
      </trkpt>
      <trkpt lat="45.99433" lon="4.67819">
        <ele>252</ele>
        <time>2017-04-24T08:43:03Z</time>
      </trkpt>
      <trkpt lat="45.99434" lon="4.67815">
        <ele>252</ele>
        <time>2017-04-24T08:43:04Z</time>
      </trkpt>
      <trkpt lat="45.99436" lon="4.67804">
        <ele>252</ele>
        <time>2017-04-24T08:43:06Z</time>
      </trkpt>
      <trkpt lat="45.99437" lon="4.678">
        <ele>252</ele>
        <time>2017-04-24T08:43:07Z</time>
      </trkpt>
      <trkpt lat="45.99438" lon="4.67788">
        <ele>252</ele>
        <time>2017-04-24T08:43:10Z</time>
      </trkpt>
      <trkpt lat="45.99439" lon="4.67782">
        <ele>252</ele>
        <time>2017-04-24T08:43:11Z</time>
      </trkpt>
      <trkpt lat="45.9944" lon="4.67772">
        <ele>252</ele>
        <time>2017-04-24T08:43:13Z</time>
      </trkpt>
      <trkpt lat="45.99441" lon="4.67768">
        <ele>252</ele>
        <time>2017-04-24T08:43:14Z</time>
      </trkpt>
      <trkpt lat="45.99443" lon="4.67757">
        <ele>252</ele>
        <time>2017-04-24T08:43:16Z</time>
      </trkpt>
      <trkpt lat="45.99443" lon="4.67753">
        <ele>252</ele>
        <time>2017-04-24T08:43:17Z</time>
      </trkpt>
      <trkpt lat="45.99445" lon="4.67741">
        <ele>254</ele>
        <time>2017-04-24T08:43:20Z</time>
      </trkpt>
      <trkpt lat="45.99445" lon="4.67739">
        <ele>254</ele>
        <time>2017-04-24T08:43:21Z</time>
      </trkpt>
      <trkpt lat="45.99446" lon="4.67726">
        <ele>254</ele>
        <time>2017-04-24T08:43:24Z</time>
      </trkpt>
      <trkpt lat="45.99447" lon="4.67722">
        <ele>254</ele>
        <time>2017-04-24T08:43:25Z</time>
      </trkpt>
      <trkpt lat="45.9945" lon="4.67714">
        <ele>254</ele>
        <time>2017-04-24T08:43:26Z</time>
      </trkpt>
      <trkpt lat="45.99451" lon="4.67709">
        <ele>254</ele>
        <time>2017-04-24T08:43:27Z</time>
      </trkpt>
      <trkpt lat="45.99452" lon="4.67699">
        <ele>254</ele>
        <time>2017-04-24T08:43:29Z</time>
      </trkpt>
      <trkpt lat="45.99453" lon="4.67694">
        <ele>254</ele>
        <time>2017-04-24T08:43:30Z</time>
      </trkpt>
      <trkpt lat="45.99453" lon="4.67685">
        <ele>254</ele>
        <time>2017-04-24T08:43:32Z</time>
      </trkpt>
      <trkpt lat="45.99454" lon="4.6768">
        <ele>254</ele>
        <time>2017-04-24T08:43:33Z</time>
      </trkpt>
      <trkpt lat="45.99454" lon="4.67671">
        <ele>254</ele>
        <time>2017-04-24T08:43:35Z</time>
      </trkpt>
      <trkpt lat="45.99455" lon="4.67666">
        <ele>255</ele>
        <time>2017-04-24T08:43:36Z</time>
      </trkpt>
      <trkpt lat="45.99456" lon="4.67657">
        <ele>255</ele>
        <time>2017-04-24T08:43:38Z</time>
      </trkpt>
      <trkpt lat="45.99457" lon="4.67653">
        <ele>255</ele>
        <time>2017-04-24T08:43:39Z</time>
      </trkpt>
      <trkpt lat="45.99459" lon="4.67642">
        <ele>255</ele>
        <time>2017-04-24T08:43:41Z</time>
      </trkpt>
      <trkpt lat="45.99459" lon="4.67637">
        <ele>255</ele>
        <time>2017-04-24T08:43:42Z</time>
      </trkpt>
      <trkpt lat="45.99461" lon="4.67626">
        <ele>255</ele>
        <time>2017-04-24T08:43:44Z</time>
      </trkpt>
      <trkpt lat="45.99461" lon="4.67622">
        <ele>256</ele>
        <time>2017-04-24T08:43:45Z</time>
      </trkpt>
      <trkpt lat="45.99464" lon="4.67611">
        <ele>256</ele>
        <time>2017-04-24T08:43:47Z</time>
      </trkpt>
      <trkpt lat="45.99465" lon="4.67606">
        <ele>256</ele>
        <time>2017-04-24T08:43:48Z</time>
      </trkpt>
      <trkpt lat="45.99466" lon="4.67596">
        <ele>256</ele>
        <time>2017-04-24T08:43:50Z</time>
      </trkpt>
      <trkpt lat="45.99467" lon="4.6759">
        <ele>256</ele>
        <time>2017-04-24T08:43:51Z</time>
      </trkpt>
      <trkpt lat="45.99469" lon="4.67579">
        <ele>256</ele>
        <time>2017-04-24T08:43:53Z</time>
      </trkpt>
      <trkpt lat="45.9947" lon="4.67574">
        <ele>256</ele>
        <time>2017-04-24T08:43:54Z</time>
      </trkpt>
      <trkpt lat="45.99472" lon="4.67563">
        <ele>256</ele>
        <time>2017-04-24T08:43:56Z</time>
      </trkpt>
      <trkpt lat="45.99473" lon="4.67558">
        <ele>256</ele>
        <time>2017-04-24T08:43:57Z</time>
      </trkpt>
      <trkpt lat="45.99475" lon="4.67551">
        <ele>256</ele>
        <time>2017-04-24T08:43:58Z</time>
      </trkpt>
      <trkpt lat="45.99475" lon="4.67545">
        <ele>256</ele>
        <time>2017-04-24T08:43:59Z</time>
      </trkpt>
      <trkpt lat="45.99476" lon="4.67535">
        <ele>256</ele>
        <time>2017-04-24T08:44:01Z</time>
      </trkpt>
      <trkpt lat="45.99478" lon="4.6753">
        <ele>256</ele>
        <time>2017-04-24T08:44:02Z</time>
      </trkpt>
      <trkpt lat="45.9948" lon="4.67519">
        <ele>256</ele>
        <time>2017-04-24T08:44:04Z</time>
      </trkpt>
      <trkpt lat="45.9948" lon="4.67514">
        <ele>256</ele>
        <time>2017-04-24T08:44:05Z</time>
      </trkpt>
      <trkpt lat="45.99481" lon="4.67503">
        <ele>256</ele>
        <time>2017-04-24T08:44:07Z</time>
      </trkpt>
      <trkpt lat="45.99482" lon="4.67498">
        <ele>256</ele>
        <time>2017-04-24T08:44:08Z</time>
      </trkpt>
      <trkpt lat="45.99483" lon="4.67488">
        <ele>257</ele>
        <time>2017-04-24T08:44:10Z</time>
      </trkpt>
      <trkpt lat="45.99483" lon="4.67482">
        <ele>257</ele>
        <time>2017-04-24T08:44:11Z</time>
      </trkpt>
      <trkpt lat="45.99484" lon="4.67473">
        <ele>257</ele>
        <time>2017-04-24T08:44:13Z</time>
      </trkpt>
      <trkpt lat="45.99485" lon="4.67468">
        <ele>257</ele>
        <time>2017-04-24T08:44:14Z</time>
      </trkpt>
      <trkpt lat="45.99486" lon="4.67457">
        <ele>257</ele>
        <time>2017-04-24T08:44:16Z</time>
      </trkpt>
      <trkpt lat="45.99486" lon="4.67452">
        <ele>257</ele>
        <time>2017-04-24T08:44:17Z</time>
      </trkpt>
      <trkpt lat="45.99488" lon="4.67442">
        <ele>257</ele>
        <time>2017-04-24T08:44:19Z</time>
      </trkpt>
      <trkpt lat="45.99489" lon="4.67437">
        <ele>257</ele>
        <time>2017-04-24T08:44:20Z</time>
      </trkpt>
      <trkpt lat="45.9949" lon="4.67428">
        <ele>258</ele>
        <time>2017-04-24T08:44:22Z</time>
      </trkpt>
      <trkpt lat="45.99491" lon="4.67422">
        <ele>258</ele>
        <time>2017-04-24T08:44:23Z</time>
      </trkpt>
      <trkpt lat="45.99492" lon="4.67412">
        <ele>258</ele>
        <time>2017-04-24T08:44:25Z</time>
      </trkpt>
      <trkpt lat="45.99492" lon="4.67407">
        <ele>258</ele>
        <time>2017-04-24T08:44:26Z</time>
      </trkpt>
      <trkpt lat="45.99494" lon="4.67397">
        <ele>258</ele>
        <time>2017-04-24T08:44:28Z</time>
      </trkpt>
      <trkpt lat="45.99495" lon="4.67391">
        <ele>258</ele>
        <time>2017-04-24T08:44:29Z</time>
      </trkpt>
      <trkpt lat="45.99496" lon="4.67381">
        <ele>258</ele>
        <time>2017-04-24T08:44:31Z</time>
      </trkpt>
      <trkpt lat="45.99497" lon="4.67376">
        <ele>258</ele>
        <time>2017-04-24T08:44:32Z</time>
      </trkpt>
      <trkpt lat="45.99499" lon="4.67366">
        <ele>259</ele>
        <time>2017-04-24T08:44:34Z</time>
      </trkpt>
      <trkpt lat="45.995" lon="4.67361">
        <ele>259</ele>
        <time>2017-04-24T08:44:35Z</time>
      </trkpt>
      <trkpt lat="45.99502" lon="4.67351">
        <ele>258</ele>
        <time>2017-04-24T08:44:37Z</time>
      </trkpt>
      <trkpt lat="45.99502" lon="4.67346">
        <ele>258</ele>
        <time>2017-04-24T08:44:38Z</time>
      </trkpt>
      <trkpt lat="45.99504" lon="4.67336">
        <ele>259</ele>
        <time>2017-04-24T08:44:40Z</time>
      </trkpt>
      <trkpt lat="45.99505" lon="4.6733">
        <ele>259</ele>
        <time>2017-04-24T08:44:41Z</time>
      </trkpt>
      <trkpt lat="45.99506" lon="4.6732">
        <ele>259</ele>
        <time>2017-04-24T08:44:43Z</time>
      </trkpt>
      <trkpt lat="45.99508" lon="4.67312">
        <ele>259</ele>
        <time>2017-04-24T08:44:44Z</time>
      </trkpt>
      <trkpt lat="45.9951" lon="4.673">
        <ele>259</ele>
        <time>2017-04-24T08:44:46Z</time>
      </trkpt>
      <trkpt lat="45.99512" lon="4.67294">
        <ele>259</ele>
        <time>2017-04-24T08:44:47Z</time>
      </trkpt>
      <trkpt lat="45.99514" lon="4.67284">
        <ele>260</ele>
        <time>2017-04-24T08:44:49Z</time>
      </trkpt>
      <trkpt lat="45.99514" lon="4.67279">
        <ele>260</ele>
        <time>2017-04-24T08:44:50Z</time>
      </trkpt>
      <trkpt lat="45.99515" lon="4.6727">
        <ele>260</ele>
        <time>2017-04-24T08:44:52Z</time>
      </trkpt>
      <trkpt lat="45.99516" lon="4.67264">
        <ele>260</ele>
        <time>2017-04-24T08:44:53Z</time>
      </trkpt>
      <trkpt lat="45.99517" lon="4.67253">
        <ele>260</ele>
        <time>2017-04-24T08:44:55Z</time>
      </trkpt>
      <trkpt lat="45.99518" lon="4.67247">
        <ele>261</ele>
        <time>2017-04-24T08:44:56Z</time>
      </trkpt>
      <trkpt lat="45.99519" lon="4.67236">
        <ele>261</ele>
        <time>2017-04-24T08:44:58Z</time>
      </trkpt>
      <trkpt lat="45.9952" lon="4.6723">
        <ele>261</ele>
        <time>2017-04-24T08:44:59Z</time>
      </trkpt>
      <trkpt lat="45.99521" lon="4.6722">
        <ele>261</ele>
        <time>2017-04-24T08:45:01Z</time>
      </trkpt>
      <trkpt lat="45.99522" lon="4.67215">
        <ele>261</ele>
        <time>2017-04-24T08:45:02Z</time>
      </trkpt>
      <trkpt lat="45.99523" lon="4.67204">
        <ele>261</ele>
        <time>2017-04-24T08:45:04Z</time>
      </trkpt>
      <trkpt lat="45.99524" lon="4.67199">
        <ele>261</ele>
        <time>2017-04-24T08:45:05Z</time>
      </trkpt>
      <trkpt lat="45.99526" lon="4.67189">
        <ele>261</ele>
        <time>2017-04-24T08:45:07Z</time>
      </trkpt>
      <trkpt lat="45.99527" lon="4.67183">
        <ele>261</ele>
        <time>2017-04-24T08:45:08Z</time>
      </trkpt>
      <trkpt lat="45.99528" lon="4.67174">
        <ele>261</ele>
        <time>2017-04-24T08:45:10Z</time>
      </trkpt>
      <trkpt lat="45.99529" lon="4.67169">
        <ele>261</ele>
        <time>2017-04-24T08:45:11Z</time>
      </trkpt>
      <trkpt lat="45.9953" lon="4.6716">
        <ele>262</ele>
        <time>2017-04-24T08:45:13Z</time>
      </trkpt>
      <trkpt lat="45.99531" lon="4.67154">
        <ele>262</ele>
        <time>2017-04-24T08:45:14Z</time>
      </trkpt>
      <trkpt lat="45.99532" lon="4.67143">
        <ele>262</ele>
        <time>2017-04-24T08:45:16Z</time>
      </trkpt>
      <trkpt lat="45.99533" lon="4.67138">
        <ele>262</ele>
        <time>2017-04-24T08:45:17Z</time>
      </trkpt>
      <trkpt lat="45.99534" lon="4.67127">
        <ele>262</ele>
        <time>2017-04-24T08:45:19Z</time>
      </trkpt>
      <trkpt lat="45.99535" lon="4.67121">
        <ele>262</ele>
        <time>2017-04-24T08:45:20Z</time>
      </trkpt>
      <trkpt lat="45.99537" lon="4.6711">
        <ele>262</ele>
        <time>2017-04-24T08:45:22Z</time>
      </trkpt>
      <trkpt lat="45.99539" lon="4.67103">
        <ele>262</ele>
        <time>2017-04-24T08:45:23Z</time>
      </trkpt>
      <trkpt lat="45.99541" lon="4.67091">
        <ele>263</ele>
        <time>2017-04-24T08:45:25Z</time>
      </trkpt>
      <trkpt lat="45.99542" lon="4.67085">
        <ele>263</ele>
        <time>2017-04-24T08:45:26Z</time>
      </trkpt>
      <trkpt lat="45.99544" lon="4.67075">
        <ele>264</ele>
        <time>2017-04-24T08:45:28Z</time>
      </trkpt>
      <trkpt lat="45.99545" lon="4.67069">
        <ele>264</ele>
        <time>2017-04-24T08:45:29Z</time>
      </trkpt>
      <trkpt lat="45.99547" lon="4.67059">
        <ele>264</ele>
        <time>2017-04-24T08:45:31Z</time>
      </trkpt>
      <trkpt lat="45.99547" lon="4.67053">
        <ele>264</ele>
        <time>2017-04-24T08:45:32Z</time>
      </trkpt>
      <trkpt lat="45.99548" lon="4.67042">
        <ele>264</ele>
        <time>2017-04-24T08:45:34Z</time>
      </trkpt>
      <trkpt lat="45.99549" lon="4.67037">
        <ele>264</ele>
        <time>2017-04-24T08:45:35Z</time>
      </trkpt>
      <trkpt lat="45.99551" lon="4.67026">
        <ele>264</ele>
        <time>2017-04-24T08:45:37Z</time>
      </trkpt>
      <trkpt lat="45.99552" lon="4.67021">
        <ele>264</ele>
        <time>2017-04-24T08:45:38Z</time>
      </trkpt>
      <trkpt lat="45.99553" lon="4.6701">
        <ele>264</ele>
        <time>2017-04-24T08:45:40Z</time>
      </trkpt>
      <trkpt lat="45.99554" lon="4.67005">
        <ele>264</ele>
        <time>2017-04-24T08:45:41Z</time>
      </trkpt>
      <trkpt lat="45.99555" lon="4.66995">
        <ele>266</ele>
        <time>2017-04-24T08:45:43Z</time>
      </trkpt>
      <trkpt lat="45.99555" lon="4.6699">
        <ele>266</ele>
        <time>2017-04-24T08:45:44Z</time>
      </trkpt>
      <trkpt lat="45.99557" lon="4.66979">
        <ele>266</ele>
        <time>2017-04-24T08:45:46Z</time>
      </trkpt>
      <trkpt lat="45.99557" lon="4.66974">
        <ele>266</ele>
        <time>2017-04-24T08:45:47Z</time>
      </trkpt>
      <trkpt lat="45.99559" lon="4.66964">
        <ele>266</ele>
        <time>2017-04-24T08:45:49Z</time>
      </trkpt>
      <trkpt lat="45.99559" lon="4.66959">
        <ele>266</ele>
        <time>2017-04-24T08:45:50Z</time>
      </trkpt>
      <trkpt lat="45.9956" lon="4.66948">
        <ele>266</ele>
        <time>2017-04-24T08:45:52Z</time>
      </trkpt>
      <trkpt lat="45.99561" lon="4.66943">
        <ele>266</ele>
        <time>2017-04-24T08:45:53Z</time>
      </trkpt>
      <trkpt lat="45.99562" lon="4.66932">
        <ele>267</ele>
        <time>2017-04-24T08:45:55Z</time>
      </trkpt>
      <trkpt lat="45.99563" lon="4.66927">
        <ele>267</ele>
        <time>2017-04-24T08:45:56Z</time>
      </trkpt>
      <trkpt lat="45.99564" lon="4.66916">
        <ele>268</ele>
        <time>2017-04-24T08:45:58Z</time>
      </trkpt>
      <trkpt lat="45.99565" lon="4.66911">
        <ele>268</ele>
        <time>2017-04-24T08:45:59Z</time>
      </trkpt>
      <trkpt lat="45.99565" lon="4.669">
        <ele>268</ele>
        <time>2017-04-24T08:46:01Z</time>
      </trkpt>
      <trkpt lat="45.99566" lon="4.66895">
        <ele>268</ele>
        <time>2017-04-24T08:46:02Z</time>
      </trkpt>
      <trkpt lat="45.99567" lon="4.66884">
        <ele>268</ele>
        <time>2017-04-24T08:46:04Z</time>
      </trkpt>
      <trkpt lat="45.99568" lon="4.66879">
        <ele>268</ele>
        <time>2017-04-24T08:46:05Z</time>
      </trkpt>
      <trkpt lat="45.9957" lon="4.66868">
        <ele>269</ele>
        <time>2017-04-24T08:46:07Z</time>
      </trkpt>
      <trkpt lat="45.99571" lon="4.66862">
        <ele>269</ele>
        <time>2017-04-24T08:46:08Z</time>
      </trkpt>
      <trkpt lat="45.99572" lon="4.66851">
        <ele>269</ele>
        <time>2017-04-24T08:46:10Z</time>
      </trkpt>
      <trkpt lat="45.99573" lon="4.66846">
        <ele>269</ele>
        <time>2017-04-24T08:46:11Z</time>
      </trkpt>
      <trkpt lat="45.99574" lon="4.66835">
        <ele>269</ele>
        <time>2017-04-24T08:46:13Z</time>
      </trkpt>
      <trkpt lat="45.99574" lon="4.6683">
        <ele>270</ele>
        <time>2017-04-24T08:46:14Z</time>
      </trkpt>
      <trkpt lat="45.99576" lon="4.66819">
        <ele>270</ele>
        <time>2017-04-24T08:46:16Z</time>
      </trkpt>
      <trkpt lat="45.99576" lon="4.66814">
        <ele>270</ele>
        <time>2017-04-24T08:46:17Z</time>
      </trkpt>
      <trkpt lat="45.99578" lon="4.66803">
        <ele>270</ele>
        <time>2017-04-24T08:46:19Z</time>
      </trkpt>
      <trkpt lat="45.99579" lon="4.66798">
        <ele>270</ele>
        <time>2017-04-24T08:46:20Z</time>
      </trkpt>
      <trkpt lat="45.9958" lon="4.66787">
        <ele>270</ele>
        <time>2017-04-24T08:46:22Z</time>
      </trkpt>
      <trkpt lat="45.99581" lon="4.66782">
        <ele>270</ele>
        <time>2017-04-24T08:46:23Z</time>
      </trkpt>
      <trkpt lat="45.99583" lon="4.66772">
        <ele>270</ele>
        <time>2017-04-24T08:46:25Z</time>
      </trkpt>
      <trkpt lat="45.99584" lon="4.66767">
        <ele>270</ele>
        <time>2017-04-24T08:46:26Z</time>
      </trkpt>
      <trkpt lat="45.99584" lon="4.66757">
        <ele>270</ele>
        <time>2017-04-24T08:46:28Z</time>
      </trkpt>
      <trkpt lat="45.99585" lon="4.66752">
        <ele>270</ele>
        <time>2017-04-24T08:46:29Z</time>
      </trkpt>
      <trkpt lat="45.99586" lon="4.66741">
        <ele>270</ele>
        <time>2017-04-24T08:46:31Z</time>
      </trkpt>
      <trkpt lat="45.99586" lon="4.66737">
        <ele>270</ele>
        <time>2017-04-24T08:46:32Z</time>
      </trkpt>
      <trkpt lat="45.99587" lon="4.66727">
        <ele>270</ele>
        <time>2017-04-24T08:46:34Z</time>
      </trkpt>
      <trkpt lat="45.99587" lon="4.66722">
        <ele>269</ele>
        <time>2017-04-24T08:46:35Z</time>
      </trkpt>
      <trkpt lat="45.99588" lon="4.66711">
        <ele>270</ele>
        <time>2017-04-24T08:46:37Z</time>
      </trkpt>
      <trkpt lat="45.99589" lon="4.66705">
        <ele>270</ele>
        <time>2017-04-24T08:46:38Z</time>
      </trkpt>
      <trkpt lat="45.99591" lon="4.66693">
        <ele>270</ele>
        <time>2017-04-24T08:46:40Z</time>
      </trkpt>
      <trkpt lat="45.99591" lon="4.66687">
        <ele>270</ele>
        <time>2017-04-24T08:46:41Z</time>
      </trkpt>
      <trkpt lat="45.99592" lon="4.66675">
        <ele>270</ele>
        <time>2017-04-24T08:46:43Z</time>
      </trkpt>
      <trkpt lat="45.99593" lon="4.6667">
        <ele>270</ele>
        <time>2017-04-24T08:46:44Z</time>
      </trkpt>
      <trkpt lat="45.99595" lon="4.66659">
        <ele>271</ele>
        <time>2017-04-24T08:46:46Z</time>
      </trkpt>
      <trkpt lat="45.99595" lon="4.66653">
        <ele>271</ele>
        <time>2017-04-24T08:46:47Z</time>
      </trkpt>
      <trkpt lat="45.99596" lon="4.66647">
        <ele>271</ele>
        <time>2017-04-24T08:46:48Z</time>
      </trkpt>
      <trkpt lat="45.99597" lon="4.6664">
        <ele>271</ele>
        <time>2017-04-24T08:46:49Z</time>
      </trkpt>
      <trkpt lat="45.99598" lon="4.66633">
        <ele>271</ele>
        <time>2017-04-24T08:46:50Z</time>
      </trkpt>
      <trkpt lat="45.996" lon="4.66626">
        <ele>271</ele>
        <time>2017-04-24T08:46:51Z</time>
      </trkpt>
      <trkpt lat="45.99603" lon="4.66614">
        <ele>271</ele>
        <time>2017-04-24T08:46:53Z</time>
      </trkpt>
      <trkpt lat="45.99603" lon="4.66609">
        <ele>271</ele>
        <time>2017-04-24T08:46:54Z</time>
      </trkpt>
      <trkpt lat="45.99605" lon="4.66598">
        <ele>271</ele>
        <time>2017-04-24T08:46:56Z</time>
      </trkpt>
      <trkpt lat="45.99606" lon="4.66593">
        <ele>271</ele>
        <time>2017-04-24T08:46:57Z</time>
      </trkpt>
      <trkpt lat="45.99607" lon="4.66583">
        <ele>271</ele>
        <time>2017-04-24T08:46:59Z</time>
      </trkpt>
      <trkpt lat="45.99608" lon="4.66578">
        <ele>271</ele>
        <time>2017-04-24T08:47:00Z</time>
      </trkpt>
      <trkpt lat="45.99609" lon="4.66567">
        <ele>271</ele>
        <time>2017-04-24T08:47:02Z</time>
      </trkpt>
      <trkpt lat="45.99609" lon="4.66561">
        <ele>271</ele>
        <time>2017-04-24T08:47:03Z</time>
      </trkpt>
      <trkpt lat="45.9961" lon="4.6655">
        <ele>271</ele>
        <time>2017-04-24T08:47:05Z</time>
      </trkpt>
      <trkpt lat="45.99611" lon="4.66544">
        <ele>271</ele>
        <time>2017-04-24T08:47:06Z</time>
      </trkpt>
      <trkpt lat="45.99612" lon="4.66532">
        <ele>271</ele>
        <time>2017-04-24T08:47:08Z</time>
      </trkpt>
      <trkpt lat="45.99613" lon="4.66526">
        <ele>271</ele>
        <time>2017-04-24T08:47:09Z</time>
      </trkpt>
      <trkpt lat="45.99614" lon="4.66514">
        <ele>271</ele>
        <time>2017-04-24T08:47:11Z</time>
      </trkpt>
      <trkpt lat="45.99615" lon="4.66508">
        <ele>271</ele>
        <time>2017-04-24T08:47:12Z</time>
      </trkpt>
      <trkpt lat="45.99617" lon="4.66495">
        <ele>271</ele>
        <time>2017-04-24T08:47:14Z</time>
      </trkpt>
      <trkpt lat="45.99618" lon="4.66489">
        <ele>272</ele>
        <time>2017-04-24T08:47:15Z</time>
      </trkpt>
      <trkpt lat="45.99619" lon="4.66482">
        <ele>272</ele>
        <time>2017-04-24T08:47:16Z</time>
      </trkpt>
      <trkpt lat="45.9962" lon="4.66476">
        <ele>272</ele>
        <time>2017-04-24T08:47:17Z</time>
      </trkpt>
      <trkpt lat="45.99622" lon="4.66464">
        <ele>272</ele>
        <time>2017-04-24T08:47:19Z</time>
      </trkpt>
      <trkpt lat="45.99623" lon="4.66457">
        <ele>272</ele>
        <time>2017-04-24T08:47:20Z</time>
      </trkpt>
      <trkpt lat="45.99624" lon="4.6645">
        <ele>272</ele>
        <time>2017-04-24T08:47:21Z</time>
      </trkpt>
      <trkpt lat="45.99625" lon="4.66443">
        <ele>272</ele>
        <time>2017-04-24T08:47:22Z</time>
      </trkpt>
      <trkpt lat="45.99627" lon="4.6643">
        <ele>272</ele>
        <time>2017-04-24T08:47:24Z</time>
      </trkpt>
      <trkpt lat="45.99628" lon="4.66424">
        <ele>272</ele>
        <time>2017-04-24T08:47:25Z</time>
      </trkpt>
      <trkpt lat="45.99629" lon="4.66412">
        <ele>273</ele>
        <time>2017-04-24T08:47:27Z</time>
      </trkpt>
      <trkpt lat="45.9963" lon="4.66406">
        <ele>273</ele>
        <time>2017-04-24T08:47:28Z</time>
      </trkpt>
      <trkpt lat="45.99631" lon="4.66394">
        <ele>273</ele>
        <time>2017-04-24T08:47:30Z</time>
      </trkpt>
      <trkpt lat="45.99632" lon="4.66388">
        <ele>273</ele>
        <time>2017-04-24T08:47:31Z</time>
      </trkpt>
      <trkpt lat="45.99634" lon="4.66376">
        <ele>274</ele>
        <time>2017-04-24T08:47:33Z</time>
      </trkpt>
      <trkpt lat="45.99634" lon="4.66371">
        <ele>274</ele>
        <time>2017-04-24T08:47:34Z</time>
      </trkpt>
      <trkpt lat="45.99636" lon="4.66359">
        <ele>274</ele>
        <time>2017-04-24T08:47:36Z</time>
      </trkpt>
      <trkpt lat="45.99637" lon="4.66353">
        <ele>274</ele>
        <time>2017-04-24T08:47:37Z</time>
      </trkpt>
      <trkpt lat="45.99638" lon="4.66341">
        <ele>274</ele>
        <time>2017-04-24T08:47:39Z</time>
      </trkpt>
      <trkpt lat="45.99639" lon="4.66335">
        <ele>274</ele>
        <time>2017-04-24T08:47:40Z</time>
      </trkpt>
      <trkpt lat="45.9964" lon="4.66322">
        <ele>274</ele>
        <time>2017-04-24T08:47:42Z</time>
      </trkpt>
      <trkpt lat="45.99641" lon="4.66317">
        <ele>274</ele>
        <time>2017-04-24T08:47:43Z</time>
      </trkpt>
      <trkpt lat="45.99642" lon="4.66304">
        <ele>274</ele>
        <time>2017-04-24T08:47:45Z</time>
      </trkpt>
      <trkpt lat="45.99642" lon="4.66299">
        <ele>274</ele>
        <time>2017-04-24T08:47:46Z</time>
      </trkpt>
      <trkpt lat="45.99643" lon="4.66288">
        <ele>274</ele>
        <time>2017-04-24T08:47:48Z</time>
      </trkpt>
      <trkpt lat="45.99644" lon="4.66283">
        <ele>274</ele>
        <time>2017-04-24T08:47:49Z</time>
      </trkpt>
      <trkpt lat="45.99644" lon="4.66271">
        <ele>274</ele>
        <time>2017-04-24T08:47:51Z</time>
      </trkpt>
      <trkpt lat="45.99645" lon="4.66265">
        <ele>274</ele>
        <time>2017-04-24T08:47:52Z</time>
      </trkpt>
      <trkpt lat="45.99646" lon="4.66259">
        <ele>274</ele>
        <time>2017-04-24T08:47:53Z</time>
      </trkpt>
      <trkpt lat="45.99649" lon="4.66251">
        <ele>273</ele>
        <time>2017-04-24T08:47:54Z</time>
      </trkpt>
      <trkpt lat="45.9965" lon="4.66245">
        <ele>273</ele>
        <time>2017-04-24T08:47:55Z</time>
      </trkpt>
      <trkpt lat="45.99651" lon="4.66238">
        <ele>274</ele>
        <time>2017-04-24T08:47:56Z</time>
      </trkpt>
      <trkpt lat="45.99653" lon="4.66225">
        <ele>274</ele>
        <time>2017-04-24T08:47:58Z</time>
      </trkpt>
      <trkpt lat="45.99654" lon="4.66219">
        <ele>274</ele>
        <time>2017-04-24T08:47:59Z</time>
      </trkpt>
      <trkpt lat="45.99654" lon="4.66213">
        <ele>274</ele>
        <time>2017-04-24T08:48:00Z</time>
      </trkpt>
      <trkpt lat="45.99655" lon="4.66206">
        <ele>274</ele>
        <time>2017-04-24T08:48:01Z</time>
      </trkpt>
      <trkpt lat="45.99655" lon="4.66193">
        <ele>274</ele>
        <time>2017-04-24T08:48:03Z</time>
      </trkpt>
      <trkpt lat="45.99656" lon="4.66187">
        <ele>274</ele>
        <time>2017-04-24T08:48:04Z</time>
      </trkpt>
      <trkpt lat="45.99657" lon="4.6618">
        <ele>274</ele>
        <time>2017-04-24T08:48:05Z</time>
      </trkpt>
      <trkpt lat="45.99657" lon="4.66173">
        <ele>274</ele>
        <time>2017-04-24T08:48:06Z</time>
      </trkpt>
      <trkpt lat="45.99658" lon="4.66166">
        <ele>274</ele>
        <time>2017-04-24T08:48:07Z</time>
      </trkpt>
      <trkpt lat="45.99659" lon="4.6616">
        <ele>274</ele>
        <time>2017-04-24T08:48:08Z</time>
      </trkpt>
      <trkpt lat="45.9966" lon="4.66153">
        <ele>275</ele>
        <time>2017-04-24T08:48:09Z</time>
      </trkpt>
      <trkpt lat="45.99661" lon="4.66146">
        <ele>275</ele>
        <time>2017-04-24T08:48:10Z</time>
      </trkpt>
      <trkpt lat="45.99661" lon="4.6614">
        <ele>275</ele>
        <time>2017-04-24T08:48:11Z</time>
      </trkpt>
      <trkpt lat="45.99662" lon="4.66133">
        <ele>275</ele>
        <time>2017-04-24T08:48:12Z</time>
      </trkpt>
      <trkpt lat="45.99662" lon="4.66126">
        <ele>275</ele>
        <time>2017-04-24T08:48:13Z</time>
      </trkpt>
      <trkpt lat="45.99663" lon="4.6612">
        <ele>275</ele>
        <time>2017-04-24T08:48:14Z</time>
      </trkpt>
      <trkpt lat="45.99664" lon="4.66113">
        <ele>275</ele>
        <time>2017-04-24T08:48:15Z</time>
      </trkpt>
      <trkpt lat="45.99665" lon="4.66106">
        <ele>275</ele>
        <time>2017-04-24T08:48:16Z</time>
      </trkpt>
      <trkpt lat="45.99667" lon="4.66094">
        <ele>276</ele>
        <time>2017-04-24T08:48:18Z</time>
      </trkpt>
      <trkpt lat="45.99668" lon="4.66087">
        <ele>275</ele>
        <time>2017-04-24T08:48:19Z</time>
      </trkpt>
      <trkpt lat="45.99669" lon="4.66081">
        <ele>276</ele>
        <time>2017-04-24T08:48:20Z</time>
      </trkpt>
      <trkpt lat="45.9967" lon="4.66073">
        <ele>275</ele>
        <time>2017-04-24T08:48:21Z</time>
      </trkpt>
      <trkpt lat="45.9967" lon="4.66066">
        <ele>275</ele>
        <time>2017-04-24T08:48:22Z</time>
      </trkpt>
      <trkpt lat="45.99671" lon="4.66059">
        <ele>275</ele>
        <time>2017-04-24T08:48:23Z</time>
      </trkpt>
      <trkpt lat="45.99672" lon="4.66052">
        <ele>275</ele>
        <time>2017-04-24T08:48:24Z</time>
      </trkpt>
      <trkpt lat="45.99673" lon="4.66044">
        <ele>275</ele>
        <time>2017-04-24T08:48:25Z</time>
      </trkpt>
      <trkpt lat="45.99674" lon="4.66037">
        <ele>275</ele>
        <time>2017-04-24T08:48:26Z</time>
      </trkpt>
      <trkpt lat="45.99674" lon="4.6603">
        <ele>275</ele>
        <time>2017-04-24T08:48:27Z</time>
      </trkpt>
      <trkpt lat="45.99675" lon="4.66023">
        <ele>275</ele>
        <time>2017-04-24T08:48:28Z</time>
      </trkpt>
      <trkpt lat="45.99676" lon="4.66017">
        <ele>275</ele>
        <time>2017-04-24T08:48:29Z</time>
      </trkpt>
      <trkpt lat="45.99677" lon="4.6601">
        <ele>275</ele>
        <time>2017-04-24T08:48:30Z</time>
      </trkpt>
      <trkpt lat="45.99678" lon="4.66004">
        <ele>275</ele>
        <time>2017-04-24T08:48:31Z</time>
      </trkpt>
      <trkpt lat="45.99679" lon="4.65991">
        <ele>275</ele>
        <time>2017-04-24T08:48:33Z</time>
      </trkpt>
      <trkpt lat="45.9968" lon="4.65985">
        <ele>275</ele>
        <time>2017-04-24T08:48:34Z</time>
      </trkpt>
      <trkpt lat="45.99681" lon="4.65973">
        <ele>274</ele>
        <time>2017-04-24T08:48:36Z</time>
      </trkpt>
      <trkpt lat="45.99682" lon="4.65967">
        <ele>274</ele>
        <time>2017-04-24T08:48:37Z</time>
      </trkpt>
      <trkpt lat="45.99683" lon="4.65955">
        <ele>274</ele>
        <time>2017-04-24T08:48:39Z</time>
      </trkpt>
      <trkpt lat="45.99684" lon="4.65949">
        <ele>274</ele>
        <time>2017-04-24T08:48:40Z</time>
      </trkpt>
      <trkpt lat="45.99684" lon="4.65942">
        <ele>274</ele>
        <time>2017-04-24T08:48:41Z</time>
      </trkpt>
      <trkpt lat="45.99685" lon="4.65935">
        <ele>274</ele>
        <time>2017-04-24T08:48:42Z</time>
      </trkpt>
      <trkpt lat="45.99686" lon="4.65928">
        <ele>274</ele>
        <time>2017-04-24T08:48:43Z</time>
      </trkpt>
      <trkpt lat="45.99686" lon="4.65921">
        <ele>274</ele>
        <time>2017-04-24T08:48:44Z</time>
      </trkpt>
      <trkpt lat="45.99687" lon="4.65914">
        <ele>274</ele>
        <time>2017-04-24T08:48:45Z</time>
      </trkpt>
      <trkpt lat="45.99688" lon="4.65906">
        <ele>274</ele>
        <time>2017-04-24T08:48:46Z</time>
      </trkpt>
      <trkpt lat="45.99689" lon="4.65899">
        <ele>274</ele>
        <time>2017-04-24T08:48:47Z</time>
      </trkpt>
      <trkpt lat="45.9969" lon="4.65891">
        <ele>274</ele>
        <time>2017-04-24T08:48:48Z</time>
      </trkpt>
      <trkpt lat="45.99691" lon="4.65884">
        <ele>273</ele>
        <time>2017-04-24T08:48:49Z</time>
      </trkpt>
      <trkpt lat="45.99691" lon="4.65877">
        <ele>273</ele>
        <time>2017-04-24T08:48:50Z</time>
      </trkpt>
      <trkpt lat="45.99692" lon="4.6587">
        <ele>273</ele>
        <time>2017-04-24T08:48:51Z</time>
      </trkpt>
      <trkpt lat="45.99692" lon="4.65864">
        <ele>273</ele>
        <time>2017-04-24T08:48:52Z</time>
      </trkpt>
      <trkpt lat="45.99693" lon="4.65857">
        <ele>273</ele>
        <time>2017-04-24T08:48:53Z</time>
      </trkpt>
      <trkpt lat="45.99694" lon="4.65851">
        <ele>273</ele>
        <time>2017-04-24T08:48:54Z</time>
      </trkpt>
      <trkpt lat="45.99695" lon="4.65844">
        <ele>273</ele>
        <time>2017-04-24T08:48:55Z</time>
      </trkpt>
      <trkpt lat="45.99696" lon="4.65836">
        <ele>273</ele>
        <time>2017-04-24T08:48:56Z</time>
      </trkpt>
      <trkpt lat="45.99696" lon="4.65829">
        <ele>273</ele>
        <time>2017-04-24T08:48:57Z</time>
      </trkpt>
      <trkpt lat="45.99697" lon="4.65821">
        <ele>273</ele>
        <time>2017-04-24T08:48:58Z</time>
      </trkpt>
      <trkpt lat="45.99699" lon="4.65812">
        <ele>273</ele>
        <time>2017-04-24T08:48:59Z</time>
      </trkpt>
      <trkpt lat="45.997" lon="4.65804">
        <ele>273</ele>
        <time>2017-04-24T08:49:00Z</time>
      </trkpt>
      <trkpt lat="45.99701" lon="4.65797">
        <ele>273</ele>
        <time>2017-04-24T08:49:01Z</time>
      </trkpt>
      <trkpt lat="45.99702" lon="4.6579">
        <ele>272</ele>
        <time>2017-04-24T08:49:02Z</time>
      </trkpt>
      <trkpt lat="45.99703" lon="4.65782">
        <ele>272</ele>
        <time>2017-04-24T08:49:03Z</time>
      </trkpt>
      <trkpt lat="45.99703" lon="4.65775">
        <ele>272</ele>
        <time>2017-04-24T08:49:04Z</time>
      </trkpt>
      <trkpt lat="45.99704" lon="4.65768">
        <ele>272</ele>
        <time>2017-04-24T08:49:05Z</time>
      </trkpt>
      <trkpt lat="45.99705" lon="4.65761">
        <ele>272</ele>
        <time>2017-04-24T08:49:06Z</time>
      </trkpt>
      <trkpt lat="45.99705" lon="4.65755">
        <ele>272</ele>
        <time>2017-04-24T08:49:07Z</time>
      </trkpt>
      <trkpt lat="45.99705" lon="4.65748">
        <ele>273</ele>
        <time>2017-04-24T08:49:08Z</time>
      </trkpt>
      <trkpt lat="45.99706" lon="4.65741">
        <ele>273</ele>
        <time>2017-04-24T08:49:09Z</time>
      </trkpt>
      <trkpt lat="45.99707" lon="4.65734">
        <ele>273</ele>
        <time>2017-04-24T08:49:10Z</time>
      </trkpt>
      <trkpt lat="45.99709" lon="4.65727">
        <ele>274</ele>
        <time>2017-04-24T08:49:11Z</time>
      </trkpt>
      <trkpt lat="45.9971" lon="4.6572">
        <ele>274</ele>
        <time>2017-04-24T08:49:12Z</time>
      </trkpt>
      <trkpt lat="45.99711" lon="4.65712">
        <ele>274</ele>
        <time>2017-04-24T08:49:13Z</time>
      </trkpt>
      <trkpt lat="45.99712" lon="4.65706">
        <ele>274</ele>
        <time>2017-04-24T08:49:14Z</time>
      </trkpt>
      <trkpt lat="45.99713" lon="4.65698">
        <ele>274</ele>
        <time>2017-04-24T08:49:15Z</time>
      </trkpt>
      <trkpt lat="45.99714" lon="4.65691">
        <ele>274</ele>
        <time>2017-04-24T08:49:16Z</time>
      </trkpt>
      <trkpt lat="45.99715" lon="4.65684">
        <ele>274</ele>
        <time>2017-04-24T08:49:17Z</time>
      </trkpt>
      <trkpt lat="45.99716" lon="4.65677">
        <ele>274</ele>
        <time>2017-04-24T08:49:18Z</time>
      </trkpt>
      <trkpt lat="45.99717" lon="4.65671">
        <ele>274</ele>
        <time>2017-04-24T08:49:19Z</time>
      </trkpt>
      <trkpt lat="45.99717" lon="4.65664">
        <ele>276</ele>
        <time>2017-04-24T08:49:20Z</time>
      </trkpt>
      <trkpt lat="45.99718" lon="4.65658">
        <ele>276</ele>
        <time>2017-04-24T08:49:21Z</time>
      </trkpt>
      <trkpt lat="45.99719" lon="4.65651">
        <ele>276</ele>
        <time>2017-04-24T08:49:22Z</time>
      </trkpt>
      <trkpt lat="45.9972" lon="4.65644">
        <ele>276</ele>
        <time>2017-04-24T08:49:23Z</time>
      </trkpt>
      <trkpt lat="45.99721" lon="4.65637">
        <ele>276</ele>
        <time>2017-04-24T08:49:24Z</time>
      </trkpt>
      <trkpt lat="45.99722" lon="4.65628">
        <ele>276</ele>
        <time>2017-04-24T08:49:25Z</time>
      </trkpt>
      <trkpt lat="45.99723" lon="4.65622">
        <ele>276</ele>
        <time>2017-04-24T08:49:26Z</time>
      </trkpt>
      <trkpt lat="45.99725" lon="4.65609">
        <ele>276</ele>
        <time>2017-04-24T08:49:28Z</time>
      </trkpt>
      <trkpt lat="45.99726" lon="4.65603">
        <ele>276</ele>
        <time>2017-04-24T08:49:29Z</time>
      </trkpt>
      <trkpt lat="45.99727" lon="4.65596">
        <ele>276</ele>
        <time>2017-04-24T08:49:30Z</time>
      </trkpt>
      <trkpt lat="45.99728" lon="4.65589">
        <ele>276</ele>
        <time>2017-04-24T08:49:31Z</time>
      </trkpt>
      <trkpt lat="45.99729" lon="4.65582">
        <ele>277</ele>
        <time>2017-04-24T08:49:32Z</time>
      </trkpt>
      <trkpt lat="45.9973" lon="4.65576">
        <ele>277</ele>
        <time>2017-04-24T08:49:33Z</time>
      </trkpt>
      <trkpt lat="45.99731" lon="4.65563">
        <ele>277</ele>
        <time>2017-04-24T08:49:35Z</time>
      </trkpt>
      <trkpt lat="45.99732" lon="4.65556">
        <ele>278</ele>
        <time>2017-04-24T08:49:36Z</time>
      </trkpt>
      <trkpt lat="45.99733" lon="4.65544">
        <ele>278</ele>
        <time>2017-04-24T08:49:38Z</time>
      </trkpt>
      <trkpt lat="45.99734" lon="4.65538">
        <ele>278</ele>
        <time>2017-04-24T08:49:39Z</time>
      </trkpt>
      <trkpt lat="45.99734" lon="4.65525">
        <ele>278</ele>
        <time>2017-04-24T08:49:41Z</time>
      </trkpt>
      <trkpt lat="45.99735" lon="4.65519">
        <ele>278</ele>
        <time>2017-04-24T08:49:42Z</time>
      </trkpt>
      <trkpt lat="45.99737" lon="4.65507">
        <ele>278</ele>
        <time>2017-04-24T08:49:44Z</time>
      </trkpt>
      <trkpt lat="45.99738" lon="4.65502">
        <ele>278</ele>
        <time>2017-04-24T08:49:45Z</time>
      </trkpt>
      <trkpt lat="45.99739" lon="4.65491">
        <ele>279</ele>
        <time>2017-04-24T08:49:47Z</time>
      </trkpt>
      <trkpt lat="45.9974" lon="4.65485">
        <ele>279</ele>
        <time>2017-04-24T08:49:48Z</time>
      </trkpt>
      <trkpt lat="45.99742" lon="4.65472">
        <ele>279</ele>
        <time>2017-04-24T08:49:50Z</time>
      </trkpt>
      <trkpt lat="45.99742" lon="4.65466">
        <ele>279</ele>
        <time>2017-04-24T08:49:51Z</time>
      </trkpt>
      <trkpt lat="45.99743" lon="4.65453">
        <ele>280</ele>
        <time>2017-04-24T08:49:53Z</time>
      </trkpt>
      <trkpt lat="45.99744" lon="4.65447">
        <ele>280</ele>
        <time>2017-04-24T08:49:54Z</time>
      </trkpt>
      <trkpt lat="45.99745" lon="4.65435">
        <ele>279</ele>
        <time>2017-04-24T08:49:56Z</time>
      </trkpt>
      <trkpt lat="45.99745" lon="4.65428">
        <ele>279</ele>
        <time>2017-04-24T08:49:57Z</time>
      </trkpt>
      <trkpt lat="45.99746" lon="4.65416">
        <ele>279</ele>
        <time>2017-04-24T08:49:59Z</time>
      </trkpt>
      <trkpt lat="45.99746" lon="4.6541">
        <ele>280</ele>
        <time>2017-04-24T08:50:00Z</time>
      </trkpt>
      <trkpt lat="45.99748" lon="4.65399">
        <ele>280</ele>
        <time>2017-04-24T08:50:02Z</time>
      </trkpt>
      <trkpt lat="45.99748" lon="4.65393">
        <ele>280</ele>
        <time>2017-04-24T08:50:03Z</time>
      </trkpt>
      <trkpt lat="45.9975" lon="4.65382">
        <ele>279</ele>
        <time>2017-04-24T08:50:05Z</time>
      </trkpt>
      <trkpt lat="45.9975" lon="4.65376">
        <ele>279</ele>
        <time>2017-04-24T08:50:06Z</time>
      </trkpt>
      <trkpt lat="45.99751" lon="4.65365">
        <ele>279</ele>
        <time>2017-04-24T08:50:08Z</time>
      </trkpt>
      <trkpt lat="45.99752" lon="4.6536">
        <ele>279</ele>
        <time>2017-04-24T08:50:09Z</time>
      </trkpt>
      <trkpt lat="45.99754" lon="4.65349">
        <ele>280</ele>
        <time>2017-04-24T08:50:11Z</time>
      </trkpt>
      <trkpt lat="45.99754" lon="4.65344">
        <ele>280</ele>
        <time>2017-04-24T08:50:12Z</time>
      </trkpt>
      <trkpt lat="45.99756" lon="4.65333">
        <ele>281</ele>
        <time>2017-04-24T08:50:14Z</time>
      </trkpt>
      <trkpt lat="45.99757" lon="4.65328">
        <ele>280</ele>
        <time>2017-04-24T08:50:15Z</time>
      </trkpt>
      <trkpt lat="45.99759" lon="4.65317">
        <ele>280</ele>
        <time>2017-04-24T08:50:17Z</time>
      </trkpt>
      <trkpt lat="45.99759" lon="4.65311">
        <ele>280</ele>
        <time>2017-04-24T08:50:18Z</time>
      </trkpt>
      <trkpt lat="45.99761" lon="4.65301">
        <ele>280</ele>
        <time>2017-04-24T08:50:20Z</time>
      </trkpt>
      <trkpt lat="45.99762" lon="4.65294">
        <ele>280</ele>
        <time>2017-04-24T08:50:21Z</time>
      </trkpt>
      <trkpt lat="45.99764" lon="4.65281">
        <ele>280</ele>
        <time>2017-04-24T08:50:23Z</time>
      </trkpt>
      <trkpt lat="45.99764" lon="4.65275">
        <ele>280</ele>
        <time>2017-04-24T08:50:24Z</time>
      </trkpt>
      <trkpt lat="45.99765" lon="4.65263">
        <ele>281</ele>
        <time>2017-04-24T08:50:26Z</time>
      </trkpt>
      <trkpt lat="45.99765" lon="4.65258">
        <ele>281</ele>
        <time>2017-04-24T08:50:27Z</time>
      </trkpt>
      <trkpt lat="45.99766" lon="4.65245">
        <ele>282</ele>
        <time>2017-04-24T08:50:29Z</time>
      </trkpt>
      <trkpt lat="45.99766" lon="4.65239">
        <ele>282</ele>
        <time>2017-04-24T08:50:30Z</time>
      </trkpt>
      <trkpt lat="45.99767" lon="4.65228">
        <ele>282</ele>
        <time>2017-04-24T08:50:32Z</time>
      </trkpt>
      <trkpt lat="45.99767" lon="4.65222">
        <ele>281</ele>
        <time>2017-04-24T08:50:33Z</time>
      </trkpt>
      <trkpt lat="45.99768" lon="4.65215">
        <ele>281</ele>
        <time>2017-04-24T08:50:34Z</time>
      </trkpt>
      <trkpt lat="45.99769" lon="4.65209">
        <ele>281</ele>
        <time>2017-04-24T08:50:35Z</time>
      </trkpt>
      <trkpt lat="45.9977" lon="4.65202">
        <ele>281</ele>
        <time>2017-04-24T08:50:36Z</time>
      </trkpt>
      <trkpt lat="45.9977" lon="4.65195">
        <ele>282</ele>
        <time>2017-04-24T08:50:37Z</time>
      </trkpt>
      <trkpt lat="45.99772" lon="4.65188">
        <ele>282</ele>
        <time>2017-04-24T08:50:38Z</time>
      </trkpt>
      <trkpt lat="45.99772" lon="4.65182">
        <ele>282</ele>
        <time>2017-04-24T08:50:39Z</time>
      </trkpt>
      <trkpt lat="45.99774" lon="4.6517">
        <ele>282</ele>
        <time>2017-04-24T08:50:41Z</time>
      </trkpt>
      <trkpt lat="45.99775" lon="4.65165">
        <ele>283</ele>
        <time>2017-04-24T08:50:42Z</time>
      </trkpt>
      <trkpt lat="45.99776" lon="4.65154">
        <ele>282</ele>
        <time>2017-04-24T08:50:44Z</time>
      </trkpt>
      <trkpt lat="45.99777" lon="4.65149">
        <ele>282</ele>
        <time>2017-04-24T08:50:45Z</time>
      </trkpt>
      <trkpt lat="45.99779" lon="4.65137">
        <ele>282</ele>
        <time>2017-04-24T08:50:47Z</time>
      </trkpt>
      <trkpt lat="45.9978" lon="4.65131">
        <ele>282</ele>
        <time>2017-04-24T08:50:48Z</time>
      </trkpt>
      <trkpt lat="45.99781" lon="4.65119">
        <ele>282</ele>
        <time>2017-04-24T08:50:50Z</time>
      </trkpt>
      <trkpt lat="45.99782" lon="4.65113">
        <ele>282</ele>
        <time>2017-04-24T08:50:51Z</time>
      </trkpt>
      <trkpt lat="45.99783" lon="4.65101">
        <ele>282</ele>
        <time>2017-04-24T08:50:53Z</time>
      </trkpt>
      <trkpt lat="45.99784" lon="4.65095">
        <ele>282</ele>
        <time>2017-04-24T08:50:54Z</time>
      </trkpt>
      <trkpt lat="45.99786" lon="4.65083">
        <ele>283</ele>
        <time>2017-04-24T08:50:56Z</time>
      </trkpt>
      <trkpt lat="45.99786" lon="4.65077">
        <ele>283</ele>
        <time>2017-04-24T08:50:57Z</time>
      </trkpt>
      <trkpt lat="45.99787" lon="4.65065">
        <ele>283</ele>
        <time>2017-04-24T08:50:59Z</time>
      </trkpt>
      <trkpt lat="45.99787" lon="4.65059">
        <ele>283</ele>
        <time>2017-04-24T08:51:00Z</time>
      </trkpt>
      <trkpt lat="45.99789" lon="4.65049">
        <ele>283</ele>
        <time>2017-04-24T08:51:02Z</time>
      </trkpt>
      <trkpt lat="45.9979" lon="4.65044">
        <ele>283</ele>
        <time>2017-04-24T08:51:03Z</time>
      </trkpt>
      <trkpt lat="45.99792" lon="4.65032">
        <ele>283</ele>
        <time>2017-04-24T08:51:05Z</time>
      </trkpt>
      <trkpt lat="45.99793" lon="4.65026">
        <ele>283</ele>
        <time>2017-04-24T08:51:06Z</time>
      </trkpt>
      <trkpt lat="45.99794" lon="4.65014">
        <ele>283</ele>
        <time>2017-04-24T08:51:08Z</time>
      </trkpt>
      <trkpt lat="45.99795" lon="4.65008">
        <ele>283</ele>
        <time>2017-04-24T08:51:09Z</time>
      </trkpt>
      <trkpt lat="45.99797" lon="4.64996">
        <ele>284</ele>
        <time>2017-04-24T08:51:11Z</time>
      </trkpt>
      <trkpt lat="45.99798" lon="4.6499">
        <ele>284</ele>
        <time>2017-04-24T08:51:12Z</time>
      </trkpt>
      <trkpt lat="45.998" lon="4.64979">
        <ele>284</ele>
        <time>2017-04-24T08:51:14Z</time>
      </trkpt>
      <trkpt lat="45.998" lon="4.64973">
        <ele>284</ele>
        <time>2017-04-24T08:51:15Z</time>
      </trkpt>
      <trkpt lat="45.99802" lon="4.64961">
        <ele>285</ele>
        <time>2017-04-24T08:51:17Z</time>
      </trkpt>
      <trkpt lat="45.99802" lon="4.64955">
        <ele>285</ele>
        <time>2017-04-24T08:51:18Z</time>
      </trkpt>
      <trkpt lat="45.99803" lon="4.64949">
        <ele>285</ele>
        <time>2017-04-24T08:51:19Z</time>
      </trkpt>
      <trkpt lat="45.99804" lon="4.64942">
        <ele>285</ele>
        <time>2017-04-24T08:51:20Z</time>
      </trkpt>
      <trkpt lat="45.99805" lon="4.64931">
        <ele>285</ele>
        <time>2017-04-24T08:51:22Z</time>
      </trkpt>
      <trkpt lat="45.99806" lon="4.64926">
        <ele>285</ele>
        <time>2017-04-24T08:51:23Z</time>
      </trkpt>
      <trkpt lat="45.99807" lon="4.64914">
        <ele>286</ele>
        <time>2017-04-24T08:51:25Z</time>
      </trkpt>
      <trkpt lat="45.99808" lon="4.64908">
        <ele>286</ele>
        <time>2017-04-24T08:51:26Z</time>
      </trkpt>
      <trkpt lat="45.9981" lon="4.64897">
        <ele>286</ele>
        <time>2017-04-24T08:51:28Z</time>
      </trkpt>
      <trkpt lat="45.99811" lon="4.64891">
        <ele>286</ele>
        <time>2017-04-24T08:51:29Z</time>
      </trkpt>
      <trkpt lat="45.99812" lon="4.64881">
        <ele>286</ele>
        <time>2017-04-24T08:51:31Z</time>
      </trkpt>
      <trkpt lat="45.99813" lon="4.64876">
        <ele>286</ele>
        <time>2017-04-24T08:51:32Z</time>
      </trkpt>
      <trkpt lat="45.99816" lon="4.64866">
        <ele>286</ele>
        <time>2017-04-24T08:51:34Z</time>
      </trkpt>
      <trkpt lat="45.99817" lon="4.64861">
        <ele>286</ele>
        <time>2017-04-24T08:51:35Z</time>
      </trkpt>
      <trkpt lat="45.99819" lon="4.6485">
        <ele>286</ele>
        <time>2017-04-24T08:51:37Z</time>
      </trkpt>
      <trkpt lat="45.9982" lon="4.64844">
        <ele>286</ele>
        <time>2017-04-24T08:51:38Z</time>
      </trkpt>
      <trkpt lat="45.99821" lon="4.64833">
        <ele>286</ele>
        <time>2017-04-24T08:51:40Z</time>
      </trkpt>
      <trkpt lat="45.99822" lon="4.64827">
        <ele>286</ele>
        <time>2017-04-24T08:51:41Z</time>
      </trkpt>
      <trkpt lat="45.99824" lon="4.64816">
        <ele>286</ele>
        <time>2017-04-24T08:51:43Z</time>
      </trkpt>
      <trkpt lat="45.99825" lon="4.6481">
        <ele>287</ele>
        <time>2017-04-24T08:51:44Z</time>
      </trkpt>
      <trkpt lat="45.99828" lon="4.64798">
        <ele>287</ele>
        <time>2017-04-24T08:51:46Z</time>
      </trkpt>
      <trkpt lat="45.99829" lon="4.64792">
        <ele>287</ele>
        <time>2017-04-24T08:51:47Z</time>
      </trkpt>
      <trkpt lat="45.9983" lon="4.64786">
        <ele>287</ele>
        <time>2017-04-24T08:51:48Z</time>
      </trkpt>
      <trkpt lat="45.9983" lon="4.6478">
        <ele>287</ele>
        <time>2017-04-24T08:51:49Z</time>
      </trkpt>
      <trkpt lat="45.99831" lon="4.64767">
        <ele>287</ele>
        <time>2017-04-24T08:51:51Z</time>
      </trkpt>
      <trkpt lat="45.99832" lon="4.64761">
        <ele>287</ele>
        <time>2017-04-24T08:51:52Z</time>
      </trkpt>
      <trkpt lat="45.99833" lon="4.64755">
        <ele>287</ele>
        <time>2017-04-24T08:51:53Z</time>
      </trkpt>
      <trkpt lat="45.99835" lon="4.64746">
        <ele>287</ele>
        <time>2017-04-24T08:51:54Z</time>
      </trkpt>
      <trkpt lat="45.99836" lon="4.6474">
        <ele>286</ele>
        <time>2017-04-24T08:51:55Z</time>
      </trkpt>
      <trkpt lat="45.99836" lon="4.64733">
        <ele>286</ele>
        <time>2017-04-24T08:51:56Z</time>
      </trkpt>
      <trkpt lat="45.99838" lon="4.64721">
        <ele>286</ele>
        <time>2017-04-24T08:51:58Z</time>
      </trkpt>
      <trkpt lat="45.9984" lon="4.64712">
        <ele>286</ele>
        <time>2017-04-24T08:51:59Z</time>
      </trkpt>
      <trkpt lat="45.99841" lon="4.64704">
        <ele>286</ele>
        <time>2017-04-24T08:52:00Z</time>
      </trkpt>
      <trkpt lat="45.99842" lon="4.64698">
        <ele>286</ele>
        <time>2017-04-24T08:52:01Z</time>
      </trkpt>
      <trkpt lat="45.99844" lon="4.64685">
        <ele>286</ele>
        <time>2017-04-24T08:52:03Z</time>
      </trkpt>
      <trkpt lat="45.99844" lon="4.6468">
        <ele>286</ele>
        <time>2017-04-24T08:52:04Z</time>
      </trkpt>
      <trkpt lat="45.99846" lon="4.64668">
        <ele>287</ele>
        <time>2017-04-24T08:52:06Z</time>
      </trkpt>
      <trkpt lat="45.99846" lon="4.64662">
        <ele>287</ele>
        <time>2017-04-24T08:52:07Z</time>
      </trkpt>
      <trkpt lat="45.99849" lon="4.6465">
        <ele>287</ele>
        <time>2017-04-24T08:52:09Z</time>
      </trkpt>
      <trkpt lat="45.99849" lon="4.64645">
        <ele>287</ele>
        <time>2017-04-24T08:52:10Z</time>
      </trkpt>
      <trkpt lat="45.99851" lon="4.64636">
        <ele>287</ele>
        <time>2017-04-24T08:52:12Z</time>
      </trkpt>
      <trkpt lat="45.99852" lon="4.64631">
        <ele>287</ele>
        <time>2017-04-24T08:52:13Z</time>
      </trkpt>
      <trkpt lat="45.99854" lon="4.6462">
        <ele>288</ele>
        <time>2017-04-24T08:52:15Z</time>
      </trkpt>
      <trkpt lat="45.99854" lon="4.64614">
        <ele>288</ele>
        <time>2017-04-24T08:52:16Z</time>
      </trkpt>
      <trkpt lat="45.99856" lon="4.64602">
        <ele>288</ele>
        <time>2017-04-24T08:52:18Z</time>
      </trkpt>
      <trkpt lat="45.99856" lon="4.64595">
        <ele>288</ele>
        <time>2017-04-24T08:52:19Z</time>
      </trkpt>
      <trkpt lat="45.99857" lon="4.64589">
        <ele>288</ele>
        <time>2017-04-24T08:52:20Z</time>
      </trkpt>
      <trkpt lat="45.99858" lon="4.64583">
        <ele>290</ele>
        <time>2017-04-24T08:52:21Z</time>
      </trkpt>
      <trkpt lat="45.9986" lon="4.64571">
        <ele>290</ele>
        <time>2017-04-24T08:52:23Z</time>
      </trkpt>
      <trkpt lat="45.99861" lon="4.64565">
        <ele>290</ele>
        <time>2017-04-24T08:52:24Z</time>
      </trkpt>
      <trkpt lat="45.99863" lon="4.64555">
        <ele>290</ele>
        <time>2017-04-24T08:52:26Z</time>
      </trkpt>
      <trkpt lat="45.99864" lon="4.6455">
        <ele>290</ele>
        <time>2017-04-24T08:52:27Z</time>
      </trkpt>
      <trkpt lat="45.99865" lon="4.64541">
        <ele>290</ele>
        <time>2017-04-24T08:52:29Z</time>
      </trkpt>
      <trkpt lat="45.99866" lon="4.64536">
        <ele>290</ele>
        <time>2017-04-24T08:52:30Z</time>
      </trkpt>
      <trkpt lat="45.99869" lon="4.64526">
        <ele>290</ele>
        <time>2017-04-24T08:52:32Z</time>
      </trkpt>
      <trkpt lat="45.99869" lon="4.64521">
        <ele>290</ele>
        <time>2017-04-24T08:52:33Z</time>
      </trkpt>
      <trkpt lat="45.9987" lon="4.64509">
        <ele>291</ele>
        <time>2017-04-24T08:52:35Z</time>
      </trkpt>
      <trkpt lat="45.99871" lon="4.64504">
        <ele>291</ele>
        <time>2017-04-24T08:52:36Z</time>
      </trkpt>
      <trkpt lat="45.99873" lon="4.64492">
        <ele>292</ele>
        <time>2017-04-24T08:52:38Z</time>
      </trkpt>
      <trkpt lat="45.99874" lon="4.64487">
        <ele>292</ele>
        <time>2017-04-24T08:52:39Z</time>
      </trkpt>
      <trkpt lat="45.99876" lon="4.64476">
        <ele>292</ele>
        <time>2017-04-24T08:52:41Z</time>
      </trkpt>
      <trkpt lat="45.99877" lon="4.64471">
        <ele>292</ele>
        <time>2017-04-24T08:52:42Z</time>
      </trkpt>
      <trkpt lat="45.99876" lon="4.64462">
        <ele>292</ele>
        <time>2017-04-24T08:52:44Z</time>
      </trkpt>
      <trkpt lat="45.99877" lon="4.64458">
        <ele>292</ele>
        <time>2017-04-24T08:52:45Z</time>
      </trkpt>
      <trkpt lat="45.99878" lon="4.64448">
        <ele>292</ele>
        <time>2017-04-24T08:52:47Z</time>
      </trkpt>
      <trkpt lat="45.99879" lon="4.64443">
        <ele>292</ele>
        <time>2017-04-24T08:52:48Z</time>
      </trkpt>
      <trkpt lat="45.9988" lon="4.64434">
        <ele>292</ele>
        <time>2017-04-24T08:52:50Z</time>
      </trkpt>
      <trkpt lat="45.99881" lon="4.64429">
        <ele>292</ele>
        <time>2017-04-24T08:52:51Z</time>
      </trkpt>
      <trkpt lat="45.99883" lon="4.64417">
        <ele>292</ele>
        <time>2017-04-24T08:52:53Z</time>
      </trkpt>
      <trkpt lat="45.99885" lon="4.64411">
        <ele>294</ele>
        <time>2017-04-24T08:52:54Z</time>
      </trkpt>
      <trkpt lat="45.99886" lon="4.64401">
        <ele>294</ele>
        <time>2017-04-24T08:52:56Z</time>
      </trkpt>
      <trkpt lat="45.99887" lon="4.64396">
        <ele>294</ele>
        <time>2017-04-24T08:52:57Z</time>
      </trkpt>
      <trkpt lat="45.99889" lon="4.64386">
        <ele>294</ele>
        <time>2017-04-24T08:52:59Z</time>
      </trkpt>
      <trkpt lat="45.99889" lon="4.64382">
        <ele>294</ele>
        <time>2017-04-24T08:53:00Z</time>
      </trkpt>
      <trkpt lat="45.99891" lon="4.64372">
        <ele>294</ele>
        <time>2017-04-24T08:53:02Z</time>
      </trkpt>
      <trkpt lat="45.99892" lon="4.64368">
        <ele>294</ele>
        <time>2017-04-24T08:53:03Z</time>
      </trkpt>
      <trkpt lat="45.99893" lon="4.64358">
        <ele>294</ele>
        <time>2017-04-24T08:53:05Z</time>
      </trkpt>
      <trkpt lat="45.99894" lon="4.64352">
        <ele>294</ele>
        <time>2017-04-24T08:53:06Z</time>
      </trkpt>
      <trkpt lat="45.99896" lon="4.64342">
        <ele>294</ele>
        <time>2017-04-24T08:53:08Z</time>
      </trkpt>
      <trkpt lat="45.99897" lon="4.64338">
        <ele>294</ele>
        <time>2017-04-24T08:53:09Z</time>
      </trkpt>
      <trkpt lat="45.99898" lon="4.64328">
        <ele>296</ele>
        <time>2017-04-24T08:53:11Z</time>
      </trkpt>
      <trkpt lat="45.99899" lon="4.64324">
        <ele>296</ele>
        <time>2017-04-24T08:53:12Z</time>
      </trkpt>
      <trkpt lat="45.99902" lon="4.64313">
        <ele>296</ele>
        <time>2017-04-24T08:53:14Z</time>
      </trkpt>
      <trkpt lat="45.99903" lon="4.64307">
        <ele>296</ele>
        <time>2017-04-24T08:53:15Z</time>
      </trkpt>
      <trkpt lat="45.99903" lon="4.64297">
        <ele>296</ele>
        <time>2017-04-24T08:53:17Z</time>
      </trkpt>
      <trkpt lat="45.99903" lon="4.64292">
        <ele>296</ele>
        <time>2017-04-24T08:53:18Z</time>
      </trkpt>
      <trkpt lat="45.99904" lon="4.64283">
        <ele>296</ele>
        <time>2017-04-24T08:53:20Z</time>
      </trkpt>
      <trkpt lat="45.99904" lon="4.64278">
        <ele>297</ele>
        <time>2017-04-24T08:53:21Z</time>
      </trkpt>
      <trkpt lat="45.99905" lon="4.64269">
        <ele>297</ele>
        <time>2017-04-24T08:53:23Z</time>
      </trkpt>
      <trkpt lat="45.99906" lon="4.64263">
        <ele>296</ele>
        <time>2017-04-24T08:53:24Z</time>
      </trkpt>
      <trkpt lat="45.99907" lon="4.64252">
        <ele>296</ele>
        <time>2017-04-24T08:53:26Z</time>
      </trkpt>
      <trkpt lat="45.99908" lon="4.64247">
        <ele>297</ele>
        <time>2017-04-24T08:53:27Z</time>
      </trkpt>
      <trkpt lat="45.99909" lon="4.64236">
        <ele>297</ele>
        <time>2017-04-24T08:53:29Z</time>
      </trkpt>
      <trkpt lat="45.9991" lon="4.64231">
        <ele>297</ele>
        <time>2017-04-24T08:53:30Z</time>
      </trkpt>
      <trkpt lat="45.99912" lon="4.64221">
        <ele>297</ele>
        <time>2017-04-24T08:53:32Z</time>
      </trkpt>
      <trkpt lat="45.99913" lon="4.64216">
        <ele>297</ele>
        <time>2017-04-24T08:53:33Z</time>
      </trkpt>
      <trkpt lat="45.99915" lon="4.64206">
        <ele>297</ele>
        <time>2017-04-24T08:53:35Z</time>
      </trkpt>
      <trkpt lat="45.99916" lon="4.64201">
        <ele>297</ele>
        <time>2017-04-24T08:53:36Z</time>
      </trkpt>
      <trkpt lat="45.99918" lon="4.64191">
        <ele>295</ele>
        <time>2017-04-24T08:53:38Z</time>
      </trkpt>
      <trkpt lat="45.99919" lon="4.64185">
        <ele>295</ele>
        <time>2017-04-24T08:53:39Z</time>
      </trkpt>
      <trkpt lat="45.9992" lon="4.64176">
        <ele>295</ele>
        <time>2017-04-24T08:53:41Z</time>
      </trkpt>
      <trkpt lat="45.99921" lon="4.6417">
        <ele>296</ele>
        <time>2017-04-24T08:53:42Z</time>
      </trkpt>
      <trkpt lat="45.99923" lon="4.64159">
        <ele>296</ele>
        <time>2017-04-24T08:53:44Z</time>
      </trkpt>
      <trkpt lat="45.99924" lon="4.64152">
        <ele>296</ele>
        <time>2017-04-24T08:53:45Z</time>
      </trkpt>
      <trkpt lat="45.99925" lon="4.64141">
        <ele>296</ele>
        <time>2017-04-24T08:53:47Z</time>
      </trkpt>
      <trkpt lat="45.99926" lon="4.64136">
        <ele>296</ele>
        <time>2017-04-24T08:53:48Z</time>
      </trkpt>
      <trkpt lat="45.99927" lon="4.64126">
        <ele>296</ele>
        <time>2017-04-24T08:53:50Z</time>
      </trkpt>
      <trkpt lat="45.99928" lon="4.64122">
        <ele>296</ele>
        <time>2017-04-24T08:53:51Z</time>
      </trkpt>
      <trkpt lat="45.99929" lon="4.64112">
        <ele>296</ele>
        <time>2017-04-24T08:53:53Z</time>
      </trkpt>
      <trkpt lat="45.99929" lon="4.64107">
        <ele>297</ele>
        <time>2017-04-24T08:53:54Z</time>
      </trkpt>
      <trkpt lat="45.99931" lon="4.64097">
        <ele>297</ele>
        <time>2017-04-24T08:53:56Z</time>
      </trkpt>
      <trkpt lat="45.99931" lon="4.64093">
        <ele>297</ele>
        <time>2017-04-24T08:53:57Z</time>
      </trkpt>
      <trkpt lat="45.99932" lon="4.64083">
        <ele>298</ele>
        <time>2017-04-24T08:53:59Z</time>
      </trkpt>
      <trkpt lat="45.99932" lon="4.64078">
        <ele>298</ele>
        <time>2017-04-24T08:54:00Z</time>
      </trkpt>
      <trkpt lat="45.99934" lon="4.64068">
        <ele>298</ele>
        <time>2017-04-24T08:54:02Z</time>
      </trkpt>
      <trkpt lat="45.99934" lon="4.64063">
        <ele>298</ele>
        <time>2017-04-24T08:54:03Z</time>
      </trkpt>
      <trkpt lat="45.99935" lon="4.64052">
        <ele>299</ele>
        <time>2017-04-24T08:54:05Z</time>
      </trkpt>
      <trkpt lat="45.99935" lon="4.64047">
        <ele>299</ele>
        <time>2017-04-24T08:54:06Z</time>
      </trkpt>
      <trkpt lat="45.99936" lon="4.64035">
        <ele>299</ele>
        <time>2017-04-24T08:54:08Z</time>
      </trkpt>
      <trkpt lat="45.99936" lon="4.6403">
        <ele>299</ele>
        <time>2017-04-24T08:54:09Z</time>
      </trkpt>
      <trkpt lat="45.99937" lon="4.6402">
        <ele>300</ele>
        <time>2017-04-24T08:54:11Z</time>
      </trkpt>
      <trkpt lat="45.99937" lon="4.64014">
        <ele>300</ele>
        <time>2017-04-24T08:54:12Z</time>
      </trkpt>
      <trkpt lat="45.99937" lon="4.64008">
        <ele>300</ele>
        <time>2017-04-24T08:54:13Z</time>
      </trkpt>
      <trkpt lat="45.99939" lon="4.64">
        <ele>301</ele>
        <time>2017-04-24T08:54:14Z</time>
      </trkpt>
      <trkpt lat="45.9994" lon="4.63987">
        <ele>300</ele>
        <time>2017-04-24T08:54:16Z</time>
      </trkpt>
      <trkpt lat="45.9994" lon="4.63981">
        <ele>300</ele>
        <time>2017-04-24T08:54:17Z</time>
      </trkpt>
      <trkpt lat="45.99938" lon="4.63971">
        <ele>300</ele>
        <time>2017-04-24T08:54:19Z</time>
      </trkpt>
      <trkpt lat="45.99937" lon="4.63966">
        <ele>300</ele>
        <time>2017-04-24T08:54:20Z</time>
      </trkpt>
      <trkpt lat="45.99935" lon="4.63956">
        <ele>300</ele>
        <time>2017-04-24T08:54:22Z</time>
      </trkpt>
      <trkpt lat="45.99934" lon="4.63951">
        <ele>300</ele>
        <time>2017-04-24T08:54:23Z</time>
      </trkpt>
      <trkpt lat="45.99931" lon="4.63942">
        <ele>300</ele>
        <time>2017-04-24T08:54:25Z</time>
      </trkpt>
      <trkpt lat="45.99929" lon="4.63938">
        <ele>300</ele>
        <time>2017-04-24T08:54:26Z</time>
      </trkpt>
      <trkpt lat="45.99925" lon="4.6393">
        <ele>301</ele>
        <time>2017-04-24T08:54:28Z</time>
      </trkpt>
      <trkpt lat="45.99923" lon="4.63925">
        <ele>301</ele>
        <time>2017-04-24T08:54:29Z</time>
      </trkpt>
      <trkpt lat="45.99918" lon="4.63916">
        <ele>302</ele>
        <time>2017-04-24T08:54:31Z</time>
      </trkpt>
      <trkpt lat="45.99916" lon="4.63911">
        <ele>302</ele>
        <time>2017-04-24T08:54:32Z</time>
      </trkpt>
      <trkpt lat="45.99913" lon="4.63901">
        <ele>303</ele>
        <time>2017-04-24T08:54:34Z</time>
      </trkpt>
      <trkpt lat="45.99911" lon="4.63895">
        <ele>303</ele>
        <time>2017-04-24T08:54:35Z</time>
      </trkpt>
      <trkpt lat="45.99906" lon="4.63886">
        <ele>303</ele>
        <time>2017-04-24T08:54:37Z</time>
      </trkpt>
      <trkpt lat="45.99905" lon="4.63883">
        <ele>303</ele>
        <time>2017-04-24T08:54:38Z</time>
      </trkpt>
      <trkpt lat="45.999" lon="4.63872">
        <ele>303</ele>
        <time>2017-04-24T08:54:41Z</time>
      </trkpt>
      <trkpt lat="45.99899" lon="4.63868">
        <ele>303</ele>
        <time>2017-04-24T08:54:42Z</time>
      </trkpt>
      <trkpt lat="45.99895" lon="4.63859">
        <ele>303</ele>
        <time>2017-04-24T08:54:44Z</time>
      </trkpt>
      <trkpt lat="45.99893" lon="4.63854">
        <ele>303</ele>
        <time>2017-04-24T08:54:45Z</time>
      </trkpt>
      <trkpt lat="45.9989" lon="4.63846">
        <ele>303</ele>
        <time>2017-04-24T08:54:47Z</time>
      </trkpt>
      <trkpt lat="45.99889" lon="4.63842">
        <ele>303</ele>
        <time>2017-04-24T08:54:48Z</time>
      </trkpt>
      <trkpt lat="45.99885" lon="4.63833">
        <ele>302</ele>
        <time>2017-04-24T08:54:50Z</time>
      </trkpt>
      <trkpt lat="45.99883" lon="4.63828">
        <ele>303</ele>
        <time>2017-04-24T08:54:51Z</time>
      </trkpt>
      <trkpt lat="45.99881" lon="4.63818">
        <ele>303</ele>
        <time>2017-04-24T08:54:53Z</time>
      </trkpt>
      <trkpt lat="45.99879" lon="4.63814">
        <ele>303</ele>
        <time>2017-04-24T08:54:54Z</time>
      </trkpt>
      <trkpt lat="45.99878" lon="4.63805">
        <ele>303</ele>
        <time>2017-04-24T08:54:56Z</time>
      </trkpt>
      <trkpt lat="45.99876" lon="4.63799">
        <ele>303</ele>
        <time>2017-04-24T08:54:57Z</time>
      </trkpt>
      <trkpt lat="45.99874" lon="4.63789">
        <ele>303</ele>
        <time>2017-04-24T08:54:59Z</time>
      </trkpt>
      <trkpt lat="45.99874" lon="4.63785">
        <ele>302</ele>
        <time>2017-04-24T08:55:00Z</time>
      </trkpt>
      <trkpt lat="45.99874" lon="4.63776">
        <ele>302</ele>
        <time>2017-04-24T08:55:02Z</time>
      </trkpt>
      <trkpt lat="45.99873" lon="4.63771">
        <ele>302</ele>
        <time>2017-04-24T08:55:03Z</time>
      </trkpt>
      <trkpt lat="45.99873" lon="4.63762">
        <ele>302</ele>
        <time>2017-04-24T08:55:05Z</time>
      </trkpt>
      <trkpt lat="45.99873" lon="4.63757">
        <ele>302</ele>
        <time>2017-04-24T08:55:06Z</time>
      </trkpt>
      <trkpt lat="45.9987" lon="4.63745">
        <ele>302</ele>
        <time>2017-04-24T08:55:08Z</time>
      </trkpt>
      <trkpt lat="45.99869" lon="4.6374">
        <ele>302</ele>
        <time>2017-04-24T08:55:09Z</time>
      </trkpt>
      <trkpt lat="45.99867" lon="4.63728">
        <ele>303</ele>
        <time>2017-04-24T08:55:11Z</time>
      </trkpt>
      <trkpt lat="45.99866" lon="4.63722">
        <ele>303</ele>
        <time>2017-04-24T08:55:12Z</time>
      </trkpt>
      <trkpt lat="45.99864" lon="4.63711">
        <ele>303</ele>
        <time>2017-04-24T08:55:14Z</time>
      </trkpt>
      <trkpt lat="45.99863" lon="4.63707">
        <ele>303</ele>
        <time>2017-04-24T08:55:15Z</time>
      </trkpt>
      <trkpt lat="45.99863" lon="4.63695">
        <ele>303</ele>
        <time>2017-04-24T08:55:17Z</time>
      </trkpt>
      <trkpt lat="45.99863" lon="4.63689">
        <ele>303</ele>
        <time>2017-04-24T08:55:18Z</time>
      </trkpt>
      <trkpt lat="45.99861" lon="4.63679">
        <ele>303</ele>
        <time>2017-04-24T08:55:20Z</time>
      </trkpt>
      <trkpt lat="45.99861" lon="4.63674">
        <ele>303</ele>
        <time>2017-04-24T08:55:21Z</time>
      </trkpt>
      <trkpt lat="45.99861" lon="4.63663">
        <ele>304</ele>
        <time>2017-04-24T08:55:23Z</time>
      </trkpt>
      <trkpt lat="45.9986" lon="4.63657">
        <ele>304</ele>
        <time>2017-04-24T08:55:24Z</time>
      </trkpt>
      <trkpt lat="45.99861" lon="4.63647">
        <ele>304</ele>
        <time>2017-04-24T08:55:26Z</time>
      </trkpt>
      <trkpt lat="45.99861" lon="4.63642">
        <ele>305</ele>
        <time>2017-04-24T08:55:27Z</time>
      </trkpt>
      <trkpt lat="45.99862" lon="4.63632">
        <ele>305</ele>
        <time>2017-04-24T08:55:29Z</time>
      </trkpt>
      <trkpt lat="45.99862" lon="4.63626">
        <ele>305</ele>
        <time>2017-04-24T08:55:30Z</time>
      </trkpt>
      <trkpt lat="45.99862" lon="4.63615">
        <ele>305</ele>
        <time>2017-04-24T08:55:32Z</time>
      </trkpt>
      <trkpt lat="45.99862" lon="4.63609">
        <ele>306</ele>
        <time>2017-04-24T08:55:33Z</time>
      </trkpt>
      <trkpt lat="45.99864" lon="4.63597">
        <ele>306</ele>
        <time>2017-04-24T08:55:35Z</time>
      </trkpt>
      <trkpt lat="45.99865" lon="4.6359">
        <ele>306</ele>
        <time>2017-04-24T08:55:36Z</time>
      </trkpt>
      <trkpt lat="45.99866" lon="4.63583">
        <ele>308</ele>
        <time>2017-04-24T08:55:37Z</time>
      </trkpt>
      <trkpt lat="45.99867" lon="4.63577">
        <ele>308</ele>
        <time>2017-04-24T08:55:38Z</time>
      </trkpt>
      <trkpt lat="45.99869" lon="4.63567">
        <ele>308</ele>
        <time>2017-04-24T08:55:40Z</time>
      </trkpt>
      <trkpt lat="45.9987" lon="4.63561">
        <ele>308</ele>
        <time>2017-04-24T08:55:41Z</time>
      </trkpt>
      <trkpt lat="45.99873" lon="4.6355">
        <ele>308</ele>
        <time>2017-04-24T08:55:43Z</time>
      </trkpt>
      <trkpt lat="45.99874" lon="4.63544">
        <ele>308</ele>
        <time>2017-04-24T08:55:44Z</time>
      </trkpt>
      <trkpt lat="45.99876" lon="4.63533">
        <ele>309</ele>
        <time>2017-04-24T08:55:46Z</time>
      </trkpt>
      <trkpt lat="45.99878" lon="4.63528">
        <ele>309</ele>
        <time>2017-04-24T08:55:47Z</time>
      </trkpt>
      <trkpt lat="45.9988" lon="4.63518">
        <ele>309</ele>
        <time>2017-04-24T08:55:49Z</time>
      </trkpt>
      <trkpt lat="45.99881" lon="4.63513">
        <ele>309</ele>
        <time>2017-04-24T08:55:50Z</time>
      </trkpt>
      <trkpt lat="45.99884" lon="4.63503">
        <ele>309</ele>
        <time>2017-04-24T08:55:52Z</time>
      </trkpt>
      <trkpt lat="45.99885" lon="4.63498">
        <ele>311</ele>
        <time>2017-04-24T08:55:53Z</time>
      </trkpt>
      <trkpt lat="45.99888" lon="4.63489">
        <ele>311</ele>
        <time>2017-04-24T08:55:55Z</time>
      </trkpt>
      <trkpt lat="45.9989" lon="4.63484">
        <ele>311</ele>
        <time>2017-04-24T08:55:56Z</time>
      </trkpt>
      <trkpt lat="45.99893" lon="4.63475">
        <ele>311</ele>
        <time>2017-04-24T08:55:58Z</time>
      </trkpt>
      <trkpt lat="45.99895" lon="4.6347">
        <ele>311</ele>
        <time>2017-04-24T08:55:59Z</time>
      </trkpt>
      <trkpt lat="45.99897" lon="4.63462">
        <ele>311</ele>
        <time>2017-04-24T08:56:01Z</time>
      </trkpt>
      <trkpt lat="45.99899" lon="4.63458">
        <ele>311</ele>
        <time>2017-04-24T08:56:02Z</time>
      </trkpt>
      <trkpt lat="45.99903" lon="4.63448">
        <ele>311</ele>
        <time>2017-04-24T08:56:04Z</time>
      </trkpt>
      <trkpt lat="45.99904" lon="4.63443">
        <ele>311</ele>
        <time>2017-04-24T08:56:05Z</time>
      </trkpt>
      <trkpt lat="45.99908" lon="4.63435">
        <ele>311</ele>
        <time>2017-04-24T08:56:07Z</time>
      </trkpt>
      <trkpt lat="45.9991" lon="4.63429">
        <ele>311</ele>
        <time>2017-04-24T08:56:08Z</time>
      </trkpt>
      <trkpt lat="45.99914" lon="4.63419">
        <ele>311</ele>
        <time>2017-04-24T08:56:10Z</time>
      </trkpt>
      <trkpt lat="45.99915" lon="4.63415">
        <ele>311</ele>
        <time>2017-04-24T08:56:11Z</time>
      </trkpt>
      <trkpt lat="45.99918" lon="4.63403">
        <ele>311</ele>
        <time>2017-04-24T08:56:14Z</time>
      </trkpt>
      <trkpt lat="45.99919" lon="4.634">
        <ele>311</ele>
        <time>2017-04-24T08:56:15Z</time>
      </trkpt>
      <trkpt lat="45.99921" lon="4.6339">
        <ele>311</ele>
        <time>2017-04-24T08:56:17Z</time>
      </trkpt>
      <trkpt lat="45.99923" lon="4.63386">
        <ele>311</ele>
        <time>2017-04-24T08:56:18Z</time>
      </trkpt>
      <trkpt lat="45.99925" lon="4.63376">
        <ele>311</ele>
        <time>2017-04-24T08:56:20Z</time>
      </trkpt>
      <trkpt lat="45.99926" lon="4.63371">
        <ele>311</ele>
        <time>2017-04-24T08:56:21Z</time>
      </trkpt>
      <trkpt lat="45.99927" lon="4.63362">
        <ele>311</ele>
        <time>2017-04-24T08:56:23Z</time>
      </trkpt>
      <trkpt lat="45.99927" lon="4.63358">
        <ele>311</ele>
        <time>2017-04-24T08:56:24Z</time>
      </trkpt>
      <trkpt lat="45.99928" lon="4.63348">
        <ele>312</ele>
        <time>2017-04-24T08:56:27Z</time>
      </trkpt>
      <trkpt lat="45.99928" lon="4.63347">
        <ele>312</ele>
        <time>2017-04-24T08:56:28Z</time>
      </trkpt>
      <trkpt lat="45.99929" lon="4.63347">
        <ele>312</ele>
        <time>2017-04-24T08:56:55Z</time>
      </trkpt>
      <trkpt lat="45.9993" lon="4.63344">
        <ele>312</ele>
        <time>2017-04-24T08:56:56Z</time>
      </trkpt>
      <trkpt lat="45.99929" lon="4.63334">
        <ele>312</ele>
        <time>2017-04-24T08:58:18Z</time>
      </trkpt>
      <trkpt lat="45.99929" lon="4.6333">
        <ele>313</ele>
        <time>2017-04-24T08:58:19Z</time>
      </trkpt>
      <trkpt lat="45.9993" lon="4.63319">
        <ele>313</ele>
        <time>2017-04-24T08:58:21Z</time>
      </trkpt>
      <trkpt lat="45.9993" lon="4.63315">
        <ele>312</ele>
        <time>2017-04-24T08:58:22Z</time>
      </trkpt>
      <trkpt lat="45.99929" lon="4.63304">
        <ele>312</ele>
        <time>2017-04-24T08:58:24Z</time>
      </trkpt>
      <trkpt lat="45.99929" lon="4.63298">
        <ele>312</ele>
        <time>2017-04-24T08:58:25Z</time>
      </trkpt>
      <trkpt lat="45.99928" lon="4.63286">
        <ele>313</ele>
        <time>2017-04-24T08:58:27Z</time>
      </trkpt>
      <trkpt lat="45.99928" lon="4.6328">
        <ele>313</ele>
        <time>2017-04-24T08:58:28Z</time>
      </trkpt>
      <trkpt lat="45.99926" lon="4.63268">
        <ele>313</ele>
        <time>2017-04-24T08:58:30Z</time>
      </trkpt>
      <trkpt lat="45.99925" lon="4.63262">
        <ele>314</ele>
        <time>2017-04-24T08:58:31Z</time>
      </trkpt>
      <trkpt lat="45.99923" lon="4.63252">
        <ele>315</ele>
        <time>2017-04-24T08:58:33Z</time>
      </trkpt>
      <trkpt lat="45.99922" lon="4.63247">
        <ele>315</ele>
        <time>2017-04-24T08:58:34Z</time>
      </trkpt>
      <trkpt lat="45.9992" lon="4.63236">
        <ele>314</ele>
        <time>2017-04-24T08:58:36Z</time>
      </trkpt>
      <trkpt lat="45.99919" lon="4.63231">
        <ele>314</ele>
        <time>2017-04-24T08:58:37Z</time>
      </trkpt>
      <trkpt lat="45.99916" lon="4.63221">
        <ele>317</ele>
        <time>2017-04-24T08:58:39Z</time>
      </trkpt>
      <trkpt lat="45.99914" lon="4.63216">
        <ele>317</ele>
        <time>2017-04-24T08:58:40Z</time>
      </trkpt>
      <trkpt lat="45.9991" lon="4.63207">
        <ele>317</ele>
        <time>2017-04-24T08:58:42Z</time>
      </trkpt>
      <trkpt lat="45.99908" lon="4.63204">
        <ele>317</ele>
        <time>2017-04-24T08:58:43Z</time>
      </trkpt>
      <trkpt lat="45.99904" lon="4.63197">
        <ele>317</ele>
        <time>2017-04-24T08:58:45Z</time>
      </trkpt>
      <trkpt lat="45.99902" lon="4.63193">
        <ele>317</ele>
        <time>2017-04-24T08:58:46Z</time>
      </trkpt>
      <trkpt lat="45.99898" lon="4.63185">
        <ele>316</ele>
        <time>2017-04-24T08:58:48Z</time>
      </trkpt>
      <trkpt lat="45.99897" lon="4.63182">
        <ele>316</ele>
        <time>2017-04-24T08:58:49Z</time>
      </trkpt>
      <trkpt lat="45.99891" lon="4.63176">
        <ele>317</ele>
        <time>2017-04-24T08:58:51Z</time>
      </trkpt>
      <trkpt lat="45.99888" lon="4.63172">
        <ele>317</ele>
        <time>2017-04-24T08:58:52Z</time>
      </trkpt>
      <trkpt lat="45.99883" lon="4.63165">
        <ele>316</ele>
        <time>2017-04-24T08:58:54Z</time>
      </trkpt>
      <trkpt lat="45.9988" lon="4.6316">
        <ele>316</ele>
        <time>2017-04-24T08:58:55Z</time>
      </trkpt>
      <trkpt lat="45.99875" lon="4.63151">
        <ele>316</ele>
        <time>2017-04-24T08:58:57Z</time>
      </trkpt>
      <trkpt lat="45.99873" lon="4.63147">
        <ele>316</ele>
        <time>2017-04-24T08:58:58Z</time>
      </trkpt>
      <trkpt lat="45.99869" lon="4.63137">
        <ele>316</ele>
        <time>2017-04-24T08:59:00Z</time>
      </trkpt>
      <trkpt lat="45.99867" lon="4.63133">
        <ele>316</ele>
        <time>2017-04-24T08:59:01Z</time>
      </trkpt>
      <trkpt lat="45.99863" lon="4.63123">
        <ele>316</ele>
        <time>2017-04-24T08:59:03Z</time>
      </trkpt>
      <trkpt lat="45.99861" lon="4.63118">
        <ele>317</ele>
        <time>2017-04-24T08:59:04Z</time>
      </trkpt>
      <trkpt lat="45.99858" lon="4.63108">
        <ele>317</ele>
        <time>2017-04-24T08:59:06Z</time>
      </trkpt>
      <trkpt lat="45.99857" lon="4.63103">
        <ele>317</ele>
        <time>2017-04-24T08:59:07Z</time>
      </trkpt>
      <trkpt lat="45.99855" lon="4.63093">
        <ele>317</ele>
        <time>2017-04-24T08:59:09Z</time>
      </trkpt>
      <trkpt lat="45.99855" lon="4.63087">
        <ele>317</ele>
        <time>2017-04-24T08:59:10Z</time>
      </trkpt>
      <trkpt lat="45.99853" lon="4.63077">
        <ele>317</ele>
        <time>2017-04-24T08:59:12Z</time>
      </trkpt>
      <trkpt lat="45.99853" lon="4.63071">
        <ele>317</ele>
        <time>2017-04-24T08:59:13Z</time>
      </trkpt>
      <trkpt lat="45.99851" lon="4.63061">
        <ele>317</ele>
        <time>2017-04-24T08:59:15Z</time>
      </trkpt>
      <trkpt lat="45.99852" lon="4.63055">
        <ele>317</ele>
        <time>2017-04-24T08:59:16Z</time>
      </trkpt>
      <trkpt lat="45.99853" lon="4.63045">
        <ele>317</ele>
        <time>2017-04-24T08:59:18Z</time>
      </trkpt>
      <trkpt lat="45.99853" lon="4.6304">
        <ele>317</ele>
        <time>2017-04-24T08:59:19Z</time>
      </trkpt>
      <trkpt lat="45.99855" lon="4.63028">
        <ele>317</ele>
        <time>2017-04-24T08:59:21Z</time>
      </trkpt>
      <trkpt lat="45.99855" lon="4.63022">
        <ele>318</ele>
        <time>2017-04-24T08:59:22Z</time>
      </trkpt>
      <trkpt lat="45.99857" lon="4.63012">
        <ele>318</ele>
        <time>2017-04-24T08:59:24Z</time>
      </trkpt>
      <trkpt lat="45.99858" lon="4.63008">
        <ele>318</ele>
        <time>2017-04-24T08:59:25Z</time>
      </trkpt>
      <trkpt lat="45.9986" lon="4.62998">
        <ele>320</ele>
        <time>2017-04-24T08:59:27Z</time>
      </trkpt>
      <trkpt lat="45.99861" lon="4.62993">
        <ele>320</ele>
        <time>2017-04-24T08:59:28Z</time>
      </trkpt>
      <trkpt lat="45.99864" lon="4.62984">
        <ele>320</ele>
        <time>2017-04-24T08:59:30Z</time>
      </trkpt>
      <trkpt lat="45.99864" lon="4.6298">
        <ele>320</ele>
        <time>2017-04-24T08:59:31Z</time>
      </trkpt>
      <trkpt lat="45.99866" lon="4.62972">
        <ele>320</ele>
        <time>2017-04-24T08:59:33Z</time>
      </trkpt>
      <trkpt lat="45.99867" lon="4.62967">
        <ele>320</ele>
        <time>2017-04-24T08:59:34Z</time>
      </trkpt>
      <trkpt lat="45.99869" lon="4.62958">
        <ele>320</ele>
        <time>2017-04-24T08:59:36Z</time>
      </trkpt>
      <trkpt lat="45.9987" lon="4.62954">
        <ele>320</ele>
        <time>2017-04-24T08:59:37Z</time>
      </trkpt>
      <trkpt lat="45.99872" lon="4.62944">
        <ele>320</ele>
        <time>2017-04-24T08:59:39Z</time>
      </trkpt>
      <trkpt lat="45.99873" lon="4.62939">
        <ele>320</ele>
        <time>2017-04-24T08:59:40Z</time>
      </trkpt>
      <trkpt lat="45.99875" lon="4.62929">
        <ele>320</ele>
        <time>2017-04-24T08:59:42Z</time>
      </trkpt>
      <trkpt lat="45.99875" lon="4.62924">
        <ele>320</ele>
        <time>2017-04-24T08:59:43Z</time>
      </trkpt>
      <trkpt lat="45.99876" lon="4.62913">
        <ele>322</ele>
        <time>2017-04-24T08:59:45Z</time>
      </trkpt>
      <trkpt lat="45.99876" lon="4.62909">
        <ele>322</ele>
        <time>2017-04-24T08:59:46Z</time>
      </trkpt>
      <trkpt lat="45.99877" lon="4.629">
        <ele>322</ele>
        <time>2017-04-24T08:59:48Z</time>
      </trkpt>
      <trkpt lat="45.99877" lon="4.62895">
        <ele>322</ele>
        <time>2017-04-24T08:59:49Z</time>
      </trkpt>
      <trkpt lat="45.99877" lon="4.62886">
        <ele>322</ele>
        <time>2017-04-24T08:59:51Z</time>
      </trkpt>
      <trkpt lat="45.99877" lon="4.62882">
        <ele>323</ele>
        <time>2017-04-24T08:59:52Z</time>
      </trkpt>
      <trkpt lat="45.99878" lon="4.62872">
        <ele>323</ele>
        <time>2017-04-24T08:59:54Z</time>
      </trkpt>
      <trkpt lat="45.99879" lon="4.62867">
        <ele>323</ele>
        <time>2017-04-24T08:59:55Z</time>
      </trkpt>
      <trkpt lat="45.99879" lon="4.62857">
        <ele>323</ele>
        <time>2017-04-24T08:59:57Z</time>
      </trkpt>
      <trkpt lat="45.99879" lon="4.62852">
        <ele>323</ele>
        <time>2017-04-24T08:59:58Z</time>
      </trkpt>
      <trkpt lat="45.9988" lon="4.62842">
        <ele>323</ele>
        <time>2017-04-24T09:00:00Z</time>
      </trkpt>
      <trkpt lat="45.9988" lon="4.62836">
        <ele>323</ele>
        <time>2017-04-24T09:00:01Z</time>
      </trkpt>
      <trkpt lat="45.99879" lon="4.62826">
        <ele>324</ele>
        <time>2017-04-24T09:00:03Z</time>
      </trkpt>
      <trkpt lat="45.99879" lon="4.62822">
        <ele>324</ele>
        <time>2017-04-24T09:00:04Z</time>
      </trkpt>
      <trkpt lat="45.99878" lon="4.62812">
        <ele>324</ele>
        <time>2017-04-24T09:00:06Z</time>
      </trkpt>
      <trkpt lat="45.99878" lon="4.62808">
        <ele>324</ele>
        <time>2017-04-24T09:00:07Z</time>
      </trkpt>
      <trkpt lat="45.99877" lon="4.62799">
        <ele>325</ele>
        <time>2017-04-24T09:00:09Z</time>
      </trkpt>
      <trkpt lat="45.99877" lon="4.62794">
        <ele>325</ele>
        <time>2017-04-24T09:00:10Z</time>
      </trkpt>
      <trkpt lat="45.99876" lon="4.62784">
        <ele>325</ele>
        <time>2017-04-24T09:00:12Z</time>
      </trkpt>
      <trkpt lat="45.99875" lon="4.62779">
        <ele>325</ele>
        <time>2017-04-24T09:00:13Z</time>
      </trkpt>
      <trkpt lat="45.99874" lon="4.62769">
        <ele>325</ele>
        <time>2017-04-24T09:00:15Z</time>
      </trkpt>
      <trkpt lat="45.99874" lon="4.62764">
        <ele>325</ele>
        <time>2017-04-24T09:00:16Z</time>
      </trkpt>
      <trkpt lat="45.99872" lon="4.62753">
        <ele>325</ele>
        <time>2017-04-24T09:00:18Z</time>
      </trkpt>
      <trkpt lat="45.99872" lon="4.62748">
        <ele>327</ele>
        <time>2017-04-24T09:00:19Z</time>
      </trkpt>
      <trkpt lat="45.99871" lon="4.62737">
        <ele>328</ele>
        <time>2017-04-24T09:00:21Z</time>
      </trkpt>
      <trkpt lat="45.99871" lon="4.62731">
        <ele>328</ele>
        <time>2017-04-24T09:00:22Z</time>
      </trkpt>
      <trkpt lat="45.99871" lon="4.62721">
        <ele>328</ele>
        <time>2017-04-24T09:00:24Z</time>
      </trkpt>
      <trkpt lat="45.99871" lon="4.62716">
        <ele>328</ele>
        <time>2017-04-24T09:00:25Z</time>
      </trkpt>
      <trkpt lat="45.99872" lon="4.62707">
        <ele>328</ele>
        <time>2017-04-24T09:00:27Z</time>
      </trkpt>
      <trkpt lat="45.99873" lon="4.62703">
        <ele>328</ele>
        <time>2017-04-24T09:00:28Z</time>
      </trkpt>
      <trkpt lat="45.99877" lon="4.62693">
        <ele>328</ele>
        <time>2017-04-24T09:00:30Z</time>
      </trkpt>
      <trkpt lat="45.99878" lon="4.62688">
        <ele>328</ele>
        <time>2017-04-24T09:00:31Z</time>
      </trkpt>
      <trkpt lat="45.99882" lon="4.62679">
        <ele>328</ele>
        <time>2017-04-24T09:00:33Z</time>
      </trkpt>
      <trkpt lat="45.99884" lon="4.62675">
        <ele>328</ele>
        <time>2017-04-24T09:00:34Z</time>
      </trkpt>
      <trkpt lat="45.99888" lon="4.62668">
        <ele>328</ele>
        <time>2017-04-24T09:00:36Z</time>
      </trkpt>
      <trkpt lat="45.99891" lon="4.62664">
        <ele>330</ele>
        <time>2017-04-24T09:00:37Z</time>
      </trkpt>
      <trkpt lat="45.99895" lon="4.62654">
        <ele>330</ele>
        <time>2017-04-24T09:00:39Z</time>
      </trkpt>
      <trkpt lat="45.99897" lon="4.62649">
        <ele>330</ele>
        <time>2017-04-24T09:00:40Z</time>
      </trkpt>
      <trkpt lat="45.99901" lon="4.62638">
        <ele>331</ele>
        <time>2017-04-24T09:00:42Z</time>
      </trkpt>
      <trkpt lat="45.99904" lon="4.62633">
        <ele>331</ele>
        <time>2017-04-24T09:00:43Z</time>
      </trkpt>
      <trkpt lat="45.99909" lon="4.62624">
        <ele>331</ele>
        <time>2017-04-24T09:00:45Z</time>
      </trkpt>
      <trkpt lat="45.99911" lon="4.6262">
        <ele>331</ele>
        <time>2017-04-24T09:00:46Z</time>
      </trkpt>
      <trkpt lat="45.99914" lon="4.6261">
        <ele>330</ele>
        <time>2017-04-24T09:00:48Z</time>
      </trkpt>
      <trkpt lat="45.99916" lon="4.62604">
        <ele>330</ele>
        <time>2017-04-24T09:00:49Z</time>
      </trkpt>
      <trkpt lat="45.99917" lon="4.62593">
        <ele>327</ele>
        <time>2017-04-24T09:00:51Z</time>
      </trkpt>
      <trkpt lat="45.99919" lon="4.62585">
        <ele>328</ele>
        <time>2017-04-24T09:00:52Z</time>
      </trkpt>
      <trkpt lat="45.9992" lon="4.62578">
        <ele>328</ele>
        <time>2017-04-24T09:00:53Z</time>
      </trkpt>
      <trkpt lat="45.99921" lon="4.6257">
        <ele>327</ele>
        <time>2017-04-24T09:00:54Z</time>
      </trkpt>
      <trkpt lat="45.99921" lon="4.62562">
        <ele>327</ele>
        <time>2017-04-24T09:00:55Z</time>
      </trkpt>
      <trkpt lat="45.99922" lon="4.62555">
        <ele>327</ele>
        <time>2017-04-24T09:00:56Z</time>
      </trkpt>
      <trkpt lat="45.99922" lon="4.62548">
        <ele>327</ele>
        <time>2017-04-24T09:00:57Z</time>
      </trkpt>
      <trkpt lat="45.99922" lon="4.62539">
        <ele>327</ele>
        <time>2017-04-24T09:00:58Z</time>
      </trkpt>
      <trkpt lat="45.99922" lon="4.62531">
        <ele>327</ele>
        <time>2017-04-24T09:00:59Z</time>
      </trkpt>
      <trkpt lat="45.99922" lon="4.62522">
        <ele>327</ele>
        <time>2017-04-24T09:01:00Z</time>
      </trkpt>
      <trkpt lat="45.99922" lon="4.62514">
        <ele>327</ele>
        <time>2017-04-24T09:01:01Z</time>
      </trkpt>
      <trkpt lat="45.99922" lon="4.62506">
        <ele>327</ele>
        <time>2017-04-24T09:01:02Z</time>
      </trkpt>
      <trkpt lat="45.99922" lon="4.62498">
        <ele>326</ele>
        <time>2017-04-24T09:01:03Z</time>
      </trkpt>
      <trkpt lat="45.99923" lon="4.62488">
        <ele>326</ele>
        <time>2017-04-24T09:01:04Z</time>
      </trkpt>
      <trkpt lat="45.99924" lon="4.62478">
        <ele>325</ele>
        <time>2017-04-24T09:01:05Z</time>
      </trkpt>
      <trkpt lat="45.99924" lon="4.6247">
        <ele>325</ele>
        <time>2017-04-24T09:01:06Z</time>
      </trkpt>
      <trkpt lat="45.99924" lon="4.62461">
        <ele>325</ele>
        <time>2017-04-24T09:01:07Z</time>
      </trkpt>
      <trkpt lat="45.99925" lon="4.62453">
        <ele>325</ele>
        <time>2017-04-24T09:01:08Z</time>
      </trkpt>
      <trkpt lat="45.99925" lon="4.62444">
        <ele>325</ele>
        <time>2017-04-24T09:01:09Z</time>
      </trkpt>
      <trkpt lat="45.99926" lon="4.62435">
        <ele>325</ele>
        <time>2017-04-24T09:01:10Z</time>
      </trkpt>
      <trkpt lat="45.99926" lon="4.62427">
        <ele>326</ele>
        <time>2017-04-24T09:01:11Z</time>
      </trkpt>
      <trkpt lat="45.99926" lon="4.62418">
        <ele>326</ele>
        <time>2017-04-24T09:01:12Z</time>
      </trkpt>
      <trkpt lat="45.99927" lon="4.62409">
        <ele>325</ele>
        <time>2017-04-24T09:01:13Z</time>
      </trkpt>
      <trkpt lat="45.99928" lon="4.624">
        <ele>324</ele>
        <time>2017-04-24T09:01:14Z</time>
      </trkpt>
      <trkpt lat="45.99928" lon="4.6239">
        <ele>323</ele>
        <time>2017-04-24T09:01:15Z</time>
      </trkpt>
      <trkpt lat="45.99929" lon="4.62381">
        <ele>323</ele>
        <time>2017-04-24T09:01:16Z</time>
      </trkpt>
      <trkpt lat="45.99929" lon="4.62372">
        <ele>323</ele>
        <time>2017-04-24T09:01:17Z</time>
      </trkpt>
      <trkpt lat="45.99929" lon="4.62364">
        <ele>323</ele>
        <time>2017-04-24T09:01:18Z</time>
      </trkpt>
      <trkpt lat="45.99929" lon="4.62356">
        <ele>323</ele>
        <time>2017-04-24T09:01:19Z</time>
      </trkpt>
      <trkpt lat="45.99929" lon="4.62349">
        <ele>324</ele>
        <time>2017-04-24T09:01:20Z</time>
      </trkpt>
      <trkpt lat="45.99928" lon="4.62342">
        <ele>324</ele>
        <time>2017-04-24T09:01:21Z</time>
      </trkpt>
      <trkpt lat="45.99929" lon="4.62334">
        <ele>324</ele>
        <time>2017-04-24T09:01:22Z</time>
      </trkpt>
      <trkpt lat="45.99928" lon="4.62328">
        <ele>324</ele>
        <time>2017-04-24T09:01:23Z</time>
      </trkpt>
      <trkpt lat="45.99929" lon="4.6232">
        <ele>324</ele>
        <time>2017-04-24T09:01:24Z</time>
      </trkpt>
      <trkpt lat="45.9993" lon="4.62313">
        <ele>323</ele>
        <time>2017-04-24T09:01:25Z</time>
      </trkpt>
      <trkpt lat="45.99932" lon="4.62307">
        <ele>323</ele>
        <time>2017-04-24T09:01:26Z</time>
      </trkpt>
      <trkpt lat="45.99933" lon="4.62301">
        <ele>323</ele>
        <time>2017-04-24T09:01:27Z</time>
      </trkpt>
      <trkpt lat="45.99935" lon="4.62294">
        <ele>323</ele>
        <time>2017-04-24T09:01:28Z</time>
      </trkpt>
      <trkpt lat="45.99937" lon="4.62287">
        <ele>323</ele>
        <time>2017-04-24T09:01:29Z</time>
      </trkpt>
      <trkpt lat="45.99939" lon="4.62281">
        <ele>323</ele>
        <time>2017-04-24T09:01:30Z</time>
      </trkpt>
      <trkpt lat="45.99944" lon="4.6227">
        <ele>323</ele>
        <time>2017-04-24T09:01:32Z</time>
      </trkpt>
      <trkpt lat="45.99946" lon="4.62265">
        <ele>323</ele>
        <time>2017-04-24T09:01:33Z</time>
      </trkpt>
      <trkpt lat="45.99952" lon="4.62257">
        <ele>322</ele>
        <time>2017-04-24T09:01:35Z</time>
      </trkpt>
      <trkpt lat="45.99955" lon="4.62253">
        <ele>322</ele>
        <time>2017-04-24T09:01:36Z</time>
      </trkpt>
      <trkpt lat="45.9996" lon="4.62246">
        <ele>325</ele>
        <time>2017-04-24T09:01:38Z</time>
      </trkpt>
      <trkpt lat="45.99963" lon="4.62242">
        <ele>325</ele>
        <time>2017-04-24T09:01:39Z</time>
      </trkpt>
      <trkpt lat="45.99967" lon="4.62238">
        <ele>324</ele>
        <time>2017-04-24T09:01:40Z</time>
      </trkpt>
      <trkpt lat="45.9997" lon="4.62234">
        <ele>324</ele>
        <time>2017-04-24T09:01:41Z</time>
      </trkpt>
      <trkpt lat="45.99974" lon="4.62229">
        <ele>324</ele>
        <time>2017-04-24T09:01:42Z</time>
      </trkpt>
      <trkpt lat="45.99978" lon="4.62225">
        <ele>324</ele>
        <time>2017-04-24T09:01:43Z</time>
      </trkpt>
      <trkpt lat="45.99985" lon="4.62217">
        <ele>325</ele>
        <time>2017-04-24T09:01:45Z</time>
      </trkpt>
      <trkpt lat="45.99987" lon="4.62214">
        <ele>325</ele>
        <time>2017-04-24T09:01:46Z</time>
      </trkpt>
      <trkpt lat="45.99994" lon="4.62207">
        <ele>325</ele>
        <time>2017-04-24T09:01:48Z</time>
      </trkpt>
      <trkpt lat="45.99997" lon="4.62203">
        <ele>325</ele>
        <time>2017-04-24T09:01:49Z</time>
      </trkpt>
      <trkpt lat="46.00002" lon="4.62195">
        <ele>323</ele>
        <time>2017-04-24T09:01:51Z</time>
      </trkpt>
      <trkpt lat="46.00004" lon="4.62191">
        <ele>324</ele>
        <time>2017-04-24T09:01:52Z</time>
      </trkpt>
      <trkpt lat="46.0001" lon="4.62182">
        <ele>325</ele>
        <time>2017-04-24T09:01:54Z</time>
      </trkpt>
      <trkpt lat="46.00013" lon="4.62177">
        <ele>325</ele>
        <time>2017-04-24T09:01:55Z</time>
      </trkpt>
      <trkpt lat="46.00018" lon="4.62167">
        <ele>325</ele>
        <time>2017-04-24T09:01:57Z</time>
      </trkpt>
      <trkpt lat="46.0002" lon="4.62162">
        <ele>328</ele>
        <time>2017-04-24T09:01:58Z</time>
      </trkpt>
      <trkpt lat="46.00024" lon="4.62152">
        <ele>328</ele>
        <time>2017-04-24T09:02:00Z</time>
      </trkpt>
      <trkpt lat="46.00026" lon="4.62146">
        <ele>328</ele>
        <time>2017-04-24T09:02:01Z</time>
      </trkpt>
      <trkpt lat="46.00031" lon="4.62136">
        <ele>328</ele>
        <time>2017-04-24T09:02:03Z</time>
      </trkpt>
      <trkpt lat="46.00033" lon="4.62131">
        <ele>328</ele>
        <time>2017-04-24T09:02:04Z</time>
      </trkpt>
      <trkpt lat="46.00036" lon="4.62119">
        <ele>329</ele>
        <time>2017-04-24T09:02:06Z</time>
      </trkpt>
      <trkpt lat="46.00038" lon="4.62114">
        <ele>329</ele>
        <time>2017-04-24T09:02:07Z</time>
      </trkpt>
      <trkpt lat="46.00041" lon="4.62104">
        <ele>329</ele>
        <time>2017-04-24T09:02:09Z</time>
      </trkpt>
      <trkpt lat="46.00042" lon="4.62098">
        <ele>329</ele>
        <time>2017-04-24T09:02:10Z</time>
      </trkpt>
      <trkpt lat="46.00045" lon="4.62087">
        <ele>329</ele>
        <time>2017-04-24T09:02:12Z</time>
      </trkpt>
      <trkpt lat="46.00047" lon="4.62082">
        <ele>331</ele>
        <time>2017-04-24T09:02:13Z</time>
      </trkpt>
      <trkpt lat="46.0005" lon="4.6207">
        <ele>331</ele>
        <time>2017-04-24T09:02:15Z</time>
      </trkpt>
      <trkpt lat="46.00051" lon="4.62064">
        <ele>331</ele>
        <time>2017-04-24T09:02:16Z</time>
      </trkpt>
      <trkpt lat="46.00052" lon="4.62058">
        <ele>331</ele>
        <time>2017-04-24T09:02:17Z</time>
      </trkpt>
      <trkpt lat="46.00054" lon="4.62051">
        <ele>331</ele>
        <time>2017-04-24T09:02:18Z</time>
      </trkpt>
      <trkpt lat="46.00055" lon="4.62039">
        <ele>331</ele>
        <time>2017-04-24T09:02:20Z</time>
      </trkpt>
      <trkpt lat="46.00056" lon="4.62033">
        <ele>331</ele>
        <time>2017-04-24T09:02:21Z</time>
      </trkpt>
      <trkpt lat="46.00057" lon="4.6202">
        <ele>330</ele>
        <time>2017-04-24T09:02:23Z</time>
      </trkpt>
      <trkpt lat="46.00058" lon="4.62014">
        <ele>330</ele>
        <time>2017-04-24T09:02:24Z</time>
      </trkpt>
      <trkpt lat="46.0006" lon="4.62002">
        <ele>330</ele>
        <time>2017-04-24T09:02:26Z</time>
      </trkpt>
      <trkpt lat="46.00061" lon="4.61995">
        <ele>330</ele>
        <time>2017-04-24T09:02:27Z</time>
      </trkpt>
      <trkpt lat="46.00062" lon="4.61989">
        <ele>330</ele>
        <time>2017-04-24T09:02:28Z</time>
      </trkpt>
      <trkpt lat="46.00063" lon="4.61983">
        <ele>330</ele>
        <time>2017-04-24T09:02:29Z</time>
      </trkpt>
      <trkpt lat="46.00064" lon="4.6197">
        <ele>330</ele>
        <time>2017-04-24T09:02:31Z</time>
      </trkpt>
      <trkpt lat="46.00066" lon="4.61963">
        <ele>330</ele>
        <time>2017-04-24T09:02:32Z</time>
      </trkpt>
      <trkpt lat="46.00066" lon="4.61951">
        <ele>329</ele>
        <time>2017-04-24T09:02:34Z</time>
      </trkpt>
      <trkpt lat="46.00067" lon="4.61945">
        <ele>329</ele>
        <time>2017-04-24T09:02:35Z</time>
      </trkpt>
      <trkpt lat="46.00068" lon="4.61933">
        <ele>329</ele>
        <time>2017-04-24T09:02:37Z</time>
      </trkpt>
      <trkpt lat="46.00068" lon="4.61928">
        <ele>328</ele>
        <time>2017-04-24T09:02:38Z</time>
      </trkpt>
      <trkpt lat="46.00069" lon="4.61915">
        <ele>328</ele>
        <time>2017-04-24T09:02:40Z</time>
      </trkpt>
      <trkpt lat="46.0007" lon="4.61909">
        <ele>328</ele>
        <time>2017-04-24T09:02:41Z</time>
      </trkpt>
      <trkpt lat="46.00071" lon="4.61897">
        <ele>329</ele>
        <time>2017-04-24T09:02:43Z</time>
      </trkpt>
      <trkpt lat="46.00071" lon="4.6189">
        <ele>329</ele>
        <time>2017-04-24T09:02:44Z</time>
      </trkpt>
      <trkpt lat="46.00072" lon="4.61883">
        <ele>330</ele>
        <time>2017-04-24T09:02:45Z</time>
      </trkpt>
      <trkpt lat="46.00072" lon="4.61877">
        <ele>330</ele>
        <time>2017-04-24T09:02:46Z</time>
      </trkpt>
      <trkpt lat="46.00073" lon="4.6187">
        <ele>330</ele>
        <time>2017-04-24T09:02:47Z</time>
      </trkpt>
      <trkpt lat="46.00073" lon="4.61863">
        <ele>330</ele>
        <time>2017-04-24T09:02:48Z</time>
      </trkpt>
      <trkpt lat="46.00074" lon="4.61856">
        <ele>330</ele>
        <time>2017-04-24T09:02:49Z</time>
      </trkpt>
      <trkpt lat="46.00075" lon="4.61849">
        <ele>329</ele>
        <time>2017-04-24T09:02:50Z</time>
      </trkpt>
      <trkpt lat="46.00075" lon="4.61842">
        <ele>329</ele>
        <time>2017-04-24T09:02:51Z</time>
      </trkpt>
      <trkpt lat="46.00076" lon="4.61835">
        <ele>328</ele>
        <time>2017-04-24T09:02:52Z</time>
      </trkpt>
      <trkpt lat="46.00076" lon="4.61828">
        <ele>329</ele>
        <time>2017-04-24T09:02:53Z</time>
      </trkpt>
      <trkpt lat="46.00077" lon="4.61821">
        <ele>330</ele>
        <time>2017-04-24T09:02:54Z</time>
      </trkpt>
      <trkpt lat="46.00077" lon="4.61815">
        <ele>330</ele>
        <time>2017-04-24T09:02:55Z</time>
      </trkpt>
      <trkpt lat="46.00078" lon="4.61808">
        <ele>331</ele>
        <time>2017-04-24T09:02:56Z</time>
      </trkpt>
      <trkpt lat="46.00079" lon="4.618">
        <ele>331</ele>
        <time>2017-04-24T09:02:57Z</time>
      </trkpt>
      <trkpt lat="46.0008" lon="4.61794">
        <ele>331</ele>
        <time>2017-04-24T09:02:58Z</time>
      </trkpt>
      <trkpt lat="46.00081" lon="4.61787">
        <ele>331</ele>
        <time>2017-04-24T09:02:59Z</time>
      </trkpt>
      <trkpt lat="46.00082" lon="4.6178">
        <ele>331</ele>
        <time>2017-04-24T09:03:00Z</time>
      </trkpt>
      <trkpt lat="46.00083" lon="4.61773">
        <ele>331</ele>
        <time>2017-04-24T09:03:01Z</time>
      </trkpt>
      <trkpt lat="46.00083" lon="4.61766">
        <ele>330</ele>
        <time>2017-04-24T09:03:02Z</time>
      </trkpt>
      <trkpt lat="46.00083" lon="4.61759">
        <ele>329</ele>
        <time>2017-04-24T09:03:03Z</time>
      </trkpt>
      <trkpt lat="46.00084" lon="4.61752">
        <ele>326</ele>
        <time>2017-04-24T09:03:04Z</time>
      </trkpt>
      <trkpt lat="46.00084" lon="4.61745">
        <ele>326</ele>
        <time>2017-04-24T09:03:05Z</time>
      </trkpt>
      <trkpt lat="46.00084" lon="4.61738">
        <ele>325</ele>
        <time>2017-04-24T09:03:06Z</time>
      </trkpt>
      <trkpt lat="46.00085" lon="4.61726">
        <ele>323</ele>
        <time>2017-04-24T09:03:08Z</time>
      </trkpt>
      <trkpt lat="46.00086" lon="4.61719">
        <ele>323</ele>
        <time>2017-04-24T09:03:09Z</time>
      </trkpt>
      <trkpt lat="46.00086" lon="4.61712">
        <ele>323</ele>
        <time>2017-04-24T09:03:10Z</time>
      </trkpt>
      <trkpt lat="46.00087" lon="4.61705">
        <ele>323</ele>
        <time>2017-04-24T09:03:11Z</time>
      </trkpt>
      <trkpt lat="46.00087" lon="4.61698">
        <ele>324</ele>
        <time>2017-04-24T09:03:12Z</time>
      </trkpt>
      <trkpt lat="46.00088" lon="4.6169">
        <ele>324</ele>
        <time>2017-04-24T09:03:13Z</time>
      </trkpt>
      <trkpt lat="46.00089" lon="4.61683">
        <ele>325</ele>
        <time>2017-04-24T09:03:14Z</time>
      </trkpt>
      <trkpt lat="46.0009" lon="4.61676">
        <ele>326</ele>
        <time>2017-04-24T09:03:15Z</time>
      </trkpt>
      <trkpt lat="46.00091" lon="4.61668">
        <ele>327</ele>
        <time>2017-04-24T09:03:16Z</time>
      </trkpt>
      <trkpt lat="46.00092" lon="4.61661">
        <ele>328</ele>
        <time>2017-04-24T09:03:17Z</time>
      </trkpt>
      <trkpt lat="46.00093" lon="4.61655">
        <ele>327</ele>
        <time>2017-04-24T09:03:18Z</time>
      </trkpt>
      <trkpt lat="46.00094" lon="4.61649">
        <ele>326</ele>
        <time>2017-04-24T09:03:19Z</time>
      </trkpt>
      <trkpt lat="46.00096" lon="4.61642">
        <ele>326</ele>
        <time>2017-04-24T09:03:20Z</time>
      </trkpt>
      <trkpt lat="46.00098" lon="4.61635">
        <ele>325</ele>
        <time>2017-04-24T09:03:21Z</time>
      </trkpt>
      <trkpt lat="46.001" lon="4.61628">
        <ele>325</ele>
        <time>2017-04-24T09:03:22Z</time>
      </trkpt>
      <trkpt lat="46.00102" lon="4.61622">
        <ele>325</ele>
        <time>2017-04-24T09:03:23Z</time>
      </trkpt>
      <trkpt lat="46.00104" lon="4.61616">
        <ele>325</ele>
        <time>2017-04-24T09:03:24Z</time>
      </trkpt>
      <trkpt lat="46.00106" lon="4.6161">
        <ele>326</ele>
        <time>2017-04-24T09:03:25Z</time>
      </trkpt>
      <trkpt lat="46.00108" lon="4.61603">
        <ele>326</ele>
        <time>2017-04-24T09:03:26Z</time>
      </trkpt>
      <trkpt lat="46.0011" lon="4.61596">
        <ele>326</ele>
        <time>2017-04-24T09:03:27Z</time>
      </trkpt>
      <trkpt lat="46.00111" lon="4.61589">
        <ele>326</ele>
        <time>2017-04-24T09:03:28Z</time>
      </trkpt>
      <trkpt lat="46.00113" lon="4.61582">
        <ele>328</ele>
        <time>2017-04-24T09:03:29Z</time>
      </trkpt>
      <trkpt lat="46.00115" lon="4.61576">
        <ele>328</ele>
        <time>2017-04-24T09:03:30Z</time>
      </trkpt>
      <trkpt lat="46.00118" lon="4.6157">
        <ele>328</ele>
        <time>2017-04-24T09:03:31Z</time>
      </trkpt>
      <trkpt lat="46.00121" lon="4.61564">
        <ele>328</ele>
        <time>2017-04-24T09:03:32Z</time>
      </trkpt>
      <trkpt lat="46.00123" lon="4.61557">
        <ele>328</ele>
        <time>2017-04-24T09:03:33Z</time>
      </trkpt>
      <trkpt lat="46.00126" lon="4.61551">
        <ele>327</ele>
        <time>2017-04-24T09:03:34Z</time>
      </trkpt>
      <trkpt lat="46.00128" lon="4.61544">
        <ele>327</ele>
        <time>2017-04-24T09:03:35Z</time>
      </trkpt>
      <trkpt lat="46.00131" lon="4.61538">
        <ele>327</ele>
        <time>2017-04-24T09:03:36Z</time>
      </trkpt>
      <trkpt lat="46.00134" lon="4.61531">
        <ele>327</ele>
        <time>2017-04-24T09:03:37Z</time>
      </trkpt>
      <trkpt lat="46.00137" lon="4.61524">
        <ele>327</ele>
        <time>2017-04-24T09:03:38Z</time>
      </trkpt>
      <trkpt lat="46.0014" lon="4.61517">
        <ele>327</ele>
        <time>2017-04-24T09:03:39Z</time>
      </trkpt>
      <trkpt lat="46.00142" lon="4.6151">
        <ele>327</ele>
        <time>2017-04-24T09:03:40Z</time>
      </trkpt>
      <trkpt lat="46.00145" lon="4.61503">
        <ele>327</ele>
        <time>2017-04-24T09:03:41Z</time>
      </trkpt>
      <trkpt lat="46.00147" lon="4.61495">
        <ele>329</ele>
        <time>2017-04-24T09:03:42Z</time>
      </trkpt>
      <trkpt lat="46.0015" lon="4.61487">
        <ele>329</ele>
        <time>2017-04-24T09:03:43Z</time>
      </trkpt>
      <trkpt lat="46.00153" lon="4.6148">
        <ele>329</ele>
        <time>2017-04-24T09:03:44Z</time>
      </trkpt>
      <trkpt lat="46.00156" lon="4.61472">
        <ele>330</ele>
        <time>2017-04-24T09:03:45Z</time>
      </trkpt>
      <trkpt lat="46.00158" lon="4.61463">
        <ele>330</ele>
        <time>2017-04-24T09:03:46Z</time>
      </trkpt>
      <trkpt lat="46.00161" lon="4.61456">
        <ele>330</ele>
        <time>2017-04-24T09:03:47Z</time>
      </trkpt>
      <trkpt lat="46.00163" lon="4.61448">
        <ele>330</ele>
        <time>2017-04-24T09:03:48Z</time>
      </trkpt>
      <trkpt lat="46.00166" lon="4.6144">
        <ele>330</ele>
        <time>2017-04-24T09:03:49Z</time>
      </trkpt>
      <trkpt lat="46.00169" lon="4.61431">
        <ele>324</ele>
        <time>2017-04-24T09:03:50Z</time>
      </trkpt>
      <trkpt lat="46.00171" lon="4.61423">
        <ele>325</ele>
        <time>2017-04-24T09:03:51Z</time>
      </trkpt>
      <trkpt lat="46.00174" lon="4.61416">
        <ele>327</ele>
        <time>2017-04-24T09:03:52Z</time>
      </trkpt>
      <trkpt lat="46.00176" lon="4.61408">
        <ele>326</ele>
        <time>2017-04-24T09:03:53Z</time>
      </trkpt>
      <trkpt lat="46.00179" lon="4.61401">
        <ele>325</ele>
        <time>2017-04-24T09:03:54Z</time>
      </trkpt>
      <trkpt lat="46.00182" lon="4.61393">
        <ele>325</ele>
        <time>2017-04-24T09:03:55Z</time>
      </trkpt>
      <trkpt lat="46.00184" lon="4.61385">
        <ele>325</ele>
        <time>2017-04-24T09:03:56Z</time>
      </trkpt>
      <trkpt lat="46.00186" lon="4.61377">
        <ele>325</ele>
        <time>2017-04-24T09:03:57Z</time>
      </trkpt>
      <trkpt lat="46.00187" lon="4.61371">
        <ele>325</ele>
        <time>2017-04-24T09:03:58Z</time>
      </trkpt>
      <trkpt lat="46.00189" lon="4.61364">
        <ele>325</ele>
        <time>2017-04-24T09:03:59Z</time>
      </trkpt>
      <trkpt lat="46.00192" lon="4.61357">
        <ele>325</ele>
        <time>2017-04-24T09:04:00Z</time>
      </trkpt>
      <trkpt lat="46.00194" lon="4.61351">
        <ele>325</ele>
        <time>2017-04-24T09:04:01Z</time>
      </trkpt>
      <trkpt lat="46.00196" lon="4.61344">
        <ele>325</ele>
        <time>2017-04-24T09:04:02Z</time>
      </trkpt>
      <trkpt lat="46.00198" lon="4.61336">
        <ele>325</ele>
        <time>2017-04-24T09:04:03Z</time>
      </trkpt>
      <trkpt lat="46.002" lon="4.61329">
        <ele>328</ele>
        <time>2017-04-24T09:04:04Z</time>
      </trkpt>
      <trkpt lat="46.00202" lon="4.61321">
        <ele>327</ele>
        <time>2017-04-24T09:04:05Z</time>
      </trkpt>
      <trkpt lat="46.00204" lon="4.61313">
        <ele>327</ele>
        <time>2017-04-24T09:04:06Z</time>
      </trkpt>
      <trkpt lat="46.00206" lon="4.61306">
        <ele>327</ele>
        <time>2017-04-24T09:04:07Z</time>
      </trkpt>
      <trkpt lat="46.00208" lon="4.61301">
        <ele>327</ele>
        <time>2017-04-24T09:04:08Z</time>
      </trkpt>
      <trkpt lat="46.0021" lon="4.61293">
        <ele>327</ele>
        <time>2017-04-24T09:04:09Z</time>
      </trkpt>
      <trkpt lat="46.00213" lon="4.61286">
        <ele>327</ele>
        <time>2017-04-24T09:04:10Z</time>
      </trkpt>
      <trkpt lat="46.00216" lon="4.61278">
        <ele>327</ele>
        <time>2017-04-24T09:04:11Z</time>
      </trkpt>
      <trkpt lat="46.00217" lon="4.61271">
        <ele>327</ele>
        <time>2017-04-24T09:04:12Z</time>
      </trkpt>
      <trkpt lat="46.00219" lon="4.61264">
        <ele>326</ele>
        <time>2017-04-24T09:04:13Z</time>
      </trkpt>
      <trkpt lat="46.0022" lon="4.61258">
        <ele>326</ele>
        <time>2017-04-24T09:04:14Z</time>
      </trkpt>
      <trkpt lat="46.00222" lon="4.6125">
        <ele>326</ele>
        <time>2017-04-24T09:04:15Z</time>
      </trkpt>
      <trkpt lat="46.00225" lon="4.61243">
        <ele>328</ele>
        <time>2017-04-24T09:04:16Z</time>
      </trkpt>
      <trkpt lat="46.00227" lon="4.61236">
        <ele>327</ele>
        <time>2017-04-24T09:04:17Z</time>
      </trkpt>
      <trkpt lat="46.0023" lon="4.6123">
        <ele>328</ele>
        <time>2017-04-24T09:04:18Z</time>
      </trkpt>
      <trkpt lat="46.00232" lon="4.61223">
        <ele>328</ele>
        <time>2017-04-24T09:04:19Z</time>
      </trkpt>
      <trkpt lat="46.00234" lon="4.61217">
        <ele>328</ele>
        <time>2017-04-24T09:04:20Z</time>
      </trkpt>
      <trkpt lat="46.00236" lon="4.6121">
        <ele>328</ele>
        <time>2017-04-24T09:04:21Z</time>
      </trkpt>
      <trkpt lat="46.00238" lon="4.61203">
        <ele>328</ele>
        <time>2017-04-24T09:04:22Z</time>
      </trkpt>
      <trkpt lat="46.0024" lon="4.61197">
        <ele>328</ele>
        <time>2017-04-24T09:04:23Z</time>
      </trkpt>
      <trkpt lat="46.00242" lon="4.6119">
        <ele>328</ele>
        <time>2017-04-24T09:04:24Z</time>
      </trkpt>
      <trkpt lat="46.00244" lon="4.61183">
        <ele>328</ele>
        <time>2017-04-24T09:04:25Z</time>
      </trkpt>
      <trkpt lat="46.00246" lon="4.61177">
        <ele>327</ele>
        <time>2017-04-24T09:04:26Z</time>
      </trkpt>
      <trkpt lat="46.00248" lon="4.61171">
        <ele>327</ele>
        <time>2017-04-24T09:04:27Z</time>
      </trkpt>
      <trkpt lat="46.0025" lon="4.61165">
        <ele>327</ele>
        <time>2017-04-24T09:04:28Z</time>
      </trkpt>
      <trkpt lat="46.00252" lon="4.61158">
        <ele>325</ele>
        <time>2017-04-24T09:04:29Z</time>
      </trkpt>
      <trkpt lat="46.00254" lon="4.61151">
        <ele>325</ele>
        <time>2017-04-24T09:04:30Z</time>
      </trkpt>
      <trkpt lat="46.00255" lon="4.61144">
        <ele>325</ele>
        <time>2017-04-24T09:04:31Z</time>
      </trkpt>
      <trkpt lat="46.00258" lon="4.61136">
        <ele>325</ele>
        <time>2017-04-24T09:04:32Z</time>
      </trkpt>
      <trkpt lat="46.0026" lon="4.61129">
        <ele>325</ele>
        <time>2017-04-24T09:04:33Z</time>
      </trkpt>
      <trkpt lat="46.00262" lon="4.61122">
        <ele>325</ele>
        <time>2017-04-24T09:04:34Z</time>
      </trkpt>
      <trkpt lat="46.00265" lon="4.61115">
        <ele>326</ele>
        <time>2017-04-24T09:04:35Z</time>
      </trkpt>
      <trkpt lat="46.00267" lon="4.61106">
        <ele>326</ele>
        <time>2017-04-24T09:04:36Z</time>
      </trkpt>
      <trkpt lat="46.0027" lon="4.61099">
        <ele>326</ele>
        <time>2017-04-24T09:04:37Z</time>
      </trkpt>
      <trkpt lat="46.00272" lon="4.61091">
        <ele>327</ele>
        <time>2017-04-24T09:04:38Z</time>
      </trkpt>
      <trkpt lat="46.00274" lon="4.61083">
        <ele>329</ele>
        <time>2017-04-24T09:04:39Z</time>
      </trkpt>
      <trkpt lat="46.00276" lon="4.61075">
        <ele>328</ele>
        <time>2017-04-24T09:04:40Z</time>
      </trkpt>
      <trkpt lat="46.00278" lon="4.61068">
        <ele>328</ele>
        <time>2017-04-24T09:04:41Z</time>
      </trkpt>
      <trkpt lat="46.00281" lon="4.61061">
        <ele>328</ele>
        <time>2017-04-24T09:04:42Z</time>
      </trkpt>
      <trkpt lat="46.00283" lon="4.61054">
        <ele>328</ele>
        <time>2017-04-24T09:04:43Z</time>
      </trkpt>
      <trkpt lat="46.00285" lon="4.61047">
        <ele>328</ele>
        <time>2017-04-24T09:04:44Z</time>
      </trkpt>
      <trkpt lat="46.00287" lon="4.61039">
        <ele>328</ele>
        <time>2017-04-24T09:04:45Z</time>
      </trkpt>
      <trkpt lat="46.00289" lon="4.61033">
        <ele>328</ele>
        <time>2017-04-24T09:04:46Z</time>
      </trkpt>
      <trkpt lat="46.00291" lon="4.61027">
        <ele>328</ele>
        <time>2017-04-24T09:04:47Z</time>
      </trkpt>
      <trkpt lat="46.00293" lon="4.6102">
        <ele>328</ele>
        <time>2017-04-24T09:04:48Z</time>
      </trkpt>
      <trkpt lat="46.00296" lon="4.61014">
        <ele>327</ele>
        <time>2017-04-24T09:04:49Z</time>
      </trkpt>
      <trkpt lat="46.00298" lon="4.61005">
        <ele>327</ele>
        <time>2017-04-24T09:04:50Z</time>
      </trkpt>
      <trkpt lat="46.003" lon="4.60996">
        <ele>329</ele>
        <time>2017-04-24T09:04:51Z</time>
      </trkpt>
      <trkpt lat="46.00302" lon="4.60988">
        <ele>329</ele>
        <time>2017-04-24T09:04:52Z</time>
      </trkpt>
      <trkpt lat="46.00304" lon="4.6098">
        <ele>329</ele>
        <time>2017-04-24T09:04:53Z</time>
      </trkpt>
      <trkpt lat="46.00306" lon="4.60971">
        <ele>329</ele>
        <time>2017-04-24T09:04:54Z</time>
      </trkpt>
      <trkpt lat="46.00309" lon="4.60962">
        <ele>329</ele>
        <time>2017-04-24T09:04:55Z</time>
      </trkpt>
      <trkpt lat="46.00311" lon="4.60954">
        <ele>329</ele>
        <time>2017-04-24T09:04:56Z</time>
      </trkpt>
      <trkpt lat="46.00313" lon="4.60946">
        <ele>329</ele>
        <time>2017-04-24T09:04:57Z</time>
      </trkpt>
      <trkpt lat="46.00316" lon="4.60937">
        <ele>328</ele>
        <time>2017-04-24T09:04:58Z</time>
      </trkpt>
      <trkpt lat="46.00318" lon="4.60928">
        <ele>328</ele>
        <time>2017-04-24T09:04:59Z</time>
      </trkpt>
      <trkpt lat="46.0032" lon="4.60919">
        <ele>327</ele>
        <time>2017-04-24T09:05:00Z</time>
      </trkpt>
      <trkpt lat="46.00322" lon="4.60909">
        <ele>328</ele>
        <time>2017-04-24T09:05:01Z</time>
      </trkpt>
      <trkpt lat="46.00325" lon="4.609">
        <ele>329</ele>
        <time>2017-04-24T09:05:02Z</time>
      </trkpt>
      <trkpt lat="46.00328" lon="4.60892">
        <ele>330</ele>
        <time>2017-04-24T09:05:03Z</time>
      </trkpt>
      <trkpt lat="46.0033" lon="4.60884">
        <ele>330</ele>
        <time>2017-04-24T09:05:04Z</time>
      </trkpt>
      <trkpt lat="46.00333" lon="4.60877">
        <ele>331</ele>
        <time>2017-04-24T09:05:05Z</time>
      </trkpt>
      <trkpt lat="46.00336" lon="4.60869">
        <ele>326</ele>
        <time>2017-04-24T09:05:06Z</time>
      </trkpt>
      <trkpt lat="46.00338" lon="4.60861">
        <ele>326</ele>
        <time>2017-04-24T09:05:07Z</time>
      </trkpt>
      <trkpt lat="46.0034" lon="4.60853">
        <ele>327</ele>
        <time>2017-04-24T09:05:08Z</time>
      </trkpt>
      <trkpt lat="46.00342" lon="4.60845">
        <ele>327</ele>
        <time>2017-04-24T09:05:09Z</time>
      </trkpt>
      <trkpt lat="46.00344" lon="4.60838">
        <ele>328</ele>
        <time>2017-04-24T09:05:10Z</time>
      </trkpt>
      <trkpt lat="46.00346" lon="4.6083">
        <ele>328</ele>
        <time>2017-04-24T09:05:11Z</time>
      </trkpt>
      <trkpt lat="46.00349" lon="4.60822">
        <ele>328</ele>
        <time>2017-04-24T09:05:12Z</time>
      </trkpt>
      <trkpt lat="46.00352" lon="4.60814">
        <ele>328</ele>
        <time>2017-04-24T09:05:13Z</time>
      </trkpt>
      <trkpt lat="46.00354" lon="4.60806">
        <ele>328</ele>
        <time>2017-04-24T09:05:14Z</time>
      </trkpt>
      <trkpt lat="46.00356" lon="4.60798">
        <ele>328</ele>
        <time>2017-04-24T09:05:15Z</time>
      </trkpt>
      <trkpt lat="46.00359" lon="4.60788">
        <ele>328</ele>
        <time>2017-04-24T09:05:16Z</time>
      </trkpt>
      <trkpt lat="46.00362" lon="4.60779">
        <ele>328</ele>
        <time>2017-04-24T09:05:17Z</time>
      </trkpt>
      <trkpt lat="46.00365" lon="4.60771">
        <ele>328</ele>
        <time>2017-04-24T09:05:18Z</time>
      </trkpt>
      <trkpt lat="46.00368" lon="4.60762">
        <ele>328</ele>
        <time>2017-04-24T09:05:19Z</time>
      </trkpt>
      <trkpt lat="46.00371" lon="4.60754">
        <ele>328</ele>
        <time>2017-04-24T09:05:20Z</time>
      </trkpt>
      <trkpt lat="46.00374" lon="4.60745">
        <ele>328</ele>
        <time>2017-04-24T09:05:21Z</time>
      </trkpt>
      <trkpt lat="46.00377" lon="4.60737">
        <ele>328</ele>
        <time>2017-04-24T09:05:22Z</time>
      </trkpt>
      <trkpt lat="46.00381" lon="4.6073">
        <ele>328</ele>
        <time>2017-04-24T09:05:23Z</time>
      </trkpt>
      <trkpt lat="46.00386" lon="4.60723">
        <ele>328</ele>
        <time>2017-04-24T09:05:24Z</time>
      </trkpt>
      <trkpt lat="46.0039" lon="4.60717">
        <ele>328</ele>
        <time>2017-04-24T09:05:25Z</time>
      </trkpt>
      <trkpt lat="46.00395" lon="4.60711">
        <ele>328</ele>
        <time>2017-04-24T09:05:26Z</time>
      </trkpt>
      <trkpt lat="46.004" lon="4.60706">
        <ele>328</ele>
        <time>2017-04-24T09:05:27Z</time>
      </trkpt>
      <trkpt lat="46.00404" lon="4.60701">
        <ele>328</ele>
        <time>2017-04-24T09:05:28Z</time>
      </trkpt>
      <trkpt lat="46.00408" lon="4.60695">
        <ele>328</ele>
        <time>2017-04-24T09:05:29Z</time>
      </trkpt>
      <trkpt lat="46.00411" lon="4.60689">
        <ele>328</ele>
        <time>2017-04-24T09:05:30Z</time>
      </trkpt>
      <trkpt lat="46.00414" lon="4.60683">
        <ele>328</ele>
        <time>2017-04-24T09:05:31Z</time>
      </trkpt>
      <trkpt lat="46.00417" lon="4.60677">
        <ele>328</ele>
        <time>2017-04-24T09:05:32Z</time>
      </trkpt>
      <trkpt lat="46.00419" lon="4.60671">
        <ele>330</ele>
        <time>2017-04-24T09:05:33Z</time>
      </trkpt>
      <trkpt lat="46.00422" lon="4.60665">
        <ele>330</ele>
        <time>2017-04-24T09:05:34Z</time>
      </trkpt>
      <trkpt lat="46.00424" lon="4.60658">
        <ele>332</ele>
        <time>2017-04-24T09:05:35Z</time>
      </trkpt>
      <trkpt lat="46.00427" lon="4.60652">
        <ele>334</ele>
        <time>2017-04-24T09:05:36Z</time>
      </trkpt>
      <trkpt lat="46.00429" lon="4.60647">
        <ele>335</ele>
        <time>2017-04-24T09:05:37Z</time>
      </trkpt>
      <trkpt lat="46.00432" lon="4.6064">
        <ele>336</ele>
        <time>2017-04-24T09:05:38Z</time>
      </trkpt>
      <trkpt lat="46.00434" lon="4.60634">
        <ele>336</ele>
        <time>2017-04-24T09:05:39Z</time>
      </trkpt>
      <trkpt lat="46.00436" lon="4.60627">
        <ele>337</ele>
        <time>2017-04-24T09:05:40Z</time>
      </trkpt>
      <trkpt lat="46.00438" lon="4.60621">
        <ele>337</ele>
        <time>2017-04-24T09:05:41Z</time>
      </trkpt>
      <trkpt lat="46.0044" lon="4.60615">
        <ele>337</ele>
        <time>2017-04-24T09:05:42Z</time>
      </trkpt>
      <trkpt lat="46.00442" lon="4.60609">
        <ele>337</ele>
        <time>2017-04-24T09:05:43Z</time>
      </trkpt>
      <trkpt lat="46.00444" lon="4.60603">
        <ele>337</ele>
        <time>2017-04-24T09:05:44Z</time>
      </trkpt>
      <trkpt lat="46.00447" lon="4.60596">
        <ele>337</ele>
        <time>2017-04-24T09:05:45Z</time>
      </trkpt>
      <trkpt lat="46.00449" lon="4.6059">
        <ele>337</ele>
        <time>2017-04-24T09:05:46Z</time>
      </trkpt>
      <trkpt lat="46.00452" lon="4.60584">
        <ele>338</ele>
        <time>2017-04-24T09:05:47Z</time>
      </trkpt>
      <trkpt lat="46.00454" lon="4.60578">
        <ele>336</ele>
        <time>2017-04-24T09:05:48Z</time>
      </trkpt>
      <trkpt lat="46.00456" lon="4.60572">
        <ele>336</ele>
        <time>2017-04-24T09:05:49Z</time>
      </trkpt>
      <trkpt lat="46.00458" lon="4.60566">
        <ele>336</ele>
        <time>2017-04-24T09:05:50Z</time>
      </trkpt>
      <trkpt lat="46.0046" lon="4.6056">
        <ele>336</ele>
        <time>2017-04-24T09:05:51Z</time>
      </trkpt>
      <trkpt lat="46.00463" lon="4.60553">
        <ele>336</ele>
        <time>2017-04-24T09:05:52Z</time>
      </trkpt>
      <trkpt lat="46.00464" lon="4.60547">
        <ele>336</ele>
        <time>2017-04-24T09:05:53Z</time>
      </trkpt>
      <trkpt lat="46.00467" lon="4.60541">
        <ele>336</ele>
        <time>2017-04-24T09:05:54Z</time>
      </trkpt>
      <trkpt lat="46.00469" lon="4.60535">
        <ele>336</ele>
        <time>2017-04-24T09:05:55Z</time>
      </trkpt>
      <trkpt lat="46.00471" lon="4.60529">
        <ele>336</ele>
        <time>2017-04-24T09:05:56Z</time>
      </trkpt>
      <trkpt lat="46.00473" lon="4.60523">
        <ele>336</ele>
        <time>2017-04-24T09:05:57Z</time>
      </trkpt>
      <trkpt lat="46.00475" lon="4.60516">
        <ele>336</ele>
        <time>2017-04-24T09:05:58Z</time>
      </trkpt>
      <trkpt lat="46.00477" lon="4.6051">
        <ele>336</ele>
        <time>2017-04-24T09:05:59Z</time>
      </trkpt>
      <trkpt lat="46.00479" lon="4.60503">
        <ele>337</ele>
        <time>2017-04-24T09:06:00Z</time>
      </trkpt>
      <trkpt lat="46.00481" lon="4.60497">
        <ele>335</ele>
        <time>2017-04-24T09:06:01Z</time>
      </trkpt>
      <trkpt lat="46.00483" lon="4.60491">
        <ele>335</ele>
        <time>2017-04-24T09:06:02Z</time>
      </trkpt>
      <trkpt lat="46.00485" lon="4.60484">
        <ele>335</ele>
        <time>2017-04-24T09:06:03Z</time>
      </trkpt>
      <trkpt lat="46.00487" lon="4.60478">
        <ele>335</ele>
        <time>2017-04-24T09:06:04Z</time>
      </trkpt>
      <trkpt lat="46.0049" lon="4.60471">
        <ele>335</ele>
        <time>2017-04-24T09:06:05Z</time>
      </trkpt>
      <trkpt lat="46.00492" lon="4.60465">
        <ele>334</ele>
        <time>2017-04-24T09:06:06Z</time>
      </trkpt>
      <trkpt lat="46.00495" lon="4.60458">
        <ele>334</ele>
        <time>2017-04-24T09:06:07Z</time>
      </trkpt>
      <trkpt lat="46.00497" lon="4.60452">
        <ele>334</ele>
        <time>2017-04-24T09:06:08Z</time>
      </trkpt>
      <trkpt lat="46.00499" lon="4.60446">
        <ele>334</ele>
        <time>2017-04-24T09:06:09Z</time>
      </trkpt>
      <trkpt lat="46.00503" lon="4.60435">
        <ele>339</ele>
        <time>2017-04-24T09:06:11Z</time>
      </trkpt>
      <trkpt lat="46.00505" lon="4.6043">
        <ele>338</ele>
        <time>2017-04-24T09:06:12Z</time>
      </trkpt>
      <trkpt lat="46.00509" lon="4.6042">
        <ele>336</ele>
        <time>2017-04-24T09:06:14Z</time>
      </trkpt>
      <trkpt lat="46.00511" lon="4.60414">
        <ele>334</ele>
        <time>2017-04-24T09:06:15Z</time>
      </trkpt>
      <trkpt lat="46.00515" lon="4.60405">
        <ele>335</ele>
        <time>2017-04-24T09:06:17Z</time>
      </trkpt>
      <trkpt lat="46.00518" lon="4.604">
        <ele>336</ele>
        <time>2017-04-24T09:06:18Z</time>
      </trkpt>
      <trkpt lat="46.00521" lon="4.60391">
        <ele>337</ele>
        <time>2017-04-24T09:06:20Z</time>
      </trkpt>
      <trkpt lat="46.00523" lon="4.60387">
        <ele>337</ele>
        <time>2017-04-24T09:06:21Z</time>
      </trkpt>
      <trkpt lat="46.00527" lon="4.60377">
        <ele>337</ele>
        <time>2017-04-24T09:06:23Z</time>
      </trkpt>
      <trkpt lat="46.00529" lon="4.60372">
        <ele>337</ele>
        <time>2017-04-24T09:06:24Z</time>
      </trkpt>
      <trkpt lat="46.00532" lon="4.60361">
        <ele>337</ele>
        <time>2017-04-24T09:06:26Z</time>
      </trkpt>
      <trkpt lat="46.00534" lon="4.60357">
        <ele>337</ele>
        <time>2017-04-24T09:06:27Z</time>
      </trkpt>
      <trkpt lat="46.00537" lon="4.60349">
        <ele>337</ele>
        <time>2017-04-24T09:06:29Z</time>
      </trkpt>
      <trkpt lat="46.00539" lon="4.60344">
        <ele>337</ele>
        <time>2017-04-24T09:06:30Z</time>
      </trkpt>
      <trkpt lat="46.00543" lon="4.60335">
        <ele>337</ele>
        <time>2017-04-24T09:06:32Z</time>
      </trkpt>
      <trkpt lat="46.00545" lon="4.60331">
        <ele>335</ele>
        <time>2017-04-24T09:06:33Z</time>
      </trkpt>
      <trkpt lat="46.00548" lon="4.6032">
        <ele>335</ele>
        <time>2017-04-24T09:06:35Z</time>
      </trkpt>
      <trkpt lat="46.00549" lon="4.60315">
        <ele>335</ele>
        <time>2017-04-24T09:06:36Z</time>
      </trkpt>
      <trkpt lat="46.00551" lon="4.60307">
        <ele>335</ele>
        <time>2017-04-24T09:06:38Z</time>
      </trkpt>
      <trkpt lat="46.00552" lon="4.60302">
        <ele>335</ele>
        <time>2017-04-24T09:06:39Z</time>
      </trkpt>
      <trkpt lat="46.00555" lon="4.60292">
        <ele>335</ele>
        <time>2017-04-24T09:06:41Z</time>
      </trkpt>
      <trkpt lat="46.00557" lon="4.60288">
        <ele>335</ele>
        <time>2017-04-24T09:06:42Z</time>
      </trkpt>
      <trkpt lat="46.0056" lon="4.60278">
        <ele>335</ele>
        <time>2017-04-24T09:06:44Z</time>
      </trkpt>
      <trkpt lat="46.00561" lon="4.60273">
        <ele>335</ele>
        <time>2017-04-24T09:06:45Z</time>
      </trkpt>
      <trkpt lat="46.00563" lon="4.60262">
        <ele>336</ele>
        <time>2017-04-24T09:06:47Z</time>
      </trkpt>
      <trkpt lat="46.00563" lon="4.60257">
        <ele>336</ele>
        <time>2017-04-24T09:06:48Z</time>
      </trkpt>
      <trkpt lat="46.00566" lon="4.60247">
        <ele>336</ele>
        <time>2017-04-24T09:06:50Z</time>
      </trkpt>
      <trkpt lat="46.00567" lon="4.60242">
        <ele>336</ele>
        <time>2017-04-24T09:06:51Z</time>
      </trkpt>
      <trkpt lat="46.0057" lon="4.60231">
        <ele>336</ele>
        <time>2017-04-24T09:06:53Z</time>
      </trkpt>
      <trkpt lat="46.00571" lon="4.60226">
        <ele>336</ele>
        <time>2017-04-24T09:06:54Z</time>
      </trkpt>
      <trkpt lat="46.00574" lon="4.60217">
        <ele>336</ele>
        <time>2017-04-24T09:06:56Z</time>
      </trkpt>
      <trkpt lat="46.00575" lon="4.60213">
        <ele>336</ele>
        <time>2017-04-24T09:06:57Z</time>
      </trkpt>
      <trkpt lat="46.00578" lon="4.60205">
        <ele>336</ele>
        <time>2017-04-24T09:06:59Z</time>
      </trkpt>
      <trkpt lat="46.00579" lon="4.60201">
        <ele>336</ele>
        <time>2017-04-24T09:07:00Z</time>
      </trkpt>
      <trkpt lat="46.00582" lon="4.60188">
        <ele>336</ele>
        <time>2017-04-24T09:07:03Z</time>
      </trkpt>
      <trkpt lat="46.00583" lon="4.60185">
        <ele>336</ele>
        <time>2017-04-24T09:07:04Z</time>
      </trkpt>
      <trkpt lat="46.00585" lon="4.60173">
        <ele>339</ele>
        <time>2017-04-24T09:07:07Z</time>
      </trkpt>
      <trkpt lat="46.00586" lon="4.60168">
        <ele>338</ele>
        <time>2017-04-24T09:07:08Z</time>
      </trkpt>
      <trkpt lat="46.00587" lon="4.60158">
        <ele>339</ele>
        <time>2017-04-24T09:07:10Z</time>
      </trkpt>
      <trkpt lat="46.00587" lon="4.60154">
        <ele>340</ele>
        <time>2017-04-24T09:07:11Z</time>
      </trkpt>
      <trkpt lat="46.00587" lon="4.60145">
        <ele>341</ele>
        <time>2017-04-24T09:07:13Z</time>
      </trkpt>
      <trkpt lat="46.00588" lon="4.6014">
        <ele>341</ele>
        <time>2017-04-24T09:07:14Z</time>
      </trkpt>
      <trkpt lat="46.00588" lon="4.6013">
        <ele>342</ele>
        <time>2017-04-24T09:07:16Z</time>
      </trkpt>
      <trkpt lat="46.00588" lon="4.60126">
        <ele>342</ele>
        <time>2017-04-24T09:07:17Z</time>
      </trkpt>
      <trkpt lat="46.0059" lon="4.60116">
        <ele>342</ele>
        <time>2017-04-24T09:07:19Z</time>
      </trkpt>
      <trkpt lat="46.00591" lon="4.60112">
        <ele>341</ele>
        <time>2017-04-24T09:07:20Z</time>
      </trkpt>
      <trkpt lat="46.0059" lon="4.60101">
        <ele>341</ele>
        <time>2017-04-24T09:07:22Z</time>
      </trkpt>
      <trkpt lat="46.0059" lon="4.60097">
        <ele>340</ele>
        <time>2017-04-24T09:07:23Z</time>
      </trkpt>
      <trkpt lat="46.00589" lon="4.60086">
        <ele>339</ele>
        <time>2017-04-24T09:07:26Z</time>
      </trkpt>
      <trkpt lat="46.00588" lon="4.60083">
        <ele>339</ele>
        <time>2017-04-24T09:07:27Z</time>
      </trkpt>
      <trkpt lat="46.00588" lon="4.6007">
        <ele>340</ele>
        <time>2017-04-24T09:07:30Z</time>
      </trkpt>
      <trkpt lat="46.00589" lon="4.60065">
        <ele>341</ele>
        <time>2017-04-24T09:07:31Z</time>
      </trkpt>
      <trkpt lat="46.00588" lon="4.60055">
        <ele>341</ele>
        <time>2017-04-24T09:07:34Z</time>
      </trkpt>
      <trkpt lat="46.00589" lon="4.60051">
        <ele>341</ele>
        <time>2017-04-24T09:07:35Z</time>
      </trkpt>
      <trkpt lat="46.00589" lon="4.60038">
        <ele>342</ele>
        <time>2017-04-24T09:07:38Z</time>
      </trkpt>
      <trkpt lat="46.00589" lon="4.60032">
        <ele>341</ele>
        <time>2017-04-24T09:07:39Z</time>
      </trkpt>
      <trkpt lat="46.0059" lon="4.60019">
        <ele>341</ele>
        <time>2017-04-24T09:07:41Z</time>
      </trkpt>
      <trkpt lat="46.0059" lon="4.60014">
        <ele>341</ele>
        <time>2017-04-24T09:07:42Z</time>
      </trkpt>
      <trkpt lat="46.00591" lon="4.60004">
        <ele>340</ele>
        <time>2017-04-24T09:07:44Z</time>
      </trkpt>
      <trkpt lat="46.00591" lon="4.59999">
        <ele>341</ele>
        <time>2017-04-24T09:07:45Z</time>
      </trkpt>
      <trkpt lat="46.00593" lon="4.5999">
        <ele>342</ele>
        <time>2017-04-24T09:07:47Z</time>
      </trkpt>
      <trkpt lat="46.00593" lon="4.59984">
        <ele>343</ele>
        <time>2017-04-24T09:07:48Z</time>
      </trkpt>
      <trkpt lat="46.00595" lon="4.59972">
        <ele>344</ele>
        <time>2017-04-24T09:07:50Z</time>
      </trkpt>
      <trkpt lat="46.00595" lon="4.59965">
        <ele>345</ele>
        <time>2017-04-24T09:07:51Z</time>
      </trkpt>
      <trkpt lat="46.00595" lon="4.59955">
        <ele>345</ele>
        <time>2017-04-24T09:07:53Z</time>
      </trkpt>
      <trkpt lat="46.00595" lon="4.5995">
        <ele>345</ele>
        <time>2017-04-24T09:07:54Z</time>
      </trkpt>
      <trkpt lat="46.00595" lon="4.59941">
        <ele>345</ele>
        <time>2017-04-24T09:07:56Z</time>
      </trkpt>
      <trkpt lat="46.00595" lon="4.59937">
        <ele>344</ele>
        <time>2017-04-24T09:07:57Z</time>
      </trkpt>
      <trkpt lat="46.00596" lon="4.59929">
        <ele>344</ele>
        <time>2017-04-24T09:07:59Z</time>
      </trkpt>
      <trkpt lat="46.00597" lon="4.59923">
        <ele>344</ele>
        <time>2017-04-24T09:08:00Z</time>
      </trkpt>
      <trkpt lat="46.00598" lon="4.59915">
        <ele>344</ele>
        <time>2017-04-24T09:08:02Z</time>
      </trkpt>
      <trkpt lat="46.00598" lon="4.5991">
        <ele>345</ele>
        <time>2017-04-24T09:08:03Z</time>
      </trkpt>
      <trkpt lat="46.00598" lon="4.59901">
        <ele>346</ele>
        <time>2017-04-24T09:08:05Z</time>
      </trkpt>
      <trkpt lat="46.00598" lon="4.59896">
        <ele>346</ele>
        <time>2017-04-24T09:08:06Z</time>
      </trkpt>
      <trkpt lat="46.00598" lon="4.59886">
        <ele>347</ele>
        <time>2017-04-24T09:08:08Z</time>
      </trkpt>
      <trkpt lat="46.00598" lon="4.59882">
        <ele>347</ele>
        <time>2017-04-24T09:08:09Z</time>
      </trkpt>
      <trkpt lat="46.00598" lon="4.59873">
        <ele>347</ele>
        <time>2017-04-24T09:08:11Z</time>
      </trkpt>
      <trkpt lat="46.00599" lon="4.59869">
        <ele>347</ele>
        <time>2017-04-24T09:08:12Z</time>
      </trkpt>
      <trkpt lat="46.006" lon="4.59857">
        <ele>347</ele>
        <time>2017-04-24T09:08:15Z</time>
      </trkpt>
      <trkpt lat="46.006" lon="4.59853">
        <ele>347</ele>
        <time>2017-04-24T09:08:16Z</time>
      </trkpt>
      <trkpt lat="46.00601" lon="4.59842">
        <ele>346</ele>
        <time>2017-04-24T09:08:19Z</time>
      </trkpt>
      <trkpt lat="46.00601" lon="4.59837">
        <ele>346</ele>
        <time>2017-04-24T09:08:20Z</time>
      </trkpt>
      <trkpt lat="46.00602" lon="4.59825">
        <ele>348</ele>
        <time>2017-04-24T09:08:24Z</time>
      </trkpt>
      <trkpt lat="46.00602" lon="4.59822">
        <ele>348</ele>
        <time>2017-04-24T09:08:25Z</time>
      </trkpt>
      <trkpt lat="46.00603" lon="4.59811">
        <ele>349</ele>
        <time>2017-04-24T09:08:29Z</time>
      </trkpt>
      <trkpt lat="46.00603" lon="4.59808">
        <ele>349</ele>
        <time>2017-04-24T09:08:30Z</time>
      </trkpt>
      <trkpt lat="46.00603" lon="4.59797">
        <ele>350</ele>
        <time>2017-04-24T09:08:34Z</time>
      </trkpt>
      <trkpt lat="46.00603" lon="4.59794">
        <ele>350</ele>
        <time>2017-04-24T09:08:35Z</time>
      </trkpt>
      <trkpt lat="46.00603" lon="4.59783">
        <ele>350</ele>
        <time>2017-04-24T09:08:39Z</time>
      </trkpt>
      <trkpt lat="46.00603" lon="4.59779">
        <ele>350</ele>
        <time>2017-04-24T09:08:40Z</time>
      </trkpt>
      <trkpt lat="46.00604" lon="4.59769">
        <ele>351</ele>
        <time>2017-04-24T09:08:43Z</time>
      </trkpt>
      <trkpt lat="46.00605" lon="4.59766">
        <ele>351</ele>
        <time>2017-04-24T09:08:44Z</time>
      </trkpt>
      <trkpt lat="46.00605" lon="4.59756">
        <ele>351</ele>
        <time>2017-04-24T09:08:47Z</time>
      </trkpt>
      <trkpt lat="46.00606" lon="4.59753">
        <ele>351</ele>
        <time>2017-04-24T09:08:48Z</time>
      </trkpt>
      <trkpt lat="46.00607" lon="4.59743">
        <ele>355</ele>
        <time>2017-04-24T09:08:51Z</time>
      </trkpt>
      <trkpt lat="46.00607" lon="4.59739">
        <ele>355</ele>
        <time>2017-04-24T09:08:52Z</time>
      </trkpt>
      <trkpt lat="46.00608" lon="4.59728">
        <ele>356</ele>
        <time>2017-04-24T09:08:55Z</time>
      </trkpt>
      <trkpt lat="46.00609" lon="4.59725">
        <ele>357</ele>
        <time>2017-04-24T09:08:56Z</time>
      </trkpt>
      <trkpt lat="46.0061" lon="4.59713">
        <ele>358</ele>
        <time>2017-04-24T09:08:59Z</time>
      </trkpt>
      <trkpt lat="46.0061" lon="4.5971">
        <ele>358</ele>
        <time>2017-04-24T09:09:00Z</time>
      </trkpt>
      <trkpt lat="46.00609" lon="4.59698">
        <ele>358</ele>
        <time>2017-04-24T09:09:04Z</time>
      </trkpt>
      <trkpt lat="46.00609" lon="4.59696">
        <ele>358</ele>
        <time>2017-04-24T09:09:05Z</time>
      </trkpt>
      <trkpt lat="46.00609" lon="4.59684">
        <ele>359</ele>
        <time>2017-04-24T09:09:09Z</time>
      </trkpt>
      <trkpt lat="46.00609" lon="4.59681">
        <ele>359</ele>
        <time>2017-04-24T09:09:10Z</time>
      </trkpt>
      <trkpt lat="46.00608" lon="4.5967">
        <ele>359</ele>
        <time>2017-04-24T09:09:14Z</time>
      </trkpt>
      <trkpt lat="46.00607" lon="4.59667">
        <ele>359</ele>
        <time>2017-04-24T09:09:15Z</time>
      </trkpt>
      <trkpt lat="46.00608" lon="4.59655">
        <ele>363</ele>
        <time>2017-04-24T09:09:19Z</time>
      </trkpt>
      <trkpt lat="46.00608" lon="4.59651">
        <ele>363</ele>
        <time>2017-04-24T09:09:20Z</time>
      </trkpt>
      <trkpt lat="46.00609" lon="4.5964">
        <ele>364</ele>
        <time>2017-04-24T09:09:23Z</time>
      </trkpt>
      <trkpt lat="46.00609" lon="4.59634">
        <ele>364</ele>
        <time>2017-04-24T09:09:24Z</time>
      </trkpt>
      <trkpt lat="46.00608" lon="4.59623">
        <ele>365</ele>
        <time>2017-04-24T09:09:27Z</time>
      </trkpt>
      <trkpt lat="46.00608" lon="4.5962">
        <ele>365</ele>
        <time>2017-04-24T09:09:28Z</time>
      </trkpt>
      <trkpt lat="46.00609" lon="4.59608">
        <ele>365</ele>
        <time>2017-04-24T09:09:32Z</time>
      </trkpt>
      <trkpt lat="46.00609" lon="4.59605">
        <ele>365</ele>
        <time>2017-04-24T09:09:33Z</time>
      </trkpt>
      <trkpt lat="46.00609" lon="4.59592">
        <ele>364</ele>
        <time>2017-04-24T09:09:37Z</time>
      </trkpt>
      <trkpt lat="46.00609" lon="4.59589">
        <ele>364</ele>
        <time>2017-04-24T09:09:38Z</time>
      </trkpt>
      <trkpt lat="46.00609" lon="4.59577">
        <ele>367</ele>
        <time>2017-04-24T09:09:42Z</time>
      </trkpt>
      <trkpt lat="46.00608" lon="4.59575">
        <ele>367</ele>
        <time>2017-04-24T09:09:43Z</time>
      </trkpt>
      <trkpt lat="46.00609" lon="4.59564">
        <ele>368</ele>
        <time>2017-04-24T09:09:47Z</time>
      </trkpt>
      <trkpt lat="46.00609" lon="4.59561">
        <ele>368</ele>
        <time>2017-04-24T09:09:48Z</time>
      </trkpt>
      <trkpt lat="46.00609" lon="4.59551">
        <ele>369</ele>
        <time>2017-04-24T09:09:51Z</time>
      </trkpt>
      <trkpt lat="46.00609" lon="4.59548">
        <ele>369</ele>
        <time>2017-04-24T09:09:52Z</time>
      </trkpt>
      <trkpt lat="46.00609" lon="4.59535">
        <ele>369</ele>
        <time>2017-04-24T09:09:56Z</time>
      </trkpt>
      <trkpt lat="46.00609" lon="4.59533">
        <ele>369</ele>
        <time>2017-04-24T09:09:57Z</time>
      </trkpt>
      <trkpt lat="46.00609" lon="4.5952">
        <ele>369</ele>
        <time>2017-04-24T09:10:01Z</time>
      </trkpt>
      <trkpt lat="46.00609" lon="4.59517">
        <ele>369</ele>
        <time>2017-04-24T09:10:02Z</time>
      </trkpt>
      <trkpt lat="46.00609" lon="4.59505">
        <ele>369</ele>
        <time>2017-04-24T09:10:06Z</time>
      </trkpt>
      <trkpt lat="46.00608" lon="4.59502">
        <ele>368</ele>
        <time>2017-04-24T09:10:07Z</time>
      </trkpt>
      <trkpt lat="46.00609" lon="4.5949">
        <ele>370</ele>
        <time>2017-04-24T09:10:11Z</time>
      </trkpt>
      <trkpt lat="46.00609" lon="4.59487">
        <ele>370</ele>
        <time>2017-04-24T09:10:12Z</time>
      </trkpt>
      <trkpt lat="46.00607" lon="4.59474">
        <ele>371</ele>
        <time>2017-04-24T09:10:16Z</time>
      </trkpt>
      <trkpt lat="46.00607" lon="4.59471">
        <ele>371</ele>
        <time>2017-04-24T09:10:17Z</time>
      </trkpt>
      <trkpt lat="46.00605" lon="4.5946">
        <ele>371</ele>
        <time>2017-04-24T09:10:21Z</time>
      </trkpt>
      <trkpt lat="46.00605" lon="4.59457">
        <ele>371</ele>
        <time>2017-04-24T09:10:22Z</time>
      </trkpt>
      <trkpt lat="46.00605" lon="4.59447">
        <ele>371</ele>
        <time>2017-04-24T09:10:25Z</time>
      </trkpt>
      <trkpt lat="46.00606" lon="4.59444">
        <ele>371</ele>
        <time>2017-04-24T09:10:26Z</time>
      </trkpt>
      <trkpt lat="46.00607" lon="4.59433">
        <ele>370</ele>
        <time>2017-04-24T09:10:30Z</time>
      </trkpt>
      <trkpt lat="46.00608" lon="4.5943">
        <ele>371</ele>
        <time>2017-04-24T09:10:31Z</time>
      </trkpt>
      <trkpt lat="46.00607" lon="4.59418">
        <ele>370</ele>
        <time>2017-04-24T09:10:35Z</time>
      </trkpt>
      <trkpt lat="46.00607" lon="4.59415">
        <ele>371</ele>
        <time>2017-04-24T09:10:36Z</time>
      </trkpt>
      <trkpt lat="46.00606" lon="4.59403">
        <ele>372</ele>
        <time>2017-04-24T09:10:40Z</time>
      </trkpt>
      <trkpt lat="46.00606" lon="4.59401">
        <ele>372</ele>
        <time>2017-04-24T09:10:41Z</time>
      </trkpt>
      <trkpt lat="46.00604" lon="4.59391">
        <ele>373</ele>
        <time>2017-04-24T09:10:45Z</time>
      </trkpt>
      <trkpt lat="46.00603" lon="4.59388">
        <ele>373</ele>
        <time>2017-04-24T09:10:46Z</time>
      </trkpt>
      <trkpt lat="46.00599" lon="4.59379">
        <ele>373</ele>
        <time>2017-04-24T09:10:51Z</time>
      </trkpt>
      <trkpt lat="46.00599" lon="4.59376">
        <ele>373</ele>
        <time>2017-04-24T09:10:52Z</time>
      </trkpt>
      <trkpt lat="46.00596" lon="4.59367">
        <ele>373</ele>
        <time>2017-04-24T09:10:56Z</time>
      </trkpt>
      <trkpt lat="46.00594" lon="4.59364">
        <ele>373</ele>
        <time>2017-04-24T09:10:57Z</time>
      </trkpt>
      <trkpt lat="46.0059" lon="4.59355">
        <ele>372</ele>
        <time>2017-04-24T09:11:01Z</time>
      </trkpt>
      <trkpt lat="46.00589" lon="4.59352">
        <ele>371</ele>
        <time>2017-04-24T09:11:02Z</time>
      </trkpt>
      <trkpt lat="46.00585" lon="4.59341">
        <ele>369</ele>
        <time>2017-04-24T09:11:06Z</time>
      </trkpt>
      <trkpt lat="46.00584" lon="4.59337">
        <ele>368</ele>
        <time>2017-04-24T09:11:07Z</time>
      </trkpt>
      <trkpt lat="46.00581" lon="4.59326">
        <ele>367</ele>
        <time>2017-04-24T09:11:11Z</time>
      </trkpt>
      <trkpt lat="46.0058" lon="4.59324">
        <ele>367</ele>
        <time>2017-04-24T09:11:12Z</time>
      </trkpt>
      <trkpt lat="46.00577" lon="4.59313">
        <ele>368</ele>
        <time>2017-04-24T09:11:16Z</time>
      </trkpt>
      <trkpt lat="46.00576" lon="4.59309">
        <ele>368</ele>
        <time>2017-04-24T09:11:17Z</time>
      </trkpt>
      <trkpt lat="46.00575" lon="4.59298">
        <ele>368</ele>
        <time>2017-04-24T09:11:21Z</time>
      </trkpt>
      <trkpt lat="46.00575" lon="4.59295">
        <ele>368</ele>
        <time>2017-04-24T09:11:22Z</time>
      </trkpt>
      <trkpt lat="46.00576" lon="4.59282">
        <ele>369</ele>
        <time>2017-04-24T09:11:26Z</time>
      </trkpt>
      <trkpt lat="46.00576" lon="4.59279">
        <ele>369</ele>
        <time>2017-04-24T09:11:27Z</time>
      </trkpt>
      <trkpt lat="46.00576" lon="4.59267">
        <ele>370</ele>
        <time>2017-04-24T09:11:30Z</time>
      </trkpt>
      <trkpt lat="46.00576" lon="4.59263">
        <ele>370</ele>
        <time>2017-04-24T09:11:31Z</time>
      </trkpt>
      <trkpt lat="46.00577" lon="4.59251">
        <ele>370</ele>
        <time>2017-04-24T09:11:34Z</time>
      </trkpt>
      <trkpt lat="46.00577" lon="4.59248">
        <ele>371</ele>
        <time>2017-04-24T09:11:35Z</time>
      </trkpt>
      <trkpt lat="46.00579" lon="4.59236">
        <ele>371</ele>
        <time>2017-04-24T09:11:39Z</time>
      </trkpt>
      <trkpt lat="46.0058" lon="4.59233">
        <ele>371</ele>
        <time>2017-04-24T09:11:40Z</time>
      </trkpt>
      <trkpt lat="46.00582" lon="4.59223">
        <ele>371</ele>
        <time>2017-04-24T09:11:44Z</time>
      </trkpt>
      <trkpt lat="46.00583" lon="4.5922">
        <ele>371</ele>
        <time>2017-04-24T09:11:45Z</time>
      </trkpt>
      <trkpt lat="46.00586" lon="4.59213">
        <ele>381</ele>
        <time>2017-04-24T09:11:48Z</time>
      </trkpt>
      <trkpt lat="46.00588" lon="4.59209">
        <ele>381</ele>
        <time>2017-04-24T09:11:49Z</time>
      </trkpt>
      <trkpt lat="46.0059" lon="4.59199">
        <ele>381</ele>
        <time>2017-04-24T09:11:52Z</time>
      </trkpt>
      <trkpt lat="46.0059" lon="4.59196">
        <ele>381</ele>
        <time>2017-04-24T09:11:53Z</time>
      </trkpt>
      <trkpt lat="46.00591" lon="4.59185">
        <ele>379</ele>
        <time>2017-04-24T09:11:57Z</time>
      </trkpt>
      <trkpt lat="46.00591" lon="4.59182">
        <ele>378</ele>
        <time>2017-04-24T09:11:58Z</time>
      </trkpt>
      <trkpt lat="46.00594" lon="4.5917">
        <ele>377</ele>
        <time>2017-04-24T09:12:02Z</time>
      </trkpt>
      <trkpt lat="46.00595" lon="4.59168">
        <ele>377</ele>
        <time>2017-04-24T09:12:03Z</time>
      </trkpt>
      <trkpt lat="46.00594" lon="4.59156">
        <ele>379</ele>
        <time>2017-04-24T09:12:08Z</time>
      </trkpt>
      <trkpt lat="46.00594" lon="4.59153">
        <ele>380</ele>
        <time>2017-04-24T09:12:09Z</time>
      </trkpt>
      <trkpt lat="46.00592" lon="4.59144">
        <ele>381</ele>
        <time>2017-04-24T09:12:12Z</time>
      </trkpt>
      <trkpt lat="46.00591" lon="4.59141">
        <ele>382</ele>
        <time>2017-04-24T09:12:13Z</time>
      </trkpt>
      <trkpt lat="46.00591" lon="4.59128">
        <ele>383</ele>
        <time>2017-04-24T09:12:17Z</time>
      </trkpt>
      <trkpt lat="46.00591" lon="4.59125">
        <ele>383</ele>
        <time>2017-04-24T09:12:18Z</time>
      </trkpt>
      <trkpt lat="46.00592" lon="4.59114">
        <ele>382</ele>
        <time>2017-04-24T09:12:22Z</time>
      </trkpt>
      <trkpt lat="46.00592" lon="4.59112">
        <ele>382</ele>
        <time>2017-04-24T09:12:23Z</time>
      </trkpt>
      <trkpt lat="46.00593" lon="4.59102">
        <ele>381</ele>
        <time>2017-04-24T09:12:28Z</time>
      </trkpt>
      <trkpt lat="46.00594" lon="4.59099">
        <ele>381</ele>
        <time>2017-04-24T09:12:29Z</time>
      </trkpt>
      <trkpt lat="46.00591" lon="4.5909">
        <ele>378</ele>
        <time>2017-04-24T09:12:31Z</time>
      </trkpt>
      <trkpt lat="46.00593" lon="4.59086">
        <ele>378</ele>
        <time>2017-04-24T09:12:32Z</time>
      </trkpt>
      <trkpt lat="46.00597" lon="4.59076">
        <ele>379</ele>
        <time>2017-04-24T09:12:36Z</time>
      </trkpt>
      <trkpt lat="46.00598" lon="4.59074">
        <ele>379</ele>
        <time>2017-04-24T09:12:37Z</time>
      </trkpt>
      <trkpt lat="46.00602" lon="4.59066">
        <ele>381</ele>
        <time>2017-04-24T09:12:39Z</time>
      </trkpt>
      <trkpt lat="46.00605" lon="4.59064">
        <ele>381</ele>
        <time>2017-04-24T09:12:40Z</time>
      </trkpt>
      <trkpt lat="46.00611" lon="4.59057">
        <ele>382</ele>
        <time>2017-04-24T09:12:43Z</time>
      </trkpt>
      <trkpt lat="46.00613" lon="4.59056">
        <ele>383</ele>
        <time>2017-04-24T09:12:44Z</time>
      </trkpt>
      <trkpt lat="46.00619" lon="4.59051">
        <ele>384</ele>
        <time>2017-04-24T09:12:47Z</time>
      </trkpt>
      <trkpt lat="46.00622" lon="4.59048">
        <ele>384</ele>
        <time>2017-04-24T09:12:48Z</time>
      </trkpt>
      <trkpt lat="46.00628" lon="4.59042">
        <ele>384</ele>
        <time>2017-04-24T09:12:51Z</time>
      </trkpt>
      <trkpt lat="46.0063" lon="4.59041">
        <ele>385</ele>
        <time>2017-04-24T09:12:52Z</time>
      </trkpt>
      <trkpt lat="46.00637" lon="4.59033">
        <ele>385</ele>
        <time>2017-04-24T09:12:56Z</time>
      </trkpt>
      <trkpt lat="46.00638" lon="4.59032">
        <ele>385</ele>
        <time>2017-04-24T09:12:57Z</time>
      </trkpt>
      <trkpt lat="46.00644" lon="4.59026">
        <ele>385</ele>
        <time>2017-04-24T09:13:00Z</time>
      </trkpt>
      <trkpt lat="46.00646" lon="4.59024">
        <ele>385</ele>
        <time>2017-04-24T09:13:01Z</time>
      </trkpt>
      <trkpt lat="46.00651" lon="4.59017">
        <ele>385</ele>
        <time>2017-04-24T09:13:03Z</time>
      </trkpt>
      <trkpt lat="46.00653" lon="4.59016">
        <ele>385</ele>
        <time>2017-04-24T09:13:04Z</time>
      </trkpt>
      <trkpt lat="46.00661" lon="4.59009">
        <ele>385</ele>
        <time>2017-04-24T09:13:08Z</time>
      </trkpt>
      <trkpt lat="46.00662" lon="4.59008">
        <ele>385</ele>
        <time>2017-04-24T09:13:09Z</time>
      </trkpt>
      <trkpt lat="46.00668" lon="4.59001">
        <ele>387</ele>
        <time>2017-04-24T09:13:13Z</time>
      </trkpt>
      <trkpt lat="46.0067" lon="4.58999">
        <ele>386</ele>
        <time>2017-04-24T09:13:14Z</time>
      </trkpt>
      <trkpt lat="46.00676" lon="4.58989">
        <ele>389</ele>
        <time>2017-04-24T09:13:18Z</time>
      </trkpt>
      <trkpt lat="46.00677" lon="4.58988">
        <ele>389</ele>
        <time>2017-04-24T09:13:19Z</time>
      </trkpt>
      <trkpt lat="46.00684" lon="4.58984">
        <ele>391</ele>
        <time>2017-04-24T09:13:24Z</time>
      </trkpt>
      <trkpt lat="46.00686" lon="4.58982">
        <ele>391</ele>
        <time>2017-04-24T09:13:25Z</time>
      </trkpt>
      <trkpt lat="46.00693" lon="4.58977">
        <ele>392</ele>
        <time>2017-04-24T09:13:30Z</time>
      </trkpt>
      <trkpt lat="46.00694" lon="4.58976">
        <ele>392</ele>
        <time>2017-04-24T09:13:31Z</time>
      </trkpt>
      <trkpt lat="46.007" lon="4.5897">
        <ele>393</ele>
        <time>2017-04-24T09:13:35Z</time>
      </trkpt>
      <trkpt lat="46.00703" lon="4.58969">
        <ele>393</ele>
        <time>2017-04-24T09:13:36Z</time>
      </trkpt>
      <trkpt lat="46.00708" lon="4.58963">
        <ele>394</ele>
        <time>2017-04-24T09:13:39Z</time>
      </trkpt>
      <trkpt lat="46.0071" lon="4.58961">
        <ele>394</ele>
        <time>2017-04-24T09:13:40Z</time>
      </trkpt>
      <trkpt lat="46.00717" lon="4.58955">
        <ele>394</ele>
        <time>2017-04-24T09:13:44Z</time>
      </trkpt>
      <trkpt lat="46.00719" lon="4.58954">
        <ele>394</ele>
        <time>2017-04-24T09:13:45Z</time>
      </trkpt>
      <trkpt lat="46.00726" lon="4.58948">
        <ele>394</ele>
        <time>2017-04-24T09:13:49Z</time>
      </trkpt>
      <trkpt lat="46.00727" lon="4.58947">
        <ele>394</ele>
        <time>2017-04-24T09:13:50Z</time>
      </trkpt>
      <trkpt lat="46.00734" lon="4.58941">
        <ele>394</ele>
        <time>2017-04-24T09:13:54Z</time>
      </trkpt>
      <trkpt lat="46.00735" lon="4.58939">
        <ele>394</ele>
        <time>2017-04-24T09:13:55Z</time>
      </trkpt>
      <trkpt lat="46.00742" lon="4.58933">
        <ele>393</ele>
        <time>2017-04-24T09:13:59Z</time>
      </trkpt>
      <trkpt lat="46.00744" lon="4.58932">
        <ele>393</ele>
        <time>2017-04-24T09:14:00Z</time>
      </trkpt>
      <trkpt lat="46.00748" lon="4.58926">
        <ele>393</ele>
        <time>2017-04-24T09:14:02Z</time>
      </trkpt>
      <trkpt lat="46.00752" lon="4.58922">
        <ele>397</ele>
        <time>2017-04-24T09:14:03Z</time>
      </trkpt>
      <trkpt lat="46.00757" lon="4.58914">
        <ele>395</ele>
        <time>2017-04-24T09:14:05Z</time>
      </trkpt>
      <trkpt lat="46.00759" lon="4.58911">
        <ele>395</ele>
        <time>2017-04-24T09:14:06Z</time>
      </trkpt>
      <trkpt lat="46.00766" lon="4.58907">
        <ele>397</ele>
        <time>2017-04-24T09:14:09Z</time>
      </trkpt>
      <trkpt lat="46.00768" lon="4.58906">
        <ele>398</ele>
        <time>2017-04-24T09:14:10Z</time>
      </trkpt>
      <trkpt lat="46.00774" lon="4.58898">
        <ele>399</ele>
        <time>2017-04-24T09:14:13Z</time>
      </trkpt>
      <trkpt lat="46.00776" lon="4.58895">
        <ele>400</ele>
        <time>2017-04-24T09:14:14Z</time>
      </trkpt>
      <trkpt lat="46.00781" lon="4.58887">
        <ele>400</ele>
        <time>2017-04-24T09:14:17Z</time>
      </trkpt>
      <trkpt lat="46.00783" lon="4.58885">
        <ele>400</ele>
        <time>2017-04-24T09:14:18Z</time>
      </trkpt>
      <trkpt lat="46.00789" lon="4.58878">
        <ele>401</ele>
        <time>2017-04-24T09:14:23Z</time>
      </trkpt>
      <trkpt lat="46.0079" lon="4.58876">
        <ele>401</ele>
        <time>2017-04-24T09:14:24Z</time>
      </trkpt>
      <trkpt lat="46.00797" lon="4.5887">
        <ele>401</ele>
        <time>2017-04-24T09:14:29Z</time>
      </trkpt>
      <trkpt lat="46.00798" lon="4.5887">
        <ele>401</ele>
        <time>2017-04-24T09:14:30Z</time>
      </trkpt>
      <trkpt lat="46.00805" lon="4.58865">
        <ele>402</ele>
        <time>2017-04-24T09:14:40Z</time>
      </trkpt>
      <trkpt lat="46.00807" lon="4.58863">
        <ele>402</ele>
        <time>2017-04-24T09:14:41Z</time>
      </trkpt>
      <trkpt lat="46.00814" lon="4.58855">
        <ele>402</ele>
        <time>2017-04-24T09:14:44Z</time>
      </trkpt>
      <trkpt lat="46.00816" lon="4.58852">
        <ele>402</ele>
        <time>2017-04-24T09:14:45Z</time>
      </trkpt>
      <trkpt lat="46.0082" lon="4.58843">
        <ele>402</ele>
        <time>2017-04-24T09:14:48Z</time>
      </trkpt>
      <trkpt lat="46.00821" lon="4.5884">
        <ele>402</ele>
        <time>2017-04-24T09:14:49Z</time>
      </trkpt>
      <trkpt lat="46.00826" lon="4.5883">
        <ele>400</ele>
        <time>2017-04-24T09:14:53Z</time>
      </trkpt>
      <trkpt lat="46.00827" lon="4.58827">
        <ele>399</ele>
        <time>2017-04-24T09:14:54Z</time>
      </trkpt>
      <trkpt lat="46.00831" lon="4.58819">
        <ele>398</ele>
        <time>2017-04-24T09:14:57Z</time>
      </trkpt>
      <trkpt lat="46.00833" lon="4.58818">
        <ele>398</ele>
        <time>2017-04-24T09:14:58Z</time>
      </trkpt>
      <trkpt lat="46.00838" lon="4.58811">
        <ele>407</ele>
        <time>2017-04-24T09:15:02Z</time>
      </trkpt>
      <trkpt lat="46.0084" lon="4.58809">
        <ele>407</ele>
        <time>2017-04-24T09:15:03Z</time>
      </trkpt>
      <trkpt lat="46.00846" lon="4.58804">
        <ele>408</ele>
        <time>2017-04-24T09:15:06Z</time>
      </trkpt>
      <trkpt lat="46.00848" lon="4.58802">
        <ele>408</ele>
        <time>2017-04-24T09:15:07Z</time>
      </trkpt>
      <trkpt lat="46.00852" lon="4.58797">
        <ele>408</ele>
        <time>2017-04-24T09:15:08Z</time>
      </trkpt>
      <trkpt lat="46.00856" lon="4.58793">
        <ele>408</ele>
        <time>2017-04-24T09:15:09Z</time>
      </trkpt>
      <trkpt lat="46.00862" lon="4.58785">
        <ele>408</ele>
        <time>2017-04-24T09:15:12Z</time>
      </trkpt>
      <trkpt lat="46.00864" lon="4.58783">
        <ele>408</ele>
        <time>2017-04-24T09:15:13Z</time>
      </trkpt>
      <trkpt lat="46.00869" lon="4.58774">
        <ele>408</ele>
        <time>2017-04-24T09:15:16Z</time>
      </trkpt>
      <trkpt lat="46.00872" lon="4.58767">
        <ele>408</ele>
        <time>2017-04-24T09:15:17Z</time>
      </trkpt>
      <trkpt lat="46.00878" lon="4.58759">
        <ele>409</ele>
        <time>2017-04-24T09:15:20Z</time>
      </trkpt>
      <trkpt lat="46.00879" lon="4.58757">
        <ele>409</ele>
        <time>2017-04-24T09:15:21Z</time>
      </trkpt>
      <trkpt lat="46.00884" lon="4.5875">
        <ele>410</ele>
        <time>2017-04-24T09:15:25Z</time>
      </trkpt>
      <trkpt lat="46.00886" lon="4.58748">
        <ele>403</ele>
        <time>2017-04-24T09:15:26Z</time>
      </trkpt>
      <trkpt lat="46.00891" lon="4.5874">
        <ele>404</ele>
        <time>2017-04-24T09:15:31Z</time>
      </trkpt>
      <trkpt lat="46.00892" lon="4.58738">
        <ele>405</ele>
        <time>2017-04-24T09:15:32Z</time>
      </trkpt>
      <trkpt lat="46.00898" lon="4.58731">
        <ele>405</ele>
        <time>2017-04-24T09:15:38Z</time>
      </trkpt>
      <trkpt lat="46.00899" lon="4.5873">
        <ele>405</ele>
        <time>2017-04-24T09:15:39Z</time>
      </trkpt>
      <trkpt lat="46.00905" lon="4.58721">
        <ele>404</ele>
        <time>2017-04-24T09:15:44Z</time>
      </trkpt>
      <trkpt lat="46.00905" lon="4.58718">
        <ele>404</ele>
        <time>2017-04-24T09:15:45Z</time>
      </trkpt>
      <trkpt lat="46.0091" lon="4.58711">
        <ele>403</ele>
        <time>2017-04-24T09:15:48Z</time>
      </trkpt>
      <trkpt lat="46.00911" lon="4.58709">
        <ele>403</ele>
        <time>2017-04-24T09:15:49Z</time>
      </trkpt>
      <trkpt lat="46.00916" lon="4.58702">
        <ele>403</ele>
        <time>2017-04-24T09:15:52Z</time>
      </trkpt>
      <trkpt lat="46.00918" lon="4.587">
        <ele>417</ele>
        <time>2017-04-24T09:15:53Z</time>
      </trkpt>
      <trkpt lat="46.00924" lon="4.58692">
        <ele>416</ele>
        <time>2017-04-24T09:15:57Z</time>
      </trkpt>
      <trkpt lat="46.00926" lon="4.58691">
        <ele>416</ele>
        <time>2017-04-24T09:15:58Z</time>
      </trkpt>
      <trkpt lat="46.00932" lon="4.58685">
        <ele>416</ele>
        <time>2017-04-24T09:16:02Z</time>
      </trkpt>
      <trkpt lat="46.00933" lon="4.58683">
        <ele>416</ele>
        <time>2017-04-24T09:16:03Z</time>
      </trkpt>
      <trkpt lat="46.00939" lon="4.58677">
        <ele>416</ele>
        <time>2017-04-24T09:16:07Z</time>
      </trkpt>
      <trkpt lat="46.00941" lon="4.58676">
        <ele>417</ele>
        <time>2017-04-24T09:16:08Z</time>
      </trkpt>
      <trkpt lat="46.00948" lon="4.58672">
        <ele>419</ele>
        <time>2017-04-24T09:16:12Z</time>
      </trkpt>
      <trkpt lat="46.00949" lon="4.58671">
        <ele>419</ele>
        <time>2017-04-24T09:16:13Z</time>
      </trkpt>
      <trkpt lat="46.00957" lon="4.58667">
        <ele>411</ele>
        <time>2017-04-24T09:16:18Z</time>
      </trkpt>
      <trkpt lat="46.00958" lon="4.58665">
        <ele>411</ele>
        <time>2017-04-24T09:16:19Z</time>
      </trkpt>
      <trkpt lat="46.00965" lon="4.58659">
        <ele>413</ele>
        <time>2017-04-24T09:16:23Z</time>
      </trkpt>
      <trkpt lat="46.00966" lon="4.58658">
        <ele>413</ele>
        <time>2017-04-24T09:16:24Z</time>
      </trkpt>
      <trkpt lat="46.00972" lon="4.58652">
        <ele>414</ele>
        <time>2017-04-24T09:16:27Z</time>
      </trkpt>
      <trkpt lat="46.00974" lon="4.58649">
        <ele>414</ele>
        <time>2017-04-24T09:16:28Z</time>
      </trkpt>
      <trkpt lat="46.00977" lon="4.58645">
        <ele>414</ele>
        <time>2017-04-24T09:16:30Z</time>
      </trkpt>
      <trkpt lat="46.00981" lon="4.58638">
        <ele>413</ele>
        <time>2017-04-24T09:16:31Z</time>
      </trkpt>
      <trkpt lat="46.00985" lon="4.58632">
        <ele>413</ele>
        <time>2017-04-24T09:16:34Z</time>
      </trkpt>
      <trkpt lat="46.00988" lon="4.58626">
        <ele>412</ele>
        <time>2017-04-24T09:16:35Z</time>
      </trkpt>
      <trkpt lat="46.00991" lon="4.58619">
        <ele>411</ele>
        <time>2017-04-24T09:16:36Z</time>
      </trkpt>
      <trkpt lat="46.00994" lon="4.58615">
        <ele>411</ele>
        <time>2017-04-24T09:16:37Z</time>
      </trkpt>
      <trkpt lat="46.01" lon="4.58609">
        <ele>422</ele>
        <time>2017-04-24T09:16:40Z</time>
      </trkpt>
      <trkpt lat="46.01002" lon="4.58606">
        <ele>421</ele>
        <time>2017-04-24T09:16:41Z</time>
      </trkpt>
      <trkpt lat="46.01009" lon="4.586">
        <ele>420</ele>
        <time>2017-04-24T09:16:44Z</time>
      </trkpt>
      <trkpt lat="46.0101" lon="4.58599">
        <ele>420</ele>
        <time>2017-04-24T09:16:45Z</time>
      </trkpt>
      <trkpt lat="46.01019" lon="4.58596">
        <ele>421</ele>
        <time>2017-04-24T09:16:49Z</time>
      </trkpt>
      <trkpt lat="46.0102" lon="4.58595">
        <ele>421</ele>
        <time>2017-04-24T09:16:50Z</time>
      </trkpt>
      <trkpt lat="46.01026" lon="4.58591">
        <ele>423</ele>
        <time>2017-04-24T09:16:53Z</time>
      </trkpt>
      <trkpt lat="46.01029" lon="4.58589">
        <ele>423</ele>
        <time>2017-04-24T09:16:54Z</time>
      </trkpt>
      <trkpt lat="46.01036" lon="4.58584">
        <ele>424</ele>
        <time>2017-04-24T09:16:58Z</time>
      </trkpt>
      <trkpt lat="46.01038" lon="4.58583">
        <ele>414</ele>
        <time>2017-04-24T09:16:59Z</time>
      </trkpt>
      <trkpt lat="46.01044" lon="4.58576">
        <ele>415</ele>
        <time>2017-04-24T09:17:02Z</time>
      </trkpt>
      <trkpt lat="46.01045" lon="4.58575">
        <ele>415</ele>
        <time>2017-04-24T09:17:03Z</time>
      </trkpt>
      <trkpt lat="46.01052" lon="4.58571">
        <ele>416</ele>
        <time>2017-04-24T09:17:07Z</time>
      </trkpt>
      <trkpt lat="46.01055" lon="4.5857">
        <ele>416</ele>
        <time>2017-04-24T09:17:08Z</time>
      </trkpt>
      <trkpt lat="46.01061" lon="4.58565">
        <ele>417</ele>
        <time>2017-04-24T09:17:11Z</time>
      </trkpt>
      <trkpt lat="46.01064" lon="4.58561">
        <ele>417</ele>
        <time>2017-04-24T09:17:12Z</time>
      </trkpt>
      <trkpt lat="46.01071" lon="4.58555">
        <ele>417</ele>
        <time>2017-04-24T09:17:15Z</time>
      </trkpt>
      <trkpt lat="46.01074" lon="4.58554">
        <ele>417</ele>
        <time>2017-04-24T09:17:16Z</time>
      </trkpt>
      <trkpt lat="46.0108" lon="4.58551">
        <ele>416</ele>
        <time>2017-04-24T09:17:19Z</time>
      </trkpt>
      <trkpt lat="46.01083" lon="4.58549">
        <ele>416</ele>
        <time>2017-04-24T09:17:20Z</time>
      </trkpt>
      <trkpt lat="46.0109" lon="4.58545">
        <ele>424</ele>
        <time>2017-04-24T09:17:24Z</time>
      </trkpt>
      <trkpt lat="46.01092" lon="4.58545">
        <ele>424</ele>
        <time>2017-04-24T09:17:25Z</time>
      </trkpt>
      <trkpt lat="46.01101" lon="4.58544">
        <ele>424</ele>
        <time>2017-04-24T09:17:30Z</time>
      </trkpt>
      <trkpt lat="46.01103" lon="4.58544">
        <ele>424</ele>
        <time>2017-04-24T09:17:31Z</time>
      </trkpt>
      <trkpt lat="46.01107" lon="4.58542">
        <ele>424</ele>
        <time>2017-04-24T09:17:33Z</time>
      </trkpt>
      <trkpt lat="46.01203" lon="4.5856">
        <ele>433</ele>
        <time>2017-04-24T09:18:21Z</time>
      </trkpt>
      <trkpt lat="46.0121" lon="4.58564">
        <ele>433</ele>
        <time>2017-04-24T09:18:25Z</time>
      </trkpt>
      <trkpt lat="46.01212" lon="4.58566">
        <ele>433</ele>
        <time>2017-04-24T09:18:26Z</time>
      </trkpt>
      <trkpt lat="46.0122" lon="4.58566">
        <ele>434</ele>
        <time>2017-04-24T09:18:30Z</time>
      </trkpt>
      <trkpt lat="46.01223" lon="4.58566">
        <ele>434</ele>
        <time>2017-04-24T09:18:31Z</time>
      </trkpt>
      <trkpt lat="46.01229" lon="4.58562">
        <ele>434</ele>
        <time>2017-04-24T09:18:34Z</time>
      </trkpt>
      <trkpt lat="46.01232" lon="4.58561">
        <ele>434</ele>
        <time>2017-04-24T09:18:35Z</time>
      </trkpt>
      <trkpt lat="46.01238" lon="4.58561">
        <ele>434</ele>
        <time>2017-04-24T09:18:37Z</time>
      </trkpt>
      <trkpt lat="46.01242" lon="4.58562">
        <ele>435</ele>
        <time>2017-04-24T09:18:38Z</time>
      </trkpt>
      <trkpt lat="46.01248" lon="4.58565">
        <ele>435</ele>
        <time>2017-04-24T09:18:40Z</time>
      </trkpt>
      <trkpt lat="46.01251" lon="4.58568">
        <ele>436</ele>
        <time>2017-04-24T09:18:41Z</time>
      </trkpt>
      <trkpt lat="46.01256" lon="4.58567">
        <ele>436</ele>
        <time>2017-04-24T09:18:43Z</time>
      </trkpt>
      <trkpt lat="46.0126" lon="4.5857">
        <ele>436</ele>
        <time>2017-04-24T09:18:44Z</time>
      </trkpt>
      <trkpt lat="46.01266" lon="4.58574">
        <ele>436</ele>
        <time>2017-04-24T09:18:47Z</time>
      </trkpt>
      <trkpt lat="46.01269" lon="4.58573">
        <ele>436</ele>
        <time>2017-04-24T09:18:48Z</time>
      </trkpt>
      <trkpt lat="46.01276" lon="4.58571">
        <ele>435</ele>
        <time>2017-04-24T09:18:52Z</time>
      </trkpt>
      <trkpt lat="46.01278" lon="4.58569">
        <ele>435</ele>
        <time>2017-04-24T09:18:53Z</time>
      </trkpt>
      <trkpt lat="46.01285" lon="4.58567">
        <ele>434</ele>
        <time>2017-04-24T09:18:57Z</time>
      </trkpt>
      <trkpt lat="46.01287" lon="4.58567">
        <ele>434</ele>
        <time>2017-04-24T09:18:58Z</time>
      </trkpt>
      <trkpt lat="46.01295" lon="4.58567">
        <ele>434</ele>
        <time>2017-04-24T09:19:03Z</time>
      </trkpt>
      <trkpt lat="46.01297" lon="4.58567">
        <ele>434</ele>
        <time>2017-04-24T09:19:04Z</time>
      </trkpt>
      <trkpt lat="46.01303" lon="4.58569">
        <ele>434</ele>
        <time>2017-04-24T09:19:08Z</time>
      </trkpt>
      <trkpt lat="46.01306" lon="4.5857">
        <ele>434</ele>
        <time>2017-04-24T09:19:09Z</time>
      </trkpt>
      <trkpt lat="46.01314" lon="4.58573">
        <ele>435</ele>
        <time>2017-04-24T09:19:12Z</time>
      </trkpt>
      <trkpt lat="46.01317" lon="4.58573">
        <ele>435</ele>
        <time>2017-04-24T09:19:13Z</time>
      </trkpt>
      <trkpt lat="46.01325" lon="4.58577">
        <ele>436</ele>
        <time>2017-04-24T09:19:16Z</time>
      </trkpt>
      <trkpt lat="46.01328" lon="4.58578">
        <ele>436</ele>
        <time>2017-04-24T09:19:17Z</time>
      </trkpt>
      <trkpt lat="46.01336" lon="4.58579">
        <ele>436</ele>
        <time>2017-04-24T09:19:19Z</time>
      </trkpt>
      <trkpt lat="46.01338" lon="4.5858">
        <ele>436</ele>
        <time>2017-04-24T09:19:20Z</time>
      </trkpt>
      <trkpt lat="46.01345" lon="4.5858">
        <ele>435</ele>
        <time>2017-04-24T09:19:22Z</time>
      </trkpt>
      <trkpt lat="46.01349" lon="4.5858">
        <ele>435</ele>
        <time>2017-04-24T09:19:23Z</time>
      </trkpt>
      <trkpt lat="46.01357" lon="4.58579">
        <ele>434</ele>
        <time>2017-04-24T09:19:25Z</time>
      </trkpt>
      <trkpt lat="46.0136" lon="4.5858">
        <ele>434</ele>
        <time>2017-04-24T09:19:26Z</time>
      </trkpt>
      <trkpt lat="46.01366" lon="4.58589">
        <ele>438</ele>
        <time>2017-04-24T09:19:31Z</time>
      </trkpt>
      <trkpt lat="46.01368" lon="4.5859">
        <ele>438</ele>
        <time>2017-04-24T09:19:32Z</time>
      </trkpt>
      <trkpt lat="46.01375" lon="4.58597">
        <ele>438</ele>
        <time>2017-04-24T09:19:37Z</time>
      </trkpt>
      <trkpt lat="46.01375" lon="4.58597">
        <ele>438</ele>
        <time>2017-04-24T09:19:38Z</time>
      </trkpt>
      <trkpt lat="46.01383" lon="4.58602">
        <ele>438</ele>
        <time>2017-04-24T09:19:42Z</time>
      </trkpt>
      <trkpt lat="46.01385" lon="4.58603">
        <ele>438</ele>
        <time>2017-04-24T09:19:43Z</time>
      </trkpt>
      <trkpt lat="46.01389" lon="4.5861">
        <ele>438</ele>
        <time>2017-04-24T09:19:45Z</time>
      </trkpt>
      <trkpt lat="46.01392" lon="4.58614">
        <ele>438</ele>
        <time>2017-04-24T09:19:46Z</time>
      </trkpt>
      <trkpt lat="46.01399" lon="4.58619">
        <ele>438</ele>
        <time>2017-04-24T09:19:50Z</time>
      </trkpt>
      <trkpt lat="46.01401" lon="4.58621">
        <ele>438</ele>
        <time>2017-04-24T09:19:51Z</time>
      </trkpt>
      <trkpt lat="46.01407" lon="4.58626">
        <ele>439</ele>
        <time>2017-04-24T09:19:55Z</time>
      </trkpt>
      <trkpt lat="46.01409" lon="4.58627">
        <ele>439</ele>
        <time>2017-04-24T09:19:56Z</time>
      </trkpt>
      <trkpt lat="46.01409" lon="4.58639">
        <ele>440</ele>
        <time>2017-04-24T09:20:01Z</time>
      </trkpt>
      <trkpt lat="46.0141" lon="4.58644">
        <ele>441</ele>
        <time>2017-04-24T09:20:02Z</time>
      </trkpt>
      <trkpt lat="46.01418" lon="4.58647">
        <ele>441</ele>
        <time>2017-04-24T09:20:07Z</time>
      </trkpt>
      <trkpt lat="46.01419" lon="4.58648">
        <ele>441</ele>
        <time>2017-04-24T09:20:08Z</time>
      </trkpt>
      <trkpt lat="46.01428" lon="4.58651">
        <ele>441</ele>
        <time>2017-04-24T09:20:14Z</time>
      </trkpt>
      <trkpt lat="46.01429" lon="4.58651">
        <ele>441</ele>
        <time>2017-04-24T09:20:15Z</time>
      </trkpt>
      <trkpt lat="46.01436" lon="4.58654">
        <ele>441</ele>
        <time>2017-04-24T09:20:19Z</time>
      </trkpt>
      <trkpt lat="46.01438" lon="4.58654">
        <ele>441</ele>
        <time>2017-04-24T09:20:20Z</time>
      </trkpt>
      <trkpt lat="46.01446" lon="4.58656">
        <ele>442</ele>
        <time>2017-04-24T09:20:26Z</time>
      </trkpt>
      <trkpt lat="46.01448" lon="4.58654">
        <ele>442</ele>
        <time>2017-04-24T09:20:27Z</time>
      </trkpt>
      <trkpt lat="46.01455" lon="4.58649">
        <ele>442</ele>
        <time>2017-04-24T09:20:31Z</time>
      </trkpt>
      <trkpt lat="46.01456" lon="4.58647">
        <ele>442</ele>
        <time>2017-04-24T09:20:32Z</time>
      </trkpt>
      <trkpt lat="46.01463" lon="4.58639">
        <ele>441</ele>
        <time>2017-04-24T09:20:36Z</time>
      </trkpt>
      <trkpt lat="46.01464" lon="4.58638">
        <ele>442</ele>
        <time>2017-04-24T09:20:37Z</time>
      </trkpt>
      <trkpt lat="46.01472" lon="4.58641">
        <ele>442</ele>
        <time>2017-04-24T09:20:41Z</time>
      </trkpt>
      <trkpt lat="46.01474" lon="4.58641">
        <ele>443</ele>
        <time>2017-04-24T09:20:42Z</time>
      </trkpt>
      <trkpt lat="46.01482" lon="4.58637">
        <ele>443</ele>
        <time>2017-04-24T09:20:47Z</time>
      </trkpt>
      <trkpt lat="46.01484" lon="4.58636">
        <ele>443</ele>
        <time>2017-04-24T09:20:48Z</time>
      </trkpt>
      <trkpt lat="46.01492" lon="4.58635">
        <ele>443</ele>
        <time>2017-04-24T09:20:53Z</time>
      </trkpt>
      <trkpt lat="46.01494" lon="4.58635">
        <ele>443</ele>
        <time>2017-04-24T09:20:54Z</time>
      </trkpt>
      <trkpt lat="46.01501" lon="4.58632">
        <ele>450</ele>
        <time>2017-04-24T09:20:59Z</time>
      </trkpt>
      <trkpt lat="46.01503" lon="4.5863">
        <ele>449</ele>
        <time>2017-04-24T09:21:00Z</time>
      </trkpt>
      <trkpt lat="46.01507" lon="4.58622">
        <ele>448</ele>
        <time>2017-04-24T09:21:02Z</time>
      </trkpt>
      <trkpt lat="46.01508" lon="4.58614">
        <ele>447</ele>
        <time>2017-04-24T09:21:03Z</time>
      </trkpt>
      <trkpt lat="46.01513" lon="4.58606">
        <ele>445</ele>
        <time>2017-04-24T09:21:05Z</time>
      </trkpt>
      <trkpt lat="46.01516" lon="4.58605">
        <ele>445</ele>
        <time>2017-04-24T09:21:06Z</time>
      </trkpt>
      <trkpt lat="46.01522" lon="4.58601">
        <ele>446</ele>
        <time>2017-04-24T09:21:08Z</time>
      </trkpt>
      <trkpt lat="46.01525" lon="4.58601">
        <ele>446</ele>
        <time>2017-04-24T09:21:09Z</time>
      </trkpt>
      <trkpt lat="46.01533" lon="4.586">
        <ele>447</ele>
        <time>2017-04-24T09:21:12Z</time>
      </trkpt>
      <trkpt lat="46.01536" lon="4.58599">
        <ele>448</ele>
        <time>2017-04-24T09:21:13Z</time>
      </trkpt>
      <trkpt lat="46.01544" lon="4.58599">
        <ele>449</ele>
        <time>2017-04-24T09:21:17Z</time>
      </trkpt>
      <trkpt lat="46.01547" lon="4.58599">
        <ele>449</ele>
        <time>2017-04-24T09:21:18Z</time>
      </trkpt>
      <trkpt lat="46.01554" lon="4.58598">
        <ele>450</ele>
        <time>2017-04-24T09:21:22Z</time>
      </trkpt>
      <trkpt lat="46.01556" lon="4.58597">
        <ele>450</ele>
        <time>2017-04-24T09:21:23Z</time>
      </trkpt>
      <trkpt lat="46.01563" lon="4.58594">
        <ele>450</ele>
        <time>2017-04-24T09:21:27Z</time>
      </trkpt>
      <trkpt lat="46.01565" lon="4.58594">
        <ele>450</ele>
        <time>2017-04-24T09:21:28Z</time>
      </trkpt>
      <trkpt lat="46.01573" lon="4.58592">
        <ele>450</ele>
        <time>2017-04-24T09:21:33Z</time>
      </trkpt>
      <trkpt lat="46.01576" lon="4.58591">
        <ele>450</ele>
        <time>2017-04-24T09:21:34Z</time>
      </trkpt>
      <trkpt lat="46.01583" lon="4.58585">
        <ele>449</ele>
        <time>2017-04-24T09:21:38Z</time>
      </trkpt>
      <trkpt lat="46.01585" lon="4.58583">
        <ele>449</ele>
        <time>2017-04-24T09:21:39Z</time>
      </trkpt>
      <trkpt lat="46.0159" lon="4.58578">
        <ele>449</ele>
        <time>2017-04-24T09:21:42Z</time>
      </trkpt>
      <trkpt lat="46.01592" lon="4.58575">
        <ele>449</ele>
        <time>2017-04-24T09:21:43Z</time>
      </trkpt>
      <trkpt lat="46.01601" lon="4.58571">
        <ele>449</ele>
        <time>2017-04-24T09:21:46Z</time>
      </trkpt>
      <trkpt lat="46.01603" lon="4.5857">
        <ele>449</ele>
        <time>2017-04-24T09:21:47Z</time>
      </trkpt>
      <trkpt lat="46.0161" lon="4.58568">
        <ele>450</ele>
        <time>2017-04-24T09:21:50Z</time>
      </trkpt>
      <trkpt lat="46.01613" lon="4.58567">
        <ele>450</ele>
        <time>2017-04-24T09:21:51Z</time>
      </trkpt>
      <trkpt lat="46.01621" lon="4.58568">
        <ele>450</ele>
        <time>2017-04-24T09:21:54Z</time>
      </trkpt>
      <trkpt lat="46.01623" lon="4.58569">
        <ele>450</ele>
        <time>2017-04-24T09:21:55Z</time>
      </trkpt>
      <trkpt lat="46.01631" lon="4.58568">
        <ele>451</ele>
        <time>2017-04-24T09:21:59Z</time>
      </trkpt>
      <trkpt lat="46.01633" lon="4.58567">
        <ele>451</ele>
        <time>2017-04-24T09:22:00Z</time>
      </trkpt>
      <trkpt lat="46.01641" lon="4.58566">
        <ele>452</ele>
        <time>2017-04-24T09:22:04Z</time>
      </trkpt>
      <trkpt lat="46.01643" lon="4.58567">
        <ele>452</ele>
        <time>2017-04-24T09:22:05Z</time>
      </trkpt>
      <trkpt lat="46.01651" lon="4.58568">
        <ele>453</ele>
        <time>2017-04-24T09:22:09Z</time>
      </trkpt>
      <trkpt lat="46.01653" lon="4.58567">
        <ele>453</ele>
        <time>2017-04-24T09:22:10Z</time>
      </trkpt>
      <trkpt lat="46.0166" lon="4.58568">
        <ele>453</ele>
        <time>2017-04-24T09:22:13Z</time>
      </trkpt>
      <trkpt lat="46.01662" lon="4.58568">
        <ele>453</ele>
        <time>2017-04-24T09:22:14Z</time>
      </trkpt>
      <trkpt lat="46.01669" lon="4.58568">
        <ele>458</ele>
        <time>2017-04-24T09:22:17Z</time>
      </trkpt>
      <trkpt lat="46.01672" lon="4.58568">
        <ele>458</ele>
        <time>2017-04-24T09:22:18Z</time>
      </trkpt>
      <trkpt lat="46.0168" lon="4.58568">
        <ele>459</ele>
        <time>2017-04-24T09:22:22Z</time>
      </trkpt>
      <trkpt lat="46.01682" lon="4.58567">
        <ele>459</ele>
        <time>2017-04-24T09:22:23Z</time>
      </trkpt>
      <trkpt lat="46.01691" lon="4.58566">
        <ele>459</ele>
        <time>2017-04-24T09:22:28Z</time>
      </trkpt>
      <trkpt lat="46.01693" lon="4.58566">
        <ele>459</ele>
        <time>2017-04-24T09:22:29Z</time>
      </trkpt>
      <trkpt lat="46.01701" lon="4.58562">
        <ele>460</ele>
        <time>2017-04-24T09:22:33Z</time>
      </trkpt>
      <trkpt lat="46.01703" lon="4.58562">
        <ele>460</ele>
        <time>2017-04-24T09:22:34Z</time>
      </trkpt>
      <trkpt lat="46.0171" lon="4.58557">
        <ele>461</ele>
        <time>2017-04-24T09:22:37Z</time>
      </trkpt>
      <trkpt lat="46.01712" lon="4.58556">
        <ele>461</ele>
        <time>2017-04-24T09:22:38Z</time>
      </trkpt>
      <trkpt lat="46.0172" lon="4.58552">
        <ele>461</ele>
        <time>2017-04-24T09:22:41Z</time>
      </trkpt>
      <trkpt lat="46.01722" lon="4.58551">
        <ele>461</ele>
        <time>2017-04-24T09:22:42Z</time>
      </trkpt>
      <trkpt lat="46.01729" lon="4.58548">
        <ele>462</ele>
        <time>2017-04-24T09:22:46Z</time>
      </trkpt>
      <trkpt lat="46.01731" lon="4.58548">
        <ele>462</ele>
        <time>2017-04-24T09:22:47Z</time>
      </trkpt>
      <trkpt lat="46.01739" lon="4.58545">
        <ele>462</ele>
        <time>2017-04-24T09:22:52Z</time>
      </trkpt>
      <trkpt lat="46.01742" lon="4.58546">
        <ele>462</ele>
        <time>2017-04-24T09:22:53Z</time>
      </trkpt>
      <trkpt lat="46.01751" lon="4.58543">
        <ele>471</ele>
        <time>2017-04-24T09:22:57Z</time>
      </trkpt>
      <trkpt lat="46.01753" lon="4.58542">
        <ele>471</ele>
        <time>2017-04-24T09:22:58Z</time>
      </trkpt>
      <trkpt lat="46.0176" lon="4.58538">
        <ele>471</ele>
        <time>2017-04-24T09:23:02Z</time>
      </trkpt>
      <trkpt lat="46.01762" lon="4.58538">
        <ele>471</ele>
        <time>2017-04-24T09:23:03Z</time>
      </trkpt>
      <trkpt lat="46.01769" lon="4.58534">
        <ele>471</ele>
        <time>2017-04-24T09:23:07Z</time>
      </trkpt>
      <trkpt lat="46.01771" lon="4.58533">
        <ele>471</ele>
        <time>2017-04-24T09:23:08Z</time>
      </trkpt>
      <trkpt lat="46.01778" lon="4.58527">
        <ele>472</ele>
        <time>2017-04-24T09:23:13Z</time>
      </trkpt>
      <trkpt lat="46.01779" lon="4.58526">
        <ele>472</ele>
        <time>2017-04-24T09:23:14Z</time>
      </trkpt>
      <trkpt lat="46.01785" lon="4.58516">
        <ele>471</ele>
        <time>2017-04-24T09:23:19Z</time>
      </trkpt>
      <trkpt lat="46.01786" lon="4.58513">
        <ele>472</ele>
        <time>2017-04-24T09:23:20Z</time>
      </trkpt>
      <trkpt lat="46.01792" lon="4.58505">
        <ele>472</ele>
        <time>2017-04-24T09:23:25Z</time>
      </trkpt>
      <trkpt lat="46.01793" lon="4.58504">
        <ele>472</ele>
        <time>2017-04-24T09:23:26Z</time>
      </trkpt>
      <trkpt lat="46.01799" lon="4.58496">
        <ele>468</ele>
        <time>2017-04-24T09:23:30Z</time>
      </trkpt>
      <trkpt lat="46.018" lon="4.58494">
        <ele>468</ele>
        <time>2017-04-24T09:23:31Z</time>
      </trkpt>
      <trkpt lat="46.01807" lon="4.58486">
        <ele>468</ele>
        <time>2017-04-24T09:23:35Z</time>
      </trkpt>
      <trkpt lat="46.01809" lon="4.58484">
        <ele>468</ele>
        <time>2017-04-24T09:23:36Z</time>
      </trkpt>
      <trkpt lat="46.01815" lon="4.58478">
        <ele>469</ele>
        <time>2017-04-24T09:23:40Z</time>
      </trkpt>
      <trkpt lat="46.01818" lon="4.58475">
        <ele>469</ele>
        <time>2017-04-24T09:23:41Z</time>
      </trkpt>
      <trkpt lat="46.01824" lon="4.58469">
        <ele>468</ele>
        <time>2017-04-24T09:23:44Z</time>
      </trkpt>
      <trkpt lat="46.01827" lon="4.58468">
        <ele>468</ele>
        <time>2017-04-24T09:23:45Z</time>
      </trkpt>
      <trkpt lat="46.01834" lon="4.58464">
        <ele>475</ele>
        <time>2017-04-24T09:23:49Z</time>
      </trkpt>
      <trkpt lat="46.01835" lon="4.58463">
        <ele>475</ele>
        <time>2017-04-24T09:23:50Z</time>
      </trkpt>
      <trkpt lat="46.01842" lon="4.58458">
        <ele>475</ele>
        <time>2017-04-24T09:23:54Z</time>
      </trkpt>
      <trkpt lat="46.01844" lon="4.58457">
        <ele>475</ele>
        <time>2017-04-24T09:23:55Z</time>
      </trkpt>
      <trkpt lat="46.01852" lon="4.58452">
        <ele>475</ele>
        <time>2017-04-24T09:23:59Z</time>
      </trkpt>
      <trkpt lat="46.01854" lon="4.5845">
        <ele>475</ele>
        <time>2017-04-24T09:24:00Z</time>
      </trkpt>
      <trkpt lat="46.01861" lon="4.58443">
        <ele>475</ele>
        <time>2017-04-24T09:24:04Z</time>
      </trkpt>
      <trkpt lat="46.01863" lon="4.58442">
        <ele>475</ele>
        <time>2017-04-24T09:24:05Z</time>
      </trkpt>
      <trkpt lat="46.01869" lon="4.58438">
        <ele>475</ele>
        <time>2017-04-24T09:24:08Z</time>
      </trkpt>
      <trkpt lat="46.01871" lon="4.58435">
        <ele>475</ele>
        <time>2017-04-24T09:24:09Z</time>
      </trkpt>
      <trkpt lat="46.01878" lon="4.58429">
        <ele>476</ele>
        <time>2017-04-24T09:24:12Z</time>
      </trkpt>
      <trkpt lat="46.0188" lon="4.58427">
        <ele>476</ele>
        <time>2017-04-24T09:24:13Z</time>
      </trkpt>
      <trkpt lat="46.01887" lon="4.58422">
        <ele>476</ele>
        <time>2017-04-24T09:24:17Z</time>
      </trkpt>
      <trkpt lat="46.01889" lon="4.5842">
        <ele>476</ele>
        <time>2017-04-24T09:24:18Z</time>
      </trkpt>
      <trkpt lat="46.01896" lon="4.58415">
        <ele>473</ele>
        <time>2017-04-24T09:24:21Z</time>
      </trkpt>
      <trkpt lat="46.01897" lon="4.58414">
        <ele>474</ele>
        <time>2017-04-24T09:24:22Z</time>
      </trkpt>
      <trkpt lat="46.01904" lon="4.58408">
        <ele>474</ele>
        <time>2017-04-24T09:24:26Z</time>
      </trkpt>
      <trkpt lat="46.01906" lon="4.58407">
        <ele>474</ele>
        <time>2017-04-24T09:24:27Z</time>
      </trkpt>
      <trkpt lat="46.01914" lon="4.58402">
        <ele>474</ele>
        <time>2017-04-24T09:24:31Z</time>
      </trkpt>
      <trkpt lat="46.01916" lon="4.584">
        <ele>474</ele>
        <time>2017-04-24T09:24:32Z</time>
      </trkpt>
      <trkpt lat="46.01923" lon="4.58393">
        <ele>479</ele>
        <time>2017-04-24T09:24:36Z</time>
      </trkpt>
      <trkpt lat="46.01925" lon="4.58391">
        <ele>479</ele>
        <time>2017-04-24T09:24:37Z</time>
      </trkpt>
      <trkpt lat="46.01931" lon="4.58383">
        <ele>480</ele>
        <time>2017-04-24T09:24:40Z</time>
      </trkpt>
      <trkpt lat="46.01933" lon="4.58381">
        <ele>480</ele>
        <time>2017-04-24T09:24:41Z</time>
      </trkpt>
      <trkpt lat="46.0194" lon="4.58376">
        <ele>480</ele>
        <time>2017-04-24T09:24:45Z</time>
      </trkpt>
      <trkpt lat="46.01942" lon="4.58375">
        <ele>480</ele>
        <time>2017-04-24T09:24:46Z</time>
      </trkpt>
      <trkpt lat="46.01949" lon="4.5837">
        <ele>480</ele>
        <time>2017-04-24T09:24:51Z</time>
      </trkpt>
      <trkpt lat="46.01951" lon="4.58369">
        <ele>481</ele>
        <time>2017-04-24T09:24:52Z</time>
      </trkpt>
      <trkpt lat="46.01958" lon="4.58362">
        <ele>481</ele>
        <time>2017-04-24T09:24:56Z</time>
      </trkpt>
      <trkpt lat="46.01959" lon="4.58361">
        <ele>481</ele>
        <time>2017-04-24T09:24:57Z</time>
      </trkpt>
      <trkpt lat="46.01966" lon="4.58356">
        <ele>481</ele>
        <time>2017-04-24T09:25:01Z</time>
      </trkpt>
      <trkpt lat="46.01968" lon="4.58354">
        <ele>481</ele>
        <time>2017-04-24T09:25:02Z</time>
      </trkpt>
      <trkpt lat="46.01974" lon="4.58347">
        <ele>482</ele>
        <time>2017-04-24T09:25:06Z</time>
      </trkpt>
      <trkpt lat="46.01976" lon="4.58346">
        <ele>482</ele>
        <time>2017-04-24T09:25:07Z</time>
      </trkpt>
      <trkpt lat="46.01983" lon="4.58339">
        <ele>482</ele>
        <time>2017-04-24T09:25:11Z</time>
      </trkpt>
      <trkpt lat="46.01985" lon="4.58338">
        <ele>482</ele>
        <time>2017-04-24T09:25:12Z</time>
      </trkpt>
      <trkpt lat="46.0199" lon="4.5833">
        <ele>483</ele>
        <time>2017-04-24T09:25:16Z</time>
      </trkpt>
      <trkpt lat="46.01991" lon="4.58329">
        <ele>483</ele>
        <time>2017-04-24T09:25:17Z</time>
      </trkpt>
      <trkpt lat="46.01996" lon="4.58318">
        <ele>483</ele>
        <time>2017-04-24T09:25:22Z</time>
      </trkpt>
      <trkpt lat="46.01996" lon="4.58315">
        <ele>483</ele>
        <time>2017-04-24T09:25:23Z</time>
      </trkpt>
      <trkpt lat="46.01996" lon="4.58304">
        <ele>483</ele>
        <time>2017-04-24T09:25:28Z</time>
      </trkpt>
      <trkpt lat="46.01995" lon="4.58301">
        <ele>483</ele>
        <time>2017-04-24T09:25:29Z</time>
      </trkpt>
      <trkpt lat="46.01992" lon="4.58292">
        <ele>483</ele>
        <time>2017-04-24T09:25:33Z</time>
      </trkpt>
      <trkpt lat="46.01991" lon="4.58289">
        <ele>483</ele>
        <time>2017-04-24T09:25:34Z</time>
      </trkpt>
      <trkpt lat="46.01985" lon="4.5828">
        <ele>483</ele>
        <time>2017-04-24T09:25:39Z</time>
      </trkpt>
      <trkpt lat="46.01983" lon="4.58279">
        <ele>483</ele>
        <time>2017-04-24T09:25:40Z</time>
      </trkpt>
      <trkpt lat="46.01975" lon="4.58277">
        <ele>483</ele>
        <time>2017-04-24T09:25:45Z</time>
      </trkpt>
      <trkpt lat="46.01974" lon="4.58278">
        <ele>483</ele>
        <time>2017-04-24T09:25:46Z</time>
      </trkpt>
      <trkpt lat="46.01967" lon="4.58283">
        <ele>483</ele>
        <time>2017-04-24T09:25:53Z</time>
      </trkpt>
      <trkpt lat="46.01965" lon="4.58284">
        <ele>483</ele>
        <time>2017-04-24T09:25:54Z</time>
      </trkpt>
      <trkpt lat="46.01958" lon="4.58284">
        <ele>483</ele>
        <time>2017-04-24T09:26:00Z</time>
      </trkpt>
      <trkpt lat="46.01956" lon="4.58285">
        <ele>483</ele>
        <time>2017-04-24T09:26:01Z</time>
      </trkpt>
      <trkpt lat="46.01948" lon="4.58288">
        <ele>483</ele>
        <time>2017-04-24T09:26:05Z</time>
      </trkpt>
      <trkpt lat="46.01946" lon="4.58288">
        <ele>483</ele>
        <time>2017-04-24T09:26:06Z</time>
      </trkpt>
      <trkpt lat="46.0194" lon="4.58294">
        <ele>483</ele>
        <time>2017-04-24T09:26:10Z</time>
      </trkpt>
      <trkpt lat="46.01938" lon="4.58295">
        <ele>483</ele>
        <time>2017-04-24T09:26:11Z</time>
      </trkpt>
      <trkpt lat="46.01932" lon="4.58297">
        <ele>482</ele>
        <time>2017-04-24T09:26:14Z</time>
      </trkpt>
      <trkpt lat="46.01929" lon="4.58298">
        <ele>482</ele>
        <time>2017-04-24T09:26:15Z</time>
      </trkpt>
      <trkpt lat="46.01921" lon="4.58299">
        <ele>482</ele>
        <time>2017-04-24T09:26:17Z</time>
      </trkpt>
      <trkpt lat="46.01918" lon="4.58299">
        <ele>482</ele>
        <time>2017-04-24T09:26:18Z</time>
      </trkpt>
      <trkpt lat="46.01911" lon="4.58297">
        <ele>482</ele>
        <time>2017-04-24T09:26:22Z</time>
      </trkpt>
      <trkpt lat="46.01909" lon="4.58297">
        <ele>482</ele>
        <time>2017-04-24T09:26:23Z</time>
      </trkpt>
      <trkpt lat="46.019" lon="4.58296">
        <ele>483</ele>
        <time>2017-04-24T09:26:29Z</time>
      </trkpt>
      <trkpt lat="46.01899" lon="4.58296">
        <ele>483</ele>
        <time>2017-04-24T09:26:30Z</time>
      </trkpt>
      <trkpt lat="46.0189" lon="4.58294">
        <ele>483</ele>
        <time>2017-04-24T09:26:37Z</time>
      </trkpt>
      <trkpt lat="46.01888" lon="4.58294">
        <ele>483</ele>
        <time>2017-04-24T09:26:38Z</time>
      </trkpt>
      <trkpt lat="46.0188" lon="4.58294">
        <ele>483</ele>
        <time>2017-04-24T09:26:42Z</time>
      </trkpt>
      <trkpt lat="46.01877" lon="4.58295">
        <ele>483</ele>
        <time>2017-04-24T09:26:43Z</time>
      </trkpt>
      <trkpt lat="46.0187" lon="4.58296">
        <ele>483</ele>
        <time>2017-04-24T09:26:45Z</time>
      </trkpt>
      <trkpt lat="46.01865" lon="4.58297">
        <ele>483</ele>
        <time>2017-04-24T09:26:46Z</time>
      </trkpt>
      <trkpt lat="46.01859" lon="4.58297">
        <ele>483</ele>
        <time>2017-04-24T09:26:48Z</time>
      </trkpt>
      <trkpt lat="46.01855" lon="4.58297">
        <ele>483</ele>
        <time>2017-04-24T09:26:49Z</time>
      </trkpt>
      <trkpt lat="46.01847" lon="4.58297">
        <ele>483</ele>
        <time>2017-04-24T09:26:51Z</time>
      </trkpt>
      <trkpt lat="46.01844" lon="4.58297">
        <ele>483</ele>
        <time>2017-04-24T09:26:52Z</time>
      </trkpt>
      <trkpt lat="46.01838" lon="4.58297">
        <ele>483</ele>
        <time>2017-04-24T09:26:54Z</time>
      </trkpt>
      <trkpt lat="46.01834" lon="4.58297">
        <ele>483</ele>
        <time>2017-04-24T09:26:55Z</time>
      </trkpt>
      <trkpt lat="46.01826" lon="4.58296">
        <ele>485</ele>
        <time>2017-04-24T09:26:58Z</time>
      </trkpt>
      <trkpt lat="46.01823" lon="4.58296">
        <ele>485</ele>
        <time>2017-04-24T09:26:59Z</time>
      </trkpt>
      <trkpt lat="46.01815" lon="4.58293">
        <ele>486</ele>
        <time>2017-04-24T09:27:02Z</time>
      </trkpt>
      <trkpt lat="46.01813" lon="4.58293">
        <ele>486</ele>
        <time>2017-04-24T09:27:03Z</time>
      </trkpt>
      <trkpt lat="46.01804" lon="4.5829">
        <ele>487</ele>
        <time>2017-04-24T09:27:07Z</time>
      </trkpt>
      <trkpt lat="46.01802" lon="4.58289">
        <ele>487</ele>
        <time>2017-04-24T09:27:08Z</time>
      </trkpt>
      <trkpt lat="46.01794" lon="4.58286">
        <ele>488</ele>
        <time>2017-04-24T09:27:13Z</time>
      </trkpt>
      <trkpt lat="46.01792" lon="4.58286">
        <ele>488</ele>
        <time>2017-04-24T09:27:14Z</time>
      </trkpt>
      <trkpt lat="46.01786" lon="4.58281">
        <ele>489</ele>
        <time>2017-04-24T09:27:19Z</time>
      </trkpt>
      <trkpt lat="46.01784" lon="4.5828">
        <ele>489</ele>
        <time>2017-04-24T09:27:20Z</time>
      </trkpt>
      <trkpt lat="46.01776" lon="4.58278">
        <ele>489</ele>
        <time>2017-04-24T09:27:25Z</time>
      </trkpt>
      <trkpt lat="46.01775" lon="4.58278">
        <ele>490</ele>
        <time>2017-04-24T09:27:26Z</time>
      </trkpt>
      <trkpt lat="46.01767" lon="4.58279">
        <ele>490</ele>
        <time>2017-04-24T09:27:30Z</time>
      </trkpt>
      <trkpt lat="46.01765" lon="4.5828">
        <ele>490</ele>
        <time>2017-04-24T09:27:31Z</time>
      </trkpt>
      <trkpt lat="46.01757" lon="4.58284">
        <ele>489</ele>
        <time>2017-04-24T09:27:35Z</time>
      </trkpt>
      <trkpt lat="46.01754" lon="4.58285">
        <ele>489</ele>
        <time>2017-04-24T09:27:36Z</time>
      </trkpt>
      <trkpt lat="46.01747" lon="4.58288">
        <ele>492</ele>
        <time>2017-04-24T09:27:40Z</time>
      </trkpt>
      <trkpt lat="46.01745" lon="4.58289">
        <ele>492</ele>
        <time>2017-04-24T09:27:41Z</time>
      </trkpt>
      <trkpt lat="46.01737" lon="4.58293">
        <ele>492</ele>
        <time>2017-04-24T09:27:46Z</time>
      </trkpt>
      <trkpt lat="46.01733" lon="4.58295">
        <ele>492</ele>
        <time>2017-04-24T09:27:47Z</time>
      </trkpt>
      <trkpt lat="46.01725" lon="4.58296">
        <ele>492</ele>
        <time>2017-04-24T09:27:51Z</time>
      </trkpt>
      <trkpt lat="46.01722" lon="4.58297">
        <ele>491</ele>
        <time>2017-04-24T09:27:52Z</time>
      </trkpt>
      <trkpt lat="46.01715" lon="4.58299">
        <ele>491</ele>
        <time>2017-04-24T09:27:55Z</time>
      </trkpt>
      <trkpt lat="46.01713" lon="4.583">
        <ele>491</ele>
        <time>2017-04-24T09:27:56Z</time>
      </trkpt>
      <trkpt lat="46.01706" lon="4.58301">
        <ele>491</ele>
        <time>2017-04-24T09:27:58Z</time>
      </trkpt>
      <trkpt lat="46.01703" lon="4.58301">
        <ele>491</ele>
        <time>2017-04-24T09:27:59Z</time>
      </trkpt>
      <trkpt lat="46.01696" lon="4.58301">
        <ele>492</ele>
        <time>2017-04-24T09:28:01Z</time>
      </trkpt>
      <trkpt lat="46.01694" lon="4.583">
        <ele>492</ele>
        <time>2017-04-24T09:28:02Z</time>
      </trkpt>
      <trkpt lat="46.01686" lon="4.58299">
        <ele>492</ele>
        <time>2017-04-24T09:28:05Z</time>
      </trkpt>
      <trkpt lat="46.01683" lon="4.58299">
        <ele>492</ele>
        <time>2017-04-24T09:28:06Z</time>
      </trkpt>
      <trkpt lat="46.01675" lon="4.58299">
        <ele>492</ele>
        <time>2017-04-24T09:28:09Z</time>
      </trkpt>
      <trkpt lat="46.01673" lon="4.583">
        <ele>492</ele>
        <time>2017-04-24T09:28:10Z</time>
      </trkpt>
      <trkpt lat="46.01666" lon="4.583">
        <ele>493</ele>
        <time>2017-04-24T09:28:13Z</time>
      </trkpt>
      <trkpt lat="46.01663" lon="4.58301">
        <ele>493</ele>
        <time>2017-04-24T09:28:14Z</time>
      </trkpt>
      <trkpt lat="46.01657" lon="4.58302">
        <ele>493</ele>
        <time>2017-04-24T09:28:17Z</time>
      </trkpt>
      <trkpt lat="46.01654" lon="4.58305">
        <ele>492</ele>
        <time>2017-04-24T09:28:18Z</time>
      </trkpt>
      <trkpt lat="46.01646" lon="4.58309">
        <ele>491</ele>
        <time>2017-04-24T09:28:21Z</time>
      </trkpt>
      <trkpt lat="46.01644" lon="4.58311">
        <ele>491</ele>
        <time>2017-04-24T09:28:22Z</time>
      </trkpt>
      <trkpt lat="46.01636" lon="4.58312">
        <ele>491</ele>
        <time>2017-04-24T09:28:25Z</time>
      </trkpt>
      <trkpt lat="46.01634" lon="4.58312">
        <ele>492</ele>
        <time>2017-04-24T09:28:26Z</time>
      </trkpt>
      <trkpt lat="46.01627" lon="4.58312">
        <ele>492</ele>
        <time>2017-04-24T09:28:28Z</time>
      </trkpt>
      <trkpt lat="46.01623" lon="4.58312">
        <ele>492</ele>
        <time>2017-04-24T09:28:29Z</time>
      </trkpt>
      <trkpt lat="46.01617" lon="4.58309">
        <ele>492</ele>
        <time>2017-04-24T09:28:31Z</time>
      </trkpt>
      <trkpt lat="46.01614" lon="4.58308">
        <ele>492</ele>
        <time>2017-04-24T09:28:32Z</time>
      </trkpt>
      <trkpt lat="46.01606" lon="4.58304">
        <ele>492</ele>
        <time>2017-04-24T09:28:35Z</time>
      </trkpt>
      <trkpt lat="46.01604" lon="4.58302">
        <ele>493</ele>
        <time>2017-04-24T09:28:36Z</time>
      </trkpt>
      <trkpt lat="46.01596" lon="4.58298">
        <ele>494</ele>
        <time>2017-04-24T09:28:40Z</time>
      </trkpt>
      <trkpt lat="46.01594" lon="4.58297">
        <ele>494</ele>
        <time>2017-04-24T09:28:41Z</time>
      </trkpt>
      <trkpt lat="46.01586" lon="4.58299">
        <ele>493</ele>
        <time>2017-04-24T09:28:44Z</time>
      </trkpt>
      <trkpt lat="46.01584" lon="4.58297">
        <ele>494</ele>
        <time>2017-04-24T09:28:45Z</time>
      </trkpt>
      <trkpt lat="46.01575" lon="4.58294">
        <ele>494</ele>
        <time>2017-04-24T09:28:49Z</time>
      </trkpt>
      <trkpt lat="46.01573" lon="4.58293">
        <ele>494</ele>
        <time>2017-04-24T09:28:50Z</time>
      </trkpt>
      <trkpt lat="46.01564" lon="4.58292">
        <ele>494</ele>
        <time>2017-04-24T09:28:54Z</time>
      </trkpt>
      <trkpt lat="46.01562" lon="4.58291">
        <ele>494</ele>
        <time>2017-04-24T09:28:55Z</time>
      </trkpt>
      <trkpt lat="46.01554" lon="4.5829">
        <ele>494</ele>
        <time>2017-04-24T09:29:00Z</time>
      </trkpt>
      <trkpt lat="46.01552" lon="4.58291">
        <ele>494</ele>
        <time>2017-04-24T09:29:01Z</time>
      </trkpt>
      <trkpt lat="46.01544" lon="4.58293">
        <ele>494</ele>
        <time>2017-04-24T09:29:06Z</time>
      </trkpt>
      <trkpt lat="46.01542" lon="4.58294">
        <ele>493</ele>
        <time>2017-04-24T09:29:07Z</time>
      </trkpt>
      <trkpt lat="46.01535" lon="4.58296">
        <ele>493</ele>
        <time>2017-04-24T09:29:10Z</time>
      </trkpt>
      <trkpt lat="46.01533" lon="4.58297">
        <ele>493</ele>
        <time>2017-04-24T09:29:11Z</time>
      </trkpt>
      <trkpt lat="46.01524" lon="4.583">
        <ele>492</ele>
        <time>2017-04-24T09:29:16Z</time>
      </trkpt>
      <trkpt lat="46.01522" lon="4.583">
        <ele>492</ele>
        <time>2017-04-24T09:29:17Z</time>
      </trkpt>
      <trkpt lat="46.01514" lon="4.58297">
        <ele>492</ele>
        <time>2017-04-24T09:29:22Z</time>
      </trkpt>
      <trkpt lat="46.01512" lon="4.58298">
        <ele>492</ele>
        <time>2017-04-24T09:29:23Z</time>
      </trkpt>
      <trkpt lat="46.01505" lon="4.58297">
        <ele>492</ele>
        <time>2017-04-24T09:29:26Z</time>
      </trkpt>
      <trkpt lat="46.01502" lon="4.58298">
        <ele>492</ele>
        <time>2017-04-24T09:29:27Z</time>
      </trkpt>
      <trkpt lat="46.01495" lon="4.58301">
        <ele>489</ele>
        <time>2017-04-24T09:29:29Z</time>
      </trkpt>
      <trkpt lat="46.01491" lon="4.58301">
        <ele>489</ele>
        <time>2017-04-24T09:29:30Z</time>
      </trkpt>
      <trkpt lat="46.01484" lon="4.583">
        <ele>490</ele>
        <time>2017-04-24T09:29:32Z</time>
      </trkpt>
      <trkpt lat="46.01481" lon="4.58301">
        <ele>490</ele>
        <time>2017-04-24T09:29:33Z</time>
      </trkpt>
      <trkpt lat="46.01474" lon="4.583">
        <ele>490</ele>
        <time>2017-04-24T09:29:35Z</time>
      </trkpt>
      <trkpt lat="46.01472" lon="4.58299">
        <ele>490</ele>
        <time>2017-04-24T09:29:36Z</time>
      </trkpt>
      <trkpt lat="46.01464" lon="4.58298">
        <ele>490</ele>
        <time>2017-04-24T09:29:40Z</time>
      </trkpt>
      <trkpt lat="46.01462" lon="4.58299">
        <ele>490</ele>
        <time>2017-04-24T09:29:41Z</time>
      </trkpt>
      <trkpt lat="46.01454" lon="4.583">
        <ele>489</ele>
        <time>2017-04-24T09:29:44Z</time>
      </trkpt>
      <trkpt lat="46.01452" lon="4.583">
        <ele>489</ele>
        <time>2017-04-24T09:29:45Z</time>
      </trkpt>
      <trkpt lat="46.01443" lon="4.58302">
        <ele>489</ele>
        <time>2017-04-24T09:29:48Z</time>
      </trkpt>
      <trkpt lat="46.01441" lon="4.58304">
        <ele>488</ele>
        <time>2017-04-24T09:29:49Z</time>
      </trkpt>
      <trkpt lat="46.01434" lon="4.58304">
        <ele>488</ele>
        <time>2017-04-24T09:29:51Z</time>
      </trkpt>
      <trkpt lat="46.01431" lon="4.58304">
        <ele>488</ele>
        <time>2017-04-24T09:29:52Z</time>
      </trkpt>
      <trkpt lat="46.01425" lon="4.58307">
        <ele>487</ele>
        <time>2017-04-24T09:29:54Z</time>
      </trkpt>
      <trkpt lat="46.01422" lon="4.58308">
        <ele>486</ele>
        <time>2017-04-24T09:29:55Z</time>
      </trkpt>
      <trkpt lat="46.01414" lon="4.58308">
        <ele>484</ele>
        <time>2017-04-24T09:29:58Z</time>
      </trkpt>
      <trkpt lat="46.01411" lon="4.58309">
        <ele>484</ele>
        <time>2017-04-24T09:29:59Z</time>
      </trkpt>
      <trkpt lat="46.01403" lon="4.58309">
        <ele>484</ele>
        <time>2017-04-24T09:30:02Z</time>
      </trkpt>
      <trkpt lat="46.01401" lon="4.58309">
        <ele>484</ele>
        <time>2017-04-24T09:30:03Z</time>
      </trkpt>
      <trkpt lat="46.01394" lon="4.5831">
        <ele>484</ele>
        <time>2017-04-24T09:30:05Z</time>
      </trkpt>
      <trkpt lat="46.01391" lon="4.5831">
        <ele>484</ele>
        <time>2017-04-24T09:30:06Z</time>
      </trkpt>
      <trkpt lat="46.01383" lon="4.58309">
        <ele>484</ele>
        <time>2017-04-24T09:30:09Z</time>
      </trkpt>
      <trkpt lat="46.0138" lon="4.58308">
        <ele>484</ele>
        <time>2017-04-24T09:30:10Z</time>
      </trkpt>
      <trkpt lat="46.01371" lon="4.58307">
        <ele>484</ele>
        <time>2017-04-24T09:30:13Z</time>
      </trkpt>
      <trkpt lat="46.01368" lon="4.58306">
        <ele>484</ele>
        <time>2017-04-24T09:30:14Z</time>
      </trkpt>
      <trkpt lat="46.01361" lon="4.58305">
        <ele>484</ele>
        <time>2017-04-24T09:30:17Z</time>
      </trkpt>
      <trkpt lat="46.01358" lon="4.58306">
        <ele>483</ele>
        <time>2017-04-24T09:30:18Z</time>
      </trkpt>
      <trkpt lat="46.0135" lon="4.58303">
        <ele>483</ele>
        <time>2017-04-24T09:30:21Z</time>
      </trkpt>
      <trkpt lat="46.01348" lon="4.58302">
        <ele>484</ele>
        <time>2017-04-24T09:30:22Z</time>
      </trkpt>
      <trkpt lat="46.01341" lon="4.58297">
        <ele>484</ele>
        <time>2017-04-24T09:30:25Z</time>
      </trkpt>
      <trkpt lat="46.01339" lon="4.58295">
        <ele>485</ele>
        <time>2017-04-24T09:30:26Z</time>
      </trkpt>
      <trkpt lat="46.0133" lon="4.58291">
        <ele>480</ele>
        <time>2017-04-24T09:30:29Z</time>
      </trkpt>
      <trkpt lat="46.01327" lon="4.58289">
        <ele>480</ele>
        <time>2017-04-24T09:30:30Z</time>
      </trkpt>
      <trkpt lat="46.01323" lon="4.58283">
        <ele>482</ele>
        <time>2017-04-24T09:30:32Z</time>
      </trkpt>
      <trkpt lat="46.01319" lon="4.58278">
        <ele>483</ele>
        <time>2017-04-24T09:30:33Z</time>
      </trkpt>
      <trkpt lat="46.01316" lon="4.58269">
        <ele>484</ele>
        <time>2017-04-24T09:30:35Z</time>
      </trkpt>
      <trkpt lat="46.01313" lon="4.58263">
        <ele>485</ele>
        <time>2017-04-24T09:30:36Z</time>
      </trkpt>
      <trkpt lat="46.01311" lon="4.58255">
        <ele>485</ele>
        <time>2017-04-24T09:30:38Z</time>
      </trkpt>
      <trkpt lat="46.0131" lon="4.58251">
        <ele>485</ele>
        <time>2017-04-24T09:30:39Z</time>
      </trkpt>
      <trkpt lat="46.01307" lon="4.58245">
        <ele>494</ele>
        <time>2017-04-24T09:30:40Z</time>
      </trkpt>
      <trkpt lat="46.01305" lon="4.58239">
        <ele>494</ele>
        <time>2017-04-24T09:30:41Z</time>
      </trkpt>
      <trkpt lat="46.01303" lon="4.58231">
        <ele>494</ele>
        <time>2017-04-24T09:30:43Z</time>
      </trkpt>
      <trkpt lat="46.01302" lon="4.58226">
        <ele>494</ele>
        <time>2017-04-24T09:30:44Z</time>
      </trkpt>
      <trkpt lat="46.01299" lon="4.58215">
        <ele>494</ele>
        <time>2017-04-24T09:30:46Z</time>
      </trkpt>
      <trkpt lat="46.01297" lon="4.58209">
        <ele>495</ele>
        <time>2017-04-24T09:30:47Z</time>
      </trkpt>
      <trkpt lat="46.01296" lon="4.58198">
        <ele>495</ele>
        <time>2017-04-24T09:30:49Z</time>
      </trkpt>
      <trkpt lat="46.01295" lon="4.58193">
        <ele>495</ele>
        <time>2017-04-24T09:30:50Z</time>
      </trkpt>
      <trkpt lat="46.01294" lon="4.58183">
        <ele>496</ele>
        <time>2017-04-24T09:30:52Z</time>
      </trkpt>
      <trkpt lat="46.01294" lon="4.58178">
        <ele>496</ele>
        <time>2017-04-24T09:30:53Z</time>
      </trkpt>
      <trkpt lat="46.01295" lon="4.58165">
        <ele>498</ele>
        <time>2017-04-24T09:30:56Z</time>
      </trkpt>
      <trkpt lat="46.01295" lon="4.58161">
        <ele>498</ele>
        <time>2017-04-24T09:30:57Z</time>
      </trkpt>
      <trkpt lat="46.01297" lon="4.58151">
        <ele>499</ele>
        <time>2017-04-24T09:30:59Z</time>
      </trkpt>
      <trkpt lat="46.01298" lon="4.58147">
        <ele>499</ele>
        <time>2017-04-24T09:31:00Z</time>
      </trkpt>
      <trkpt lat="46.01301" lon="4.5814">
        <ele>499</ele>
        <time>2017-04-24T09:31:02Z</time>
      </trkpt>
      <trkpt lat="46.01302" lon="4.58135">
        <ele>499</ele>
        <time>2017-04-24T09:31:03Z</time>
      </trkpt>
      <trkpt lat="46.01305" lon="4.58125">
        <ele>499</ele>
        <time>2017-04-24T09:31:05Z</time>
      </trkpt>
      <trkpt lat="46.01307" lon="4.58122">
        <ele>499</ele>
        <time>2017-04-24T09:31:06Z</time>
      </trkpt>
      <trkpt lat="46.0131" lon="4.58113">
        <ele>499</ele>
        <time>2017-04-24T09:31:08Z</time>
      </trkpt>
      <trkpt lat="46.01311" lon="4.58109">
        <ele>500</ele>
        <time>2017-04-24T09:31:09Z</time>
      </trkpt>
      <trkpt lat="46.01315" lon="4.58099">
        <ele>501</ele>
        <time>2017-04-24T09:31:12Z</time>
      </trkpt>
      <trkpt lat="46.01316" lon="4.58096">
        <ele>501</ele>
        <time>2017-04-24T09:31:13Z</time>
      </trkpt>
      <trkpt lat="46.0132" lon="4.58088">
        <ele>502</ele>
        <time>2017-04-24T09:31:15Z</time>
      </trkpt>
      <trkpt lat="46.01322" lon="4.58085">
        <ele>503</ele>
        <time>2017-04-24T09:31:16Z</time>
      </trkpt>
      <trkpt lat="46.01325" lon="4.58077">
        <ele>502</ele>
        <time>2017-04-24T09:31:18Z</time>
      </trkpt>
      <trkpt lat="46.01325" lon="4.58064">
        <ele>499</ele>
        <time>2017-04-24T09:31:19Z</time>
      </trkpt>
      <trkpt lat="46.01327" lon="4.58053">
        <ele>498</ele>
        <time>2017-04-24T09:31:20Z</time>
      </trkpt>
      <trkpt lat="46.01329" lon="4.58044">
        <ele>497</ele>
        <time>2017-04-24T09:31:21Z</time>
      </trkpt>
      <trkpt lat="46.01333" lon="4.58034">
        <ele>497</ele>
        <time>2017-04-24T09:31:22Z</time>
      </trkpt>
      <trkpt lat="46.01335" lon="4.58027">
        <ele>512</ele>
        <time>2017-04-24T09:31:23Z</time>
      </trkpt>
      <trkpt lat="46.01341" lon="4.58018">
        <ele>511</ele>
        <time>2017-04-24T09:31:25Z</time>
      </trkpt>
      <trkpt lat="46.01343" lon="4.58015">
        <ele>511</ele>
        <time>2017-04-24T09:31:26Z</time>
      </trkpt>
      <trkpt lat="46.01348" lon="4.58008">
        <ele>511</ele>
        <time>2017-04-24T09:31:28Z</time>
      </trkpt>
      <trkpt lat="46.0135" lon="4.58005">
        <ele>511</ele>
        <time>2017-04-24T09:31:29Z</time>
      </trkpt>
      <trkpt lat="46.01355" lon="4.57997">
        <ele>509</ele>
        <time>2017-04-24T09:31:32Z</time>
      </trkpt>
      <trkpt lat="46.01357" lon="4.57994">
        <ele>509</ele>
        <time>2017-04-24T09:31:33Z</time>
      </trkpt>
      <trkpt lat="46.01363" lon="4.57986">
        <ele>510</ele>
        <time>2017-04-24T09:31:36Z</time>
      </trkpt>
      <trkpt lat="46.01363" lon="4.57982">
        <ele>510</ele>
        <time>2017-04-24T09:31:37Z</time>
      </trkpt>
      <trkpt lat="46.01368" lon="4.57975">
        <ele>510</ele>
        <time>2017-04-24T09:31:40Z</time>
      </trkpt>
      <trkpt lat="46.0137" lon="4.57973">
        <ele>510</ele>
        <time>2017-04-24T09:31:41Z</time>
      </trkpt>
      <trkpt lat="46.01377" lon="4.57965">
        <ele>511</ele>
        <time>2017-04-24T09:31:44Z</time>
      </trkpt>
      <trkpt lat="46.01379" lon="4.57963">
        <ele>511</ele>
        <time>2017-04-24T09:31:45Z</time>
      </trkpt>
      <trkpt lat="46.01385" lon="4.57958">
        <ele>511</ele>
        <time>2017-04-24T09:31:48Z</time>
      </trkpt>
      <trkpt lat="46.01386" lon="4.57956">
        <ele>511</ele>
        <time>2017-04-24T09:31:49Z</time>
      </trkpt>
      <trkpt lat="46.01392" lon="4.5795">
        <ele>511</ele>
        <time>2017-04-24T09:31:52Z</time>
      </trkpt>
      <trkpt lat="46.01393" lon="4.57947">
        <ele>512</ele>
        <time>2017-04-24T09:31:53Z</time>
      </trkpt>
      <trkpt lat="46.014" lon="4.5794">
        <ele>512</ele>
        <time>2017-04-24T09:31:56Z</time>
      </trkpt>
      <trkpt lat="46.01403" lon="4.57937">
        <ele>512</ele>
        <time>2017-04-24T09:31:57Z</time>
      </trkpt>
      <trkpt lat="46.01409" lon="4.5793">
        <ele>512</ele>
        <time>2017-04-24T09:32:00Z</time>
      </trkpt>
      <trkpt lat="46.0141" lon="4.57928">
        <ele>513</ele>
        <time>2017-04-24T09:32:01Z</time>
      </trkpt>
      <trkpt lat="46.01416" lon="4.57921">
        <ele>513</ele>
        <time>2017-04-24T09:32:04Z</time>
      </trkpt>
      <trkpt lat="46.01418" lon="4.57918">
        <ele>516</ele>
        <time>2017-04-24T09:32:05Z</time>
      </trkpt>
      <trkpt lat="46.01423" lon="4.57913">
        <ele>514</ele>
        <time>2017-04-24T09:32:07Z</time>
      </trkpt>
      <trkpt lat="46.01426" lon="4.57911">
        <ele>515</ele>
        <time>2017-04-24T09:32:08Z</time>
      </trkpt>
      <trkpt lat="46.01431" lon="4.57903">
        <ele>515</ele>
        <time>2017-04-24T09:32:10Z</time>
      </trkpt>
      <trkpt lat="46.01432" lon="4.579">
        <ele>515</ele>
        <time>2017-04-24T09:32:11Z</time>
      </trkpt>
      <trkpt lat="46.01439" lon="4.57894">
        <ele>515</ele>
        <time>2017-04-24T09:32:15Z</time>
      </trkpt>
      <trkpt lat="46.01441" lon="4.57892">
        <ele>515</ele>
        <time>2017-04-24T09:32:16Z</time>
      </trkpt>
      <trkpt lat="46.01448" lon="4.57888">
        <ele>515</ele>
        <time>2017-04-24T09:32:20Z</time>
      </trkpt>
      <trkpt lat="46.0145" lon="4.57887">
        <ele>515</ele>
        <time>2017-04-24T09:32:21Z</time>
      </trkpt>
      <trkpt lat="46.01457" lon="4.57881">
        <ele>516</ele>
        <time>2017-04-24T09:32:26Z</time>
      </trkpt>
      <trkpt lat="46.01459" lon="4.5788">
        <ele>516</ele>
        <time>2017-04-24T09:32:27Z</time>
      </trkpt>
      <trkpt lat="46.01465" lon="4.57871">
        <ele>516</ele>
        <time>2017-04-24T09:32:30Z</time>
      </trkpt>
      <trkpt lat="46.01467" lon="4.57868">
        <ele>516</ele>
        <time>2017-04-24T09:32:31Z</time>
      </trkpt>
      <trkpt lat="46.01473" lon="4.5786">
        <ele>515</ele>
        <time>2017-04-24T09:32:34Z</time>
      </trkpt>
      <trkpt lat="46.01475" lon="4.57858">
        <ele>515</ele>
        <time>2017-04-24T09:32:35Z</time>
      </trkpt>
      <trkpt lat="46.0148" lon="4.57851">
        <ele>515</ele>
        <time>2017-04-24T09:32:38Z</time>
      </trkpt>
      <trkpt lat="46.01482" lon="4.57848">
        <ele>515</ele>
        <time>2017-04-24T09:32:39Z</time>
      </trkpt>
      <trkpt lat="46.01486" lon="4.5784">
        <ele>515</ele>
        <time>2017-04-24T09:32:41Z</time>
      </trkpt>
      <trkpt lat="46.01488" lon="4.57837">
        <ele>515</ele>
        <time>2017-04-24T09:32:42Z</time>
      </trkpt>
      <trkpt lat="46.01494" lon="4.57832">
        <ele>512</ele>
        <time>2017-04-24T09:32:45Z</time>
      </trkpt>
      <trkpt lat="46.01496" lon="4.5783">
        <ele>512</ele>
        <time>2017-04-24T09:32:46Z</time>
      </trkpt>
      <trkpt lat="46.01503" lon="4.57823">
        <ele>518</ele>
        <time>2017-04-24T09:32:50Z</time>
      </trkpt>
      <trkpt lat="46.01505" lon="4.57821">
        <ele>518</ele>
        <time>2017-04-24T09:32:51Z</time>
      </trkpt>
      <trkpt lat="46.01512" lon="4.57814">
        <ele>519</ele>
        <time>2017-04-24T09:32:55Z</time>
      </trkpt>
      <trkpt lat="46.01514" lon="4.57812">
        <ele>519</ele>
        <time>2017-04-24T09:32:56Z</time>
      </trkpt>
      <trkpt lat="46.0152" lon="4.57804">
        <ele>520</ele>
        <time>2017-04-24T09:33:00Z</time>
      </trkpt>
      <trkpt lat="46.01521" lon="4.57802">
        <ele>520</ele>
        <time>2017-04-24T09:33:01Z</time>
      </trkpt>
      <trkpt lat="46.01528" lon="4.57796">
        <ele>520</ele>
        <time>2017-04-24T09:33:06Z</time>
      </trkpt>
      <trkpt lat="46.01529" lon="4.57795">
        <ele>520</ele>
        <time>2017-04-24T09:33:07Z</time>
      </trkpt>
      <trkpt lat="46.01533" lon="4.57785">
        <ele>520</ele>
        <time>2017-04-24T09:33:11Z</time>
      </trkpt>
      <trkpt lat="46.01534" lon="4.57783">
        <ele>520</ele>
        <time>2017-04-24T09:33:12Z</time>
      </trkpt>
      <trkpt lat="46.0154" lon="4.57774">
        <ele>520</ele>
        <time>2017-04-24T09:33:18Z</time>
      </trkpt>
      <trkpt lat="46.01541" lon="4.57772">
        <ele>520</ele>
        <time>2017-04-24T09:33:19Z</time>
      </trkpt>
      <trkpt lat="46.01546" lon="4.57762">
        <ele>521</ele>
        <time>2017-04-24T09:33:25Z</time>
      </trkpt>
      <trkpt lat="46.01547" lon="4.5776">
        <ele>521</ele>
        <time>2017-04-24T09:33:26Z</time>
      </trkpt>
      <trkpt lat="46.01551" lon="4.5775">
        <ele>515</ele>
        <time>2017-04-24T09:33:29Z</time>
      </trkpt>
      <trkpt lat="46.01552" lon="4.57747">
        <ele>515</ele>
        <time>2017-04-24T09:33:30Z</time>
      </trkpt>
      <trkpt lat="46.01557" lon="4.57736">
        <ele>515</ele>
        <time>2017-04-24T09:33:34Z</time>
      </trkpt>
      <trkpt lat="46.01559" lon="4.57732">
        <ele>515</ele>
        <time>2017-04-24T09:33:35Z</time>
      </trkpt>
      <trkpt lat="46.01562" lon="4.57723">
        <ele>515</ele>
        <time>2017-04-24T09:33:38Z</time>
      </trkpt>
      <trkpt lat="46.01564" lon="4.5772">
        <ele>515</ele>
        <time>2017-04-24T09:33:39Z</time>
      </trkpt>
      <trkpt lat="46.01567" lon="4.57714">
        <ele>515</ele>
        <time>2017-04-24T09:33:40Z</time>
      </trkpt>
      <trkpt lat="46.01573" lon="4.57713">
        <ele>515</ele>
        <time>2017-04-24T09:33:41Z</time>
      </trkpt>
      <trkpt lat="46.01577" lon="4.57702">
        <ele>515</ele>
        <time>2017-04-24T09:33:44Z</time>
      </trkpt>
      <trkpt lat="46.01579" lon="4.57699">
        <ele>515</ele>
        <time>2017-04-24T09:33:45Z</time>
      </trkpt>
      <trkpt lat="46.01583" lon="4.57691">
        <ele>515</ele>
        <time>2017-04-24T09:33:48Z</time>
      </trkpt>
      <trkpt lat="46.01585" lon="4.57688">
        <ele>529</ele>
        <time>2017-04-24T09:33:49Z</time>
      </trkpt>
      <trkpt lat="46.0159" lon="4.57681">
        <ele>527</ele>
        <time>2017-04-24T09:33:52Z</time>
      </trkpt>
      <trkpt lat="46.01591" lon="4.57678">
        <ele>527</ele>
        <time>2017-04-24T09:33:53Z</time>
      </trkpt>
      <trkpt lat="46.01596" lon="4.5767">
        <ele>527</ele>
        <time>2017-04-24T09:33:56Z</time>
      </trkpt>
      <trkpt lat="46.01598" lon="4.57667">
        <ele>527</ele>
        <time>2017-04-24T09:33:57Z</time>
      </trkpt>
      <trkpt lat="46.01605" lon="4.57659">
        <ele>523</ele>
        <time>2017-04-24T09:34:00Z</time>
      </trkpt>
      <trkpt lat="46.01607" lon="4.57657">
        <ele>524</ele>
        <time>2017-04-24T09:34:01Z</time>
      </trkpt>
      <trkpt lat="46.01614" lon="4.57652">
        <ele>525</ele>
        <time>2017-04-24T09:34:05Z</time>
      </trkpt>
      <trkpt lat="46.01615" lon="4.57651">
        <ele>525</ele>
        <time>2017-04-24T09:34:06Z</time>
      </trkpt>
      <trkpt lat="46.01622" lon="4.57644">
        <ele>526</ele>
        <time>2017-04-24T09:34:10Z</time>
      </trkpt>
      <trkpt lat="46.01623" lon="4.57642">
        <ele>526</ele>
        <time>2017-04-24T09:34:11Z</time>
      </trkpt>
      <trkpt lat="46.01629" lon="4.57634">
        <ele>527</ele>
        <time>2017-04-24T09:34:14Z</time>
      </trkpt>
      <trkpt lat="46.01631" lon="4.57631">
        <ele>527</ele>
        <time>2017-04-24T09:34:15Z</time>
      </trkpt>
      <trkpt lat="46.01636" lon="4.57623">
        <ele>527</ele>
        <time>2017-04-24T09:34:19Z</time>
      </trkpt>
      <trkpt lat="46.01638" lon="4.57619">
        <ele>527</ele>
        <time>2017-04-24T09:34:20Z</time>
      </trkpt>
      <trkpt lat="46.01643" lon="4.57611">
        <ele>527</ele>
        <time>2017-04-24T09:34:23Z</time>
      </trkpt>
      <trkpt lat="46.01644" lon="4.57609">
        <ele>527</ele>
        <time>2017-04-24T09:34:24Z</time>
      </trkpt>
      <trkpt lat="46.01651" lon="4.57601">
        <ele>528</ele>
        <time>2017-04-24T09:34:29Z</time>
      </trkpt>
      <trkpt lat="46.01652" lon="4.576">
        <ele>528</ele>
        <time>2017-04-24T09:34:30Z</time>
      </trkpt>
      <trkpt lat="46.0166" lon="4.57595">
        <ele>529</ele>
        <time>2017-04-24T09:34:34Z</time>
      </trkpt>
      <trkpt lat="46.01662" lon="4.57592">
        <ele>529</ele>
        <time>2017-04-24T09:34:35Z</time>
      </trkpt>
      <trkpt lat="46.01667" lon="4.57583">
        <ele>531</ele>
        <time>2017-04-24T09:34:39Z</time>
      </trkpt>
      <trkpt lat="46.0167" lon="4.57583">
        <ele>531</ele>
        <time>2017-04-24T09:34:40Z</time>
      </trkpt>
      <trkpt lat="46.01677" lon="4.57578">
        <ele>532</ele>
        <time>2017-04-24T09:34:42Z</time>
      </trkpt>
      <trkpt lat="46.0168" lon="4.57576">
        <ele>533</ele>
        <time>2017-04-24T09:34:43Z</time>
      </trkpt>
      <trkpt lat="46.01687" lon="4.57569">
        <ele>534</ele>
        <time>2017-04-24T09:34:47Z</time>
      </trkpt>
      <trkpt lat="46.01689" lon="4.57567">
        <ele>534</ele>
        <time>2017-04-24T09:34:48Z</time>
      </trkpt>
      <trkpt lat="46.01697" lon="4.57563">
        <ele>535</ele>
        <time>2017-04-24T09:34:52Z</time>
      </trkpt>
      <trkpt lat="46.01699" lon="4.57562">
        <ele>535</ele>
        <time>2017-04-24T09:34:53Z</time>
      </trkpt>
      <trkpt lat="46.01705" lon="4.57554">
        <ele>535</ele>
        <time>2017-04-24T09:34:56Z</time>
      </trkpt>
      <trkpt lat="46.01708" lon="4.57552">
        <ele>535</ele>
        <time>2017-04-24T09:34:57Z</time>
      </trkpt>
      <trkpt lat="46.01714" lon="4.57543">
        <ele>535</ele>
        <time>2017-04-24T09:35:00Z</time>
      </trkpt>
      <trkpt lat="46.01715" lon="4.57541">
        <ele>535</ele>
        <time>2017-04-24T09:35:01Z</time>
      </trkpt>
      <trkpt lat="46.01722" lon="4.57534">
        <ele>536</ele>
        <time>2017-04-24T09:35:05Z</time>
      </trkpt>
      <trkpt lat="46.01724" lon="4.57533">
        <ele>536</ele>
        <time>2017-04-24T09:35:06Z</time>
      </trkpt>
      <trkpt lat="46.0173" lon="4.57528">
        <ele>536</ele>
        <time>2017-04-24T09:35:10Z</time>
      </trkpt>
      <trkpt lat="46.01732" lon="4.57527">
        <ele>536</ele>
        <time>2017-04-24T09:35:11Z</time>
      </trkpt>
      <trkpt lat="46.0174" lon="4.57522">
        <ele>537</ele>
        <time>2017-04-24T09:35:16Z</time>
      </trkpt>
      <trkpt lat="46.01742" lon="4.57521">
        <ele>537</ele>
        <time>2017-04-24T09:35:17Z</time>
      </trkpt>
      <trkpt lat="46.0175" lon="4.57518">
        <ele>537</ele>
        <time>2017-04-24T09:35:20Z</time>
      </trkpt>
      <trkpt lat="46.01752" lon="4.57516">
        <ele>545</ele>
        <time>2017-04-24T09:35:21Z</time>
      </trkpt>
      <trkpt lat="46.0176" lon="4.57514">
        <ele>545</ele>
        <time>2017-04-24T09:35:24Z</time>
      </trkpt>
      <trkpt lat="46.01763" lon="4.57513">
        <ele>545</ele>
        <time>2017-04-24T09:35:25Z</time>
      </trkpt>
      <trkpt lat="46.0177" lon="4.57509">
        <ele>546</ele>
        <time>2017-04-24T09:35:28Z</time>
      </trkpt>
      <trkpt lat="46.01772" lon="4.57507">
        <ele>546</ele>
        <time>2017-04-24T09:35:29Z</time>
      </trkpt>
      <trkpt lat="46.01778" lon="4.57507">
        <ele>548</ele>
        <time>2017-04-24T09:35:31Z</time>
      </trkpt>
      <trkpt lat="46.01782" lon="4.57506">
        <ele>548</ele>
        <time>2017-04-24T09:35:32Z</time>
      </trkpt>
      <trkpt lat="46.0179" lon="4.57507">
        <ele>549</ele>
        <time>2017-04-24T09:35:34Z</time>
      </trkpt>
      <trkpt lat="46.01793" lon="4.57507">
        <ele>550</ele>
        <time>2017-04-24T09:35:35Z</time>
      </trkpt>
      <trkpt lat="46.018" lon="4.57505">
        <ele>550</ele>
        <time>2017-04-24T09:35:37Z</time>
      </trkpt>
      <trkpt lat="46.01803" lon="4.57504">
        <ele>551</ele>
        <time>2017-04-24T09:35:38Z</time>
      </trkpt>
      <trkpt lat="46.01812" lon="4.57502">
        <ele>551</ele>
        <time>2017-04-24T09:35:42Z</time>
      </trkpt>
      <trkpt lat="46.01814" lon="4.575">
        <ele>551</ele>
        <time>2017-04-24T09:35:43Z</time>
      </trkpt>
      <trkpt lat="46.01821" lon="4.57499">
        <ele>545</ele>
        <time>2017-04-24T09:35:47Z</time>
      </trkpt>
      <trkpt lat="46.01823" lon="4.57497">
        <ele>545</ele>
        <time>2017-04-24T09:35:48Z</time>
      </trkpt>
      <trkpt lat="46.01831" lon="4.57495">
        <ele>548</ele>
        <time>2017-04-24T09:35:53Z</time>
      </trkpt>
      <trkpt lat="46.01833" lon="4.57493">
        <ele>547</ele>
        <time>2017-04-24T09:35:54Z</time>
      </trkpt>
      <trkpt lat="46.01835" lon="4.57491">
        <ele>551</ele>
        <time>2017-04-24T09:35:56Z</time>
      </trkpt>
      <trkpt lat="46.01841" lon="4.57485">
        <ele>552</ele>
        <time>2017-04-24T09:35:57Z</time>
      </trkpt>
      <trkpt lat="46.01848" lon="4.57478">
        <ele>552</ele>
        <time>2017-04-24T09:36:01Z</time>
      </trkpt>
      <trkpt lat="46.01849" lon="4.57476">
        <ele>552</ele>
        <time>2017-04-24T09:36:02Z</time>
      </trkpt>
      <trkpt lat="46.01856" lon="4.5747">
        <ele>552</ele>
        <time>2017-04-24T09:36:07Z</time>
      </trkpt>
      <trkpt lat="46.01858" lon="4.57467">
        <ele>552</ele>
        <time>2017-04-24T09:36:08Z</time>
      </trkpt>
      <trkpt lat="46.01864" lon="4.5746">
        <ele>552</ele>
        <time>2017-04-24T09:36:14Z</time>
      </trkpt>
      <trkpt lat="46.01865" lon="4.57459">
        <ele>552</ele>
        <time>2017-04-24T09:36:15Z</time>
      </trkpt>
      <trkpt lat="46.01873" lon="4.57456">
        <ele>553</ele>
        <time>2017-04-24T09:36:18Z</time>
      </trkpt>
      <trkpt lat="46.01874" lon="4.57453">
        <ele>553</ele>
        <time>2017-04-24T09:36:19Z</time>
      </trkpt>
      <trkpt lat="46.01875" lon="4.57443">
        <ele>552</ele>
        <time>2017-04-24T09:36:22Z</time>
      </trkpt>
      <trkpt lat="46.01876" lon="4.57438">
        <ele>552</ele>
        <time>2017-04-24T09:36:23Z</time>
      </trkpt>
      <trkpt lat="46.01878" lon="4.57427">
        <ele>552</ele>
        <time>2017-04-24T09:36:27Z</time>
      </trkpt>
      <trkpt lat="46.0188" lon="4.57424">
        <ele>552</ele>
        <time>2017-04-24T09:36:28Z</time>
      </trkpt>
      <trkpt lat="46.01881" lon="4.57414">
        <ele>547</ele>
        <time>2017-04-24T09:36:31Z</time>
      </trkpt>
      <trkpt lat="46.01881" lon="4.57411">
        <ele>547</ele>
        <time>2017-04-24T09:36:32Z</time>
      </trkpt>
      <trkpt lat="46.01879" lon="4.57399">
        <ele>546</ele>
        <time>2017-04-24T09:36:36Z</time>
      </trkpt>
      <trkpt lat="46.01884" lon="4.57395">
        <ele>547</ele>
        <time>2017-04-24T09:36:37Z</time>
      </trkpt>
      <trkpt lat="46.01888" lon="4.57384">
        <ele>547</ele>
        <time>2017-04-24T09:36:40Z</time>
      </trkpt>
      <trkpt lat="46.01888" lon="4.57381">
        <ele>547</ele>
        <time>2017-04-24T09:36:41Z</time>
      </trkpt>
      <trkpt lat="46.01893" lon="4.57371">
        <ele>547</ele>
        <time>2017-04-24T09:36:44Z</time>
      </trkpt>
      <trkpt lat="46.01894" lon="4.57369">
        <ele>547</ele>
        <time>2017-04-24T09:36:45Z</time>
      </trkpt>
      <trkpt lat="46.01896" lon="4.57356">
        <ele>548</ele>
        <time>2017-04-24T09:36:49Z</time>
      </trkpt>
      <trkpt lat="46.01896" lon="4.57353">
        <ele>548</ele>
        <time>2017-04-24T09:36:50Z</time>
      </trkpt>
      <trkpt lat="46.01898" lon="4.57343">
        <ele>549</ele>
        <time>2017-04-24T09:36:53Z</time>
      </trkpt>
      <trkpt lat="46.019" lon="4.57339">
        <ele>549</ele>
        <time>2017-04-24T09:36:54Z</time>
      </trkpt>
      <trkpt lat="46.01902" lon="4.57332">
        <ele>548</ele>
        <time>2017-04-24T09:36:56Z</time>
      </trkpt>
      <trkpt lat="46.01901" lon="4.57326">
        <ele>547</ele>
        <time>2017-04-24T09:36:57Z</time>
      </trkpt>
      <trkpt lat="46.01902" lon="4.57315">
        <ele>546</ele>
        <time>2017-04-24T09:37:00Z</time>
      </trkpt>
      <trkpt lat="46.01902" lon="4.57309">
        <ele>545</ele>
        <time>2017-04-24T09:37:01Z</time>
      </trkpt>
      <trkpt lat="46.01902" lon="4.57298">
        <ele>544</ele>
        <time>2017-04-24T09:37:03Z</time>
      </trkpt>
      <trkpt lat="46.01903" lon="4.57294">
        <ele>544</ele>
        <time>2017-04-24T09:37:04Z</time>
      </trkpt>
      <trkpt lat="46.01906" lon="4.57285">
        <ele>544</ele>
        <time>2017-04-24T09:37:07Z</time>
      </trkpt>
      <trkpt lat="46.01908" lon="4.57281">
        <ele>544</ele>
        <time>2017-04-24T09:37:08Z</time>
      </trkpt>
      <trkpt lat="46.0191" lon="4.57269">
        <ele>545</ele>
        <time>2017-04-24T09:37:11Z</time>
      </trkpt>
      <trkpt lat="46.01912" lon="4.57266">
        <ele>545</ele>
        <time>2017-04-24T09:37:12Z</time>
      </trkpt>
      <trkpt lat="46.01916" lon="4.5726">
        <ele>546</ele>
        <time>2017-04-24T09:37:14Z</time>
      </trkpt>
      <trkpt lat="46.01919" lon="4.57257">
        <ele>553</ele>
        <time>2017-04-24T09:37:15Z</time>
      </trkpt>
      <trkpt lat="46.01925" lon="4.57252">
        <ele>553</ele>
        <time>2017-04-24T09:37:17Z</time>
      </trkpt>
      <trkpt lat="46.01927" lon="4.57249">
        <ele>551</ele>
        <time>2017-04-24T09:37:18Z</time>
      </trkpt>
      <trkpt lat="46.01935" lon="4.57243">
        <ele>552</ele>
        <time>2017-04-24T09:37:21Z</time>
      </trkpt>
      <trkpt lat="46.01936" lon="4.57242">
        <ele>552</ele>
        <time>2017-04-24T09:37:22Z</time>
      </trkpt>
      <trkpt lat="46.01943" lon="4.57236">
        <ele>553</ele>
        <time>2017-04-24T09:37:26Z</time>
      </trkpt>
      <trkpt lat="46.01945" lon="4.57235">
        <ele>553</ele>
        <time>2017-04-24T09:37:27Z</time>
      </trkpt>
      <trkpt lat="46.01952" lon="4.57228">
        <ele>554</ele>
        <time>2017-04-24T09:37:29Z</time>
      </trkpt>
      <trkpt lat="46.01956" lon="4.57225">
        <ele>554</ele>
        <time>2017-04-24T09:37:30Z</time>
      </trkpt>
      <trkpt lat="46.0196" lon="4.57221">
        <ele>555</ele>
        <time>2017-04-24T09:37:32Z</time>
      </trkpt>
      <trkpt lat="46.01964" lon="4.57218">
        <ele>555</ele>
        <time>2017-04-24T09:37:33Z</time>
      </trkpt>
      <trkpt lat="46.01971" lon="4.57215">
        <ele>555</ele>
        <time>2017-04-24T09:37:37Z</time>
      </trkpt>
      <trkpt lat="46.01974" lon="4.57214">
        <ele>556</ele>
        <time>2017-04-24T09:37:38Z</time>
      </trkpt>
      <trkpt lat="46.0198" lon="4.57208">
        <ele>556</ele>
        <time>2017-04-24T09:37:41Z</time>
      </trkpt>
      <trkpt lat="46.01983" lon="4.57206">
        <ele>556</ele>
        <time>2017-04-24T09:37:42Z</time>
      </trkpt>
      <trkpt lat="46.01991" lon="4.57204">
        <ele>556</ele>
        <time>2017-04-24T09:37:45Z</time>
      </trkpt>
      <trkpt lat="46.01994" lon="4.57204">
        <ele>556</ele>
        <time>2017-04-24T09:37:46Z</time>
      </trkpt>
      <trkpt lat="46.01999" lon="4.57202">
        <ele>556</ele>
        <time>2017-04-24T09:37:48Z</time>
      </trkpt>
      <trkpt lat="46.02003" lon="4.57202">
        <ele>564</ele>
        <time>2017-04-24T09:37:49Z</time>
      </trkpt>
      <trkpt lat="46.02012" lon="4.57201">
        <ele>564</ele>
        <time>2017-04-24T09:37:52Z</time>
      </trkpt>
      <trkpt lat="46.02014" lon="4.572">
        <ele>564</ele>
        <time>2017-04-24T09:37:53Z</time>
      </trkpt>
      <trkpt lat="46.02021" lon="4.57198">
        <ele>564</ele>
        <time>2017-04-24T09:37:57Z</time>
      </trkpt>
      <trkpt lat="46.02023" lon="4.57198">
        <ele>564</ele>
        <time>2017-04-24T09:37:58Z</time>
      </trkpt>
      <trkpt lat="46.0203" lon="4.57196">
        <ele>564</ele>
        <time>2017-04-24T09:38:01Z</time>
      </trkpt>
      <trkpt lat="46.02032" lon="4.57195">
        <ele>565</ele>
        <time>2017-04-24T09:38:02Z</time>
      </trkpt>
      <trkpt lat="46.02041" lon="4.57194">
        <ele>565</ele>
        <time>2017-04-24T09:38:06Z</time>
      </trkpt>
      <trkpt lat="46.02043" lon="4.57194">
        <ele>565</ele>
        <time>2017-04-24T09:38:07Z</time>
      </trkpt>
      <trkpt lat="46.0205" lon="4.57193">
        <ele>565</ele>
        <time>2017-04-24T09:38:10Z</time>
      </trkpt>
      <trkpt lat="46.02052" lon="4.57193">
        <ele>566</ele>
        <time>2017-04-24T09:38:11Z</time>
      </trkpt>
      <trkpt lat="46.02058" lon="4.57189">
        <ele>565</ele>
        <time>2017-04-24T09:38:13Z</time>
      </trkpt>
      <trkpt lat="46.02061" lon="4.57189">
        <ele>565</ele>
        <time>2017-04-24T09:38:14Z</time>
      </trkpt>
      <trkpt lat="46.02069" lon="4.57187">
        <ele>565</ele>
        <time>2017-04-24T09:38:17Z</time>
      </trkpt>
      <trkpt lat="46.02072" lon="4.57186">
        <ele>565</ele>
        <time>2017-04-24T09:38:18Z</time>
      </trkpt>
      <trkpt lat="46.0208" lon="4.57185">
        <ele>565</ele>
        <time>2017-04-24T09:38:21Z</time>
      </trkpt>
      <trkpt lat="46.02082" lon="4.57185">
        <ele>565</ele>
        <time>2017-04-24T09:38:22Z</time>
      </trkpt>
      <trkpt lat="46.0209" lon="4.57183">
        <ele>570</ele>
        <time>2017-04-24T09:38:25Z</time>
      </trkpt>
      <trkpt lat="46.02092" lon="4.57182">
        <ele>570</ele>
        <time>2017-04-24T09:38:26Z</time>
      </trkpt>
      <trkpt lat="46.021" lon="4.5718">
        <ele>571</ele>
        <time>2017-04-24T09:38:30Z</time>
      </trkpt>
      <trkpt lat="46.02102" lon="4.5718">
        <ele>572</ele>
        <time>2017-04-24T09:38:31Z</time>
      </trkpt>
      <trkpt lat="46.02108" lon="4.57178">
        <ele>573</ele>
        <time>2017-04-24T09:38:34Z</time>
      </trkpt>
      <trkpt lat="46.02111" lon="4.57177">
        <ele>573</ele>
        <time>2017-04-24T09:38:35Z</time>
      </trkpt>
      <trkpt lat="46.02119" lon="4.57173">
        <ele>574</ele>
        <time>2017-04-24T09:38:38Z</time>
      </trkpt>
      <trkpt lat="46.0212" lon="4.57172">
        <ele>574</ele>
        <time>2017-04-24T09:38:39Z</time>
      </trkpt>
      <trkpt lat="46.02127" lon="4.57169">
        <ele>575</ele>
        <time>2017-04-24T09:38:42Z</time>
      </trkpt>
      <trkpt lat="46.02129" lon="4.57168">
        <ele>575</ele>
        <time>2017-04-24T09:38:43Z</time>
      </trkpt>
      <trkpt lat="46.02136" lon="4.57164">
        <ele>566</ele>
        <time>2017-04-24T09:38:47Z</time>
      </trkpt>
      <trkpt lat="46.02139" lon="4.57162">
        <ele>566</ele>
        <time>2017-04-24T09:38:48Z</time>
      </trkpt>
      <trkpt lat="46.02146" lon="4.57159">
        <ele>568</ele>
        <time>2017-04-24T09:38:51Z</time>
      </trkpt>
      <trkpt lat="46.02148" lon="4.57159">
        <ele>568</ele>
        <time>2017-04-24T09:38:52Z</time>
      </trkpt>
      <trkpt lat="46.02155" lon="4.57154">
        <ele>569</ele>
        <time>2017-04-24T09:38:56Z</time>
      </trkpt>
      <trkpt lat="46.02157" lon="4.57153">
        <ele>569</ele>
        <time>2017-04-24T09:38:57Z</time>
      </trkpt>
      <trkpt lat="46.02166" lon="4.5715">
        <ele>569</ele>
        <time>2017-04-24T09:39:01Z</time>
      </trkpt>
      <trkpt lat="46.02168" lon="4.57148">
        <ele>575</ele>
        <time>2017-04-24T09:39:02Z</time>
      </trkpt>
      <trkpt lat="46.02174" lon="4.57145">
        <ele>574</ele>
        <time>2017-04-24T09:39:05Z</time>
      </trkpt>
      <trkpt lat="46.02176" lon="4.57143">
        <ele>574</ele>
        <time>2017-04-24T09:39:06Z</time>
      </trkpt>
      <trkpt lat="46.02183" lon="4.57139">
        <ele>574</ele>
        <time>2017-04-24T09:39:09Z</time>
      </trkpt>
      <trkpt lat="46.02184" lon="4.57138">
        <ele>574</ele>
        <time>2017-04-24T09:39:10Z</time>
      </trkpt>
      <trkpt lat="46.02192" lon="4.57136">
        <ele>574</ele>
        <time>2017-04-24T09:39:13Z</time>
      </trkpt>
      <trkpt lat="46.02195" lon="4.57136">
        <ele>574</ele>
        <time>2017-04-24T09:39:14Z</time>
      </trkpt>
      <trkpt lat="46.02203" lon="4.57131">
        <ele>574</ele>
        <time>2017-04-24T09:39:17Z</time>
      </trkpt>
      <trkpt lat="46.02206" lon="4.5713">
        <ele>574</ele>
        <time>2017-04-24T09:39:18Z</time>
      </trkpt>
      <trkpt lat="46.02213" lon="4.57126">
        <ele>574</ele>
        <time>2017-04-24T09:39:21Z</time>
      </trkpt>
      <trkpt lat="46.02215" lon="4.57124">
        <ele>574</ele>
        <time>2017-04-24T09:39:22Z</time>
      </trkpt>
      <trkpt lat="46.02223" lon="4.57122">
        <ele>574</ele>
        <time>2017-04-24T09:39:25Z</time>
      </trkpt>
      <trkpt lat="46.02225" lon="4.57121">
        <ele>574</ele>
        <time>2017-04-24T09:39:26Z</time>
      </trkpt>
      <trkpt lat="46.02229" lon="4.57119">
        <ele>574</ele>
        <time>2017-04-24T09:39:28Z</time>
      </trkpt>
      <trkpt lat="46.02234" lon="4.57115">
        <ele>574</ele>
        <time>2017-04-24T09:39:30Z</time>
      </trkpt>
      <trkpt lat="46.02242" lon="4.57111">
        <ele>574</ele>
        <time>2017-04-24T09:39:34Z</time>
      </trkpt>
      <trkpt lat="46.02244" lon="4.5711">
        <ele>574</ele>
        <time>2017-04-24T09:39:35Z</time>
      </trkpt>
      <trkpt lat="46.02252" lon="4.57106">
        <ele>580</ele>
        <time>2017-04-24T09:39:38Z</time>
      </trkpt>
      <trkpt lat="46.02254" lon="4.57105">
        <ele>580</ele>
        <time>2017-04-24T09:39:39Z</time>
      </trkpt>
      <trkpt lat="46.02263" lon="4.57104">
        <ele>580</ele>
        <time>2017-04-24T09:39:43Z</time>
      </trkpt>
      <trkpt lat="46.02265" lon="4.57103">
        <ele>580</ele>
        <time>2017-04-24T09:39:44Z</time>
      </trkpt>
      <trkpt lat="46.02274" lon="4.57101">
        <ele>581</ele>
        <time>2017-04-24T09:39:48Z</time>
      </trkpt>
      <trkpt lat="46.02276" lon="4.571">
        <ele>581</ele>
        <time>2017-04-24T09:39:49Z</time>
      </trkpt>
      <trkpt lat="46.02284" lon="4.57099">
        <ele>582</ele>
        <time>2017-04-24T09:39:52Z</time>
      </trkpt>
      <trkpt lat="46.02287" lon="4.57098">
        <ele>582</ele>
        <time>2017-04-24T09:39:53Z</time>
      </trkpt>
      <trkpt lat="46.02294" lon="4.57097">
        <ele>583</ele>
        <time>2017-04-24T09:39:56Z</time>
      </trkpt>
      <trkpt lat="46.02296" lon="4.57096">
        <ele>583</ele>
        <time>2017-04-24T09:39:57Z</time>
      </trkpt>
      <trkpt lat="46.02303" lon="4.57093">
        <ele>583</ele>
        <time>2017-04-24T09:40:00Z</time>
      </trkpt>
      <trkpt lat="46.02305" lon="4.57092">
        <ele>583</ele>
        <time>2017-04-24T09:40:01Z</time>
      </trkpt>
      <trkpt lat="46.02314" lon="4.5709">
        <ele>583</ele>
        <time>2017-04-24T09:40:05Z</time>
      </trkpt>
      <trkpt lat="46.02316" lon="4.57089">
        <ele>583</ele>
        <time>2017-04-24T09:40:06Z</time>
      </trkpt>
      <trkpt lat="46.02323" lon="4.57087">
        <ele>583</ele>
        <time>2017-04-24T09:40:09Z</time>
      </trkpt>
      <trkpt lat="46.02325" lon="4.57086">
        <ele>583</ele>
        <time>2017-04-24T09:40:10Z</time>
      </trkpt>
      <trkpt lat="46.02332" lon="4.57082">
        <ele>581</ele>
        <time>2017-04-24T09:40:13Z</time>
      </trkpt>
      <trkpt lat="46.02334" lon="4.5708">
        <ele>582</ele>
        <time>2017-04-24T09:40:14Z</time>
      </trkpt>
      <trkpt lat="46.02341" lon="4.57077">
        <ele>582</ele>
        <time>2017-04-24T09:40:17Z</time>
      </trkpt>
      <trkpt lat="46.02343" lon="4.57076">
        <ele>582</ele>
        <time>2017-04-24T09:40:18Z</time>
      </trkpt>
      <trkpt lat="46.0235" lon="4.57072">
        <ele>582</ele>
        <time>2017-04-24T09:40:21Z</time>
      </trkpt>
      <trkpt lat="46.02352" lon="4.57071">
        <ele>582</ele>
        <time>2017-04-24T09:40:22Z</time>
      </trkpt>
      <trkpt lat="46.0236" lon="4.57065">
        <ele>583</ele>
        <time>2017-04-24T09:40:25Z</time>
      </trkpt>
      <trkpt lat="46.02362" lon="4.57063">
        <ele>583</ele>
        <time>2017-04-24T09:40:26Z</time>
      </trkpt>
      <trkpt lat="46.02368" lon="4.57059">
        <ele>583</ele>
        <time>2017-04-24T09:40:29Z</time>
      </trkpt>
      <trkpt lat="46.0237" lon="4.57057">
        <ele>583</ele>
        <time>2017-04-24T09:40:30Z</time>
      </trkpt>
      <trkpt lat="46.02376" lon="4.57052">
        <ele>583</ele>
        <time>2017-04-24T09:40:33Z</time>
      </trkpt>
      <trkpt lat="46.02378" lon="4.5705">
        <ele>583</ele>
        <time>2017-04-24T09:40:34Z</time>
      </trkpt>
      <trkpt lat="46.02385" lon="4.57044">
        <ele>583</ele>
        <time>2017-04-24T09:40:37Z</time>
      </trkpt>
      <trkpt lat="46.02387" lon="4.57042">
        <ele>583</ele>
        <time>2017-04-24T09:40:38Z</time>
      </trkpt>
      <trkpt lat="46.02393" lon="4.57037">
        <ele>583</ele>
        <time>2017-04-24T09:40:41Z</time>
      </trkpt>
      <trkpt lat="46.02395" lon="4.57035">
        <ele>583</ele>
        <time>2017-04-24T09:40:42Z</time>
      </trkpt>
      <trkpt lat="46.02401" lon="4.5703">
        <ele>584</ele>
        <time>2017-04-24T09:40:45Z</time>
      </trkpt>
      <trkpt lat="46.02404" lon="4.57027">
        <ele>584</ele>
        <time>2017-04-24T09:40:46Z</time>
      </trkpt>
      <trkpt lat="46.02411" lon="4.5702">
        <ele>584</ele>
        <time>2017-04-24T09:40:49Z</time>
      </trkpt>
      <trkpt lat="46.02413" lon="4.57019">
        <ele>584</ele>
        <time>2017-04-24T09:40:50Z</time>
      </trkpt>
      <trkpt lat="46.0242" lon="4.57011">
        <ele>590</ele>
        <time>2017-04-24T09:40:54Z</time>
      </trkpt>
      <trkpt lat="46.02422" lon="4.5701">
        <ele>590</ele>
        <time>2017-04-24T09:40:55Z</time>
      </trkpt>
      <trkpt lat="46.02428" lon="4.57003">
        <ele>590</ele>
        <time>2017-04-24T09:40:58Z</time>
      </trkpt>
      <trkpt lat="46.0243" lon="4.57001">
        <ele>591</ele>
        <time>2017-04-24T09:40:59Z</time>
      </trkpt>
      <trkpt lat="46.02436" lon="4.56994">
        <ele>588</ele>
        <time>2017-04-24T09:41:02Z</time>
      </trkpt>
      <trkpt lat="46.02438" lon="4.56992">
        <ele>589</ele>
        <time>2017-04-24T09:41:03Z</time>
      </trkpt>
      <trkpt lat="46.02443" lon="4.56984">
        <ele>590</ele>
        <time>2017-04-24T09:41:06Z</time>
      </trkpt>
      <trkpt lat="46.02446" lon="4.56982">
        <ele>590</ele>
        <time>2017-04-24T09:41:07Z</time>
      </trkpt>
      <trkpt lat="46.02452" lon="4.56974">
        <ele>591</ele>
        <time>2017-04-24T09:41:10Z</time>
      </trkpt>
      <trkpt lat="46.02454" lon="4.56971">
        <ele>591</ele>
        <time>2017-04-24T09:41:11Z</time>
      </trkpt>
      <trkpt lat="46.02459" lon="4.56962">
        <ele>592</ele>
        <time>2017-04-24T09:41:14Z</time>
      </trkpt>
      <trkpt lat="46.02461" lon="4.56959">
        <ele>592</ele>
        <time>2017-04-24T09:41:15Z</time>
      </trkpt>
      <trkpt lat="46.02463" lon="4.56951">
        <ele>592</ele>
        <time>2017-04-24T09:41:17Z</time>
      </trkpt>
      <trkpt lat="46.02466" lon="4.56948">
        <ele>592</ele>
        <time>2017-04-24T09:41:18Z</time>
      </trkpt>
      <trkpt lat="46.0247" lon="4.56938">
        <ele>592</ele>
        <time>2017-04-24T09:41:21Z</time>
      </trkpt>
      <trkpt lat="46.02471" lon="4.56934">
        <ele>593</ele>
        <time>2017-04-24T09:41:22Z</time>
      </trkpt>
      <trkpt lat="46.02473" lon="4.56923">
        <ele>593</ele>
        <time>2017-04-24T09:41:25Z</time>
      </trkpt>
      <trkpt lat="46.02474" lon="4.5692">
        <ele>593</ele>
        <time>2017-04-24T09:41:26Z</time>
      </trkpt>
      <trkpt lat="46.02473" lon="4.56909">
        <ele>595</ele>
        <time>2017-04-24T09:41:29Z</time>
      </trkpt>
      <trkpt lat="46.02472" lon="4.56906">
        <ele>595</ele>
        <time>2017-04-24T09:41:30Z</time>
      </trkpt>
      <trkpt lat="46.02469" lon="4.56896">
        <ele>595</ele>
        <time>2017-04-24T09:41:33Z</time>
      </trkpt>
      <trkpt lat="46.02468" lon="4.56893">
        <ele>595</ele>
        <time>2017-04-24T09:41:34Z</time>
      </trkpt>
      <trkpt lat="46.02464" lon="4.56883">
        <ele>595</ele>
        <time>2017-04-24T09:41:38Z</time>
      </trkpt>
      <trkpt lat="46.02462" lon="4.56881">
        <ele>595</ele>
        <time>2017-04-24T09:41:39Z</time>
      </trkpt>
      <trkpt lat="46.02456" lon="4.56874">
        <ele>595</ele>
        <time>2017-04-24T09:41:43Z</time>
      </trkpt>
      <trkpt lat="46.02454" lon="4.56872">
        <ele>595</ele>
        <time>2017-04-24T09:41:44Z</time>
      </trkpt>
      <trkpt lat="46.02447" lon="4.56865">
        <ele>595</ele>
        <time>2017-04-24T09:41:49Z</time>
      </trkpt>
      <trkpt lat="46.02446" lon="4.56864">
        <ele>595</ele>
        <time>2017-04-24T09:41:50Z</time>
      </trkpt>
      <trkpt lat="46.02438" lon="4.5686">
        <ele>594</ele>
        <time>2017-04-24T09:41:55Z</time>
      </trkpt>
      <trkpt lat="46.02436" lon="4.5686">
        <ele>594</ele>
        <time>2017-04-24T09:41:56Z</time>
      </trkpt>
      <trkpt lat="46.02429" lon="4.56856">
        <ele>594</ele>
        <time>2017-04-24T09:41:59Z</time>
      </trkpt>
      <trkpt lat="46.02427" lon="4.56855">
        <ele>594</ele>
        <time>2017-04-24T09:42:00Z</time>
      </trkpt>
      <trkpt lat="46.02419" lon="4.56852">
        <ele>594</ele>
        <time>2017-04-24T09:42:04Z</time>
      </trkpt>
      <trkpt lat="46.02417" lon="4.56851">
        <ele>594</ele>
        <time>2017-04-24T09:42:05Z</time>
      </trkpt>
      <trkpt lat="46.0241" lon="4.56844">
        <ele>588</ele>
        <time>2017-04-24T09:42:09Z</time>
      </trkpt>
      <trkpt lat="46.02408" lon="4.56843">
        <ele>587</ele>
        <time>2017-04-24T09:42:10Z</time>
      </trkpt>
      <trkpt lat="46.02403" lon="4.56838">
        <ele>587</ele>
        <time>2017-04-24T09:42:13Z</time>
      </trkpt>
      <trkpt lat="46.02401" lon="4.56835">
        <ele>586</ele>
        <time>2017-04-24T09:42:14Z</time>
      </trkpt>
      <trkpt lat="46.02397" lon="4.56826">
        <ele>592</ele>
        <time>2017-04-24T09:42:17Z</time>
      </trkpt>
      <trkpt lat="46.02396" lon="4.56823">
        <ele>592</ele>
        <time>2017-04-24T09:42:18Z</time>
      </trkpt>
      <trkpt lat="46.02391" lon="4.56815">
        <ele>591</ele>
        <time>2017-04-24T09:42:20Z</time>
      </trkpt>
      <trkpt lat="46.0239" lon="4.56813">
        <ele>591</ele>
        <time>2017-04-24T09:42:21Z</time>
      </trkpt>
      <trkpt lat="46.02389" lon="4.56807">
        <ele>592</ele>
        <time>2017-04-24T09:42:22Z</time>
      </trkpt>
      <trkpt lat="46.02388" lon="4.56799">
        <ele>592</ele>
        <time>2017-04-24T09:42:23Z</time>
      </trkpt>
      <trkpt lat="46.02385" lon="4.5679">
        <ele>592</ele>
        <time>2017-04-24T09:42:25Z</time>
      </trkpt>
      <trkpt lat="46.02385" lon="4.56786">
        <ele>593</ele>
        <time>2017-04-24T09:42:26Z</time>
      </trkpt>
      <trkpt lat="46.02382" lon="4.56775">
        <ele>593</ele>
        <time>2017-04-24T09:42:29Z</time>
      </trkpt>
      <trkpt lat="46.0238" lon="4.56772">
        <ele>593</ele>
        <time>2017-04-24T09:42:30Z</time>
      </trkpt>
      <trkpt lat="46.02377" lon="4.56763">
        <ele>594</ele>
        <time>2017-04-24T09:42:33Z</time>
      </trkpt>
      <trkpt lat="46.02376" lon="4.5676">
        <ele>594</ele>
        <time>2017-04-24T09:42:34Z</time>
      </trkpt>
      <trkpt lat="46.02373" lon="4.56751">
        <ele>593</ele>
        <time>2017-04-24T09:42:37Z</time>
      </trkpt>
      <trkpt lat="46.02372" lon="4.56748">
        <ele>603</ele>
        <time>2017-04-24T09:42:38Z</time>
      </trkpt>
      <trkpt lat="46.02369" lon="4.5674">
        <ele>603</ele>
        <time>2017-04-24T09:42:41Z</time>
      </trkpt>
      <trkpt lat="46.02367" lon="4.56737">
        <ele>603</ele>
        <time>2017-04-24T09:42:42Z</time>
      </trkpt>
      <trkpt lat="46.02364" lon="4.56728">
        <ele>603</ele>
        <time>2017-04-24T09:42:45Z</time>
      </trkpt>
      <trkpt lat="46.02362" lon="4.56726">
        <ele>603</ele>
        <time>2017-04-24T09:42:46Z</time>
      </trkpt>
      <trkpt lat="46.02357" lon="4.56719">
        <ele>603</ele>
        <time>2017-04-24T09:42:50Z</time>
      </trkpt>
      <trkpt lat="46.02355" lon="4.56717">
        <ele>603</ele>
        <time>2017-04-24T09:42:51Z</time>
      </trkpt>
      <trkpt lat="46.02348" lon="4.56711">
        <ele>603</ele>
        <time>2017-04-24T09:42:56Z</time>
      </trkpt>
      <trkpt lat="46.02346" lon="4.56709">
        <ele>604</ele>
        <time>2017-04-24T09:42:57Z</time>
      </trkpt>
      <trkpt lat="46.02342" lon="4.56701">
        <ele>604</ele>
        <time>2017-04-24T09:43:01Z</time>
      </trkpt>
      <trkpt lat="46.0234" lon="4.56699">
        <ele>604</ele>
        <time>2017-04-24T09:43:02Z</time>
      </trkpt>
      <trkpt lat="46.02335" lon="4.56692">
        <ele>605</ele>
        <time>2017-04-24T09:43:07Z</time>
      </trkpt>
      <trkpt lat="46.02333" lon="4.56691">
        <ele>595</ele>
        <time>2017-04-24T09:43:08Z</time>
      </trkpt>
      <trkpt lat="46.02325" lon="4.56686">
        <ele>595</ele>
        <time>2017-04-24T09:43:13Z</time>
      </trkpt>
      <trkpt lat="46.02323" lon="4.56686">
        <ele>595</ele>
        <time>2017-04-24T09:43:14Z</time>
      </trkpt>
      <trkpt lat="46.02315" lon="4.5668">
        <ele>595</ele>
        <time>2017-04-24T09:43:18Z</time>
      </trkpt>
      <trkpt lat="46.02313" lon="4.56679">
        <ele>595</ele>
        <time>2017-04-24T09:43:19Z</time>
      </trkpt>
      <trkpt lat="46.02306" lon="4.56675">
        <ele>594</ele>
        <time>2017-04-24T09:43:22Z</time>
      </trkpt>
      <trkpt lat="46.02304" lon="4.56673">
        <ele>594</ele>
        <time>2017-04-24T09:43:23Z</time>
      </trkpt>
      <trkpt lat="46.02298" lon="4.56664">
        <ele>603</ele>
        <time>2017-04-24T09:43:27Z</time>
      </trkpt>
      <trkpt lat="46.02297" lon="4.56662">
        <ele>603</ele>
        <time>2017-04-24T09:43:28Z</time>
      </trkpt>
      <trkpt lat="46.02291" lon="4.56654">
        <ele>603</ele>
        <time>2017-04-24T09:43:32Z</time>
      </trkpt>
      <trkpt lat="46.02289" lon="4.56651">
        <ele>603</ele>
        <time>2017-04-24T09:43:33Z</time>
      </trkpt>
      <trkpt lat="46.02285" lon="4.56644">
        <ele>603</ele>
        <time>2017-04-24T09:43:36Z</time>
      </trkpt>
      <trkpt lat="46.02283" lon="4.56641">
        <ele>603</ele>
        <time>2017-04-24T09:43:37Z</time>
      </trkpt>
      <trkpt lat="46.02278" lon="4.56631">
        <ele>603</ele>
        <time>2017-04-24T09:43:41Z</time>
      </trkpt>
      <trkpt lat="46.02277" lon="4.56627">
        <ele>604</ele>
        <time>2017-04-24T09:43:42Z</time>
      </trkpt>
      <trkpt lat="46.02274" lon="4.56615">
        <ele>605</ele>
        <time>2017-04-24T09:43:46Z</time>
      </trkpt>
      <trkpt lat="46.02274" lon="4.56611">
        <ele>605</ele>
        <time>2017-04-24T09:43:47Z</time>
      </trkpt>
      <trkpt lat="46.02272" lon="4.56601">
        <ele>605</ele>
        <time>2017-04-24T09:43:49Z</time>
      </trkpt>
      <trkpt lat="46.02271" lon="4.56595">
        <ele>605</ele>
        <time>2017-04-24T09:43:50Z</time>
      </trkpt>
      <trkpt lat="46.02271" lon="4.56588">
        <ele>606</ele>
        <time>2017-04-24T09:43:51Z</time>
      </trkpt>
      <trkpt lat="46.02267" lon="4.56582">
        <ele>608</ele>
        <time>2017-04-24T09:43:52Z</time>
      </trkpt>
      <trkpt lat="46.02266" lon="4.56575">
        <ele>608</ele>
        <time>2017-04-24T09:43:53Z</time>
      </trkpt>
      <trkpt lat="46.02266" lon="4.56568">
        <ele>608</ele>
        <time>2017-04-24T09:43:54Z</time>
      </trkpt>
      <trkpt lat="46.02269" lon="4.56559">
        <ele>609</ele>
        <time>2017-04-24T09:43:56Z</time>
      </trkpt>
      <trkpt lat="46.0227" lon="4.56555">
        <ele>609</ele>
        <time>2017-04-24T09:43:57Z</time>
      </trkpt>
      <trkpt lat="46.02273" lon="4.56547">
        <ele>609</ele>
        <time>2017-04-24T09:43:59Z</time>
      </trkpt>
      <trkpt lat="46.02275" lon="4.56543">
        <ele>609</ele>
        <time>2017-04-24T09:44:00Z</time>
      </trkpt>
      <trkpt lat="46.0228" lon="4.56535">
        <ele>609</ele>
        <time>2017-04-24T09:44:03Z</time>
      </trkpt>
      <trkpt lat="46.02281" lon="4.56532">
        <ele>609</ele>
        <time>2017-04-24T09:44:04Z</time>
      </trkpt>
      <trkpt lat="46.02285" lon="4.56524">
        <ele>609</ele>
        <time>2017-04-24T09:44:07Z</time>
      </trkpt>
      <trkpt lat="46.02287" lon="4.56522">
        <ele>610</ele>
        <time>2017-04-24T09:44:08Z</time>
      </trkpt>
      <trkpt lat="46.02293" lon="4.56514">
        <ele>610</ele>
        <time>2017-04-24T09:44:11Z</time>
      </trkpt>
      <trkpt lat="46.02295" lon="4.56512">
        <ele>611</ele>
        <time>2017-04-24T09:44:12Z</time>
      </trkpt>
      <trkpt lat="46.023" lon="4.56505">
        <ele>611</ele>
        <time>2017-04-24T09:44:15Z</time>
      </trkpt>
      <trkpt lat="46.02302" lon="4.56502">
        <ele>612</ele>
        <time>2017-04-24T09:44:16Z</time>
      </trkpt>
      <trkpt lat="46.02308" lon="4.56493">
        <ele>608</ele>
        <time>2017-04-24T09:44:20Z</time>
      </trkpt>
      <trkpt lat="46.02309" lon="4.56491">
        <ele>608</ele>
        <time>2017-04-24T09:44:21Z</time>
      </trkpt>
      <trkpt lat="46.02314" lon="4.56486">
        <ele>609</ele>
        <time>2017-04-24T09:44:23Z</time>
      </trkpt>
      <trkpt lat="46.02317" lon="4.56483">
        <ele>609</ele>
        <time>2017-04-24T09:44:24Z</time>
      </trkpt>
      <trkpt lat="46.02323" lon="4.56475">
        <ele>608</ele>
        <time>2017-04-24T09:44:27Z</time>
      </trkpt>
      <trkpt lat="46.02326" lon="4.56473">
        <ele>608</ele>
        <time>2017-04-24T09:44:28Z</time>
      </trkpt>
      <trkpt lat="46.02331" lon="4.56467">
        <ele>608</ele>
        <time>2017-04-24T09:44:31Z</time>
      </trkpt>
      <trkpt lat="46.02333" lon="4.56465">
        <ele>607</ele>
        <time>2017-04-24T09:44:32Z</time>
      </trkpt>
      <trkpt lat="46.0234" lon="4.56458">
        <ele>618</ele>
        <time>2017-04-24T09:44:35Z</time>
      </trkpt>
      <trkpt lat="46.02342" lon="4.56456">
        <ele>618</ele>
        <time>2017-04-24T09:44:36Z</time>
      </trkpt>
      <trkpt lat="46.02347" lon="4.56451">
        <ele>618</ele>
        <time>2017-04-24T09:44:38Z</time>
      </trkpt>
      <trkpt lat="46.02349" lon="4.56448">
        <ele>618</ele>
        <time>2017-04-24T09:44:39Z</time>
      </trkpt>
      <trkpt lat="46.02355" lon="4.5644">
        <ele>618</ele>
        <time>2017-04-24T09:44:42Z</time>
      </trkpt>
      <trkpt lat="46.02357" lon="4.56438">
        <ele>618</ele>
        <time>2017-04-24T09:44:43Z</time>
      </trkpt>
      <trkpt lat="46.02363" lon="4.56432">
        <ele>618</ele>
        <time>2017-04-24T09:44:46Z</time>
      </trkpt>
      <trkpt lat="46.02365" lon="4.56429">
        <ele>618</ele>
        <time>2017-04-24T09:44:47Z</time>
      </trkpt>
      <trkpt lat="46.02371" lon="4.56421">
        <ele>619</ele>
        <time>2017-04-24T09:44:50Z</time>
      </trkpt>
      <trkpt lat="46.02373" lon="4.56419">
        <ele>619</ele>
        <time>2017-04-24T09:44:51Z</time>
      </trkpt>
      <trkpt lat="46.02379" lon="4.56412">
        <ele>613</ele>
        <time>2017-04-24T09:44:54Z</time>
      </trkpt>
      <trkpt lat="46.02381" lon="4.56409">
        <ele>613</ele>
        <time>2017-04-24T09:44:55Z</time>
      </trkpt>
      <trkpt lat="46.02387" lon="4.56402">
        <ele>614</ele>
        <time>2017-04-24T09:44:58Z</time>
      </trkpt>
      <trkpt lat="46.02389" lon="4.56398">
        <ele>614</ele>
        <time>2017-04-24T09:44:59Z</time>
      </trkpt>
      <trkpt lat="46.02394" lon="4.56392">
        <ele>614</ele>
        <time>2017-04-24T09:45:01Z</time>
      </trkpt>
      <trkpt lat="46.02396" lon="4.56389">
        <ele>614</ele>
        <time>2017-04-24T09:45:02Z</time>
      </trkpt>
      <trkpt lat="46.024" lon="4.56381">
        <ele>613</ele>
        <time>2017-04-24T09:45:05Z</time>
      </trkpt>
      <trkpt lat="46.02402" lon="4.56379">
        <ele>613</ele>
        <time>2017-04-24T09:45:06Z</time>
      </trkpt>
      <trkpt lat="46.02407" lon="4.56371">
        <ele>613</ele>
        <time>2017-04-24T09:45:09Z</time>
      </trkpt>
      <trkpt lat="46.02408" lon="4.56368">
        <ele>613</ele>
        <time>2017-04-24T09:45:10Z</time>
      </trkpt>
      <trkpt lat="46.02412" lon="4.5636">
        <ele>613</ele>
        <time>2017-04-24T09:45:13Z</time>
      </trkpt>
      <trkpt lat="46.02414" lon="4.56357">
        <ele>613</ele>
        <time>2017-04-24T09:45:14Z</time>
      </trkpt>
      <trkpt lat="46.02418" lon="4.56349">
        <ele>620</ele>
        <time>2017-04-24T09:45:17Z</time>
      </trkpt>
      <trkpt lat="46.02419" lon="4.56346">
        <ele>620</ele>
        <time>2017-04-24T09:45:18Z</time>
      </trkpt>
      <trkpt lat="46.02425" lon="4.56337">
        <ele>619</ele>
        <time>2017-04-24T09:45:21Z</time>
      </trkpt>
      <trkpt lat="46.02427" lon="4.56335">
        <ele>619</ele>
        <time>2017-04-24T09:45:22Z</time>
      </trkpt>
      <trkpt lat="46.02432" lon="4.56326">
        <ele>617</ele>
        <time>2017-04-24T09:45:25Z</time>
      </trkpt>
      <trkpt lat="46.02433" lon="4.56323">
        <ele>618</ele>
        <time>2017-04-24T09:45:26Z</time>
      </trkpt>
      <trkpt lat="46.02438" lon="4.56312">
        <ele>618</ele>
        <time>2017-04-24T09:45:30Z</time>
      </trkpt>
      <trkpt lat="46.02439" lon="4.5631">
        <ele>618</ele>
        <time>2017-04-24T09:45:31Z</time>
      </trkpt>
      <trkpt lat="46.02444" lon="4.56301">
        <ele>618</ele>
        <time>2017-04-24T09:45:34Z</time>
      </trkpt>
      <trkpt lat="46.02446" lon="4.56297">
        <ele>618</ele>
        <time>2017-04-24T09:45:35Z</time>
      </trkpt>
      <trkpt lat="46.02451" lon="4.56288">
        <ele>617</ele>
        <time>2017-04-24T09:45:38Z</time>
      </trkpt>
      <trkpt lat="46.02453" lon="4.56286">
        <ele>618</ele>
        <time>2017-04-24T09:45:39Z</time>
      </trkpt>
      <trkpt lat="46.02457" lon="4.56278">
        <ele>618</ele>
        <time>2017-04-24T09:45:42Z</time>
      </trkpt>
      <trkpt lat="46.02458" lon="4.56275">
        <ele>618</ele>
        <time>2017-04-24T09:45:43Z</time>
      </trkpt>
      <trkpt lat="46.02463" lon="4.56265">
        <ele>618</ele>
        <time>2017-04-24T09:45:46Z</time>
      </trkpt>
      <trkpt lat="46.02464" lon="4.56262">
        <ele>618</ele>
        <time>2017-04-24T09:45:47Z</time>
      </trkpt>
      <trkpt lat="46.02469" lon="4.56253">
        <ele>618</ele>
        <time>2017-04-24T09:45:50Z</time>
      </trkpt>
      <trkpt lat="46.02471" lon="4.56251">
        <ele>618</ele>
        <time>2017-04-24T09:45:51Z</time>
      </trkpt>
      <trkpt lat="46.02475" lon="4.56243">
        <ele>620</ele>
        <time>2017-04-24T09:45:54Z</time>
      </trkpt>
      <trkpt lat="46.02476" lon="4.5624">
        <ele>620</ele>
        <time>2017-04-24T09:45:55Z</time>
      </trkpt>
      <trkpt lat="46.02481" lon="4.56231">
        <ele>620</ele>
        <time>2017-04-24T09:45:58Z</time>
      </trkpt>
      <trkpt lat="46.02482" lon="4.56228">
        <ele>620</ele>
        <time>2017-04-24T09:45:59Z</time>
      </trkpt>
      <trkpt lat="46.02486" lon="4.56218">
        <ele>621</ele>
        <time>2017-04-24T09:46:03Z</time>
      </trkpt>
      <trkpt lat="46.02487" lon="4.56215">
        <ele>621</ele>
        <time>2017-04-24T09:46:04Z</time>
      </trkpt>
      <trkpt lat="46.02492" lon="4.56205">
        <ele>621</ele>
        <time>2017-04-24T09:46:07Z</time>
      </trkpt>
      <trkpt lat="46.02494" lon="4.56202">
        <ele>622</ele>
        <time>2017-04-24T09:46:08Z</time>
      </trkpt>
      <trkpt lat="46.025" lon="4.56194">
        <ele>621</ele>
        <time>2017-04-24T09:46:11Z</time>
      </trkpt>
      <trkpt lat="46.02502" lon="4.56191">
        <ele>621</ele>
        <time>2017-04-24T09:46:12Z</time>
      </trkpt>
      <trkpt lat="46.02508" lon="4.56185">
        <ele>622</ele>
        <time>2017-04-24T09:46:15Z</time>
      </trkpt>
      <trkpt lat="46.02509" lon="4.56182">
        <ele>622</ele>
        <time>2017-04-24T09:46:16Z</time>
      </trkpt>
      <trkpt lat="46.02515" lon="4.56175">
        <ele>622</ele>
        <time>2017-04-24T09:46:19Z</time>
      </trkpt>
      <trkpt lat="46.02517" lon="4.56173">
        <ele>622</ele>
        <time>2017-04-24T09:46:20Z</time>
      </trkpt>
      <trkpt lat="46.02523" lon="4.56165">
        <ele>625</ele>
        <time>2017-04-24T09:46:23Z</time>
      </trkpt>
      <trkpt lat="46.02525" lon="4.56162">
        <ele>624</ele>
        <time>2017-04-24T09:46:24Z</time>
      </trkpt>
      <trkpt lat="46.02532" lon="4.56154">
        <ele>623</ele>
        <time>2017-04-24T09:46:27Z</time>
      </trkpt>
      <trkpt lat="46.02534" lon="4.56152">
        <ele>623</ele>
        <time>2017-04-24T09:46:28Z</time>
      </trkpt>
      <trkpt lat="46.02538" lon="4.56142">
        <ele>623</ele>
        <time>2017-04-24T09:46:31Z</time>
      </trkpt>
      <trkpt lat="46.0254" lon="4.56139">
        <ele>623</ele>
        <time>2017-04-24T09:46:32Z</time>
      </trkpt>
      <trkpt lat="46.02543" lon="4.56128">
        <ele>623</ele>
        <time>2017-04-24T09:46:35Z</time>
      </trkpt>
      <trkpt lat="46.02544" lon="4.56125">
        <ele>623</ele>
        <time>2017-04-24T09:46:36Z</time>
      </trkpt>
      <trkpt lat="46.02544" lon="4.56116">
        <ele>623</ele>
        <time>2017-04-24T09:46:38Z</time>
      </trkpt>
      <trkpt lat="46.02544" lon="4.56111">
        <ele>623</ele>
        <time>2017-04-24T09:46:39Z</time>
      </trkpt>
      <trkpt lat="46.02544" lon="4.56102">
        <ele>624</ele>
        <time>2017-04-24T09:46:41Z</time>
      </trkpt>
      <trkpt lat="46.02544" lon="4.56098">
        <ele>624</ele>
        <time>2017-04-24T09:46:42Z</time>
      </trkpt>
      <trkpt lat="46.02544" lon="4.56085">
        <ele>624</ele>
        <time>2017-04-24T09:46:45Z</time>
      </trkpt>
      <trkpt lat="46.02543" lon="4.56081">
        <ele>629</ele>
        <time>2017-04-24T09:46:46Z</time>
      </trkpt>
      <trkpt lat="46.02543" lon="4.56069">
        <ele>629</ele>
        <time>2017-04-24T09:46:49Z</time>
      </trkpt>
      <trkpt lat="46.02543" lon="4.56065">
        <ele>629</ele>
        <time>2017-04-24T09:46:50Z</time>
      </trkpt>
      <trkpt lat="46.02544" lon="4.56057">
        <ele>629</ele>
        <time>2017-04-24T09:46:52Z</time>
      </trkpt>
      <trkpt lat="46.02544" lon="4.56052">
        <ele>630</ele>
        <time>2017-04-24T09:46:53Z</time>
      </trkpt>
      <trkpt lat="46.02545" lon="4.5604">
        <ele>630</ele>
        <time>2017-04-24T09:46:56Z</time>
      </trkpt>
      <trkpt lat="46.02545" lon="4.56037">
        <ele>630</ele>
        <time>2017-04-24T09:46:57Z</time>
      </trkpt>
      <trkpt lat="46.02548" lon="4.56028">
        <ele>630</ele>
        <time>2017-04-24T09:47:00Z</time>
      </trkpt>
      <trkpt lat="46.02549" lon="4.56025">
        <ele>630</ele>
        <time>2017-04-24T09:47:01Z</time>
      </trkpt>
      <trkpt lat="46.0255" lon="4.56015">
        <ele>629</ele>
        <time>2017-04-24T09:47:04Z</time>
      </trkpt>
      <trkpt lat="46.0255" lon="4.5601">
        <ele>629</ele>
        <time>2017-04-24T09:47:05Z</time>
      </trkpt>
      <trkpt lat="46.02553" lon="4.55999">
        <ele>634</ele>
        <time>2017-04-24T09:47:08Z</time>
      </trkpt>
      <trkpt lat="46.02554" lon="4.55995">
        <ele>634</ele>
        <time>2017-04-24T09:47:09Z</time>
      </trkpt>
      <trkpt lat="46.02557" lon="4.55988">
        <ele>634</ele>
        <time>2017-04-24T09:47:11Z</time>
      </trkpt>
      <trkpt lat="46.02557" lon="4.55983">
        <ele>634</ele>
        <time>2017-04-24T09:47:12Z</time>
      </trkpt>
      <trkpt lat="46.0256" lon="4.5597">
        <ele>635</ele>
        <time>2017-04-24T09:47:15Z</time>
      </trkpt>
      <trkpt lat="46.02561" lon="4.55966">
        <ele>636</ele>
        <time>2017-04-24T09:47:16Z</time>
      </trkpt>
      <trkpt lat="46.02562" lon="4.55955">
        <ele>637</ele>
        <time>2017-04-24T09:47:18Z</time>
      </trkpt>
      <trkpt lat="46.02564" lon="4.55952">
        <ele>637</ele>
        <time>2017-04-24T09:47:19Z</time>
      </trkpt>
      <trkpt lat="46.02568" lon="4.55945">
        <ele>636</ele>
        <time>2017-04-24T09:47:21Z</time>
      </trkpt>
      <trkpt lat="46.0257" lon="4.55942">
        <ele>636</ele>
        <time>2017-04-24T09:47:22Z</time>
      </trkpt>
      <trkpt lat="46.02575" lon="4.55933">
        <ele>635</ele>
        <time>2017-04-24T09:47:25Z</time>
      </trkpt>
      <trkpt lat="46.02576" lon="4.55931">
        <ele>635</ele>
        <time>2017-04-24T09:47:26Z</time>
      </trkpt>
      <trkpt lat="46.02582" lon="4.55921">
        <ele>632</ele>
        <time>2017-04-24T09:47:29Z</time>
      </trkpt>
      <trkpt lat="46.02584" lon="4.55918">
        <ele>630</ele>
        <time>2017-04-24T09:47:30Z</time>
      </trkpt>
      <trkpt lat="46.02586" lon="4.55915">
        <ele>632</ele>
        <time>2017-04-24T09:47:31Z</time>
      </trkpt>
      <trkpt lat="46.02585" lon="4.55904">
        <ele>633</ele>
        <time>2017-04-24T09:47:32Z</time>
      </trkpt>
      <trkpt lat="46.02586" lon="4.55897">
        <ele>634</ele>
        <time>2017-04-24T09:47:33Z</time>
      </trkpt>
      <trkpt lat="46.02589" lon="4.55891">
        <ele>635</ele>
        <time>2017-04-24T09:47:34Z</time>
      </trkpt>
      <trkpt lat="46.02594" lon="4.55885">
        <ele>636</ele>
        <time>2017-04-24T09:47:36Z</time>
      </trkpt>
      <trkpt lat="46.02596" lon="4.55883">
        <ele>637</ele>
        <time>2017-04-24T09:47:37Z</time>
      </trkpt>
      <trkpt lat="46.02604" lon="4.55878">
        <ele>637</ele>
        <time>2017-04-24T09:47:40Z</time>
      </trkpt>
      <trkpt lat="46.02606" lon="4.55877">
        <ele>637</ele>
        <time>2017-04-24T09:47:41Z</time>
      </trkpt>
      <trkpt lat="46.02614" lon="4.55872">
        <ele>638</ele>
        <time>2017-04-24T09:47:44Z</time>
      </trkpt>
      <trkpt lat="46.02616" lon="4.55869">
        <ele>638</ele>
        <time>2017-04-24T09:47:45Z</time>
      </trkpt>
      <trkpt lat="46.02622" lon="4.55865">
        <ele>638</ele>
        <time>2017-04-24T09:47:47Z</time>
      </trkpt>
      <trkpt lat="46.02626" lon="4.55864">
        <ele>638</ele>
        <time>2017-04-24T09:47:48Z</time>
      </trkpt>
      <trkpt lat="46.02633" lon="4.55862">
        <ele>638</ele>
        <time>2017-04-24T09:47:50Z</time>
      </trkpt>
      <trkpt lat="46.02637" lon="4.55862">
        <ele>638</ele>
        <time>2017-04-24T09:47:51Z</time>
      </trkpt>
      <trkpt lat="46.02644" lon="4.55862">
        <ele>638</ele>
        <time>2017-04-24T09:47:53Z</time>
      </trkpt>
      <trkpt lat="46.02649" lon="4.55862">
        <ele>638</ele>
        <time>2017-04-24T09:47:54Z</time>
      </trkpt>
      <trkpt lat="46.02655" lon="4.55861">
        <ele>638</ele>
        <time>2017-04-24T09:47:56Z</time>
      </trkpt>
      <trkpt lat="46.02658" lon="4.55861">
        <ele>638</ele>
        <time>2017-04-24T09:47:57Z</time>
      </trkpt>
      <trkpt lat="46.02667" lon="4.55863">
        <ele>637</ele>
        <time>2017-04-24T09:48:00Z</time>
      </trkpt>
      <trkpt lat="46.0267" lon="4.55863">
        <ele>638</ele>
        <time>2017-04-24T09:48:01Z</time>
      </trkpt>
      <trkpt lat="46.02677" lon="4.55863">
        <ele>638</ele>
        <time>2017-04-24T09:48:03Z</time>
      </trkpt>
      <trkpt lat="46.0268" lon="4.55864">
        <ele>638</ele>
        <time>2017-04-24T09:48:04Z</time>
      </trkpt>
      <trkpt lat="46.02686" lon="4.55866">
        <ele>638</ele>
        <time>2017-04-24T09:48:06Z</time>
      </trkpt>
      <trkpt lat="46.0269" lon="4.55866">
        <ele>638</ele>
        <time>2017-04-24T09:48:07Z</time>
      </trkpt>
      <trkpt lat="46.02696" lon="4.55869">
        <ele>638</ele>
        <time>2017-04-24T09:48:09Z</time>
      </trkpt>
      <trkpt lat="46.02699" lon="4.5587">
        <ele>638</ele>
        <time>2017-04-24T09:48:10Z</time>
      </trkpt>
      <trkpt lat="46.02705" lon="4.55871">
        <ele>638</ele>
        <time>2017-04-24T09:48:12Z</time>
      </trkpt>
      <trkpt lat="46.02709" lon="4.55873">
        <ele>638</ele>
        <time>2017-04-24T09:48:13Z</time>
      </trkpt>
      <trkpt lat="46.02716" lon="4.55875">
        <ele>638</ele>
        <time>2017-04-24T09:48:15Z</time>
      </trkpt>
      <trkpt lat="46.02719" lon="4.55875">
        <ele>638</ele>
        <time>2017-04-24T09:48:16Z</time>
      </trkpt>
      <trkpt lat="46.02724" lon="4.55878">
        <ele>638</ele>
        <time>2017-04-24T09:48:18Z</time>
      </trkpt>
      <trkpt lat="46.02728" lon="4.55879">
        <ele>638</ele>
        <time>2017-04-24T09:48:19Z</time>
      </trkpt>
      <trkpt lat="46.02735" lon="4.55881">
        <ele>638</ele>
        <time>2017-04-24T09:48:21Z</time>
      </trkpt>
      <trkpt lat="46.02738" lon="4.55882">
        <ele>638</ele>
        <time>2017-04-24T09:48:22Z</time>
      </trkpt>
      <trkpt lat="46.02746" lon="4.55884">
        <ele>638</ele>
        <time>2017-04-24T09:48:24Z</time>
      </trkpt>
      <trkpt lat="46.02749" lon="4.55885">
        <ele>637</ele>
        <time>2017-04-24T09:48:25Z</time>
      </trkpt>
      <trkpt lat="46.02755" lon="4.55888">
        <ele>643</ele>
        <time>2017-04-24T09:48:27Z</time>
      </trkpt>
      <trkpt lat="46.02758" lon="4.5589">
        <ele>643</ele>
        <time>2017-04-24T09:48:28Z</time>
      </trkpt>
      <trkpt lat="46.02766" lon="4.55893">
        <ele>643</ele>
        <time>2017-04-24T09:48:30Z</time>
      </trkpt>
      <trkpt lat="46.02771" lon="4.55895">
        <ele>643</ele>
        <time>2017-04-24T09:48:31Z</time>
      </trkpt>
      <trkpt lat="46.02775" lon="4.55896">
        <ele>643</ele>
        <time>2017-04-24T09:48:32Z</time>
      </trkpt>
      <trkpt lat="46.0278" lon="4.55898">
        <ele>643</ele>
        <time>2017-04-24T09:48:33Z</time>
      </trkpt>
      <trkpt lat="46.02784" lon="4.55899">
        <ele>644</ele>
        <time>2017-04-24T09:48:34Z</time>
      </trkpt>
      <trkpt lat="46.02789" lon="4.559">
        <ele>644</ele>
        <time>2017-04-24T09:48:35Z</time>
      </trkpt>
      <trkpt lat="46.02797" lon="4.55902">
        <ele>644</ele>
        <time>2017-04-24T09:48:37Z</time>
      </trkpt>
      <trkpt lat="46.02801" lon="4.55902">
        <ele>644</ele>
        <time>2017-04-24T09:48:38Z</time>
      </trkpt>
      <trkpt lat="46.0281" lon="4.55904">
        <ele>644</ele>
        <time>2017-04-24T09:48:40Z</time>
      </trkpt>
      <trkpt lat="46.02813" lon="4.55904">
        <ele>644</ele>
        <time>2017-04-24T09:48:41Z</time>
      </trkpt>
      <trkpt lat="46.02821" lon="4.55903">
        <ele>644</ele>
        <time>2017-04-24T09:48:43Z</time>
      </trkpt>
      <trkpt lat="46.02825" lon="4.55903">
        <ele>643</ele>
        <time>2017-04-24T09:48:44Z</time>
      </trkpt>
      <trkpt lat="46.02831" lon="4.55901">
        <ele>644</ele>
        <time>2017-04-24T09:48:46Z</time>
      </trkpt>
      <trkpt lat="46.02835" lon="4.55899">
        <ele>642</ele>
        <time>2017-04-24T09:48:47Z</time>
      </trkpt>
      <trkpt lat="46.02841" lon="4.55897">
        <ele>643</ele>
        <time>2017-04-24T09:48:49Z</time>
      </trkpt>
      <trkpt lat="46.02844" lon="4.55894">
        <ele>643</ele>
        <time>2017-04-24T09:48:50Z</time>
      </trkpt>
      <trkpt lat="46.02851" lon="4.5589">
        <ele>644</ele>
        <time>2017-04-24T09:48:52Z</time>
      </trkpt>
      <trkpt lat="46.02855" lon="4.55887">
        <ele>644</ele>
        <time>2017-04-24T09:48:53Z</time>
      </trkpt>
      <trkpt lat="46.02862" lon="4.55884">
        <ele>644</ele>
        <time>2017-04-24T09:48:55Z</time>
      </trkpt>
      <trkpt lat="46.02866" lon="4.55882">
        <ele>644</ele>
        <time>2017-04-24T09:48:56Z</time>
      </trkpt>
      <trkpt lat="46.02872" lon="4.55876">
        <ele>645</ele>
        <time>2017-04-24T09:48:58Z</time>
      </trkpt>
      <trkpt lat="46.02876" lon="4.55873">
        <ele>645</ele>
        <time>2017-04-24T09:48:59Z</time>
      </trkpt>
      <trkpt lat="46.02883" lon="4.55866">
        <ele>645</ele>
        <time>2017-04-24T09:49:01Z</time>
      </trkpt>
      <trkpt lat="46.02886" lon="4.55865">
        <ele>645</ele>
        <time>2017-04-24T09:49:02Z</time>
      </trkpt>
      <trkpt lat="46.02894" lon="4.55861">
        <ele>645</ele>
        <time>2017-04-24T09:49:05Z</time>
      </trkpt>
      <trkpt lat="46.02896" lon="4.55858">
        <ele>645</ele>
        <time>2017-04-24T09:49:06Z</time>
      </trkpt>
      <trkpt lat="46.02902" lon="4.55851">
        <ele>646</ele>
        <time>2017-04-24T09:49:08Z</time>
      </trkpt>
      <trkpt lat="46.02905" lon="4.55849">
        <ele>646</ele>
        <time>2017-04-24T09:49:09Z</time>
      </trkpt>
      <trkpt lat="46.0291" lon="4.55843">
        <ele>647</ele>
        <time>2017-04-24T09:49:11Z</time>
      </trkpt>
      <trkpt lat="46.02913" lon="4.5584">
        <ele>648</ele>
        <time>2017-04-24T09:49:12Z</time>
      </trkpt>
      <trkpt lat="46.02921" lon="4.55834">
        <ele>645</ele>
        <time>2017-04-24T09:49:14Z</time>
      </trkpt>
      <trkpt lat="46.02924" lon="4.5583">
        <ele>649</ele>
        <time>2017-04-24T09:49:15Z</time>
      </trkpt>
      <trkpt lat="46.0293" lon="4.55824">
        <ele>648</ele>
        <time>2017-04-24T09:49:17Z</time>
      </trkpt>
      <trkpt lat="46.02933" lon="4.55822">
        <ele>648</ele>
        <time>2017-04-24T09:49:18Z</time>
      </trkpt>
      <trkpt lat="46.0294" lon="4.55814">
        <ele>648</ele>
        <time>2017-04-24T09:49:21Z</time>
      </trkpt>
      <trkpt lat="46.02943" lon="4.55812">
        <ele>648</ele>
        <time>2017-04-24T09:49:22Z</time>
      </trkpt>
      <trkpt lat="46.02949" lon="4.55807">
        <ele>648</ele>
        <time>2017-04-24T09:49:24Z</time>
      </trkpt>
      <trkpt lat="46.02951" lon="4.55803">
        <ele>648</ele>
        <time>2017-04-24T09:49:25Z</time>
      </trkpt>
      <trkpt lat="46.02956" lon="4.55796">
        <ele>648</ele>
        <time>2017-04-24T09:49:27Z</time>
      </trkpt>
      <trkpt lat="46.02958" lon="4.55792">
        <ele>648</ele>
        <time>2017-04-24T09:49:28Z</time>
      </trkpt>
      <trkpt lat="46.02963" lon="4.55782">
        <ele>649</ele>
        <time>2017-04-24T09:49:30Z</time>
      </trkpt>
      <trkpt lat="46.02965" lon="4.55778">
        <ele>649</ele>
        <time>2017-04-24T09:49:31Z</time>
      </trkpt>
      <trkpt lat="46.02968" lon="4.55769">
        <ele>650</ele>
        <time>2017-04-24T09:49:33Z</time>
      </trkpt>
      <trkpt lat="46.02969" lon="4.55766">
        <ele>650</ele>
        <time>2017-04-24T09:49:34Z</time>
      </trkpt>
      <trkpt lat="46.02974" lon="4.55755">
        <ele>650</ele>
        <time>2017-04-24T09:49:37Z</time>
      </trkpt>
      <trkpt lat="46.02976" lon="4.55752">
        <ele>650</ele>
        <time>2017-04-24T09:49:38Z</time>
      </trkpt>
      <trkpt lat="46.02981" lon="4.55742">
        <ele>658</ele>
        <time>2017-04-24T09:49:41Z</time>
      </trkpt>
      <trkpt lat="46.02983" lon="4.55739">
        <ele>658</ele>
        <time>2017-04-24T09:49:42Z</time>
      </trkpt>
      <trkpt lat="46.02986" lon="4.55731">
        <ele>658</ele>
        <time>2017-04-24T09:49:44Z</time>
      </trkpt>
      <trkpt lat="46.02989" lon="4.55727">
        <ele>658</ele>
        <time>2017-04-24T09:49:45Z</time>
      </trkpt>
      <trkpt lat="46.02991" lon="4.55718">
        <ele>660</ele>
        <time>2017-04-24T09:49:47Z</time>
      </trkpt>
      <trkpt lat="46.02993" lon="4.55713">
        <ele>660</ele>
        <time>2017-04-24T09:49:48Z</time>
      </trkpt>
      <trkpt lat="46.02998" lon="4.55703">
        <ele>661</ele>
        <time>2017-04-24T09:49:51Z</time>
      </trkpt>
      <trkpt lat="46.03" lon="4.557">
        <ele>661</ele>
        <time>2017-04-24T09:49:52Z</time>
      </trkpt>
      <trkpt lat="46.03003" lon="4.55694">
        <ele>649</ele>
        <time>2017-04-24T09:49:54Z</time>
      </trkpt>
      <trkpt lat="46.03006" lon="4.55691">
        <ele>649</ele>
        <time>2017-04-24T09:49:55Z</time>
      </trkpt>
      <trkpt lat="46.03012" lon="4.55684">
        <ele>650</ele>
        <time>2017-04-24T09:49:58Z</time>
      </trkpt>
      <trkpt lat="46.03014" lon="4.55681">
        <ele>650</ele>
        <time>2017-04-24T09:49:59Z</time>
      </trkpt>
      <trkpt lat="46.03022" lon="4.55676">
        <ele>649</ele>
        <time>2017-04-24T09:50:02Z</time>
      </trkpt>
      <trkpt lat="46.03024" lon="4.55674">
        <ele>648</ele>
        <time>2017-04-24T09:50:03Z</time>
      </trkpt>
      <trkpt lat="46.03032" lon="4.55669">
        <ele>647</ele>
        <time>2017-04-24T09:50:05Z</time>
      </trkpt>
      <trkpt lat="46.03035" lon="4.55669">
        <ele>647</ele>
        <time>2017-04-24T09:50:06Z</time>
      </trkpt>
      <trkpt lat="46.03042" lon="4.55667">
        <ele>645</ele>
        <time>2017-04-24T09:50:08Z</time>
      </trkpt>
      <trkpt lat="46.03045" lon="4.55665">
        <ele>652</ele>
        <time>2017-04-24T09:50:09Z</time>
      </trkpt>
      <trkpt lat="46.03051" lon="4.55662">
        <ele>651</ele>
        <time>2017-04-24T09:50:11Z</time>
      </trkpt>
      <trkpt lat="46.03054" lon="4.55661">
        <ele>651</ele>
        <time>2017-04-24T09:50:12Z</time>
      </trkpt>
      <trkpt lat="46.0306" lon="4.55658">
        <ele>650</ele>
        <time>2017-04-24T09:50:14Z</time>
      </trkpt>
      <trkpt lat="46.03063" lon="4.55657">
        <ele>649</ele>
        <time>2017-04-24T09:50:15Z</time>
      </trkpt>
      <trkpt lat="46.03071" lon="4.55657">
        <ele>647</ele>
        <time>2017-04-24T09:50:18Z</time>
      </trkpt>
      <trkpt lat="46.03074" lon="4.55657">
        <ele>647</ele>
        <time>2017-04-24T09:50:19Z</time>
      </trkpt>
      <trkpt lat="46.03081" lon="4.55654">
        <ele>646</ele>
        <time>2017-04-24T09:50:21Z</time>
      </trkpt>
      <trkpt lat="46.03084" lon="4.55652">
        <ele>641</ele>
        <time>2017-04-24T09:50:22Z</time>
      </trkpt>
      <trkpt lat="46.03091" lon="4.5565">
        <ele>642</ele>
        <time>2017-04-24T09:50:24Z</time>
      </trkpt>
      <trkpt lat="46.03094" lon="4.55649">
        <ele>642</ele>
        <time>2017-04-24T09:50:25Z</time>
      </trkpt>
      <trkpt lat="46.03102" lon="4.55645">
        <ele>642</ele>
        <time>2017-04-24T09:50:27Z</time>
      </trkpt>
      <trkpt lat="46.03106" lon="4.55643">
        <ele>642</ele>
        <time>2017-04-24T09:50:28Z</time>
      </trkpt>
      <trkpt lat="46.03112" lon="4.55639">
        <ele>642</ele>
        <time>2017-04-24T09:50:30Z</time>
      </trkpt>
      <trkpt lat="46.03115" lon="4.55636">
        <ele>642</ele>
        <time>2017-04-24T09:50:31Z</time>
      </trkpt>
      <trkpt lat="46.03122" lon="4.5563">
        <ele>642</ele>
        <time>2017-04-24T09:50:33Z</time>
      </trkpt>
      <trkpt lat="46.03126" lon="4.55627">
        <ele>642</ele>
        <time>2017-04-24T09:50:34Z</time>
      </trkpt>
      <trkpt lat="46.03133" lon="4.55622">
        <ele>642</ele>
        <time>2017-04-24T09:50:36Z</time>
      </trkpt>
      <trkpt lat="46.03137" lon="4.55619">
        <ele>642</ele>
        <time>2017-04-24T09:50:37Z</time>
      </trkpt>
      <trkpt lat="46.03143" lon="4.55617">
        <ele>642</ele>
        <time>2017-04-24T09:50:38Z</time>
      </trkpt>
      <trkpt lat="46.03148" lon="4.55614">
        <ele>642</ele>
        <time>2017-04-24T09:50:39Z</time>
      </trkpt>
      <trkpt lat="46.03152" lon="4.55609">
        <ele>643</ele>
        <time>2017-04-24T09:50:40Z</time>
      </trkpt>
      <trkpt lat="46.03155" lon="4.55604">
        <ele>643</ele>
        <time>2017-04-24T09:50:41Z</time>
      </trkpt>
      <trkpt lat="46.0316" lon="4.55594">
        <ele>644</ele>
        <time>2017-04-24T09:50:43Z</time>
      </trkpt>
      <trkpt lat="46.03162" lon="4.55589">
        <ele>644</ele>
        <time>2017-04-24T09:50:44Z</time>
      </trkpt>
      <trkpt lat="46.03166" lon="4.55579">
        <ele>647</ele>
        <time>2017-04-24T09:50:46Z</time>
      </trkpt>
      <trkpt lat="46.03167" lon="4.55574">
        <ele>643</ele>
        <time>2017-04-24T09:50:47Z</time>
      </trkpt>
      <trkpt lat="46.03169" lon="4.55563">
        <ele>642</ele>
        <time>2017-04-24T09:50:49Z</time>
      </trkpt>
      <trkpt lat="46.0317" lon="4.55557">
        <ele>641</ele>
        <time>2017-04-24T09:50:50Z</time>
      </trkpt>
      <trkpt lat="46.03171" lon="4.55546">
        <ele>642</ele>
        <time>2017-04-24T09:50:52Z</time>
      </trkpt>
      <trkpt lat="46.03172" lon="4.5554">
        <ele>642</ele>
        <time>2017-04-24T09:50:53Z</time>
      </trkpt>
      <trkpt lat="46.03173" lon="4.55528">
        <ele>644</ele>
        <time>2017-04-24T09:50:55Z</time>
      </trkpt>
      <trkpt lat="46.03174" lon="4.55522">
        <ele>645</ele>
        <time>2017-04-24T09:50:56Z</time>
      </trkpt>
      <trkpt lat="46.03174" lon="4.55512">
        <ele>648</ele>
        <time>2017-04-24T09:50:58Z</time>
      </trkpt>
      <trkpt lat="46.03175" lon="4.55507">
        <ele>650</ele>
        <time>2017-04-24T09:50:59Z</time>
      </trkpt>
      <trkpt lat="46.03175" lon="4.55495">
        <ele>654</ele>
        <time>2017-04-24T09:51:01Z</time>
      </trkpt>
      <trkpt lat="46.03175" lon="4.5549">
        <ele>653</ele>
        <time>2017-04-24T09:51:02Z</time>
      </trkpt>
      <trkpt lat="46.03175" lon="4.5548">
        <ele>652</ele>
        <time>2017-04-24T09:51:04Z</time>
      </trkpt>
      <trkpt lat="46.03175" lon="4.55475">
        <ele>652</ele>
        <time>2017-04-24T09:51:05Z</time>
      </trkpt>
      <trkpt lat="46.03176" lon="4.55466">
        <ele>652</ele>
        <time>2017-04-24T09:51:07Z</time>
      </trkpt>
      <trkpt lat="46.03176" lon="4.5546">
        <ele>652</ele>
        <time>2017-04-24T09:51:08Z</time>
      </trkpt>
      <trkpt lat="46.03176" lon="4.55453">
        <ele>653</ele>
        <time>2017-04-24T09:51:09Z</time>
      </trkpt>
      <trkpt lat="46.03174" lon="4.55445">
        <ele>654</ele>
        <time>2017-04-24T09:51:10Z</time>
      </trkpt>
      <trkpt lat="46.03173" lon="4.55438">
        <ele>655</ele>
        <time>2017-04-24T09:51:11Z</time>
      </trkpt>
      <trkpt lat="46.03172" lon="4.55432">
        <ele>656</ele>
        <time>2017-04-24T09:51:12Z</time>
      </trkpt>
      <trkpt lat="46.03171" lon="4.55423">
        <ele>659</ele>
        <time>2017-04-24T09:51:13Z</time>
      </trkpt>
      <trkpt lat="46.03169" lon="4.55415">
        <ele>661</ele>
        <time>2017-04-24T09:51:14Z</time>
      </trkpt>
      <trkpt lat="46.03168" lon="4.55408">
        <ele>660</ele>
        <time>2017-04-24T09:51:15Z</time>
      </trkpt>
      <trkpt lat="46.03167" lon="4.55398">
        <ele>659</ele>
        <time>2017-04-24T09:51:16Z</time>
      </trkpt>
      <trkpt lat="46.03172" lon="4.55389">
        <ele>658</ele>
        <time>2017-04-24T09:51:18Z</time>
      </trkpt>
      <trkpt lat="46.03177" lon="4.55388">
        <ele>658</ele>
        <time>2017-04-24T09:51:19Z</time>
      </trkpt>
      <trkpt lat="46.03182" lon="4.55387">
        <ele>657</ele>
        <time>2017-04-24T09:51:20Z</time>
      </trkpt>
      <trkpt lat="46.03187" lon="4.55388">
        <ele>657</ele>
        <time>2017-04-24T09:51:21Z</time>
      </trkpt>
      <trkpt lat="46.03192" lon="4.5539">
        <ele>657</ele>
        <time>2017-04-24T09:51:22Z</time>
      </trkpt>
      <trkpt lat="46.03198" lon="4.5539">
        <ele>657</ele>
        <time>2017-04-24T09:51:23Z</time>
      </trkpt>
      <trkpt lat="46.03203" lon="4.55391">
        <ele>656</ele>
        <time>2017-04-24T09:51:24Z</time>
      </trkpt>
      <trkpt lat="46.03209" lon="4.55392">
        <ele>656</ele>
        <time>2017-04-24T09:51:25Z</time>
      </trkpt>
      <trkpt lat="46.03215" lon="4.55393">
        <ele>655</ele>
        <time>2017-04-24T09:51:26Z</time>
      </trkpt>
      <trkpt lat="46.03221" lon="4.55393">
        <ele>655</ele>
        <time>2017-04-24T09:51:27Z</time>
      </trkpt>
      <trkpt lat="46.03228" lon="4.55393">
        <ele>654</ele>
        <time>2017-04-24T09:51:28Z</time>
      </trkpt>
      <trkpt lat="46.03234" lon="4.55393">
        <ele>654</ele>
        <time>2017-04-24T09:51:29Z</time>
      </trkpt>
      <trkpt lat="46.03241" lon="4.55393">
        <ele>653</ele>
        <time>2017-04-24T09:51:30Z</time>
      </trkpt>
      <trkpt lat="46.03248" lon="4.55392">
        <ele>653</ele>
        <time>2017-04-24T09:51:31Z</time>
      </trkpt>
      <trkpt lat="46.03254" lon="4.55391">
        <ele>648</ele>
        <time>2017-04-24T09:51:32Z</time>
      </trkpt>
      <trkpt lat="46.03263" lon="4.55391">
        <ele>648</ele>
        <time>2017-04-24T09:51:33Z</time>
      </trkpt>
      <trkpt lat="46.0327" lon="4.5539">
        <ele>648</ele>
        <time>2017-04-24T09:51:34Z</time>
      </trkpt>
      <trkpt lat="46.03277" lon="4.55388">
        <ele>648</ele>
        <time>2017-04-24T09:51:35Z</time>
      </trkpt>
      <trkpt lat="46.03284" lon="4.55386">
        <ele>647</ele>
        <time>2017-04-24T09:51:36Z</time>
      </trkpt>
      <trkpt lat="46.03291" lon="4.55383">
        <ele>647</ele>
        <time>2017-04-24T09:51:37Z</time>
      </trkpt>
      <trkpt lat="46.03297" lon="4.55378">
        <ele>647</ele>
        <time>2017-04-24T09:51:38Z</time>
      </trkpt>
      <trkpt lat="46.03303" lon="4.55371">
        <ele>648</ele>
        <time>2017-04-24T09:51:39Z</time>
      </trkpt>
      <trkpt lat="46.03308" lon="4.55365">
        <ele>649</ele>
        <time>2017-04-24T09:51:40Z</time>
      </trkpt>
      <trkpt lat="46.03315" lon="4.55359">
        <ele>649</ele>
        <time>2017-04-24T09:51:41Z</time>
      </trkpt>
      <trkpt lat="46.03321" lon="4.55354">
        <ele>650</ele>
        <time>2017-04-24T09:51:42Z</time>
      </trkpt>
      <trkpt lat="46.03328" lon="4.55348">
        <ele>651</ele>
        <time>2017-04-24T09:51:43Z</time>
      </trkpt>
      <trkpt lat="46.03337" lon="4.55346">
        <ele>649</ele>
        <time>2017-04-24T09:51:44Z</time>
      </trkpt>
      <trkpt lat="46.03346" lon="4.55346">
        <ele>648</ele>
        <time>2017-04-24T09:51:45Z</time>
      </trkpt>
      <trkpt lat="46.03355" lon="4.5535">
        <ele>646</ele>
        <time>2017-04-24T09:51:46Z</time>
      </trkpt>
      <trkpt lat="46.03364" lon="4.55354">
        <ele>644</ele>
        <time>2017-04-24T09:51:47Z</time>
      </trkpt>
      <trkpt lat="46.03373" lon="4.55357">
        <ele>643</ele>
        <time>2017-04-24T09:51:48Z</time>
      </trkpt>
      <trkpt lat="46.03382" lon="4.55359">
        <ele>643</ele>
        <time>2017-04-24T09:51:49Z</time>
      </trkpt>
      <trkpt lat="46.03391" lon="4.55361">
        <ele>643</ele>
        <time>2017-04-24T09:51:50Z</time>
      </trkpt>
      <trkpt lat="46.03399" lon="4.55362">
        <ele>643</ele>
        <time>2017-04-24T09:51:51Z</time>
      </trkpt>
      <trkpt lat="46.03407" lon="4.55364">
        <ele>642</ele>
        <time>2017-04-24T09:51:52Z</time>
      </trkpt>
      <trkpt lat="46.03415" lon="4.55366">
        <ele>642</ele>
        <time>2017-04-24T09:51:53Z</time>
      </trkpt>
      <trkpt lat="46.03424" lon="4.55368">
        <ele>641</ele>
        <time>2017-04-24T09:51:54Z</time>
      </trkpt>
      <trkpt lat="46.03432" lon="4.55371">
        <ele>641</ele>
        <time>2017-04-24T09:51:55Z</time>
      </trkpt>
      <trkpt lat="46.0344" lon="4.55375">
        <ele>640</ele>
        <time>2017-04-24T09:51:56Z</time>
      </trkpt>
      <trkpt lat="46.03448" lon="4.5538">
        <ele>639</ele>
        <time>2017-04-24T09:51:57Z</time>
      </trkpt>
      <trkpt lat="46.03457" lon="4.55385">
        <ele>639</ele>
        <time>2017-04-24T09:51:58Z</time>
      </trkpt>
      <trkpt lat="46.03466" lon="4.5539">
        <ele>638</ele>
        <time>2017-04-24T09:51:59Z</time>
      </trkpt>
      <trkpt lat="46.03474" lon="4.55394">
        <ele>637</ele>
        <time>2017-04-24T09:52:00Z</time>
      </trkpt>
      <trkpt lat="46.03483" lon="4.55397">
        <ele>636</ele>
        <time>2017-04-24T09:52:01Z</time>
      </trkpt>
      <trkpt lat="46.03492" lon="4.554">
        <ele>635</ele>
        <time>2017-04-24T09:52:02Z</time>
      </trkpt>
      <trkpt lat="46.03501" lon="4.55402">
        <ele>637</ele>
        <time>2017-04-24T09:52:03Z</time>
      </trkpt>
      <trkpt lat="46.0351" lon="4.55404">
        <ele>637</ele>
        <time>2017-04-24T09:52:04Z</time>
      </trkpt>
      <trkpt lat="46.0352" lon="4.55407">
        <ele>639</ele>
        <time>2017-04-24T09:52:05Z</time>
      </trkpt>
      <trkpt lat="46.0353" lon="4.55412">
        <ele>641</ele>
        <time>2017-04-24T09:52:06Z</time>
      </trkpt>
      <trkpt lat="46.03538" lon="4.55419">
        <ele>626</ele>
        <time>2017-04-24T09:52:07Z</time>
      </trkpt>
      <trkpt lat="46.03545" lon="4.55426">
        <ele>627</ele>
        <time>2017-04-24T09:52:08Z</time>
      </trkpt>
      <trkpt lat="46.03553" lon="4.55436">
        <ele>627</ele>
        <time>2017-04-24T09:52:09Z</time>
      </trkpt>
      <trkpt lat="46.03559" lon="4.55446">
        <ele>626</ele>
        <time>2017-04-24T09:52:10Z</time>
      </trkpt>
      <trkpt lat="46.03566" lon="4.55457">
        <ele>625</ele>
        <time>2017-04-24T09:52:11Z</time>
      </trkpt>
      <trkpt lat="46.03573" lon="4.55467">
        <ele>624</ele>
        <time>2017-04-24T09:52:12Z</time>
      </trkpt>
      <trkpt lat="46.03579" lon="4.55476">
        <ele>623</ele>
        <time>2017-04-24T09:52:13Z</time>
      </trkpt>
      <trkpt lat="46.03586" lon="4.55484">
        <ele>624</ele>
        <time>2017-04-24T09:52:14Z</time>
      </trkpt>
      <trkpt lat="46.03592" lon="4.55488">
        <ele>624</ele>
        <time>2017-04-24T09:52:15Z</time>
      </trkpt>
      <trkpt lat="46.03599" lon="4.5549">
        <ele>624</ele>
        <time>2017-04-24T09:52:16Z</time>
      </trkpt>
      <trkpt lat="46.03608" lon="4.55492">
        <ele>625</ele>
        <time>2017-04-24T09:52:17Z</time>
      </trkpt>
      <trkpt lat="46.03616" lon="4.5549">
        <ele>625</ele>
        <time>2017-04-24T09:52:18Z</time>
      </trkpt>
      <trkpt lat="46.03623" lon="4.55486">
        <ele>626</ele>
        <time>2017-04-24T09:52:19Z</time>
      </trkpt>
      <trkpt lat="46.0363" lon="4.5548">
        <ele>626</ele>
        <time>2017-04-24T09:52:20Z</time>
      </trkpt>
      <trkpt lat="46.03636" lon="4.55473">
        <ele>627</ele>
        <time>2017-04-24T09:52:21Z</time>
      </trkpt>
      <trkpt lat="46.03643" lon="4.55466">
        <ele>627</ele>
        <time>2017-04-24T09:52:22Z</time>
      </trkpt>
      <trkpt lat="46.03649" lon="4.55459">
        <ele>628</ele>
        <time>2017-04-24T09:52:23Z</time>
      </trkpt>
      <trkpt lat="46.03656" lon="4.55452">
        <ele>629</ele>
        <time>2017-04-24T09:52:24Z</time>
      </trkpt>
      <trkpt lat="46.03662" lon="4.55445">
        <ele>630</ele>
        <time>2017-04-24T09:52:25Z</time>
      </trkpt>
      <trkpt lat="46.03669" lon="4.55439">
        <ele>626</ele>
        <time>2017-04-24T09:52:26Z</time>
      </trkpt>
      <trkpt lat="46.03676" lon="4.55434">
        <ele>626</ele>
        <time>2017-04-24T09:52:27Z</time>
      </trkpt>
      <trkpt lat="46.03683" lon="4.5543">
        <ele>626</ele>
        <time>2017-04-24T09:52:28Z</time>
      </trkpt>
      <trkpt lat="46.03691" lon="4.55427">
        <ele>625</ele>
        <time>2017-04-24T09:52:29Z</time>
      </trkpt>
      <trkpt lat="46.03699" lon="4.55425">
        <ele>623</ele>
        <time>2017-04-24T09:52:30Z</time>
      </trkpt>
      <trkpt lat="46.03707" lon="4.55422">
        <ele>622</ele>
        <time>2017-04-24T09:52:31Z</time>
      </trkpt>
      <trkpt lat="46.03715" lon="4.55419">
        <ele>621</ele>
        <time>2017-04-24T09:52:32Z</time>
      </trkpt>
      <trkpt lat="46.03723" lon="4.55415">
        <ele>635</ele>
        <time>2017-04-24T09:52:33Z</time>
      </trkpt>
      <trkpt lat="46.03731" lon="4.55411">
        <ele>633</ele>
        <time>2017-04-24T09:52:34Z</time>
      </trkpt>
      <trkpt lat="46.03738" lon="4.55407">
        <ele>631</ele>
        <time>2017-04-24T09:52:35Z</time>
      </trkpt>
      <trkpt lat="46.03746" lon="4.55402">
        <ele>631</ele>
        <time>2017-04-24T09:52:36Z</time>
      </trkpt>
      <trkpt lat="46.03754" lon="4.55396">
        <ele>627</ele>
        <time>2017-04-24T09:52:37Z</time>
      </trkpt>
      <trkpt lat="46.03762" lon="4.5539">
        <ele>629</ele>
        <time>2017-04-24T09:52:38Z</time>
      </trkpt>
      <trkpt lat="46.03769" lon="4.55385">
        <ele>630</ele>
        <time>2017-04-24T09:52:39Z</time>
      </trkpt>
      <trkpt lat="46.03776" lon="4.55381">
        <ele>631</ele>
        <time>2017-04-24T09:52:40Z</time>
      </trkpt>
      <trkpt lat="46.03783" lon="4.55377">
        <ele>631</ele>
        <time>2017-04-24T09:52:41Z</time>
      </trkpt>
      <trkpt lat="46.0379" lon="4.55374">
        <ele>632</ele>
        <time>2017-04-24T09:52:42Z</time>
      </trkpt>
      <trkpt lat="46.03798" lon="4.55373">
        <ele>631</ele>
        <time>2017-04-24T09:52:43Z</time>
      </trkpt>
      <trkpt lat="46.03805" lon="4.55377">
        <ele>630</ele>
        <time>2017-04-24T09:52:44Z</time>
      </trkpt>
      <trkpt lat="46.03814" lon="4.55379">
        <ele>629</ele>
        <time>2017-04-24T09:52:45Z</time>
      </trkpt>
      <trkpt lat="46.03822" lon="4.55381">
        <ele>628</ele>
        <time>2017-04-24T09:52:46Z</time>
      </trkpt>
      <trkpt lat="46.0383" lon="4.55384">
        <ele>627</ele>
        <time>2017-04-24T09:52:47Z</time>
      </trkpt>
      <trkpt lat="46.03837" lon="4.55385">
        <ele>621</ele>
        <time>2017-04-24T09:52:48Z</time>
      </trkpt>
      <trkpt lat="46.03848" lon="4.55385">
        <ele>621</ele>
        <time>2017-04-24T09:52:49Z</time>
      </trkpt>
      <trkpt lat="46.03858" lon="4.55385">
        <ele>621</ele>
        <time>2017-04-24T09:52:50Z</time>
      </trkpt>
      <trkpt lat="46.03868" lon="4.55383">
        <ele>621</ele>
        <time>2017-04-24T09:52:51Z</time>
      </trkpt>
      <trkpt lat="46.03876" lon="4.5538">
        <ele>621</ele>
        <time>2017-04-24T09:52:52Z</time>
      </trkpt>
      <trkpt lat="46.03885" lon="4.55376">
        <ele>621</ele>
        <time>2017-04-24T09:52:53Z</time>
      </trkpt>
      <trkpt lat="46.03892" lon="4.55371">
        <ele>621</ele>
        <time>2017-04-24T09:52:54Z</time>
      </trkpt>
      <trkpt lat="46.03899" lon="4.55365">
        <ele>622</ele>
        <time>2017-04-24T09:52:55Z</time>
      </trkpt>
      <trkpt lat="46.03905" lon="4.55358">
        <ele>623</ele>
        <time>2017-04-24T09:52:56Z</time>
      </trkpt>
      <trkpt lat="46.03912" lon="4.5535">
        <ele>624</ele>
        <time>2017-04-24T09:52:57Z</time>
      </trkpt>
      <trkpt lat="46.03918" lon="4.55342">
        <ele>620</ele>
        <time>2017-04-24T09:52:58Z</time>
      </trkpt>
      <trkpt lat="46.03925" lon="4.55333">
        <ele>625</ele>
        <time>2017-04-24T09:52:59Z</time>
      </trkpt>
      <trkpt lat="46.03932" lon="4.55324">
        <ele>625</ele>
        <time>2017-04-24T09:53:00Z</time>
      </trkpt>
      <trkpt lat="46.03939" lon="4.55315">
        <ele>625</ele>
        <time>2017-04-24T09:53:01Z</time>
      </trkpt>
      <trkpt lat="46.03945" lon="4.55307">
        <ele>625</ele>
        <time>2017-04-24T09:53:02Z</time>
      </trkpt>
      <trkpt lat="46.03953" lon="4.55297">
        <ele>625</ele>
        <time>2017-04-24T09:53:03Z</time>
      </trkpt>
      <trkpt lat="46.0396" lon="4.55288">
        <ele>625</ele>
        <time>2017-04-24T09:53:04Z</time>
      </trkpt>
      <trkpt lat="46.03968" lon="4.5528">
        <ele>625</ele>
        <time>2017-04-24T09:53:05Z</time>
      </trkpt>
      <trkpt lat="46.03975" lon="4.55272">
        <ele>624</ele>
        <time>2017-04-24T09:53:06Z</time>
      </trkpt>
      <trkpt lat="46.03983" lon="4.55266">
        <ele>624</ele>
        <time>2017-04-24T09:53:07Z</time>
      </trkpt>
      <trkpt lat="46.0399" lon="4.55259">
        <ele>624</ele>
        <time>2017-04-24T09:53:08Z</time>
      </trkpt>
      <trkpt lat="46.03997" lon="4.55252">
        <ele>623</ele>
        <time>2017-04-24T09:53:09Z</time>
      </trkpt>
      <trkpt lat="46.04005" lon="4.55238">
        <ele>627</ele>
        <time>2017-04-24T09:53:10Z</time>
      </trkpt>
      <trkpt lat="46.04012" lon="4.55233">
        <ele>628</ele>
        <time>2017-04-24T09:53:11Z</time>
      </trkpt>
      <trkpt lat="46.0402" lon="4.55227">
        <ele>630</ele>
        <time>2017-04-24T09:53:12Z</time>
      </trkpt>
      <trkpt lat="46.04028" lon="4.55224">
        <ele>630</ele>
        <time>2017-04-24T09:53:13Z</time>
      </trkpt>
      <trkpt lat="46.04036" lon="4.55224">
        <ele>629</ele>
        <time>2017-04-24T09:53:14Z</time>
      </trkpt>
      <trkpt lat="46.04043" lon="4.55225">
        <ele>629</ele>
        <time>2017-04-24T09:53:15Z</time>
      </trkpt>
      <trkpt lat="46.0405" lon="4.55224">
        <ele>628</ele>
        <time>2017-04-24T09:53:16Z</time>
      </trkpt>
      <trkpt lat="46.04055" lon="4.55223">
        <ele>628</ele>
        <time>2017-04-24T09:53:17Z</time>
      </trkpt>
      <trkpt lat="46.04063" lon="4.55222">
        <ele>627</ele>
        <time>2017-04-24T09:53:18Z</time>
      </trkpt>
      <trkpt lat="46.04069" lon="4.55221">
        <ele>626</ele>
        <time>2017-04-24T09:53:19Z</time>
      </trkpt>
      <trkpt lat="46.04076" lon="4.55221">
        <ele>626</ele>
        <time>2017-04-24T09:53:20Z</time>
      </trkpt>
      <trkpt lat="46.04083" lon="4.55222">
        <ele>625</ele>
        <time>2017-04-24T09:53:21Z</time>
      </trkpt>
      <trkpt lat="46.04089" lon="4.55224">
        <ele>621</ele>
        <time>2017-04-24T09:53:22Z</time>
      </trkpt>
      <trkpt lat="46.04095" lon="4.55224">
        <ele>621</ele>
        <time>2017-04-24T09:53:23Z</time>
      </trkpt>
      <trkpt lat="46.04101" lon="4.55225">
        <ele>622</ele>
        <time>2017-04-24T09:53:24Z</time>
      </trkpt>
      <trkpt lat="46.04107" lon="4.55226">
        <ele>622</ele>
        <time>2017-04-24T09:53:25Z</time>
      </trkpt>
      <trkpt lat="46.04116" lon="4.5523">
        <ele>622</ele>
        <time>2017-04-24T09:53:26Z</time>
      </trkpt>
      <trkpt lat="46.04123" lon="4.55234">
        <ele>622</ele>
        <time>2017-04-24T09:53:27Z</time>
      </trkpt>
      <trkpt lat="46.0413" lon="4.5524">
        <ele>622</ele>
        <time>2017-04-24T09:53:28Z</time>
      </trkpt>
      <trkpt lat="46.04136" lon="4.55246">
        <ele>621</ele>
        <time>2017-04-24T09:53:29Z</time>
      </trkpt>
      <trkpt lat="46.04143" lon="4.55252">
        <ele>605</ele>
        <time>2017-04-24T09:53:30Z</time>
      </trkpt>
      <trkpt lat="46.0415" lon="4.55258">
        <ele>606</ele>
        <time>2017-04-24T09:53:31Z</time>
      </trkpt>
      <trkpt lat="46.04156" lon="4.55263">
        <ele>606</ele>
        <time>2017-04-24T09:53:32Z</time>
      </trkpt>
      <trkpt lat="46.04162" lon="4.55267">
        <ele>605</ele>
        <time>2017-04-24T09:53:33Z</time>
      </trkpt>
      <trkpt lat="46.04168" lon="4.55272">
        <ele>607</ele>
        <time>2017-04-24T09:53:34Z</time>
      </trkpt>
      <trkpt lat="46.04175" lon="4.55277">
        <ele>606</ele>
        <time>2017-04-24T09:53:35Z</time>
      </trkpt>
      <trkpt lat="46.04181" lon="4.55282">
        <ele>605</ele>
        <time>2017-04-24T09:53:36Z</time>
      </trkpt>
      <trkpt lat="46.04188" lon="4.55287">
        <ele>604</ele>
        <time>2017-04-24T09:53:37Z</time>
      </trkpt>
      <trkpt lat="46.04194" lon="4.55291">
        <ele>603</ele>
        <time>2017-04-24T09:53:38Z</time>
      </trkpt>
      <trkpt lat="46.04202" lon="4.55296">
        <ele>603</ele>
        <time>2017-04-24T09:53:39Z</time>
      </trkpt>
      <trkpt lat="46.04208" lon="4.55301">
        <ele>602</ele>
        <time>2017-04-24T09:53:40Z</time>
      </trkpt>
      <trkpt lat="46.04213" lon="4.55305">
        <ele>602</ele>
        <time>2017-04-24T09:53:41Z</time>
      </trkpt>
      <trkpt lat="46.04217" lon="4.55308">
        <ele>602</ele>
        <time>2017-04-24T09:53:42Z</time>
      </trkpt>
      <trkpt lat="46.04224" lon="4.55314">
        <ele>601</ele>
        <time>2017-04-24T09:53:45Z</time>
      </trkpt>
      <trkpt lat="46.04228" lon="4.55315">
        <ele>601</ele>
        <time>2017-04-24T09:53:46Z</time>
      </trkpt>
      <trkpt lat="46.04229" lon="4.55316">
        <ele>601</ele>
        <time>2017-04-24T09:53:47Z</time>
      </trkpt>
      <trkpt lat="46.04231" lon="4.55318">
        <ele>600</ele>
        <time>2017-04-24T09:53:48Z</time>
      </trkpt>
      <trkpt lat="46.04236" lon="4.55319">
        <ele>600</ele>
        <time>2017-04-24T09:53:58Z</time>
      </trkpt>
      <trkpt lat="46.04236" lon="4.5532">
        <ele>600</ele>
        <time>2017-04-24T09:53:59Z</time>
      </trkpt>
      <trkpt lat="46.04239" lon="4.55321">
        <ele>599</ele>
        <time>2017-04-24T09:54:19Z</time>
      </trkpt>
      <trkpt lat="46.04245" lon="4.55319">
        <ele>599</ele>
        <time>2017-04-24T09:54:20Z</time>
      </trkpt>
      <trkpt lat="46.04254" lon="4.55323">
        <ele>599</ele>
        <time>2017-04-24T09:55:07Z</time>
      </trkpt>
      <trkpt lat="46.04257" lon="4.55325">
        <ele>599</ele>
        <time>2017-04-24T09:55:08Z</time>
      </trkpt>
      <trkpt lat="46.04265" lon="4.55325">
        <ele>600</ele>
        <time>2017-04-24T09:55:11Z</time>
      </trkpt>
      <trkpt lat="46.04268" lon="4.55327">
        <ele>601</ele>
        <time>2017-04-24T09:55:12Z</time>
      </trkpt>
      <trkpt lat="46.04275" lon="4.55332">
        <ele>601</ele>
        <time>2017-04-24T09:55:14Z</time>
      </trkpt>
      <trkpt lat="46.04279" lon="4.55334">
        <ele>590</ele>
        <time>2017-04-24T09:55:15Z</time>
      </trkpt>
      <trkpt lat="46.04288" lon="4.55337">
        <ele>590</ele>
        <time>2017-04-24T09:55:17Z</time>
      </trkpt>
      <trkpt lat="46.04292" lon="4.55339">
        <ele>590</ele>
        <time>2017-04-24T09:55:18Z</time>
      </trkpt>
      <trkpt lat="46.04297" lon="4.55341">
        <ele>590</ele>
        <time>2017-04-24T09:55:19Z</time>
      </trkpt>
      <trkpt lat="46.04302" lon="4.55344">
        <ele>590</ele>
        <time>2017-04-24T09:55:20Z</time>
      </trkpt>
      <trkpt lat="46.04306" lon="4.55346">
        <ele>590</ele>
        <time>2017-04-24T09:55:21Z</time>
      </trkpt>
      <trkpt lat="46.04311" lon="4.55347">
        <ele>591</ele>
        <time>2017-04-24T09:55:22Z</time>
      </trkpt>
      <trkpt lat="46.04317" lon="4.55348">
        <ele>591</ele>
        <time>2017-04-24T09:55:23Z</time>
      </trkpt>
      <trkpt lat="46.04322" lon="4.55347">
        <ele>592</ele>
        <time>2017-04-24T09:55:24Z</time>
      </trkpt>
      <trkpt lat="46.04328" lon="4.55343">
        <ele>593</ele>
        <time>2017-04-24T09:55:25Z</time>
      </trkpt>
      <trkpt lat="46.04334" lon="4.55338">
        <ele>594</ele>
        <time>2017-04-24T09:55:26Z</time>
      </trkpt>
      <trkpt lat="46.04338" lon="4.55332">
        <ele>595</ele>
        <time>2017-04-24T09:55:27Z</time>
      </trkpt>
      <trkpt lat="46.04343" lon="4.55325">
        <ele>593</ele>
        <time>2017-04-24T09:55:28Z</time>
      </trkpt>
      <trkpt lat="46.04346" lon="4.55317">
        <ele>593</ele>
        <time>2017-04-24T09:55:29Z</time>
      </trkpt>
      <trkpt lat="46.04349" lon="4.55307">
        <ele>592</ele>
        <time>2017-04-24T09:55:30Z</time>
      </trkpt>
      <trkpt lat="46.04352" lon="4.55297">
        <ele>592</ele>
        <time>2017-04-24T09:55:31Z</time>
      </trkpt>
      <trkpt lat="46.04354" lon="4.55287">
        <ele>593</ele>
        <time>2017-04-24T09:55:32Z</time>
      </trkpt>
      <trkpt lat="46.04356" lon="4.55278">
        <ele>593</ele>
        <time>2017-04-24T09:55:33Z</time>
      </trkpt>
      <trkpt lat="46.04358" lon="4.55268">
        <ele>594</ele>
        <time>2017-04-24T09:55:34Z</time>
      </trkpt>
      <trkpt lat="46.0436" lon="4.55257">
        <ele>595</ele>
        <time>2017-04-24T09:55:35Z</time>
      </trkpt>
      <trkpt lat="46.04362" lon="4.55247">
        <ele>599</ele>
        <time>2017-04-24T09:55:36Z</time>
      </trkpt>
      <trkpt lat="46.04363" lon="4.55237">
        <ele>598</ele>
        <time>2017-04-24T09:55:37Z</time>
      </trkpt>
      <trkpt lat="46.04365" lon="4.55226">
        <ele>598</ele>
        <time>2017-04-24T09:55:38Z</time>
      </trkpt>
      <trkpt lat="46.04367" lon="4.55215">
        <ele>598</ele>
        <time>2017-04-24T09:55:39Z</time>
      </trkpt>
      <trkpt lat="46.04369" lon="4.55205">
        <ele>598</ele>
        <time>2017-04-24T09:55:40Z</time>
      </trkpt>
      <trkpt lat="46.04371" lon="4.55194">
        <ele>598</ele>
        <time>2017-04-24T09:55:41Z</time>
      </trkpt>
      <trkpt lat="46.04374" lon="4.55182">
        <ele>598</ele>
        <time>2017-04-24T09:55:42Z</time>
      </trkpt>
      <trkpt lat="46.04375" lon="4.55171">
        <ele>598</ele>
        <time>2017-04-24T09:55:43Z</time>
      </trkpt>
      <trkpt lat="46.04377" lon="4.55161">
        <ele>603</ele>
        <time>2017-04-24T09:55:44Z</time>
      </trkpt>
      <trkpt lat="46.04379" lon="4.55151">
        <ele>603</ele>
        <time>2017-04-24T09:55:45Z</time>
      </trkpt>
      <trkpt lat="46.04381" lon="4.55141">
        <ele>603</ele>
        <time>2017-04-24T09:55:46Z</time>
      </trkpt>
      <trkpt lat="46.04383" lon="4.5513">
        <ele>604</ele>
        <time>2017-04-24T09:55:47Z</time>
      </trkpt>
      <trkpt lat="46.04385" lon="4.55121">
        <ele>604</ele>
        <time>2017-04-24T09:55:48Z</time>
      </trkpt>
      <trkpt lat="46.04387" lon="4.5511">
        <ele>604</ele>
        <time>2017-04-24T09:55:49Z</time>
      </trkpt>
      <trkpt lat="46.04389" lon="4.551">
        <ele>603</ele>
        <time>2017-04-24T09:55:50Z</time>
      </trkpt>
      <trkpt lat="46.04392" lon="4.5509">
        <ele>602</ele>
        <time>2017-04-24T09:55:51Z</time>
      </trkpt>
      <trkpt lat="46.04395" lon="4.55081">
        <ele>606</ele>
        <time>2017-04-24T09:55:52Z</time>
      </trkpt>
      <trkpt lat="46.04399" lon="4.55072">
        <ele>606</ele>
        <time>2017-04-24T09:55:53Z</time>
      </trkpt>
      <trkpt lat="46.04403" lon="4.55063">
        <ele>606</ele>
        <time>2017-04-24T09:55:54Z</time>
      </trkpt>
      <trkpt lat="46.04409" lon="4.55054">
        <ele>607</ele>
        <time>2017-04-24T09:55:55Z</time>
      </trkpt>
      <trkpt lat="46.04413" lon="4.55046">
        <ele>608</ele>
        <time>2017-04-24T09:55:56Z</time>
      </trkpt>
      <trkpt lat="46.04418" lon="4.55037">
        <ele>588</ele>
        <time>2017-04-24T09:55:57Z</time>
      </trkpt>
      <trkpt lat="46.04424" lon="4.55029">
        <ele>589</ele>
        <time>2017-04-24T09:55:58Z</time>
      </trkpt>
      <trkpt lat="46.04428" lon="4.5502">
        <ele>590</ele>
        <time>2017-04-24T09:55:59Z</time>
      </trkpt>
      <trkpt lat="46.04433" lon="4.55012">
        <ele>591</ele>
        <time>2017-04-24T09:56:00Z</time>
      </trkpt>
      <trkpt lat="46.04437" lon="4.55004">
        <ele>590</ele>
        <time>2017-04-24T09:56:01Z</time>
      </trkpt>
      <trkpt lat="46.04441" lon="4.54995">
        <ele>591</ele>
        <time>2017-04-24T09:56:02Z</time>
      </trkpt>
      <trkpt lat="46.04445" lon="4.54986">
        <ele>590</ele>
        <time>2017-04-24T09:56:03Z</time>
      </trkpt>
      <trkpt lat="46.04448" lon="4.54977">
        <ele>588</ele>
        <time>2017-04-24T09:56:04Z</time>
      </trkpt>
      <trkpt lat="46.0445" lon="4.54968">
        <ele>588</ele>
        <time>2017-04-24T09:56:05Z</time>
      </trkpt>
      <trkpt lat="46.04451" lon="4.54959">
        <ele>587</ele>
        <time>2017-04-24T09:56:06Z</time>
      </trkpt>
      <trkpt lat="46.04452" lon="4.5495">
        <ele>587</ele>
        <time>2017-04-24T09:56:07Z</time>
      </trkpt>
      <trkpt lat="46.04453" lon="4.54941">
        <ele>587</ele>
        <time>2017-04-24T09:56:08Z</time>
      </trkpt>
      <trkpt lat="46.04452" lon="4.54933">
        <ele>587</ele>
        <time>2017-04-24T09:56:09Z</time>
      </trkpt>
      <trkpt lat="46.04449" lon="4.54925">
        <ele>588</ele>
        <time>2017-04-24T09:56:10Z</time>
      </trkpt>
      <trkpt lat="46.04448" lon="4.54917">
        <ele>590</ele>
        <time>2017-04-24T09:56:11Z</time>
      </trkpt>
      <trkpt lat="46.04446" lon="4.54909">
        <ele>590</ele>
        <time>2017-04-24T09:56:12Z</time>
      </trkpt>
      <trkpt lat="46.04445" lon="4.54901">
        <ele>590</ele>
        <time>2017-04-24T09:56:13Z</time>
      </trkpt>
      <trkpt lat="46.04443" lon="4.54894">
        <ele>590</ele>
        <time>2017-04-24T09:56:14Z</time>
      </trkpt>
      <trkpt lat="46.04443" lon="4.54881">
        <ele>590</ele>
        <time>2017-04-24T09:56:16Z</time>
      </trkpt>
      <trkpt lat="46.04442" lon="4.54876">
        <ele>590</ele>
        <time>2017-04-24T09:56:17Z</time>
      </trkpt>
      <trkpt lat="46.04449" lon="4.54873">
        <ele>589</ele>
        <time>2017-04-24T09:56:19Z</time>
      </trkpt>
      <trkpt lat="46.04453" lon="4.54869">
        <ele>589</ele>
        <time>2017-04-24T09:56:20Z</time>
      </trkpt>
      <trkpt lat="46.04457" lon="4.54864">
        <ele>588</ele>
        <time>2017-04-24T09:56:21Z</time>
      </trkpt>
      <trkpt lat="46.04461" lon="4.54857">
        <ele>588</ele>
        <time>2017-04-24T09:56:22Z</time>
      </trkpt>
      <trkpt lat="46.04469" lon="4.54852">
        <ele>586</ele>
        <time>2017-04-24T09:56:23Z</time>
      </trkpt>
      <trkpt lat="46.04476" lon="4.54846">
        <ele>584</ele>
        <time>2017-04-24T09:56:24Z</time>
      </trkpt>
      <trkpt lat="46.04483" lon="4.54838">
        <ele>582</ele>
        <time>2017-04-24T09:56:25Z</time>
      </trkpt>
      <trkpt lat="46.04489" lon="4.5483">
        <ele>585</ele>
        <time>2017-04-24T09:56:26Z</time>
      </trkpt>
      <trkpt lat="46.04497" lon="4.54809">
        <ele>590</ele>
        <time>2017-04-24T09:56:27Z</time>
      </trkpt>
      <trkpt lat="46.04502" lon="4.548">
        <ele>580</ele>
        <time>2017-04-24T09:56:28Z</time>
      </trkpt>
      <trkpt lat="46.04505" lon="4.54789">
        <ele>582</ele>
        <time>2017-04-24T09:56:29Z</time>
      </trkpt>
      <trkpt lat="46.04508" lon="4.54778">
        <ele>584</ele>
        <time>2017-04-24T09:56:30Z</time>
      </trkpt>
      <trkpt lat="46.04511" lon="4.54767">
        <ele>586</ele>
        <time>2017-04-24T09:56:31Z</time>
      </trkpt>
      <trkpt lat="46.04514" lon="4.54754">
        <ele>588</ele>
        <time>2017-04-24T09:56:32Z</time>
      </trkpt>
      <trkpt lat="46.04517" lon="4.54739">
        <ele>595</ele>
        <time>2017-04-24T09:56:33Z</time>
      </trkpt>
      <trkpt lat="46.04521" lon="4.5473">
        <ele>596</ele>
        <time>2017-04-24T09:56:34Z</time>
      </trkpt>
      <trkpt lat="46.04524" lon="4.54721">
        <ele>597</ele>
        <time>2017-04-24T09:56:35Z</time>
      </trkpt>
      <trkpt lat="46.04528" lon="4.54714">
        <ele>597</ele>
        <time>2017-04-24T09:56:36Z</time>
      </trkpt>
      <trkpt lat="46.04533" lon="4.54707">
        <ele>598</ele>
        <time>2017-04-24T09:56:37Z</time>
      </trkpt>
      <trkpt lat="46.04538" lon="4.54702">
        <ele>598</ele>
        <time>2017-04-24T09:56:38Z</time>
      </trkpt>
      <trkpt lat="46.04543" lon="4.54698">
        <ele>598</ele>
        <time>2017-04-24T09:56:39Z</time>
      </trkpt>
      <trkpt lat="46.04548" lon="4.54695">
        <ele>598</ele>
        <time>2017-04-24T09:56:40Z</time>
      </trkpt>
      <trkpt lat="46.04553" lon="4.54695">
        <ele>598</ele>
        <time>2017-04-24T09:56:41Z</time>
      </trkpt>
      <trkpt lat="46.0456" lon="4.547">
        <ele>597</ele>
        <time>2017-04-24T09:56:43Z</time>
      </trkpt>
      <trkpt lat="46.04562" lon="4.54703">
        <ele>596</ele>
        <time>2017-04-24T09:56:44Z</time>
      </trkpt>
      <trkpt lat="46.04568" lon="4.54713">
        <ele>595</ele>
        <time>2017-04-24T09:56:47Z</time>
      </trkpt>
      <trkpt lat="46.0457" lon="4.54713">
        <ele>595</ele>
        <time>2017-04-24T09:56:48Z</time>
      </trkpt>
      <trkpt lat="46.04576" lon="4.54722">
        <ele>593</ele>
        <time>2017-04-24T09:56:53Z</time>
      </trkpt>
      <trkpt lat="46.04579" lon="4.54723">
        <ele>593</ele>
        <time>2017-04-24T09:56:54Z</time>
      </trkpt>
      <trkpt lat="46.04583" lon="4.54732">
        <ele>590</ele>
        <time>2017-04-24T09:56:59Z</time>
      </trkpt>
      <trkpt lat="46.04584" lon="4.54734">
        <ele>594</ele>
        <time>2017-04-24T09:57:00Z</time>
      </trkpt>
      <trkpt lat="46.04589" lon="4.54745">
        <ele>590</ele>
        <time>2017-04-24T09:57:04Z</time>
      </trkpt>
      <trkpt lat="46.04591" lon="4.54748">
        <ele>590</ele>
        <time>2017-04-24T09:57:05Z</time>
      </trkpt>
      <trkpt lat="46.04595" lon="4.54757">
        <ele>585</ele>
        <time>2017-04-24T09:57:08Z</time>
      </trkpt>
      <trkpt lat="46.04596" lon="4.54759">
        <ele>585</ele>
        <time>2017-04-24T09:57:09Z</time>
      </trkpt>
      <trkpt lat="46.04601" lon="4.54768">
        <ele>586</ele>
        <time>2017-04-24T09:57:13Z</time>
      </trkpt>
      <trkpt lat="46.04602" lon="4.5477">
        <ele>586</ele>
        <time>2017-04-24T09:57:14Z</time>
      </trkpt>
      <trkpt lat="46.04607" lon="4.54779">
        <ele>586</ele>
        <time>2017-04-24T09:57:19Z</time>
      </trkpt>
      <trkpt lat="46.04608" lon="4.54781">
        <ele>586</ele>
        <time>2017-04-24T09:57:20Z</time>
      </trkpt>
      <trkpt lat="46.04614" lon="4.5479">
        <ele>586</ele>
        <time>2017-04-24T09:57:25Z</time>
      </trkpt>
      <trkpt lat="46.04615" lon="4.54792">
        <ele>586</ele>
        <time>2017-04-24T09:57:26Z</time>
      </trkpt>
      <trkpt lat="46.04618" lon="4.54802">
        <ele>585</ele>
        <time>2017-04-24T09:57:31Z</time>
      </trkpt>
      <trkpt lat="46.04618" lon="4.54806">
        <ele>584</ele>
        <time>2017-04-24T09:57:32Z</time>
      </trkpt>
      <trkpt lat="46.04626" lon="4.54812">
        <ele>585</ele>
        <time>2017-04-24T09:57:37Z</time>
      </trkpt>
      <trkpt lat="46.04632" lon="4.54813">
        <ele>586</ele>
        <time>2017-04-24T09:57:38Z</time>
      </trkpt>
      <trkpt lat="46.04638" lon="4.5482">
        <ele>586</ele>
        <time>2017-04-24T09:57:41Z</time>
      </trkpt>
      <trkpt lat="46.04641" lon="4.54822">
        <ele>586</ele>
        <time>2017-04-24T09:57:42Z</time>
      </trkpt>
      <trkpt lat="46.04648" lon="4.54824">
        <ele>587</ele>
        <time>2017-04-24T09:57:45Z</time>
      </trkpt>
      <trkpt lat="46.0465" lon="4.54825">
        <ele>587</ele>
        <time>2017-04-24T09:57:46Z</time>
      </trkpt>
      <trkpt lat="46.04657" lon="4.5483">
        <ele>588</ele>
        <time>2017-04-24T09:57:51Z</time>
      </trkpt>
      <trkpt lat="46.04658" lon="4.54832">
        <ele>588</ele>
        <time>2017-04-24T09:57:52Z</time>
      </trkpt>
      <trkpt lat="46.04665" lon="4.54832">
        <ele>588</ele>
        <time>2017-04-24T09:58:31Z</time>
      </trkpt>
      <trkpt lat="46.04672" lon="4.54833">
        <ele>593</ele>
        <time>2017-04-24T09:58:32Z</time>
      </trkpt>
      <trkpt lat="46.04677" lon="4.54835">
        <ele>590</ele>
        <time>2017-04-24T09:58:35Z</time>
      </trkpt>
      <trkpt lat="46.04682" lon="4.54841">
        <ele>591</ele>
        <time>2017-04-24T09:58:38Z</time>
      </trkpt>
      <trkpt lat="46.04686" lon="4.54852">
        <ele>592</ele>
        <time>2017-04-24T09:58:42Z</time>
      </trkpt>
      <trkpt lat="46.04686" lon="4.54856">
        <ele>592</ele>
        <time>2017-04-24T09:58:43Z</time>
      </trkpt>
      <trkpt lat="46.0469" lon="4.54866">
        <ele>591</ele>
        <time>2017-04-24T09:58:46Z</time>
      </trkpt>
      <trkpt lat="46.04691" lon="4.54868">
        <ele>591</ele>
        <time>2017-04-24T09:58:47Z</time>
      </trkpt>
      <trkpt lat="46.04696" lon="4.54879">
        <ele>591</ele>
        <time>2017-04-24T09:58:51Z</time>
      </trkpt>
      <trkpt lat="46.04697" lon="4.54881">
        <ele>591</ele>
        <time>2017-04-24T09:58:52Z</time>
      </trkpt>
      <trkpt lat="46.04703" lon="4.5489">
        <ele>591</ele>
        <time>2017-04-24T09:58:56Z</time>
      </trkpt>
      <trkpt lat="46.04704" lon="4.54892">
        <ele>591</ele>
        <time>2017-04-24T09:58:57Z</time>
      </trkpt>
      <trkpt lat="46.0471" lon="4.54902">
        <ele>592</ele>
        <time>2017-04-24T09:59:01Z</time>
      </trkpt>
      <trkpt lat="46.0471" lon="4.54905">
        <ele>592</ele>
        <time>2017-04-24T09:59:02Z</time>
      </trkpt>
      <trkpt lat="46.04715" lon="4.54913">
        <ele>593</ele>
        <time>2017-04-24T09:59:06Z</time>
      </trkpt>
      <trkpt lat="46.04717" lon="4.54915">
        <ele>593</ele>
        <time>2017-04-24T09:59:07Z</time>
      </trkpt>
      <trkpt lat="46.04723" lon="4.54923">
        <ele>584</ele>
        <time>2017-04-24T09:59:11Z</time>
      </trkpt>
      <trkpt lat="46.04725" lon="4.54925">
        <ele>585</ele>
        <time>2017-04-24T09:59:12Z</time>
      </trkpt>
      <trkpt lat="46.04731" lon="4.54931">
        <ele>586</ele>
        <time>2017-04-24T09:59:15Z</time>
      </trkpt>
      <trkpt lat="46.04732" lon="4.54933">
        <ele>586</ele>
        <time>2017-04-24T09:59:16Z</time>
      </trkpt>
      <trkpt lat="46.04735" lon="4.54941">
        <ele>584</ele>
        <time>2017-04-24T09:59:19Z</time>
      </trkpt>
      <trkpt lat="46.04737" lon="4.54946">
        <ele>583</ele>
        <time>2017-04-24T09:59:20Z</time>
      </trkpt>
      <trkpt lat="46.04743" lon="4.54953">
        <ele>582</ele>
        <time>2017-04-24T09:59:23Z</time>
      </trkpt>
      <trkpt lat="46.04745" lon="4.54956">
        <ele>582</ele>
        <time>2017-04-24T09:59:24Z</time>
      </trkpt>
      <trkpt lat="46.04748" lon="4.54966">
        <ele>580</ele>
        <time>2017-04-24T09:59:28Z</time>
      </trkpt>
      <trkpt lat="46.04749" lon="4.54968">
        <ele>580</ele>
        <time>2017-04-24T09:59:29Z</time>
      </trkpt>
      <trkpt lat="46.04756" lon="4.54974">
        <ele>594</ele>
        <time>2017-04-24T09:59:34Z</time>
      </trkpt>
      <trkpt lat="46.04756" lon="4.54976">
        <ele>593</ele>
        <time>2017-04-24T09:59:35Z</time>
      </trkpt>
      <trkpt lat="46.04764" lon="4.54982">
        <ele>593</ele>
        <time>2017-04-24T09:59:40Z</time>
      </trkpt>
      <trkpt lat="46.04765" lon="4.54983">
        <ele>593</ele>
        <time>2017-04-24T09:59:41Z</time>
      </trkpt>
      <trkpt lat="46.04772" lon="4.5499">
        <ele>593</ele>
        <time>2017-04-24T09:59:47Z</time>
      </trkpt>
      <trkpt lat="46.04773" lon="4.54993">
        <ele>593</ele>
        <time>2017-04-24T09:59:48Z</time>
      </trkpt>
      <trkpt lat="46.04779" lon="4.55">
        <ele>595</ele>
        <time>2017-04-24T09:59:52Z</time>
      </trkpt>
      <trkpt lat="46.0478" lon="4.55001">
        <ele>584</ele>
        <time>2017-04-24T09:59:53Z</time>
      </trkpt>
      <trkpt lat="46.04786" lon="4.55009">
        <ele>585</ele>
        <time>2017-04-24T09:59:58Z</time>
      </trkpt>
      <trkpt lat="46.04787" lon="4.5501">
        <ele>585</ele>
        <time>2017-04-24T09:59:59Z</time>
      </trkpt>
      <trkpt lat="46.04794" lon="4.55018">
        <ele>586</ele>
        <time>2017-04-24T10:00:05Z</time>
      </trkpt>
      <trkpt lat="46.04797" lon="4.55019">
        <ele>586</ele>
        <time>2017-04-24T10:00:06Z</time>
      </trkpt>
      <trkpt lat="46.04804" lon="4.55022">
        <ele>587</ele>
        <time>2017-04-24T10:00:08Z</time>
      </trkpt>
      <trkpt lat="46.04807" lon="4.55025">
        <ele>587</ele>
        <time>2017-04-24T10:00:09Z</time>
      </trkpt>
      <trkpt lat="46.04812" lon="4.5503">
        <ele>588</ele>
        <time>2017-04-24T10:00:11Z</time>
      </trkpt>
      <trkpt lat="46.04816" lon="4.55034">
        <ele>587</ele>
        <time>2017-04-24T10:00:12Z</time>
      </trkpt>
      <trkpt lat="46.04824" lon="4.55039">
        <ele>588</ele>
        <time>2017-04-24T10:00:14Z</time>
      </trkpt>
      <trkpt lat="46.04826" lon="4.55042">
        <ele>587</ele>
        <time>2017-04-24T10:00:15Z</time>
      </trkpt>
      <trkpt lat="46.04833" lon="4.55048">
        <ele>587</ele>
        <time>2017-04-24T10:00:18Z</time>
      </trkpt>
      <trkpt lat="46.04834" lon="4.5505">
        <ele>597</ele>
        <time>2017-04-24T10:00:19Z</time>
      </trkpt>
      <trkpt lat="46.0484" lon="4.55057">
        <ele>597</ele>
        <time>2017-04-24T10:00:23Z</time>
      </trkpt>
      <trkpt lat="46.04841" lon="4.55058">
        <ele>596</ele>
        <time>2017-04-24T10:00:24Z</time>
      </trkpt>
      <trkpt lat="46.04849" lon="4.55064">
        <ele>596</ele>
        <time>2017-04-24T10:00:28Z</time>
      </trkpt>
      <trkpt lat="46.04851" lon="4.55065">
        <ele>596</ele>
        <time>2017-04-24T10:00:29Z</time>
      </trkpt>
      <trkpt lat="46.04858" lon="4.55067">
        <ele>597</ele>
        <time>2017-04-24T10:00:32Z</time>
      </trkpt>
      <trkpt lat="46.0486" lon="4.55068">
        <ele>597</ele>
        <time>2017-04-24T10:00:33Z</time>
      </trkpt>
      <trkpt lat="46.04869" lon="4.55066">
        <ele>598</ele>
        <time>2017-04-24T10:00:38Z</time>
      </trkpt>
      <trkpt lat="46.0487" lon="4.55066">
        <ele>598</ele>
        <time>2017-04-24T10:00:39Z</time>
      </trkpt>
      <trkpt lat="46.04877" lon="4.55061">
        <ele>599</ele>
        <time>2017-04-24T10:00:46Z</time>
      </trkpt>
      <trkpt lat="46.04879" lon="4.55059">
        <ele>599</ele>
        <time>2017-04-24T10:00:47Z</time>
      </trkpt>
      <trkpt lat="46.04885" lon="4.55051">
        <ele>600</ele>
        <time>2017-04-24T10:00:51Z</time>
      </trkpt>
      <trkpt lat="46.04888" lon="4.55049">
        <ele>600</ele>
        <time>2017-04-24T10:00:52Z</time>
      </trkpt>
      <trkpt lat="46.04895" lon="4.55042">
        <ele>601</ele>
        <time>2017-04-24T10:00:55Z</time>
      </trkpt>
      <trkpt lat="46.04897" lon="4.55039">
        <ele>601</ele>
        <time>2017-04-24T10:00:56Z</time>
      </trkpt>
      <trkpt lat="46.04902" lon="4.5503">
        <ele>602</ele>
        <time>2017-04-24T10:01:00Z</time>
      </trkpt>
      <trkpt lat="46.04903" lon="4.55028">
        <ele>602</ele>
        <time>2017-04-24T10:01:01Z</time>
      </trkpt>
      <trkpt lat="46.04906" lon="4.55017">
        <ele>603</ele>
        <time>2017-04-24T10:01:06Z</time>
      </trkpt>
      <trkpt lat="46.04907" lon="4.55015">
        <ele>603</ele>
        <time>2017-04-24T10:01:07Z</time>
      </trkpt>
      <trkpt lat="46.04912" lon="4.55007">
        <ele>604</ele>
        <time>2017-04-24T10:01:12Z</time>
      </trkpt>
      <trkpt lat="46.04913" lon="4.55004">
        <ele>605</ele>
        <time>2017-04-24T10:01:13Z</time>
      </trkpt>
      <trkpt lat="46.04916" lon="4.54993">
        <ele>607</ele>
        <time>2017-04-24T10:01:17Z</time>
      </trkpt>
      <trkpt lat="46.04916" lon="4.54991">
        <ele>608</ele>
        <time>2017-04-24T10:01:18Z</time>
      </trkpt>
      <trkpt lat="46.04919" lon="4.5498">
        <ele>603</ele>
        <time>2017-04-24T10:01:23Z</time>
      </trkpt>
      <trkpt lat="46.0492" lon="4.54978">
        <ele>602</ele>
        <time>2017-04-24T10:01:24Z</time>
      </trkpt>
      <trkpt lat="46.04923" lon="4.54966">
        <ele>602</ele>
        <time>2017-04-24T10:01:30Z</time>
      </trkpt>
      <trkpt lat="46.04923" lon="4.54964">
        <ele>602</ele>
        <time>2017-04-24T10:01:31Z</time>
      </trkpt>
      <trkpt lat="46.04926" lon="4.54954">
        <ele>603</ele>
        <time>2017-04-24T10:01:35Z</time>
      </trkpt>
      <trkpt lat="46.04926" lon="4.54952">
        <ele>603</ele>
        <time>2017-04-24T10:01:36Z</time>
      </trkpt>
      <trkpt lat="46.0493" lon="4.54941">
        <ele>605</ele>
        <time>2017-04-24T10:01:42Z</time>
      </trkpt>
      <trkpt lat="46.0493" lon="4.54939">
        <ele>605</ele>
        <time>2017-04-24T10:01:43Z</time>
      </trkpt>
      <trkpt lat="46.0493" lon="4.54928">
        <ele>608</ele>
        <time>2017-04-24T10:01:49Z</time>
      </trkpt>
      <trkpt lat="46.04931" lon="4.54926">
        <ele>608</ele>
        <time>2017-04-24T10:01:50Z</time>
      </trkpt>
      <trkpt lat="46.04934" lon="4.54915">
        <ele>614</ele>
        <time>2017-04-24T10:01:54Z</time>
      </trkpt>
      <trkpt lat="46.04935" lon="4.54913">
        <ele>614</ele>
        <time>2017-04-24T10:01:55Z</time>
      </trkpt>
      <trkpt lat="46.0494" lon="4.54904">
        <ele>613</ele>
        <time>2017-04-24T10:02:00Z</time>
      </trkpt>
      <trkpt lat="46.04941" lon="4.54902">
        <ele>613</ele>
        <time>2017-04-24T10:02:01Z</time>
      </trkpt>
      <trkpt lat="46.04947" lon="4.54892">
        <ele>612</ele>
        <time>2017-04-24T10:02:07Z</time>
      </trkpt>
      <trkpt lat="46.04948" lon="4.54891">
        <ele>612</ele>
        <time>2017-04-24T10:02:08Z</time>
      </trkpt>
      <trkpt lat="46.04952" lon="4.54881">
        <ele>612</ele>
        <time>2017-04-24T10:02:13Z</time>
      </trkpt>
      <trkpt lat="46.04952" lon="4.54878">
        <ele>612</ele>
        <time>2017-04-24T10:02:14Z</time>
      </trkpt>
      <trkpt lat="46.04959" lon="4.54873">
        <ele>612</ele>
        <time>2017-04-24T10:02:19Z</time>
      </trkpt>
      <trkpt lat="46.0496" lon="4.54871">
        <ele>612</ele>
        <time>2017-04-24T10:02:20Z</time>
      </trkpt>
      <trkpt lat="46.04966" lon="4.54861">
        <ele>612</ele>
        <time>2017-04-24T10:02:26Z</time>
      </trkpt>
      <trkpt lat="46.04968" lon="4.54859">
        <ele>611</ele>
        <time>2017-04-24T10:02:27Z</time>
      </trkpt>
      <trkpt lat="46.04974" lon="4.54852">
        <ele>611</ele>
        <time>2017-04-24T10:02:33Z</time>
      </trkpt>
      <trkpt lat="46.04974" lon="4.54849">
        <ele>610</ele>
        <time>2017-04-24T10:02:34Z</time>
      </trkpt>
      <trkpt lat="46.0498" lon="4.54841">
        <ele>609</ele>
        <time>2017-04-24T10:02:39Z</time>
      </trkpt>
      <trkpt lat="46.04981" lon="4.54839">
        <ele>609</ele>
        <time>2017-04-24T10:02:40Z</time>
      </trkpt>
      <trkpt lat="46.04985" lon="4.5483">
        <ele>614</ele>
        <time>2017-04-24T10:02:45Z</time>
      </trkpt>
      <trkpt lat="46.04986" lon="4.54825">
        <ele>615</ele>
        <time>2017-04-24T10:02:46Z</time>
      </trkpt>
      <trkpt lat="46.04989" lon="4.54815">
        <ele>616</ele>
        <time>2017-04-24T10:02:49Z</time>
      </trkpt>
      <trkpt lat="46.04991" lon="4.5481">
        <ele>617</ele>
        <time>2017-04-24T10:02:50Z</time>
      </trkpt>
      <trkpt lat="46.04994" lon="4.54801">
        <ele>619</ele>
        <time>2017-04-24T10:02:53Z</time>
      </trkpt>
      <trkpt lat="46.04995" lon="4.54798">
        <ele>619</ele>
        <time>2017-04-24T10:02:54Z</time>
      </trkpt>
      <trkpt lat="46.04998" lon="4.54786">
        <ele>620</ele>
        <time>2017-04-24T10:02:59Z</time>
      </trkpt>
      <trkpt lat="46.04998" lon="4.54783">
        <ele>620</ele>
        <time>2017-04-24T10:03:00Z</time>
      </trkpt>
      <trkpt lat="46.05001" lon="4.54771">
        <ele>603</ele>
        <time>2017-04-24T10:03:05Z</time>
      </trkpt>
      <trkpt lat="46.05002" lon="4.54769">
        <ele>603</ele>
        <time>2017-04-24T10:03:06Z</time>
      </trkpt>
      <trkpt lat="46.05002" lon="4.54756">
        <ele>609</ele>
        <time>2017-04-24T10:03:11Z</time>
      </trkpt>
      <trkpt lat="46.05002" lon="4.54754">
        <ele>611</ele>
        <time>2017-04-24T10:03:12Z</time>
      </trkpt>
      <trkpt lat="46.05003" lon="4.54741">
        <ele>609</ele>
        <time>2017-04-24T10:03:16Z</time>
      </trkpt>
      <trkpt lat="46.05003" lon="4.54738">
        <ele>608</ele>
        <time>2017-04-24T10:03:17Z</time>
      </trkpt>
      <trkpt lat="46.05002" lon="4.54726">
        <ele>606</ele>
        <time>2017-04-24T10:03:22Z</time>
      </trkpt>
      <trkpt lat="46.05002" lon="4.54723">
        <ele>605</ele>
        <time>2017-04-24T10:03:23Z</time>
      </trkpt>
      <trkpt lat="46.05001" lon="4.54712">
        <ele>605</ele>
        <time>2017-04-24T10:03:27Z</time>
      </trkpt>
      <trkpt lat="46.05" lon="4.54709">
        <ele>605</ele>
        <time>2017-04-24T10:03:28Z</time>
      </trkpt>
      <trkpt lat="46.05" lon="4.54698">
        <ele>630</ele>
        <time>2017-04-24T10:03:32Z</time>
      </trkpt>
      <trkpt lat="46.04999" lon="4.54695">
        <ele>630</ele>
        <time>2017-04-24T10:03:33Z</time>
      </trkpt>
      <trkpt lat="46.04997" lon="4.54684">
        <ele>629</ele>
        <time>2017-04-24T10:03:37Z</time>
      </trkpt>
      <trkpt lat="46.04997" lon="4.54681">
        <ele>629</ele>
        <time>2017-04-24T10:03:38Z</time>
      </trkpt>
      <trkpt lat="46.04996" lon="4.54673">
        <ele>626</ele>
        <time>2017-04-24T10:03:41Z</time>
      </trkpt>
      <trkpt lat="46.04996" lon="4.54666">
        <ele>626</ele>
        <time>2017-04-24T10:03:42Z</time>
      </trkpt>
      <trkpt lat="46.04994" lon="4.54653">
        <ele>631</ele>
        <time>2017-04-24T10:03:45Z</time>
      </trkpt>
      <trkpt lat="46.04992" lon="4.54645">
        <ele>634</ele>
        <time>2017-04-24T10:03:46Z</time>
      </trkpt>
      <trkpt lat="46.04989" lon="4.54634">
        <ele>636</ele>
        <time>2017-04-24T10:03:48Z</time>
      </trkpt>
      <trkpt lat="46.04988" lon="4.5463">
        <ele>636</ele>
        <time>2017-04-24T10:03:49Z</time>
      </trkpt>
      <trkpt lat="46.04989" lon="4.54619">
        <ele>636</ele>
        <time>2017-04-24T10:03:52Z</time>
      </trkpt>
      <trkpt lat="46.04988" lon="4.54615">
        <ele>636</ele>
        <time>2017-04-24T10:03:53Z</time>
      </trkpt>
      <trkpt lat="46.04985" lon="4.54606">
        <ele>636</ele>
        <time>2017-04-24T10:03:56Z</time>
      </trkpt>
      <trkpt lat="46.04984" lon="4.54603">
        <ele>635</ele>
        <time>2017-04-24T10:03:57Z</time>
      </trkpt>
      <trkpt lat="46.04983" lon="4.5459">
        <ele>634</ele>
        <time>2017-04-24T10:04:02Z</time>
      </trkpt>
      <trkpt lat="46.04982" lon="4.54588">
        <ele>634</ele>
        <time>2017-04-24T10:04:03Z</time>
      </trkpt>
      <trkpt lat="46.04979" lon="4.54578">
        <ele>633</ele>
        <time>2017-04-24T10:04:08Z</time>
      </trkpt>
      <trkpt lat="46.04979" lon="4.54575">
        <ele>634</ele>
        <time>2017-04-24T10:04:09Z</time>
      </trkpt>
      <trkpt lat="46.04976" lon="4.54564">
        <ele>635</ele>
        <time>2017-04-24T10:04:13Z</time>
      </trkpt>
      <trkpt lat="46.04977" lon="4.54559">
        <ele>635</ele>
        <time>2017-04-24T10:04:14Z</time>
      </trkpt>
      <trkpt lat="46.04973" lon="4.54549">
        <ele>636</ele>
        <time>2017-04-24T10:04:18Z</time>
      </trkpt>
      <trkpt lat="46.04973" lon="4.54546">
        <ele>636</ele>
        <time>2017-04-24T10:04:19Z</time>
      </trkpt>
      <trkpt lat="46.04969" lon="4.54535">
        <ele>637</ele>
        <time>2017-04-24T10:04:24Z</time>
      </trkpt>
      <trkpt lat="46.04968" lon="4.54533">
        <ele>637</ele>
        <time>2017-04-24T10:04:25Z</time>
      </trkpt>
      <trkpt lat="46.04963" lon="4.54523">
        <ele>638</ele>
        <time>2017-04-24T10:04:31Z</time>
      </trkpt>
      <trkpt lat="46.04963" lon="4.54521">
        <ele>638</ele>
        <time>2017-04-24T10:04:32Z</time>
      </trkpt>
      <trkpt lat="46.04959" lon="4.54511">
        <ele>639</ele>
        <time>2017-04-24T10:04:37Z</time>
      </trkpt>
      <trkpt lat="46.04958" lon="4.54508">
        <ele>639</ele>
        <time>2017-04-24T10:04:38Z</time>
      </trkpt>
      <trkpt lat="46.04956" lon="4.54496">
        <ele>633</ele>
        <time>2017-04-24T10:04:43Z</time>
      </trkpt>
      <trkpt lat="46.04955" lon="4.54494">
        <ele>633</ele>
        <time>2017-04-24T10:04:44Z</time>
      </trkpt>
      <trkpt lat="46.04952" lon="4.54482">
        <ele>633</ele>
        <time>2017-04-24T10:04:50Z</time>
      </trkpt>
      <trkpt lat="46.04953" lon="4.54479">
        <ele>633</ele>
        <time>2017-04-24T10:04:51Z</time>
      </trkpt>
      <trkpt lat="46.04954" lon="4.54469">
        <ele>631</ele>
        <time>2017-04-24T10:04:55Z</time>
      </trkpt>
      <trkpt lat="46.04954" lon="4.54466">
        <ele>631</ele>
        <time>2017-04-24T10:04:56Z</time>
      </trkpt>
      <trkpt lat="46.04954" lon="4.54454">
        <ele>630</ele>
        <time>2017-04-24T10:05:00Z</time>
      </trkpt>
      <trkpt lat="46.04954" lon="4.54451">
        <ele>630</ele>
        <time>2017-04-24T10:05:01Z</time>
      </trkpt>
      <trkpt lat="46.04952" lon="4.5444">
        <ele>630</ele>
        <time>2017-04-24T10:05:06Z</time>
      </trkpt>
      <trkpt lat="46.04951" lon="4.54439">
        <ele>630</ele>
        <time>2017-04-24T10:05:07Z</time>
      </trkpt>
      <trkpt lat="46.04945" lon="4.54431">
        <ele>632</ele>
        <time>2017-04-24T10:05:13Z</time>
      </trkpt>
      <trkpt lat="46.04944" lon="4.5443">
        <ele>632</ele>
        <time>2017-04-24T10:05:14Z</time>
      </trkpt>
      <trkpt lat="46.04938" lon="4.54422">
        <ele>634</ele>
        <time>2017-04-24T10:05:20Z</time>
      </trkpt>
      <trkpt lat="46.04938" lon="4.54421">
        <ele>634</ele>
        <time>2017-04-24T10:05:21Z</time>
      </trkpt>
      <trkpt lat="46.04933" lon="4.54413">
        <ele>632</ele>
        <time>2017-04-24T10:05:26Z</time>
      </trkpt>
      <trkpt lat="46.04931" lon="4.5441">
        <ele>633</ele>
        <time>2017-04-24T10:05:27Z</time>
      </trkpt>
      <trkpt lat="46.04927" lon="4.544">
        <ele>631</ele>
        <time>2017-04-24T10:05:32Z</time>
      </trkpt>
      <trkpt lat="46.04926" lon="4.54398">
        <ele>631</ele>
        <time>2017-04-24T10:05:33Z</time>
      </trkpt>
      <trkpt lat="46.0492" lon="4.5439">
        <ele>630</ele>
        <time>2017-04-24T10:05:38Z</time>
      </trkpt>
      <trkpt lat="46.04919" lon="4.54386">
        <ele>629</ele>
        <time>2017-04-24T10:05:39Z</time>
      </trkpt>
      <trkpt lat="46.04915" lon="4.54375">
        <ele>652</ele>
        <time>2017-04-24T10:05:44Z</time>
      </trkpt>
      <trkpt lat="46.04916" lon="4.54373">
        <ele>652</ele>
        <time>2017-04-24T10:05:45Z</time>
      </trkpt>
      <trkpt lat="46.04917" lon="4.54362">
        <ele>629</ele>
        <time>2017-04-24T10:05:51Z</time>
      </trkpt>
      <trkpt lat="46.04916" lon="4.54359">
        <ele>650</ele>
        <time>2017-04-24T10:05:52Z</time>
      </trkpt>
      <trkpt lat="46.04915" lon="4.54348">
        <ele>647</ele>
        <time>2017-04-24T10:05:57Z</time>
      </trkpt>
      <trkpt lat="46.04913" lon="4.54345">
        <ele>646</ele>
        <time>2017-04-24T10:05:58Z</time>
      </trkpt>
      <trkpt lat="46.0491" lon="4.54333">
        <ele>642</ele>
        <time>2017-04-24T10:06:02Z</time>
      </trkpt>
      <trkpt lat="46.0491" lon="4.54331">
        <ele>643</ele>
        <time>2017-04-24T10:06:03Z</time>
      </trkpt>
      <trkpt lat="46.04906" lon="4.54321">
        <ele>646</ele>
        <time>2017-04-24T10:06:09Z</time>
      </trkpt>
      <trkpt lat="46.04905" lon="4.54319">
        <ele>647</ele>
        <time>2017-04-24T10:06:10Z</time>
      </trkpt>
      <trkpt lat="46.04904" lon="4.54307">
        <ele>649</ele>
        <time>2017-04-24T10:06:15Z</time>
      </trkpt>
      <trkpt lat="46.04904" lon="4.54302">
        <ele>650</ele>
        <time>2017-04-24T10:06:16Z</time>
      </trkpt>
      <trkpt lat="46.04902" lon="4.54291">
        <ele>650</ele>
        <time>2017-04-24T10:06:19Z</time>
      </trkpt>
      <trkpt lat="46.04903" lon="4.54287">
        <ele>650</ele>
        <time>2017-04-24T10:06:20Z</time>
      </trkpt>
      <trkpt lat="46.04901" lon="4.54275">
        <ele>649</ele>
        <time>2017-04-24T10:06:25Z</time>
      </trkpt>
      <trkpt lat="46.049" lon="4.54274">
        <ele>649</ele>
        <time>2017-04-24T10:06:26Z</time>
      </trkpt>
      <trkpt lat="46.04897" lon="4.54263">
        <ele>648</ele>
        <time>2017-04-24T10:06:31Z</time>
      </trkpt>
      <trkpt lat="46.04896" lon="4.5426">
        <ele>648</ele>
        <time>2017-04-24T10:06:32Z</time>
      </trkpt>
      <trkpt lat="46.04896" lon="4.54249">
        <ele>650</ele>
        <time>2017-04-24T10:06:36Z</time>
      </trkpt>
      <trkpt lat="46.04897" lon="4.54246">
        <ele>650</ele>
        <time>2017-04-24T10:06:37Z</time>
      </trkpt>
      <trkpt lat="46.04896" lon="4.54234">
        <ele>652</ele>
        <time>2017-04-24T10:06:41Z</time>
      </trkpt>
      <trkpt lat="46.04895" lon="4.54229">
        <ele>653</ele>
        <time>2017-04-24T10:06:42Z</time>
      </trkpt>
      <trkpt lat="46.04898" lon="4.54218">
        <ele>654</ele>
        <time>2017-04-24T10:06:47Z</time>
      </trkpt>
      <trkpt lat="46.04899" lon="4.54215">
        <ele>654</ele>
        <time>2017-04-24T10:06:48Z</time>
      </trkpt>
      <trkpt lat="46.04897" lon="4.54204">
        <ele>655</ele>
        <time>2017-04-24T10:06:51Z</time>
      </trkpt>
      <trkpt lat="46.04896" lon="4.54202">
        <ele>655</ele>
        <time>2017-04-24T10:06:52Z</time>
      </trkpt>
      <trkpt lat="46.04898" lon="4.54189">
        <ele>655</ele>
        <time>2017-04-24T10:06:59Z</time>
      </trkpt>
      <trkpt lat="46.04899" lon="4.54188">
        <ele>654</ele>
        <time>2017-04-24T10:07:00Z</time>
      </trkpt>
      <trkpt lat="46.04905" lon="4.54181">
        <ele>652</ele>
        <time>2017-04-24T10:07:07Z</time>
      </trkpt>
      <trkpt lat="46.04907" lon="4.5418">
        <ele>651</ele>
        <time>2017-04-24T10:07:08Z</time>
      </trkpt>
      <trkpt lat="46.04913" lon="4.54172">
        <ele>647</ele>
        <time>2017-04-24T10:07:15Z</time>
      </trkpt>
      <trkpt lat="46.04913" lon="4.54171">
        <ele>646</ele>
        <time>2017-04-24T10:07:16Z</time>
      </trkpt>
      <trkpt lat="46.04919" lon="4.54163">
        <ele>644</ele>
        <time>2017-04-24T10:07:25Z</time>
      </trkpt>
      <trkpt lat="46.04921" lon="4.54163">
        <ele>644</ele>
        <time>2017-04-24T10:07:26Z</time>
      </trkpt>
      <trkpt lat="46.04926" lon="4.54154">
        <ele>645</ele>
        <time>2017-04-24T10:07:34Z</time>
      </trkpt>
      <trkpt lat="46.04927" lon="4.54152">
        <ele>646</ele>
        <time>2017-04-24T10:07:35Z</time>
      </trkpt>
      <trkpt lat="46.04934" lon="4.54144">
        <ele>647</ele>
        <time>2017-04-24T10:07:39Z</time>
      </trkpt>
      <trkpt lat="46.04935" lon="4.54141">
        <ele>647</ele>
        <time>2017-04-24T10:07:40Z</time>
      </trkpt>
      <trkpt lat="46.0494" lon="4.54132">
        <ele>648</ele>
        <time>2017-04-24T10:07:43Z</time>
      </trkpt>
      <trkpt lat="46.04941" lon="4.54129">
        <ele>649</ele>
        <time>2017-04-24T10:07:44Z</time>
      </trkpt>
      <trkpt lat="46.04947" lon="4.54119">
        <ele>650</ele>
        <time>2017-04-24T10:07:49Z</time>
      </trkpt>
      <trkpt lat="46.04948" lon="4.54117">
        <ele>650</ele>
        <time>2017-04-24T10:07:50Z</time>
      </trkpt>
      <trkpt lat="46.04953" lon="4.54107">
        <ele>651</ele>
        <time>2017-04-24T10:07:55Z</time>
      </trkpt>
      <trkpt lat="46.04954" lon="4.54105">
        <ele>651</ele>
        <time>2017-04-24T10:07:56Z</time>
      </trkpt>
      <trkpt lat="46.04961" lon="4.54098">
        <ele>650</ele>
        <time>2017-04-24T10:08:01Z</time>
      </trkpt>
      <trkpt lat="46.04963" lon="4.54097">
        <ele>650</ele>
        <time>2017-04-24T10:08:02Z</time>
      </trkpt>
      <trkpt lat="46.0497" lon="4.54091">
        <ele>650</ele>
        <time>2017-04-24T10:08:07Z</time>
      </trkpt>
      <trkpt lat="46.04971" lon="4.54088">
        <ele>650</ele>
        <time>2017-04-24T10:08:08Z</time>
      </trkpt>
      <trkpt lat="46.04975" lon="4.54081">
        <ele>663</ele>
        <time>2017-04-24T10:08:13Z</time>
      </trkpt>
      <trkpt lat="46.04977" lon="4.54077">
        <ele>663</ele>
        <time>2017-04-24T10:08:14Z</time>
      </trkpt>
      <trkpt lat="46.04982" lon="4.54066">
        <ele>664</ele>
        <time>2017-04-24T10:08:17Z</time>
      </trkpt>
      <trkpt lat="46.04983" lon="4.54066">
        <ele>664</ele>
        <time>2017-04-24T10:08:18Z</time>
      </trkpt>
      <trkpt lat="46.04988" lon="4.54056">
        <ele>666</ele>
        <time>2017-04-24T10:08:22Z</time>
      </trkpt>
      <trkpt lat="46.04988" lon="4.5405">
        <ele>667</ele>
        <time>2017-04-24T10:08:23Z</time>
      </trkpt>
      <trkpt lat="46.04993" lon="4.5404">
        <ele>670</ele>
        <time>2017-04-24T10:08:26Z</time>
      </trkpt>
      <trkpt lat="46.04994" lon="4.54037">
        <ele>670</ele>
        <time>2017-04-24T10:08:27Z</time>
      </trkpt>
      <trkpt lat="46.05003" lon="4.54038">
        <ele>672</ele>
        <time>2017-04-24T10:08:40Z</time>
      </trkpt>
      <trkpt lat="46.05003" lon="4.5404">
        <ele>672</ele>
        <time>2017-04-24T10:08:41Z</time>
      </trkpt>
      <trkpt lat="46.05004" lon="4.54052">
        <ele>669</ele>
        <time>2017-04-24T10:08:51Z</time>
      </trkpt>
      <trkpt lat="46.05004" lon="4.54053">
        <ele>668</ele>
        <time>2017-04-24T10:08:52Z</time>
      </trkpt>
      <trkpt lat="46.05011" lon="4.5406">
        <ele>667</ele>
        <time>2017-04-24T10:09:03Z</time>
      </trkpt>
      <trkpt lat="46.05014" lon="4.54064">
        <ele>666</ele>
        <time>2017-04-24T10:09:04Z</time>
      </trkpt>
      <trkpt lat="46.05018" lon="4.54073">
        <ele>665</ele>
        <time>2017-04-24T10:09:08Z</time>
      </trkpt>
      <trkpt lat="46.0502" lon="4.54076">
        <ele>665</ele>
        <time>2017-04-24T10:09:09Z</time>
      </trkpt>
      <trkpt lat="46.05026" lon="4.54082">
        <ele>666</ele>
        <time>2017-04-24T10:09:11Z</time>
      </trkpt>
      <trkpt lat="46.05028" lon="4.54086">
        <ele>654</ele>
        <time>2017-04-24T10:09:12Z</time>
      </trkpt>
      <trkpt lat="46.05034" lon="4.54093">
        <ele>655</ele>
        <time>2017-04-24T10:09:15Z</time>
      </trkpt>
      <trkpt lat="46.05035" lon="4.54096">
        <ele>655</ele>
        <time>2017-04-24T10:09:16Z</time>
      </trkpt>
      <trkpt lat="46.05042" lon="4.54103">
        <ele>656</ele>
        <time>2017-04-24T10:09:21Z</time>
      </trkpt>
      <trkpt lat="46.05044" lon="4.54105">
        <ele>656</ele>
        <time>2017-04-24T10:09:22Z</time>
      </trkpt>
      <trkpt lat="46.05051" lon="4.54111">
        <ele>656</ele>
        <time>2017-04-24T10:09:26Z</time>
      </trkpt>
      <trkpt lat="46.05052" lon="4.54112">
        <ele>656</ele>
        <time>2017-04-24T10:09:27Z</time>
      </trkpt>
      <trkpt lat="46.05059" lon="4.54119">
        <ele>657</ele>
        <time>2017-04-24T10:09:31Z</time>
      </trkpt>
      <trkpt lat="46.05061" lon="4.5412">
        <ele>657</ele>
        <time>2017-04-24T10:09:32Z</time>
      </trkpt>
      <trkpt lat="46.05067" lon="4.54126">
        <ele>657</ele>
        <time>2017-04-24T10:09:36Z</time>
      </trkpt>
      <trkpt lat="46.05068" lon="4.54127">
        <ele>656</ele>
        <time>2017-04-24T10:09:37Z</time>
      </trkpt>
      <trkpt lat="46.05073" lon="4.54133">
        <ele>656</ele>
        <time>2017-04-24T10:09:41Z</time>
      </trkpt>
      <trkpt lat="46.05075" lon="4.54136">
        <ele>656</ele>
        <time>2017-04-24T10:09:42Z</time>
      </trkpt>
      <trkpt lat="46.0508" lon="4.54142">
        <ele>656</ele>
        <time>2017-04-24T10:09:46Z</time>
      </trkpt>
      <trkpt lat="46.05084" lon="4.54141">
        <ele>663</ele>
        <time>2017-04-24T10:09:47Z</time>
      </trkpt>
      <trkpt lat="46.05092" lon="4.54142">
        <ele>663</ele>
        <time>2017-04-24T10:09:51Z</time>
      </trkpt>
      <trkpt lat="46.05094" lon="4.54142">
        <ele>663</ele>
        <time>2017-04-24T10:09:52Z</time>
      </trkpt>
      <trkpt lat="46.05103" lon="4.54141">
        <ele>664</ele>
        <time>2017-04-24T10:09:58Z</time>
      </trkpt>
      <trkpt lat="46.05104" lon="4.5414">
        <ele>664</ele>
        <time>2017-04-24T10:09:59Z</time>
      </trkpt>
      <trkpt lat="46.05113" lon="4.54139">
        <ele>664</ele>
        <time>2017-04-24T10:10:06Z</time>
      </trkpt>
      <trkpt lat="46.05114" lon="4.5414">
        <ele>664</ele>
        <time>2017-04-24T10:10:07Z</time>
      </trkpt>
      <trkpt lat="46.05122" lon="4.54139">
        <ele>664</ele>
        <time>2017-04-24T10:10:13Z</time>
      </trkpt>
      <trkpt lat="46.05124" lon="4.54139">
        <ele>664</ele>
        <time>2017-04-24T10:10:14Z</time>
      </trkpt>
      <trkpt lat="46.05131" lon="4.54137">
        <ele>664</ele>
        <time>2017-04-24T10:10:16Z</time>
      </trkpt>
      <trkpt lat="46.05133" lon="4.54137">
        <ele>664</ele>
        <time>2017-04-24T10:10:17Z</time>
      </trkpt>
      <trkpt lat="46.0514" lon="4.54135">
        <ele>664</ele>
        <time>2017-04-24T10:10:19Z</time>
      </trkpt>
      <trkpt lat="46.05143" lon="4.54135">
        <ele>664</ele>
        <time>2017-04-24T10:10:20Z</time>
      </trkpt>
      <trkpt lat="46.05151" lon="4.54132">
        <ele>665</ele>
        <time>2017-04-24T10:10:24Z</time>
      </trkpt>
      <trkpt lat="46.05153" lon="4.54132">
        <ele>665</ele>
        <time>2017-04-24T10:10:25Z</time>
      </trkpt>
      <trkpt lat="46.0516" lon="4.54128">
        <ele>666</ele>
        <time>2017-04-24T10:10:29Z</time>
      </trkpt>
      <trkpt lat="46.05163" lon="4.54127">
        <ele>666</ele>
        <time>2017-04-24T10:10:30Z</time>
      </trkpt>
      <trkpt lat="46.0517" lon="4.54125">
        <ele>668</ele>
        <time>2017-04-24T10:10:32Z</time>
      </trkpt>
      <trkpt lat="46.05172" lon="4.54125">
        <ele>668</ele>
        <time>2017-04-24T10:10:33Z</time>
      </trkpt>
      <trkpt lat="46.05179" lon="4.54123">
        <ele>669</ele>
        <time>2017-04-24T10:10:36Z</time>
      </trkpt>
      <trkpt lat="46.05182" lon="4.54121">
        <ele>669</ele>
        <time>2017-04-24T10:10:37Z</time>
      </trkpt>
      <trkpt lat="46.0519" lon="4.54118">
        <ele>670</ele>
        <time>2017-04-24T10:10:42Z</time>
      </trkpt>
      <trkpt lat="46.05191" lon="4.54117">
        <ele>670</ele>
        <time>2017-04-24T10:10:43Z</time>
      </trkpt>
      <trkpt lat="46.05198" lon="4.5411">
        <ele>671</ele>
        <time>2017-04-24T10:10:48Z</time>
      </trkpt>
      <trkpt lat="46.05199" lon="4.54109">
        <ele>671</ele>
        <time>2017-04-24T10:10:49Z</time>
      </trkpt>
      <trkpt lat="46.05207" lon="4.54104">
        <ele>672</ele>
        <time>2017-04-24T10:10:53Z</time>
      </trkpt>
      <trkpt lat="46.05209" lon="4.54103">
        <ele>672</ele>
        <time>2017-04-24T10:10:54Z</time>
      </trkpt>
      <trkpt lat="46.05213" lon="4.54095">
        <ele>673</ele>
        <time>2017-04-24T10:10:56Z</time>
      </trkpt>
      <trkpt lat="46.05216" lon="4.54095">
        <ele>673</ele>
        <time>2017-04-24T10:10:57Z</time>
      </trkpt>
      <trkpt lat="46.05218" lon="4.54095">
        <ele>673</ele>
        <time>2017-04-24T10:10:58Z</time>
      </trkpt>
      <trkpt lat="46.05224" lon="4.54088">
        <ele>673</ele>
        <time>2017-04-24T10:10:59Z</time>
      </trkpt>
      <trkpt lat="46.05229" lon="4.54079">
        <ele>687</ele>
        <time>2017-04-24T10:11:01Z</time>
      </trkpt>
      <trkpt lat="46.05233" lon="4.54078">
        <ele>687</ele>
        <time>2017-04-24T10:11:02Z</time>
      </trkpt>
      <trkpt lat="46.05241" lon="4.54076">
        <ele>685</ele>
        <time>2017-04-24T10:11:06Z</time>
      </trkpt>
      <trkpt lat="46.05242" lon="4.54076">
        <ele>684</ele>
        <time>2017-04-24T10:11:07Z</time>
      </trkpt>
      <trkpt lat="46.05248" lon="4.54086">
        <ele>678</ele>
        <time>2017-04-24T10:11:12Z</time>
      </trkpt>
      <trkpt lat="46.05248" lon="4.54089">
        <ele>677</ele>
        <time>2017-04-24T10:11:13Z</time>
      </trkpt>
      <trkpt lat="46.05253" lon="4.54098">
        <ele>681</ele>
        <time>2017-04-24T10:11:16Z</time>
      </trkpt>
      <trkpt lat="46.05255" lon="4.54101">
        <ele>681</ele>
        <time>2017-04-24T10:11:17Z</time>
      </trkpt>
      <trkpt lat="46.0526" lon="4.5411">
        <ele>681</ele>
        <time>2017-04-24T10:11:22Z</time>
      </trkpt>
      <trkpt lat="46.05261" lon="4.54112">
        <ele>681</ele>
        <time>2017-04-24T10:11:23Z</time>
      </trkpt>
      <trkpt lat="46.05266" lon="4.54122">
        <ele>681</ele>
        <time>2017-04-24T10:11:28Z</time>
      </trkpt>
      <trkpt lat="46.05266" lon="4.54124">
        <ele>681</ele>
        <time>2017-04-24T10:11:29Z</time>
      </trkpt>
      <trkpt lat="46.05272" lon="4.54133">
        <ele>680</ele>
        <time>2017-04-24T10:11:34Z</time>
      </trkpt>
      <trkpt lat="46.05273" lon="4.54135">
        <ele>680</ele>
        <time>2017-04-24T10:11:35Z</time>
      </trkpt>
      <trkpt lat="46.05277" lon="4.54145">
        <ele>679</ele>
        <time>2017-04-24T10:11:39Z</time>
      </trkpt>
      <trkpt lat="46.05278" lon="4.54147">
        <ele>679</ele>
        <time>2017-04-24T10:11:40Z</time>
      </trkpt>
      <trkpt lat="46.05282" lon="4.54157">
        <ele>679</ele>
        <time>2017-04-24T10:11:44Z</time>
      </trkpt>
      <trkpt lat="46.05282" lon="4.5416">
        <ele>679</ele>
        <time>2017-04-24T10:11:45Z</time>
      </trkpt>
      <trkpt lat="46.05289" lon="4.54168">
        <ele>671</ele>
        <time>2017-04-24T10:11:49Z</time>
      </trkpt>
      <trkpt lat="46.0529" lon="4.5417">
        <ele>671</ele>
        <time>2017-04-24T10:11:50Z</time>
      </trkpt>
      <trkpt lat="46.05293" lon="4.5418">
        <ele>672</ele>
        <time>2017-04-24T10:11:54Z</time>
      </trkpt>
      <trkpt lat="46.05294" lon="4.54182">
        <ele>672</ele>
        <time>2017-04-24T10:11:55Z</time>
      </trkpt>
      <trkpt lat="46.05299" lon="4.54192">
        <ele>672</ele>
        <time>2017-04-24T10:12:00Z</time>
      </trkpt>
      <trkpt lat="46.05299" lon="4.54194">
        <ele>672</ele>
        <time>2017-04-24T10:12:01Z</time>
      </trkpt>
      <trkpt lat="46.05305" lon="4.54201">
        <ele>672</ele>
        <time>2017-04-24T10:12:05Z</time>
      </trkpt>
      <trkpt lat="46.05306" lon="4.54203">
        <ele>672</ele>
        <time>2017-04-24T10:12:06Z</time>
      </trkpt>
      <trkpt lat="46.05311" lon="4.54212">
        <ele>672</ele>
        <time>2017-04-24T10:12:10Z</time>
      </trkpt>
      <trkpt lat="46.05312" lon="4.54214">
        <ele>672</ele>
        <time>2017-04-24T10:12:11Z</time>
      </trkpt>
      <trkpt lat="46.05317" lon="4.54221">
        <ele>672</ele>
        <time>2017-04-24T10:12:15Z</time>
      </trkpt>
      <trkpt lat="46.05319" lon="4.54222">
        <ele>672</ele>
        <time>2017-04-24T10:12:16Z</time>
      </trkpt>
      <trkpt lat="46.05325" lon="4.54227">
        <ele>673</ele>
        <time>2017-04-24T10:12:20Z</time>
      </trkpt>
      <trkpt lat="46.05327" lon="4.54229">
        <ele>673</ele>
        <time>2017-04-24T10:12:21Z</time>
      </trkpt>
      <trkpt lat="46.05334" lon="4.54236">
        <ele>685</ele>
        <time>2017-04-24T10:12:26Z</time>
      </trkpt>
      <trkpt lat="46.05335" lon="4.54237">
        <ele>684</ele>
        <time>2017-04-24T10:12:27Z</time>
      </trkpt>
      <trkpt lat="46.05342" lon="4.54244">
        <ele>683</ele>
        <time>2017-04-24T10:12:32Z</time>
      </trkpt>
      <trkpt lat="46.05343" lon="4.54246">
        <ele>683</ele>
        <time>2017-04-24T10:12:33Z</time>
      </trkpt>
      <trkpt lat="46.05349" lon="4.54253">
        <ele>677</ele>
        <time>2017-04-24T10:12:38Z</time>
      </trkpt>
      <trkpt lat="46.05349" lon="4.54255">
        <ele>677</ele>
        <time>2017-04-24T10:12:39Z</time>
      </trkpt>
      <trkpt lat="46.05354" lon="4.54263">
        <ele>677</ele>
        <time>2017-04-24T10:12:45Z</time>
      </trkpt>
      <trkpt lat="46.05356" lon="4.54264">
        <ele>677</ele>
        <time>2017-04-24T10:12:46Z</time>
      </trkpt>
      <trkpt lat="46.05362" lon="4.54272">
        <ele>677</ele>
        <time>2017-04-24T10:12:50Z</time>
      </trkpt>
      <trkpt lat="46.05363" lon="4.54274">
        <ele>677</ele>
        <time>2017-04-24T10:12:51Z</time>
      </trkpt>
      <trkpt lat="46.0537" lon="4.54279">
        <ele>677</ele>
        <time>2017-04-24T10:12:56Z</time>
      </trkpt>
      <trkpt lat="46.05372" lon="4.54279">
        <ele>677</ele>
        <time>2017-04-24T10:12:57Z</time>
      </trkpt>
      <trkpt lat="46.05379" lon="4.54285">
        <ele>678</ele>
        <time>2017-04-24T10:13:04Z</time>
      </trkpt>
      <trkpt lat="46.0538" lon="4.54286">
        <ele>678</ele>
        <time>2017-04-24T10:13:05Z</time>
      </trkpt>
      <trkpt lat="46.05387" lon="4.54291">
        <ele>678</ele>
        <time>2017-04-24T10:13:10Z</time>
      </trkpt>
      <trkpt lat="46.05389" lon="4.54292">
        <ele>678</ele>
        <time>2017-04-24T10:13:11Z</time>
      </trkpt>
      <trkpt lat="46.05395" lon="4.54299">
        <ele>677</ele>
        <time>2017-04-24T10:13:16Z</time>
      </trkpt>
      <trkpt lat="46.05398" lon="4.54299">
        <ele>678</ele>
        <time>2017-04-24T10:13:17Z</time>
      </trkpt>
      <trkpt lat="46.05405" lon="4.54305">
        <ele>677</ele>
        <time>2017-04-24T10:13:22Z</time>
      </trkpt>
      <trkpt lat="46.05407" lon="4.54306">
        <ele>677</ele>
        <time>2017-04-24T10:13:23Z</time>
      </trkpt>
      <trkpt lat="46.05414" lon="4.54309">
        <ele>677</ele>
        <time>2017-04-24T10:13:26Z</time>
      </trkpt>
      <trkpt lat="46.05416" lon="4.54309">
        <ele>677</ele>
        <time>2017-04-24T10:13:27Z</time>
      </trkpt>
      <trkpt lat="46.05424" lon="4.54312">
        <ele>685</ele>
        <time>2017-04-24T10:13:32Z</time>
      </trkpt>
      <trkpt lat="46.05425" lon="4.54314">
        <ele>685</ele>
        <time>2017-04-24T10:13:33Z</time>
      </trkpt>
      <trkpt lat="46.05436" lon="4.5431">
        <ele>688</ele>
        <time>2017-04-24T10:13:34Z</time>
      </trkpt>
      <trkpt lat="46.05441" lon="4.54313">
        <ele>688</ele>
        <time>2017-04-24T10:13:36Z</time>
      </trkpt>
      <trkpt lat="46.05445" lon="4.54316">
        <ele>688</ele>
        <time>2017-04-24T10:13:37Z</time>
      </trkpt>
      <trkpt lat="46.05452" lon="4.54319">
        <ele>689</ele>
        <time>2017-04-24T10:13:40Z</time>
      </trkpt>
      <trkpt lat="46.05454" lon="4.54319">
        <ele>689</ele>
        <time>2017-04-24T10:13:41Z</time>
      </trkpt>
      <trkpt lat="46.05461" lon="4.54325">
        <ele>689</ele>
        <time>2017-04-24T10:13:51Z</time>
      </trkpt>
      <trkpt lat="46.05463" lon="4.54326">
        <ele>689</ele>
        <time>2017-04-24T10:13:52Z</time>
      </trkpt>
      <trkpt lat="46.0547" lon="4.54329">
        <ele>689</ele>
        <time>2017-04-24T10:13:56Z</time>
      </trkpt>
      <trkpt lat="46.05472" lon="4.54329">
        <ele>690</ele>
        <time>2017-04-24T10:13:57Z</time>
      </trkpt>
      <trkpt lat="46.0548" lon="4.54333">
        <ele>690</ele>
        <time>2017-04-24T10:14:02Z</time>
      </trkpt>
      <trkpt lat="46.05483" lon="4.54334">
        <ele>681</ele>
        <time>2017-04-24T10:14:03Z</time>
      </trkpt>
      <trkpt lat="46.0549" lon="4.54337">
        <ele>683</ele>
        <time>2017-04-24T10:14:07Z</time>
      </trkpt>
      <trkpt lat="46.05492" lon="4.54337">
        <ele>683</ele>
        <time>2017-04-24T10:14:08Z</time>
      </trkpt>
      <trkpt lat="46.05499" lon="4.54333">
        <ele>688</ele>
        <time>2017-04-24T10:14:12Z</time>
      </trkpt>
      <trkpt lat="46.05501" lon="4.54332">
        <ele>688</ele>
        <time>2017-04-24T10:14:13Z</time>
      </trkpt>
      <trkpt lat="46.05508" lon="4.54329">
        <ele>687</ele>
        <time>2017-04-24T10:14:16Z</time>
      </trkpt>
      <trkpt lat="46.05512" lon="4.54328">
        <ele>687</ele>
        <time>2017-04-24T10:14:17Z</time>
      </trkpt>
      <trkpt lat="46.05517" lon="4.54318">
        <ele>687</ele>
        <time>2017-04-24T10:14:22Z</time>
      </trkpt>
      <trkpt lat="46.05519" lon="4.54315">
        <ele>686</ele>
        <time>2017-04-24T10:14:23Z</time>
      </trkpt>
      <trkpt lat="46.05524" lon="4.54309">
        <ele>686</ele>
        <time>2017-04-24T10:14:26Z</time>
      </trkpt>
      <trkpt lat="46.05525" lon="4.54305">
        <ele>686</ele>
        <time>2017-04-24T10:14:27Z</time>
      </trkpt>
      <trkpt lat="46.05528" lon="4.54295">
        <ele>687</ele>
        <time>2017-04-24T10:14:30Z</time>
      </trkpt>
      <trkpt lat="46.05528" lon="4.54293">
        <ele>687</ele>
        <time>2017-04-24T10:14:31Z</time>
      </trkpt>
      <trkpt lat="46.05532" lon="4.54281">
        <ele>688</ele>
        <time>2017-04-24T10:14:36Z</time>
      </trkpt>
      <trkpt lat="46.05532" lon="4.5428">
        <ele>688</ele>
        <time>2017-04-24T10:14:37Z</time>
      </trkpt>
      <trkpt lat="46.05536" lon="4.5427">
        <ele>689</ele>
        <time>2017-04-24T10:14:40Z</time>
      </trkpt>
      <trkpt lat="46.05537" lon="4.54268">
        <ele>689</ele>
        <time>2017-04-24T10:14:41Z</time>
      </trkpt>
      <trkpt lat="46.05541" lon="4.54257">
        <ele>689</ele>
        <time>2017-04-24T10:14:47Z</time>
      </trkpt>
      <trkpt lat="46.05542" lon="4.54255">
        <ele>688</ele>
        <time>2017-04-24T10:14:48Z</time>
      </trkpt>
      <trkpt lat="46.05546" lon="4.54246">
        <ele>697</ele>
        <time>2017-04-24T10:14:53Z</time>
      </trkpt>
      <trkpt lat="46.05547" lon="4.54244">
        <ele>697</ele>
        <time>2017-04-24T10:14:54Z</time>
      </trkpt>
      <trkpt lat="46.0555" lon="4.54232">
        <ele>697</ele>
        <time>2017-04-24T10:14:58Z</time>
      </trkpt>
      <trkpt lat="46.0555" lon="4.5423">
        <ele>698</ele>
        <time>2017-04-24T10:14:59Z</time>
      </trkpt>
      <trkpt lat="46.05551" lon="4.54219">
        <ele>698</ele>
        <time>2017-04-24T10:15:03Z</time>
      </trkpt>
      <trkpt lat="46.05552" lon="4.54217">
        <ele>699</ele>
        <time>2017-04-24T10:15:04Z</time>
      </trkpt>
      <trkpt lat="46.05554" lon="4.54206">
        <ele>700</ele>
        <time>2017-04-24T10:15:09Z</time>
      </trkpt>
      <trkpt lat="46.05555" lon="4.54202">
        <ele>700</ele>
        <time>2017-04-24T10:15:10Z</time>
      </trkpt>
      <trkpt lat="46.05558" lon="4.54192">
        <ele>700</ele>
        <time>2017-04-24T10:15:12Z</time>
      </trkpt>
      <trkpt lat="46.05558" lon="4.5419">
        <ele>700</ele>
        <time>2017-04-24T10:15:13Z</time>
      </trkpt>
      <trkpt lat="46.05561" lon="4.54178">
        <ele>700</ele>
        <time>2017-04-24T10:15:17Z</time>
      </trkpt>
      <trkpt lat="46.05562" lon="4.54176">
        <ele>699</ele>
        <time>2017-04-24T10:15:18Z</time>
      </trkpt>
      <trkpt lat="46.05565" lon="4.54164">
        <ele>706</ele>
        <time>2017-04-24T10:15:24Z</time>
      </trkpt>
      <trkpt lat="46.05566" lon="4.54162">
        <ele>706</ele>
        <time>2017-04-24T10:15:25Z</time>
      </trkpt>
      <trkpt lat="46.0557" lon="4.54152">
        <ele>706</ele>
        <time>2017-04-24T10:15:29Z</time>
      </trkpt>
      <trkpt lat="46.05571" lon="4.54149">
        <ele>707</ele>
        <time>2017-04-24T10:15:30Z</time>
      </trkpt>
      <trkpt lat="46.05573" lon="4.54138">
        <ele>709</ele>
        <time>2017-04-24T10:15:35Z</time>
      </trkpt>
      <trkpt lat="46.05573" lon="4.54135">
        <ele>710</ele>
        <time>2017-04-24T10:15:36Z</time>
      </trkpt>
      <trkpt lat="46.05574" lon="4.54125">
        <ele>711</ele>
        <time>2017-04-24T10:15:41Z</time>
      </trkpt>
      <trkpt lat="46.05573" lon="4.54121">
        <ele>712</ele>
        <time>2017-04-24T10:15:42Z</time>
      </trkpt>
      <trkpt lat="46.05574" lon="4.54109">
        <ele>712</ele>
        <time>2017-04-24T10:15:48Z</time>
      </trkpt>
      <trkpt lat="46.05575" lon="4.54107">
        <ele>712</ele>
        <time>2017-04-24T10:15:49Z</time>
      </trkpt>
      <trkpt lat="46.05576" lon="4.54095">
        <ele>711</ele>
        <time>2017-04-24T10:15:55Z</time>
      </trkpt>
      <trkpt lat="46.05576" lon="4.54094">
        <ele>711</ele>
        <time>2017-04-24T10:15:56Z</time>
      </trkpt>
      <trkpt lat="46.05577" lon="4.54083">
        <ele>712</ele>
        <time>2017-04-24T10:16:00Z</time>
      </trkpt>
      <trkpt lat="46.05577" lon="4.54081">
        <ele>713</ele>
        <time>2017-04-24T10:16:01Z</time>
      </trkpt>
      <trkpt lat="46.0558" lon="4.5407">
        <ele>717</ele>
        <time>2017-04-24T10:16:06Z</time>
      </trkpt>
      <trkpt lat="46.05581" lon="4.54068">
        <ele>718</ele>
        <time>2017-04-24T10:16:07Z</time>
      </trkpt>
      <trkpt lat="46.05584" lon="4.54057">
        <ele>704</ele>
        <time>2017-04-24T10:16:12Z</time>
      </trkpt>
      <trkpt lat="46.05585" lon="4.54053">
        <ele>704</ele>
        <time>2017-04-24T10:16:13Z</time>
      </trkpt>
      <trkpt lat="46.05588" lon="4.54041">
        <ele>705</ele>
        <time>2017-04-24T10:16:19Z</time>
      </trkpt>
      <trkpt lat="46.05587" lon="4.54039">
        <ele>705</ele>
        <time>2017-04-24T10:16:20Z</time>
      </trkpt>
      <trkpt lat="46.05588" lon="4.54028">
        <ele>707</ele>
        <time>2017-04-24T10:16:27Z</time>
      </trkpt>
      <trkpt lat="46.05587" lon="4.54026">
        <ele>708</ele>
        <time>2017-04-24T10:16:28Z</time>
      </trkpt>
      <trkpt lat="46.0559" lon="4.54014">
        <ele>710</ele>
        <time>2017-04-24T10:16:35Z</time>
      </trkpt>
      <trkpt lat="46.05591" lon="4.5401">
        <ele>712</ele>
        <time>2017-04-24T10:16:36Z</time>
      </trkpt>
      <trkpt lat="46.05595" lon="4.54">
        <ele>712</ele>
        <time>2017-04-24T10:16:41Z</time>
      </trkpt>
      <trkpt lat="46.05594" lon="4.53992">
        <ele>718</ele>
        <time>2017-04-24T10:16:42Z</time>
      </trkpt>
      <trkpt lat="46.05597" lon="4.53981">
        <ele>718</ele>
        <time>2017-04-24T10:16:47Z</time>
      </trkpt>
      <trkpt lat="46.05597" lon="4.53978">
        <ele>718</ele>
        <time>2017-04-24T10:16:48Z</time>
      </trkpt>
      <trkpt lat="46.056" lon="4.53966">
        <ele>718</ele>
        <time>2017-04-24T10:16:55Z</time>
      </trkpt>
      <trkpt lat="46.05601" lon="4.53965">
        <ele>718</ele>
        <time>2017-04-24T10:16:56Z</time>
      </trkpt>
      <trkpt lat="46.05605" lon="4.53955">
        <ele>719</ele>
        <time>2017-04-24T10:17:02Z</time>
      </trkpt>
      <trkpt lat="46.05605" lon="4.53953">
        <ele>719</ele>
        <time>2017-04-24T10:17:03Z</time>
      </trkpt>
      <trkpt lat="46.05612" lon="4.53948">
        <ele>719</ele>
        <time>2017-04-24T10:17:07Z</time>
      </trkpt>
      <trkpt lat="46.05613" lon="4.53945">
        <ele>719</ele>
        <time>2017-04-24T10:17:08Z</time>
      </trkpt>
      <trkpt lat="46.05619" lon="4.53937">
        <ele>719</ele>
        <time>2017-04-24T10:17:13Z</time>
      </trkpt>
      <trkpt lat="46.05619" lon="4.53936">
        <ele>719</ele>
        <time>2017-04-24T10:17:14Z</time>
      </trkpt>
      <trkpt lat="46.05625" lon="4.53927">
        <ele>719</ele>
        <time>2017-04-24T10:17:23Z</time>
      </trkpt>
      <trkpt lat="46.05626" lon="4.53926">
        <ele>719</ele>
        <time>2017-04-24T10:17:24Z</time>
      </trkpt>
      <trkpt lat="46.05634" lon="4.53925">
        <ele>719</ele>
        <time>2017-04-24T10:17:32Z</time>
      </trkpt>
      <trkpt lat="46.05635" lon="4.53925">
        <ele>719</ele>
        <time>2017-04-24T10:17:33Z</time>
      </trkpt>
      <trkpt lat="46.05643" lon="4.53922">
        <ele>719</ele>
        <time>2017-04-24T10:17:39Z</time>
      </trkpt>
      <trkpt lat="46.05644" lon="4.53921">
        <ele>719</ele>
        <time>2017-04-24T10:17:40Z</time>
      </trkpt>
      <trkpt lat="46.05651" lon="4.53919">
        <ele>719</ele>
        <time>2017-04-24T10:17:46Z</time>
      </trkpt>
      <trkpt lat="46.05653" lon="4.53918">
        <ele>719</ele>
        <time>2017-04-24T10:17:47Z</time>
      </trkpt>
      <trkpt lat="46.05661" lon="4.53917">
        <ele>719</ele>
        <time>2017-04-24T10:17:55Z</time>
      </trkpt>
      <trkpt lat="46.05662" lon="4.53916">
        <ele>723</ele>
        <time>2017-04-24T10:17:56Z</time>
      </trkpt>
      <trkpt lat="46.0567" lon="4.53912">
        <ele>722</ele>
        <time>2017-04-24T10:18:01Z</time>
      </trkpt>
      <trkpt lat="46.05671" lon="4.53911">
        <ele>723</ele>
        <time>2017-04-24T10:18:02Z</time>
      </trkpt>
      <trkpt lat="46.05678" lon="4.53905">
        <ele>725</ele>
        <time>2017-04-24T10:18:08Z</time>
      </trkpt>
      <trkpt lat="46.0568" lon="4.53905">
        <ele>725</ele>
        <time>2017-04-24T10:18:09Z</time>
      </trkpt>
      <trkpt lat="46.05687" lon="4.53906">
        <ele>726</ele>
        <time>2017-04-24T10:18:14Z</time>
      </trkpt>
      <trkpt lat="46.05689" lon="4.53906">
        <ele>726</ele>
        <time>2017-04-24T10:18:15Z</time>
      </trkpt>
      <trkpt lat="46.05696" lon="4.53903">
        <ele>727</ele>
        <time>2017-04-24T10:18:19Z</time>
      </trkpt>
      <trkpt lat="46.05699" lon="4.53903">
        <ele>727</ele>
        <time>2017-04-24T10:18:20Z</time>
      </trkpt>
      <trkpt lat="46.05707" lon="4.53901">
        <ele>727</ele>
        <time>2017-04-24T10:18:25Z</time>
      </trkpt>
      <trkpt lat="46.05708" lon="4.53901">
        <ele>727</ele>
        <time>2017-04-24T10:18:26Z</time>
      </trkpt>
      <trkpt lat="46.05717" lon="4.539">
        <ele>727</ele>
        <time>2017-04-24T10:18:32Z</time>
      </trkpt>
      <trkpt lat="46.05723" lon="4.53899">
        <ele>727</ele>
        <time>2017-04-24T10:18:33Z</time>
      </trkpt>
      <trkpt lat="46.0573" lon="4.53898">
        <ele>726</ele>
        <time>2017-04-24T10:18:37Z</time>
      </trkpt>
      <trkpt lat="46.05732" lon="4.53897">
        <ele>726</ele>
        <time>2017-04-24T10:18:38Z</time>
      </trkpt>
      <trkpt lat="46.0574" lon="4.53894">
        <ele>726</ele>
        <time>2017-04-24T10:18:45Z</time>
      </trkpt>
      <trkpt lat="46.05741" lon="4.53895">
        <ele>726</ele>
        <time>2017-04-24T10:18:46Z</time>
      </trkpt>
      <trkpt lat="46.0575" lon="4.53893">
        <ele>726</ele>
        <time>2017-04-24T10:18:53Z</time>
      </trkpt>
      <trkpt lat="46.05751" lon="4.53893">
        <ele>723</ele>
        <time>2017-04-24T10:18:54Z</time>
      </trkpt>
      <trkpt lat="46.0576" lon="4.5389">
        <ele>724</ele>
        <time>2017-04-24T10:19:00Z</time>
      </trkpt>
      <trkpt lat="46.05762" lon="4.53888">
        <ele>724</ele>
        <time>2017-04-24T10:19:01Z</time>
      </trkpt>
      <trkpt lat="46.05769" lon="4.53886">
        <ele>724</ele>
        <time>2017-04-24T10:19:08Z</time>
      </trkpt>
      <trkpt lat="46.05771" lon="4.53885">
        <ele>724</ele>
        <time>2017-04-24T10:19:09Z</time>
      </trkpt>
      <trkpt lat="46.05779" lon="4.53882">
        <ele>725</ele>
        <time>2017-04-24T10:19:14Z</time>
      </trkpt>
      <trkpt lat="46.05781" lon="4.53882">
        <ele>725</ele>
        <time>2017-04-24T10:19:15Z</time>
      </trkpt>
      <trkpt lat="46.05788" lon="4.53877">
        <ele>725</ele>
        <time>2017-04-24T10:19:21Z</time>
      </trkpt>
      <trkpt lat="46.0579" lon="4.53877">
        <ele>725</ele>
        <time>2017-04-24T10:19:22Z</time>
      </trkpt>
      <trkpt lat="46.05797" lon="4.53876">
        <ele>725</ele>
        <time>2017-04-24T10:19:26Z</time>
      </trkpt>
      <trkpt lat="46.058" lon="4.53877">
        <ele>725</ele>
        <time>2017-04-24T10:19:27Z</time>
      </trkpt>
      <trkpt lat="46.05807" lon="4.5387">
        <ele>726</ele>
        <time>2017-04-24T10:19:31Z</time>
      </trkpt>
      <trkpt lat="46.05807" lon="4.53869">
        <ele>726</ele>
        <time>2017-04-24T10:19:32Z</time>
      </trkpt>
      <trkpt lat="46.05812" lon="4.53859">
        <ele>727</ele>
        <time>2017-04-24T10:19:37Z</time>
      </trkpt>
      <trkpt lat="46.05815" lon="4.53857">
        <ele>728</ele>
        <time>2017-04-24T10:19:38Z</time>
      </trkpt>
      <trkpt lat="46.05821" lon="4.53852">
        <ele>729</ele>
        <time>2017-04-24T10:19:42Z</time>
      </trkpt>
      <trkpt lat="46.05823" lon="4.53851">
        <ele>729</ele>
        <time>2017-04-24T10:19:43Z</time>
      </trkpt>
      <trkpt lat="46.0583" lon="4.53845">
        <ele>731</ele>
        <time>2017-04-24T10:19:48Z</time>
      </trkpt>
      <trkpt lat="46.05832" lon="4.53844">
        <ele>732</ele>
        <time>2017-04-24T10:19:49Z</time>
      </trkpt>
      <trkpt lat="46.05838" lon="4.53838">
        <ele>733</ele>
        <time>2017-04-24T10:19:55Z</time>
      </trkpt>
      <trkpt lat="46.0584" lon="4.53837">
        <ele>732</ele>
        <time>2017-04-24T10:19:56Z</time>
      </trkpt>
      <trkpt lat="46.05845" lon="4.53831">
        <ele>736</ele>
        <time>2017-04-24T10:20:01Z</time>
      </trkpt>
      <trkpt lat="46.05847" lon="4.53829">
        <ele>736</ele>
        <time>2017-04-24T10:20:02Z</time>
      </trkpt>
      <trkpt lat="46.05854" lon="4.53825">
        <ele>736</ele>
        <time>2017-04-24T10:20:08Z</time>
      </trkpt>
      <trkpt lat="46.05856" lon="4.53824">
        <ele>737</ele>
        <time>2017-04-24T10:20:09Z</time>
      </trkpt>
      <trkpt lat="46.05864" lon="4.53819">
        <ele>737</ele>
        <time>2017-04-24T10:20:13Z</time>
      </trkpt>
      <trkpt lat="46.05865" lon="4.53818">
        <ele>737</ele>
        <time>2017-04-24T10:20:14Z</time>
      </trkpt>
      <trkpt lat="46.05873" lon="4.53812">
        <ele>737</ele>
        <time>2017-04-24T10:20:20Z</time>
      </trkpt>
      <trkpt lat="46.05874" lon="4.5381">
        <ele>737</ele>
        <time>2017-04-24T10:20:21Z</time>
      </trkpt>
      <trkpt lat="46.05883" lon="4.53807">
        <ele>737</ele>
        <time>2017-04-24T10:20:26Z</time>
      </trkpt>
      <trkpt lat="46.05884" lon="4.53806">
        <ele>737</ele>
        <time>2017-04-24T10:20:27Z</time>
      </trkpt>
      <trkpt lat="46.0589" lon="4.53801">
        <ele>737</ele>
        <time>2017-04-24T10:20:30Z</time>
      </trkpt>
      <trkpt lat="46.05894" lon="4.53799">
        <ele>737</ele>
        <time>2017-04-24T10:20:31Z</time>
      </trkpt>
      <trkpt lat="46.059" lon="4.53791">
        <ele>737</ele>
        <time>2017-04-24T10:20:37Z</time>
      </trkpt>
      <trkpt lat="46.05901" lon="4.53791">
        <ele>737</ele>
        <time>2017-04-24T10:20:38Z</time>
      </trkpt>
      <trkpt lat="46.05902" lon="4.53789">
        <ele>737</ele>
        <time>2017-04-24T10:20:57Z</time>
      </trkpt>
      <trkpt lat="46.05906" lon="4.53777">
        <ele>738</ele>
        <time>2017-04-24T10:20:58Z</time>
      </trkpt>
      <trkpt lat="46.05907" lon="4.53776">
        <ele>738</ele>
        <time>2017-04-24T10:23:35Z</time>
      </trkpt>
      <trkpt lat="46.05916" lon="4.53781">
        <ele>738</ele>
        <time>2017-04-24T10:23:36Z</time>
      </trkpt>
      <trkpt lat="46.05914" lon="4.53768">
        <ele>738</ele>
        <time>2017-04-24T10:30:19Z</time>
      </trkpt>
      <trkpt lat="46.05914" lon="4.53767">
        <ele>738</ele>
        <time>2017-04-24T10:30:20Z</time>
      </trkpt>
      <trkpt lat="46.05909" lon="4.53756">
        <ele>738</ele>
        <time>2017-04-24T10:30:33Z</time>
      </trkpt>
      <trkpt lat="46.05909" lon="4.53756">
        <ele>738</ele>
        <time>2017-04-24T10:30:34Z</time>
      </trkpt>
      <trkpt lat="46.05907" lon="4.53748">
        <ele>738</ele>
        <time>2017-04-24T10:31:28Z</time>
      </trkpt>
      <trkpt lat="46.05913" lon="4.53738">
        <ele>737</ele>
        <time>2017-04-24T10:31:29Z</time>
      </trkpt>
      <trkpt lat="46.05914" lon="4.5375">
        <ele>738</ele>
        <time>2017-04-24T10:32:43Z</time>
      </trkpt>
      <trkpt lat="46.05914" lon="4.53751">
        <ele>738</ele>
        <time>2017-04-24T10:32:44Z</time>
      </trkpt>
      <trkpt lat="46.05913" lon="4.53759">
        <ele>738</ele>
        <time>2017-04-24T10:34:17Z</time>
      </trkpt>
      <trkpt lat="46.05914" lon="4.53772">
        <ele>738</ele>
        <time>2017-04-24T10:34:18Z</time>
      </trkpt>
      <trkpt lat="46.05922" lon="4.53776">
        <ele>739</ele>
        <time>2017-04-24T10:34:41Z</time>
      </trkpt>
      <trkpt lat="46.05923" lon="4.53777">
        <ele>739</ele>
        <time>2017-04-24T10:34:42Z</time>
      </trkpt>
      <trkpt lat="46.05924" lon="4.53789">
        <ele>739</ele>
        <time>2017-04-24T10:34:46Z</time>
      </trkpt>
      <trkpt lat="46.05925" lon="4.53793">
        <ele>739</ele>
        <time>2017-04-24T10:34:47Z</time>
      </trkpt>
      <trkpt lat="46.05927" lon="4.53804">
        <ele>738</ele>
        <time>2017-04-24T10:34:49Z</time>
      </trkpt>
      <trkpt lat="46.05929" lon="4.53809">
        <ele>738</ele>
        <time>2017-04-24T10:34:50Z</time>
      </trkpt>
      <trkpt lat="46.05931" lon="4.53815">
        <ele>738</ele>
        <time>2017-04-24T10:34:51Z</time>
      </trkpt>
      <trkpt lat="46.05934" lon="4.53822">
        <ele>738</ele>
        <time>2017-04-24T10:34:52Z</time>
      </trkpt>
      <trkpt lat="46.05937" lon="4.53829">
        <ele>738</ele>
        <time>2017-04-24T10:34:53Z</time>
      </trkpt>
      <trkpt lat="46.0594" lon="4.53835">
        <ele>735</ele>
        <time>2017-04-24T10:34:54Z</time>
      </trkpt>
      <trkpt lat="46.05943" lon="4.53841">
        <ele>735</ele>
        <time>2017-04-24T10:34:55Z</time>
      </trkpt>
      <trkpt lat="46.05947" lon="4.53848">
        <ele>735</ele>
        <time>2017-04-24T10:34:56Z</time>
      </trkpt>
      <trkpt lat="46.05951" lon="4.53855">
        <ele>735</ele>
        <time>2017-04-24T10:34:57Z</time>
      </trkpt>
      <trkpt lat="46.05955" lon="4.53862">
        <ele>734</ele>
        <time>2017-04-24T10:34:58Z</time>
      </trkpt>
      <trkpt lat="46.05959" lon="4.53868">
        <ele>734</ele>
        <time>2017-04-24T10:34:59Z</time>
      </trkpt>
      <trkpt lat="46.05963" lon="4.53875">
        <ele>734</ele>
        <time>2017-04-24T10:35:00Z</time>
      </trkpt>
      <trkpt lat="46.05967" lon="4.53881">
        <ele>734</ele>
        <time>2017-04-24T10:35:01Z</time>
      </trkpt>
      <trkpt lat="46.05971" lon="4.53888">
        <ele>734</ele>
        <time>2017-04-24T10:35:02Z</time>
      </trkpt>
      <trkpt lat="46.05976" lon="4.53895">
        <ele>734</ele>
        <time>2017-04-24T10:35:03Z</time>
      </trkpt>
      <trkpt lat="46.05981" lon="4.53902">
        <ele>735</ele>
        <time>2017-04-24T10:35:04Z</time>
      </trkpt>
      <trkpt lat="46.05985" lon="4.53909">
        <ele>735</ele>
        <time>2017-04-24T10:35:05Z</time>
      </trkpt>
      <trkpt lat="46.0599" lon="4.53916">
        <ele>736</ele>
        <time>2017-04-24T10:35:06Z</time>
      </trkpt>
      <trkpt lat="46.05994" lon="4.53924">
        <ele>732</ele>
        <time>2017-04-24T10:35:07Z</time>
      </trkpt>
      <trkpt lat="46.05999" lon="4.53931">
        <ele>730</ele>
        <time>2017-04-24T10:35:08Z</time>
      </trkpt>
      <trkpt lat="46.06004" lon="4.53938">
        <ele>737</ele>
        <time>2017-04-24T10:35:09Z</time>
      </trkpt>
      <trkpt lat="46.06008" lon="4.53945">
        <ele>737</ele>
        <time>2017-04-24T10:35:10Z</time>
      </trkpt>
      <trkpt lat="46.06014" lon="4.53953">
        <ele>737</ele>
        <time>2017-04-24T10:35:11Z</time>
      </trkpt>
      <trkpt lat="46.06019" lon="4.53961">
        <ele>736</ele>
        <time>2017-04-24T10:35:12Z</time>
      </trkpt>
      <trkpt lat="46.06024" lon="4.53969">
        <ele>736</ele>
        <time>2017-04-24T10:35:13Z</time>
      </trkpt>
      <trkpt lat="46.06028" lon="4.53977">
        <ele>736</ele>
        <time>2017-04-24T10:35:14Z</time>
      </trkpt>
      <trkpt lat="46.06034" lon="4.53984">
        <ele>736</ele>
        <time>2017-04-24T10:35:15Z</time>
      </trkpt>
      <trkpt lat="46.06039" lon="4.53992">
        <ele>736</ele>
        <time>2017-04-24T10:35:16Z</time>
      </trkpt>
      <trkpt lat="46.06045" lon="4.54">
        <ele>737</ele>
        <time>2017-04-24T10:35:17Z</time>
      </trkpt>
      <trkpt lat="46.0605" lon="4.54007">
        <ele>729</ele>
        <time>2017-04-24T10:35:18Z</time>
      </trkpt>
      <trkpt lat="46.06056" lon="4.54015">
        <ele>729</ele>
        <time>2017-04-24T10:35:19Z</time>
      </trkpt>
      <trkpt lat="46.06062" lon="4.54022">
        <ele>729</ele>
        <time>2017-04-24T10:35:20Z</time>
      </trkpt>
      <trkpt lat="46.06067" lon="4.5403">
        <ele>729</ele>
        <time>2017-04-24T10:35:21Z</time>
      </trkpt>
      <trkpt lat="46.06073" lon="4.54037">
        <ele>728</ele>
        <time>2017-04-24T10:35:22Z</time>
      </trkpt>
      <trkpt lat="46.06078" lon="4.54044">
        <ele>728</ele>
        <time>2017-04-24T10:35:23Z</time>
      </trkpt>
      <trkpt lat="46.06083" lon="4.54052">
        <ele>727</ele>
        <time>2017-04-24T10:35:24Z</time>
      </trkpt>
      <trkpt lat="46.06089" lon="4.54059">
        <ele>733</ele>
        <time>2017-04-24T10:35:25Z</time>
      </trkpt>
      <trkpt lat="46.06094" lon="4.54067">
        <ele>732</ele>
        <time>2017-04-24T10:35:26Z</time>
      </trkpt>
      <trkpt lat="46.061" lon="4.54073">
        <ele>732</ele>
        <time>2017-04-24T10:35:27Z</time>
      </trkpt>
      <trkpt lat="46.06105" lon="4.5408">
        <ele>732</ele>
        <time>2017-04-24T10:35:28Z</time>
      </trkpt>
      <trkpt lat="46.06111" lon="4.54086">
        <ele>721</ele>
        <time>2017-04-24T10:35:29Z</time>
      </trkpt>
      <trkpt lat="46.06118" lon="4.54091">
        <ele>721</ele>
        <time>2017-04-24T10:35:30Z</time>
      </trkpt>
      <trkpt lat="46.06124" lon="4.54093">
        <ele>720</ele>
        <time>2017-04-24T10:35:31Z</time>
      </trkpt>
      <trkpt lat="46.06131" lon="4.54094">
        <ele>720</ele>
        <time>2017-04-24T10:35:32Z</time>
      </trkpt>
      <trkpt lat="46.06138" lon="4.54093">
        <ele>721</ele>
        <time>2017-04-24T10:35:33Z</time>
      </trkpt>
      <trkpt lat="46.06144" lon="4.5409">
        <ele>721</ele>
        <time>2017-04-24T10:35:34Z</time>
      </trkpt>
      <trkpt lat="46.06151" lon="4.54087">
        <ele>722</ele>
        <time>2017-04-24T10:35:35Z</time>
      </trkpt>
      <trkpt lat="46.06157" lon="4.54085">
        <ele>724</ele>
        <time>2017-04-24T10:35:36Z</time>
      </trkpt>
      <trkpt lat="46.06162" lon="4.54082">
        <ele>729</ele>
        <time>2017-04-24T10:35:37Z</time>
      </trkpt>
      <trkpt lat="46.06167" lon="4.54081">
        <ele>728</ele>
        <time>2017-04-24T10:35:38Z</time>
      </trkpt>
      <trkpt lat="46.06175" lon="4.5408">
        <ele>731</ele>
        <time>2017-04-24T10:35:39Z</time>
      </trkpt>
      <trkpt lat="46.06181" lon="4.5408">
        <ele>732</ele>
        <time>2017-04-24T10:35:40Z</time>
      </trkpt>
      <trkpt lat="46.06186" lon="4.54081">
        <ele>733</ele>
        <time>2017-04-24T10:35:41Z</time>
      </trkpt>
      <trkpt lat="46.06193" lon="4.54082">
        <ele>734</ele>
        <time>2017-04-24T10:35:42Z</time>
      </trkpt>
      <trkpt lat="46.062" lon="4.54083">
        <ele>734</ele>
        <time>2017-04-24T10:35:43Z</time>
      </trkpt>
      <trkpt lat="46.0621" lon="4.54083">
        <ele>734</ele>
        <time>2017-04-24T10:35:44Z</time>
      </trkpt>
      <trkpt lat="46.06218" lon="4.54082">
        <ele>734</ele>
        <time>2017-04-24T10:35:45Z</time>
      </trkpt>
      <trkpt lat="46.06225" lon="4.54082">
        <ele>733</ele>
        <time>2017-04-24T10:35:46Z</time>
      </trkpt>
      <trkpt lat="46.06234" lon="4.54082">
        <ele>730</ele>
        <time>2017-04-24T10:35:47Z</time>
      </trkpt>
      <trkpt lat="46.06242" lon="4.54081">
        <ele>727</ele>
        <time>2017-04-24T10:35:48Z</time>
      </trkpt>
      <trkpt lat="46.06249" lon="4.5408">
        <ele>724</ele>
        <time>2017-04-24T10:35:49Z</time>
      </trkpt>
      <trkpt lat="46.06258" lon="4.5408">
        <ele>727</ele>
        <time>2017-04-24T10:35:50Z</time>
      </trkpt>
      <trkpt lat="46.06266" lon="4.54079">
        <ele>729</ele>
        <time>2017-04-24T10:35:51Z</time>
      </trkpt>
      <trkpt lat="46.06273" lon="4.54078">
        <ele>731</ele>
        <time>2017-04-24T10:35:52Z</time>
      </trkpt>
      <trkpt lat="46.0628" lon="4.54078">
        <ele>732</ele>
        <time>2017-04-24T10:35:53Z</time>
      </trkpt>
      <trkpt lat="46.06289" lon="4.54077">
        <ele>732</ele>
        <time>2017-04-24T10:35:54Z</time>
      </trkpt>
      <trkpt lat="46.06298" lon="4.54078">
        <ele>732</ele>
        <time>2017-04-24T10:35:55Z</time>
      </trkpt>
      <trkpt lat="46.06305" lon="4.54078">
        <ele>731</ele>
        <time>2017-04-24T10:35:56Z</time>
      </trkpt>
      <trkpt lat="46.06314" lon="4.5408">
        <ele>729</ele>
        <time>2017-04-24T10:35:57Z</time>
      </trkpt>
      <trkpt lat="46.06324" lon="4.54081">
        <ele>726</ele>
        <time>2017-04-24T10:35:58Z</time>
      </trkpt>
      <trkpt lat="46.06334" lon="4.54081">
        <ele>721</ele>
        <time>2017-04-24T10:35:59Z</time>
      </trkpt>
      <trkpt lat="46.06343" lon="4.54082">
        <ele>724</ele>
        <time>2017-04-24T10:36:00Z</time>
      </trkpt>
      <trkpt lat="46.06352" lon="4.54081">
        <ele>727</ele>
        <time>2017-04-24T10:36:01Z</time>
      </trkpt>
      <trkpt lat="46.0636" lon="4.54079">
        <ele>728</ele>
        <time>2017-04-24T10:36:02Z</time>
      </trkpt>
      <trkpt lat="46.06368" lon="4.54077">
        <ele>728</ele>
        <time>2017-04-24T10:36:03Z</time>
      </trkpt>
      <trkpt lat="46.06377" lon="4.54076">
        <ele>728</ele>
        <time>2017-04-24T10:36:04Z</time>
      </trkpt>
      <trkpt lat="46.06386" lon="4.54076">
        <ele>727</ele>
        <time>2017-04-24T10:36:05Z</time>
      </trkpt>
      <trkpt lat="46.06395" lon="4.54075">
        <ele>726</ele>
        <time>2017-04-24T10:36:06Z</time>
      </trkpt>
      <trkpt lat="46.06404" lon="4.54074">
        <ele>724</ele>
        <time>2017-04-24T10:36:07Z</time>
      </trkpt>
      <trkpt lat="46.06413" lon="4.54071">
        <ele>723</ele>
        <time>2017-04-24T10:36:08Z</time>
      </trkpt>
      <trkpt lat="46.06421" lon="4.5407">
        <ele>725</ele>
        <time>2017-04-24T10:36:09Z</time>
      </trkpt>
      <trkpt lat="46.06428" lon="4.54068">
        <ele>727</ele>
        <time>2017-04-24T10:36:10Z</time>
      </trkpt>
      <trkpt lat="46.06434" lon="4.54066">
        <ele>728</ele>
        <time>2017-04-24T10:36:11Z</time>
      </trkpt>
      <trkpt lat="46.0644" lon="4.54068">
        <ele>729</ele>
        <time>2017-04-24T10:36:12Z</time>
      </trkpt>
      <trkpt lat="46.06446" lon="4.5407">
        <ele>730</ele>
        <time>2017-04-24T10:36:13Z</time>
      </trkpt>
      <trkpt lat="46.06451" lon="4.54076">
        <ele>730</ele>
        <time>2017-04-24T10:36:14Z</time>
      </trkpt>
      <trkpt lat="46.06456" lon="4.54082">
        <ele>730</ele>
        <time>2017-04-24T10:36:15Z</time>
      </trkpt>
      <trkpt lat="46.0646" lon="4.54088">
        <ele>712</ele>
        <time>2017-04-24T10:36:16Z</time>
      </trkpt>
      <trkpt lat="46.06465" lon="4.54094">
        <ele>712</ele>
        <time>2017-04-24T10:36:17Z</time>
      </trkpt>
      <trkpt lat="46.06471" lon="4.541">
        <ele>712</ele>
        <time>2017-04-24T10:36:18Z</time>
      </trkpt>
      <trkpt lat="46.06476" lon="4.54106">
        <ele>712</ele>
        <time>2017-04-24T10:36:19Z</time>
      </trkpt>
      <trkpt lat="46.06485" lon="4.54112">
        <ele>712</ele>
        <time>2017-04-24T10:36:20Z</time>
      </trkpt>
      <trkpt lat="46.06492" lon="4.54119">
        <ele>710</ele>
        <time>2017-04-24T10:36:21Z</time>
      </trkpt>
      <trkpt lat="46.06497" lon="4.54126">
        <ele>709</ele>
        <time>2017-04-24T10:36:22Z</time>
      </trkpt>
      <trkpt lat="46.06503" lon="4.54134">
        <ele>718</ele>
        <time>2017-04-24T10:36:23Z</time>
      </trkpt>
      <trkpt lat="46.06507" lon="4.54143">
        <ele>716</ele>
        <time>2017-04-24T10:36:24Z</time>
      </trkpt>
      <trkpt lat="46.06511" lon="4.54153">
        <ele>713</ele>
        <time>2017-04-24T10:36:25Z</time>
      </trkpt>
      <trkpt lat="46.06514" lon="4.54164">
        <ele>711</ele>
        <time>2017-04-24T10:36:26Z</time>
      </trkpt>
      <trkpt lat="46.06517" lon="4.54174">
        <ele>706</ele>
        <time>2017-04-24T10:36:27Z</time>
      </trkpt>
      <trkpt lat="46.0652" lon="4.54184">
        <ele>707</ele>
        <time>2017-04-24T10:36:28Z</time>
      </trkpt>
      <trkpt lat="46.06523" lon="4.54194">
        <ele>707</ele>
        <time>2017-04-24T10:36:29Z</time>
      </trkpt>
      <trkpt lat="46.06526" lon="4.54204">
        <ele>707</ele>
        <time>2017-04-24T10:36:30Z</time>
      </trkpt>
      <trkpt lat="46.06527" lon="4.54215">
        <ele>706</ele>
        <time>2017-04-24T10:36:31Z</time>
      </trkpt>
      <trkpt lat="46.06528" lon="4.54225">
        <ele>705</ele>
        <time>2017-04-24T10:36:32Z</time>
      </trkpt>
      <trkpt lat="46.06531" lon="4.54239">
        <ele>705</ele>
        <time>2017-04-24T10:36:33Z</time>
      </trkpt>
      <trkpt lat="46.06532" lon="4.54251">
        <ele>700</ele>
        <time>2017-04-24T10:36:34Z</time>
      </trkpt>
      <trkpt lat="46.06532" lon="4.54262">
        <ele>700</ele>
        <time>2017-04-24T10:36:35Z</time>
      </trkpt>
      <trkpt lat="46.06532" lon="4.54272">
        <ele>700</ele>
        <time>2017-04-24T10:36:36Z</time>
      </trkpt>
      <trkpt lat="46.06532" lon="4.54284">
        <ele>700</ele>
        <time>2017-04-24T10:36:37Z</time>
      </trkpt>
      <trkpt lat="46.06532" lon="4.54296">
        <ele>700</ele>
        <time>2017-04-24T10:36:38Z</time>
      </trkpt>
      <trkpt lat="46.06533" lon="4.54307">
        <ele>700</ele>
        <time>2017-04-24T10:36:39Z</time>
      </trkpt>
      <trkpt lat="46.06534" lon="4.54319">
        <ele>699</ele>
        <time>2017-04-24T10:36:40Z</time>
      </trkpt>
      <trkpt lat="46.06535" lon="4.54331">
        <ele>699</ele>
        <time>2017-04-24T10:36:41Z</time>
      </trkpt>
      <trkpt lat="46.06536" lon="4.54342">
        <ele>697</ele>
        <time>2017-04-24T10:36:42Z</time>
      </trkpt>
      <trkpt lat="46.06536" lon="4.54353">
        <ele>697</ele>
        <time>2017-04-24T10:36:43Z</time>
      </trkpt>
      <trkpt lat="46.06537" lon="4.54364">
        <ele>697</ele>
        <time>2017-04-24T10:36:44Z</time>
      </trkpt>
      <trkpt lat="46.06537" lon="4.54379">
        <ele>696</ele>
        <time>2017-04-24T10:36:45Z</time>
      </trkpt>
      <trkpt lat="46.06538" lon="4.54394">
        <ele>696</ele>
        <time>2017-04-24T10:36:46Z</time>
      </trkpt>
      <trkpt lat="46.06538" lon="4.54407">
        <ele>695</ele>
        <time>2017-04-24T10:36:47Z</time>
      </trkpt>
      <trkpt lat="46.06538" lon="4.5442">
        <ele>692</ele>
        <time>2017-04-24T10:36:48Z</time>
      </trkpt>
      <trkpt lat="46.06538" lon="4.54431">
        <ele>692</ele>
        <time>2017-04-24T10:36:49Z</time>
      </trkpt>
      <trkpt lat="46.06538" lon="4.54441">
        <ele>692</ele>
        <time>2017-04-24T10:36:50Z</time>
      </trkpt>
      <trkpt lat="46.06539" lon="4.54449">
        <ele>692</ele>
        <time>2017-04-24T10:36:51Z</time>
      </trkpt>
      <trkpt lat="46.06541" lon="4.54458">
        <ele>692</ele>
        <time>2017-04-24T10:36:52Z</time>
      </trkpt>
      <trkpt lat="46.06544" lon="4.54466">
        <ele>692</ele>
        <time>2017-04-24T10:36:53Z</time>
      </trkpt>
      <trkpt lat="46.06548" lon="4.54473">
        <ele>692</ele>
        <time>2017-04-24T10:36:54Z</time>
      </trkpt>
      <trkpt lat="46.06553" lon="4.54477">
        <ele>692</ele>
        <time>2017-04-24T10:36:55Z</time>
      </trkpt>
      <trkpt lat="46.06559" lon="4.5448">
        <ele>693</ele>
        <time>2017-04-24T10:36:56Z</time>
      </trkpt>
      <trkpt lat="46.06564" lon="4.54482">
        <ele>693</ele>
        <time>2017-04-24T10:36:57Z</time>
      </trkpt>
      <trkpt lat="46.0657" lon="4.54481">
        <ele>694</ele>
        <time>2017-04-24T10:36:58Z</time>
      </trkpt>
      <trkpt lat="46.06576" lon="4.54479">
        <ele>694</ele>
        <time>2017-04-24T10:36:59Z</time>
      </trkpt>
      <trkpt lat="46.06582" lon="4.54476">
        <ele>694</ele>
        <time>2017-04-24T10:37:00Z</time>
      </trkpt>
      <trkpt lat="46.06588" lon="4.54472">
        <ele>695</ele>
        <time>2017-04-24T10:37:01Z</time>
      </trkpt>
      <trkpt lat="46.06594" lon="4.54469">
        <ele>695</ele>
        <time>2017-04-24T10:37:02Z</time>
      </trkpt>
      <trkpt lat="46.06601" lon="4.54466">
        <ele>694</ele>
        <time>2017-04-24T10:37:03Z</time>
      </trkpt>
      <trkpt lat="46.06609" lon="4.54462">
        <ele>694</ele>
        <time>2017-04-24T10:37:04Z</time>
      </trkpt>
      <trkpt lat="46.06616" lon="4.54458">
        <ele>694</ele>
        <time>2017-04-24T10:37:05Z</time>
      </trkpt>
      <trkpt lat="46.06624" lon="4.54454">
        <ele>694</ele>
        <time>2017-04-24T10:37:06Z</time>
      </trkpt>
      <trkpt lat="46.06631" lon="4.54451">
        <ele>693</ele>
        <time>2017-04-24T10:37:07Z</time>
      </trkpt>
      <trkpt lat="46.06639" lon="4.54446">
        <ele>694</ele>
        <time>2017-04-24T10:37:08Z</time>
      </trkpt>
      <trkpt lat="46.06644" lon="4.54441">
        <ele>694</ele>
        <time>2017-04-24T10:37:09Z</time>
      </trkpt>
      <trkpt lat="46.06652" lon="4.54435">
        <ele>694</ele>
        <time>2017-04-24T10:37:10Z</time>
      </trkpt>
      <trkpt lat="46.06659" lon="4.5443">
        <ele>695</ele>
        <time>2017-04-24T10:37:11Z</time>
      </trkpt>
      <trkpt lat="46.06666" lon="4.54425">
        <ele>696</ele>
        <time>2017-04-24T10:37:12Z</time>
      </trkpt>
      <trkpt lat="46.06672" lon="4.5442">
        <ele>694</ele>
        <time>2017-04-24T10:37:13Z</time>
      </trkpt>
      <trkpt lat="46.06679" lon="4.54416">
        <ele>702</ele>
        <time>2017-04-24T10:37:14Z</time>
      </trkpt>
      <trkpt lat="46.06684" lon="4.54413">
        <ele>703</ele>
        <time>2017-04-24T10:37:15Z</time>
      </trkpt>
      <trkpt lat="46.0669" lon="4.54409">
        <ele>704</ele>
        <time>2017-04-24T10:37:16Z</time>
      </trkpt>
      <trkpt lat="46.06697" lon="4.54405">
        <ele>706</ele>
        <time>2017-04-24T10:37:17Z</time>
      </trkpt>
      <trkpt lat="46.06704" lon="4.54402">
        <ele>706</ele>
        <time>2017-04-24T10:37:18Z</time>
      </trkpt>
      <trkpt lat="46.06712" lon="4.54403">
        <ele>706</ele>
        <time>2017-04-24T10:37:19Z</time>
      </trkpt>
      <trkpt lat="46.06718" lon="4.54405">
        <ele>706</ele>
        <time>2017-04-24T10:37:20Z</time>
      </trkpt>
      <trkpt lat="46.06726" lon="4.54409">
        <ele>704</ele>
        <time>2017-04-24T10:37:21Z</time>
      </trkpt>
      <trkpt lat="46.06733" lon="4.54415">
        <ele>703</ele>
        <time>2017-04-24T10:37:22Z</time>
      </trkpt>
      <trkpt lat="46.0674" lon="4.54421">
        <ele>692</ele>
        <time>2017-04-24T10:37:23Z</time>
      </trkpt>
      <trkpt lat="46.06748" lon="4.54426">
        <ele>693</ele>
        <time>2017-04-24T10:37:24Z</time>
      </trkpt>
      <trkpt lat="46.06756" lon="4.54431">
        <ele>694</ele>
        <time>2017-04-24T10:37:25Z</time>
      </trkpt>
      <trkpt lat="46.06764" lon="4.54434">
        <ele>694</ele>
        <time>2017-04-24T10:37:26Z</time>
      </trkpt>
      <trkpt lat="46.06771" lon="4.54438">
        <ele>694</ele>
        <time>2017-04-24T10:37:27Z</time>
      </trkpt>
      <trkpt lat="46.06778" lon="4.54443">
        <ele>694</ele>
        <time>2017-04-24T10:37:28Z</time>
      </trkpt>
      <trkpt lat="46.06784" lon="4.5445">
        <ele>693</ele>
        <time>2017-04-24T10:37:29Z</time>
      </trkpt>
      <trkpt lat="46.0679" lon="4.54459">
        <ele>693</ele>
        <time>2017-04-24T10:37:30Z</time>
      </trkpt>
      <trkpt lat="46.06794" lon="4.54468">
        <ele>692</ele>
        <time>2017-04-24T10:37:31Z</time>
      </trkpt>
      <trkpt lat="46.06799" lon="4.54481">
        <ele>690</ele>
        <time>2017-04-24T10:37:32Z</time>
      </trkpt>
      <trkpt lat="46.06803" lon="4.54496">
        <ele>689</ele>
        <time>2017-04-24T10:37:33Z</time>
      </trkpt>
      <trkpt lat="46.06806" lon="4.54508">
        <ele>677</ele>
        <time>2017-04-24T10:37:34Z</time>
      </trkpt>
      <trkpt lat="46.0681" lon="4.54521">
        <ele>676</ele>
        <time>2017-04-24T10:37:35Z</time>
      </trkpt>
      <trkpt lat="46.06814" lon="4.54533">
        <ele>674</ele>
        <time>2017-04-24T10:37:36Z</time>
      </trkpt>
      <trkpt lat="46.06819" lon="4.54544">
        <ele>673</ele>
        <time>2017-04-24T10:37:37Z</time>
      </trkpt>
      <trkpt lat="46.06825" lon="4.54554">
        <ele>672</ele>
        <time>2017-04-24T10:37:38Z</time>
      </trkpt>
      <trkpt lat="46.06831" lon="4.54561">
        <ele>671</ele>
        <time>2017-04-24T10:37:39Z</time>
      </trkpt>
      <trkpt lat="46.06837" lon="4.54567">
        <ele>677</ele>
        <time>2017-04-24T10:37:40Z</time>
      </trkpt>
      <trkpt lat="46.06844" lon="4.5457">
        <ele>677</ele>
        <time>2017-04-24T10:37:41Z</time>
      </trkpt>
      <trkpt lat="46.0685" lon="4.54572">
        <ele>678</ele>
        <time>2017-04-24T10:37:42Z</time>
      </trkpt>
      <trkpt lat="46.06857" lon="4.54572">
        <ele>679</ele>
        <time>2017-04-24T10:37:43Z</time>
      </trkpt>
      <trkpt lat="46.06865" lon="4.54572">
        <ele>680</ele>
        <time>2017-04-24T10:37:44Z</time>
      </trkpt>
      <trkpt lat="46.06872" lon="4.5457">
        <ele>681</ele>
        <time>2017-04-24T10:37:45Z</time>
      </trkpt>
      <trkpt lat="46.0688" lon="4.54568">
        <ele>682</ele>
        <time>2017-04-24T10:37:46Z</time>
      </trkpt>
      <trkpt lat="46.06888" lon="4.54566">
        <ele>683</ele>
        <time>2017-04-24T10:37:47Z</time>
      </trkpt>
      <trkpt lat="46.06896" lon="4.54567">
        <ele>683</ele>
        <time>2017-04-24T10:37:48Z</time>
      </trkpt>
      <trkpt lat="46.06903" lon="4.54569">
        <ele>682</ele>
        <time>2017-04-24T10:37:49Z</time>
      </trkpt>
      <trkpt lat="46.06909" lon="4.54573">
        <ele>682</ele>
        <time>2017-04-24T10:37:50Z</time>
      </trkpt>
      <trkpt lat="46.06916" lon="4.54578">
        <ele>680</ele>
        <time>2017-04-24T10:37:51Z</time>
      </trkpt>
      <trkpt lat="46.06922" lon="4.54585">
        <ele>679</ele>
        <time>2017-04-24T10:37:52Z</time>
      </trkpt>
      <trkpt lat="46.06927" lon="4.54591">
        <ele>680</ele>
        <time>2017-04-24T10:37:53Z</time>
      </trkpt>
      <trkpt lat="46.06934" lon="4.54597">
        <ele>680</ele>
        <time>2017-04-24T10:37:54Z</time>
      </trkpt>
      <trkpt lat="46.0694" lon="4.54605">
        <ele>680</ele>
        <time>2017-04-24T10:37:55Z</time>
      </trkpt>
      <trkpt lat="46.06946" lon="4.54613">
        <ele>680</ele>
        <time>2017-04-24T10:37:56Z</time>
      </trkpt>
      <trkpt lat="46.06952" lon="4.54621">
        <ele>680</ele>
        <time>2017-04-24T10:37:57Z</time>
      </trkpt>
      <trkpt lat="46.06956" lon="4.54628">
        <ele>680</ele>
        <time>2017-04-24T10:37:58Z</time>
      </trkpt>
      <trkpt lat="46.0696" lon="4.54638">
        <ele>680</ele>
        <time>2017-04-24T10:37:59Z</time>
      </trkpt>
      <trkpt lat="46.06961" lon="4.54649">
        <ele>679</ele>
        <time>2017-04-24T10:38:00Z</time>
      </trkpt>
      <trkpt lat="46.06961" lon="4.54662">
        <ele>678</ele>
        <time>2017-04-24T10:38:01Z</time>
      </trkpt>
      <trkpt lat="46.0696" lon="4.54673">
        <ele>669</ele>
        <time>2017-04-24T10:38:02Z</time>
      </trkpt>
      <trkpt lat="46.06958" lon="4.54685">
        <ele>668</ele>
        <time>2017-04-24T10:38:03Z</time>
      </trkpt>
      <trkpt lat="46.06955" lon="4.54697">
        <ele>667</ele>
        <time>2017-04-24T10:38:04Z</time>
      </trkpt>
      <trkpt lat="46.06953" lon="4.54711">
        <ele>666</ele>
        <time>2017-04-24T10:38:05Z</time>
      </trkpt>
      <trkpt lat="46.06951" lon="4.54724">
        <ele>664</ele>
        <time>2017-04-24T10:38:06Z</time>
      </trkpt>
      <trkpt lat="46.0695" lon="4.54736">
        <ele>663</ele>
        <time>2017-04-24T10:38:07Z</time>
      </trkpt>
      <trkpt lat="46.06949" lon="4.54748">
        <ele>663</ele>
        <time>2017-04-24T10:38:08Z</time>
      </trkpt>
      <trkpt lat="46.0695" lon="4.54759">
        <ele>656</ele>
        <time>2017-04-24T10:38:09Z</time>
      </trkpt>
      <trkpt lat="46.06951" lon="4.5477">
        <ele>656</ele>
        <time>2017-04-24T10:38:10Z</time>
      </trkpt>
      <trkpt lat="46.06953" lon="4.5478">
        <ele>655</ele>
        <time>2017-04-24T10:38:11Z</time>
      </trkpt>
      <trkpt lat="46.06956" lon="4.54789">
        <ele>655</ele>
        <time>2017-04-24T10:38:12Z</time>
      </trkpt>
      <trkpt lat="46.06959" lon="4.54797">
        <ele>655</ele>
        <time>2017-04-24T10:38:13Z</time>
      </trkpt>
      <trkpt lat="46.06964" lon="4.54804">
        <ele>655</ele>
        <time>2017-04-24T10:38:14Z</time>
      </trkpt>
      <trkpt lat="46.0697" lon="4.5481">
        <ele>654</ele>
        <time>2017-04-24T10:38:15Z</time>
      </trkpt>
      <trkpt lat="46.06977" lon="4.54815">
        <ele>654</ele>
        <time>2017-04-24T10:38:16Z</time>
      </trkpt>
      <trkpt lat="46.06984" lon="4.54817">
        <ele>654</ele>
        <time>2017-04-24T10:38:17Z</time>
      </trkpt>
      <trkpt lat="46.06991" lon="4.54819">
        <ele>654</ele>
        <time>2017-04-24T10:38:18Z</time>
      </trkpt>
      <trkpt lat="46.06998" lon="4.54819">
        <ele>654</ele>
        <time>2017-04-24T10:38:19Z</time>
      </trkpt>
      <trkpt lat="46.07006" lon="4.54818">
        <ele>660</ele>
        <time>2017-04-24T10:38:20Z</time>
      </trkpt>
      <trkpt lat="46.07013" lon="4.54818">
        <ele>661</ele>
        <time>2017-04-24T10:38:21Z</time>
      </trkpt>
      <trkpt lat="46.0702" lon="4.54818">
        <ele>663</ele>
        <time>2017-04-24T10:38:22Z</time>
      </trkpt>
      <trkpt lat="46.07026" lon="4.54819">
        <ele>664</ele>
        <time>2017-04-24T10:38:23Z</time>
      </trkpt>
      <trkpt lat="46.07031" lon="4.54821">
        <ele>664</ele>
        <time>2017-04-24T10:38:24Z</time>
      </trkpt>
      <trkpt lat="46.07036" lon="4.54828">
        <ele>664</ele>
        <time>2017-04-24T10:38:25Z</time>
      </trkpt>
      <trkpt lat="46.07039" lon="4.54834">
        <ele>656</ele>
        <time>2017-04-24T10:38:26Z</time>
      </trkpt>
      <trkpt lat="46.07042" lon="4.54843">
        <ele>656</ele>
        <time>2017-04-24T10:38:27Z</time>
      </trkpt>
      <trkpt lat="46.07044" lon="4.54851">
        <ele>656</ele>
        <time>2017-04-24T10:38:28Z</time>
      </trkpt>
      <trkpt lat="46.07047" lon="4.5486">
        <ele>656</ele>
        <time>2017-04-24T10:38:29Z</time>
      </trkpt>
      <trkpt lat="46.0705" lon="4.5487">
        <ele>655</ele>
        <time>2017-04-24T10:38:30Z</time>
      </trkpt>
      <trkpt lat="46.07052" lon="4.5488">
        <ele>655</ele>
        <time>2017-04-24T10:38:31Z</time>
      </trkpt>
      <trkpt lat="46.07055" lon="4.5489">
        <ele>655</ele>
        <time>2017-04-24T10:38:32Z</time>
      </trkpt>
      <trkpt lat="46.07056" lon="4.54901">
        <ele>655</ele>
        <time>2017-04-24T10:38:33Z</time>
      </trkpt>
      <trkpt lat="46.07058" lon="4.54913">
        <ele>655</ele>
        <time>2017-04-24T10:38:34Z</time>
      </trkpt>
      <trkpt lat="46.07059" lon="4.54924">
        <ele>651</ele>
        <time>2017-04-24T10:38:35Z</time>
      </trkpt>
      <trkpt lat="46.0706" lon="4.54937">
        <ele>650</ele>
        <time>2017-04-24T10:38:36Z</time>
      </trkpt>
      <trkpt lat="46.0706" lon="4.5495">
        <ele>649</ele>
        <time>2017-04-24T10:38:37Z</time>
      </trkpt>
      <trkpt lat="46.07059" lon="4.54964">
        <ele>648</ele>
        <time>2017-04-24T10:38:38Z</time>
      </trkpt>
      <trkpt lat="46.07058" lon="4.54978">
        <ele>648</ele>
        <time>2017-04-24T10:38:39Z</time>
      </trkpt>
      <trkpt lat="46.07057" lon="4.54992">
        <ele>648</ele>
        <time>2017-04-24T10:38:40Z</time>
      </trkpt>
      <trkpt lat="46.07054" lon="4.55007">
        <ele>645</ele>
        <time>2017-04-24T10:38:41Z</time>
      </trkpt>
      <trkpt lat="46.07052" lon="4.55021">
        <ele>644</ele>
        <time>2017-04-24T10:38:42Z</time>
      </trkpt>
      <trkpt lat="46.0705" lon="4.55036">
        <ele>643</ele>
        <time>2017-04-24T10:38:43Z</time>
      </trkpt>
      <trkpt lat="46.07048" lon="4.5505">
        <ele>642</ele>
        <time>2017-04-24T10:38:44Z</time>
      </trkpt>
      <trkpt lat="46.07045" lon="4.55064">
        <ele>642</ele>
        <time>2017-04-24T10:38:45Z</time>
      </trkpt>
      <trkpt lat="46.07042" lon="4.55077">
        <ele>641</ele>
        <time>2017-04-24T10:38:46Z</time>
      </trkpt>
      <trkpt lat="46.07038" lon="4.55089">
        <ele>642</ele>
        <time>2017-04-24T10:38:47Z</time>
      </trkpt>
      <trkpt lat="46.07035" lon="4.55102">
        <ele>641</ele>
        <time>2017-04-24T10:38:48Z</time>
      </trkpt>
      <trkpt lat="46.07031" lon="4.55114">
        <ele>641</ele>
        <time>2017-04-24T10:38:49Z</time>
      </trkpt>
      <trkpt lat="46.07027" lon="4.55127">
        <ele>641</ele>
        <time>2017-04-24T10:38:50Z</time>
      </trkpt>
      <trkpt lat="46.07021" lon="4.5514">
        <ele>640</ele>
        <time>2017-04-24T10:38:51Z</time>
      </trkpt>
      <trkpt lat="46.07016" lon="4.55152">
        <ele>638</ele>
        <time>2017-04-24T10:38:52Z</time>
      </trkpt>
      <trkpt lat="46.0701" lon="4.55166">
        <ele>635</ele>
        <time>2017-04-24T10:38:53Z</time>
      </trkpt>
      <trkpt lat="46.07005" lon="4.55179">
        <ele>638</ele>
        <time>2017-04-24T10:38:54Z</time>
      </trkpt>
      <trkpt lat="46.07" lon="4.55192">
        <ele>624</ele>
        <time>2017-04-24T10:38:55Z</time>
      </trkpt>
      <trkpt lat="46.06994" lon="4.55204">
        <ele>624</ele>
        <time>2017-04-24T10:38:56Z</time>
      </trkpt>
      <trkpt lat="46.06988" lon="4.55217">
        <ele>624</ele>
        <time>2017-04-24T10:38:57Z</time>
      </trkpt>
      <trkpt lat="46.06983" lon="4.5523">
        <ele>625</ele>
        <time>2017-04-24T10:38:58Z</time>
      </trkpt>
      <trkpt lat="46.06977" lon="4.55243">
        <ele>626</ele>
        <time>2017-04-24T10:38:59Z</time>
      </trkpt>
      <trkpt lat="46.06972" lon="4.55255">
        <ele>627</ele>
        <time>2017-04-24T10:39:00Z</time>
      </trkpt>
      <trkpt lat="46.06967" lon="4.55267">
        <ele>626</ele>
        <time>2017-04-24T10:39:01Z</time>
      </trkpt>
      <trkpt lat="46.06962" lon="4.55279">
        <ele>625</ele>
        <time>2017-04-24T10:39:02Z</time>
      </trkpt>
      <trkpt lat="46.06957" lon="4.55291">
        <ele>624</ele>
        <time>2017-04-24T10:39:03Z</time>
      </trkpt>
      <trkpt lat="46.06952" lon="4.55302">
        <ele>623</ele>
        <time>2017-04-24T10:39:04Z</time>
      </trkpt>
      <trkpt lat="46.06947" lon="4.55313">
        <ele>622</ele>
        <time>2017-04-24T10:39:05Z</time>
      </trkpt>
      <trkpt lat="46.06944" lon="4.55325">
        <ele>621</ele>
        <time>2017-04-24T10:39:06Z</time>
      </trkpt>
      <trkpt lat="46.06941" lon="4.55337">
        <ele>621</ele>
        <time>2017-04-24T10:39:07Z</time>
      </trkpt>
      <trkpt lat="46.06938" lon="4.5535">
        <ele>621</ele>
        <time>2017-04-24T10:39:08Z</time>
      </trkpt>
      <trkpt lat="46.06937" lon="4.55363">
        <ele>621</ele>
        <time>2017-04-24T10:39:09Z</time>
      </trkpt>
      <trkpt lat="46.06935" lon="4.55376">
        <ele>621</ele>
        <time>2017-04-24T10:39:10Z</time>
      </trkpt>
      <trkpt lat="46.06934" lon="4.55389">
        <ele>621</ele>
        <time>2017-04-24T10:39:11Z</time>
      </trkpt>
      <trkpt lat="46.06934" lon="4.55403">
        <ele>619</ele>
        <time>2017-04-24T10:39:12Z</time>
      </trkpt>
      <trkpt lat="46.06933" lon="4.55416">
        <ele>618</ele>
        <time>2017-04-24T10:39:13Z</time>
      </trkpt>
      <trkpt lat="46.06934" lon="4.55429">
        <ele>616</ele>
        <time>2017-04-24T10:39:14Z</time>
      </trkpt>
      <trkpt lat="46.06934" lon="4.55442">
        <ele>616</ele>
        <time>2017-04-24T10:39:15Z</time>
      </trkpt>
      <trkpt lat="46.06936" lon="4.55454">
        <ele>616</ele>
        <time>2017-04-24T10:39:16Z</time>
      </trkpt>
      <trkpt lat="46.06938" lon="4.55467">
        <ele>616</ele>
        <time>2017-04-24T10:39:17Z</time>
      </trkpt>
      <trkpt lat="46.0694" lon="4.5548">
        <ele>615</ele>
        <time>2017-04-24T10:39:18Z</time>
      </trkpt>
      <trkpt lat="46.06943" lon="4.55492">
        <ele>614</ele>
        <time>2017-04-24T10:39:19Z</time>
      </trkpt>
      <trkpt lat="46.06946" lon="4.55504">
        <ele>607</ele>
        <time>2017-04-24T10:39:20Z</time>
      </trkpt>
      <trkpt lat="46.0695" lon="4.55516">
        <ele>607</ele>
        <time>2017-04-24T10:39:21Z</time>
      </trkpt>
      <trkpt lat="46.06955" lon="4.55527">
        <ele>607</ele>
        <time>2017-04-24T10:39:22Z</time>
      </trkpt>
      <trkpt lat="46.0696" lon="4.55537">
        <ele>606</ele>
        <time>2017-04-24T10:39:23Z</time>
      </trkpt>
      <trkpt lat="46.06966" lon="4.55547">
        <ele>606</ele>
        <time>2017-04-24T10:39:24Z</time>
      </trkpt>
      <trkpt lat="46.06972" lon="4.55556">
        <ele>606</ele>
        <time>2017-04-24T10:39:25Z</time>
      </trkpt>
      <trkpt lat="46.06979" lon="4.55565">
        <ele>606</ele>
        <time>2017-04-24T10:39:26Z</time>
      </trkpt>
      <trkpt lat="46.06985" lon="4.55575">
        <ele>606</ele>
        <time>2017-04-24T10:39:27Z</time>
      </trkpt>
      <trkpt lat="46.06991" lon="4.55585">
        <ele>602</ele>
        <time>2017-04-24T10:39:28Z</time>
      </trkpt>
      <trkpt lat="46.06996" lon="4.55596">
        <ele>600</ele>
        <time>2017-04-24T10:39:29Z</time>
      </trkpt>
      <trkpt lat="46.07" lon="4.55608">
        <ele>597</ele>
        <time>2017-04-24T10:39:30Z</time>
      </trkpt>
      <trkpt lat="46.07003" lon="4.5562">
        <ele>603</ele>
        <time>2017-04-24T10:39:31Z</time>
      </trkpt>
      <trkpt lat="46.07006" lon="4.55632">
        <ele>602</ele>
        <time>2017-04-24T10:39:32Z</time>
      </trkpt>
      <trkpt lat="46.0701" lon="4.55644">
        <ele>600</ele>
        <time>2017-04-24T10:39:33Z</time>
      </trkpt>
      <trkpt lat="46.07013" lon="4.55655">
        <ele>599</ele>
        <time>2017-04-24T10:39:34Z</time>
      </trkpt>
      <trkpt lat="46.07015" lon="4.55666">
        <ele>598</ele>
        <time>2017-04-24T10:39:35Z</time>
      </trkpt>
      <trkpt lat="46.07017" lon="4.55675">
        <ele>592</ele>
        <time>2017-04-24T10:39:36Z</time>
      </trkpt>
      <trkpt lat="46.07019" lon="4.55684">
        <ele>592</ele>
        <time>2017-04-24T10:39:37Z</time>
      </trkpt>
      <trkpt lat="46.0702" lon="4.55692">
        <ele>591</ele>
        <time>2017-04-24T10:39:38Z</time>
      </trkpt>
      <trkpt lat="46.07021" lon="4.557">
        <ele>591</ele>
        <time>2017-04-24T10:39:39Z</time>
      </trkpt>
      <trkpt lat="46.07022" lon="4.55708">
        <ele>590</ele>
        <time>2017-04-24T10:39:40Z</time>
      </trkpt>
      <trkpt lat="46.07021" lon="4.55716">
        <ele>590</ele>
        <time>2017-04-24T10:39:41Z</time>
      </trkpt>
      <trkpt lat="46.07018" lon="4.55723">
        <ele>590</ele>
        <time>2017-04-24T10:39:42Z</time>
      </trkpt>
      <trkpt lat="46.07014" lon="4.5573">
        <ele>589</ele>
        <time>2017-04-24T10:39:43Z</time>
      </trkpt>
      <trkpt lat="46.07009" lon="4.55735">
        <ele>589</ele>
        <time>2017-04-24T10:39:44Z</time>
      </trkpt>
      <trkpt lat="46.07003" lon="4.5574">
        <ele>589</ele>
        <time>2017-04-24T10:39:45Z</time>
      </trkpt>
      <trkpt lat="46.06996" lon="4.55745">
        <ele>587</ele>
        <time>2017-04-24T10:39:46Z</time>
      </trkpt>
      <trkpt lat="46.0699" lon="4.5575">
        <ele>586</ele>
        <time>2017-04-24T10:39:47Z</time>
      </trkpt>
      <trkpt lat="46.06983" lon="4.55756">
        <ele>585</ele>
        <time>2017-04-24T10:39:48Z</time>
      </trkpt>
      <trkpt lat="46.06975" lon="4.55762">
        <ele>584</ele>
        <time>2017-04-24T10:39:49Z</time>
      </trkpt>
      <trkpt lat="46.06968" lon="4.55768">
        <ele>583</ele>
        <time>2017-04-24T10:39:50Z</time>
      </trkpt>
      <trkpt lat="46.06961" lon="4.55774">
        <ele>582</ele>
        <time>2017-04-24T10:39:51Z</time>
      </trkpt>
      <trkpt lat="46.06954" lon="4.5578">
        <ele>582</ele>
        <time>2017-04-24T10:39:52Z</time>
      </trkpt>
      <trkpt lat="46.06947" lon="4.55786">
        <ele>582</ele>
        <time>2017-04-24T10:39:53Z</time>
      </trkpt>
      <trkpt lat="46.0694" lon="4.55792">
        <ele>582</ele>
        <time>2017-04-24T10:39:54Z</time>
      </trkpt>
      <trkpt lat="46.06933" lon="4.55799">
        <ele>582</ele>
        <time>2017-04-24T10:39:55Z</time>
      </trkpt>
      <trkpt lat="46.06926" lon="4.55805">
        <ele>582</ele>
        <time>2017-04-24T10:39:56Z</time>
      </trkpt>
      <trkpt lat="46.0692" lon="4.55812">
        <ele>582</ele>
        <time>2017-04-24T10:39:57Z</time>
      </trkpt>
      <trkpt lat="46.06913" lon="4.5582">
        <ele>575</ele>
        <time>2017-04-24T10:39:58Z</time>
      </trkpt>
      <trkpt lat="46.06906" lon="4.55828">
        <ele>576</ele>
        <time>2017-04-24T10:39:59Z</time>
      </trkpt>
      <trkpt lat="46.069" lon="4.55837">
        <ele>577</ele>
        <time>2017-04-24T10:40:00Z</time>
      </trkpt>
      <trkpt lat="46.06893" lon="4.55848">
        <ele>575</ele>
        <time>2017-04-24T10:40:01Z</time>
      </trkpt>
      <trkpt lat="46.06888" lon="4.55859">
        <ele>574</ele>
        <time>2017-04-24T10:40:02Z</time>
      </trkpt>
      <trkpt lat="46.06883" lon="4.55871">
        <ele>573</ele>
        <time>2017-04-24T10:40:03Z</time>
      </trkpt>
      <trkpt lat="46.06878" lon="4.55883">
        <ele>573</ele>
        <time>2017-04-24T10:40:04Z</time>
      </trkpt>
      <trkpt lat="46.06874" lon="4.55896">
        <ele>573</ele>
        <time>2017-04-24T10:40:05Z</time>
      </trkpt>
      <trkpt lat="46.06871" lon="4.55909">
        <ele>572</ele>
        <time>2017-04-24T10:40:06Z</time>
      </trkpt>
      <trkpt lat="46.06869" lon="4.55923">
        <ele>572</ele>
        <time>2017-04-24T10:40:07Z</time>
      </trkpt>
      <trkpt lat="46.06867" lon="4.55936">
        <ele>571</ele>
        <time>2017-04-24T10:40:08Z</time>
      </trkpt>
      <trkpt lat="46.06866" lon="4.5595">
        <ele>571</ele>
        <time>2017-04-24T10:40:09Z</time>
      </trkpt>
      <trkpt lat="46.06867" lon="4.55965">
        <ele>571</ele>
        <time>2017-04-24T10:40:10Z</time>
      </trkpt>
      <trkpt lat="46.06867" lon="4.5598">
        <ele>570</ele>
        <time>2017-04-24T10:40:11Z</time>
      </trkpt>
      <trkpt lat="46.06867" lon="4.55994">
        <ele>570</ele>
        <time>2017-04-24T10:40:12Z</time>
      </trkpt>
      <trkpt lat="46.06868" lon="4.56009">
        <ele>566</ele>
        <time>2017-04-24T10:40:13Z</time>
      </trkpt>
      <trkpt lat="46.06869" lon="4.56024">
        <ele>566</ele>
        <time>2017-04-24T10:40:14Z</time>
      </trkpt>
      <trkpt lat="46.06869" lon="4.56039">
        <ele>566</ele>
        <time>2017-04-24T10:40:15Z</time>
      </trkpt>
      <trkpt lat="46.06869" lon="4.56054">
        <ele>565</ele>
        <time>2017-04-24T10:40:16Z</time>
      </trkpt>
      <trkpt lat="46.06869" lon="4.56069">
        <ele>564</ele>
        <time>2017-04-24T10:40:17Z</time>
      </trkpt>
      <trkpt lat="46.06869" lon="4.56083">
        <ele>564</ele>
        <time>2017-04-24T10:40:18Z</time>
      </trkpt>
      <trkpt lat="46.06868" lon="4.56097">
        <ele>561</ele>
        <time>2017-04-24T10:40:19Z</time>
      </trkpt>
      <trkpt lat="46.06868" lon="4.56111">
        <ele>561</ele>
        <time>2017-04-24T10:40:20Z</time>
      </trkpt>
      <trkpt lat="46.06867" lon="4.56123">
        <ele>561</ele>
        <time>2017-04-24T10:40:21Z</time>
      </trkpt>
      <trkpt lat="46.06867" lon="4.56134">
        <ele>561</ele>
        <time>2017-04-24T10:40:22Z</time>
      </trkpt>
      <trkpt lat="46.06866" lon="4.56143">
        <ele>561</ele>
        <time>2017-04-24T10:40:23Z</time>
      </trkpt>
      <trkpt lat="46.06863" lon="4.56153">
        <ele>560</ele>
        <time>2017-04-24T10:40:24Z</time>
      </trkpt>
      <trkpt lat="46.06858" lon="4.56163">
        <ele>559</ele>
        <time>2017-04-24T10:40:25Z</time>
      </trkpt>
      <trkpt lat="46.06853" lon="4.56171">
        <ele>559</ele>
        <time>2017-04-24T10:40:26Z</time>
      </trkpt>
      <trkpt lat="46.06847" lon="4.56179">
        <ele>559</ele>
        <time>2017-04-24T10:40:27Z</time>
      </trkpt>
      <trkpt lat="46.0684" lon="4.56186">
        <ele>559</ele>
        <time>2017-04-24T10:40:28Z</time>
      </trkpt>
      <trkpt lat="46.06832" lon="4.56191">
        <ele>552</ele>
        <time>2017-04-24T10:40:29Z</time>
      </trkpt>
      <trkpt lat="46.06823" lon="4.56196">
        <ele>552</ele>
        <time>2017-04-24T10:40:30Z</time>
      </trkpt>
      <trkpt lat="46.06814" lon="4.56201">
        <ele>551</ele>
        <time>2017-04-24T10:40:31Z</time>
      </trkpt>
      <trkpt lat="46.06805" lon="4.56206">
        <ele>551</ele>
        <time>2017-04-24T10:40:32Z</time>
      </trkpt>
      <trkpt lat="46.06795" lon="4.56211">
        <ele>550</ele>
        <time>2017-04-24T10:40:33Z</time>
      </trkpt>
      <trkpt lat="46.06785" lon="4.56217">
        <ele>550</ele>
        <time>2017-04-24T10:40:34Z</time>
      </trkpt>
      <trkpt lat="46.06776" lon="4.56222">
        <ele>549</ele>
        <time>2017-04-24T10:40:35Z</time>
      </trkpt>
      <trkpt lat="46.06767" lon="4.56228">
        <ele>549</ele>
        <time>2017-04-24T10:40:36Z</time>
      </trkpt>
      <trkpt lat="46.06758" lon="4.56234">
        <ele>549</ele>
        <time>2017-04-24T10:40:37Z</time>
      </trkpt>
      <trkpt lat="46.06749" lon="4.5624">
        <ele>542</ele>
        <time>2017-04-24T10:40:38Z</time>
      </trkpt>
      <trkpt lat="46.06739" lon="4.56246">
        <ele>541</ele>
        <time>2017-04-24T10:40:39Z</time>
      </trkpt>
      <trkpt lat="46.06731" lon="4.56252">
        <ele>543</ele>
        <time>2017-04-24T10:40:40Z</time>
      </trkpt>
      <trkpt lat="46.06722" lon="4.56259">
        <ele>542</ele>
        <time>2017-04-24T10:40:41Z</time>
      </trkpt>
      <trkpt lat="46.06714" lon="4.56266">
        <ele>540</ele>
        <time>2017-04-24T10:40:42Z</time>
      </trkpt>
      <trkpt lat="46.06707" lon="4.56274">
        <ele>539</ele>
        <time>2017-04-24T10:40:43Z</time>
      </trkpt>
      <trkpt lat="46.06699" lon="4.56283">
        <ele>538</ele>
        <time>2017-04-24T10:40:44Z</time>
      </trkpt>
      <trkpt lat="46.06692" lon="4.56292">
        <ele>538</ele>
        <time>2017-04-24T10:40:45Z</time>
      </trkpt>
      <trkpt lat="46.06686" lon="4.56302">
        <ele>537</ele>
        <time>2017-04-24T10:40:46Z</time>
      </trkpt>
      <trkpt lat="46.0668" lon="4.56314">
        <ele>536</ele>
        <time>2017-04-24T10:40:47Z</time>
      </trkpt>
      <trkpt lat="46.06675" lon="4.56325">
        <ele>534</ele>
        <time>2017-04-24T10:40:48Z</time>
      </trkpt>
      <trkpt lat="46.0667" lon="4.56338">
        <ele>534</ele>
        <time>2017-04-24T10:40:49Z</time>
      </trkpt>
      <trkpt lat="46.06665" lon="4.5635">
        <ele>529</ele>
        <time>2017-04-24T10:40:50Z</time>
      </trkpt>
      <trkpt lat="46.0666" lon="4.56361">
        <ele>529</ele>
        <time>2017-04-24T10:40:51Z</time>
      </trkpt>
      <trkpt lat="46.06655" lon="4.56372">
        <ele>530</ele>
        <time>2017-04-24T10:40:52Z</time>
      </trkpt>
      <trkpt lat="46.06649" lon="4.56381">
        <ele>530</ele>
        <time>2017-04-24T10:40:53Z</time>
      </trkpt>
      <trkpt lat="46.06643" lon="4.5639">
        <ele>530</ele>
        <time>2017-04-24T10:40:54Z</time>
      </trkpt>
      <trkpt lat="46.06636" lon="4.56398">
        <ele>530</ele>
        <time>2017-04-24T10:40:55Z</time>
      </trkpt>
      <trkpt lat="46.06628" lon="4.56405">
        <ele>529</ele>
        <time>2017-04-24T10:40:56Z</time>
      </trkpt>
      <trkpt lat="46.06619" lon="4.5641">
        <ele>528</ele>
        <time>2017-04-24T10:40:57Z</time>
      </trkpt>
      <trkpt lat="46.0661" lon="4.56415">
        <ele>527</ele>
        <time>2017-04-24T10:40:58Z</time>
      </trkpt>
      <trkpt lat="46.06601" lon="4.56419">
        <ele>531</ele>
        <time>2017-04-24T10:40:59Z</time>
      </trkpt>
      <trkpt lat="46.06592" lon="4.56423">
        <ele>529</ele>
        <time>2017-04-24T10:41:00Z</time>
      </trkpt>
      <trkpt lat="46.06582" lon="4.56427">
        <ele>524</ele>
        <time>2017-04-24T10:41:01Z</time>
      </trkpt>
      <trkpt lat="46.06573" lon="4.5643">
        <ele>523</ele>
        <time>2017-04-24T10:41:02Z</time>
      </trkpt>
      <trkpt lat="46.06563" lon="4.56434">
        <ele>523</ele>
        <time>2017-04-24T10:41:03Z</time>
      </trkpt>
      <trkpt lat="46.06554" lon="4.56439">
        <ele>522</ele>
        <time>2017-04-24T10:41:04Z</time>
      </trkpt>
      <trkpt lat="46.06545" lon="4.56444">
        <ele>521</ele>
        <time>2017-04-24T10:41:05Z</time>
      </trkpt>
      <trkpt lat="46.06536" lon="4.5645">
        <ele>520</ele>
        <time>2017-04-24T10:41:06Z</time>
      </trkpt>
      <trkpt lat="46.06527" lon="4.56456">
        <ele>520</ele>
        <time>2017-04-24T10:41:07Z</time>
      </trkpt>
      <trkpt lat="46.06518" lon="4.56463">
        <ele>520</ele>
        <time>2017-04-24T10:41:08Z</time>
      </trkpt>
      <trkpt lat="46.0651" lon="4.56471">
        <ele>520</ele>
        <time>2017-04-24T10:41:09Z</time>
      </trkpt>
      <trkpt lat="46.06501" lon="4.56479">
        <ele>521</ele>
        <time>2017-04-24T10:41:10Z</time>
      </trkpt>
      <trkpt lat="46.06493" lon="4.56486">
        <ele>513</ele>
        <time>2017-04-24T10:41:11Z</time>
      </trkpt>
      <trkpt lat="46.06485" lon="4.56494">
        <ele>513</ele>
        <time>2017-04-24T10:41:12Z</time>
      </trkpt>
      <trkpt lat="46.06477" lon="4.56502">
        <ele>517</ele>
        <time>2017-04-24T10:41:13Z</time>
      </trkpt>
      <trkpt lat="46.0647" lon="4.56509">
        <ele>515</ele>
        <time>2017-04-24T10:41:14Z</time>
      </trkpt>
      <trkpt lat="46.06463" lon="4.56516">
        <ele>515</ele>
        <time>2017-04-24T10:41:15Z</time>
      </trkpt>
      <trkpt lat="46.06457" lon="4.56522">
        <ele>514</ele>
        <time>2017-04-24T10:41:16Z</time>
      </trkpt>
      <trkpt lat="46.06452" lon="4.56527">
        <ele>513</ele>
        <time>2017-04-24T10:41:17Z</time>
      </trkpt>
      <trkpt lat="46.06446" lon="4.56533">
        <ele>513</ele>
        <time>2017-04-24T10:41:18Z</time>
      </trkpt>
      <trkpt lat="46.06441" lon="4.56537">
        <ele>513</ele>
        <time>2017-04-24T10:41:19Z</time>
      </trkpt>
      <trkpt lat="46.06436" lon="4.56542">
        <ele>513</ele>
        <time>2017-04-24T10:41:20Z</time>
      </trkpt>
      <trkpt lat="46.06432" lon="4.56547">
        <ele>512</ele>
        <time>2017-04-24T10:41:21Z</time>
      </trkpt>
      <trkpt lat="46.06427" lon="4.56552">
        <ele>512</ele>
        <time>2017-04-24T10:41:22Z</time>
      </trkpt>
      <trkpt lat="46.06423" lon="4.56557">
        <ele>512</ele>
        <time>2017-04-24T10:41:23Z</time>
      </trkpt>
      <trkpt lat="46.0642" lon="4.56562">
        <ele>512</ele>
        <time>2017-04-24T10:41:24Z</time>
      </trkpt>
      <trkpt lat="46.06416" lon="4.56567">
        <ele>503</ele>
        <time>2017-04-24T10:41:25Z</time>
      </trkpt>
      <trkpt lat="46.0641" lon="4.56575">
        <ele>504</ele>
        <time>2017-04-24T10:41:27Z</time>
      </trkpt>
      <trkpt lat="46.06406" lon="4.56576">
        <ele>504</ele>
        <time>2017-04-24T10:41:28Z</time>
      </trkpt>
      <trkpt lat="46.06401" lon="4.56571">
        <ele>501</ele>
        <time>2017-04-24T10:41:30Z</time>
      </trkpt>
      <trkpt lat="46.06401" lon="4.56565">
        <ele>500</ele>
        <time>2017-04-24T10:41:31Z</time>
      </trkpt>
      <trkpt lat="46.06403" lon="4.56558">
        <ele>499</ele>
        <time>2017-04-24T10:41:32Z</time>
      </trkpt>
      <trkpt lat="46.06405" lon="4.56551">
        <ele>499</ele>
        <time>2017-04-24T10:41:33Z</time>
      </trkpt>
      <trkpt lat="46.06409" lon="4.56545">
        <ele>498</ele>
        <time>2017-04-24T10:41:34Z</time>
      </trkpt>
      <trkpt lat="46.06413" lon="4.56538">
        <ele>498</ele>
        <time>2017-04-24T10:41:35Z</time>
      </trkpt>
      <trkpt lat="46.06417" lon="4.5653">
        <ele>510</ele>
        <time>2017-04-24T10:41:36Z</time>
      </trkpt>
      <trkpt lat="46.06421" lon="4.56523">
        <ele>509</ele>
        <time>2017-04-24T10:41:37Z</time>
      </trkpt>
      <trkpt lat="46.06426" lon="4.56515">
        <ele>508</ele>
        <time>2017-04-24T10:41:38Z</time>
      </trkpt>
      <trkpt lat="46.0643" lon="4.56507">
        <ele>508</ele>
        <time>2017-04-24T10:41:39Z</time>
      </trkpt>
      <trkpt lat="46.06434" lon="4.56499">
        <ele>504</ele>
        <time>2017-04-24T10:41:40Z</time>
      </trkpt>
      <trkpt lat="46.06439" lon="4.5649">
        <ele>504</ele>
        <time>2017-04-24T10:41:41Z</time>
      </trkpt>
      <trkpt lat="46.06443" lon="4.56481">
        <ele>504</ele>
        <time>2017-04-24T10:41:42Z</time>
      </trkpt>
      <trkpt lat="46.06448" lon="4.56471">
        <ele>504</ele>
        <time>2017-04-24T10:41:43Z</time>
      </trkpt>
      <trkpt lat="46.06453" lon="4.56462">
        <ele>504</ele>
        <time>2017-04-24T10:41:44Z</time>
      </trkpt>
      <trkpt lat="46.06458" lon="4.56452">
        <ele>504</ele>
        <time>2017-04-24T10:41:45Z</time>
      </trkpt>
      <trkpt lat="46.06463" lon="4.56442">
        <ele>504</ele>
        <time>2017-04-24T10:41:46Z</time>
      </trkpt>
      <trkpt lat="46.06468" lon="4.56432">
        <ele>504</ele>
        <time>2017-04-24T10:41:47Z</time>
      </trkpt>
      <trkpt lat="46.06473" lon="4.56422">
        <ele>504</ele>
        <time>2017-04-24T10:41:48Z</time>
      </trkpt>
      <trkpt lat="46.06478" lon="4.56412">
        <ele>496</ele>
        <time>2017-04-24T10:41:49Z</time>
      </trkpt>
      <trkpt lat="46.06483" lon="4.56402">
        <ele>496</ele>
        <time>2017-04-24T10:41:50Z</time>
      </trkpt>
      <trkpt lat="46.06488" lon="4.56392">
        <ele>495</ele>
        <time>2017-04-24T10:41:51Z</time>
      </trkpt>
      <trkpt lat="46.06492" lon="4.56383">
        <ele>493</ele>
        <time>2017-04-24T10:41:52Z</time>
      </trkpt>
      <trkpt lat="46.06497" lon="4.56373">
        <ele>492</ele>
        <time>2017-04-24T10:41:53Z</time>
      </trkpt>
      <trkpt lat="46.06502" lon="4.56364">
        <ele>503</ele>
        <time>2017-04-24T10:41:54Z</time>
      </trkpt>
      <trkpt lat="46.06507" lon="4.56356">
        <ele>501</ele>
        <time>2017-04-24T10:41:55Z</time>
      </trkpt>
      <trkpt lat="46.06512" lon="4.56348">
        <ele>500</ele>
        <time>2017-04-24T10:41:56Z</time>
      </trkpt>
      <trkpt lat="46.06517" lon="4.56342">
        <ele>500</ele>
        <time>2017-04-24T10:41:57Z</time>
      </trkpt>
      <trkpt lat="46.06522" lon="4.56336">
        <ele>501</ele>
        <time>2017-04-24T10:41:58Z</time>
      </trkpt>
      <trkpt lat="46.06528" lon="4.56332">
        <ele>494</ele>
        <time>2017-04-24T10:41:59Z</time>
      </trkpt>
      <trkpt lat="46.06533" lon="4.56327">
        <ele>494</ele>
        <time>2017-04-24T10:42:00Z</time>
      </trkpt>
      <trkpt lat="46.06537" lon="4.56324">
        <ele>495</ele>
        <time>2017-04-24T10:42:01Z</time>
      </trkpt>
      <trkpt lat="46.06543" lon="4.56317">
        <ele>496</ele>
        <time>2017-04-24T10:42:03Z</time>
      </trkpt>
      <trkpt lat="46.06545" lon="4.56313">
        <ele>496</ele>
        <time>2017-04-24T10:42:04Z</time>
      </trkpt>
      <trkpt lat="46.06545" lon="4.56304">
        <ele>495</ele>
        <time>2017-04-24T10:42:06Z</time>
      </trkpt>
      <trkpt lat="46.06543" lon="4.56299">
        <ele>494</ele>
        <time>2017-04-24T10:42:07Z</time>
      </trkpt>
      <trkpt lat="46.06536" lon="4.56297">
        <ele>493</ele>
        <time>2017-04-24T10:42:09Z</time>
      </trkpt>
      <trkpt lat="46.06531" lon="4.563">
        <ele>493</ele>
        <time>2017-04-24T10:42:10Z</time>
      </trkpt>
      <trkpt lat="46.06527" lon="4.56304">
        <ele>492</ele>
        <time>2017-04-24T10:42:11Z</time>
      </trkpt>
      <trkpt lat="46.06522" lon="4.56309">
        <ele>492</ele>
        <time>2017-04-24T10:42:12Z</time>
      </trkpt>
      <trkpt lat="46.06517" lon="4.56313">
        <ele>492</ele>
        <time>2017-04-24T10:42:13Z</time>
      </trkpt>
      <trkpt lat="46.06512" lon="4.56317">
        <ele>492</ele>
        <time>2017-04-24T10:42:14Z</time>
      </trkpt>
      <trkpt lat="46.06507" lon="4.56321">
        <ele>492</ele>
        <time>2017-04-24T10:42:15Z</time>
      </trkpt>
      <trkpt lat="46.06502" lon="4.56326">
        <ele>491</ele>
        <time>2017-04-24T10:42:16Z</time>
      </trkpt>
      <trkpt lat="46.06496" lon="4.5633">
        <ele>487</ele>
        <time>2017-04-24T10:42:17Z</time>
      </trkpt>
      <trkpt lat="46.0649" lon="4.56335">
        <ele>490</ele>
        <time>2017-04-24T10:42:18Z</time>
      </trkpt>
      <trkpt lat="46.06484" lon="4.5634">
        <ele>489</ele>
        <time>2017-04-24T10:42:19Z</time>
      </trkpt>
      <trkpt lat="46.06477" lon="4.56345">
        <ele>489</ele>
        <time>2017-04-24T10:42:20Z</time>
      </trkpt>
      <trkpt lat="46.06469" lon="4.5635">
        <ele>488</ele>
        <time>2017-04-24T10:42:21Z</time>
      </trkpt>
      <trkpt lat="46.06462" lon="4.56356">
        <ele>488</ele>
        <time>2017-04-24T10:42:22Z</time>
      </trkpt>
      <trkpt lat="46.06455" lon="4.56362">
        <ele>487</ele>
        <time>2017-04-24T10:42:23Z</time>
      </trkpt>
      <trkpt lat="46.06448" lon="4.56368">
        <ele>487</ele>
        <time>2017-04-24T10:42:24Z</time>
      </trkpt>
      <trkpt lat="46.0644" lon="4.56374">
        <ele>487</ele>
        <time>2017-04-24T10:42:25Z</time>
      </trkpt>
      <trkpt lat="46.06433" lon="4.56379">
        <ele>487</ele>
        <time>2017-04-24T10:42:26Z</time>
      </trkpt>
      <trkpt lat="46.06425" lon="4.56384">
        <ele>487</ele>
        <time>2017-04-24T10:42:27Z</time>
      </trkpt>
      <trkpt lat="46.06417" lon="4.56389">
        <ele>487</ele>
        <time>2017-04-24T10:42:28Z</time>
      </trkpt>
      <trkpt lat="46.0641" lon="4.56394">
        <ele>476</ele>
        <time>2017-04-24T10:42:29Z</time>
      </trkpt>
      <trkpt lat="46.06402" lon="4.56398">
        <ele>476</ele>
        <time>2017-04-24T10:42:30Z</time>
      </trkpt>
      <trkpt lat="46.06394" lon="4.56403">
        <ele>475</ele>
        <time>2017-04-24T10:42:31Z</time>
      </trkpt>
      <trkpt lat="46.06386" lon="4.56407">
        <ele>473</ele>
        <time>2017-04-24T10:42:32Z</time>
      </trkpt>
      <trkpt lat="46.06378" lon="4.56411">
        <ele>471</ele>
        <time>2017-04-24T10:42:33Z</time>
      </trkpt>
      <trkpt lat="46.0637" lon="4.56415">
        <ele>470</ele>
        <time>2017-04-24T10:42:34Z</time>
      </trkpt>
      <trkpt lat="46.06362" lon="4.56419">
        <ele>477</ele>
        <time>2017-04-24T10:42:35Z</time>
      </trkpt>
      <trkpt lat="46.06354" lon="4.56424">
        <ele>475</ele>
        <time>2017-04-24T10:42:36Z</time>
      </trkpt>
      <trkpt lat="46.06347" lon="4.56428">
        <ele>473</ele>
        <time>2017-04-24T10:42:37Z</time>
      </trkpt>
      <trkpt lat="46.06339" lon="4.56433">
        <ele>473</ele>
        <time>2017-04-24T10:42:38Z</time>
      </trkpt>
      <trkpt lat="46.06331" lon="4.56438">
        <ele>462</ele>
        <time>2017-04-24T10:42:39Z</time>
      </trkpt>
      <trkpt lat="46.06323" lon="4.56445">
        <ele>462</ele>
        <time>2017-04-24T10:42:40Z</time>
      </trkpt>
      <trkpt lat="46.06316" lon="4.56452">
        <ele>462</ele>
        <time>2017-04-24T10:42:41Z</time>
      </trkpt>
      <trkpt lat="46.06309" lon="4.56461">
        <ele>462</ele>
        <time>2017-04-24T10:42:42Z</time>
      </trkpt>
      <trkpt lat="46.06302" lon="4.56469">
        <ele>462</ele>
        <time>2017-04-24T10:42:43Z</time>
      </trkpt>
      <trkpt lat="46.06295" lon="4.56477">
        <ele>462</ele>
        <time>2017-04-24T10:42:44Z</time>
      </trkpt>
      <trkpt lat="46.06288" lon="4.56486">
        <ele>461</ele>
        <time>2017-04-24T10:42:45Z</time>
      </trkpt>
      <trkpt lat="46.06282" lon="4.56494">
        <ele>460</ele>
        <time>2017-04-24T10:42:46Z</time>
      </trkpt>
      <trkpt lat="46.06276" lon="4.56503">
        <ele>464</ele>
        <time>2017-04-24T10:42:47Z</time>
      </trkpt>
      <trkpt lat="46.0627" lon="4.56512">
        <ele>463</ele>
        <time>2017-04-24T10:42:48Z</time>
      </trkpt>
      <trkpt lat="46.06265" lon="4.56521">
        <ele>463</ele>
        <time>2017-04-24T10:42:49Z</time>
      </trkpt>
      <trkpt lat="46.0626" lon="4.56532">
        <ele>464</ele>
        <time>2017-04-24T10:42:50Z</time>
      </trkpt>
      <trkpt lat="46.06257" lon="4.56545">
        <ele>465</ele>
        <time>2017-04-24T10:42:51Z</time>
      </trkpt>
      <trkpt lat="46.06253" lon="4.56558">
        <ele>464</ele>
        <time>2017-04-24T10:42:52Z</time>
      </trkpt>
      <trkpt lat="46.06251" lon="4.5657">
        <ele>462</ele>
        <time>2017-04-24T10:42:53Z</time>
      </trkpt>
      <trkpt lat="46.06248" lon="4.56584">
        <ele>457</ele>
        <time>2017-04-24T10:42:54Z</time>
      </trkpt>
      <trkpt lat="46.06246" lon="4.56597">
        <ele>453</ele>
        <time>2017-04-24T10:42:55Z</time>
      </trkpt>
      <trkpt lat="46.06244" lon="4.5661">
        <ele>450</ele>
        <time>2017-04-24T10:42:56Z</time>
      </trkpt>
      <trkpt lat="46.06241" lon="4.56623">
        <ele>450</ele>
        <time>2017-04-24T10:42:57Z</time>
      </trkpt>
      <trkpt lat="46.06239" lon="4.56636">
        <ele>450</ele>
        <time>2017-04-24T10:42:58Z</time>
      </trkpt>
      <trkpt lat="46.06235" lon="4.56649">
        <ele>451</ele>
        <time>2017-04-24T10:42:59Z</time>
      </trkpt>
      <trkpt lat="46.06232" lon="4.56661">
        <ele>452</ele>
        <time>2017-04-24T10:43:00Z</time>
      </trkpt>
      <trkpt lat="46.06229" lon="4.56674">
        <ele>451</ele>
        <time>2017-04-24T10:43:01Z</time>
      </trkpt>
      <trkpt lat="46.06226" lon="4.56686">
        <ele>449</ele>
        <time>2017-04-24T10:43:02Z</time>
      </trkpt>
      <trkpt lat="46.06222" lon="4.56698">
        <ele>448</ele>
        <time>2017-04-24T10:43:03Z</time>
      </trkpt>
      <trkpt lat="46.06218" lon="4.56709">
        <ele>447</ele>
        <time>2017-04-24T10:43:04Z</time>
      </trkpt>
      <trkpt lat="46.06214" lon="4.5672">
        <ele>447</ele>
        <time>2017-04-24T10:43:05Z</time>
      </trkpt>
      <trkpt lat="46.06211" lon="4.5673">
        <ele>446</ele>
        <time>2017-04-24T10:43:06Z</time>
      </trkpt>
      <trkpt lat="46.06207" lon="4.5674">
        <ele>446</ele>
        <time>2017-04-24T10:43:07Z</time>
      </trkpt>
      <trkpt lat="46.06204" lon="4.56749">
        <ele>445</ele>
        <time>2017-04-24T10:43:08Z</time>
      </trkpt>
      <trkpt lat="46.06201" lon="4.56759">
        <ele>442</ele>
        <time>2017-04-24T10:43:09Z</time>
      </trkpt>
      <trkpt lat="46.06198" lon="4.56769">
        <ele>441</ele>
        <time>2017-04-24T10:43:10Z</time>
      </trkpt>
      <trkpt lat="46.06196" lon="4.56779">
        <ele>441</ele>
        <time>2017-04-24T10:43:11Z</time>
      </trkpt>
      <trkpt lat="46.06195" lon="4.56789">
        <ele>440</ele>
        <time>2017-04-24T10:43:12Z</time>
      </trkpt>
      <trkpt lat="46.06195" lon="4.568">
        <ele>440</ele>
        <time>2017-04-24T10:43:13Z</time>
      </trkpt>
      <trkpt lat="46.06196" lon="4.5681">
        <ele>440</ele>
        <time>2017-04-24T10:43:14Z</time>
      </trkpt>
      <trkpt lat="46.06199" lon="4.56819">
        <ele>439</ele>
        <time>2017-04-24T10:43:15Z</time>
      </trkpt>
      <trkpt lat="46.06203" lon="4.56829">
        <ele>440</ele>
        <time>2017-04-24T10:43:16Z</time>
      </trkpt>
      <trkpt lat="46.06207" lon="4.56838">
        <ele>434</ele>
        <time>2017-04-24T10:43:17Z</time>
      </trkpt>
      <trkpt lat="46.06212" lon="4.56846">
        <ele>434</ele>
        <time>2017-04-24T10:43:18Z</time>
      </trkpt>
      <trkpt lat="46.06218" lon="4.56853">
        <ele>434</ele>
        <time>2017-04-24T10:43:19Z</time>
      </trkpt>
      <trkpt lat="46.06225" lon="4.56859">
        <ele>434</ele>
        <time>2017-04-24T10:43:20Z</time>
      </trkpt>
      <trkpt lat="46.06231" lon="4.56865">
        <ele>434</ele>
        <time>2017-04-24T10:43:21Z</time>
      </trkpt>
      <trkpt lat="46.06238" lon="4.56871">
        <ele>434</ele>
        <time>2017-04-24T10:43:22Z</time>
      </trkpt>
      <trkpt lat="46.06244" lon="4.56878">
        <ele>433</ele>
        <time>2017-04-24T10:43:23Z</time>
      </trkpt>
      <trkpt lat="46.0625" lon="4.56885">
        <ele>433</ele>
        <time>2017-04-24T10:43:24Z</time>
      </trkpt>
      <trkpt lat="46.06255" lon="4.56893">
        <ele>440</ele>
        <time>2017-04-24T10:43:25Z</time>
      </trkpt>
      <trkpt lat="46.06259" lon="4.56902">
        <ele>438</ele>
        <time>2017-04-24T10:43:26Z</time>
      </trkpt>
      <trkpt lat="46.06262" lon="4.56912">
        <ele>437</ele>
        <time>2017-04-24T10:43:27Z</time>
      </trkpt>
      <trkpt lat="46.06265" lon="4.56922">
        <ele>433</ele>
        <time>2017-04-24T10:43:28Z</time>
      </trkpt>
      <trkpt lat="46.06267" lon="4.56931">
        <ele>433</ele>
        <time>2017-04-24T10:43:29Z</time>
      </trkpt>
      <trkpt lat="46.06269" lon="4.56942">
        <ele>434</ele>
        <time>2017-04-24T10:43:30Z</time>
      </trkpt>
      <trkpt lat="46.0627" lon="4.56953">
        <ele>433</ele>
        <time>2017-04-24T10:43:31Z</time>
      </trkpt>
      <trkpt lat="46.06271" lon="4.56964">
        <ele>432</ele>
        <time>2017-04-24T10:43:32Z</time>
      </trkpt>
      <trkpt lat="46.06271" lon="4.56975">
        <ele>431</ele>
        <time>2017-04-24T10:43:33Z</time>
      </trkpt>
      <trkpt lat="46.06271" lon="4.56987">
        <ele>430</ele>
        <time>2017-04-24T10:43:34Z</time>
      </trkpt>
      <trkpt lat="46.0627" lon="4.56998">
        <ele>429</ele>
        <time>2017-04-24T10:43:35Z</time>
      </trkpt>
      <trkpt lat="46.0627" lon="4.5701">
        <ele>424</ele>
        <time>2017-04-24T10:43:36Z</time>
      </trkpt>
      <trkpt lat="46.06271" lon="4.57021">
        <ele>423</ele>
        <time>2017-04-24T10:43:37Z</time>
      </trkpt>
      <trkpt lat="46.06273" lon="4.57032">
        <ele>423</ele>
        <time>2017-04-24T10:43:38Z</time>
      </trkpt>
      <trkpt lat="46.06276" lon="4.57044">
        <ele>423</ele>
        <time>2017-04-24T10:43:39Z</time>
      </trkpt>
      <trkpt lat="46.06279" lon="4.57055">
        <ele>422</ele>
        <time>2017-04-24T10:43:40Z</time>
      </trkpt>
      <trkpt lat="46.06283" lon="4.57066">
        <ele>422</ele>
        <time>2017-04-24T10:43:41Z</time>
      </trkpt>
      <trkpt lat="46.06288" lon="4.57078">
        <ele>422</ele>
        <time>2017-04-24T10:43:42Z</time>
      </trkpt>
      <trkpt lat="46.06293" lon="4.5709">
        <ele>415</ele>
        <time>2017-04-24T10:43:43Z</time>
      </trkpt>
      <trkpt lat="46.06297" lon="4.57102">
        <ele>415</ele>
        <time>2017-04-24T10:43:44Z</time>
      </trkpt>
      <trkpt lat="46.063" lon="4.57115">
        <ele>415</ele>
        <time>2017-04-24T10:43:45Z</time>
      </trkpt>
      <trkpt lat="46.06304" lon="4.57128">
        <ele>414</ele>
        <time>2017-04-24T10:43:46Z</time>
      </trkpt>
      <trkpt lat="46.06308" lon="4.57141">
        <ele>414</ele>
        <time>2017-04-24T10:43:47Z</time>
      </trkpt>
      <trkpt lat="46.06311" lon="4.57154">
        <ele>414</ele>
        <time>2017-04-24T10:43:48Z</time>
      </trkpt>
      <trkpt lat="46.06313" lon="4.57168">
        <ele>409</ele>
        <time>2017-04-24T10:43:49Z</time>
      </trkpt>
      <trkpt lat="46.06316" lon="4.57182">
        <ele>408</ele>
        <time>2017-04-24T10:43:50Z</time>
      </trkpt>
      <trkpt lat="46.06319" lon="4.57195">
        <ele>406</ele>
        <time>2017-04-24T10:43:51Z</time>
      </trkpt>
      <trkpt lat="46.06321" lon="4.57209">
        <ele>405</ele>
        <time>2017-04-24T10:43:52Z</time>
      </trkpt>
      <trkpt lat="46.06324" lon="4.57223">
        <ele>405</ele>
        <time>2017-04-24T10:43:53Z</time>
      </trkpt>
      <trkpt lat="46.06326" lon="4.57237">
        <ele>405</ele>
        <time>2017-04-24T10:43:54Z</time>
      </trkpt>
      <trkpt lat="46.06329" lon="4.57251">
        <ele>405</ele>
        <time>2017-04-24T10:43:55Z</time>
      </trkpt>
      <trkpt lat="46.06331" lon="4.57264">
        <ele>402</ele>
        <time>2017-04-24T10:43:56Z</time>
      </trkpt>
      <trkpt lat="46.06333" lon="4.57277">
        <ele>399</ele>
        <time>2017-04-24T10:43:57Z</time>
      </trkpt>
      <trkpt lat="46.06336" lon="4.5729">
        <ele>407</ele>
        <time>2017-04-24T10:43:58Z</time>
      </trkpt>
      <trkpt lat="46.06338" lon="4.57303">
        <ele>406</ele>
        <time>2017-04-24T10:43:59Z</time>
      </trkpt>
      <trkpt lat="46.0634" lon="4.57315">
        <ele>404</ele>
        <time>2017-04-24T10:44:00Z</time>
      </trkpt>
      <trkpt lat="46.06342" lon="4.57328">
        <ele>402</ele>
        <time>2017-04-24T10:44:01Z</time>
      </trkpt>
      <trkpt lat="46.06345" lon="4.5734">
        <ele>399</ele>
        <time>2017-04-24T10:44:02Z</time>
      </trkpt>
      <trkpt lat="46.06347" lon="4.57351">
        <ele>399</ele>
        <time>2017-04-24T10:44:03Z</time>
      </trkpt>
      <trkpt lat="46.0635" lon="4.57363">
        <ele>398</ele>
        <time>2017-04-24T10:44:04Z</time>
      </trkpt>
      <trkpt lat="46.06354" lon="4.57373">
        <ele>398</ele>
        <time>2017-04-24T10:44:05Z</time>
      </trkpt>
      <trkpt lat="46.06358" lon="4.57383">
        <ele>397</ele>
        <time>2017-04-24T10:44:06Z</time>
      </trkpt>
      <trkpt lat="46.06363" lon="4.57393">
        <ele>397</ele>
        <time>2017-04-24T10:44:07Z</time>
      </trkpt>
      <trkpt lat="46.06369" lon="4.57403">
        <ele>397</ele>
        <time>2017-04-24T10:44:08Z</time>
      </trkpt>
      <trkpt lat="46.06374" lon="4.57412">
        <ele>397</ele>
        <time>2017-04-24T10:44:09Z</time>
      </trkpt>
      <trkpt lat="46.0638" lon="4.57422">
        <ele>391</ele>
        <time>2017-04-24T10:44:10Z</time>
      </trkpt>
      <trkpt lat="46.06387" lon="4.57431">
        <ele>391</ele>
        <time>2017-04-24T10:44:11Z</time>
      </trkpt>
      <trkpt lat="46.06393" lon="4.57441">
        <ele>391</ele>
        <time>2017-04-24T10:44:12Z</time>
      </trkpt>
      <trkpt lat="46.06399" lon="4.57451">
        <ele>390</ele>
        <time>2017-04-24T10:44:13Z</time>
      </trkpt>
      <trkpt lat="46.06406" lon="4.5746">
        <ele>389</ele>
        <time>2017-04-24T10:44:14Z</time>
      </trkpt>
      <trkpt lat="46.06413" lon="4.57468">
        <ele>389</ele>
        <time>2017-04-24T10:44:15Z</time>
      </trkpt>
      <trkpt lat="46.0642" lon="4.57476">
        <ele>391</ele>
        <time>2017-04-24T10:44:16Z</time>
      </trkpt>
      <trkpt lat="46.06427" lon="4.57482">
        <ele>390</ele>
        <time>2017-04-24T10:44:17Z</time>
      </trkpt>
      <trkpt lat="46.06434" lon="4.57488">
        <ele>390</ele>
        <time>2017-04-24T10:44:18Z</time>
      </trkpt>
      <trkpt lat="46.06441" lon="4.57494">
        <ele>390</ele>
        <time>2017-04-24T10:44:19Z</time>
      </trkpt>
      <trkpt lat="46.06447" lon="4.575">
        <ele>391</ele>
        <time>2017-04-24T10:44:20Z</time>
      </trkpt>
      <trkpt lat="46.06454" lon="4.57506">
        <ele>386</ele>
        <time>2017-04-24T10:44:21Z</time>
      </trkpt>
      <trkpt lat="46.0646" lon="4.57513">
        <ele>386</ele>
        <time>2017-04-24T10:44:22Z</time>
      </trkpt>
      <trkpt lat="46.06465" lon="4.57521">
        <ele>386</ele>
        <time>2017-04-24T10:44:23Z</time>
      </trkpt>
      <trkpt lat="46.06471" lon="4.57529">
        <ele>386</ele>
        <time>2017-04-24T10:44:24Z</time>
      </trkpt>
      <trkpt lat="46.06476" lon="4.57537">
        <ele>385</ele>
        <time>2017-04-24T10:44:25Z</time>
      </trkpt>
      <trkpt lat="46.06481" lon="4.57546">
        <ele>385</ele>
        <time>2017-04-24T10:44:26Z</time>
      </trkpt>
      <trkpt lat="46.06486" lon="4.57556">
        <ele>385</ele>
        <time>2017-04-24T10:44:27Z</time>
      </trkpt>
      <trkpt lat="46.0649" lon="4.57566">
        <ele>384</ele>
        <time>2017-04-24T10:44:28Z</time>
      </trkpt>
      <trkpt lat="46.06493" lon="4.57576">
        <ele>384</ele>
        <time>2017-04-24T10:44:29Z</time>
      </trkpt>
      <trkpt lat="46.06495" lon="4.57587">
        <ele>382</ele>
        <time>2017-04-24T10:44:30Z</time>
      </trkpt>
      <trkpt lat="46.06497" lon="4.57599">
        <ele>381</ele>
        <time>2017-04-24T10:44:31Z</time>
      </trkpt>
      <trkpt lat="46.06499" lon="4.57612">
        <ele>380</ele>
        <time>2017-04-24T10:44:32Z</time>
      </trkpt>
      <trkpt lat="46.06501" lon="4.57626">
        <ele>376</ele>
        <time>2017-04-24T10:44:33Z</time>
      </trkpt>
      <trkpt lat="46.06503" lon="4.57639">
        <ele>375</ele>
        <time>2017-04-24T10:44:34Z</time>
      </trkpt>
      <trkpt lat="46.06504" lon="4.57652">
        <ele>375</ele>
        <time>2017-04-24T10:44:35Z</time>
      </trkpt>
      <trkpt lat="46.06506" lon="4.57665">
        <ele>375</ele>
        <time>2017-04-24T10:44:36Z</time>
      </trkpt>
      <trkpt lat="46.06507" lon="4.57678">
        <ele>372</ele>
        <time>2017-04-24T10:44:37Z</time>
      </trkpt>
      <trkpt lat="46.06509" lon="4.57691">
        <ele>370</ele>
        <time>2017-04-24T10:44:38Z</time>
      </trkpt>
      <trkpt lat="46.06511" lon="4.57703">
        <ele>368</ele>
        <time>2017-04-24T10:44:39Z</time>
      </trkpt>
      <trkpt lat="46.06512" lon="4.57716">
        <ele>368</ele>
        <time>2017-04-24T10:44:40Z</time>
      </trkpt>
      <trkpt lat="46.06513" lon="4.57729">
        <ele>367</ele>
        <time>2017-04-24T10:44:41Z</time>
      </trkpt>
      <trkpt lat="46.06515" lon="4.57742">
        <ele>367</ele>
        <time>2017-04-24T10:44:42Z</time>
      </trkpt>
      <trkpt lat="46.06516" lon="4.57756">
        <ele>364</ele>
        <time>2017-04-24T10:44:43Z</time>
      </trkpt>
      <trkpt lat="46.06517" lon="4.5777">
        <ele>363</ele>
        <time>2017-04-24T10:44:44Z</time>
      </trkpt>
      <trkpt lat="46.06518" lon="4.57783">
        <ele>362</ele>
        <time>2017-04-24T10:44:45Z</time>
      </trkpt>
      <trkpt lat="46.06519" lon="4.57796">
        <ele>361</ele>
        <time>2017-04-24T10:44:46Z</time>
      </trkpt>
      <trkpt lat="46.06518" lon="4.57808">
        <ele>361</ele>
        <time>2017-04-24T10:44:47Z</time>
      </trkpt>
      <trkpt lat="46.06517" lon="4.57821">
        <ele>361</ele>
        <time>2017-04-24T10:44:48Z</time>
      </trkpt>
      <trkpt lat="46.06515" lon="4.57833">
        <ele>362</ele>
        <time>2017-04-24T10:44:49Z</time>
      </trkpt>
      <trkpt lat="46.06512" lon="4.57845">
        <ele>359</ele>
        <time>2017-04-24T10:44:50Z</time>
      </trkpt>
      <trkpt lat="46.06508" lon="4.57857">
        <ele>357</ele>
        <time>2017-04-24T10:44:51Z</time>
      </trkpt>
      <trkpt lat="46.06503" lon="4.57868">
        <ele>356</ele>
        <time>2017-04-24T10:44:52Z</time>
      </trkpt>
      <trkpt lat="46.06499" lon="4.5788">
        <ele>358</ele>
        <time>2017-04-24T10:44:53Z</time>
      </trkpt>
      <trkpt lat="46.06493" lon="4.57891">
        <ele>357</ele>
        <time>2017-04-24T10:44:54Z</time>
      </trkpt>
      <trkpt lat="46.06488" lon="4.57903">
        <ele>356</ele>
        <time>2017-04-24T10:44:55Z</time>
      </trkpt>
      <trkpt lat="46.06482" lon="4.57915">
        <ele>356</ele>
        <time>2017-04-24T10:44:56Z</time>
      </trkpt>
      <trkpt lat="46.06477" lon="4.57927">
        <ele>351</ele>
        <time>2017-04-24T10:44:57Z</time>
      </trkpt>
      <trkpt lat="46.06472" lon="4.57939">
        <ele>351</ele>
        <time>2017-04-24T10:44:58Z</time>
      </trkpt>
      <trkpt lat="46.06466" lon="4.57951">
        <ele>350</ele>
        <time>2017-04-24T10:44:59Z</time>
      </trkpt>
      <trkpt lat="46.0646" lon="4.57963">
        <ele>350</ele>
        <time>2017-04-24T10:45:00Z</time>
      </trkpt>
      <trkpt lat="46.06454" lon="4.57976">
        <ele>350</ele>
        <time>2017-04-24T10:45:01Z</time>
      </trkpt>
      <trkpt lat="46.06448" lon="4.57988">
        <ele>350</ele>
        <time>2017-04-24T10:45:02Z</time>
      </trkpt>
      <trkpt lat="46.06442" lon="4.57999">
        <ele>350</ele>
        <time>2017-04-24T10:45:03Z</time>
      </trkpt>
      <trkpt lat="46.06435" lon="4.5801">
        <ele>348</ele>
        <time>2017-04-24T10:45:04Z</time>
      </trkpt>
      <trkpt lat="46.06428" lon="4.5802">
        <ele>347</ele>
        <time>2017-04-24T10:45:05Z</time>
      </trkpt>
      <trkpt lat="46.06422" lon="4.5803">
        <ele>347</ele>
        <time>2017-04-24T10:45:06Z</time>
      </trkpt>
      <trkpt lat="46.06416" lon="4.5804">
        <ele>347</ele>
        <time>2017-04-24T10:45:07Z</time>
      </trkpt>
      <trkpt lat="46.0641" lon="4.5805">
        <ele>346</ele>
        <time>2017-04-24T10:45:08Z</time>
      </trkpt>
      <trkpt lat="46.06404" lon="4.58059">
        <ele>346</ele>
        <time>2017-04-24T10:45:09Z</time>
      </trkpt>
      <trkpt lat="46.06398" lon="4.58068">
        <ele>345</ele>
        <time>2017-04-24T10:45:10Z</time>
      </trkpt>
      <trkpt lat="46.06392" lon="4.58078">
        <ele>345</ele>
        <time>2017-04-24T10:45:11Z</time>
      </trkpt>
      <trkpt lat="46.06386" lon="4.58086">
        <ele>342</ele>
        <time>2017-04-24T10:45:12Z</time>
      </trkpt>
      <trkpt lat="46.06381" lon="4.58094">
        <ele>341</ele>
        <time>2017-04-24T10:45:13Z</time>
      </trkpt>
      <trkpt lat="46.06376" lon="4.58102">
        <ele>341</ele>
        <time>2017-04-24T10:45:14Z</time>
      </trkpt>
      <trkpt lat="46.0637" lon="4.58108">
        <ele>341</ele>
        <time>2017-04-24T10:45:15Z</time>
      </trkpt>
      <trkpt lat="46.06366" lon="4.58115">
        <ele>341</ele>
        <time>2017-04-24T10:45:16Z</time>
      </trkpt>
      <trkpt lat="46.06361" lon="4.58121">
        <ele>341</ele>
        <time>2017-04-24T10:45:17Z</time>
      </trkpt>
      <trkpt lat="46.06357" lon="4.58128">
        <ele>341</ele>
        <time>2017-04-24T10:45:18Z</time>
      </trkpt>
      <trkpt lat="46.06353" lon="4.58135">
        <ele>340</ele>
        <time>2017-04-24T10:45:19Z</time>
      </trkpt>
      <trkpt lat="46.06349" lon="4.58142">
        <ele>340</ele>
        <time>2017-04-24T10:45:20Z</time>
      </trkpt>
      <trkpt lat="46.06346" lon="4.58151">
        <ele>340</ele>
        <time>2017-04-24T10:45:21Z</time>
      </trkpt>
      <trkpt lat="46.06342" lon="4.58159">
        <ele>340</ele>
        <time>2017-04-24T10:45:22Z</time>
      </trkpt>
      <trkpt lat="46.06339" lon="4.58167">
        <ele>339</ele>
        <time>2017-04-24T10:45:23Z</time>
      </trkpt>
      <trkpt lat="46.06335" lon="4.58175">
        <ele>339</ele>
        <time>2017-04-24T10:45:24Z</time>
      </trkpt>
      <trkpt lat="46.06332" lon="4.58182">
        <ele>336</ele>
        <time>2017-04-24T10:45:25Z</time>
      </trkpt>
      <trkpt lat="46.06329" lon="4.5819">
        <ele>335</ele>
        <time>2017-04-24T10:45:26Z</time>
      </trkpt>
      <trkpt lat="46.06325" lon="4.58198">
        <ele>334</ele>
        <time>2017-04-24T10:45:27Z</time>
      </trkpt>
      <trkpt lat="46.06322" lon="4.58206">
        <ele>334</ele>
        <time>2017-04-24T10:45:28Z</time>
      </trkpt>
      <trkpt lat="46.06319" lon="4.58213">
        <ele>333</ele>
        <time>2017-04-24T10:45:29Z</time>
      </trkpt>
      <trkpt lat="46.06316" lon="4.58221">
        <ele>333</ele>
        <time>2017-04-24T10:45:30Z</time>
      </trkpt>
      <trkpt lat="46.06313" lon="4.58229">
        <ele>333</ele>
        <time>2017-04-24T10:45:31Z</time>
      </trkpt>
      <trkpt lat="46.06311" lon="4.58238">
        <ele>332</ele>
        <time>2017-04-24T10:45:32Z</time>
      </trkpt>
      <trkpt lat="46.06309" lon="4.58247">
        <ele>332</ele>
        <time>2017-04-24T10:45:33Z</time>
      </trkpt>
      <trkpt lat="46.06306" lon="4.58257">
        <ele>329</ele>
        <time>2017-04-24T10:45:34Z</time>
      </trkpt>
      <trkpt lat="46.06303" lon="4.58266">
        <ele>329</ele>
        <time>2017-04-24T10:45:35Z</time>
      </trkpt>
      <trkpt lat="46.06302" lon="4.58277">
        <ele>328</ele>
        <time>2017-04-24T10:45:36Z</time>
      </trkpt>
      <trkpt lat="46.063" lon="4.58288">
        <ele>328</ele>
        <time>2017-04-24T10:45:37Z</time>
      </trkpt>
      <trkpt lat="46.06297" lon="4.58299">
        <ele>328</ele>
        <time>2017-04-24T10:45:38Z</time>
      </trkpt>
      <trkpt lat="46.06295" lon="4.58309">
        <ele>327</ele>
        <time>2017-04-24T10:45:39Z</time>
      </trkpt>
      <trkpt lat="46.06292" lon="4.58319">
        <ele>327</ele>
        <time>2017-04-24T10:45:40Z</time>
      </trkpt>
      <trkpt lat="46.06288" lon="4.58328">
        <ele>327</ele>
        <time>2017-04-24T10:45:41Z</time>
      </trkpt>
      <trkpt lat="46.06284" lon="4.58338">
        <ele>323</ele>
        <time>2017-04-24T10:45:42Z</time>
      </trkpt>
      <trkpt lat="46.0628" lon="4.58348">
        <ele>323</ele>
        <time>2017-04-24T10:45:43Z</time>
      </trkpt>
      <trkpt lat="46.06275" lon="4.58357">
        <ele>323</ele>
        <time>2017-04-24T10:45:44Z</time>
      </trkpt>
      <trkpt lat="46.06272" lon="4.58366">
        <ele>323</ele>
        <time>2017-04-24T10:45:45Z</time>
      </trkpt>
      <trkpt lat="46.06269" lon="4.58376">
        <ele>322</ele>
        <time>2017-04-24T10:45:46Z</time>
      </trkpt>
      <trkpt lat="46.06267" lon="4.58384">
        <ele>322</ele>
        <time>2017-04-24T10:45:47Z</time>
      </trkpt>
      <trkpt lat="46.06265" lon="4.58394">
        <ele>321</ele>
        <time>2017-04-24T10:45:48Z</time>
      </trkpt>
      <trkpt lat="46.06264" lon="4.58405">
        <ele>321</ele>
        <time>2017-04-24T10:45:49Z</time>
      </trkpt>
      <trkpt lat="46.06263" lon="4.58417">
        <ele>319</ele>
        <time>2017-04-24T10:45:50Z</time>
      </trkpt>
      <trkpt lat="46.06263" lon="4.58429">
        <ele>319</ele>
        <time>2017-04-24T10:45:51Z</time>
      </trkpt>
      <trkpt lat="46.06261" lon="4.58441">
        <ele>319</ele>
        <time>2017-04-24T10:45:52Z</time>
      </trkpt>
      <trkpt lat="46.06261" lon="4.58454">
        <ele>318</ele>
        <time>2017-04-24T10:45:53Z</time>
      </trkpt>
      <trkpt lat="46.0626" lon="4.58467">
        <ele>318</ele>
        <time>2017-04-24T10:45:54Z</time>
      </trkpt>
      <trkpt lat="46.0626" lon="4.5848">
        <ele>317</ele>
        <time>2017-04-24T10:45:55Z</time>
      </trkpt>
      <trkpt lat="46.06259" lon="4.58492">
        <ele>317</ele>
        <time>2017-04-24T10:45:56Z</time>
      </trkpt>
      <trkpt lat="46.06259" lon="4.58504">
        <ele>316</ele>
        <time>2017-04-24T10:45:57Z</time>
      </trkpt>
      <trkpt lat="46.06258" lon="4.58516">
        <ele>316</ele>
        <time>2017-04-24T10:45:58Z</time>
      </trkpt>
      <trkpt lat="46.06258" lon="4.5853">
        <ele>317</ele>
        <time>2017-04-24T10:45:59Z</time>
      </trkpt>
      <trkpt lat="46.06258" lon="4.58544">
        <ele>317</ele>
        <time>2017-04-24T10:46:00Z</time>
      </trkpt>
      <trkpt lat="46.06257" lon="4.58557">
        <ele>316</ele>
        <time>2017-04-24T10:46:01Z</time>
      </trkpt>
      <trkpt lat="46.06256" lon="4.58569">
        <ele>315</ele>
        <time>2017-04-24T10:46:02Z</time>
      </trkpt>
      <trkpt lat="46.06254" lon="4.58582">
        <ele>314</ele>
        <time>2017-04-24T10:46:03Z</time>
      </trkpt>
      <trkpt lat="46.06252" lon="4.58596">
        <ele>315</ele>
        <time>2017-04-24T10:46:04Z</time>
      </trkpt>
      <trkpt lat="46.06249" lon="4.58609">
        <ele>313</ele>
        <time>2017-04-24T10:46:05Z</time>
      </trkpt>
      <trkpt lat="46.06247" lon="4.58621">
        <ele>313</ele>
        <time>2017-04-24T10:46:06Z</time>
      </trkpt>
      <trkpt lat="46.06245" lon="4.58633">
        <ele>312</ele>
        <time>2017-04-24T10:46:07Z</time>
      </trkpt>
      <trkpt lat="46.06242" lon="4.58646">
        <ele>312</ele>
        <time>2017-04-24T10:46:08Z</time>
      </trkpt>
      <trkpt lat="46.0624" lon="4.58658">
        <ele>311</ele>
        <time>2017-04-24T10:46:09Z</time>
      </trkpt>
      <trkpt lat="46.06238" lon="4.58671">
        <ele>310</ele>
        <time>2017-04-24T10:46:10Z</time>
      </trkpt>
      <trkpt lat="46.06236" lon="4.58684">
        <ele>310</ele>
        <time>2017-04-24T10:46:11Z</time>
      </trkpt>
      <trkpt lat="46.06235" lon="4.58698">
        <ele>310</ele>
        <time>2017-04-24T10:46:12Z</time>
      </trkpt>
      <trkpt lat="46.06233" lon="4.58711">
        <ele>310</ele>
        <time>2017-04-24T10:46:13Z</time>
      </trkpt>
      <trkpt lat="46.06233" lon="4.58724">
        <ele>310</ele>
        <time>2017-04-24T10:46:14Z</time>
      </trkpt>
      <trkpt lat="46.06232" lon="4.58737">
        <ele>310</ele>
        <time>2017-04-24T10:46:15Z</time>
      </trkpt>
      <trkpt lat="46.06231" lon="4.58748">
        <ele>309</ele>
        <time>2017-04-24T10:46:16Z</time>
      </trkpt>
      <trkpt lat="46.06231" lon="4.58761">
        <ele>309</ele>
        <time>2017-04-24T10:46:17Z</time>
      </trkpt>
      <trkpt lat="46.0623" lon="4.58772">
        <ele>309</ele>
        <time>2017-04-24T10:46:18Z</time>
      </trkpt>
      <trkpt lat="46.06229" lon="4.58784">
        <ele>309</ele>
        <time>2017-04-24T10:46:19Z</time>
      </trkpt>
      <trkpt lat="46.06228" lon="4.58796">
        <ele>310</ele>
        <time>2017-04-24T10:46:20Z</time>
      </trkpt>
      <trkpt lat="46.06227" lon="4.58807">
        <ele>310</ele>
        <time>2017-04-24T10:46:21Z</time>
      </trkpt>
      <trkpt lat="46.06226" lon="4.58819">
        <ele>309</ele>
        <time>2017-04-24T10:46:22Z</time>
      </trkpt>
      <trkpt lat="46.06226" lon="4.5883">
        <ele>309</ele>
        <time>2017-04-24T10:46:23Z</time>
      </trkpt>
      <trkpt lat="46.06225" lon="4.5884">
        <ele>308</ele>
        <time>2017-04-24T10:46:24Z</time>
      </trkpt>
      <trkpt lat="46.06224" lon="4.58849">
        <ele>308</ele>
        <time>2017-04-24T10:46:25Z</time>
      </trkpt>
      <trkpt lat="46.06224" lon="4.58859">
        <ele>308</ele>
        <time>2017-04-24T10:46:26Z</time>
      </trkpt>
      <trkpt lat="46.06224" lon="4.58868">
        <ele>308</ele>
        <time>2017-04-24T10:46:27Z</time>
      </trkpt>
      <trkpt lat="46.06224" lon="4.58878">
        <ele>308</ele>
        <time>2017-04-24T10:46:28Z</time>
      </trkpt>
      <trkpt lat="46.06223" lon="4.58886">
        <ele>308</ele>
        <time>2017-04-24T10:46:29Z</time>
      </trkpt>
      <trkpt lat="46.06223" lon="4.58894">
        <ele>308</ele>
        <time>2017-04-24T10:46:30Z</time>
      </trkpt>
      <trkpt lat="46.06222" lon="4.58902">
        <ele>308</ele>
        <time>2017-04-24T10:46:31Z</time>
      </trkpt>
      <trkpt lat="46.06222" lon="4.5891">
        <ele>308</ele>
        <time>2017-04-24T10:46:32Z</time>
      </trkpt>
      <trkpt lat="46.06222" lon="4.58917">
        <ele>307</ele>
        <time>2017-04-24T10:46:33Z</time>
      </trkpt>
      <trkpt lat="46.06223" lon="4.58924">
        <ele>307</ele>
        <time>2017-04-24T10:46:34Z</time>
      </trkpt>
      <trkpt lat="46.06224" lon="4.58932">
        <ele>307</ele>
        <time>2017-04-24T10:46:35Z</time>
      </trkpt>
      <trkpt lat="46.06224" lon="4.58939">
        <ele>307</ele>
        <time>2017-04-24T10:46:36Z</time>
      </trkpt>
      <trkpt lat="46.06224" lon="4.58946">
        <ele>307</ele>
        <time>2017-04-24T10:46:37Z</time>
      </trkpt>
      <trkpt lat="46.06225" lon="4.58954">
        <ele>307</ele>
        <time>2017-04-24T10:46:38Z</time>
      </trkpt>
      <trkpt lat="46.06225" lon="4.58961">
        <ele>307</ele>
        <time>2017-04-24T10:46:39Z</time>
      </trkpt>
      <trkpt lat="46.06226" lon="4.58968">
        <ele>307</ele>
        <time>2017-04-24T10:46:40Z</time>
      </trkpt>
      <trkpt lat="46.06226" lon="4.58976">
        <ele>307</ele>
        <time>2017-04-24T10:46:41Z</time>
      </trkpt>
      <trkpt lat="46.06227" lon="4.58983">
        <ele>307</ele>
        <time>2017-04-24T10:46:42Z</time>
      </trkpt>
      <trkpt lat="46.06228" lon="4.58991">
        <ele>307</ele>
        <time>2017-04-24T10:46:43Z</time>
      </trkpt>
      <trkpt lat="46.06229" lon="4.58999">
        <ele>307</ele>
        <time>2017-04-24T10:46:44Z</time>
      </trkpt>
      <trkpt lat="46.0623" lon="4.59007">
        <ele>306</ele>
        <time>2017-04-24T10:46:45Z</time>
      </trkpt>
      <trkpt lat="46.06231" lon="4.59015">
        <ele>306</ele>
        <time>2017-04-24T10:46:46Z</time>
      </trkpt>
      <trkpt lat="46.06233" lon="4.59022">
        <ele>306</ele>
        <time>2017-04-24T10:46:47Z</time>
      </trkpt>
      <trkpt lat="46.06234" lon="4.5903">
        <ele>305</ele>
        <time>2017-04-24T10:46:48Z</time>
      </trkpt>
      <trkpt lat="46.06236" lon="4.59038">
        <ele>305</ele>
        <time>2017-04-24T10:46:49Z</time>
      </trkpt>
      <trkpt lat="46.06238" lon="4.59047">
        <ele>305</ele>
        <time>2017-04-24T10:46:50Z</time>
      </trkpt>
      <trkpt lat="46.06239" lon="4.59056">
        <ele>305</ele>
        <time>2017-04-24T10:46:51Z</time>
      </trkpt>
      <trkpt lat="46.06242" lon="4.59065">
        <ele>305</ele>
        <time>2017-04-24T10:46:52Z</time>
      </trkpt>
      <trkpt lat="46.06244" lon="4.59073">
        <ele>304</ele>
        <time>2017-04-24T10:46:53Z</time>
      </trkpt>
      <trkpt lat="46.06246" lon="4.5908">
        <ele>304</ele>
        <time>2017-04-24T10:46:54Z</time>
      </trkpt>
      <trkpt lat="46.06248" lon="4.59088">
        <ele>304</ele>
        <time>2017-04-24T10:46:55Z</time>
      </trkpt>
      <trkpt lat="46.0625" lon="4.59097">
        <ele>307</ele>
        <time>2017-04-24T10:46:56Z</time>
      </trkpt>
      <trkpt lat="46.06252" lon="4.59105">
        <ele>308</ele>
        <time>2017-04-24T10:46:57Z</time>
      </trkpt>
      <trkpt lat="46.06254" lon="4.59112">
        <ele>309</ele>
        <time>2017-04-24T10:46:58Z</time>
      </trkpt>
      <trkpt lat="46.06255" lon="4.59119">
        <ele>309</ele>
        <time>2017-04-24T10:46:59Z</time>
      </trkpt>
      <trkpt lat="46.06256" lon="4.59126">
        <ele>309</ele>
        <time>2017-04-24T10:47:00Z</time>
      </trkpt>
      <trkpt lat="46.06258" lon="4.59133">
        <ele>309</ele>
        <time>2017-04-24T10:47:01Z</time>
      </trkpt>
      <trkpt lat="46.06258" lon="4.5914">
        <ele>309</ele>
        <time>2017-04-24T10:47:02Z</time>
      </trkpt>
      <trkpt lat="46.06259" lon="4.59147">
        <ele>308</ele>
        <time>2017-04-24T10:47:03Z</time>
      </trkpt>
      <trkpt lat="46.0626" lon="4.59153">
        <ele>308</ele>
        <time>2017-04-24T10:47:04Z</time>
      </trkpt>
      <trkpt lat="46.06261" lon="4.5916">
        <ele>307</ele>
        <time>2017-04-24T10:47:05Z</time>
      </trkpt>
      <trkpt lat="46.06262" lon="4.59167">
        <ele>306</ele>
        <time>2017-04-24T10:47:06Z</time>
      </trkpt>
      <trkpt lat="46.06263" lon="4.59174">
        <ele>307</ele>
        <time>2017-04-24T10:47:07Z</time>
      </trkpt>
      <trkpt lat="46.06264" lon="4.59181">
        <ele>308</ele>
        <time>2017-04-24T10:47:08Z</time>
      </trkpt>
      <trkpt lat="46.06265" lon="4.59188">
        <ele>308</ele>
        <time>2017-04-24T10:47:09Z</time>
      </trkpt>
      <trkpt lat="46.06266" lon="4.59195">
        <ele>309</ele>
        <time>2017-04-24T10:47:10Z</time>
      </trkpt>
      <trkpt lat="46.06267" lon="4.59202">
        <ele>309</ele>
        <time>2017-04-24T10:47:11Z</time>
      </trkpt>
      <trkpt lat="46.06268" lon="4.59209">
        <ele>309</ele>
        <time>2017-04-24T10:47:12Z</time>
      </trkpt>
      <trkpt lat="46.06269" lon="4.59215">
        <ele>309</ele>
        <time>2017-04-24T10:47:13Z</time>
      </trkpt>
      <trkpt lat="46.0627" lon="4.59222">
        <ele>309</ele>
        <time>2017-04-24T10:47:14Z</time>
      </trkpt>
      <trkpt lat="46.06271" lon="4.59229">
        <ele>308</ele>
        <time>2017-04-24T10:47:15Z</time>
      </trkpt>
      <trkpt lat="46.06272" lon="4.59235">
        <ele>308</ele>
        <time>2017-04-24T10:47:16Z</time>
      </trkpt>
      <trkpt lat="46.06273" lon="4.59243">
        <ele>308</ele>
        <time>2017-04-24T10:47:17Z</time>
      </trkpt>
      <trkpt lat="46.06273" lon="4.5925">
        <ele>306</ele>
        <time>2017-04-24T10:47:18Z</time>
      </trkpt>
      <trkpt lat="46.06274" lon="4.59258">
        <ele>306</ele>
        <time>2017-04-24T10:47:19Z</time>
      </trkpt>
      <trkpt lat="46.06275" lon="4.59266">
        <ele>306</ele>
        <time>2017-04-24T10:47:20Z</time>
      </trkpt>
      <trkpt lat="46.06275" lon="4.59274">
        <ele>306</ele>
        <time>2017-04-24T10:47:21Z</time>
      </trkpt>
      <trkpt lat="46.06276" lon="4.59283">
        <ele>307</ele>
        <time>2017-04-24T10:47:22Z</time>
      </trkpt>
      <trkpt lat="46.06276" lon="4.59291">
        <ele>306</ele>
        <time>2017-04-24T10:47:23Z</time>
      </trkpt>
      <trkpt lat="46.06277" lon="4.593">
        <ele>306</ele>
        <time>2017-04-24T10:47:24Z</time>
      </trkpt>
      <trkpt lat="46.06277" lon="4.59308">
        <ele>306</ele>
        <time>2017-04-24T10:47:25Z</time>
      </trkpt>
      <trkpt lat="46.06277" lon="4.59317">
        <ele>305</ele>
        <time>2017-04-24T10:47:26Z</time>
      </trkpt>
      <trkpt lat="46.06277" lon="4.59326">
        <ele>305</ele>
        <time>2017-04-24T10:47:27Z</time>
      </trkpt>
      <trkpt lat="46.06277" lon="4.59335">
        <ele>303</ele>
        <time>2017-04-24T10:47:28Z</time>
      </trkpt>
      <trkpt lat="46.06277" lon="4.59344">
        <ele>303</ele>
        <time>2017-04-24T10:47:29Z</time>
      </trkpt>
      <trkpt lat="46.06277" lon="4.59354">
        <ele>304</ele>
        <time>2017-04-24T10:47:30Z</time>
      </trkpt>
      <trkpt lat="46.06277" lon="4.59362">
        <ele>304</ele>
        <time>2017-04-24T10:47:31Z</time>
      </trkpt>
      <trkpt lat="46.06276" lon="4.59372">
        <ele>304</ele>
        <time>2017-04-24T10:47:32Z</time>
      </trkpt>
      <trkpt lat="46.06276" lon="4.59381">
        <ele>304</ele>
        <time>2017-04-24T10:47:33Z</time>
      </trkpt>
      <trkpt lat="46.06275" lon="4.59389">
        <ele>303</ele>
        <time>2017-04-24T10:47:34Z</time>
      </trkpt>
      <trkpt lat="46.06275" lon="4.59397">
        <ele>303</ele>
        <time>2017-04-24T10:47:35Z</time>
      </trkpt>
      <trkpt lat="46.06275" lon="4.59405">
        <ele>303</ele>
        <time>2017-04-24T10:47:36Z</time>
      </trkpt>
      <trkpt lat="46.06275" lon="4.59413">
        <ele>303</ele>
        <time>2017-04-24T10:47:37Z</time>
      </trkpt>
      <trkpt lat="46.06274" lon="4.5942">
        <ele>302</ele>
        <time>2017-04-24T10:47:38Z</time>
      </trkpt>
      <trkpt lat="46.06274" lon="4.59428">
        <ele>302</ele>
        <time>2017-04-24T10:47:39Z</time>
      </trkpt>
      <trkpt lat="46.06273" lon="4.59435">
        <ele>303</ele>
        <time>2017-04-24T10:47:40Z</time>
      </trkpt>
      <trkpt lat="46.06272" lon="4.59443">
        <ele>303</ele>
        <time>2017-04-24T10:47:41Z</time>
      </trkpt>
      <trkpt lat="46.0627" lon="4.5945">
        <ele>303</ele>
        <time>2017-04-24T10:47:42Z</time>
      </trkpt>
      <trkpt lat="46.06269" lon="4.59457">
        <ele>303</ele>
        <time>2017-04-24T10:47:43Z</time>
      </trkpt>
      <trkpt lat="46.06267" lon="4.59464">
        <ele>303</ele>
        <time>2017-04-24T10:47:44Z</time>
      </trkpt>
      <trkpt lat="46.06265" lon="4.59472">
        <ele>302</ele>
        <time>2017-04-24T10:47:45Z</time>
      </trkpt>
      <trkpt lat="46.06263" lon="4.59479">
        <ele>302</ele>
        <time>2017-04-24T10:47:46Z</time>
      </trkpt>
      <trkpt lat="46.06261" lon="4.59486">
        <ele>302</ele>
        <time>2017-04-24T10:47:47Z</time>
      </trkpt>
      <trkpt lat="46.0626" lon="4.59493">
        <ele>301</ele>
        <time>2017-04-24T10:47:48Z</time>
      </trkpt>
      <trkpt lat="46.06258" lon="4.595">
        <ele>300</ele>
        <time>2017-04-24T10:47:49Z</time>
      </trkpt>
      <trkpt lat="46.06257" lon="4.59506">
        <ele>301</ele>
        <time>2017-04-24T10:47:50Z</time>
      </trkpt>
      <trkpt lat="46.06255" lon="4.59513">
        <ele>301</ele>
        <time>2017-04-24T10:47:51Z</time>
      </trkpt>
      <trkpt lat="46.06253" lon="4.59519">
        <ele>302</ele>
        <time>2017-04-24T10:47:52Z</time>
      </trkpt>
      <trkpt lat="46.06251" lon="4.59525">
        <ele>302</ele>
        <time>2017-04-24T10:47:53Z</time>
      </trkpt>
      <trkpt lat="46.06249" lon="4.59531">
        <ele>298</ele>
        <time>2017-04-24T10:47:54Z</time>
      </trkpt>
      <trkpt lat="46.06246" lon="4.59541">
        <ele>298</ele>
        <time>2017-04-24T10:47:56Z</time>
      </trkpt>
      <trkpt lat="46.06244" lon="4.59545">
        <ele>298</ele>
        <time>2017-04-24T10:47:57Z</time>
      </trkpt>
      <trkpt lat="46.0624" lon="4.59556">
        <ele>298</ele>
        <time>2017-04-24T10:47:59Z</time>
      </trkpt>
      <trkpt lat="46.06238" lon="4.59561">
        <ele>298</ele>
        <time>2017-04-24T10:48:00Z</time>
      </trkpt>
      <trkpt lat="46.06237" lon="4.59568">
        <ele>298</ele>
        <time>2017-04-24T10:48:01Z</time>
      </trkpt>
      <trkpt lat="46.06235" lon="4.59575">
        <ele>299</ele>
        <time>2017-04-24T10:48:02Z</time>
      </trkpt>
      <trkpt lat="46.06234" lon="4.59583">
        <ele>299</ele>
        <time>2017-04-24T10:48:03Z</time>
      </trkpt>
      <trkpt lat="46.06234" lon="4.59591">
        <ele>299</ele>
        <time>2017-04-24T10:48:04Z</time>
      </trkpt>
      <trkpt lat="46.06234" lon="4.596">
        <ele>298</ele>
        <time>2017-04-24T10:48:05Z</time>
      </trkpt>
      <trkpt lat="46.06235" lon="4.59608">
        <ele>298</ele>
        <time>2017-04-24T10:48:06Z</time>
      </trkpt>
      <trkpt lat="46.06236" lon="4.59615">
        <ele>298</ele>
        <time>2017-04-24T10:48:07Z</time>
      </trkpt>
      <trkpt lat="46.06238" lon="4.59624">
        <ele>298</ele>
        <time>2017-04-24T10:48:08Z</time>
      </trkpt>
      <trkpt lat="46.0624" lon="4.59632">
        <ele>298</ele>
        <time>2017-04-24T10:48:09Z</time>
      </trkpt>
      <trkpt lat="46.06243" lon="4.5964">
        <ele>298</ele>
        <time>2017-04-24T10:48:10Z</time>
      </trkpt>
      <trkpt lat="46.06246" lon="4.59649">
        <ele>298</ele>
        <time>2017-04-24T10:48:11Z</time>
      </trkpt>
      <trkpt lat="46.06249" lon="4.59658">
        <ele>298</ele>
        <time>2017-04-24T10:48:12Z</time>
      </trkpt>
      <trkpt lat="46.06253" lon="4.59667">
        <ele>299</ele>
        <time>2017-04-24T10:48:13Z</time>
      </trkpt>
      <trkpt lat="46.06257" lon="4.59676">
        <ele>299</ele>
        <time>2017-04-24T10:48:14Z</time>
      </trkpt>
      <trkpt lat="46.06261" lon="4.59685">
        <ele>299</ele>
        <time>2017-04-24T10:48:15Z</time>
      </trkpt>
      <trkpt lat="46.06265" lon="4.59694">
        <ele>299</ele>
        <time>2017-04-24T10:48:16Z</time>
      </trkpt>
      <trkpt lat="46.0627" lon="4.59703">
        <ele>298</ele>
        <time>2017-04-24T10:48:17Z</time>
      </trkpt>
      <trkpt lat="46.06275" lon="4.59711">
        <ele>298</ele>
        <time>2017-04-24T10:48:18Z</time>
      </trkpt>
      <trkpt lat="46.06281" lon="4.59719">
        <ele>298</ele>
        <time>2017-04-24T10:48:19Z</time>
      </trkpt>
      <trkpt lat="46.06285" lon="4.59728">
        <ele>298</ele>
        <time>2017-04-24T10:48:20Z</time>
      </trkpt>
      <trkpt lat="46.0629" lon="4.59735">
        <ele>298</ele>
        <time>2017-04-24T10:48:21Z</time>
      </trkpt>
      <trkpt lat="46.06294" lon="4.59743">
        <ele>298</ele>
        <time>2017-04-24T10:48:22Z</time>
      </trkpt>
      <trkpt lat="46.06298" lon="4.5975">
        <ele>296</ele>
        <time>2017-04-24T10:48:23Z</time>
      </trkpt>
      <trkpt lat="46.06302" lon="4.59757">
        <ele>296</ele>
        <time>2017-04-24T10:48:24Z</time>
      </trkpt>
      <trkpt lat="46.06306" lon="4.59764">
        <ele>296</ele>
        <time>2017-04-24T10:48:25Z</time>
      </trkpt>
      <trkpt lat="46.0631" lon="4.59771">
        <ele>296</ele>
        <time>2017-04-24T10:48:26Z</time>
      </trkpt>
      <trkpt lat="46.06313" lon="4.59779">
        <ele>296</ele>
        <time>2017-04-24T10:48:27Z</time>
      </trkpt>
      <trkpt lat="46.06315" lon="4.59787">
        <ele>296</ele>
        <time>2017-04-24T10:48:28Z</time>
      </trkpt>
      <trkpt lat="46.06317" lon="4.59795">
        <ele>296</ele>
        <time>2017-04-24T10:48:29Z</time>
      </trkpt>
      <trkpt lat="46.06318" lon="4.59804">
        <ele>297</ele>
        <time>2017-04-24T10:48:30Z</time>
      </trkpt>
      <trkpt lat="46.06318" lon="4.59813">
        <ele>297</ele>
        <time>2017-04-24T10:48:31Z</time>
      </trkpt>
      <trkpt lat="46.06318" lon="4.59822">
        <ele>297</ele>
        <time>2017-04-24T10:48:32Z</time>
      </trkpt>
      <trkpt lat="46.06318" lon="4.5983">
        <ele>297</ele>
        <time>2017-04-24T10:48:33Z</time>
      </trkpt>
      <trkpt lat="46.06318" lon="4.59838">
        <ele>297</ele>
        <time>2017-04-24T10:48:34Z</time>
      </trkpt>
      <trkpt lat="46.06317" lon="4.59846">
        <ele>297</ele>
        <time>2017-04-24T10:48:35Z</time>
      </trkpt>
      <trkpt lat="46.06316" lon="4.59855">
        <ele>297</ele>
        <time>2017-04-24T10:48:36Z</time>
      </trkpt>
      <trkpt lat="46.06315" lon="4.59864">
        <ele>296</ele>
        <time>2017-04-24T10:48:37Z</time>
      </trkpt>
      <trkpt lat="46.06314" lon="4.59873">
        <ele>296</ele>
        <time>2017-04-24T10:48:38Z</time>
      </trkpt>
      <trkpt lat="46.06313" lon="4.5988">
        <ele>296</ele>
        <time>2017-04-24T10:48:39Z</time>
      </trkpt>
      <trkpt lat="46.06312" lon="4.59888">
        <ele>296</ele>
        <time>2017-04-24T10:48:40Z</time>
      </trkpt>
      <trkpt lat="46.06311" lon="4.59895">
        <ele>297</ele>
        <time>2017-04-24T10:48:41Z</time>
      </trkpt>
      <trkpt lat="46.0631" lon="4.59902">
        <ele>297</ele>
        <time>2017-04-24T10:48:42Z</time>
      </trkpt>
      <trkpt lat="46.06309" lon="4.5991">
        <ele>297</ele>
        <time>2017-04-24T10:48:43Z</time>
      </trkpt>
      <trkpt lat="46.06307" lon="4.59917">
        <ele>297</ele>
        <time>2017-04-24T10:48:44Z</time>
      </trkpt>
      <trkpt lat="46.06306" lon="4.59925">
        <ele>297</ele>
        <time>2017-04-24T10:48:45Z</time>
      </trkpt>
      <trkpt lat="46.06305" lon="4.59932">
        <ele>296</ele>
        <time>2017-04-24T10:48:46Z</time>
      </trkpt>
      <trkpt lat="46.06304" lon="4.5994">
        <ele>296</ele>
        <time>2017-04-24T10:48:47Z</time>
      </trkpt>
      <trkpt lat="46.06303" lon="4.59948">
        <ele>296</ele>
        <time>2017-04-24T10:48:48Z</time>
      </trkpt>
      <trkpt lat="46.06302" lon="4.59956">
        <ele>296</ele>
        <time>2017-04-24T10:48:49Z</time>
      </trkpt>
      <trkpt lat="46.06301" lon="4.59963">
        <ele>296</ele>
        <time>2017-04-24T10:48:50Z</time>
      </trkpt>
      <trkpt lat="46.06301" lon="4.59971">
        <ele>296</ele>
        <time>2017-04-24T10:48:51Z</time>
      </trkpt>
      <trkpt lat="46.06301" lon="4.59979">
        <ele>296</ele>
        <time>2017-04-24T10:48:52Z</time>
      </trkpt>
      <trkpt lat="46.063" lon="4.59986">
        <ele>296</ele>
        <time>2017-04-24T10:48:53Z</time>
      </trkpt>
      <trkpt lat="46.063" lon="4.59993">
        <ele>296</ele>
        <time>2017-04-24T10:48:54Z</time>
      </trkpt>
      <trkpt lat="46.063" lon="4.6">
        <ele>297</ele>
        <time>2017-04-24T10:48:55Z</time>
      </trkpt>
      <trkpt lat="46.06299" lon="4.60007">
        <ele>297</ele>
        <time>2017-04-24T10:48:56Z</time>
      </trkpt>
      <trkpt lat="46.06298" lon="4.60014">
        <ele>297</ele>
        <time>2017-04-24T10:48:57Z</time>
      </trkpt>
      <trkpt lat="46.06298" lon="4.6002">
        <ele>297</ele>
        <time>2017-04-24T10:48:58Z</time>
      </trkpt>
      <trkpt lat="46.06299" lon="4.60027">
        <ele>297</ele>
        <time>2017-04-24T10:48:59Z</time>
      </trkpt>
      <trkpt lat="46.06299" lon="4.60033">
        <ele>297</ele>
        <time>2017-04-24T10:49:00Z</time>
      </trkpt>
      <trkpt lat="46.06299" lon="4.6004">
        <ele>297</ele>
        <time>2017-04-24T10:49:01Z</time>
      </trkpt>
      <trkpt lat="46.06298" lon="4.60048">
        <ele>297</ele>
        <time>2017-04-24T10:49:02Z</time>
      </trkpt>
      <trkpt lat="46.06299" lon="4.60055">
        <ele>297</ele>
        <time>2017-04-24T10:49:03Z</time>
      </trkpt>
      <trkpt lat="46.06299" lon="4.60063">
        <ele>297</ele>
        <time>2017-04-24T10:49:04Z</time>
      </trkpt>
      <trkpt lat="46.06299" lon="4.6007">
        <ele>297</ele>
        <time>2017-04-24T10:49:05Z</time>
      </trkpt>
      <trkpt lat="46.06299" lon="4.60079">
        <ele>297</ele>
        <time>2017-04-24T10:49:06Z</time>
      </trkpt>
      <trkpt lat="46.06298" lon="4.60087">
        <ele>297</ele>
        <time>2017-04-24T10:49:07Z</time>
      </trkpt>
      <trkpt lat="46.06297" lon="4.60095">
        <ele>297</ele>
        <time>2017-04-24T10:49:08Z</time>
      </trkpt>
      <trkpt lat="46.06296" lon="4.60103">
        <ele>297</ele>
        <time>2017-04-24T10:49:09Z</time>
      </trkpt>
      <trkpt lat="46.06296" lon="4.60112">
        <ele>297</ele>
        <time>2017-04-24T10:49:10Z</time>
      </trkpt>
      <trkpt lat="46.06295" lon="4.60121">
        <ele>297</ele>
        <time>2017-04-24T10:49:11Z</time>
      </trkpt>
      <trkpt lat="46.06294" lon="4.60129">
        <ele>297</ele>
        <time>2017-04-24T10:49:12Z</time>
      </trkpt>
      <trkpt lat="46.06293" lon="4.60137">
        <ele>297</ele>
        <time>2017-04-24T10:49:13Z</time>
      </trkpt>
      <trkpt lat="46.06292" lon="4.60146">
        <ele>297</ele>
        <time>2017-04-24T10:49:14Z</time>
      </trkpt>
      <trkpt lat="46.06291" lon="4.60154">
        <ele>296</ele>
        <time>2017-04-24T10:49:15Z</time>
      </trkpt>
      <trkpt lat="46.0629" lon="4.60162">
        <ele>296</ele>
        <time>2017-04-24T10:49:16Z</time>
      </trkpt>
      <trkpt lat="46.06289" lon="4.60171">
        <ele>295</ele>
        <time>2017-04-24T10:49:17Z</time>
      </trkpt>
      <trkpt lat="46.06288" lon="4.6018">
        <ele>294</ele>
        <time>2017-04-24T10:49:18Z</time>
      </trkpt>
      <trkpt lat="46.06286" lon="4.60188">
        <ele>294</ele>
        <time>2017-04-24T10:49:19Z</time>
      </trkpt>
      <trkpt lat="46.06284" lon="4.60196">
        <ele>294</ele>
        <time>2017-04-24T10:49:20Z</time>
      </trkpt>
      <trkpt lat="46.06283" lon="4.60205">
        <ele>294</ele>
        <time>2017-04-24T10:49:21Z</time>
      </trkpt>
      <trkpt lat="46.06282" lon="4.60213">
        <ele>294</ele>
        <time>2017-04-24T10:49:22Z</time>
      </trkpt>
      <trkpt lat="46.06281" lon="4.60221">
        <ele>293</ele>
        <time>2017-04-24T10:49:23Z</time>
      </trkpt>
      <trkpt lat="46.06278" lon="4.6023">
        <ele>293</ele>
        <time>2017-04-24T10:49:24Z</time>
      </trkpt>
      <trkpt lat="46.06275" lon="4.60238">
        <ele>292</ele>
        <time>2017-04-24T10:49:25Z</time>
      </trkpt>
      <trkpt lat="46.06272" lon="4.60246">
        <ele>292</ele>
        <time>2017-04-24T10:49:26Z</time>
      </trkpt>
      <trkpt lat="46.06268" lon="4.60255">
        <ele>291</ele>
        <time>2017-04-24T10:49:27Z</time>
      </trkpt>
      <trkpt lat="46.06264" lon="4.60264">
        <ele>290</ele>
        <time>2017-04-24T10:49:28Z</time>
      </trkpt>
      <trkpt lat="46.06259" lon="4.60271">
        <ele>290</ele>
        <time>2017-04-24T10:49:29Z</time>
      </trkpt>
      <trkpt lat="46.06253" lon="4.60278">
        <ele>291</ele>
        <time>2017-04-24T10:49:30Z</time>
      </trkpt>
      <trkpt lat="46.06248" lon="4.60286">
        <ele>287</ele>
        <time>2017-04-24T10:49:31Z</time>
      </trkpt>
      <trkpt lat="46.06243" lon="4.60293">
        <ele>287</ele>
        <time>2017-04-24T10:49:32Z</time>
      </trkpt>
      <trkpt lat="46.06237" lon="4.603">
        <ele>287</ele>
        <time>2017-04-24T10:49:33Z</time>
      </trkpt>
      <trkpt lat="46.06232" lon="4.60308">
        <ele>287</ele>
        <time>2017-04-24T10:49:34Z</time>
      </trkpt>
      <trkpt lat="46.06228" lon="4.60317">
        <ele>287</ele>
        <time>2017-04-24T10:49:35Z</time>
      </trkpt>
      <trkpt lat="46.06223" lon="4.60325">
        <ele>287</ele>
        <time>2017-04-24T10:49:36Z</time>
      </trkpt>
      <trkpt lat="46.06218" lon="4.60334">
        <ele>287</ele>
        <time>2017-04-24T10:49:37Z</time>
      </trkpt>
      <trkpt lat="46.06212" lon="4.60342">
        <ele>287</ele>
        <time>2017-04-24T10:49:38Z</time>
      </trkpt>
      <trkpt lat="46.06206" lon="4.6035">
        <ele>287</ele>
        <time>2017-04-24T10:49:39Z</time>
      </trkpt>
      <trkpt lat="46.06201" lon="4.60358">
        <ele>287</ele>
        <time>2017-04-24T10:49:40Z</time>
      </trkpt>
      <trkpt lat="46.06196" lon="4.60368">
        <ele>287</ele>
        <time>2017-04-24T10:49:41Z</time>
      </trkpt>
      <trkpt lat="46.0619" lon="4.60376">
        <ele>287</ele>
        <time>2017-04-24T10:49:42Z</time>
      </trkpt>
      <trkpt lat="46.06185" lon="4.60384">
        <ele>287</ele>
        <time>2017-04-24T10:49:43Z</time>
      </trkpt>
      <trkpt lat="46.06179" lon="4.60391">
        <ele>286</ele>
        <time>2017-04-24T10:49:44Z</time>
      </trkpt>
      <trkpt lat="46.06173" lon="4.60399">
        <ele>286</ele>
        <time>2017-04-24T10:49:45Z</time>
      </trkpt>
      <trkpt lat="46.06168" lon="4.60407">
        <ele>285</ele>
        <time>2017-04-24T10:49:46Z</time>
      </trkpt>
      <trkpt lat="46.06162" lon="4.60414">
        <ele>284</ele>
        <time>2017-04-24T10:49:47Z</time>
      </trkpt>
      <trkpt lat="46.06157" lon="4.60422">
        <ele>283</ele>
        <time>2017-04-24T10:49:48Z</time>
      </trkpt>
      <trkpt lat="46.06152" lon="4.60432">
        <ele>283</ele>
        <time>2017-04-24T10:49:49Z</time>
      </trkpt>
      <trkpt lat="46.06147" lon="4.60441">
        <ele>282</ele>
        <time>2017-04-24T10:49:50Z</time>
      </trkpt>
      <trkpt lat="46.06142" lon="4.6045">
        <ele>282</ele>
        <time>2017-04-24T10:49:51Z</time>
      </trkpt>
      <trkpt lat="46.06137" lon="4.6046">
        <ele>282</ele>
        <time>2017-04-24T10:49:52Z</time>
      </trkpt>
      <trkpt lat="46.06133" lon="4.60471">
        <ele>282</ele>
        <time>2017-04-24T10:49:53Z</time>
      </trkpt>
      <trkpt lat="46.06129" lon="4.60482">
        <ele>282</ele>
        <time>2017-04-24T10:49:54Z</time>
      </trkpt>
      <trkpt lat="46.06125" lon="4.60493">
        <ele>282</ele>
        <time>2017-04-24T10:49:55Z</time>
      </trkpt>
      <trkpt lat="46.06121" lon="4.60504">
        <ele>282</ele>
        <time>2017-04-24T10:49:56Z</time>
      </trkpt>
      <trkpt lat="46.06117" lon="4.60515">
        <ele>282</ele>
        <time>2017-04-24T10:49:57Z</time>
      </trkpt>
      <trkpt lat="46.06112" lon="4.60526">
        <ele>282</ele>
        <time>2017-04-24T10:49:58Z</time>
      </trkpt>
      <trkpt lat="46.06108" lon="4.60538">
        <ele>282</ele>
        <time>2017-04-24T10:49:59Z</time>
      </trkpt>
      <trkpt lat="46.06103" lon="4.60548">
        <ele>282</ele>
        <time>2017-04-24T10:50:00Z</time>
      </trkpt>
      <trkpt lat="46.06097" lon="4.60558">
        <ele>281</ele>
        <time>2017-04-24T10:50:01Z</time>
      </trkpt>
      <trkpt lat="46.06092" lon="4.60568">
        <ele>281</ele>
        <time>2017-04-24T10:50:02Z</time>
      </trkpt>
      <trkpt lat="46.06087" lon="4.60577">
        <ele>280</ele>
        <time>2017-04-24T10:50:03Z</time>
      </trkpt>
      <trkpt lat="46.06081" lon="4.60585">
        <ele>279</ele>
        <time>2017-04-24T10:50:04Z</time>
      </trkpt>
      <trkpt lat="46.06074" lon="4.60593">
        <ele>279</ele>
        <time>2017-04-24T10:50:05Z</time>
      </trkpt>
      <trkpt lat="46.06068" lon="4.606">
        <ele>279</ele>
        <time>2017-04-24T10:50:06Z</time>
      </trkpt>
      <trkpt lat="46.06062" lon="4.60607">
        <ele>279</ele>
        <time>2017-04-24T10:50:07Z</time>
      </trkpt>
      <trkpt lat="46.06056" lon="4.60613">
        <ele>280</ele>
        <time>2017-04-24T10:50:08Z</time>
      </trkpt>
      <trkpt lat="46.06049" lon="4.60618">
        <ele>280</ele>
        <time>2017-04-24T10:50:09Z</time>
      </trkpt>
      <trkpt lat="46.06043" lon="4.60624">
        <ele>279</ele>
        <time>2017-04-24T10:50:10Z</time>
      </trkpt>
      <trkpt lat="46.06037" lon="4.60629">
        <ele>279</ele>
        <time>2017-04-24T10:50:11Z</time>
      </trkpt>
      <trkpt lat="46.06031" lon="4.60634">
        <ele>279</ele>
        <time>2017-04-24T10:50:12Z</time>
      </trkpt>
      <trkpt lat="46.06025" lon="4.60638">
        <ele>279</ele>
        <time>2017-04-24T10:50:13Z</time>
      </trkpt>
      <trkpt lat="46.0602" lon="4.60643">
        <ele>279</ele>
        <time>2017-04-24T10:50:14Z</time>
      </trkpt>
      <trkpt lat="46.06014" lon="4.60648">
        <ele>279</ele>
        <time>2017-04-24T10:50:15Z</time>
      </trkpt>
      <trkpt lat="46.06009" lon="4.60653">
        <ele>279</ele>
        <time>2017-04-24T10:50:16Z</time>
      </trkpt>
      <trkpt lat="46.06004" lon="4.60657">
        <ele>279</ele>
        <time>2017-04-24T10:50:17Z</time>
      </trkpt>
      <trkpt lat="46.05999" lon="4.60661">
        <ele>278</ele>
        <time>2017-04-24T10:50:18Z</time>
      </trkpt>
      <trkpt lat="46.05994" lon="4.60665">
        <ele>278</ele>
        <time>2017-04-24T10:50:19Z</time>
      </trkpt>
      <trkpt lat="46.05989" lon="4.60669">
        <ele>278</ele>
        <time>2017-04-24T10:50:20Z</time>
      </trkpt>
      <trkpt lat="46.05984" lon="4.60673">
        <ele>278</ele>
        <time>2017-04-24T10:50:21Z</time>
      </trkpt>
      <trkpt lat="46.0598" lon="4.60676">
        <ele>278</ele>
        <time>2017-04-24T10:50:22Z</time>
      </trkpt>
      <trkpt lat="46.05976" lon="4.6068">
        <ele>278</ele>
        <time>2017-04-24T10:50:23Z</time>
      </trkpt>
      <trkpt lat="46.05972" lon="4.60684">
        <ele>278</ele>
        <time>2017-04-24T10:50:24Z</time>
      </trkpt>
      <trkpt lat="46.05967" lon="4.60688">
        <ele>278</ele>
        <time>2017-04-24T10:50:25Z</time>
      </trkpt>
      <trkpt lat="46.05963" lon="4.60692">
        <ele>278</ele>
        <time>2017-04-24T10:50:26Z</time>
      </trkpt>
      <trkpt lat="46.05958" lon="4.60697">
        <ele>278</ele>
        <time>2017-04-24T10:50:27Z</time>
      </trkpt>
      <trkpt lat="46.05954" lon="4.60702">
        <ele>278</ele>
        <time>2017-04-24T10:50:28Z</time>
      </trkpt>
      <trkpt lat="46.05949" lon="4.60708">
        <ele>278</ele>
        <time>2017-04-24T10:50:29Z</time>
      </trkpt>
      <trkpt lat="46.05945" lon="4.60713">
        <ele>278</ele>
        <time>2017-04-24T10:50:30Z</time>
      </trkpt>
      <trkpt lat="46.05941" lon="4.60718">
        <ele>278</ele>
        <time>2017-04-24T10:50:31Z</time>
      </trkpt>
      <trkpt lat="46.05937" lon="4.60723">
        <ele>278</ele>
        <time>2017-04-24T10:50:32Z</time>
      </trkpt>
      <trkpt lat="46.05932" lon="4.60728">
        <ele>278</ele>
        <time>2017-04-24T10:50:33Z</time>
      </trkpt>
      <trkpt lat="46.05927" lon="4.60731">
        <ele>277</ele>
        <time>2017-04-24T10:50:34Z</time>
      </trkpt>
      <trkpt lat="46.05922" lon="4.60734">
        <ele>277</ele>
        <time>2017-04-24T10:50:35Z</time>
      </trkpt>
      <trkpt lat="46.05918" lon="4.60737">
        <ele>277</ele>
        <time>2017-04-24T10:50:36Z</time>
      </trkpt>
      <trkpt lat="46.05912" lon="4.60738">
        <ele>275</ele>
        <time>2017-04-24T10:50:37Z</time>
      </trkpt>
      <trkpt lat="46.05906" lon="4.6074">
        <ele>275</ele>
        <time>2017-04-24T10:50:38Z</time>
      </trkpt>
      <trkpt lat="46.05902" lon="4.60744">
        <ele>275</ele>
        <time>2017-04-24T10:50:39Z</time>
      </trkpt>
      <trkpt lat="46.05899" lon="4.60749">
        <ele>275</ele>
        <time>2017-04-24T10:50:40Z</time>
      </trkpt>
      <trkpt lat="46.05896" lon="4.60754">
        <ele>275</ele>
        <time>2017-04-24T10:50:41Z</time>
      </trkpt>
      <trkpt lat="46.05895" lon="4.60761">
        <ele>274</ele>
        <time>2017-04-24T10:50:42Z</time>
      </trkpt>
      <trkpt lat="46.05894" lon="4.60769">
        <ele>274</ele>
        <time>2017-04-24T10:50:43Z</time>
      </trkpt>
      <trkpt lat="46.05894" lon="4.60778">
        <ele>274</ele>
        <time>2017-04-24T10:50:44Z</time>
      </trkpt>
      <trkpt lat="46.05893" lon="4.60786">
        <ele>274</ele>
        <time>2017-04-24T10:50:45Z</time>
      </trkpt>
      <trkpt lat="46.05892" lon="4.60795">
        <ele>274</ele>
        <time>2017-04-24T10:50:46Z</time>
      </trkpt>
      <trkpt lat="46.05891" lon="4.60803">
        <ele>274</ele>
        <time>2017-04-24T10:50:47Z</time>
      </trkpt>
      <trkpt lat="46.0589" lon="4.60812">
        <ele>274</ele>
        <time>2017-04-24T10:50:48Z</time>
      </trkpt>
      <trkpt lat="46.0589" lon="4.6082">
        <ele>274</ele>
        <time>2017-04-24T10:50:49Z</time>
      </trkpt>
      <trkpt lat="46.05889" lon="4.60828">
        <ele>274</ele>
        <time>2017-04-24T10:50:50Z</time>
      </trkpt>
      <trkpt lat="46.05889" lon="4.60835">
        <ele>273</ele>
        <time>2017-04-24T10:50:51Z</time>
      </trkpt>
      <trkpt lat="46.05889" lon="4.60843">
        <ele>273</ele>
        <time>2017-04-24T10:50:52Z</time>
      </trkpt>
      <trkpt lat="46.05889" lon="4.6085">
        <ele>273</ele>
        <time>2017-04-24T10:50:53Z</time>
      </trkpt>
      <trkpt lat="46.05888" lon="4.60857">
        <ele>273</ele>
        <time>2017-04-24T10:50:54Z</time>
      </trkpt>
      <trkpt lat="46.05888" lon="4.60865">
        <ele>273</ele>
        <time>2017-04-24T10:50:55Z</time>
      </trkpt>
      <trkpt lat="46.05888" lon="4.60873">
        <ele>273</ele>
        <time>2017-04-24T10:50:56Z</time>
      </trkpt>
      <trkpt lat="46.05887" lon="4.6088">
        <ele>273</ele>
        <time>2017-04-24T10:50:57Z</time>
      </trkpt>
      <trkpt lat="46.05886" lon="4.60888">
        <ele>273</ele>
        <time>2017-04-24T10:50:58Z</time>
      </trkpt>
      <trkpt lat="46.05886" lon="4.60896">
        <ele>272</ele>
        <time>2017-04-24T10:50:59Z</time>
      </trkpt>
      <trkpt lat="46.05886" lon="4.60904">
        <ele>272</ele>
        <time>2017-04-24T10:51:00Z</time>
      </trkpt>
      <trkpt lat="46.05885" lon="4.60911">
        <ele>272</ele>
        <time>2017-04-24T10:51:01Z</time>
      </trkpt>
      <trkpt lat="46.05885" lon="4.60919">
        <ele>271</ele>
        <time>2017-04-24T10:51:02Z</time>
      </trkpt>
      <trkpt lat="46.05884" lon="4.60926">
        <ele>271</ele>
        <time>2017-04-24T10:51:03Z</time>
      </trkpt>
      <trkpt lat="46.05883" lon="4.60934">
        <ele>271</ele>
        <time>2017-04-24T10:51:04Z</time>
      </trkpt>
      <trkpt lat="46.05882" lon="4.60943">
        <ele>271</ele>
        <time>2017-04-24T10:51:05Z</time>
      </trkpt>
      <trkpt lat="46.05881" lon="4.60952">
        <ele>271</ele>
        <time>2017-04-24T10:51:06Z</time>
      </trkpt>
      <trkpt lat="46.05881" lon="4.6096">
        <ele>271</ele>
        <time>2017-04-24T10:51:07Z</time>
      </trkpt>
      <trkpt lat="46.05882" lon="4.6097">
        <ele>271</ele>
        <time>2017-04-24T10:51:08Z</time>
      </trkpt>
      <trkpt lat="46.05882" lon="4.6098">
        <ele>271</ele>
        <time>2017-04-24T10:51:09Z</time>
      </trkpt>
      <trkpt lat="46.05883" lon="4.60989">
        <ele>271</ele>
        <time>2017-04-24T10:51:10Z</time>
      </trkpt>
      <trkpt lat="46.05884" lon="4.60999">
        <ele>271</ele>
        <time>2017-04-24T10:51:11Z</time>
      </trkpt>
      <trkpt lat="46.05885" lon="4.61009">
        <ele>270</ele>
        <time>2017-04-24T10:51:12Z</time>
      </trkpt>
      <trkpt lat="46.05886" lon="4.61018">
        <ele>270</ele>
        <time>2017-04-24T10:51:13Z</time>
      </trkpt>
      <trkpt lat="46.05888" lon="4.61027">
        <ele>270</ele>
        <time>2017-04-24T10:51:14Z</time>
      </trkpt>
      <trkpt lat="46.0589" lon="4.61036">
        <ele>270</ele>
        <time>2017-04-24T10:51:15Z</time>
      </trkpt>
      <trkpt lat="46.05891" lon="4.61045">
        <ele>270</ele>
        <time>2017-04-24T10:51:16Z</time>
      </trkpt>
      <trkpt lat="46.05893" lon="4.61054">
        <ele>269</ele>
        <time>2017-04-24T10:51:17Z</time>
      </trkpt>
      <trkpt lat="46.05895" lon="4.61063">
        <ele>269</ele>
        <time>2017-04-24T10:51:18Z</time>
      </trkpt>
      <trkpt lat="46.05897" lon="4.61071">
        <ele>270</ele>
        <time>2017-04-24T10:51:19Z</time>
      </trkpt>
      <trkpt lat="46.05898" lon="4.6108">
        <ele>270</ele>
        <time>2017-04-24T10:51:20Z</time>
      </trkpt>
      <trkpt lat="46.059" lon="4.61088">
        <ele>269</ele>
        <time>2017-04-24T10:51:21Z</time>
      </trkpt>
      <trkpt lat="46.05901" lon="4.61096">
        <ele>269</ele>
        <time>2017-04-24T10:51:22Z</time>
      </trkpt>
      <trkpt lat="46.05902" lon="4.61105">
        <ele>269</ele>
        <time>2017-04-24T10:51:23Z</time>
      </trkpt>
      <trkpt lat="46.05904" lon="4.61113">
        <ele>269</ele>
        <time>2017-04-24T10:51:24Z</time>
      </trkpt>
      <trkpt lat="46.05905" lon="4.61122">
        <ele>269</ele>
        <time>2017-04-24T10:51:25Z</time>
      </trkpt>
      <trkpt lat="46.05907" lon="4.6113">
        <ele>268</ele>
        <time>2017-04-24T10:51:26Z</time>
      </trkpt>
      <trkpt lat="46.05908" lon="4.61138">
        <ele>268</ele>
        <time>2017-04-24T10:51:27Z</time>
      </trkpt>
      <trkpt lat="46.0591" lon="4.61148">
        <ele>269</ele>
        <time>2017-04-24T10:51:28Z</time>
      </trkpt>
      <trkpt lat="46.05912" lon="4.61157">
        <ele>269</ele>
        <time>2017-04-24T10:51:29Z</time>
      </trkpt>
      <trkpt lat="46.05914" lon="4.61166">
        <ele>269</ele>
        <time>2017-04-24T10:51:30Z</time>
      </trkpt>
      <trkpt lat="46.05916" lon="4.61175">
        <ele>268</ele>
        <time>2017-04-24T10:51:31Z</time>
      </trkpt>
      <trkpt lat="46.05917" lon="4.61184">
        <ele>270</ele>
        <time>2017-04-24T10:51:32Z</time>
      </trkpt>
      <trkpt lat="46.05919" lon="4.61193">
        <ele>270</ele>
        <time>2017-04-24T10:51:33Z</time>
      </trkpt>
      <trkpt lat="46.0592" lon="4.61203">
        <ele>270</ele>
        <time>2017-04-24T10:51:34Z</time>
      </trkpt>
      <trkpt lat="46.05922" lon="4.61212">
        <ele>270</ele>
        <time>2017-04-24T10:51:35Z</time>
      </trkpt>
      <trkpt lat="46.05924" lon="4.61221">
        <ele>270</ele>
        <time>2017-04-24T10:51:36Z</time>
      </trkpt>
      <trkpt lat="46.05926" lon="4.6123">
        <ele>269</ele>
        <time>2017-04-24T10:51:37Z</time>
      </trkpt>
      <trkpt lat="46.05928" lon="4.6124">
        <ele>269</ele>
        <time>2017-04-24T10:51:38Z</time>
      </trkpt>
      <trkpt lat="46.0593" lon="4.61249">
        <ele>269</ele>
        <time>2017-04-24T10:51:39Z</time>
      </trkpt>
      <trkpt lat="46.05933" lon="4.61259">
        <ele>268</ele>
        <time>2017-04-24T10:51:40Z</time>
      </trkpt>
      <trkpt lat="46.05934" lon="4.61269">
        <ele>268</ele>
        <time>2017-04-24T10:51:41Z</time>
      </trkpt>
      <trkpt lat="46.05936" lon="4.61279">
        <ele>268</ele>
        <time>2017-04-24T10:51:42Z</time>
      </trkpt>
      <trkpt lat="46.05937" lon="4.61289">
        <ele>268</ele>
        <time>2017-04-24T10:51:43Z</time>
      </trkpt>
      <trkpt lat="46.05938" lon="4.61299">
        <ele>268</ele>
        <time>2017-04-24T10:51:44Z</time>
      </trkpt>
      <trkpt lat="46.05939" lon="4.6131">
        <ele>268</ele>
        <time>2017-04-24T10:51:45Z</time>
      </trkpt>
      <trkpt lat="46.0594" lon="4.61321">
        <ele>268</ele>
        <time>2017-04-24T10:51:46Z</time>
      </trkpt>
      <trkpt lat="46.05941" lon="4.61331">
        <ele>268</ele>
        <time>2017-04-24T10:51:47Z</time>
      </trkpt>
      <trkpt lat="46.05941" lon="4.61343">
        <ele>267</ele>
        <time>2017-04-24T10:51:48Z</time>
      </trkpt>
      <trkpt lat="46.0594" lon="4.61354">
        <ele>267</ele>
        <time>2017-04-24T10:51:49Z</time>
      </trkpt>
      <trkpt lat="46.05938" lon="4.61364">
        <ele>267</ele>
        <time>2017-04-24T10:51:50Z</time>
      </trkpt>
      <trkpt lat="46.05937" lon="4.61375">
        <ele>267</ele>
        <time>2017-04-24T10:51:51Z</time>
      </trkpt>
      <trkpt lat="46.05935" lon="4.61385">
        <ele>267</ele>
        <time>2017-04-24T10:51:52Z</time>
      </trkpt>
      <trkpt lat="46.05933" lon="4.61395">
        <ele>266</ele>
        <time>2017-04-24T10:51:53Z</time>
      </trkpt>
      <trkpt lat="46.05932" lon="4.61404">
        <ele>266</ele>
        <time>2017-04-24T10:51:54Z</time>
      </trkpt>
      <trkpt lat="46.0593" lon="4.61413">
        <ele>266</ele>
        <time>2017-04-24T10:51:55Z</time>
      </trkpt>
      <trkpt lat="46.05929" lon="4.61422">
        <ele>266</ele>
        <time>2017-04-24T10:51:56Z</time>
      </trkpt>
      <trkpt lat="46.05927" lon="4.61432">
        <ele>266</ele>
        <time>2017-04-24T10:51:57Z</time>
      </trkpt>
      <trkpt lat="46.05925" lon="4.61441">
        <ele>266</ele>
        <time>2017-04-24T10:51:58Z</time>
      </trkpt>
      <trkpt lat="46.05923" lon="4.61451">
        <ele>266</ele>
        <time>2017-04-24T10:51:59Z</time>
      </trkpt>
      <trkpt lat="46.05922" lon="4.61461">
        <ele>266</ele>
        <time>2017-04-24T10:52:00Z</time>
      </trkpt>
      <trkpt lat="46.0592" lon="4.61471">
        <ele>265</ele>
        <time>2017-04-24T10:52:01Z</time>
      </trkpt>
      <trkpt lat="46.05918" lon="4.61481">
        <ele>265</ele>
        <time>2017-04-24T10:52:02Z</time>
      </trkpt>
      <trkpt lat="46.05917" lon="4.61491">
        <ele>264</ele>
        <time>2017-04-24T10:52:03Z</time>
      </trkpt>
      <trkpt lat="46.05915" lon="4.61501">
        <ele>263</ele>
        <time>2017-04-24T10:52:04Z</time>
      </trkpt>
      <trkpt lat="46.05913" lon="4.61511">
        <ele>263</ele>
        <time>2017-04-24T10:52:05Z</time>
      </trkpt>
      <trkpt lat="46.05911" lon="4.61521">
        <ele>263</ele>
        <time>2017-04-24T10:52:06Z</time>
      </trkpt>
      <trkpt lat="46.0591" lon="4.6153">
        <ele>263</ele>
        <time>2017-04-24T10:52:07Z</time>
      </trkpt>
      <trkpt lat="46.05908" lon="4.6154">
        <ele>263</ele>
        <time>2017-04-24T10:52:08Z</time>
      </trkpt>
      <trkpt lat="46.05905" lon="4.6155">
        <ele>263</ele>
        <time>2017-04-24T10:52:09Z</time>
      </trkpt>
      <trkpt lat="46.05904" lon="4.61559">
        <ele>263</ele>
        <time>2017-04-24T10:52:10Z</time>
      </trkpt>
      <trkpt lat="46.05902" lon="4.61569">
        <ele>263</ele>
        <time>2017-04-24T10:52:11Z</time>
      </trkpt>
      <trkpt lat="46.059" lon="4.61578">
        <ele>263</ele>
        <time>2017-04-24T10:52:12Z</time>
      </trkpt>
      <trkpt lat="46.05899" lon="4.61588">
        <ele>263</ele>
        <time>2017-04-24T10:52:13Z</time>
      </trkpt>
      <trkpt lat="46.05897" lon="4.61597">
        <ele>263</ele>
        <time>2017-04-24T10:52:14Z</time>
      </trkpt>
      <trkpt lat="46.05896" lon="4.61607">
        <ele>263</ele>
        <time>2017-04-24T10:52:15Z</time>
      </trkpt>
      <trkpt lat="46.05894" lon="4.61616">
        <ele>263</ele>
        <time>2017-04-24T10:52:16Z</time>
      </trkpt>
      <trkpt lat="46.05893" lon="4.61626">
        <ele>263</ele>
        <time>2017-04-24T10:52:17Z</time>
      </trkpt>
      <trkpt lat="46.05892" lon="4.61637">
        <ele>263</ele>
        <time>2017-04-24T10:52:18Z</time>
      </trkpt>
      <trkpt lat="46.0589" lon="4.61647">
        <ele>263</ele>
        <time>2017-04-24T10:52:19Z</time>
      </trkpt>
      <trkpt lat="46.0589" lon="4.61657">
        <ele>263</ele>
        <time>2017-04-24T10:52:20Z</time>
      </trkpt>
      <trkpt lat="46.0589" lon="4.61667">
        <ele>262</ele>
        <time>2017-04-24T10:52:21Z</time>
      </trkpt>
      <trkpt lat="46.0589" lon="4.61678">
        <ele>262</ele>
        <time>2017-04-24T10:52:22Z</time>
      </trkpt>
      <trkpt lat="46.05889" lon="4.61689">
        <ele>262</ele>
        <time>2017-04-24T10:52:23Z</time>
      </trkpt>
      <trkpt lat="46.05889" lon="4.61699">
        <ele>262</ele>
        <time>2017-04-24T10:52:24Z</time>
      </trkpt>
      <trkpt lat="46.05889" lon="4.6171">
        <ele>262</ele>
        <time>2017-04-24T10:52:25Z</time>
      </trkpt>
      <trkpt lat="46.05889" lon="4.61721">
        <ele>262</ele>
        <time>2017-04-24T10:52:26Z</time>
      </trkpt>
      <trkpt lat="46.05889" lon="4.61731">
        <ele>261</ele>
        <time>2017-04-24T10:52:27Z</time>
      </trkpt>
      <trkpt lat="46.0589" lon="4.61742">
        <ele>261</ele>
        <time>2017-04-24T10:52:28Z</time>
      </trkpt>
      <trkpt lat="46.0589" lon="4.61752">
        <ele>260</ele>
        <time>2017-04-24T10:52:29Z</time>
      </trkpt>
      <trkpt lat="46.0589" lon="4.61762">
        <ele>260</ele>
        <time>2017-04-24T10:52:30Z</time>
      </trkpt>
      <trkpt lat="46.0589" lon="4.61772">
        <ele>260</ele>
        <time>2017-04-24T10:52:31Z</time>
      </trkpt>
      <trkpt lat="46.0589" lon="4.61781">
        <ele>260</ele>
        <time>2017-04-24T10:52:32Z</time>
      </trkpt>
      <trkpt lat="46.0589" lon="4.61791">
        <ele>260</ele>
        <time>2017-04-24T10:52:33Z</time>
      </trkpt>
      <trkpt lat="46.0589" lon="4.618">
        <ele>259</ele>
        <time>2017-04-24T10:52:34Z</time>
      </trkpt>
      <trkpt lat="46.0589" lon="4.61809">
        <ele>259</ele>
        <time>2017-04-24T10:52:35Z</time>
      </trkpt>
      <trkpt lat="46.05891" lon="4.61818">
        <ele>259</ele>
        <time>2017-04-24T10:52:36Z</time>
      </trkpt>
      <trkpt lat="46.05892" lon="4.61827">
        <ele>259</ele>
        <time>2017-04-24T10:52:37Z</time>
      </trkpt>
      <trkpt lat="46.05892" lon="4.61837">
        <ele>258</ele>
        <time>2017-04-24T10:52:38Z</time>
      </trkpt>
      <trkpt lat="46.05893" lon="4.61846">
        <ele>258</ele>
        <time>2017-04-24T10:52:39Z</time>
      </trkpt>
      <trkpt lat="46.05894" lon="4.61854">
        <ele>258</ele>
        <time>2017-04-24T10:52:40Z</time>
      </trkpt>
      <trkpt lat="46.05894" lon="4.61863">
        <ele>258</ele>
        <time>2017-04-24T10:52:41Z</time>
      </trkpt>
      <trkpt lat="46.05895" lon="4.61873">
        <ele>258</ele>
        <time>2017-04-24T10:52:42Z</time>
      </trkpt>
      <trkpt lat="46.05895" lon="4.61882">
        <ele>258</ele>
        <time>2017-04-24T10:52:43Z</time>
      </trkpt>
      <trkpt lat="46.05896" lon="4.61891">
        <ele>258</ele>
        <time>2017-04-24T10:52:44Z</time>
      </trkpt>
      <trkpt lat="46.05897" lon="4.61901">
        <ele>258</ele>
        <time>2017-04-24T10:52:45Z</time>
      </trkpt>
      <trkpt lat="46.05897" lon="4.61911">
        <ele>258</ele>
        <time>2017-04-24T10:52:46Z</time>
      </trkpt>
      <trkpt lat="46.05898" lon="4.61921">
        <ele>258</ele>
        <time>2017-04-24T10:52:47Z</time>
      </trkpt>
      <trkpt lat="46.05898" lon="4.61932">
        <ele>258</ele>
        <time>2017-04-24T10:52:48Z</time>
      </trkpt>
      <trkpt lat="46.05899" lon="4.61942">
        <ele>258</ele>
        <time>2017-04-24T10:52:49Z</time>
      </trkpt>
      <trkpt lat="46.059" lon="4.61952">
        <ele>258</ele>
        <time>2017-04-24T10:52:50Z</time>
      </trkpt>
      <trkpt lat="46.059" lon="4.61963">
        <ele>258</ele>
        <time>2017-04-24T10:52:51Z</time>
      </trkpt>
      <trkpt lat="46.05901" lon="4.61972">
        <ele>258</ele>
        <time>2017-04-24T10:52:52Z</time>
      </trkpt>
      <trkpt lat="46.05902" lon="4.61982">
        <ele>257</ele>
        <time>2017-04-24T10:52:53Z</time>
      </trkpt>
      <trkpt lat="46.05902" lon="4.61991">
        <ele>257</ele>
        <time>2017-04-24T10:52:54Z</time>
      </trkpt>
      <trkpt lat="46.05903" lon="4.62">
        <ele>257</ele>
        <time>2017-04-24T10:52:55Z</time>
      </trkpt>
      <trkpt lat="46.05903" lon="4.6201">
        <ele>257</ele>
        <time>2017-04-24T10:52:56Z</time>
      </trkpt>
      <trkpt lat="46.05904" lon="4.62019">
        <ele>257</ele>
        <time>2017-04-24T10:52:57Z</time>
      </trkpt>
      <trkpt lat="46.05904" lon="4.62027">
        <ele>257</ele>
        <time>2017-04-24T10:52:58Z</time>
      </trkpt>
      <trkpt lat="46.05904" lon="4.62036">
        <ele>257</ele>
        <time>2017-04-24T10:52:59Z</time>
      </trkpt>
      <trkpt lat="46.05904" lon="4.62045">
        <ele>257</ele>
        <time>2017-04-24T10:53:00Z</time>
      </trkpt>
      <trkpt lat="46.05904" lon="4.62053">
        <ele>257</ele>
        <time>2017-04-24T10:53:01Z</time>
      </trkpt>
      <trkpt lat="46.05904" lon="4.62062">
        <ele>257</ele>
        <time>2017-04-24T10:53:02Z</time>
      </trkpt>
      <trkpt lat="46.05903" lon="4.6207">
        <ele>257</ele>
        <time>2017-04-24T10:53:03Z</time>
      </trkpt>
      <trkpt lat="46.05903" lon="4.62078">
        <ele>257</ele>
        <time>2017-04-24T10:53:04Z</time>
      </trkpt>
      <trkpt lat="46.05903" lon="4.62087">
        <ele>257</ele>
        <time>2017-04-24T10:53:05Z</time>
      </trkpt>
      <trkpt lat="46.05903" lon="4.62095">
        <ele>257</ele>
        <time>2017-04-24T10:53:06Z</time>
      </trkpt>
      <trkpt lat="46.05903" lon="4.62104">
        <ele>256</ele>
        <time>2017-04-24T10:53:07Z</time>
      </trkpt>
      <trkpt lat="46.05903" lon="4.62114">
        <ele>256</ele>
        <time>2017-04-24T10:53:08Z</time>
      </trkpt>
      <trkpt lat="46.05902" lon="4.62124">
        <ele>256</ele>
        <time>2017-04-24T10:53:09Z</time>
      </trkpt>
      <trkpt lat="46.05902" lon="4.62133">
        <ele>256</ele>
        <time>2017-04-24T10:53:10Z</time>
      </trkpt>
      <trkpt lat="46.05902" lon="4.62143">
        <ele>256</ele>
        <time>2017-04-24T10:53:11Z</time>
      </trkpt>
      <trkpt lat="46.059" lon="4.62153">
        <ele>256</ele>
        <time>2017-04-24T10:53:12Z</time>
      </trkpt>
      <trkpt lat="46.05898" lon="4.62163">
        <ele>256</ele>
        <time>2017-04-24T10:53:13Z</time>
      </trkpt>
      <trkpt lat="46.05897" lon="4.62173">
        <ele>255</ele>
        <time>2017-04-24T10:53:14Z</time>
      </trkpt>
      <trkpt lat="46.05896" lon="4.62183">
        <ele>255</ele>
        <time>2017-04-24T10:53:15Z</time>
      </trkpt>
      <trkpt lat="46.05894" lon="4.62193">
        <ele>255</ele>
        <time>2017-04-24T10:53:16Z</time>
      </trkpt>
      <trkpt lat="46.05893" lon="4.62203">
        <ele>255</ele>
        <time>2017-04-24T10:53:17Z</time>
      </trkpt>
      <trkpt lat="46.05892" lon="4.62213">
        <ele>254</ele>
        <time>2017-04-24T10:53:18Z</time>
      </trkpt>
      <trkpt lat="46.05891" lon="4.62223">
        <ele>254</ele>
        <time>2017-04-24T10:53:19Z</time>
      </trkpt>
      <trkpt lat="46.0589" lon="4.62233">
        <ele>254</ele>
        <time>2017-04-24T10:53:20Z</time>
      </trkpt>
      <trkpt lat="46.05889" lon="4.62242">
        <ele>254</ele>
        <time>2017-04-24T10:53:21Z</time>
      </trkpt>
      <trkpt lat="46.05889" lon="4.6225">
        <ele>254</ele>
        <time>2017-04-24T10:53:22Z</time>
      </trkpt>
      <trkpt lat="46.05889" lon="4.62259">
        <ele>254</ele>
        <time>2017-04-24T10:53:23Z</time>
      </trkpt>
      <trkpt lat="46.05889" lon="4.62267">
        <ele>254</ele>
        <time>2017-04-24T10:53:24Z</time>
      </trkpt>
      <trkpt lat="46.05889" lon="4.62275">
        <ele>254</ele>
        <time>2017-04-24T10:53:25Z</time>
      </trkpt>
      <trkpt lat="46.05889" lon="4.62283">
        <ele>254</ele>
        <time>2017-04-24T10:53:26Z</time>
      </trkpt>
      <trkpt lat="46.0589" lon="4.62291">
        <ele>254</ele>
        <time>2017-04-24T10:53:27Z</time>
      </trkpt>
      <trkpt lat="46.05891" lon="4.62298">
        <ele>254</ele>
        <time>2017-04-24T10:53:28Z</time>
      </trkpt>
      <trkpt lat="46.05891" lon="4.62307">
        <ele>254</ele>
        <time>2017-04-24T10:53:29Z</time>
      </trkpt>
      <trkpt lat="46.0589" lon="4.62315">
        <ele>254</ele>
        <time>2017-04-24T10:53:30Z</time>
      </trkpt>
      <trkpt lat="46.0589" lon="4.62323">
        <ele>254</ele>
        <time>2017-04-24T10:53:31Z</time>
      </trkpt>
      <trkpt lat="46.05889" lon="4.62331">
        <ele>254</ele>
        <time>2017-04-24T10:53:32Z</time>
      </trkpt>
      <trkpt lat="46.05888" lon="4.6234">
        <ele>255</ele>
        <time>2017-04-24T10:53:33Z</time>
      </trkpt>
      <trkpt lat="46.05887" lon="4.62348">
        <ele>255</ele>
        <time>2017-04-24T10:53:34Z</time>
      </trkpt>
      <trkpt lat="46.05885" lon="4.62356">
        <ele>255</ele>
        <time>2017-04-24T10:53:35Z</time>
      </trkpt>
      <trkpt lat="46.05883" lon="4.62365">
        <ele>255</ele>
        <time>2017-04-24T10:53:36Z</time>
      </trkpt>
      <trkpt lat="46.0588" lon="4.62373">
        <ele>255</ele>
        <time>2017-04-24T10:53:37Z</time>
      </trkpt>
      <trkpt lat="46.05877" lon="4.62381">
        <ele>255</ele>
        <time>2017-04-24T10:53:38Z</time>
      </trkpt>
      <trkpt lat="46.05874" lon="4.62389">
        <ele>255</ele>
        <time>2017-04-24T10:53:39Z</time>
      </trkpt>
      <trkpt lat="46.05871" lon="4.62396">
        <ele>254</ele>
        <time>2017-04-24T10:53:40Z</time>
      </trkpt>
      <trkpt lat="46.05868" lon="4.62403">
        <ele>254</ele>
        <time>2017-04-24T10:53:41Z</time>
      </trkpt>
      <trkpt lat="46.05865" lon="4.6241">
        <ele>254</ele>
        <time>2017-04-24T10:53:42Z</time>
      </trkpt>
      <trkpt lat="46.05861" lon="4.62417">
        <ele>255</ele>
        <time>2017-04-24T10:53:43Z</time>
      </trkpt>
      <trkpt lat="46.05858" lon="4.62423">
        <ele>255</ele>
        <time>2017-04-24T10:53:44Z</time>
      </trkpt>
      <trkpt lat="46.05854" lon="4.62429">
        <ele>255</ele>
        <time>2017-04-24T10:53:45Z</time>
      </trkpt>
      <trkpt lat="46.05851" lon="4.62434">
        <ele>255</ele>
        <time>2017-04-24T10:53:46Z</time>
      </trkpt>
      <trkpt lat="46.05847" lon="4.62439">
        <ele>255</ele>
        <time>2017-04-24T10:53:47Z</time>
      </trkpt>
      <trkpt lat="46.05843" lon="4.62444">
        <ele>255</ele>
        <time>2017-04-24T10:53:48Z</time>
      </trkpt>
      <trkpt lat="46.0584" lon="4.62449">
        <ele>255</ele>
        <time>2017-04-24T10:53:49Z</time>
      </trkpt>
      <trkpt lat="46.05836" lon="4.62454">
        <ele>255</ele>
        <time>2017-04-24T10:53:50Z</time>
      </trkpt>
      <trkpt lat="46.05832" lon="4.62459">
        <ele>253</ele>
        <time>2017-04-24T10:53:51Z</time>
      </trkpt>
      <trkpt lat="46.05828" lon="4.62464">
        <ele>253</ele>
        <time>2017-04-24T10:53:52Z</time>
      </trkpt>
      <trkpt lat="46.05824" lon="4.62469">
        <ele>253</ele>
        <time>2017-04-24T10:53:53Z</time>
      </trkpt>
      <trkpt lat="46.05821" lon="4.62474">
        <ele>253</ele>
        <time>2017-04-24T10:53:54Z</time>
      </trkpt>
      <trkpt lat="46.05816" lon="4.6248">
        <ele>253</ele>
        <time>2017-04-24T10:53:55Z</time>
      </trkpt>
      <trkpt lat="46.05813" lon="4.62485">
        <ele>253</ele>
        <time>2017-04-24T10:53:56Z</time>
      </trkpt>
      <trkpt lat="46.05809" lon="4.62491">
        <ele>253</ele>
        <time>2017-04-24T10:53:57Z</time>
      </trkpt>
      <trkpt lat="46.05806" lon="4.62497">
        <ele>253</ele>
        <time>2017-04-24T10:53:58Z</time>
      </trkpt>
      <trkpt lat="46.05802" lon="4.62503">
        <ele>253</ele>
        <time>2017-04-24T10:53:59Z</time>
      </trkpt>
      <trkpt lat="46.05797" lon="4.6251">
        <ele>253</ele>
        <time>2017-04-24T10:54:00Z</time>
      </trkpt>
      <trkpt lat="46.05793" lon="4.62516">
        <ele>253</ele>
        <time>2017-04-24T10:54:01Z</time>
      </trkpt>
      <trkpt lat="46.05789" lon="4.62522">
        <ele>254</ele>
        <time>2017-04-24T10:54:02Z</time>
      </trkpt>
      <trkpt lat="46.05785" lon="4.62528">
        <ele>254</ele>
        <time>2017-04-24T10:54:03Z</time>
      </trkpt>
      <trkpt lat="46.05782" lon="4.62534">
        <ele>254</ele>
        <time>2017-04-24T10:54:04Z</time>
      </trkpt>
      <trkpt lat="46.05779" lon="4.6254">
        <ele>254</ele>
        <time>2017-04-24T10:54:05Z</time>
      </trkpt>
      <trkpt lat="46.05775" lon="4.62546">
        <ele>253</ele>
        <time>2017-04-24T10:54:06Z</time>
      </trkpt>
      <trkpt lat="46.05772" lon="4.62553">
        <ele>253</ele>
        <time>2017-04-24T10:54:07Z</time>
      </trkpt>
      <trkpt lat="46.05769" lon="4.6256">
        <ele>253</ele>
        <time>2017-04-24T10:54:08Z</time>
      </trkpt>
      <trkpt lat="46.05766" lon="4.62568">
        <ele>253</ele>
        <time>2017-04-24T10:54:09Z</time>
      </trkpt>
      <trkpt lat="46.05763" lon="4.62577">
        <ele>253</ele>
        <time>2017-04-24T10:54:10Z</time>
      </trkpt>
      <trkpt lat="46.05761" lon="4.62585">
        <ele>253</ele>
        <time>2017-04-24T10:54:11Z</time>
      </trkpt>
      <trkpt lat="46.05759" lon="4.62593">
        <ele>253</ele>
        <time>2017-04-24T10:54:12Z</time>
      </trkpt>
      <trkpt lat="46.05756" lon="4.62601">
        <ele>253</ele>
        <time>2017-04-24T10:54:13Z</time>
      </trkpt>
      <trkpt lat="46.05755" lon="4.6261">
        <ele>253</ele>
        <time>2017-04-24T10:54:14Z</time>
      </trkpt>
      <trkpt lat="46.05753" lon="4.62618">
        <ele>253</ele>
        <time>2017-04-24T10:54:15Z</time>
      </trkpt>
      <trkpt lat="46.05752" lon="4.62626">
        <ele>253</ele>
        <time>2017-04-24T10:54:16Z</time>
      </trkpt>
      <trkpt lat="46.05751" lon="4.62633">
        <ele>253</ele>
        <time>2017-04-24T10:54:17Z</time>
      </trkpt>
      <trkpt lat="46.0575" lon="4.62641">
        <ele>253</ele>
        <time>2017-04-24T10:54:18Z</time>
      </trkpt>
      <trkpt lat="46.0575" lon="4.6265">
        <ele>253</ele>
        <time>2017-04-24T10:54:19Z</time>
      </trkpt>
      <trkpt lat="46.05749" lon="4.62658">
        <ele>252</ele>
        <time>2017-04-24T10:54:20Z</time>
      </trkpt>
      <trkpt lat="46.05749" lon="4.62667">
        <ele>252</ele>
        <time>2017-04-24T10:54:21Z</time>
      </trkpt>
      <trkpt lat="46.05748" lon="4.62675">
        <ele>252</ele>
        <time>2017-04-24T10:54:22Z</time>
      </trkpt>
      <trkpt lat="46.05748" lon="4.62683">
        <ele>252</ele>
        <time>2017-04-24T10:54:23Z</time>
      </trkpt>
      <trkpt lat="46.05747" lon="4.6269">
        <ele>252</ele>
        <time>2017-04-24T10:54:24Z</time>
      </trkpt>
      <trkpt lat="46.05747" lon="4.62698">
        <ele>252</ele>
        <time>2017-04-24T10:54:25Z</time>
      </trkpt>
      <trkpt lat="46.05746" lon="4.62705">
        <ele>252</ele>
        <time>2017-04-24T10:54:26Z</time>
      </trkpt>
      <trkpt lat="46.05744" lon="4.62713">
        <ele>252</ele>
        <time>2017-04-24T10:54:27Z</time>
      </trkpt>
      <trkpt lat="46.05743" lon="4.6272">
        <ele>252</ele>
        <time>2017-04-24T10:54:28Z</time>
      </trkpt>
      <trkpt lat="46.05741" lon="4.62728">
        <ele>252</ele>
        <time>2017-04-24T10:54:29Z</time>
      </trkpt>
      <trkpt lat="46.05739" lon="4.62736">
        <ele>252</ele>
        <time>2017-04-24T10:54:30Z</time>
      </trkpt>
      <trkpt lat="46.05736" lon="4.62744">
        <ele>252</ele>
        <time>2017-04-24T10:54:31Z</time>
      </trkpt>
      <trkpt lat="46.05733" lon="4.62753">
        <ele>251</ele>
        <time>2017-04-24T10:54:32Z</time>
      </trkpt>
      <trkpt lat="46.0573" lon="4.62762">
        <ele>251</ele>
        <time>2017-04-24T10:54:33Z</time>
      </trkpt>
      <trkpt lat="46.05728" lon="4.62771">
        <ele>251</ele>
        <time>2017-04-24T10:54:34Z</time>
      </trkpt>
      <trkpt lat="46.05725" lon="4.6278">
        <ele>251</ele>
        <time>2017-04-24T10:54:35Z</time>
      </trkpt>
      <trkpt lat="46.05722" lon="4.62788">
        <ele>251</ele>
        <time>2017-04-24T10:54:36Z</time>
      </trkpt>
      <trkpt lat="46.05719" lon="4.62796">
        <ele>251</ele>
        <time>2017-04-24T10:54:37Z</time>
      </trkpt>
      <trkpt lat="46.05716" lon="4.62804">
        <ele>251</ele>
        <time>2017-04-24T10:54:38Z</time>
      </trkpt>
      <trkpt lat="46.05714" lon="4.62811">
        <ele>251</ele>
        <time>2017-04-24T10:54:39Z</time>
      </trkpt>
      <trkpt lat="46.05711" lon="4.62819">
        <ele>251</ele>
        <time>2017-04-24T10:54:40Z</time>
      </trkpt>
      <trkpt lat="46.05709" lon="4.62826">
        <ele>251</ele>
        <time>2017-04-24T10:54:41Z</time>
      </trkpt>
      <trkpt lat="46.05707" lon="4.62835">
        <ele>250</ele>
        <time>2017-04-24T10:54:42Z</time>
      </trkpt>
      <trkpt lat="46.05705" lon="4.62843">
        <ele>250</ele>
        <time>2017-04-24T10:54:43Z</time>
      </trkpt>
      <trkpt lat="46.05703" lon="4.62852">
        <ele>250</ele>
        <time>2017-04-24T10:54:44Z</time>
      </trkpt>
      <trkpt lat="46.05701" lon="4.62861">
        <ele>250</ele>
        <time>2017-04-24T10:54:45Z</time>
      </trkpt>
      <trkpt lat="46.05699" lon="4.6287">
        <ele>250</ele>
        <time>2017-04-24T10:54:46Z</time>
      </trkpt>
      <trkpt lat="46.05697" lon="4.62879">
        <ele>250</ele>
        <time>2017-04-24T10:54:47Z</time>
      </trkpt>
      <trkpt lat="46.05696" lon="4.62888">
        <ele>250</ele>
        <time>2017-04-24T10:54:48Z</time>
      </trkpt>
      <trkpt lat="46.05694" lon="4.62897">
        <ele>250</ele>
        <time>2017-04-24T10:54:49Z</time>
      </trkpt>
      <trkpt lat="46.05691" lon="4.62906">
        <ele>250</ele>
        <time>2017-04-24T10:54:50Z</time>
      </trkpt>
      <trkpt lat="46.0569" lon="4.62916">
        <ele>250</ele>
        <time>2017-04-24T10:54:51Z</time>
      </trkpt>
      <trkpt lat="46.05689" lon="4.62926">
        <ele>249</ele>
        <time>2017-04-24T10:54:52Z</time>
      </trkpt>
      <trkpt lat="46.05688" lon="4.62935">
        <ele>249</ele>
        <time>2017-04-24T10:54:53Z</time>
      </trkpt>
      <trkpt lat="46.05687" lon="4.62944">
        <ele>249</ele>
        <time>2017-04-24T10:54:54Z</time>
      </trkpt>
      <trkpt lat="46.05686" lon="4.62953">
        <ele>249</ele>
        <time>2017-04-24T10:54:55Z</time>
      </trkpt>
      <trkpt lat="46.05685" lon="4.62962">
        <ele>249</ele>
        <time>2017-04-24T10:54:56Z</time>
      </trkpt>
      <trkpt lat="46.05685" lon="4.62971">
        <ele>249</ele>
        <time>2017-04-24T10:54:57Z</time>
      </trkpt>
      <trkpt lat="46.05684" lon="4.6298">
        <ele>250</ele>
        <time>2017-04-24T10:54:58Z</time>
      </trkpt>
      <trkpt lat="46.05684" lon="4.62988">
        <ele>250</ele>
        <time>2017-04-24T10:54:59Z</time>
      </trkpt>
      <trkpt lat="46.05683" lon="4.62996">
        <ele>250</ele>
        <time>2017-04-24T10:55:00Z</time>
      </trkpt>
      <trkpt lat="46.05682" lon="4.63004">
        <ele>250</ele>
        <time>2017-04-24T10:55:01Z</time>
      </trkpt>
      <trkpt lat="46.05681" lon="4.63012">
        <ele>250</ele>
        <time>2017-04-24T10:55:02Z</time>
      </trkpt>
      <trkpt lat="46.05681" lon="4.63019">
        <ele>250</ele>
        <time>2017-04-24T10:55:03Z</time>
      </trkpt>
      <trkpt lat="46.0568" lon="4.63027">
        <ele>250</ele>
        <time>2017-04-24T10:55:04Z</time>
      </trkpt>
      <trkpt lat="46.0568" lon="4.63036">
        <ele>250</ele>
        <time>2017-04-24T10:55:05Z</time>
      </trkpt>
      <trkpt lat="46.05679" lon="4.63044">
        <ele>251</ele>
        <time>2017-04-24T10:55:06Z</time>
      </trkpt>
      <trkpt lat="46.05679" lon="4.63052">
        <ele>251</ele>
        <time>2017-04-24T10:55:07Z</time>
      </trkpt>
      <trkpt lat="46.05678" lon="4.63061">
        <ele>251</ele>
        <time>2017-04-24T10:55:08Z</time>
      </trkpt>
      <trkpt lat="46.05678" lon="4.63071">
        <ele>251</ele>
        <time>2017-04-24T10:55:09Z</time>
      </trkpt>
      <trkpt lat="46.05678" lon="4.6308">
        <ele>251</ele>
        <time>2017-04-24T10:55:10Z</time>
      </trkpt>
      <trkpt lat="46.0568" lon="4.63089">
        <ele>251</ele>
        <time>2017-04-24T10:55:11Z</time>
      </trkpt>
      <trkpt lat="46.05681" lon="4.63098">
        <ele>251</ele>
        <time>2017-04-24T10:55:12Z</time>
      </trkpt>
      <trkpt lat="46.05683" lon="4.63107">
        <ele>251</ele>
        <time>2017-04-24T10:55:13Z</time>
      </trkpt>
      <trkpt lat="46.05684" lon="4.63116">
        <ele>250</ele>
        <time>2017-04-24T10:55:14Z</time>
      </trkpt>
      <trkpt lat="46.05685" lon="4.63125">
        <ele>250</ele>
        <time>2017-04-24T10:55:15Z</time>
      </trkpt>
      <trkpt lat="46.05686" lon="4.63132">
        <ele>250</ele>
        <time>2017-04-24T10:55:16Z</time>
      </trkpt>
      <trkpt lat="46.05688" lon="4.6314">
        <ele>250</ele>
        <time>2017-04-24T10:55:17Z</time>
      </trkpt>
      <trkpt lat="46.0569" lon="4.63148">
        <ele>250</ele>
        <time>2017-04-24T10:55:18Z</time>
      </trkpt>
      <trkpt lat="46.05691" lon="4.63155">
        <ele>250</ele>
        <time>2017-04-24T10:55:19Z</time>
      </trkpt>
      <trkpt lat="46.05692" lon="4.63162">
        <ele>250</ele>
        <time>2017-04-24T10:55:20Z</time>
      </trkpt>
      <trkpt lat="46.05693" lon="4.63169">
        <ele>249</ele>
        <time>2017-04-24T10:55:21Z</time>
      </trkpt>
      <trkpt lat="46.05695" lon="4.63176">
        <ele>249</ele>
        <time>2017-04-24T10:55:22Z</time>
      </trkpt>
      <trkpt lat="46.05696" lon="4.63183">
        <ele>249</ele>
        <time>2017-04-24T10:55:23Z</time>
      </trkpt>
      <trkpt lat="46.05697" lon="4.63189">
        <ele>249</ele>
        <time>2017-04-24T10:55:24Z</time>
      </trkpt>
      <trkpt lat="46.05699" lon="4.63197">
        <ele>248</ele>
        <time>2017-04-24T10:55:25Z</time>
      </trkpt>
      <trkpt lat="46.057" lon="4.63205">
        <ele>248</ele>
        <time>2017-04-24T10:55:26Z</time>
      </trkpt>
      <trkpt lat="46.05701" lon="4.63213">
        <ele>248</ele>
        <time>2017-04-24T10:55:27Z</time>
      </trkpt>
      <trkpt lat="46.05701" lon="4.63221">
        <ele>248</ele>
        <time>2017-04-24T10:55:28Z</time>
      </trkpt>
      <trkpt lat="46.05702" lon="4.63228">
        <ele>248</ele>
        <time>2017-04-24T10:55:29Z</time>
      </trkpt>
      <trkpt lat="46.05703" lon="4.63236">
        <ele>248</ele>
        <time>2017-04-24T10:55:30Z</time>
      </trkpt>
      <trkpt lat="46.05703" lon="4.63243">
        <ele>248</ele>
        <time>2017-04-24T10:55:31Z</time>
      </trkpt>
      <trkpt lat="46.05703" lon="4.63249">
        <ele>248</ele>
        <time>2017-04-24T10:55:32Z</time>
      </trkpt>
      <trkpt lat="46.05702" lon="4.63256">
        <ele>247</ele>
        <time>2017-04-24T10:55:33Z</time>
      </trkpt>
      <trkpt lat="46.057" lon="4.63268">
        <ele>247</ele>
        <time>2017-04-24T10:55:35Z</time>
      </trkpt>
      <trkpt lat="46.05699" lon="4.63274">
        <ele>247</ele>
        <time>2017-04-24T10:55:36Z</time>
      </trkpt>
      <trkpt lat="46.05696" lon="4.63285">
        <ele>247</ele>
        <time>2017-04-24T10:55:38Z</time>
      </trkpt>
      <trkpt lat="46.05695" lon="4.6329">
        <ele>247</ele>
        <time>2017-04-24T10:55:39Z</time>
      </trkpt>
      <trkpt lat="46.05694" lon="4.63297">
        <ele>247</ele>
        <time>2017-04-24T10:55:40Z</time>
      </trkpt>
      <trkpt lat="46.05693" lon="4.63304">
        <ele>247</ele>
        <time>2017-04-24T10:55:41Z</time>
      </trkpt>
      <trkpt lat="46.05691" lon="4.63312">
        <ele>247</ele>
        <time>2017-04-24T10:55:42Z</time>
      </trkpt>
      <trkpt lat="46.05688" lon="4.6332">
        <ele>247</ele>
        <time>2017-04-24T10:55:43Z</time>
      </trkpt>
      <trkpt lat="46.05685" lon="4.63329">
        <ele>247</ele>
        <time>2017-04-24T10:55:44Z</time>
      </trkpt>
      <trkpt lat="46.05682" lon="4.63337">
        <ele>246</ele>
        <time>2017-04-24T10:55:45Z</time>
      </trkpt>
      <trkpt lat="46.0568" lon="4.63347">
        <ele>246</ele>
        <time>2017-04-24T10:55:46Z</time>
      </trkpt>
      <trkpt lat="46.05677" lon="4.63355">
        <ele>246</ele>
        <time>2017-04-24T10:55:47Z</time>
      </trkpt>
      <trkpt lat="46.05674" lon="4.63362">
        <ele>246</ele>
        <time>2017-04-24T10:55:48Z</time>
      </trkpt>
      <trkpt lat="46.0567" lon="4.63369">
        <ele>246</ele>
        <time>2017-04-24T10:55:49Z</time>
      </trkpt>
      <trkpt lat="46.05667" lon="4.63376">
        <ele>246</ele>
        <time>2017-04-24T10:55:50Z</time>
      </trkpt>
      <trkpt lat="46.05663" lon="4.63383">
        <ele>246</ele>
        <time>2017-04-24T10:55:51Z</time>
      </trkpt>
      <trkpt lat="46.05659" lon="4.63391">
        <ele>246</ele>
        <time>2017-04-24T10:55:52Z</time>
      </trkpt>
      <trkpt lat="46.05655" lon="4.634">
        <ele>246</ele>
        <time>2017-04-24T10:55:53Z</time>
      </trkpt>
      <trkpt lat="46.05652" lon="4.63408">
        <ele>246</ele>
        <time>2017-04-24T10:55:54Z</time>
      </trkpt>
      <trkpt lat="46.05651" lon="4.63417">
        <ele>246</ele>
        <time>2017-04-24T10:55:55Z</time>
      </trkpt>
      <trkpt lat="46.05649" lon="4.63425">
        <ele>245</ele>
        <time>2017-04-24T10:55:56Z</time>
      </trkpt>
      <trkpt lat="46.05648" lon="4.63433">
        <ele>245</ele>
        <time>2017-04-24T10:55:57Z</time>
      </trkpt>
      <trkpt lat="46.05647" lon="4.63441">
        <ele>245</ele>
        <time>2017-04-24T10:55:58Z</time>
      </trkpt>
      <trkpt lat="46.05645" lon="4.63449">
        <ele>245</ele>
        <time>2017-04-24T10:55:59Z</time>
      </trkpt>
      <trkpt lat="46.05643" lon="4.63457">
        <ele>245</ele>
        <time>2017-04-24T10:56:00Z</time>
      </trkpt>
      <trkpt lat="46.05642" lon="4.63465">
        <ele>246</ele>
        <time>2017-04-24T10:56:01Z</time>
      </trkpt>
      <trkpt lat="46.0564" lon="4.63473">
        <ele>246</ele>
        <time>2017-04-24T10:56:02Z</time>
      </trkpt>
      <trkpt lat="46.05639" lon="4.63481">
        <ele>246</ele>
        <time>2017-04-24T10:56:03Z</time>
      </trkpt>
      <trkpt lat="46.05638" lon="4.6349">
        <ele>246</ele>
        <time>2017-04-24T10:56:04Z</time>
      </trkpt>
      <trkpt lat="46.05637" lon="4.63499">
        <ele>246</ele>
        <time>2017-04-24T10:56:05Z</time>
      </trkpt>
      <trkpt lat="46.05636" lon="4.63508">
        <ele>245</ele>
        <time>2017-04-24T10:56:06Z</time>
      </trkpt>
      <trkpt lat="46.05635" lon="4.63517">
        <ele>245</ele>
        <time>2017-04-24T10:56:07Z</time>
      </trkpt>
      <trkpt lat="46.05634" lon="4.63527">
        <ele>245</ele>
        <time>2017-04-24T10:56:08Z</time>
      </trkpt>
      <trkpt lat="46.05633" lon="4.63536">
        <ele>245</ele>
        <time>2017-04-24T10:56:09Z</time>
      </trkpt>
      <trkpt lat="46.05633" lon="4.63545">
        <ele>245</ele>
        <time>2017-04-24T10:56:10Z</time>
      </trkpt>
      <trkpt lat="46.05632" lon="4.63554">
        <ele>245</ele>
        <time>2017-04-24T10:56:11Z</time>
      </trkpt>
      <trkpt lat="46.05632" lon="4.63563">
        <ele>245</ele>
        <time>2017-04-24T10:56:12Z</time>
      </trkpt>
      <trkpt lat="46.05632" lon="4.63571">
        <ele>245</ele>
        <time>2017-04-24T10:56:13Z</time>
      </trkpt>
      <trkpt lat="46.05633" lon="4.6358">
        <ele>245</ele>
        <time>2017-04-24T10:56:14Z</time>
      </trkpt>
      <trkpt lat="46.05634" lon="4.63587">
        <ele>244</ele>
        <time>2017-04-24T10:56:15Z</time>
      </trkpt>
      <trkpt lat="46.05635" lon="4.63594">
        <ele>244</ele>
        <time>2017-04-24T10:56:16Z</time>
      </trkpt>
      <trkpt lat="46.05636" lon="4.63601">
        <ele>244</ele>
        <time>2017-04-24T10:56:17Z</time>
      </trkpt>
      <trkpt lat="46.05638" lon="4.63608">
        <ele>244</ele>
        <time>2017-04-24T10:56:18Z</time>
      </trkpt>
      <trkpt lat="46.0564" lon="4.63616">
        <ele>244</ele>
        <time>2017-04-24T10:56:19Z</time>
      </trkpt>
      <trkpt lat="46.05643" lon="4.63623">
        <ele>244</ele>
        <time>2017-04-24T10:56:20Z</time>
      </trkpt>
      <trkpt lat="46.05646" lon="4.6363">
        <ele>244</ele>
        <time>2017-04-24T10:56:21Z</time>
      </trkpt>
      <trkpt lat="46.0565" lon="4.63637">
        <ele>244</ele>
        <time>2017-04-24T10:56:22Z</time>
      </trkpt>
      <trkpt lat="46.05653" lon="4.63644">
        <ele>244</ele>
        <time>2017-04-24T10:56:23Z</time>
      </trkpt>
      <trkpt lat="46.05657" lon="4.63651">
        <ele>244</ele>
        <time>2017-04-24T10:56:24Z</time>
      </trkpt>
      <trkpt lat="46.0566" lon="4.63658">
        <ele>244</ele>
        <time>2017-04-24T10:56:25Z</time>
      </trkpt>
      <trkpt lat="46.05664" lon="4.63664">
        <ele>244</ele>
        <time>2017-04-24T10:56:26Z</time>
      </trkpt>
      <trkpt lat="46.05667" lon="4.6367">
        <ele>244</ele>
        <time>2017-04-24T10:56:27Z</time>
      </trkpt>
      <trkpt lat="46.05671" lon="4.63676">
        <ele>244</ele>
        <time>2017-04-24T10:56:28Z</time>
      </trkpt>
      <trkpt lat="46.05674" lon="4.63681">
        <ele>244</ele>
        <time>2017-04-24T10:56:29Z</time>
      </trkpt>
      <trkpt lat="46.05676" lon="4.63687">
        <ele>244</ele>
        <time>2017-04-24T10:56:30Z</time>
      </trkpt>
      <trkpt lat="46.05679" lon="4.63692">
        <ele>245</ele>
        <time>2017-04-24T10:56:31Z</time>
      </trkpt>
      <trkpt lat="46.05682" lon="4.63703">
        <ele>245</ele>
        <time>2017-04-24T10:56:33Z</time>
      </trkpt>
      <trkpt lat="46.05683" lon="4.63709">
        <ele>245</ele>
        <time>2017-04-24T10:56:34Z</time>
      </trkpt>
      <trkpt lat="46.05683" lon="4.63717">
        <ele>245</ele>
        <time>2017-04-24T10:56:35Z</time>
      </trkpt>
      <trkpt lat="46.05684" lon="4.63724">
        <ele>244</ele>
        <time>2017-04-24T10:56:36Z</time>
      </trkpt>
      <trkpt lat="46.05683" lon="4.63732">
        <ele>244</ele>
        <time>2017-04-24T10:56:37Z</time>
      </trkpt>
      <trkpt lat="46.05682" lon="4.6374">
        <ele>244</ele>
        <time>2017-04-24T10:56:38Z</time>
      </trkpt>
      <trkpt lat="46.05679" lon="4.63748">
        <ele>244</ele>
        <time>2017-04-24T10:56:39Z</time>
      </trkpt>
      <trkpt lat="46.05676" lon="4.63756">
        <ele>244</ele>
        <time>2017-04-24T10:56:40Z</time>
      </trkpt>
      <trkpt lat="46.05673" lon="4.63763">
        <ele>244</ele>
        <time>2017-04-24T10:56:41Z</time>
      </trkpt>
      <trkpt lat="46.05671" lon="4.63771">
        <ele>244</ele>
        <time>2017-04-24T10:56:42Z</time>
      </trkpt>
      <trkpt lat="46.05668" lon="4.63778">
        <ele>245</ele>
        <time>2017-04-24T10:56:43Z</time>
      </trkpt>
      <trkpt lat="46.05666" lon="4.63786">
        <ele>243</ele>
        <time>2017-04-24T10:56:44Z</time>
      </trkpt>
      <trkpt lat="46.05663" lon="4.63793">
        <ele>243</ele>
        <time>2017-04-24T10:56:45Z</time>
      </trkpt>
      <trkpt lat="46.05661" lon="4.63801">
        <ele>243</ele>
        <time>2017-04-24T10:56:46Z</time>
      </trkpt>
      <trkpt lat="46.05659" lon="4.63809">
        <ele>243</ele>
        <time>2017-04-24T10:56:47Z</time>
      </trkpt>
      <trkpt lat="46.05658" lon="4.63818">
        <ele>244</ele>
        <time>2017-04-24T10:56:48Z</time>
      </trkpt>
      <trkpt lat="46.05657" lon="4.63826">
        <ele>244</ele>
        <time>2017-04-24T10:56:49Z</time>
      </trkpt>
      <trkpt lat="46.05655" lon="4.63834">
        <ele>244</ele>
        <time>2017-04-24T10:56:50Z</time>
      </trkpt>
      <trkpt lat="46.05654" lon="4.63842">
        <ele>244</ele>
        <time>2017-04-24T10:56:51Z</time>
      </trkpt>
      <trkpt lat="46.05653" lon="4.63851">
        <ele>244</ele>
        <time>2017-04-24T10:56:52Z</time>
      </trkpt>
      <trkpt lat="46.05652" lon="4.63859">
        <ele>244</ele>
        <time>2017-04-24T10:56:53Z</time>
      </trkpt>
      <trkpt lat="46.05651" lon="4.63866">
        <ele>243</ele>
        <time>2017-04-24T10:56:54Z</time>
      </trkpt>
      <trkpt lat="46.0565" lon="4.63874">
        <ele>243</ele>
        <time>2017-04-24T10:56:55Z</time>
      </trkpt>
      <trkpt lat="46.05649" lon="4.63882">
        <ele>243</ele>
        <time>2017-04-24T10:56:56Z</time>
      </trkpt>
      <trkpt lat="46.05649" lon="4.63891">
        <ele>243</ele>
        <time>2017-04-24T10:56:57Z</time>
      </trkpt>
      <trkpt lat="46.05648" lon="4.63898">
        <ele>243</ele>
        <time>2017-04-24T10:56:58Z</time>
      </trkpt>
      <trkpt lat="46.05648" lon="4.63906">
        <ele>244</ele>
        <time>2017-04-24T10:56:59Z</time>
      </trkpt>
      <trkpt lat="46.05648" lon="4.63914">
        <ele>244</ele>
        <time>2017-04-24T10:57:00Z</time>
      </trkpt>
      <trkpt lat="46.05649" lon="4.63922">
        <ele>244</ele>
        <time>2017-04-24T10:57:01Z</time>
      </trkpt>
      <trkpt lat="46.05649" lon="4.63931">
        <ele>244</ele>
        <time>2017-04-24T10:57:02Z</time>
      </trkpt>
      <trkpt lat="46.05649" lon="4.63939">
        <ele>244</ele>
        <time>2017-04-24T10:57:03Z</time>
      </trkpt>
      <trkpt lat="46.0565" lon="4.63948">
        <ele>244</ele>
        <time>2017-04-24T10:57:04Z</time>
      </trkpt>
      <trkpt lat="46.0565" lon="4.63956">
        <ele>245</ele>
        <time>2017-04-24T10:57:05Z</time>
      </trkpt>
      <trkpt lat="46.0565" lon="4.63966">
        <ele>245</ele>
        <time>2017-04-24T10:57:06Z</time>
      </trkpt>
      <trkpt lat="46.0565" lon="4.63975">
        <ele>245</ele>
        <time>2017-04-24T10:57:07Z</time>
      </trkpt>
      <trkpt lat="46.05649" lon="4.63985">
        <ele>246</ele>
        <time>2017-04-24T10:57:08Z</time>
      </trkpt>
      <trkpt lat="46.05649" lon="4.63994">
        <ele>246</ele>
        <time>2017-04-24T10:57:09Z</time>
      </trkpt>
      <trkpt lat="46.05648" lon="4.64002">
        <ele>246</ele>
        <time>2017-04-24T10:57:10Z</time>
      </trkpt>
      <trkpt lat="46.05647" lon="4.64011">
        <ele>246</ele>
        <time>2017-04-24T10:57:11Z</time>
      </trkpt>
      <trkpt lat="46.05645" lon="4.64019">
        <ele>246</ele>
        <time>2017-04-24T10:57:12Z</time>
      </trkpt>
      <trkpt lat="46.05643" lon="4.64027">
        <ele>246</ele>
        <time>2017-04-24T10:57:13Z</time>
      </trkpt>
      <trkpt lat="46.05642" lon="4.64035">
        <ele>246</ele>
        <time>2017-04-24T10:57:14Z</time>
      </trkpt>
      <trkpt lat="46.0564" lon="4.64042">
        <ele>246</ele>
        <time>2017-04-24T10:57:15Z</time>
      </trkpt>
      <trkpt lat="46.05639" lon="4.64049">
        <ele>246</ele>
        <time>2017-04-24T10:57:16Z</time>
      </trkpt>
      <trkpt lat="46.05637" lon="4.64057">
        <ele>246</ele>
        <time>2017-04-24T10:57:17Z</time>
      </trkpt>
      <trkpt lat="46.05635" lon="4.64064">
        <ele>246</ele>
        <time>2017-04-24T10:57:18Z</time>
      </trkpt>
      <trkpt lat="46.05633" lon="4.64072">
        <ele>246</ele>
        <time>2017-04-24T10:57:19Z</time>
      </trkpt>
      <trkpt lat="46.05631" lon="4.6408">
        <ele>245</ele>
        <time>2017-04-24T10:57:20Z</time>
      </trkpt>
      <trkpt lat="46.05628" lon="4.64087">
        <ele>245</ele>
        <time>2017-04-24T10:57:21Z</time>
      </trkpt>
      <trkpt lat="46.05626" lon="4.64095">
        <ele>245</ele>
        <time>2017-04-24T10:57:22Z</time>
      </trkpt>
      <trkpt lat="46.05624" lon="4.64103">
        <ele>245</ele>
        <time>2017-04-24T10:57:23Z</time>
      </trkpt>
      <trkpt lat="46.05621" lon="4.64111">
        <ele>245</ele>
        <time>2017-04-24T10:57:24Z</time>
      </trkpt>
      <trkpt lat="46.05619" lon="4.64118">
        <ele>245</ele>
        <time>2017-04-24T10:57:25Z</time>
      </trkpt>
      <trkpt lat="46.05616" lon="4.64126">
        <ele>245</ele>
        <time>2017-04-24T10:57:26Z</time>
      </trkpt>
      <trkpt lat="46.05614" lon="4.64133">
        <ele>245</ele>
        <time>2017-04-24T10:57:27Z</time>
      </trkpt>
      <trkpt lat="46.05611" lon="4.6414">
        <ele>245</ele>
        <time>2017-04-24T10:57:28Z</time>
      </trkpt>
      <trkpt lat="46.05608" lon="4.64147">
        <ele>244</ele>
        <time>2017-04-24T10:57:29Z</time>
      </trkpt>
      <trkpt lat="46.05605" lon="4.64153">
        <ele>244</ele>
        <time>2017-04-24T10:57:30Z</time>
      </trkpt>
      <trkpt lat="46.05601" lon="4.64158">
        <ele>244</ele>
        <time>2017-04-24T10:57:31Z</time>
      </trkpt>
      <trkpt lat="46.05596" lon="4.64164">
        <ele>243</ele>
        <time>2017-04-24T10:57:32Z</time>
      </trkpt>
      <trkpt lat="46.05593" lon="4.64171">
        <ele>243</ele>
        <time>2017-04-24T10:57:33Z</time>
      </trkpt>
      <trkpt lat="46.05591" lon="4.64178">
        <ele>243</ele>
        <time>2017-04-24T10:57:34Z</time>
      </trkpt>
      <trkpt lat="46.05589" lon="4.64185">
        <ele>244</ele>
        <time>2017-04-24T10:57:35Z</time>
      </trkpt>
      <trkpt lat="46.05587" lon="4.64193">
        <ele>244</ele>
        <time>2017-04-24T10:57:36Z</time>
      </trkpt>
      <trkpt lat="46.05586" lon="4.64201">
        <ele>244</ele>
        <time>2017-04-24T10:57:37Z</time>
      </trkpt>
      <trkpt lat="46.05584" lon="4.64209">
        <ele>244</ele>
        <time>2017-04-24T10:57:38Z</time>
      </trkpt>
      <trkpt lat="46.05583" lon="4.64218">
        <ele>241</ele>
        <time>2017-04-24T10:57:39Z</time>
      </trkpt>
      <trkpt lat="46.0558" lon="4.64227">
        <ele>241</ele>
        <time>2017-04-24T10:57:40Z</time>
      </trkpt>
      <trkpt lat="46.05579" lon="4.64236">
        <ele>241</ele>
        <time>2017-04-24T10:57:41Z</time>
      </trkpt>
      <trkpt lat="46.05577" lon="4.64248">
        <ele>241</ele>
        <time>2017-04-24T10:57:42Z</time>
      </trkpt>
      <trkpt lat="46.05576" lon="4.64258">
        <ele>241</ele>
        <time>2017-04-24T10:57:43Z</time>
      </trkpt>
      <trkpt lat="46.05576" lon="4.64269">
        <ele>241</ele>
        <time>2017-04-24T10:57:44Z</time>
      </trkpt>
      <trkpt lat="46.05576" lon="4.64279">
        <ele>241</ele>
        <time>2017-04-24T10:57:45Z</time>
      </trkpt>
      <trkpt lat="46.05575" lon="4.64289">
        <ele>241</ele>
        <time>2017-04-24T10:57:46Z</time>
      </trkpt>
      <trkpt lat="46.05574" lon="4.64298">
        <ele>241</ele>
        <time>2017-04-24T10:57:47Z</time>
      </trkpt>
      <trkpt lat="46.05574" lon="4.64309">
        <ele>241</ele>
        <time>2017-04-24T10:57:48Z</time>
      </trkpt>
      <trkpt lat="46.05575" lon="4.6432">
        <ele>241</ele>
        <time>2017-04-24T10:57:49Z</time>
      </trkpt>
      <trkpt lat="46.05574" lon="4.6433">
        <ele>241</ele>
        <time>2017-04-24T10:57:50Z</time>
      </trkpt>
      <trkpt lat="46.05574" lon="4.64341">
        <ele>240</ele>
        <time>2017-04-24T10:57:51Z</time>
      </trkpt>
      <trkpt lat="46.05575" lon="4.64352">
        <ele>240</ele>
        <time>2017-04-24T10:57:52Z</time>
      </trkpt>
      <trkpt lat="46.05576" lon="4.64362">
        <ele>240</ele>
        <time>2017-04-24T10:57:53Z</time>
      </trkpt>
      <trkpt lat="46.05577" lon="4.64371">
        <ele>240</ele>
        <time>2017-04-24T10:57:54Z</time>
      </trkpt>
      <trkpt lat="46.05577" lon="4.6438">
        <ele>240</ele>
        <time>2017-04-24T10:57:55Z</time>
      </trkpt>
      <trkpt lat="46.05578" lon="4.64389">
        <ele>240</ele>
        <time>2017-04-24T10:57:56Z</time>
      </trkpt>
      <trkpt lat="46.0558" lon="4.64398">
        <ele>239</ele>
        <time>2017-04-24T10:57:57Z</time>
      </trkpt>
      <trkpt lat="46.05581" lon="4.64406">
        <ele>239</ele>
        <time>2017-04-24T10:57:58Z</time>
      </trkpt>
      <trkpt lat="46.05582" lon="4.64414">
        <ele>238</ele>
        <time>2017-04-24T10:57:59Z</time>
      </trkpt>
      <trkpt lat="46.05584" lon="4.64422">
        <ele>238</ele>
        <time>2017-04-24T10:58:00Z</time>
      </trkpt>
      <trkpt lat="46.05585" lon="4.64429">
        <ele>239</ele>
        <time>2017-04-24T10:58:01Z</time>
      </trkpt>
      <trkpt lat="46.05587" lon="4.64437">
        <ele>239</ele>
        <time>2017-04-24T10:58:02Z</time>
      </trkpt>
      <trkpt lat="46.05588" lon="4.64445">
        <ele>239</ele>
        <time>2017-04-24T10:58:03Z</time>
      </trkpt>
      <trkpt lat="46.0559" lon="4.64453">
        <ele>239</ele>
        <time>2017-04-24T10:58:04Z</time>
      </trkpt>
      <trkpt lat="46.05592" lon="4.64461">
        <ele>239</ele>
        <time>2017-04-24T10:58:05Z</time>
      </trkpt>
      <trkpt lat="46.05594" lon="4.6447">
        <ele>239</ele>
        <time>2017-04-24T10:58:06Z</time>
      </trkpt>
      <trkpt lat="46.05596" lon="4.64478">
        <ele>238</ele>
        <time>2017-04-24T10:58:07Z</time>
      </trkpt>
      <trkpt lat="46.05598" lon="4.64487">
        <ele>238</ele>
        <time>2017-04-24T10:58:08Z</time>
      </trkpt>
      <trkpt lat="46.05601" lon="4.64497">
        <ele>238</ele>
        <time>2017-04-24T10:58:09Z</time>
      </trkpt>
      <trkpt lat="46.05603" lon="4.64506">
        <ele>238</ele>
        <time>2017-04-24T10:58:10Z</time>
      </trkpt>
      <trkpt lat="46.05606" lon="4.64516">
        <ele>238</ele>
        <time>2017-04-24T10:58:11Z</time>
      </trkpt>
      <trkpt lat="46.05609" lon="4.64525">
        <ele>238</ele>
        <time>2017-04-24T10:58:12Z</time>
      </trkpt>
      <trkpt lat="46.05611" lon="4.64533">
        <ele>238</ele>
        <time>2017-04-24T10:58:13Z</time>
      </trkpt>
      <trkpt lat="46.05614" lon="4.64542">
        <ele>238</ele>
        <time>2017-04-24T10:58:14Z</time>
      </trkpt>
      <trkpt lat="46.05618" lon="4.6455">
        <ele>238</ele>
        <time>2017-04-24T10:58:15Z</time>
      </trkpt>
      <trkpt lat="46.0562" lon="4.64559">
        <ele>238</ele>
        <time>2017-04-24T10:58:16Z</time>
      </trkpt>
      <trkpt lat="46.05622" lon="4.64567">
        <ele>238</ele>
        <time>2017-04-24T10:58:17Z</time>
      </trkpt>
      <trkpt lat="46.05624" lon="4.64576">
        <ele>238</ele>
        <time>2017-04-24T10:58:18Z</time>
      </trkpt>
      <trkpt lat="46.05626" lon="4.64583">
        <ele>239</ele>
        <time>2017-04-24T10:58:19Z</time>
      </trkpt>
      <trkpt lat="46.05628" lon="4.64591">
        <ele>238</ele>
        <time>2017-04-24T10:58:20Z</time>
      </trkpt>
      <trkpt lat="46.0563" lon="4.64598">
        <ele>238</ele>
        <time>2017-04-24T10:58:21Z</time>
      </trkpt>
      <trkpt lat="46.05632" lon="4.64604">
        <ele>238</ele>
        <time>2017-04-24T10:58:22Z</time>
      </trkpt>
      <trkpt lat="46.05634" lon="4.64611">
        <ele>238</ele>
        <time>2017-04-24T10:58:23Z</time>
      </trkpt>
      <trkpt lat="46.05637" lon="4.64619">
        <ele>238</ele>
        <time>2017-04-24T10:58:24Z</time>
      </trkpt>
      <trkpt lat="46.0564" lon="4.64627">
        <ele>238</ele>
        <time>2017-04-24T10:58:25Z</time>
      </trkpt>
      <trkpt lat="46.05642" lon="4.64635">
        <ele>238</ele>
        <time>2017-04-24T10:58:26Z</time>
      </trkpt>
      <trkpt lat="46.05644" lon="4.64643">
        <ele>238</ele>
        <time>2017-04-24T10:58:27Z</time>
      </trkpt>
      <trkpt lat="46.05646" lon="4.64651">
        <ele>238</ele>
        <time>2017-04-24T10:58:28Z</time>
      </trkpt>
      <trkpt lat="46.05648" lon="4.6466">
        <ele>238</ele>
        <time>2017-04-24T10:58:29Z</time>
      </trkpt>
      <trkpt lat="46.0565" lon="4.64668">
        <ele>237</ele>
        <time>2017-04-24T10:58:30Z</time>
      </trkpt>
      <trkpt lat="46.05653" lon="4.64676">
        <ele>237</ele>
        <time>2017-04-24T10:58:31Z</time>
      </trkpt>
      <trkpt lat="46.05655" lon="4.64683">
        <ele>237</ele>
        <time>2017-04-24T10:58:32Z</time>
      </trkpt>
      <trkpt lat="46.05656" lon="4.6469">
        <ele>237</ele>
        <time>2017-04-24T10:58:33Z</time>
      </trkpt>
      <trkpt lat="46.05658" lon="4.64697">
        <ele>237</ele>
        <time>2017-04-24T10:58:34Z</time>
      </trkpt>
      <trkpt lat="46.0566" lon="4.64704">
        <ele>236</ele>
        <time>2017-04-24T10:58:35Z</time>
      </trkpt>
      <trkpt lat="46.05662" lon="4.6471">
        <ele>236</ele>
        <time>2017-04-24T10:58:36Z</time>
      </trkpt>
      <trkpt lat="46.05664" lon="4.64716">
        <ele>236</ele>
        <time>2017-04-24T10:58:37Z</time>
      </trkpt>
      <trkpt lat="46.05665" lon="4.64723">
        <ele>236</ele>
        <time>2017-04-24T10:58:38Z</time>
      </trkpt>
      <trkpt lat="46.05667" lon="4.64729">
        <ele>238</ele>
        <time>2017-04-24T10:58:39Z</time>
      </trkpt>
      <trkpt lat="46.05669" lon="4.64736">
        <ele>237</ele>
        <time>2017-04-24T10:58:40Z</time>
      </trkpt>
      <trkpt lat="46.0567" lon="4.64742">
        <ele>236</ele>
        <time>2017-04-24T10:58:41Z</time>
      </trkpt>
      <trkpt lat="46.05672" lon="4.64748">
        <ele>236</ele>
        <time>2017-04-24T10:58:42Z</time>
      </trkpt>
      <trkpt lat="46.05673" lon="4.64755">
        <ele>236</ele>
        <time>2017-04-24T10:58:43Z</time>
      </trkpt>
      <trkpt lat="46.05674" lon="4.64761">
        <ele>237</ele>
        <time>2017-04-24T10:58:44Z</time>
      </trkpt>
      <trkpt lat="46.05676" lon="4.64768">
        <ele>237</ele>
        <time>2017-04-24T10:58:45Z</time>
      </trkpt>
      <trkpt lat="46.05677" lon="4.64775">
        <ele>238</ele>
        <time>2017-04-24T10:58:46Z</time>
      </trkpt>
      <trkpt lat="46.05678" lon="4.64782">
        <ele>238</ele>
        <time>2017-04-24T10:58:47Z</time>
      </trkpt>
      <trkpt lat="46.05679" lon="4.64789">
        <ele>238</ele>
        <time>2017-04-24T10:58:48Z</time>
      </trkpt>
      <trkpt lat="46.05679" lon="4.64797">
        <ele>238</ele>
        <time>2017-04-24T10:58:49Z</time>
      </trkpt>
      <trkpt lat="46.0568" lon="4.64805">
        <ele>238</ele>
        <time>2017-04-24T10:58:50Z</time>
      </trkpt>
      <trkpt lat="46.05679" lon="4.64813">
        <ele>238</ele>
        <time>2017-04-24T10:58:51Z</time>
      </trkpt>
      <trkpt lat="46.05678" lon="4.6482">
        <ele>237</ele>
        <time>2017-04-24T10:58:52Z</time>
      </trkpt>
      <trkpt lat="46.05677" lon="4.64827">
        <ele>237</ele>
        <time>2017-04-24T10:58:53Z</time>
      </trkpt>
      <trkpt lat="46.05676" lon="4.64836">
        <ele>237</ele>
        <time>2017-04-24T10:58:54Z</time>
      </trkpt>
      <trkpt lat="46.05673" lon="4.64844">
        <ele>238</ele>
        <time>2017-04-24T10:58:55Z</time>
      </trkpt>
      <trkpt lat="46.05671" lon="4.6485">
        <ele>238</ele>
        <time>2017-04-24T10:58:56Z</time>
      </trkpt>
      <trkpt lat="46.05668" lon="4.64856">
        <ele>239</ele>
        <time>2017-04-24T10:58:57Z</time>
      </trkpt>
      <trkpt lat="46.05665" lon="4.64861">
        <ele>236</ele>
        <time>2017-04-24T10:58:58Z</time>
      </trkpt>
      <trkpt lat="46.05662" lon="4.64866">
        <ele>236</ele>
        <time>2017-04-24T10:58:59Z</time>
      </trkpt>
      <trkpt lat="46.05659" lon="4.6487">
        <ele>236</ele>
        <time>2017-04-24T10:59:00Z</time>
      </trkpt>
      <trkpt lat="46.05652" lon="4.64879">
        <ele>236</ele>
        <time>2017-04-24T10:59:02Z</time>
      </trkpt>
      <trkpt lat="46.05649" lon="4.64883">
        <ele>236</ele>
        <time>2017-04-24T10:59:03Z</time>
      </trkpt>
      <trkpt lat="46.05642" lon="4.64891">
        <ele>236</ele>
        <time>2017-04-24T10:59:05Z</time>
      </trkpt>
      <trkpt lat="46.05639" lon="4.64894">
        <ele>236</ele>
        <time>2017-04-24T10:59:06Z</time>
      </trkpt>
      <trkpt lat="46.05632" lon="4.64901">
        <ele>236</ele>
        <time>2017-04-24T10:59:08Z</time>
      </trkpt>
      <trkpt lat="46.05628" lon="4.64905">
        <ele>236</ele>
        <time>2017-04-24T10:59:09Z</time>
      </trkpt>
      <trkpt lat="46.05624" lon="4.64909">
        <ele>236</ele>
        <time>2017-04-24T10:59:10Z</time>
      </trkpt>
      <trkpt lat="46.05621" lon="4.64912">
        <ele>236</ele>
        <time>2017-04-24T10:59:11Z</time>
      </trkpt>
      <trkpt lat="46.05614" lon="4.6492">
        <ele>237</ele>
        <time>2017-04-24T10:59:13Z</time>
      </trkpt>
      <trkpt lat="46.0561" lon="4.64924">
        <ele>237</ele>
        <time>2017-04-24T10:59:14Z</time>
      </trkpt>
      <trkpt lat="46.05606" lon="4.64928">
        <ele>237</ele>
        <time>2017-04-24T10:59:15Z</time>
      </trkpt>
      <trkpt lat="46.05603" lon="4.64932">
        <ele>237</ele>
        <time>2017-04-24T10:59:16Z</time>
      </trkpt>
      <trkpt lat="46.05599" lon="4.64937">
        <ele>237</ele>
        <time>2017-04-24T10:59:17Z</time>
      </trkpt>
      <trkpt lat="46.05595" lon="4.64942">
        <ele>237</ele>
        <time>2017-04-24T10:59:18Z</time>
      </trkpt>
      <trkpt lat="46.05592" lon="4.64947">
        <ele>237</ele>
        <time>2017-04-24T10:59:19Z</time>
      </trkpt>
      <trkpt lat="46.05589" lon="4.64954">
        <ele>237</ele>
        <time>2017-04-24T10:59:20Z</time>
      </trkpt>
      <trkpt lat="46.05586" lon="4.64961">
        <ele>237</ele>
        <time>2017-04-24T10:59:21Z</time>
      </trkpt>
      <trkpt lat="46.05584" lon="4.64969">
        <ele>237</ele>
        <time>2017-04-24T10:59:22Z</time>
      </trkpt>
      <trkpt lat="46.05582" lon="4.64977">
        <ele>235</ele>
        <time>2017-04-24T10:59:23Z</time>
      </trkpt>
      <trkpt lat="46.05582" lon="4.64986">
        <ele>236</ele>
        <time>2017-04-24T10:59:24Z</time>
      </trkpt>
      <trkpt lat="46.05583" lon="4.64994">
        <ele>236</ele>
        <time>2017-04-24T10:59:25Z</time>
      </trkpt>
      <trkpt lat="46.05584" lon="4.65002">
        <ele>236</ele>
        <time>2017-04-24T10:59:26Z</time>
      </trkpt>
      <trkpt lat="46.05586" lon="4.6501">
        <ele>237</ele>
        <time>2017-04-24T10:59:27Z</time>
      </trkpt>
      <trkpt lat="46.05588" lon="4.65019">
        <ele>237</ele>
        <time>2017-04-24T10:59:28Z</time>
      </trkpt>
      <trkpt lat="46.05591" lon="4.65028">
        <ele>237</ele>
        <time>2017-04-24T10:59:29Z</time>
      </trkpt>
      <trkpt lat="46.05593" lon="4.65037">
        <ele>237</ele>
        <time>2017-04-24T10:59:30Z</time>
      </trkpt>
      <trkpt lat="46.05595" lon="4.65046">
        <ele>237</ele>
        <time>2017-04-24T10:59:31Z</time>
      </trkpt>
      <trkpt lat="46.05597" lon="4.65056">
        <ele>237</ele>
        <time>2017-04-24T10:59:32Z</time>
      </trkpt>
      <trkpt lat="46.05599" lon="4.65066">
        <ele>237</ele>
        <time>2017-04-24T10:59:33Z</time>
      </trkpt>
      <trkpt lat="46.05601" lon="4.65075">
        <ele>237</ele>
        <time>2017-04-24T10:59:34Z</time>
      </trkpt>
      <trkpt lat="46.05603" lon="4.65085">
        <ele>235</ele>
        <time>2017-04-24T10:59:35Z</time>
      </trkpt>
      <trkpt lat="46.05605" lon="4.65094">
        <ele>235</ele>
        <time>2017-04-24T10:59:36Z</time>
      </trkpt>
      <trkpt lat="46.05607" lon="4.65105">
        <ele>235</ele>
        <time>2017-04-24T10:59:37Z</time>
      </trkpt>
      <trkpt lat="46.05609" lon="4.65117">
        <ele>235</ele>
        <time>2017-04-24T10:59:38Z</time>
      </trkpt>
      <trkpt lat="46.05611" lon="4.65128">
        <ele>235</ele>
        <time>2017-04-24T10:59:39Z</time>
      </trkpt>
      <trkpt lat="46.05613" lon="4.65139">
        <ele>235</ele>
        <time>2017-04-24T10:59:40Z</time>
      </trkpt>
      <trkpt lat="46.05615" lon="4.65149">
        <ele>235</ele>
        <time>2017-04-24T10:59:41Z</time>
      </trkpt>
      <trkpt lat="46.05617" lon="4.65159">
        <ele>235</ele>
        <time>2017-04-24T10:59:42Z</time>
      </trkpt>
      <trkpt lat="46.05619" lon="4.65169">
        <ele>233</ele>
        <time>2017-04-24T10:59:43Z</time>
      </trkpt>
      <trkpt lat="46.05621" lon="4.65179">
        <ele>233</ele>
        <time>2017-04-24T10:59:44Z</time>
      </trkpt>
      <trkpt lat="46.05623" lon="4.65188">
        <ele>233</ele>
        <time>2017-04-24T10:59:45Z</time>
      </trkpt>
      <trkpt lat="46.05625" lon="4.65195">
        <ele>233</ele>
        <time>2017-04-24T10:59:46Z</time>
      </trkpt>
      <trkpt lat="46.05627" lon="4.65205">
        <ele>233</ele>
        <time>2017-04-24T10:59:47Z</time>
      </trkpt>
      <trkpt lat="46.05629" lon="4.65214">
        <ele>232</ele>
        <time>2017-04-24T10:59:48Z</time>
      </trkpt>
      <trkpt lat="46.0563" lon="4.65222">
        <ele>232</ele>
        <time>2017-04-24T10:59:49Z</time>
      </trkpt>
      <trkpt lat="46.05632" lon="4.65231">
        <ele>232</ele>
        <time>2017-04-24T10:59:50Z</time>
      </trkpt>
      <trkpt lat="46.05634" lon="4.65239">
        <ele>232</ele>
        <time>2017-04-24T10:59:51Z</time>
      </trkpt>
      <trkpt lat="46.05636" lon="4.65246">
        <ele>232</ele>
        <time>2017-04-24T10:59:52Z</time>
      </trkpt>
      <trkpt lat="46.05638" lon="4.65253">
        <ele>232</ele>
        <time>2017-04-24T10:59:53Z</time>
      </trkpt>
      <trkpt lat="46.05639" lon="4.6526">
        <ele>232</ele>
        <time>2017-04-24T10:59:54Z</time>
      </trkpt>
      <trkpt lat="46.05641" lon="4.65269">
        <ele>232</ele>
        <time>2017-04-24T10:59:55Z</time>
      </trkpt>
      <trkpt lat="46.05642" lon="4.65277">
        <ele>232</ele>
        <time>2017-04-24T10:59:56Z</time>
      </trkpt>
      <trkpt lat="46.05643" lon="4.65285">
        <ele>232</ele>
        <time>2017-04-24T10:59:57Z</time>
      </trkpt>
      <trkpt lat="46.05645" lon="4.65293">
        <ele>232</ele>
        <time>2017-04-24T10:59:58Z</time>
      </trkpt>
      <trkpt lat="46.05646" lon="4.65301">
        <ele>232</ele>
        <time>2017-04-24T10:59:59Z</time>
      </trkpt>
      <trkpt lat="46.05647" lon="4.65309">
        <ele>232</ele>
        <time>2017-04-24T11:00:00Z</time>
      </trkpt>
      <trkpt lat="46.05647" lon="4.65317">
        <ele>232</ele>
        <time>2017-04-24T11:00:01Z</time>
      </trkpt>
      <trkpt lat="46.05647" lon="4.65324">
        <ele>233</ele>
        <time>2017-04-24T11:00:02Z</time>
      </trkpt>
      <trkpt lat="46.05648" lon="4.65333">
        <ele>233</ele>
        <time>2017-04-24T11:00:03Z</time>
      </trkpt>
      <trkpt lat="46.05647" lon="4.65341">
        <ele>233</ele>
        <time>2017-04-24T11:00:04Z</time>
      </trkpt>
      <trkpt lat="46.05648" lon="4.65348">
        <ele>233</ele>
        <time>2017-04-24T11:00:05Z</time>
      </trkpt>
      <trkpt lat="46.05648" lon="4.65356">
        <ele>233</ele>
        <time>2017-04-24T11:00:06Z</time>
      </trkpt>
      <trkpt lat="46.05648" lon="4.65363">
        <ele>233</ele>
        <time>2017-04-24T11:00:07Z</time>
      </trkpt>
      <trkpt lat="46.05648" lon="4.6537">
        <ele>233</ele>
        <time>2017-04-24T11:00:08Z</time>
      </trkpt>
      <trkpt lat="46.05648" lon="4.65378">
        <ele>233</ele>
        <time>2017-04-24T11:00:09Z</time>
      </trkpt>
      <trkpt lat="46.05647" lon="4.65386">
        <ele>233</ele>
        <time>2017-04-24T11:00:10Z</time>
      </trkpt>
      <trkpt lat="46.05646" lon="4.65394">
        <ele>233</ele>
        <time>2017-04-24T11:00:11Z</time>
      </trkpt>
      <trkpt lat="46.05645" lon="4.65402">
        <ele>233</ele>
        <time>2017-04-24T11:00:12Z</time>
      </trkpt>
      <trkpt lat="46.05643" lon="4.65411">
        <ele>233</ele>
        <time>2017-04-24T11:00:13Z</time>
      </trkpt>
      <trkpt lat="46.05641" lon="4.65418">
        <ele>232</ele>
        <time>2017-04-24T11:00:14Z</time>
      </trkpt>
      <trkpt lat="46.05637" lon="4.65424">
        <ele>232</ele>
        <time>2017-04-24T11:00:15Z</time>
      </trkpt>
      <trkpt lat="46.05633" lon="4.65429">
        <ele>231</ele>
        <time>2017-04-24T11:00:16Z</time>
      </trkpt>
      <trkpt lat="46.05628" lon="4.65431">
        <ele>231</ele>
        <time>2017-04-24T11:00:17Z</time>
      </trkpt>
      <trkpt lat="46.05623" lon="4.65433">
        <ele>231</ele>
        <time>2017-04-24T11:00:18Z</time>
      </trkpt>
      <trkpt lat="46.05618" lon="4.65434">
        <ele>230</ele>
        <time>2017-04-24T11:00:19Z</time>
      </trkpt>
      <trkpt lat="46.05612" lon="4.65435">
        <ele>230</ele>
        <time>2017-04-24T11:00:20Z</time>
      </trkpt>
      <trkpt lat="46.05607" lon="4.65437">
        <ele>230</ele>
        <time>2017-04-24T11:00:21Z</time>
      </trkpt>
      <trkpt lat="46.05601" lon="4.6544">
        <ele>230</ele>
        <time>2017-04-24T11:00:22Z</time>
      </trkpt>
      <trkpt lat="46.05596" lon="4.65443">
        <ele>230</ele>
        <time>2017-04-24T11:00:23Z</time>
      </trkpt>
      <trkpt lat="46.05591" lon="4.65447">
        <ele>230</ele>
        <time>2017-04-24T11:00:24Z</time>
      </trkpt>
      <trkpt lat="46.05587" lon="4.65452">
        <ele>230</ele>
        <time>2017-04-24T11:00:25Z</time>
      </trkpt>
      <trkpt lat="46.05582" lon="4.65456">
        <ele>229</ele>
        <time>2017-04-24T11:00:26Z</time>
      </trkpt>
      <trkpt lat="46.05577" lon="4.6546">
        <ele>229</ele>
        <time>2017-04-24T11:00:27Z</time>
      </trkpt>
      <trkpt lat="46.05572" lon="4.65463">
        <ele>229</ele>
        <time>2017-04-24T11:00:28Z</time>
      </trkpt>
      <trkpt lat="46.05566" lon="4.65467">
        <ele>229</ele>
        <time>2017-04-24T11:00:29Z</time>
      </trkpt>
      <trkpt lat="46.05561" lon="4.6547">
        <ele>229</ele>
        <time>2017-04-24T11:00:30Z</time>
      </trkpt>
      <trkpt lat="46.05555" lon="4.65474">
        <ele>229</ele>
        <time>2017-04-24T11:00:31Z</time>
      </trkpt>
      <trkpt lat="46.05551" lon="4.65477">
        <ele>229</ele>
        <time>2017-04-24T11:00:32Z</time>
      </trkpt>
      <trkpt lat="46.05545" lon="4.6548">
        <ele>229</ele>
        <time>2017-04-24T11:00:33Z</time>
      </trkpt>
      <trkpt lat="46.05541" lon="4.65484">
        <ele>229</ele>
        <time>2017-04-24T11:00:34Z</time>
      </trkpt>
      <trkpt lat="46.05536" lon="4.65487">
        <ele>229</ele>
        <time>2017-04-24T11:00:35Z</time>
      </trkpt>
      <trkpt lat="46.05531" lon="4.6549">
        <ele>229</ele>
        <time>2017-04-24T11:00:36Z</time>
      </trkpt>
      <trkpt lat="46.05527" lon="4.65492">
        <ele>229</ele>
        <time>2017-04-24T11:00:37Z</time>
      </trkpt>
      <trkpt lat="46.05522" lon="4.65495">
        <ele>229</ele>
        <time>2017-04-24T11:00:38Z</time>
      </trkpt>
      <trkpt lat="46.05518" lon="4.65498">
        <ele>229</ele>
        <time>2017-04-24T11:00:39Z</time>
      </trkpt>
      <trkpt lat="46.05514" lon="4.65501">
        <ele>228</ele>
        <time>2017-04-24T11:00:40Z</time>
      </trkpt>
      <trkpt lat="46.05509" lon="4.65504">
        <ele>228</ele>
        <time>2017-04-24T11:00:41Z</time>
      </trkpt>
      <trkpt lat="46.05504" lon="4.65508">
        <ele>228</ele>
        <time>2017-04-24T11:00:42Z</time>
      </trkpt>
      <trkpt lat="46.05498" lon="4.65511">
        <ele>228</ele>
        <time>2017-04-24T11:00:43Z</time>
      </trkpt>
      <trkpt lat="46.05493" lon="4.65515">
        <ele>228</ele>
        <time>2017-04-24T11:00:44Z</time>
      </trkpt>
      <trkpt lat="46.05488" lon="4.6552">
        <ele>228</ele>
        <time>2017-04-24T11:00:45Z</time>
      </trkpt>
      <trkpt lat="46.05483" lon="4.65525">
        <ele>228</ele>
        <time>2017-04-24T11:00:46Z</time>
      </trkpt>
      <trkpt lat="46.05478" lon="4.65529">
        <ele>228</ele>
        <time>2017-04-24T11:00:47Z</time>
      </trkpt>
      <trkpt lat="46.05473" lon="4.65534">
        <ele>228</ele>
        <time>2017-04-24T11:00:48Z</time>
      </trkpt>
      <trkpt lat="46.05468" lon="4.65539">
        <ele>228</ele>
        <time>2017-04-24T11:00:49Z</time>
      </trkpt>
      <trkpt lat="46.05463" lon="4.65544">
        <ele>227</ele>
        <time>2017-04-24T11:00:50Z</time>
      </trkpt>
      <trkpt lat="46.05459" lon="4.6555">
        <ele>227</ele>
        <time>2017-04-24T11:00:51Z</time>
      </trkpt>
      <trkpt lat="46.05455" lon="4.65555">
        <ele>227</ele>
        <time>2017-04-24T11:00:52Z</time>
      </trkpt>
      <trkpt lat="46.05451" lon="4.6556">
        <ele>227</ele>
        <time>2017-04-24T11:00:53Z</time>
      </trkpt>
      <trkpt lat="46.05446" lon="4.65565">
        <ele>227</ele>
        <time>2017-04-24T11:00:54Z</time>
      </trkpt>
      <trkpt lat="46.05442" lon="4.6557">
        <ele>227</ele>
        <time>2017-04-24T11:00:55Z</time>
      </trkpt>
      <trkpt lat="46.05437" lon="4.65575">
        <ele>227</ele>
        <time>2017-04-24T11:00:56Z</time>
      </trkpt>
      <trkpt lat="46.05432" lon="4.6558">
        <ele>227</ele>
        <time>2017-04-24T11:00:57Z</time>
      </trkpt>
      <trkpt lat="46.05428" lon="4.65585">
        <ele>227</ele>
        <time>2017-04-24T11:00:58Z</time>
      </trkpt>
      <trkpt lat="46.05425" lon="4.65591">
        <ele>227</ele>
        <time>2017-04-24T11:00:59Z</time>
      </trkpt>
      <trkpt lat="46.05421" lon="4.65598">
        <ele>227</ele>
        <time>2017-04-24T11:01:00Z</time>
      </trkpt>
      <trkpt lat="46.05418" lon="4.65604">
        <ele>227</ele>
        <time>2017-04-24T11:01:01Z</time>
      </trkpt>
      <trkpt lat="46.05413" lon="4.6561">
        <ele>228</ele>
        <time>2017-04-24T11:01:02Z</time>
      </trkpt>
      <trkpt lat="46.05408" lon="4.65615">
        <ele>228</ele>
        <time>2017-04-24T11:01:03Z</time>
      </trkpt>
      <trkpt lat="46.05404" lon="4.65621">
        <ele>228</ele>
        <time>2017-04-24T11:01:04Z</time>
      </trkpt>
      <trkpt lat="46.05399" lon="4.65626">
        <ele>228</ele>
        <time>2017-04-24T11:01:05Z</time>
      </trkpt>
      <trkpt lat="46.05395" lon="4.65632">
        <ele>229</ele>
        <time>2017-04-24T11:01:06Z</time>
      </trkpt>
      <trkpt lat="46.0539" lon="4.65638">
        <ele>229</ele>
        <time>2017-04-24T11:01:07Z</time>
      </trkpt>
      <trkpt lat="46.05386" lon="4.65644">
        <ele>229</ele>
        <time>2017-04-24T11:01:08Z</time>
      </trkpt>
      <trkpt lat="46.05383" lon="4.6565">
        <ele>229</ele>
        <time>2017-04-24T11:01:09Z</time>
      </trkpt>
      <trkpt lat="46.05379" lon="4.65656">
        <ele>229</ele>
        <time>2017-04-24T11:01:10Z</time>
      </trkpt>
      <trkpt lat="46.05376" lon="4.65663">
        <ele>229</ele>
        <time>2017-04-24T11:01:11Z</time>
      </trkpt>
      <trkpt lat="46.05372" lon="4.6567">
        <ele>229</ele>
        <time>2017-04-24T11:01:12Z</time>
      </trkpt>
      <trkpt lat="46.0537" lon="4.65677">
        <ele>229</ele>
        <time>2017-04-24T11:01:13Z</time>
      </trkpt>
      <trkpt lat="46.05367" lon="4.65684">
        <ele>229</ele>
        <time>2017-04-24T11:01:14Z</time>
      </trkpt>
      <trkpt lat="46.05365" lon="4.65691">
        <ele>229</ele>
        <time>2017-04-24T11:01:15Z</time>
      </trkpt>
      <trkpt lat="46.05363" lon="4.65698">
        <ele>229</ele>
        <time>2017-04-24T11:01:16Z</time>
      </trkpt>
      <trkpt lat="46.0536" lon="4.65706">
        <ele>229</ele>
        <time>2017-04-24T11:01:17Z</time>
      </trkpt>
      <trkpt lat="46.05358" lon="4.65713">
        <ele>229</ele>
        <time>2017-04-24T11:01:18Z</time>
      </trkpt>
      <trkpt lat="46.05356" lon="4.65721">
        <ele>229</ele>
        <time>2017-04-24T11:01:19Z</time>
      </trkpt>
      <trkpt lat="46.05354" lon="4.65728">
        <ele>229</ele>
        <time>2017-04-24T11:01:20Z</time>
      </trkpt>
      <trkpt lat="46.05352" lon="4.65736">
        <ele>229</ele>
        <time>2017-04-24T11:01:21Z</time>
      </trkpt>
      <trkpt lat="46.0535" lon="4.65744">
        <ele>229</ele>
        <time>2017-04-24T11:01:22Z</time>
      </trkpt>
      <trkpt lat="46.05348" lon="4.65752">
        <ele>229</ele>
        <time>2017-04-24T11:01:23Z</time>
      </trkpt>
      <trkpt lat="46.05347" lon="4.6576">
        <ele>229</ele>
        <time>2017-04-24T11:01:24Z</time>
      </trkpt>
      <trkpt lat="46.05345" lon="4.65768">
        <ele>229</ele>
        <time>2017-04-24T11:01:25Z</time>
      </trkpt>
      <trkpt lat="46.05344" lon="4.65776">
        <ele>228</ele>
        <time>2017-04-24T11:01:26Z</time>
      </trkpt>
      <trkpt lat="46.05342" lon="4.65783">
        <ele>228</ele>
        <time>2017-04-24T11:01:27Z</time>
      </trkpt>
      <trkpt lat="46.05341" lon="4.6579">
        <ele>228</ele>
        <time>2017-04-24T11:01:28Z</time>
      </trkpt>
      <trkpt lat="46.05339" lon="4.65797">
        <ele>228</ele>
        <time>2017-04-24T11:01:29Z</time>
      </trkpt>
      <trkpt lat="46.05338" lon="4.65804">
        <ele>228</ele>
        <time>2017-04-24T11:01:30Z</time>
      </trkpt>
      <trkpt lat="46.05337" lon="4.65811">
        <ele>228</ele>
        <time>2017-04-24T11:01:31Z</time>
      </trkpt>
      <trkpt lat="46.05335" lon="4.65817">
        <ele>228</ele>
        <time>2017-04-24T11:01:32Z</time>
      </trkpt>
      <trkpt lat="46.05333" lon="4.65829">
        <ele>229</ele>
        <time>2017-04-24T11:01:34Z</time>
      </trkpt>
      <trkpt lat="46.05333" lon="4.65836">
        <ele>228</ele>
        <time>2017-04-24T11:01:35Z</time>
      </trkpt>
      <trkpt lat="46.05331" lon="4.65843">
        <ele>229</ele>
        <time>2017-04-24T11:01:36Z</time>
      </trkpt>
      <trkpt lat="46.0533" lon="4.6585">
        <ele>229</ele>
        <time>2017-04-24T11:01:37Z</time>
      </trkpt>
      <trkpt lat="46.05329" lon="4.65857">
        <ele>229</ele>
        <time>2017-04-24T11:01:38Z</time>
      </trkpt>
      <trkpt lat="46.05327" lon="4.65864">
        <ele>230</ele>
        <time>2017-04-24T11:01:39Z</time>
      </trkpt>
      <trkpt lat="46.05326" lon="4.65871">
        <ele>230</ele>
        <time>2017-04-24T11:01:40Z</time>
      </trkpt>
      <trkpt lat="46.05325" lon="4.65877">
        <ele>230</ele>
        <time>2017-04-24T11:01:41Z</time>
      </trkpt>
      <trkpt lat="46.05324" lon="4.65884">
        <ele>230</ele>
        <time>2017-04-24T11:01:42Z</time>
      </trkpt>
      <trkpt lat="46.05322" lon="4.6589">
        <ele>230</ele>
        <time>2017-04-24T11:01:43Z</time>
      </trkpt>
      <trkpt lat="46.05321" lon="4.65897">
        <ele>230</ele>
        <time>2017-04-24T11:01:44Z</time>
      </trkpt>
      <trkpt lat="46.05321" lon="4.65904">
        <ele>230</ele>
        <time>2017-04-24T11:01:45Z</time>
      </trkpt>
      <trkpt lat="46.0532" lon="4.6591">
        <ele>230</ele>
        <time>2017-04-24T11:01:46Z</time>
      </trkpt>
      <trkpt lat="46.05318" lon="4.65917">
        <ele>230</ele>
        <time>2017-04-24T11:01:47Z</time>
      </trkpt>
      <trkpt lat="46.05317" lon="4.65929">
        <ele>230</ele>
        <time>2017-04-24T11:01:49Z</time>
      </trkpt>
      <trkpt lat="46.05317" lon="4.65934">
        <ele>231</ele>
        <time>2017-04-24T11:01:50Z</time>
      </trkpt>
      <trkpt lat="46.05315" lon="4.65945">
        <ele>231</ele>
        <time>2017-04-24T11:01:52Z</time>
      </trkpt>
      <trkpt lat="46.05314" lon="4.65951">
        <ele>231</ele>
        <time>2017-04-24T11:01:53Z</time>
      </trkpt>
      <trkpt lat="46.05312" lon="4.6596">
        <ele>231</ele>
        <time>2017-04-24T11:01:55Z</time>
      </trkpt>
      <trkpt lat="46.05311" lon="4.65965">
        <ele>231</ele>
        <time>2017-04-24T11:01:56Z</time>
      </trkpt>
      <trkpt lat="46.0531" lon="4.65974">
        <ele>231</ele>
        <time>2017-04-24T11:01:58Z</time>
      </trkpt>
      <trkpt lat="46.05309" lon="4.65979">
        <ele>231</ele>
        <time>2017-04-24T11:01:59Z</time>
      </trkpt>
      <trkpt lat="46.05306" lon="4.65989">
        <ele>231</ele>
        <time>2017-04-24T11:02:01Z</time>
      </trkpt>
      <trkpt lat="46.05305" lon="4.65994">
        <ele>231</ele>
        <time>2017-04-24T11:02:02Z</time>
      </trkpt>
      <trkpt lat="46.05303" lon="4.66004">
        <ele>232</ele>
        <time>2017-04-24T11:02:04Z</time>
      </trkpt>
      <trkpt lat="46.05302" lon="4.66009">
        <ele>232</ele>
        <time>2017-04-24T11:02:05Z</time>
      </trkpt>
      <trkpt lat="46.05301" lon="4.66018">
        <ele>232</ele>
        <time>2017-04-24T11:02:07Z</time>
      </trkpt>
      <trkpt lat="46.053" lon="4.66022">
        <ele>232</ele>
        <time>2017-04-24T11:02:08Z</time>
      </trkpt>
      <trkpt lat="46.05298" lon="4.66034">
        <ele>232</ele>
        <time>2017-04-24T11:02:11Z</time>
      </trkpt>
      <trkpt lat="46.05297" lon="4.66039">
        <ele>233</ele>
        <time>2017-04-24T11:02:12Z</time>
      </trkpt>
      <trkpt lat="46.05296" lon="4.66047">
        <ele>233</ele>
        <time>2017-04-24T11:02:14Z</time>
      </trkpt>
      <trkpt lat="46.05295" lon="4.66051">
        <ele>233</ele>
        <time>2017-04-24T11:02:15Z</time>
      </trkpt>
      <trkpt lat="46.05292" lon="4.66063">
        <ele>233</ele>
        <time>2017-04-24T11:02:18Z</time>
      </trkpt>
      <trkpt lat="46.05291" lon="4.66067">
        <ele>233</ele>
        <time>2017-04-24T11:02:19Z</time>
      </trkpt>
      <trkpt lat="46.05288" lon="4.66079">
        <ele>233</ele>
        <time>2017-04-24T11:02:22Z</time>
      </trkpt>
      <trkpt lat="46.05288" lon="4.66083">
        <ele>233</ele>
        <time>2017-04-24T11:02:23Z</time>
      </trkpt>
      <trkpt lat="46.05285" lon="4.66091">
        <ele>234</ele>
        <time>2017-04-24T11:02:25Z</time>
      </trkpt>
      <trkpt lat="46.05284" lon="4.66096">
        <ele>234</ele>
        <time>2017-04-24T11:02:26Z</time>
      </trkpt>
      <trkpt lat="46.05283" lon="4.66104">
        <ele>234</ele>
        <time>2017-04-24T11:02:28Z</time>
      </trkpt>
      <trkpt lat="46.05281" lon="4.66109">
        <ele>234</ele>
        <time>2017-04-24T11:02:29Z</time>
      </trkpt>
      <trkpt lat="46.05279" lon="4.6612">
        <ele>234</ele>
        <time>2017-04-24T11:02:32Z</time>
      </trkpt>
      <trkpt lat="46.05278" lon="4.66124">
        <ele>234</ele>
        <time>2017-04-24T11:02:33Z</time>
      </trkpt>
      <trkpt lat="46.05276" lon="4.66136">
        <ele>235</ele>
        <time>2017-04-24T11:02:36Z</time>
      </trkpt>
      <trkpt lat="46.05274" lon="4.6614">
        <ele>235</ele>
        <time>2017-04-24T11:02:37Z</time>
      </trkpt>
      <trkpt lat="46.0527" lon="4.66151">
        <ele>236</ele>
        <time>2017-04-24T11:02:40Z</time>
      </trkpt>
      <trkpt lat="46.05269" lon="4.66155">
        <ele>236</ele>
        <time>2017-04-24T11:02:41Z</time>
      </trkpt>
      <trkpt lat="46.05266" lon="4.66167">
        <ele>237</ele>
        <time>2017-04-24T11:02:44Z</time>
      </trkpt>
      <trkpt lat="46.05265" lon="4.66171">
        <ele>237</ele>
        <time>2017-04-24T11:02:45Z</time>
      </trkpt>
      <trkpt lat="46.05261" lon="4.66181">
        <ele>237</ele>
        <time>2017-04-24T11:02:48Z</time>
      </trkpt>
      <trkpt lat="46.05259" lon="4.66185">
        <ele>237</ele>
        <time>2017-04-24T11:02:49Z</time>
      </trkpt>
      <trkpt lat="46.05256" lon="4.66192">
        <ele>237</ele>
        <time>2017-04-24T11:02:51Z</time>
      </trkpt>
      <trkpt lat="46.05254" lon="4.66196">
        <ele>236</ele>
        <time>2017-04-24T11:02:52Z</time>
      </trkpt>
      <trkpt lat="46.0525" lon="4.66207">
        <ele>236</ele>
        <time>2017-04-24T11:02:55Z</time>
      </trkpt>
      <trkpt lat="46.05249" lon="4.66211">
        <ele>241</ele>
        <time>2017-04-24T11:02:56Z</time>
      </trkpt>
      <trkpt lat="46.05245" lon="4.66222">
        <ele>241</ele>
        <time>2017-04-24T11:02:59Z</time>
      </trkpt>
      <trkpt lat="46.05244" lon="4.66227">
        <ele>241</ele>
        <time>2017-04-24T11:03:00Z</time>
      </trkpt>
      <trkpt lat="46.05241" lon="4.66234">
        <ele>241</ele>
        <time>2017-04-24T11:03:02Z</time>
      </trkpt>
      <trkpt lat="46.05239" lon="4.66238">
        <ele>241</ele>
        <time>2017-04-24T11:03:03Z</time>
      </trkpt>
      <trkpt lat="46.05236" lon="4.6625">
        <ele>241</ele>
        <time>2017-04-24T11:03:06Z</time>
      </trkpt>
      <trkpt lat="46.05235" lon="4.66253">
        <ele>240</ele>
        <time>2017-04-24T11:03:07Z</time>
      </trkpt>
      <trkpt lat="46.0523" lon="4.66262">
        <ele>241</ele>
        <time>2017-04-24T11:03:10Z</time>
      </trkpt>
      <trkpt lat="46.05229" lon="4.66266">
        <ele>241</ele>
        <time>2017-04-24T11:03:11Z</time>
      </trkpt>
      <trkpt lat="46.05225" lon="4.66277">
        <ele>241</ele>
        <time>2017-04-24T11:03:14Z</time>
      </trkpt>
      <trkpt lat="46.05224" lon="4.6628">
        <ele>241</ele>
        <time>2017-04-24T11:03:15Z</time>
      </trkpt>
      <trkpt lat="46.05221" lon="4.66291">
        <ele>241</ele>
        <time>2017-04-24T11:03:18Z</time>
      </trkpt>
      <trkpt lat="46.0522" lon="4.66295">
        <ele>242</ele>
        <time>2017-04-24T11:03:19Z</time>
      </trkpt>
      <trkpt lat="46.05215" lon="4.66305">
        <ele>242</ele>
        <time>2017-04-24T11:03:22Z</time>
      </trkpt>
      <trkpt lat="46.05213" lon="4.66309">
        <ele>242</ele>
        <time>2017-04-24T11:03:23Z</time>
      </trkpt>
      <trkpt lat="46.0521" lon="4.66319">
        <ele>242</ele>
        <time>2017-04-24T11:03:26Z</time>
      </trkpt>
      <trkpt lat="46.05208" lon="4.66323">
        <ele>242</ele>
        <time>2017-04-24T11:03:27Z</time>
      </trkpt>
      <trkpt lat="46.05204" lon="4.66333">
        <ele>242</ele>
        <time>2017-04-24T11:03:30Z</time>
      </trkpt>
      <trkpt lat="46.05202" lon="4.66336">
        <ele>242</ele>
        <time>2017-04-24T11:03:31Z</time>
      </trkpt>
      <trkpt lat="46.05197" lon="4.66346">
        <ele>242</ele>
        <time>2017-04-24T11:03:34Z</time>
      </trkpt>
      <trkpt lat="46.05196" lon="4.6635">
        <ele>242</ele>
        <time>2017-04-24T11:03:35Z</time>
      </trkpt>
      <trkpt lat="46.05192" lon="4.6636">
        <ele>242</ele>
        <time>2017-04-24T11:03:38Z</time>
      </trkpt>
      <trkpt lat="46.05191" lon="4.66364">
        <ele>242</ele>
        <time>2017-04-24T11:03:39Z</time>
      </trkpt>
      <trkpt lat="46.05187" lon="4.66375">
        <ele>242</ele>
        <time>2017-04-24T11:03:42Z</time>
      </trkpt>
      <trkpt lat="46.05186" lon="4.66378">
        <ele>243</ele>
        <time>2017-04-24T11:03:43Z</time>
      </trkpt>
      <trkpt lat="46.05182" lon="4.66388">
        <ele>243</ele>
        <time>2017-04-24T11:03:46Z</time>
      </trkpt>
      <trkpt lat="46.05181" lon="4.66391">
        <ele>243</ele>
        <time>2017-04-24T11:03:47Z</time>
      </trkpt>
      <trkpt lat="46.05176" lon="4.66397">
        <ele>243</ele>
        <time>2017-04-24T11:03:49Z</time>
      </trkpt>
      <trkpt lat="46.05174" lon="4.664">
        <ele>244</ele>
        <time>2017-04-24T11:03:50Z</time>
      </trkpt>
      <trkpt lat="46.05169" lon="4.66406">
        <ele>244</ele>
        <time>2017-04-24T11:03:52Z</time>
      </trkpt>
      <trkpt lat="46.05167" lon="4.66409">
        <ele>245</ele>
        <time>2017-04-24T11:03:53Z</time>
      </trkpt>
      <trkpt lat="46.0516" lon="4.66416">
        <ele>246</ele>
        <time>2017-04-24T11:03:56Z</time>
      </trkpt>
      <trkpt lat="46.05158" lon="4.66418">
        <ele>247</ele>
        <time>2017-04-24T11:03:57Z</time>
      </trkpt>
      <trkpt lat="46.0515" lon="4.66424">
        <ele>247</ele>
        <time>2017-04-24T11:04:00Z</time>
      </trkpt>
      <trkpt lat="46.05148" lon="4.66425">
        <ele>247</ele>
        <time>2017-04-24T11:04:01Z</time>
      </trkpt>
      <trkpt lat="46.05141" lon="4.66427">
        <ele>247</ele>
        <time>2017-04-24T11:04:03Z</time>
      </trkpt>
      <trkpt lat="46.05137" lon="4.66427">
        <ele>247</ele>
        <time>2017-04-24T11:04:04Z</time>
      </trkpt>
      <trkpt lat="46.05129" lon="4.66429">
        <ele>248</ele>
        <time>2017-04-24T11:04:07Z</time>
      </trkpt>
      <trkpt lat="46.05126" lon="4.66429">
        <ele>248</ele>
        <time>2017-04-24T11:04:08Z</time>
      </trkpt>
      <trkpt lat="46.05118" lon="4.66429">
        <ele>248</ele>
        <time>2017-04-24T11:04:11Z</time>
      </trkpt>
      <trkpt lat="46.05115" lon="4.66429">
        <ele>248</ele>
        <time>2017-04-24T11:04:12Z</time>
      </trkpt>
      <trkpt lat="46.05106" lon="4.6643">
        <ele>248</ele>
        <time>2017-04-24T11:04:15Z</time>
      </trkpt>
      <trkpt lat="46.05102" lon="4.6643">
        <ele>248</ele>
        <time>2017-04-24T11:04:16Z</time>
      </trkpt>
      <trkpt lat="46.05094" lon="4.6643">
        <ele>248</ele>
        <time>2017-04-24T11:04:19Z</time>
      </trkpt>
      <trkpt lat="46.05091" lon="4.6643">
        <ele>248</ele>
        <time>2017-04-24T11:04:20Z</time>
      </trkpt>
      <trkpt lat="46.05082" lon="4.66429">
        <ele>249</ele>
        <time>2017-04-24T11:04:23Z</time>
      </trkpt>
      <trkpt lat="46.05079" lon="4.66428">
        <ele>249</ele>
        <time>2017-04-24T11:04:24Z</time>
      </trkpt>
      <trkpt lat="46.0507" lon="4.66428">
        <ele>249</ele>
        <time>2017-04-24T11:04:27Z</time>
      </trkpt>
      <trkpt lat="46.05067" lon="4.66428">
        <ele>249</ele>
        <time>2017-04-24T11:04:28Z</time>
      </trkpt>
      <trkpt lat="46.0506" lon="4.66429">
        <ele>249</ele>
        <time>2017-04-24T11:04:30Z</time>
      </trkpt>
      <trkpt lat="46.05057" lon="4.66429">
        <ele>249</ele>
        <time>2017-04-24T11:04:31Z</time>
      </trkpt>
      <trkpt lat="46.05049" lon="4.66429">
        <ele>249</ele>
        <time>2017-04-24T11:04:34Z</time>
      </trkpt>
      <trkpt lat="46.05046" lon="4.66429">
        <ele>249</ele>
        <time>2017-04-24T11:04:35Z</time>
      </trkpt>
      <trkpt lat="46.05037" lon="4.66428">
        <ele>250</ele>
        <time>2017-04-24T11:04:38Z</time>
      </trkpt>
      <trkpt lat="46.05034" lon="4.66428">
        <ele>250</ele>
        <time>2017-04-24T11:04:39Z</time>
      </trkpt>
      <trkpt lat="46.05028" lon="4.66428">
        <ele>250</ele>
        <time>2017-04-24T11:04:41Z</time>
      </trkpt>
      <trkpt lat="46.05024" lon="4.66428">
        <ele>250</ele>
        <time>2017-04-24T11:04:42Z</time>
      </trkpt>
      <trkpt lat="46.05016" lon="4.66429">
        <ele>250</ele>
        <time>2017-04-24T11:04:45Z</time>
      </trkpt>
      <trkpt lat="46.05013" lon="4.66429">
        <ele>250</ele>
        <time>2017-04-24T11:04:46Z</time>
      </trkpt>
      <trkpt lat="46.05005" lon="4.66429">
        <ele>250</ele>
        <time>2017-04-24T11:04:49Z</time>
      </trkpt>
      <trkpt lat="46.05002" lon="4.66429">
        <ele>250</ele>
        <time>2017-04-24T11:04:50Z</time>
      </trkpt>
      <trkpt lat="46.04996" lon="4.66429">
        <ele>251</ele>
        <time>2017-04-24T11:04:52Z</time>
      </trkpt>
      <trkpt lat="46.04993" lon="4.6643">
        <ele>251</ele>
        <time>2017-04-24T11:04:53Z</time>
      </trkpt>
      <trkpt lat="46.04988" lon="4.66432">
        <ele>251</ele>
        <time>2017-04-24T11:04:55Z</time>
      </trkpt>
      <trkpt lat="46.04984" lon="4.66433">
        <ele>251</ele>
        <time>2017-04-24T11:04:56Z</time>
      </trkpt>
      <trkpt lat="46.04979" lon="4.66436">
        <ele>251</ele>
        <time>2017-04-24T11:04:58Z</time>
      </trkpt>
      <trkpt lat="46.04976" lon="4.66438">
        <ele>251</ele>
        <time>2017-04-24T11:04:59Z</time>
      </trkpt>
      <trkpt lat="46.04969" lon="4.66444">
        <ele>252</ele>
        <time>2017-04-24T11:05:01Z</time>
      </trkpt>
      <trkpt lat="46.04965" lon="4.66447">
        <ele>252</ele>
        <time>2017-04-24T11:05:02Z</time>
      </trkpt>
      <trkpt lat="46.04959" lon="4.66454">
        <ele>252</ele>
        <time>2017-04-24T11:05:04Z</time>
      </trkpt>
      <trkpt lat="46.04955" lon="4.66457">
        <ele>252</ele>
        <time>2017-04-24T11:05:05Z</time>
      </trkpt>
      <trkpt lat="46.04949" lon="4.66463">
        <ele>252</ele>
        <time>2017-04-24T11:05:07Z</time>
      </trkpt>
      <trkpt lat="46.04947" lon="4.66467">
        <ele>252</ele>
        <time>2017-04-24T11:05:08Z</time>
      </trkpt>
      <trkpt lat="46.04942" lon="4.66475">
        <ele>252</ele>
        <time>2017-04-24T11:05:10Z</time>
      </trkpt>
      <trkpt lat="46.04939" lon="4.66479">
        <ele>252</ele>
        <time>2017-04-24T11:05:11Z</time>
      </trkpt>
      <trkpt lat="46.04933" lon="4.66488">
        <ele>252</ele>
        <time>2017-04-24T11:05:13Z</time>
      </trkpt>
      <trkpt lat="46.0493" lon="4.66493">
        <ele>252</ele>
        <time>2017-04-24T11:05:14Z</time>
      </trkpt>
      <trkpt lat="46.04924" lon="4.66502">
        <ele>253</ele>
        <time>2017-04-24T11:05:16Z</time>
      </trkpt>
      <trkpt lat="46.04921" lon="4.66507">
        <ele>253</ele>
        <time>2017-04-24T11:05:17Z</time>
      </trkpt>
      <trkpt lat="46.04915" lon="4.66516">
        <ele>253</ele>
        <time>2017-04-24T11:05:19Z</time>
      </trkpt>
      <trkpt lat="46.04913" lon="4.6652">
        <ele>254</ele>
        <time>2017-04-24T11:05:20Z</time>
      </trkpt>
      <trkpt lat="46.04907" lon="4.66528">
        <ele>254</ele>
        <time>2017-04-24T11:05:22Z</time>
      </trkpt>
      <trkpt lat="46.04904" lon="4.66532">
        <ele>254</ele>
        <time>2017-04-24T11:05:23Z</time>
      </trkpt>
      <trkpt lat="46.04902" lon="4.66537">
        <ele>254</ele>
        <time>2017-04-24T11:05:24Z</time>
      </trkpt>
      <trkpt lat="46.04899" lon="4.66543">
        <ele>254</ele>
        <time>2017-04-24T11:05:25Z</time>
      </trkpt>
      <trkpt lat="46.04896" lon="4.66548">
        <ele>254</ele>
        <time>2017-04-24T11:05:26Z</time>
      </trkpt>
      <trkpt lat="46.04893" lon="4.66553">
        <ele>254</ele>
        <time>2017-04-24T11:05:27Z</time>
      </trkpt>
      <trkpt lat="46.04888" lon="4.66563">
        <ele>254</ele>
        <time>2017-04-24T11:05:29Z</time>
      </trkpt>
      <trkpt lat="46.04885" lon="4.66568">
        <ele>254</ele>
        <time>2017-04-24T11:05:30Z</time>
      </trkpt>
      <trkpt lat="46.0488" lon="4.66577">
        <ele>254</ele>
        <time>2017-04-24T11:05:32Z</time>
      </trkpt>
      <trkpt lat="46.04878" lon="4.66581">
        <ele>254</ele>
        <time>2017-04-24T11:05:33Z</time>
      </trkpt>
      <trkpt lat="46.04873" lon="4.66589">
        <ele>254</ele>
        <time>2017-04-24T11:05:35Z</time>
      </trkpt>
      <trkpt lat="46.0487" lon="4.66594">
        <ele>254</ele>
        <time>2017-04-24T11:05:36Z</time>
      </trkpt>
      <trkpt lat="46.04867" lon="4.66599">
        <ele>254</ele>
        <time>2017-04-24T11:05:37Z</time>
      </trkpt>
      <trkpt lat="46.04864" lon="4.66604">
        <ele>254</ele>
        <time>2017-04-24T11:05:38Z</time>
      </trkpt>
      <trkpt lat="46.04861" lon="4.66609">
        <ele>254</ele>
        <time>2017-04-24T11:05:39Z</time>
      </trkpt>
      <trkpt lat="46.04858" lon="4.66614">
        <ele>254</ele>
        <time>2017-04-24T11:05:40Z</time>
      </trkpt>
      <trkpt lat="46.04852" lon="4.66624">
        <ele>254</ele>
        <time>2017-04-24T11:05:42Z</time>
      </trkpt>
      <trkpt lat="46.0485" lon="4.66628">
        <ele>254</ele>
        <time>2017-04-24T11:05:43Z</time>
      </trkpt>
      <trkpt lat="46.04844" lon="4.66637">
        <ele>254</ele>
        <time>2017-04-24T11:05:45Z</time>
      </trkpt>
      <trkpt lat="46.04842" lon="4.66641">
        <ele>254</ele>
        <time>2017-04-24T11:05:46Z</time>
      </trkpt>
      <trkpt lat="46.04837" lon="4.66649">
        <ele>254</ele>
        <time>2017-04-24T11:05:48Z</time>
      </trkpt>
      <trkpt lat="46.04834" lon="4.66653">
        <ele>254</ele>
        <time>2017-04-24T11:05:49Z</time>
      </trkpt>
      <trkpt lat="46.04831" lon="4.66657">
        <ele>254</ele>
        <time>2017-04-24T11:05:50Z</time>
      </trkpt>
      <trkpt lat="46.04828" lon="4.66663">
        <ele>254</ele>
        <time>2017-04-24T11:05:51Z</time>
      </trkpt>
      <trkpt lat="46.04825" lon="4.66668">
        <ele>254</ele>
        <time>2017-04-24T11:05:52Z</time>
      </trkpt>
      <trkpt lat="46.04822" lon="4.66674">
        <ele>254</ele>
        <time>2017-04-24T11:05:53Z</time>
      </trkpt>
      <trkpt lat="46.04819" lon="4.66679">
        <ele>254</ele>
        <time>2017-04-24T11:05:54Z</time>
      </trkpt>
      <trkpt lat="46.04816" lon="4.66684">
        <ele>254</ele>
        <time>2017-04-24T11:05:55Z</time>
      </trkpt>
      <trkpt lat="46.04812" lon="4.66689">
        <ele>253</ele>
        <time>2017-04-24T11:05:56Z</time>
      </trkpt>
      <trkpt lat="46.04809" lon="4.66694">
        <ele>253</ele>
        <time>2017-04-24T11:05:57Z</time>
      </trkpt>
      <trkpt lat="46.04806" lon="4.667">
        <ele>253</ele>
        <time>2017-04-24T11:05:58Z</time>
      </trkpt>
      <trkpt lat="46.04803" lon="4.66705">
        <ele>253</ele>
        <time>2017-04-24T11:05:59Z</time>
      </trkpt>
      <trkpt lat="46.04799" lon="4.66711">
        <ele>253</ele>
        <time>2017-04-24T11:06:00Z</time>
      </trkpt>
      <trkpt lat="46.04796" lon="4.66716">
        <ele>253</ele>
        <time>2017-04-24T11:06:01Z</time>
      </trkpt>
      <trkpt lat="46.04793" lon="4.66722">
        <ele>253</ele>
        <time>2017-04-24T11:06:02Z</time>
      </trkpt>
      <trkpt lat="46.04789" lon="4.66727">
        <ele>253</ele>
        <time>2017-04-24T11:06:03Z</time>
      </trkpt>
      <trkpt lat="46.04786" lon="4.66732">
        <ele>253</ele>
        <time>2017-04-24T11:06:04Z</time>
      </trkpt>
      <trkpt lat="46.04783" lon="4.66738">
        <ele>253</ele>
        <time>2017-04-24T11:06:05Z</time>
      </trkpt>
      <trkpt lat="46.0478" lon="4.66743">
        <ele>253</ele>
        <time>2017-04-24T11:06:06Z</time>
      </trkpt>
      <trkpt lat="46.04776" lon="4.66749">
        <ele>253</ele>
        <time>2017-04-24T11:06:07Z</time>
      </trkpt>
      <trkpt lat="46.04773" lon="4.66754">
        <ele>252</ele>
        <time>2017-04-24T11:06:08Z</time>
      </trkpt>
      <trkpt lat="46.04769" lon="4.66759">
        <ele>252</ele>
        <time>2017-04-24T11:06:09Z</time>
      </trkpt>
      <trkpt lat="46.04765" lon="4.66764">
        <ele>252</ele>
        <time>2017-04-24T11:06:10Z</time>
      </trkpt>
      <trkpt lat="46.04762" lon="4.66769">
        <ele>252</ele>
        <time>2017-04-24T11:06:11Z</time>
      </trkpt>
      <trkpt lat="46.04759" lon="4.66775">
        <ele>252</ele>
        <time>2017-04-24T11:06:12Z</time>
      </trkpt>
      <trkpt lat="46.04755" lon="4.6678">
        <ele>252</ele>
        <time>2017-04-24T11:06:13Z</time>
      </trkpt>
      <trkpt lat="46.04751" lon="4.66785">
        <ele>252</ele>
        <time>2017-04-24T11:06:14Z</time>
      </trkpt>
      <trkpt lat="46.04747" lon="4.66791">
        <ele>252</ele>
        <time>2017-04-24T11:06:15Z</time>
      </trkpt>
      <trkpt lat="46.04743" lon="4.66797">
        <ele>252</ele>
        <time>2017-04-24T11:06:16Z</time>
      </trkpt>
      <trkpt lat="46.04738" lon="4.66802">
        <ele>252</ele>
        <time>2017-04-24T11:06:17Z</time>
      </trkpt>
      <trkpt lat="46.04733" lon="4.66809">
        <ele>252</ele>
        <time>2017-04-24T11:06:18Z</time>
      </trkpt>
      <trkpt lat="46.04729" lon="4.66815">
        <ele>252</ele>
        <time>2017-04-24T11:06:19Z</time>
      </trkpt>
      <trkpt lat="46.04724" lon="4.66821">
        <ele>252</ele>
        <time>2017-04-24T11:06:20Z</time>
      </trkpt>
      <trkpt lat="46.04719" lon="4.66828">
        <ele>252</ele>
        <time>2017-04-24T11:06:21Z</time>
      </trkpt>
      <trkpt lat="46.04716" lon="4.66835">
        <ele>251</ele>
        <time>2017-04-24T11:06:22Z</time>
      </trkpt>
      <trkpt lat="46.04712" lon="4.66842">
        <ele>251</ele>
        <time>2017-04-24T11:06:23Z</time>
      </trkpt>
      <trkpt lat="46.04708" lon="4.66848">
        <ele>251</ele>
        <time>2017-04-24T11:06:24Z</time>
      </trkpt>
      <trkpt lat="46.04703" lon="4.66854">
        <ele>251</ele>
        <time>2017-04-24T11:06:25Z</time>
      </trkpt>
      <trkpt lat="46.04699" lon="4.66861">
        <ele>251</ele>
        <time>2017-04-24T11:06:26Z</time>
      </trkpt>
      <trkpt lat="46.04695" lon="4.66868">
        <ele>251</ele>
        <time>2017-04-24T11:06:27Z</time>
      </trkpt>
      <trkpt lat="46.04692" lon="4.66874">
        <ele>251</ele>
        <time>2017-04-24T11:06:28Z</time>
      </trkpt>
      <trkpt lat="46.04687" lon="4.6688">
        <ele>250</ele>
        <time>2017-04-24T11:06:29Z</time>
      </trkpt>
      <trkpt lat="46.04683" lon="4.66887">
        <ele>250</ele>
        <time>2017-04-24T11:06:30Z</time>
      </trkpt>
      <trkpt lat="46.0468" lon="4.66894">
        <ele>250</ele>
        <time>2017-04-24T11:06:31Z</time>
      </trkpt>
      <trkpt lat="46.04676" lon="4.66901">
        <ele>250</ele>
        <time>2017-04-24T11:06:32Z</time>
      </trkpt>
      <trkpt lat="46.04671" lon="4.66909">
        <ele>250</ele>
        <time>2017-04-24T11:06:33Z</time>
      </trkpt>
      <trkpt lat="46.04667" lon="4.66917">
        <ele>250</ele>
        <time>2017-04-24T11:06:34Z</time>
      </trkpt>
      <trkpt lat="46.04662" lon="4.66924">
        <ele>250</ele>
        <time>2017-04-24T11:06:35Z</time>
      </trkpt>
      <trkpt lat="46.04657" lon="4.66931">
        <ele>249</ele>
        <time>2017-04-24T11:06:36Z</time>
      </trkpt>
      <trkpt lat="46.04652" lon="4.66938">
        <ele>249</ele>
        <time>2017-04-24T11:06:37Z</time>
      </trkpt>
      <trkpt lat="46.04648" lon="4.66946">
        <ele>249</ele>
        <time>2017-04-24T11:06:38Z</time>
      </trkpt>
      <trkpt lat="46.04643" lon="4.66954">
        <ele>249</ele>
        <time>2017-04-24T11:06:39Z</time>
      </trkpt>
      <trkpt lat="46.04638" lon="4.66962">
        <ele>249</ele>
        <time>2017-04-24T11:06:40Z</time>
      </trkpt>
      <trkpt lat="46.04633" lon="4.6697">
        <ele>249</ele>
        <time>2017-04-24T11:06:41Z</time>
      </trkpt>
      <trkpt lat="46.0463" lon="4.66979">
        <ele>248</ele>
        <time>2017-04-24T11:06:42Z</time>
      </trkpt>
      <trkpt lat="46.04626" lon="4.66987">
        <ele>248</ele>
        <time>2017-04-24T11:06:43Z</time>
      </trkpt>
      <trkpt lat="46.04621" lon="4.66995">
        <ele>248</ele>
        <time>2017-04-24T11:06:44Z</time>
      </trkpt>
      <trkpt lat="46.04617" lon="4.67004">
        <ele>247</ele>
        <time>2017-04-24T11:06:45Z</time>
      </trkpt>
      <trkpt lat="46.04612" lon="4.67012">
        <ele>247</ele>
        <time>2017-04-24T11:06:46Z</time>
      </trkpt>
      <trkpt lat="46.04607" lon="4.6702">
        <ele>247</ele>
        <time>2017-04-24T11:06:47Z</time>
      </trkpt>
      <trkpt lat="46.04601" lon="4.67028">
        <ele>247</ele>
        <time>2017-04-24T11:06:48Z</time>
      </trkpt>
      <trkpt lat="46.04596" lon="4.67036">
        <ele>246</ele>
        <time>2017-04-24T11:06:49Z</time>
      </trkpt>
      <trkpt lat="46.04591" lon="4.67045">
        <ele>246</ele>
        <time>2017-04-24T11:06:50Z</time>
      </trkpt>
      <trkpt lat="46.04586" lon="4.67053">
        <ele>246</ele>
        <time>2017-04-24T11:06:51Z</time>
      </trkpt>
      <trkpt lat="46.0458" lon="4.67061">
        <ele>245</ele>
        <time>2017-04-24T11:06:52Z</time>
      </trkpt>
      <trkpt lat="46.04575" lon="4.67068">
        <ele>245</ele>
        <time>2017-04-24T11:06:53Z</time>
      </trkpt>
      <trkpt lat="46.0457" lon="4.67076">
        <ele>244</ele>
        <time>2017-04-24T11:06:54Z</time>
      </trkpt>
      <trkpt lat="46.04564" lon="4.67084">
        <ele>243</ele>
        <time>2017-04-24T11:06:55Z</time>
      </trkpt>
      <trkpt lat="46.04559" lon="4.67091">
        <ele>243</ele>
        <time>2017-04-24T11:06:56Z</time>
      </trkpt>
      <trkpt lat="46.04553" lon="4.67099">
        <ele>242</ele>
        <time>2017-04-24T11:06:57Z</time>
      </trkpt>
      <trkpt lat="46.04548" lon="4.67106">
        <ele>242</ele>
        <time>2017-04-24T11:06:58Z</time>
      </trkpt>
      <trkpt lat="46.04543" lon="4.67114">
        <ele>242</ele>
        <time>2017-04-24T11:06:59Z</time>
      </trkpt>
      <trkpt lat="46.04538" lon="4.67122">
        <ele>242</ele>
        <time>2017-04-24T11:07:00Z</time>
      </trkpt>
      <trkpt lat="46.04533" lon="4.67131">
        <ele>242</ele>
        <time>2017-04-24T11:07:01Z</time>
      </trkpt>
      <trkpt lat="46.04528" lon="4.67139">
        <ele>241</ele>
        <time>2017-04-24T11:07:02Z</time>
      </trkpt>
      <trkpt lat="46.04523" lon="4.67147">
        <ele>241</ele>
        <time>2017-04-24T11:07:03Z</time>
      </trkpt>
      <trkpt lat="46.04518" lon="4.67155">
        <ele>241</ele>
        <time>2017-04-24T11:07:04Z</time>
      </trkpt>
      <trkpt lat="46.04513" lon="4.67163">
        <ele>240</ele>
        <time>2017-04-24T11:07:05Z</time>
      </trkpt>
      <trkpt lat="46.04509" lon="4.67171">
        <ele>239</ele>
        <time>2017-04-24T11:07:06Z</time>
      </trkpt>
      <trkpt lat="46.04504" lon="4.67179">
        <ele>239</ele>
        <time>2017-04-24T11:07:07Z</time>
      </trkpt>
      <trkpt lat="46.04499" lon="4.67187">
        <ele>239</ele>
        <time>2017-04-24T11:07:08Z</time>
      </trkpt>
      <trkpt lat="46.04494" lon="4.67195">
        <ele>239</ele>
        <time>2017-04-24T11:07:09Z</time>
      </trkpt>
      <trkpt lat="46.0449" lon="4.67203">
        <ele>239</ele>
        <time>2017-04-24T11:07:10Z</time>
      </trkpt>
      <trkpt lat="46.04485" lon="4.6721">
        <ele>239</ele>
        <time>2017-04-24T11:07:11Z</time>
      </trkpt>
      <trkpt lat="46.04481" lon="4.67218">
        <ele>239</ele>
        <time>2017-04-24T11:07:12Z</time>
      </trkpt>
      <trkpt lat="46.04476" lon="4.67226">
        <ele>239</ele>
        <time>2017-04-24T11:07:13Z</time>
      </trkpt>
      <trkpt lat="46.04472" lon="4.67234">
        <ele>239</ele>
        <time>2017-04-24T11:07:14Z</time>
      </trkpt>
      <trkpt lat="46.04467" lon="4.67242">
        <ele>239</ele>
        <time>2017-04-24T11:07:15Z</time>
      </trkpt>
      <trkpt lat="46.04463" lon="4.67249">
        <ele>239</ele>
        <time>2017-04-24T11:07:16Z</time>
      </trkpt>
      <trkpt lat="46.04459" lon="4.67257">
        <ele>238</ele>
        <time>2017-04-24T11:07:17Z</time>
      </trkpt>
      <trkpt lat="46.04455" lon="4.67265">
        <ele>238</ele>
        <time>2017-04-24T11:07:18Z</time>
      </trkpt>
      <trkpt lat="46.0445" lon="4.67272">
        <ele>238</ele>
        <time>2017-04-24T11:07:19Z</time>
      </trkpt>
      <trkpt lat="46.04446" lon="4.6728">
        <ele>238</ele>
        <time>2017-04-24T11:07:20Z</time>
      </trkpt>
      <trkpt lat="46.04441" lon="4.67287">
        <ele>238</ele>
        <time>2017-04-24T11:07:21Z</time>
      </trkpt>
      <trkpt lat="46.04436" lon="4.67295">
        <ele>238</ele>
        <time>2017-04-24T11:07:22Z</time>
      </trkpt>
      <trkpt lat="46.04432" lon="4.67302">
        <ele>237</ele>
        <time>2017-04-24T11:07:23Z</time>
      </trkpt>
      <trkpt lat="46.04427" lon="4.6731">
        <ele>237</ele>
        <time>2017-04-24T11:07:24Z</time>
      </trkpt>
      <trkpt lat="46.04423" lon="4.67318">
        <ele>237</ele>
        <time>2017-04-24T11:07:25Z</time>
      </trkpt>
      <trkpt lat="46.04418" lon="4.67326">
        <ele>236</ele>
        <time>2017-04-24T11:07:26Z</time>
      </trkpt>
      <trkpt lat="46.04413" lon="4.67334">
        <ele>236</ele>
        <time>2017-04-24T11:07:27Z</time>
      </trkpt>
      <trkpt lat="46.04409" lon="4.67343">
        <ele>235</ele>
        <time>2017-04-24T11:07:28Z</time>
      </trkpt>
      <trkpt lat="46.04403" lon="4.67351">
        <ele>235</ele>
        <time>2017-04-24T11:07:29Z</time>
      </trkpt>
      <trkpt lat="46.04398" lon="4.6736">
        <ele>234</ele>
        <time>2017-04-24T11:07:30Z</time>
      </trkpt>
      <trkpt lat="46.04393" lon="4.67368">
        <ele>234</ele>
        <time>2017-04-24T11:07:31Z</time>
      </trkpt>
      <trkpt lat="46.04387" lon="4.67377">
        <ele>234</ele>
        <time>2017-04-24T11:07:32Z</time>
      </trkpt>
      <trkpt lat="46.04382" lon="4.67386">
        <ele>234</ele>
        <time>2017-04-24T11:07:33Z</time>
      </trkpt>
      <trkpt lat="46.04377" lon="4.67394">
        <ele>234</ele>
        <time>2017-04-24T11:07:34Z</time>
      </trkpt>
      <trkpt lat="46.04372" lon="4.67402">
        <ele>234</ele>
        <time>2017-04-24T11:07:35Z</time>
      </trkpt>
      <trkpt lat="46.04368" lon="4.67411">
        <ele>234</ele>
        <time>2017-04-24T11:07:36Z</time>
      </trkpt>
      <trkpt lat="46.04363" lon="4.6742">
        <ele>232</ele>
        <time>2017-04-24T11:07:37Z</time>
      </trkpt>
      <trkpt lat="46.04358" lon="4.67428">
        <ele>232</ele>
        <time>2017-04-24T11:07:38Z</time>
      </trkpt>
      <trkpt lat="46.04352" lon="4.67436">
        <ele>232</ele>
        <time>2017-04-24T11:07:39Z</time>
      </trkpt>
      <trkpt lat="46.04346" lon="4.67444">
        <ele>232</ele>
        <time>2017-04-24T11:07:40Z</time>
      </trkpt>
      <trkpt lat="46.04341" lon="4.67452">
        <ele>232</ele>
        <time>2017-04-24T11:07:41Z</time>
      </trkpt>
      <trkpt lat="46.04335" lon="4.6746">
        <ele>232</ele>
        <time>2017-04-24T11:07:42Z</time>
      </trkpt>
      <trkpt lat="46.04329" lon="4.67467">
        <ele>231</ele>
        <time>2017-04-24T11:07:43Z</time>
      </trkpt>
      <trkpt lat="46.04323" lon="4.67474">
        <ele>231</ele>
        <time>2017-04-24T11:07:44Z</time>
      </trkpt>
      <trkpt lat="46.04317" lon="4.6748">
        <ele>231</ele>
        <time>2017-04-24T11:07:45Z</time>
      </trkpt>
      <trkpt lat="46.04311" lon="4.67487">
        <ele>231</ele>
        <time>2017-04-24T11:07:46Z</time>
      </trkpt>
      <trkpt lat="46.04305" lon="4.67493">
        <ele>231</ele>
        <time>2017-04-24T11:07:47Z</time>
      </trkpt>
      <trkpt lat="46.04299" lon="4.67498">
        <ele>230</ele>
        <time>2017-04-24T11:07:48Z</time>
      </trkpt>
      <trkpt lat="46.04293" lon="4.67504">
        <ele>229</ele>
        <time>2017-04-24T11:07:49Z</time>
      </trkpt>
      <trkpt lat="46.04287" lon="4.6751">
        <ele>229</ele>
        <time>2017-04-24T11:07:50Z</time>
      </trkpt>
      <trkpt lat="46.04281" lon="4.67515">
        <ele>229</ele>
        <time>2017-04-24T11:07:51Z</time>
      </trkpt>
      <trkpt lat="46.04275" lon="4.6752">
        <ele>229</ele>
        <time>2017-04-24T11:07:52Z</time>
      </trkpt>
      <trkpt lat="46.04269" lon="4.67525">
        <ele>229</ele>
        <time>2017-04-24T11:07:53Z</time>
      </trkpt>
      <trkpt lat="46.04263" lon="4.6753">
        <ele>229</ele>
        <time>2017-04-24T11:07:54Z</time>
      </trkpt>
      <trkpt lat="46.04257" lon="4.67535">
        <ele>229</ele>
        <time>2017-04-24T11:07:55Z</time>
      </trkpt>
      <trkpt lat="46.04252" lon="4.6754">
        <ele>229</ele>
        <time>2017-04-24T11:07:56Z</time>
      </trkpt>
      <trkpt lat="46.04246" lon="4.67545">
        <ele>227</ele>
        <time>2017-04-24T11:07:57Z</time>
      </trkpt>
      <trkpt lat="46.0424" lon="4.67551">
        <ele>227</ele>
        <time>2017-04-24T11:07:58Z</time>
      </trkpt>
      <trkpt lat="46.04235" lon="4.67557">
        <ele>227</ele>
        <time>2017-04-24T11:07:59Z</time>
      </trkpt>
      <trkpt lat="46.04231" lon="4.67564">
        <ele>227</ele>
        <time>2017-04-24T11:08:00Z</time>
      </trkpt>
      <trkpt lat="46.04227" lon="4.67571">
        <ele>227</ele>
        <time>2017-04-24T11:08:01Z</time>
      </trkpt>
      <trkpt lat="46.04223" lon="4.67579">
        <ele>227</ele>
        <time>2017-04-24T11:08:02Z</time>
      </trkpt>
      <trkpt lat="46.04218" lon="4.67587">
        <ele>227</ele>
        <time>2017-04-24T11:08:03Z</time>
      </trkpt>
      <trkpt lat="46.04215" lon="4.67595">
        <ele>227</ele>
        <time>2017-04-24T11:08:04Z</time>
      </trkpt>
      <trkpt lat="46.04211" lon="4.67603">
        <ele>227</ele>
        <time>2017-04-24T11:08:05Z</time>
      </trkpt>
      <trkpt lat="46.04207" lon="4.67612">
        <ele>227</ele>
        <time>2017-04-24T11:08:06Z</time>
      </trkpt>
      <trkpt lat="46.04203" lon="4.6762">
        <ele>227</ele>
        <time>2017-04-24T11:08:07Z</time>
      </trkpt>
      <trkpt lat="46.042" lon="4.67629">
        <ele>227</ele>
        <time>2017-04-24T11:08:08Z</time>
      </trkpt>
      <trkpt lat="46.04195" lon="4.67638">
        <ele>227</ele>
        <time>2017-04-24T11:08:09Z</time>
      </trkpt>
      <trkpt lat="46.04191" lon="4.67647">
        <ele>227</ele>
        <time>2017-04-24T11:08:10Z</time>
      </trkpt>
      <trkpt lat="46.04187" lon="4.67656">
        <ele>226</ele>
        <time>2017-04-24T11:08:11Z</time>
      </trkpt>
      <trkpt lat="46.04181" lon="4.67665">
        <ele>226</ele>
        <time>2017-04-24T11:08:12Z</time>
      </trkpt>
      <trkpt lat="46.04176" lon="4.67673">
        <ele>226</ele>
        <time>2017-04-24T11:08:13Z</time>
      </trkpt>
      <trkpt lat="46.04171" lon="4.67681">
        <ele>226</ele>
        <time>2017-04-24T11:08:14Z</time>
      </trkpt>
      <trkpt lat="46.04166" lon="4.67688">
        <ele>225</ele>
        <time>2017-04-24T11:08:15Z</time>
      </trkpt>
      <trkpt lat="46.04159" lon="4.67694">
        <ele>224</ele>
        <time>2017-04-24T11:08:16Z</time>
      </trkpt>
      <trkpt lat="46.04153" lon="4.677">
        <ele>224</ele>
        <time>2017-04-24T11:08:17Z</time>
      </trkpt>
      <trkpt lat="46.04145" lon="4.67703">
        <ele>224</ele>
        <time>2017-04-24T11:08:18Z</time>
      </trkpt>
      <trkpt lat="46.04138" lon="4.67706">
        <ele>224</ele>
        <time>2017-04-24T11:08:19Z</time>
      </trkpt>
      <trkpt lat="46.0413" lon="4.67709">
        <ele>224</ele>
        <time>2017-04-24T11:08:20Z</time>
      </trkpt>
      <trkpt lat="46.04122" lon="4.67711">
        <ele>223</ele>
        <time>2017-04-24T11:08:21Z</time>
      </trkpt>
      <trkpt lat="46.04114" lon="4.67713">
        <ele>223</ele>
        <time>2017-04-24T11:08:22Z</time>
      </trkpt>
      <trkpt lat="46.04105" lon="4.67715">
        <ele>223</ele>
        <time>2017-04-24T11:08:23Z</time>
      </trkpt>
      <trkpt lat="46.04096" lon="4.67716">
        <ele>223</ele>
        <time>2017-04-24T11:08:24Z</time>
      </trkpt>
      <trkpt lat="46.04088" lon="4.67716">
        <ele>223</ele>
        <time>2017-04-24T11:08:25Z</time>
      </trkpt>
      <trkpt lat="46.04078" lon="4.67716">
        <ele>219</ele>
        <time>2017-04-24T11:08:26Z</time>
      </trkpt>
      <trkpt lat="46.0407" lon="4.67716">
        <ele>219</ele>
        <time>2017-04-24T11:08:27Z</time>
      </trkpt>
      <trkpt lat="46.0406" lon="4.67717">
        <ele>219</ele>
        <time>2017-04-24T11:08:28Z</time>
      </trkpt>
      <trkpt lat="46.04052" lon="4.67717">
        <ele>218</ele>
        <time>2017-04-24T11:08:29Z</time>
      </trkpt>
      <trkpt lat="46.04043" lon="4.67718">
        <ele>218</ele>
        <time>2017-04-24T11:08:30Z</time>
      </trkpt>
      <trkpt lat="46.04035" lon="4.67718">
        <ele>217</ele>
        <time>2017-04-24T11:08:31Z</time>
      </trkpt>
      <trkpt lat="46.04026" lon="4.67718">
        <ele>217</ele>
        <time>2017-04-24T11:08:32Z</time>
      </trkpt>
      <trkpt lat="46.04018" lon="4.67719">
        <ele>217</ele>
        <time>2017-04-24T11:08:33Z</time>
      </trkpt>
      <trkpt lat="46.0401" lon="4.67719">
        <ele>216</ele>
        <time>2017-04-24T11:08:34Z</time>
      </trkpt>
      <trkpt lat="46.04003" lon="4.6772">
        <ele>216</ele>
        <time>2017-04-24T11:08:35Z</time>
      </trkpt>
      <trkpt lat="46.03996" lon="4.6772">
        <ele>216</ele>
        <time>2017-04-24T11:08:36Z</time>
      </trkpt>
      <trkpt lat="46.03989" lon="4.67721">
        <ele>216</ele>
        <time>2017-04-24T11:08:37Z</time>
      </trkpt>
      <trkpt lat="46.03982" lon="4.67722">
        <ele>216</ele>
        <time>2017-04-24T11:08:38Z</time>
      </trkpt>
      <trkpt lat="46.03976" lon="4.67723">
        <ele>216</ele>
        <time>2017-04-24T11:08:39Z</time>
      </trkpt>
      <trkpt lat="46.0397" lon="4.67724">
        <ele>217</ele>
        <time>2017-04-24T11:08:40Z</time>
      </trkpt>
      <trkpt lat="46.03965" lon="4.67725">
        <ele>217</ele>
        <time>2017-04-24T11:08:41Z</time>
      </trkpt>
      <trkpt lat="46.0396" lon="4.67725">
        <ele>217</ele>
        <time>2017-04-24T11:08:42Z</time>
      </trkpt>
      <trkpt lat="46.03954" lon="4.67727">
        <ele>217</ele>
        <time>2017-04-24T11:08:43Z</time>
      </trkpt>
      <trkpt lat="46.03949" lon="4.67729">
        <ele>217</ele>
        <time>2017-04-24T11:08:44Z</time>
      </trkpt>
      <trkpt lat="46.03944" lon="4.67731">
        <ele>218</ele>
        <time>2017-04-24T11:08:45Z</time>
      </trkpt>
      <trkpt lat="46.0394" lon="4.67734">
        <ele>218</ele>
        <time>2017-04-24T11:08:46Z</time>
      </trkpt>
      <trkpt lat="46.03932" lon="4.67741">
        <ele>218</ele>
        <time>2017-04-24T11:08:48Z</time>
      </trkpt>
      <trkpt lat="46.03929" lon="4.67744">
        <ele>219</ele>
        <time>2017-04-24T11:08:49Z</time>
      </trkpt>
      <trkpt lat="46.03922" lon="4.6775">
        <ele>220</ele>
        <time>2017-04-24T11:08:51Z</time>
      </trkpt>
      <trkpt lat="46.03919" lon="4.67753">
        <ele>220</ele>
        <time>2017-04-24T11:08:52Z</time>
      </trkpt>
      <trkpt lat="46.03914" lon="4.6776">
        <ele>221</ele>
        <time>2017-04-24T11:08:54Z</time>
      </trkpt>
      <trkpt lat="46.03911" lon="4.67764">
        <ele>221</ele>
        <time>2017-04-24T11:08:55Z</time>
      </trkpt>
      <trkpt lat="46.03904" lon="4.67772">
        <ele>222</ele>
        <time>2017-04-24T11:08:57Z</time>
      </trkpt>
      <trkpt lat="46.03901" lon="4.67776">
        <ele>222</ele>
        <time>2017-04-24T11:08:58Z</time>
      </trkpt>
      <trkpt lat="46.03897" lon="4.67781">
        <ele>222</ele>
        <time>2017-04-24T11:08:59Z</time>
      </trkpt>
      <trkpt lat="46.03894" lon="4.67785">
        <ele>222</ele>
        <time>2017-04-24T11:09:00Z</time>
      </trkpt>
      <trkpt lat="46.03888" lon="4.67792">
        <ele>222</ele>
        <time>2017-04-24T11:09:02Z</time>
      </trkpt>
      <trkpt lat="46.03884" lon="4.67796">
        <ele>222</ele>
        <time>2017-04-24T11:09:03Z</time>
      </trkpt>
      <trkpt lat="46.03878" lon="4.67804">
        <ele>223</ele>
        <time>2017-04-24T11:09:05Z</time>
      </trkpt>
      <trkpt lat="46.03874" lon="4.67808">
        <ele>223</ele>
        <time>2017-04-24T11:09:06Z</time>
      </trkpt>
      <trkpt lat="46.03867" lon="4.67815">
        <ele>223</ele>
        <time>2017-04-24T11:09:08Z</time>
      </trkpt>
      <trkpt lat="46.03864" lon="4.67819">
        <ele>223</ele>
        <time>2017-04-24T11:09:09Z</time>
      </trkpt>
      <trkpt lat="46.03856" lon="4.67827">
        <ele>223</ele>
        <time>2017-04-24T11:09:11Z</time>
      </trkpt>
      <trkpt lat="46.03852" lon="4.67831">
        <ele>223</ele>
        <time>2017-04-24T11:09:12Z</time>
      </trkpt>
      <trkpt lat="46.03848" lon="4.67835">
        <ele>223</ele>
        <time>2017-04-24T11:09:13Z</time>
      </trkpt>
      <trkpt lat="46.03845" lon="4.67838">
        <ele>223</ele>
        <time>2017-04-24T11:09:14Z</time>
      </trkpt>
      <trkpt lat="46.03838" lon="4.67844">
        <ele>223</ele>
        <time>2017-04-24T11:09:16Z</time>
      </trkpt>
      <trkpt lat="46.03835" lon="4.67847">
        <ele>223</ele>
        <time>2017-04-24T11:09:17Z</time>
      </trkpt>
      <trkpt lat="46.03828" lon="4.67854">
        <ele>223</ele>
        <time>2017-04-24T11:09:19Z</time>
      </trkpt>
      <trkpt lat="46.03824" lon="4.67857">
        <ele>223</ele>
        <time>2017-04-24T11:09:20Z</time>
      </trkpt>
      <trkpt lat="46.03816" lon="4.67864">
        <ele>223</ele>
        <time>2017-04-24T11:09:22Z</time>
      </trkpt>
      <trkpt lat="46.03813" lon="4.67868">
        <ele>223</ele>
        <time>2017-04-24T11:09:23Z</time>
      </trkpt>
      <trkpt lat="46.03809" lon="4.67872">
        <ele>223</ele>
        <time>2017-04-24T11:09:24Z</time>
      </trkpt>
      <trkpt lat="46.03805" lon="4.67876">
        <ele>223</ele>
        <time>2017-04-24T11:09:25Z</time>
      </trkpt>
      <trkpt lat="46.03801" lon="4.67879">
        <ele>223</ele>
        <time>2017-04-24T11:09:26Z</time>
      </trkpt>
      <trkpt lat="46.03797" lon="4.67883">
        <ele>223</ele>
        <time>2017-04-24T11:09:27Z</time>
      </trkpt>
      <trkpt lat="46.0379" lon="4.67891">
        <ele>223</ele>
        <time>2017-04-24T11:09:29Z</time>
      </trkpt>
      <trkpt lat="46.03786" lon="4.67895">
        <ele>223</ele>
        <time>2017-04-24T11:09:30Z</time>
      </trkpt>
      <trkpt lat="46.03782" lon="4.67898">
        <ele>223</ele>
        <time>2017-04-24T11:09:31Z</time>
      </trkpt>
      <trkpt lat="46.03778" lon="4.67902">
        <ele>223</ele>
        <time>2017-04-24T11:09:32Z</time>
      </trkpt>
      <trkpt lat="46.03774" lon="4.67905">
        <ele>223</ele>
        <time>2017-04-24T11:09:33Z</time>
      </trkpt>
      <trkpt lat="46.0377" lon="4.67909">
        <ele>223</ele>
        <time>2017-04-24T11:09:34Z</time>
      </trkpt>
      <trkpt lat="46.03766" lon="4.67913">
        <ele>222</ele>
        <time>2017-04-24T11:09:35Z</time>
      </trkpt>
      <trkpt lat="46.03761" lon="4.67916">
        <ele>222</ele>
        <time>2017-04-24T11:09:36Z</time>
      </trkpt>
      <trkpt lat="46.03756" lon="4.6792">
        <ele>222</ele>
        <time>2017-04-24T11:09:37Z</time>
      </trkpt>
      <trkpt lat="46.03752" lon="4.67924">
        <ele>222</ele>
        <time>2017-04-24T11:09:38Z</time>
      </trkpt>
      <trkpt lat="46.03747" lon="4.67928">
        <ele>222</ele>
        <time>2017-04-24T11:09:39Z</time>
      </trkpt>
      <trkpt lat="46.03743" lon="4.67933">
        <ele>221</ele>
        <time>2017-04-24T11:09:40Z</time>
      </trkpt>
      <trkpt lat="46.03739" lon="4.67937">
        <ele>221</ele>
        <time>2017-04-24T11:09:41Z</time>
      </trkpt>
      <trkpt lat="46.03734" lon="4.67942">
        <ele>221</ele>
        <time>2017-04-24T11:09:42Z</time>
      </trkpt>
      <trkpt lat="46.03729" lon="4.67946">
        <ele>221</ele>
        <time>2017-04-24T11:09:43Z</time>
      </trkpt>
      <trkpt lat="46.03725" lon="4.6795">
        <ele>221</ele>
        <time>2017-04-24T11:09:44Z</time>
      </trkpt>
      <trkpt lat="46.03721" lon="4.67954">
        <ele>221</ele>
        <time>2017-04-24T11:09:45Z</time>
      </trkpt>
      <trkpt lat="46.03716" lon="4.67957">
        <ele>221</ele>
        <time>2017-04-24T11:09:46Z</time>
      </trkpt>
      <trkpt lat="46.03712" lon="4.67962">
        <ele>221</ele>
        <time>2017-04-24T11:09:47Z</time>
      </trkpt>
      <trkpt lat="46.03708" lon="4.67966">
        <ele>221</ele>
        <time>2017-04-24T11:09:48Z</time>
      </trkpt>
      <trkpt lat="46.03704" lon="4.6797">
        <ele>221</ele>
        <time>2017-04-24T11:09:49Z</time>
      </trkpt>
      <trkpt lat="46.037" lon="4.67975">
        <ele>221</ele>
        <time>2017-04-24T11:09:50Z</time>
      </trkpt>
      <trkpt lat="46.03695" lon="4.67979">
        <ele>221</ele>
        <time>2017-04-24T11:09:51Z</time>
      </trkpt>
      <trkpt lat="46.03691" lon="4.67984">
        <ele>221</ele>
        <time>2017-04-24T11:09:52Z</time>
      </trkpt>
      <trkpt lat="46.03686" lon="4.67989">
        <ele>221</ele>
        <time>2017-04-24T11:09:53Z</time>
      </trkpt>
      <trkpt lat="46.03682" lon="4.67994">
        <ele>221</ele>
        <time>2017-04-24T11:09:54Z</time>
      </trkpt>
      <trkpt lat="46.03676" lon="4.67999">
        <ele>221</ele>
        <time>2017-04-24T11:09:55Z</time>
      </trkpt>
      <trkpt lat="46.03671" lon="4.68004">
        <ele>221</ele>
        <time>2017-04-24T11:09:56Z</time>
      </trkpt>
      <trkpt lat="46.03666" lon="4.68009">
        <ele>221</ele>
        <time>2017-04-24T11:09:57Z</time>
      </trkpt>
      <trkpt lat="46.03661" lon="4.68014">
        <ele>220</ele>
        <time>2017-04-24T11:09:58Z</time>
      </trkpt>
      <trkpt lat="46.03656" lon="4.68019">
        <ele>220</ele>
        <time>2017-04-24T11:09:59Z</time>
      </trkpt>
      <trkpt lat="46.0365" lon="4.68024">
        <ele>220</ele>
        <time>2017-04-24T11:10:00Z</time>
      </trkpt>
      <trkpt lat="46.03645" lon="4.68029">
        <ele>220</ele>
        <time>2017-04-24T11:10:01Z</time>
      </trkpt>
      <trkpt lat="46.0364" lon="4.68034">
        <ele>220</ele>
        <time>2017-04-24T11:10:02Z</time>
      </trkpt>
      <trkpt lat="46.03635" lon="4.68039">
        <ele>220</ele>
        <time>2017-04-24T11:10:03Z</time>
      </trkpt>
      <trkpt lat="46.03629" lon="4.68044">
        <ele>220</ele>
        <time>2017-04-24T11:10:04Z</time>
      </trkpt>
      <trkpt lat="46.03625" lon="4.68048">
        <ele>220</ele>
        <time>2017-04-24T11:10:05Z</time>
      </trkpt>
      <trkpt lat="46.0362" lon="4.68053">
        <ele>220</ele>
        <time>2017-04-24T11:10:06Z</time>
      </trkpt>
      <trkpt lat="46.03615" lon="4.68058">
        <ele>219</ele>
        <time>2017-04-24T11:10:07Z</time>
      </trkpt>
      <trkpt lat="46.03611" lon="4.68063">
        <ele>219</ele>
        <time>2017-04-24T11:10:08Z</time>
      </trkpt>
      <trkpt lat="46.03606" lon="4.68068">
        <ele>219</ele>
        <time>2017-04-24T11:10:09Z</time>
      </trkpt>
      <trkpt lat="46.03602" lon="4.68072">
        <ele>219</ele>
        <time>2017-04-24T11:10:10Z</time>
      </trkpt>
      <trkpt lat="46.03597" lon="4.68077">
        <ele>219</ele>
        <time>2017-04-24T11:10:11Z</time>
      </trkpt>
      <trkpt lat="46.03592" lon="4.68081">
        <ele>219</ele>
        <time>2017-04-24T11:10:12Z</time>
      </trkpt>
      <trkpt lat="46.03588" lon="4.68085">
        <ele>218</ele>
        <time>2017-04-24T11:10:13Z</time>
      </trkpt>
      <trkpt lat="46.03583" lon="4.6809">
        <ele>218</ele>
        <time>2017-04-24T11:10:14Z</time>
      </trkpt>
      <trkpt lat="46.03578" lon="4.68095">
        <ele>218</ele>
        <time>2017-04-24T11:10:15Z</time>
      </trkpt>
      <trkpt lat="46.03573" lon="4.681">
        <ele>218</ele>
        <time>2017-04-24T11:10:16Z</time>
      </trkpt>
      <trkpt lat="46.03568" lon="4.68105">
        <ele>218</ele>
        <time>2017-04-24T11:10:17Z</time>
      </trkpt>
      <trkpt lat="46.03563" lon="4.68109">
        <ele>218</ele>
        <time>2017-04-24T11:10:18Z</time>
      </trkpt>
      <trkpt lat="46.03559" lon="4.68114">
        <ele>219</ele>
        <time>2017-04-24T11:10:19Z</time>
      </trkpt>
      <trkpt lat="46.03554" lon="4.68119">
        <ele>219</ele>
        <time>2017-04-24T11:10:20Z</time>
      </trkpt>
      <trkpt lat="46.03549" lon="4.68124">
        <ele>219</ele>
        <time>2017-04-24T11:10:21Z</time>
      </trkpt>
      <trkpt lat="46.03544" lon="4.68129">
        <ele>219</ele>
        <time>2017-04-24T11:10:22Z</time>
      </trkpt>
      <trkpt lat="46.03538" lon="4.68134">
        <ele>219</ele>
        <time>2017-04-24T11:10:23Z</time>
      </trkpt>
      <trkpt lat="46.03533" lon="4.68139">
        <ele>219</ele>
        <time>2017-04-24T11:10:24Z</time>
      </trkpt>
      <trkpt lat="46.03528" lon="4.68145">
        <ele>219</ele>
        <time>2017-04-24T11:10:25Z</time>
      </trkpt>
      <trkpt lat="46.03523" lon="4.6815">
        <ele>219</ele>
        <time>2017-04-24T11:10:26Z</time>
      </trkpt>
      <trkpt lat="46.03518" lon="4.68155">
        <ele>220</ele>
        <time>2017-04-24T11:10:27Z</time>
      </trkpt>
      <trkpt lat="46.03512" lon="4.68161">
        <ele>220</ele>
        <time>2017-04-24T11:10:28Z</time>
      </trkpt>
      <trkpt lat="46.03507" lon="4.68166">
        <ele>220</ele>
        <time>2017-04-24T11:10:29Z</time>
      </trkpt>
      <trkpt lat="46.03501" lon="4.68171">
        <ele>221</ele>
        <time>2017-04-24T11:10:30Z</time>
      </trkpt>
      <trkpt lat="46.03496" lon="4.68176">
        <ele>221</ele>
        <time>2017-04-24T11:10:31Z</time>
      </trkpt>
      <trkpt lat="46.03491" lon="4.68181">
        <ele>221</ele>
        <time>2017-04-24T11:10:32Z</time>
      </trkpt>
      <trkpt lat="46.03486" lon="4.68186">
        <ele>221</ele>
        <time>2017-04-24T11:10:33Z</time>
      </trkpt>
      <trkpt lat="46.03481" lon="4.68191">
        <ele>220</ele>
        <time>2017-04-24T11:10:34Z</time>
      </trkpt>
      <trkpt lat="46.03476" lon="4.68196">
        <ele>220</ele>
        <time>2017-04-24T11:10:35Z</time>
      </trkpt>
      <trkpt lat="46.03471" lon="4.68201">
        <ele>220</ele>
        <time>2017-04-24T11:10:36Z</time>
      </trkpt>
      <trkpt lat="46.03466" lon="4.68205">
        <ele>220</ele>
        <time>2017-04-24T11:10:37Z</time>
      </trkpt>
      <trkpt lat="46.03461" lon="4.6821">
        <ele>220</ele>
        <time>2017-04-24T11:10:38Z</time>
      </trkpt>
      <trkpt lat="46.03456" lon="4.68215">
        <ele>220</ele>
        <time>2017-04-24T11:10:39Z</time>
      </trkpt>
      <trkpt lat="46.03451" lon="4.6822">
        <ele>220</ele>
        <time>2017-04-24T11:10:40Z</time>
      </trkpt>
      <trkpt lat="46.03445" lon="4.68225">
        <ele>220</ele>
        <time>2017-04-24T11:10:41Z</time>
      </trkpt>
      <trkpt lat="46.0344" lon="4.6823">
        <ele>220</ele>
        <time>2017-04-24T11:10:42Z</time>
      </trkpt>
      <trkpt lat="46.03435" lon="4.68235">
        <ele>220</ele>
        <time>2017-04-24T11:10:43Z</time>
      </trkpt>
      <trkpt lat="46.03429" lon="4.6824">
        <ele>220</ele>
        <time>2017-04-24T11:10:44Z</time>
      </trkpt>
      <trkpt lat="46.03424" lon="4.68246">
        <ele>220</ele>
        <time>2017-04-24T11:10:45Z</time>
      </trkpt>
      <trkpt lat="46.03418" lon="4.68252">
        <ele>220</ele>
        <time>2017-04-24T11:10:46Z</time>
      </trkpt>
      <trkpt lat="46.03412" lon="4.68258">
        <ele>220</ele>
        <time>2017-04-24T11:10:47Z</time>
      </trkpt>
      <trkpt lat="46.03406" lon="4.68263">
        <ele>219</ele>
        <time>2017-04-24T11:10:48Z</time>
      </trkpt>
      <trkpt lat="46.03401" lon="4.68269">
        <ele>219</ele>
        <time>2017-04-24T11:10:49Z</time>
      </trkpt>
      <trkpt lat="46.03396" lon="4.68275">
        <ele>219</ele>
        <time>2017-04-24T11:10:50Z</time>
      </trkpt>
      <trkpt lat="46.03391" lon="4.6828">
        <ele>219</ele>
        <time>2017-04-24T11:10:51Z</time>
      </trkpt>
      <trkpt lat="46.03386" lon="4.68285">
        <ele>219</ele>
        <time>2017-04-24T11:10:52Z</time>
      </trkpt>
      <trkpt lat="46.03382" lon="4.68289">
        <ele>219</ele>
        <time>2017-04-24T11:10:53Z</time>
      </trkpt>
      <trkpt lat="46.03378" lon="4.68294">
        <ele>219</ele>
        <time>2017-04-24T11:10:54Z</time>
      </trkpt>
      <trkpt lat="46.03374" lon="4.68298">
        <ele>219</ele>
        <time>2017-04-24T11:10:55Z</time>
      </trkpt>
      <trkpt lat="46.0337" lon="4.68303">
        <ele>219</ele>
        <time>2017-04-24T11:10:56Z</time>
      </trkpt>
      <trkpt lat="46.03365" lon="4.68306">
        <ele>219</ele>
        <time>2017-04-24T11:10:57Z</time>
      </trkpt>
      <trkpt lat="46.03362" lon="4.6831">
        <ele>219</ele>
        <time>2017-04-24T11:10:58Z</time>
      </trkpt>
      <trkpt lat="46.03355" lon="4.68318">
        <ele>218</ele>
        <time>2017-04-24T11:11:00Z</time>
      </trkpt>
      <trkpt lat="46.03352" lon="4.68322">
        <ele>218</ele>
        <time>2017-04-24T11:11:01Z</time>
      </trkpt>
      <trkpt lat="46.03347" lon="4.68327">
        <ele>218</ele>
        <time>2017-04-24T11:11:02Z</time>
      </trkpt>
      <trkpt lat="46.03341" lon="4.68331">
        <ele>218</ele>
        <time>2017-04-24T11:11:03Z</time>
      </trkpt>
      <trkpt lat="46.03335" lon="4.68336">
        <ele>218</ele>
        <time>2017-04-24T11:11:04Z</time>
      </trkpt>
      <trkpt lat="46.03329" lon="4.68341">
        <ele>218</ele>
        <time>2017-04-24T11:11:05Z</time>
      </trkpt>
      <trkpt lat="46.03323" lon="4.68346">
        <ele>218</ele>
        <time>2017-04-24T11:11:06Z</time>
      </trkpt>
      <trkpt lat="46.03318" lon="4.68351">
        <ele>218</ele>
        <time>2017-04-24T11:11:07Z</time>
      </trkpt>
      <trkpt lat="46.03311" lon="4.68357">
        <ele>217</ele>
        <time>2017-04-24T11:11:08Z</time>
      </trkpt>
      <trkpt lat="46.03304" lon="4.68362">
        <ele>217</ele>
        <time>2017-04-24T11:11:09Z</time>
      </trkpt>
      <trkpt lat="46.03297" lon="4.68368">
        <ele>217</ele>
        <time>2017-04-24T11:11:10Z</time>
      </trkpt>
      <trkpt lat="46.03291" lon="4.68374">
        <ele>217</ele>
        <time>2017-04-24T11:11:11Z</time>
      </trkpt>
      <trkpt lat="46.03286" lon="4.6838">
        <ele>217</ele>
        <time>2017-04-24T11:11:12Z</time>
      </trkpt>
      <trkpt lat="46.0328" lon="4.68385">
        <ele>217</ele>
        <time>2017-04-24T11:11:13Z</time>
      </trkpt>
      <trkpt lat="46.03272" lon="4.68391">
        <ele>216</ele>
        <time>2017-04-24T11:11:14Z</time>
      </trkpt>
      <trkpt lat="46.03265" lon="4.68397">
        <ele>216</ele>
        <time>2017-04-24T11:11:15Z</time>
      </trkpt>
      <trkpt lat="46.03258" lon="4.68403">
        <ele>215</ele>
        <time>2017-04-24T11:11:16Z</time>
      </trkpt>
      <trkpt lat="46.0325" lon="4.68409">
        <ele>215</ele>
        <time>2017-04-24T11:11:17Z</time>
      </trkpt>
      <trkpt lat="46.03244" lon="4.68416">
        <ele>214</ele>
        <time>2017-04-24T11:11:18Z</time>
      </trkpt>
      <trkpt lat="46.03238" lon="4.68422">
        <ele>213</ele>
        <time>2017-04-24T11:11:19Z</time>
      </trkpt>
      <trkpt lat="46.03232" lon="4.68427">
        <ele>212</ele>
        <time>2017-04-24T11:11:20Z</time>
      </trkpt>
      <trkpt lat="46.03226" lon="4.68433">
        <ele>212</ele>
        <time>2017-04-24T11:11:21Z</time>
      </trkpt>
      <trkpt lat="46.0322" lon="4.68439">
        <ele>212</ele>
        <time>2017-04-24T11:11:22Z</time>
      </trkpt>
      <trkpt lat="46.03215" lon="4.68445">
        <ele>212</ele>
        <time>2017-04-24T11:11:23Z</time>
      </trkpt>
      <trkpt lat="46.0321" lon="4.6845">
        <ele>211</ele>
        <time>2017-04-24T11:11:24Z</time>
      </trkpt>
      <trkpt lat="46.03204" lon="4.68456">
        <ele>211</ele>
        <time>2017-04-24T11:11:25Z</time>
      </trkpt>
      <trkpt lat="46.03197" lon="4.68462">
        <ele>211</ele>
        <time>2017-04-24T11:11:26Z</time>
      </trkpt>
      <trkpt lat="46.03192" lon="4.68467">
        <ele>211</ele>
        <time>2017-04-24T11:11:27Z</time>
      </trkpt>
      <trkpt lat="46.03186" lon="4.68473">
        <ele>210</ele>
        <time>2017-04-24T11:11:28Z</time>
      </trkpt>
      <trkpt lat="46.0318" lon="4.68479">
        <ele>210</ele>
        <time>2017-04-24T11:11:29Z</time>
      </trkpt>
      <trkpt lat="46.03173" lon="4.68485">
        <ele>210</ele>
        <time>2017-04-24T11:11:30Z</time>
      </trkpt>
      <trkpt lat="46.03166" lon="4.68492">
        <ele>208</ele>
        <time>2017-04-24T11:11:31Z</time>
      </trkpt>
      <trkpt lat="46.0316" lon="4.68498">
        <ele>208</ele>
        <time>2017-04-24T11:11:32Z</time>
      </trkpt>
      <trkpt lat="46.03155" lon="4.68504">
        <ele>208</ele>
        <time>2017-04-24T11:11:33Z</time>
      </trkpt>
      <trkpt lat="46.03149" lon="4.68509">
        <ele>207</ele>
        <time>2017-04-24T11:11:34Z</time>
      </trkpt>
      <trkpt lat="46.03144" lon="4.68515">
        <ele>207</ele>
        <time>2017-04-24T11:11:35Z</time>
      </trkpt>
      <trkpt lat="46.03138" lon="4.68522">
        <ele>207</ele>
        <time>2017-04-24T11:11:36Z</time>
      </trkpt>
      <trkpt lat="46.03132" lon="4.68529">
        <ele>207</ele>
        <time>2017-04-24T11:11:37Z</time>
      </trkpt>
      <trkpt lat="46.03127" lon="4.68535">
        <ele>207</ele>
        <time>2017-04-24T11:11:38Z</time>
      </trkpt>
      <trkpt lat="46.03122" lon="4.68544">
        <ele>207</ele>
        <time>2017-04-24T11:11:39Z</time>
      </trkpt>
      <trkpt lat="46.03116" lon="4.68553">
        <ele>207</ele>
        <time>2017-04-24T11:11:40Z</time>
      </trkpt>
      <trkpt lat="46.03111" lon="4.68562">
        <ele>206</ele>
        <time>2017-04-24T11:11:41Z</time>
      </trkpt>
      <trkpt lat="46.03106" lon="4.68571">
        <ele>206</ele>
        <time>2017-04-24T11:11:42Z</time>
      </trkpt>
      <trkpt lat="46.03101" lon="4.6858">
        <ele>206</ele>
        <time>2017-04-24T11:11:43Z</time>
      </trkpt>
      <trkpt lat="46.03096" lon="4.68589">
        <ele>205</ele>
        <time>2017-04-24T11:11:44Z</time>
      </trkpt>
      <trkpt lat="46.03091" lon="4.68599">
        <ele>205</ele>
        <time>2017-04-24T11:11:45Z</time>
      </trkpt>
      <trkpt lat="46.03087" lon="4.68608">
        <ele>205</ele>
        <time>2017-04-24T11:11:46Z</time>
      </trkpt>
      <trkpt lat="46.03081" lon="4.68618">
        <ele>204</ele>
        <time>2017-04-24T11:11:47Z</time>
      </trkpt>
      <trkpt lat="46.03078" lon="4.68627">
        <ele>204</ele>
        <time>2017-04-24T11:11:48Z</time>
      </trkpt>
      <trkpt lat="46.03075" lon="4.68636">
        <ele>204</ele>
        <time>2017-04-24T11:11:49Z</time>
      </trkpt>
      <trkpt lat="46.03073" lon="4.68646">
        <ele>204</ele>
        <time>2017-04-24T11:11:50Z</time>
      </trkpt>
      <trkpt lat="46.0307" lon="4.68656">
        <ele>204</ele>
        <time>2017-04-24T11:11:51Z</time>
      </trkpt>
      <trkpt lat="46.03069" lon="4.68666">
        <ele>204</ele>
        <time>2017-04-24T11:11:52Z</time>
      </trkpt>
      <trkpt lat="46.03067" lon="4.68676">
        <ele>204</ele>
        <time>2017-04-24T11:11:53Z</time>
      </trkpt>
      <trkpt lat="46.03066" lon="4.68686">
        <ele>204</ele>
        <time>2017-04-24T11:11:54Z</time>
      </trkpt>
      <trkpt lat="46.03064" lon="4.68696">
        <ele>203</ele>
        <time>2017-04-24T11:11:55Z</time>
      </trkpt>
      <trkpt lat="46.03063" lon="4.68706">
        <ele>203</ele>
        <time>2017-04-24T11:11:56Z</time>
      </trkpt>
      <trkpt lat="46.03061" lon="4.68716">
        <ele>203</ele>
        <time>2017-04-24T11:11:57Z</time>
      </trkpt>
      <trkpt lat="46.03059" lon="4.68726">
        <ele>203</ele>
        <time>2017-04-24T11:11:58Z</time>
      </trkpt>
      <trkpt lat="46.03057" lon="4.68737">
        <ele>203</ele>
        <time>2017-04-24T11:11:59Z</time>
      </trkpt>
      <trkpt lat="46.03055" lon="4.68748">
        <ele>203</ele>
        <time>2017-04-24T11:12:00Z</time>
      </trkpt>
      <trkpt lat="46.03053" lon="4.68758">
        <ele>203</ele>
        <time>2017-04-24T11:12:01Z</time>
      </trkpt>
      <trkpt lat="46.03051" lon="4.68769">
        <ele>203</ele>
        <time>2017-04-24T11:12:02Z</time>
      </trkpt>
      <trkpt lat="46.03048" lon="4.68779">
        <ele>203</ele>
        <time>2017-04-24T11:12:03Z</time>
      </trkpt>
      <trkpt lat="46.03047" lon="4.6879">
        <ele>203</ele>
        <time>2017-04-24T11:12:04Z</time>
      </trkpt>
      <trkpt lat="46.03045" lon="4.68802">
        <ele>203</ele>
        <time>2017-04-24T11:12:05Z</time>
      </trkpt>
      <trkpt lat="46.03043" lon="4.68813">
        <ele>203</ele>
        <time>2017-04-24T11:12:06Z</time>
      </trkpt>
      <trkpt lat="46.03041" lon="4.68824">
        <ele>203</ele>
        <time>2017-04-24T11:12:07Z</time>
      </trkpt>
      <trkpt lat="46.0304" lon="4.68835">
        <ele>203</ele>
        <time>2017-04-24T11:12:08Z</time>
      </trkpt>
      <trkpt lat="46.03038" lon="4.68846">
        <ele>203</ele>
        <time>2017-04-24T11:12:09Z</time>
      </trkpt>
      <trkpt lat="46.03036" lon="4.68857">
        <ele>203</ele>
        <time>2017-04-24T11:12:10Z</time>
      </trkpt>
      <trkpt lat="46.03034" lon="4.68868">
        <ele>203</ele>
        <time>2017-04-24T11:12:11Z</time>
      </trkpt>
      <trkpt lat="46.03033" lon="4.68878">
        <ele>203</ele>
        <time>2017-04-24T11:12:12Z</time>
      </trkpt>
      <trkpt lat="46.03032" lon="4.68889">
        <ele>203</ele>
        <time>2017-04-24T11:12:13Z</time>
      </trkpt>
      <trkpt lat="46.03031" lon="4.68899">
        <ele>203</ele>
        <time>2017-04-24T11:12:14Z</time>
      </trkpt>
      <trkpt lat="46.03029" lon="4.68909">
        <ele>203</ele>
        <time>2017-04-24T11:12:15Z</time>
      </trkpt>
      <trkpt lat="46.03028" lon="4.6892">
        <ele>202</ele>
        <time>2017-04-24T11:12:16Z</time>
      </trkpt>
      <trkpt lat="46.03026" lon="4.6893">
        <ele>201</ele>
        <time>2017-04-24T11:12:17Z</time>
      </trkpt>
      <trkpt lat="46.03025" lon="4.6894">
        <ele>201</ele>
        <time>2017-04-24T11:12:18Z</time>
      </trkpt>
      <trkpt lat="46.03024" lon="4.6895">
        <ele>201</ele>
        <time>2017-04-24T11:12:19Z</time>
      </trkpt>
      <trkpt lat="46.03024" lon="4.6896">
        <ele>201</ele>
        <time>2017-04-24T11:12:20Z</time>
      </trkpt>
      <trkpt lat="46.03023" lon="4.6897">
        <ele>201</ele>
        <time>2017-04-24T11:12:21Z</time>
      </trkpt>
      <trkpt lat="46.03021" lon="4.6898">
        <ele>201</ele>
        <time>2017-04-24T11:12:22Z</time>
      </trkpt>
      <trkpt lat="46.03019" lon="4.68991">
        <ele>200</ele>
        <time>2017-04-24T11:12:23Z</time>
      </trkpt>
      <trkpt lat="46.03017" lon="4.69001">
        <ele>199</ele>
        <time>2017-04-24T11:12:24Z</time>
      </trkpt>
      <trkpt lat="46.03015" lon="4.69011">
        <ele>199</ele>
        <time>2017-04-24T11:12:25Z</time>
      </trkpt>
      <trkpt lat="46.03014" lon="4.69021">
        <ele>199</ele>
        <time>2017-04-24T11:12:26Z</time>
      </trkpt>
      <trkpt lat="46.03013" lon="4.69031">
        <ele>199</ele>
        <time>2017-04-24T11:12:27Z</time>
      </trkpt>
      <trkpt lat="46.03011" lon="4.69042">
        <ele>199</ele>
        <time>2017-04-24T11:12:28Z</time>
      </trkpt>
      <trkpt lat="46.03009" lon="4.69052">
        <ele>199</ele>
        <time>2017-04-24T11:12:29Z</time>
      </trkpt>
      <trkpt lat="46.03008" lon="4.69062">
        <ele>199</ele>
        <time>2017-04-24T11:12:30Z</time>
      </trkpt>
      <trkpt lat="46.03007" lon="4.69072">
        <ele>198</ele>
        <time>2017-04-24T11:12:31Z</time>
      </trkpt>
      <trkpt lat="46.03005" lon="4.69082">
        <ele>198</ele>
        <time>2017-04-24T11:12:32Z</time>
      </trkpt>
      <trkpt lat="46.03003" lon="4.69092">
        <ele>198</ele>
        <time>2017-04-24T11:12:33Z</time>
      </trkpt>
      <trkpt lat="46.03002" lon="4.69102">
        <ele>198</ele>
        <time>2017-04-24T11:12:34Z</time>
      </trkpt>
      <trkpt lat="46.03" lon="4.69112">
        <ele>198</ele>
        <time>2017-04-24T11:12:35Z</time>
      </trkpt>
      <trkpt lat="46.02998" lon="4.69122">
        <ele>196</ele>
        <time>2017-04-24T11:12:36Z</time>
      </trkpt>
      <trkpt lat="46.02997" lon="4.69132">
        <ele>196</ele>
        <time>2017-04-24T11:12:37Z</time>
      </trkpt>
      <trkpt lat="46.02995" lon="4.69142">
        <ele>196</ele>
        <time>2017-04-24T11:12:38Z</time>
      </trkpt>
      <trkpt lat="46.02993" lon="4.69151">
        <ele>196</ele>
        <time>2017-04-24T11:12:39Z</time>
      </trkpt>
      <trkpt lat="46.02992" lon="4.69161">
        <ele>195</ele>
        <time>2017-04-24T11:12:40Z</time>
      </trkpt>
      <trkpt lat="46.0299" lon="4.6917">
        <ele>195</ele>
        <time>2017-04-24T11:12:41Z</time>
      </trkpt>
      <trkpt lat="46.02989" lon="4.69179">
        <ele>195</ele>
        <time>2017-04-24T11:12:42Z</time>
      </trkpt>
      <trkpt lat="46.02987" lon="4.69188">
        <ele>195</ele>
        <time>2017-04-24T11:12:43Z</time>
      </trkpt>
      <trkpt lat="46.02986" lon="4.69197">
        <ele>195</ele>
        <time>2017-04-24T11:12:44Z</time>
      </trkpt>
      <trkpt lat="46.02984" lon="4.69206">
        <ele>195</ele>
        <time>2017-04-24T11:12:45Z</time>
      </trkpt>
      <trkpt lat="46.02983" lon="4.69214">
        <ele>195</ele>
        <time>2017-04-24T11:12:46Z</time>
      </trkpt>
      <trkpt lat="46.02981" lon="4.69222">
        <ele>195</ele>
        <time>2017-04-24T11:12:47Z</time>
      </trkpt>
      <trkpt lat="46.0298" lon="4.6923">
        <ele>195</ele>
        <time>2017-04-24T11:12:48Z</time>
      </trkpt>
      <trkpt lat="46.02978" lon="4.6924">
        <ele>195</ele>
        <time>2017-04-24T11:12:49Z</time>
      </trkpt>
      <trkpt lat="46.02976" lon="4.69248">
        <ele>195</ele>
        <time>2017-04-24T11:12:50Z</time>
      </trkpt>
      <trkpt lat="46.02975" lon="4.69257">
        <ele>194</ele>
        <time>2017-04-24T11:12:51Z</time>
      </trkpt>
      <trkpt lat="46.02973" lon="4.69266">
        <ele>194</ele>
        <time>2017-04-24T11:12:52Z</time>
      </trkpt>
      <trkpt lat="46.02972" lon="4.69275">
        <ele>194</ele>
        <time>2017-04-24T11:12:53Z</time>
      </trkpt>
      <trkpt lat="46.02971" lon="4.69284">
        <ele>194</ele>
        <time>2017-04-24T11:12:54Z</time>
      </trkpt>
      <trkpt lat="46.02969" lon="4.69293">
        <ele>194</ele>
        <time>2017-04-24T11:12:55Z</time>
      </trkpt>
      <trkpt lat="46.02967" lon="4.69303">
        <ele>194</ele>
        <time>2017-04-24T11:12:56Z</time>
      </trkpt>
      <trkpt lat="46.02966" lon="4.69312">
        <ele>194</ele>
        <time>2017-04-24T11:12:57Z</time>
      </trkpt>
      <trkpt lat="46.02964" lon="4.69322">
        <ele>194</ele>
        <time>2017-04-24T11:12:58Z</time>
      </trkpt>
      <trkpt lat="46.02961" lon="4.69332">
        <ele>194</ele>
        <time>2017-04-24T11:12:59Z</time>
      </trkpt>
      <trkpt lat="46.02959" lon="4.69341">
        <ele>194</ele>
        <time>2017-04-24T11:13:00Z</time>
      </trkpt>
      <trkpt lat="46.02957" lon="4.6935">
        <ele>194</ele>
        <time>2017-04-24T11:13:01Z</time>
      </trkpt>
      <trkpt lat="46.02955" lon="4.6936">
        <ele>194</ele>
        <time>2017-04-24T11:13:02Z</time>
      </trkpt>
      <trkpt lat="46.02952" lon="4.6937">
        <ele>194</ele>
        <time>2017-04-24T11:13:03Z</time>
      </trkpt>
      <trkpt lat="46.0295" lon="4.6938">
        <ele>194</ele>
        <time>2017-04-24T11:13:04Z</time>
      </trkpt>
      <trkpt lat="46.02948" lon="4.69388">
        <ele>194</ele>
        <time>2017-04-24T11:13:05Z</time>
      </trkpt>
      <trkpt lat="46.02945" lon="4.69397">
        <ele>194</ele>
        <time>2017-04-24T11:13:06Z</time>
      </trkpt>
      <trkpt lat="46.02942" lon="4.69405">
        <ele>194</ele>
        <time>2017-04-24T11:13:07Z</time>
      </trkpt>
      <trkpt lat="46.02939" lon="4.69413">
        <ele>194</ele>
        <time>2017-04-24T11:13:08Z</time>
      </trkpt>
      <trkpt lat="46.02936" lon="4.6942">
        <ele>194</ele>
        <time>2017-04-24T11:13:09Z</time>
      </trkpt>
      <trkpt lat="46.02933" lon="4.69427">
        <ele>194</ele>
        <time>2017-04-24T11:13:10Z</time>
      </trkpt>
      <trkpt lat="46.0293" lon="4.69434">
        <ele>194</ele>
        <time>2017-04-24T11:13:11Z</time>
      </trkpt>
      <trkpt lat="46.02926" lon="4.69442">
        <ele>194</ele>
        <time>2017-04-24T11:13:12Z</time>
      </trkpt>
      <trkpt lat="46.02923" lon="4.6945">
        <ele>194</ele>
        <time>2017-04-24T11:13:13Z</time>
      </trkpt>
      <trkpt lat="46.02919" lon="4.69458">
        <ele>193</ele>
        <time>2017-04-24T11:13:14Z</time>
      </trkpt>
      <trkpt lat="46.02916" lon="4.69466">
        <ele>192</ele>
        <time>2017-04-24T11:13:15Z</time>
      </trkpt>
      <trkpt lat="46.02912" lon="4.69475">
        <ele>192</ele>
        <time>2017-04-24T11:13:16Z</time>
      </trkpt>
      <trkpt lat="46.02908" lon="4.69484">
        <ele>192</ele>
        <time>2017-04-24T11:13:17Z</time>
      </trkpt>
      <trkpt lat="46.02904" lon="4.69493">
        <ele>192</ele>
        <time>2017-04-24T11:13:18Z</time>
      </trkpt>
      <trkpt lat="46.029" lon="4.69502">
        <ele>192</ele>
        <time>2017-04-24T11:13:19Z</time>
      </trkpt>
      <trkpt lat="46.02897" lon="4.6951">
        <ele>192</ele>
        <time>2017-04-24T11:13:20Z</time>
      </trkpt>
      <trkpt lat="46.02893" lon="4.69519">
        <ele>192</ele>
        <time>2017-04-24T11:13:21Z</time>
      </trkpt>
      <trkpt lat="46.0289" lon="4.69527">
        <ele>192</ele>
        <time>2017-04-24T11:13:22Z</time>
      </trkpt>
      <trkpt lat="46.02887" lon="4.69535">
        <ele>192</ele>
        <time>2017-04-24T11:13:23Z</time>
      </trkpt>
      <trkpt lat="46.02883" lon="4.69543">
        <ele>192</ele>
        <time>2017-04-24T11:13:24Z</time>
      </trkpt>
      <trkpt lat="46.0288" lon="4.69551">
        <ele>192</ele>
        <time>2017-04-24T11:13:25Z</time>
      </trkpt>
      <trkpt lat="46.02877" lon="4.69559">
        <ele>192</ele>
        <time>2017-04-24T11:13:26Z</time>
      </trkpt>
      <trkpt lat="46.02874" lon="4.69568">
        <ele>192</ele>
        <time>2017-04-24T11:13:27Z</time>
      </trkpt>
      <trkpt lat="46.02871" lon="4.69576">
        <ele>192</ele>
        <time>2017-04-24T11:13:28Z</time>
      </trkpt>
      <trkpt lat="46.02867" lon="4.69584">
        <ele>192</ele>
        <time>2017-04-24T11:13:29Z</time>
      </trkpt>
      <trkpt lat="46.02864" lon="4.69593">
        <ele>192</ele>
        <time>2017-04-24T11:13:30Z</time>
      </trkpt>
      <trkpt lat="46.0286" lon="4.69601">
        <ele>192</ele>
        <time>2017-04-24T11:13:31Z</time>
      </trkpt>
      <trkpt lat="46.02857" lon="4.69609">
        <ele>192</ele>
        <time>2017-04-24T11:13:32Z</time>
      </trkpt>
      <trkpt lat="46.02854" lon="4.69617">
        <ele>192</ele>
        <time>2017-04-24T11:13:33Z</time>
      </trkpt>
      <trkpt lat="46.0285" lon="4.69625">
        <ele>192</ele>
        <time>2017-04-24T11:13:34Z</time>
      </trkpt>
      <trkpt lat="46.02847" lon="4.69632">
        <ele>192</ele>
        <time>2017-04-24T11:13:35Z</time>
      </trkpt>
      <trkpt lat="46.02844" lon="4.6964">
        <ele>192</ele>
        <time>2017-04-24T11:13:36Z</time>
      </trkpt>
      <trkpt lat="46.0284" lon="4.69648">
        <ele>191</ele>
        <time>2017-04-24T11:13:37Z</time>
      </trkpt>
      <trkpt lat="46.02837" lon="4.69657">
        <ele>191</ele>
        <time>2017-04-24T11:13:38Z</time>
      </trkpt>
      <trkpt lat="46.02833" lon="4.69665">
        <ele>191</ele>
        <time>2017-04-24T11:13:39Z</time>
      </trkpt>
      <trkpt lat="46.0283" lon="4.69674">
        <ele>191</ele>
        <time>2017-04-24T11:13:40Z</time>
      </trkpt>
      <trkpt lat="46.02826" lon="4.69683">
        <ele>190</ele>
        <time>2017-04-24T11:13:41Z</time>
      </trkpt>
      <trkpt lat="46.02822" lon="4.69692">
        <ele>190</ele>
        <time>2017-04-24T11:13:42Z</time>
      </trkpt>
      <trkpt lat="46.02819" lon="4.69701">
        <ele>190</ele>
        <time>2017-04-24T11:13:43Z</time>
      </trkpt>
      <trkpt lat="46.02815" lon="4.6971">
        <ele>190</ele>
        <time>2017-04-24T11:13:44Z</time>
      </trkpt>
      <trkpt lat="46.02811" lon="4.69718">
        <ele>190</ele>
        <time>2017-04-24T11:13:45Z</time>
      </trkpt>
      <trkpt lat="46.02807" lon="4.69727">
        <ele>189</ele>
        <time>2017-04-24T11:13:46Z</time>
      </trkpt>
      <trkpt lat="46.02804" lon="4.69735">
        <ele>189</ele>
        <time>2017-04-24T11:13:47Z</time>
      </trkpt>
      <trkpt lat="46.028" lon="4.69743">
        <ele>189</ele>
        <time>2017-04-24T11:13:48Z</time>
      </trkpt>
      <trkpt lat="46.02797" lon="4.69751">
        <ele>189</ele>
        <time>2017-04-24T11:13:49Z</time>
      </trkpt>
      <trkpt lat="46.02794" lon="4.69759">
        <ele>189</ele>
        <time>2017-04-24T11:13:50Z</time>
      </trkpt>
      <trkpt lat="46.0279" lon="4.69768">
        <ele>190</ele>
        <time>2017-04-24T11:13:51Z</time>
      </trkpt>
      <trkpt lat="46.02787" lon="4.69776">
        <ele>190</ele>
        <time>2017-04-24T11:13:52Z</time>
      </trkpt>
      <trkpt lat="46.02783" lon="4.69783">
        <ele>190</ele>
        <time>2017-04-24T11:13:53Z</time>
      </trkpt>
      <trkpt lat="46.0278" lon="4.69791">
        <ele>190</ele>
        <time>2017-04-24T11:13:54Z</time>
      </trkpt>
      <trkpt lat="46.02777" lon="4.69798">
        <ele>190</ele>
        <time>2017-04-24T11:13:55Z</time>
      </trkpt>
      <trkpt lat="46.02774" lon="4.69805">
        <ele>190</ele>
        <time>2017-04-24T11:13:56Z</time>
      </trkpt>
      <trkpt lat="46.02771" lon="4.69812">
        <ele>190</ele>
        <time>2017-04-24T11:13:57Z</time>
      </trkpt>
      <trkpt lat="46.02768" lon="4.69819">
        <ele>190</ele>
        <time>2017-04-24T11:13:58Z</time>
      </trkpt>
      <trkpt lat="46.02765" lon="4.69826">
        <ele>190</ele>
        <time>2017-04-24T11:13:59Z</time>
      </trkpt>
      <trkpt lat="46.02762" lon="4.69834">
        <ele>191</ele>
        <time>2017-04-24T11:14:00Z</time>
      </trkpt>
      <trkpt lat="46.02759" lon="4.6984">
        <ele>191</ele>
        <time>2017-04-24T11:14:01Z</time>
      </trkpt>
      <trkpt lat="46.02755" lon="4.69847">
        <ele>191</ele>
        <time>2017-04-24T11:14:02Z</time>
      </trkpt>
      <trkpt lat="46.02752" lon="4.69854">
        <ele>191</ele>
        <time>2017-04-24T11:14:03Z</time>
      </trkpt>
      <trkpt lat="46.02749" lon="4.69861">
        <ele>190</ele>
        <time>2017-04-24T11:14:04Z</time>
      </trkpt>
      <trkpt lat="46.02746" lon="4.69867">
        <ele>190</ele>
        <time>2017-04-24T11:14:05Z</time>
      </trkpt>
      <trkpt lat="46.02743" lon="4.69874">
        <ele>190</ele>
        <time>2017-04-24T11:14:06Z</time>
      </trkpt>
      <trkpt lat="46.02741" lon="4.69881">
        <ele>190</ele>
        <time>2017-04-24T11:14:07Z</time>
      </trkpt>
      <trkpt lat="46.02738" lon="4.69888">
        <ele>190</ele>
        <time>2017-04-24T11:14:08Z</time>
      </trkpt>
      <trkpt lat="46.02735" lon="4.69895">
        <ele>190</ele>
        <time>2017-04-24T11:14:09Z</time>
      </trkpt>
      <trkpt lat="46.02732" lon="4.69902">
        <ele>190</ele>
        <time>2017-04-24T11:14:10Z</time>
      </trkpt>
      <trkpt lat="46.02729" lon="4.69909">
        <ele>190</ele>
        <time>2017-04-24T11:14:11Z</time>
      </trkpt>
      <trkpt lat="46.02726" lon="4.69916">
        <ele>190</ele>
        <time>2017-04-24T11:14:12Z</time>
      </trkpt>
      <trkpt lat="46.02722" lon="4.69923">
        <ele>190</ele>
        <time>2017-04-24T11:14:13Z</time>
      </trkpt>
      <trkpt lat="46.02719" lon="4.6993">
        <ele>190</ele>
        <time>2017-04-24T11:14:14Z</time>
      </trkpt>
      <trkpt lat="46.02716" lon="4.69938">
        <ele>189</ele>
        <time>2017-04-24T11:14:15Z</time>
      </trkpt>
      <trkpt lat="46.02712" lon="4.69946">
        <ele>189</ele>
        <time>2017-04-24T11:14:16Z</time>
      </trkpt>
      <trkpt lat="46.02709" lon="4.69953">
        <ele>189</ele>
        <time>2017-04-24T11:14:17Z</time>
      </trkpt>
      <trkpt lat="46.02706" lon="4.69961">
        <ele>189</ele>
        <time>2017-04-24T11:14:18Z</time>
      </trkpt>
      <trkpt lat="46.02703" lon="4.69968">
        <ele>189</ele>
        <time>2017-04-24T11:14:19Z</time>
      </trkpt>
      <trkpt lat="46.027" lon="4.69975">
        <ele>189</ele>
        <time>2017-04-24T11:14:20Z</time>
      </trkpt>
      <trkpt lat="46.02697" lon="4.69982">
        <ele>189</ele>
        <time>2017-04-24T11:14:21Z</time>
      </trkpt>
      <trkpt lat="46.02694" lon="4.69989">
        <ele>189</ele>
        <time>2017-04-24T11:14:22Z</time>
      </trkpt>
      <trkpt lat="46.02691" lon="4.69995">
        <ele>189</ele>
        <time>2017-04-24T11:14:23Z</time>
      </trkpt>
      <trkpt lat="46.02688" lon="4.70002">
        <ele>189</ele>
        <time>2017-04-24T11:14:24Z</time>
      </trkpt>
      <trkpt lat="46.02685" lon="4.70008">
        <ele>189</ele>
        <time>2017-04-24T11:14:25Z</time>
      </trkpt>
      <trkpt lat="46.02682" lon="4.70014">
        <ele>189</ele>
        <time>2017-04-24T11:14:26Z</time>
      </trkpt>
      <trkpt lat="46.02679" lon="4.70021">
        <ele>189</ele>
        <time>2017-04-24T11:14:27Z</time>
      </trkpt>
      <trkpt lat="46.02676" lon="4.70029">
        <ele>189</ele>
        <time>2017-04-24T11:14:28Z</time>
      </trkpt>
      <trkpt lat="46.02672" lon="4.70037">
        <ele>189</ele>
        <time>2017-04-24T11:14:29Z</time>
      </trkpt>
      <trkpt lat="46.02668" lon="4.70044">
        <ele>189</ele>
        <time>2017-04-24T11:14:30Z</time>
      </trkpt>
      <trkpt lat="46.02665" lon="4.70053">
        <ele>187</ele>
        <time>2017-04-24T11:14:31Z</time>
      </trkpt>
      <trkpt lat="46.02661" lon="4.7006">
        <ele>187</ele>
        <time>2017-04-24T11:14:32Z</time>
      </trkpt>
      <trkpt lat="46.02658" lon="4.70069">
        <ele>188</ele>
        <time>2017-04-24T11:14:33Z</time>
      </trkpt>
      <trkpt lat="46.02654" lon="4.70077">
        <ele>188</ele>
        <time>2017-04-24T11:14:34Z</time>
      </trkpt>
      <trkpt lat="46.0265" lon="4.70085">
        <ele>188</ele>
        <time>2017-04-24T11:14:35Z</time>
      </trkpt>
      <trkpt lat="46.02647" lon="4.70094">
        <ele>188</ele>
        <time>2017-04-24T11:14:36Z</time>
      </trkpt>
      <trkpt lat="46.02643" lon="4.70102">
        <ele>188</ele>
        <time>2017-04-24T11:14:37Z</time>
      </trkpt>
      <trkpt lat="46.0264" lon="4.7011">
        <ele>188</ele>
        <time>2017-04-24T11:14:38Z</time>
      </trkpt>
      <trkpt lat="46.02636" lon="4.70118">
        <ele>188</ele>
        <time>2017-04-24T11:14:39Z</time>
      </trkpt>
      <trkpt lat="46.02633" lon="4.70126">
        <ele>188</ele>
        <time>2017-04-24T11:14:40Z</time>
      </trkpt>
      <trkpt lat="46.02629" lon="4.70134">
        <ele>188</ele>
        <time>2017-04-24T11:14:41Z</time>
      </trkpt>
      <trkpt lat="46.02626" lon="4.70141">
        <ele>188</ele>
        <time>2017-04-24T11:14:42Z</time>
      </trkpt>
      <trkpt lat="46.0262" lon="4.70157">
        <ele>187</ele>
        <time>2017-04-24T11:14:44Z</time>
      </trkpt>
      <trkpt lat="46.02617" lon="4.70164">
        <ele>187</ele>
        <time>2017-04-24T11:14:45Z</time>
      </trkpt>
      <trkpt lat="46.02614" lon="4.70172">
        <ele>188</ele>
        <time>2017-04-24T11:14:46Z</time>
      </trkpt>
      <trkpt lat="46.02611" lon="4.70179">
        <ele>188</ele>
        <time>2017-04-24T11:14:47Z</time>
      </trkpt>
      <trkpt lat="46.02608" lon="4.70186">
        <ele>188</ele>
        <time>2017-04-24T11:14:48Z</time>
      </trkpt>
      <trkpt lat="46.02604" lon="4.70194">
        <ele>188</ele>
        <time>2017-04-24T11:14:49Z</time>
      </trkpt>
      <trkpt lat="46.02601" lon="4.70201">
        <ele>188</ele>
        <time>2017-04-24T11:14:50Z</time>
      </trkpt>
      <trkpt lat="46.02599" lon="4.70208">
        <ele>188</ele>
        <time>2017-04-24T11:14:51Z</time>
      </trkpt>
      <trkpt lat="46.02595" lon="4.70216">
        <ele>188</ele>
        <time>2017-04-24T11:14:52Z</time>
      </trkpt>
      <trkpt lat="46.02592" lon="4.70223">
        <ele>188</ele>
        <time>2017-04-24T11:14:53Z</time>
      </trkpt>
      <trkpt lat="46.02589" lon="4.7023">
        <ele>188</ele>
        <time>2017-04-24T11:14:54Z</time>
      </trkpt>
      <trkpt lat="46.02586" lon="4.70237">
        <ele>188</ele>
        <time>2017-04-24T11:14:55Z</time>
      </trkpt>
      <trkpt lat="46.02583" lon="4.70243">
        <ele>188</ele>
        <time>2017-04-24T11:14:56Z</time>
      </trkpt>
      <trkpt lat="46.02579" lon="4.7025">
        <ele>188</ele>
        <time>2017-04-24T11:14:57Z</time>
      </trkpt>
      <trkpt lat="46.02576" lon="4.70258">
        <ele>188</ele>
        <time>2017-04-24T11:14:58Z</time>
      </trkpt>
      <trkpt lat="46.02573" lon="4.70265">
        <ele>187</ele>
        <time>2017-04-24T11:14:59Z</time>
      </trkpt>
      <trkpt lat="46.0257" lon="4.70273">
        <ele>187</ele>
        <time>2017-04-24T11:15:00Z</time>
      </trkpt>
      <trkpt lat="46.02567" lon="4.70281">
        <ele>187</ele>
        <time>2017-04-24T11:15:01Z</time>
      </trkpt>
      <trkpt lat="46.02565" lon="4.70289">
        <ele>187</ele>
        <time>2017-04-24T11:15:02Z</time>
      </trkpt>
      <trkpt lat="46.02562" lon="4.70298">
        <ele>187</ele>
        <time>2017-04-24T11:15:03Z</time>
      </trkpt>
      <trkpt lat="46.0256" lon="4.70307">
        <ele>187</ele>
        <time>2017-04-24T11:15:04Z</time>
      </trkpt>
      <trkpt lat="46.02556" lon="4.70315">
        <ele>187</ele>
        <time>2017-04-24T11:15:05Z</time>
      </trkpt>
      <trkpt lat="46.02553" lon="4.70324">
        <ele>187</ele>
        <time>2017-04-24T11:15:06Z</time>
      </trkpt>
      <trkpt lat="46.0255" lon="4.70333">
        <ele>187</ele>
        <time>2017-04-24T11:15:07Z</time>
      </trkpt>
      <trkpt lat="46.02547" lon="4.70342">
        <ele>187</ele>
        <time>2017-04-24T11:15:08Z</time>
      </trkpt>
      <trkpt lat="46.02545" lon="4.70351">
        <ele>187</ele>
        <time>2017-04-24T11:15:09Z</time>
      </trkpt>
      <trkpt lat="46.02543" lon="4.70359">
        <ele>187</ele>
        <time>2017-04-24T11:15:10Z</time>
      </trkpt>
      <trkpt lat="46.0254" lon="4.70367">
        <ele>186</ele>
        <time>2017-04-24T11:15:11Z</time>
      </trkpt>
      <trkpt lat="46.02538" lon="4.70375">
        <ele>186</ele>
        <time>2017-04-24T11:15:12Z</time>
      </trkpt>
      <trkpt lat="46.02536" lon="4.70383">
        <ele>186</ele>
        <time>2017-04-24T11:15:13Z</time>
      </trkpt>
      <trkpt lat="46.02534" lon="4.7039">
        <ele>186</ele>
        <time>2017-04-24T11:15:14Z</time>
      </trkpt>
      <trkpt lat="46.02533" lon="4.70397">
        <ele>186</ele>
        <time>2017-04-24T11:15:15Z</time>
      </trkpt>
      <trkpt lat="46.02531" lon="4.70405">
        <ele>186</ele>
        <time>2017-04-24T11:15:16Z</time>
      </trkpt>
      <trkpt lat="46.02529" lon="4.70413">
        <ele>186</ele>
        <time>2017-04-24T11:15:17Z</time>
      </trkpt>
      <trkpt lat="46.02527" lon="4.70421">
        <ele>187</ele>
        <time>2017-04-24T11:15:18Z</time>
      </trkpt>
      <trkpt lat="46.02526" lon="4.70429">
        <ele>187</ele>
        <time>2017-04-24T11:15:19Z</time>
      </trkpt>
      <trkpt lat="46.02524" lon="4.70437">
        <ele>187</ele>
        <time>2017-04-24T11:15:20Z</time>
      </trkpt>
      <trkpt lat="46.02521" lon="4.70445">
        <ele>187</ele>
        <time>2017-04-24T11:15:21Z</time>
      </trkpt>
      <trkpt lat="46.02519" lon="4.70454">
        <ele>187</ele>
        <time>2017-04-24T11:15:22Z</time>
      </trkpt>
      <trkpt lat="46.02517" lon="4.70462">
        <ele>187</ele>
        <time>2017-04-24T11:15:23Z</time>
      </trkpt>
      <trkpt lat="46.02515" lon="4.7047">
        <ele>187</ele>
        <time>2017-04-24T11:15:24Z</time>
      </trkpt>
      <trkpt lat="46.02513" lon="4.70478">
        <ele>187</ele>
        <time>2017-04-24T11:15:25Z</time>
      </trkpt>
      <trkpt lat="46.02511" lon="4.70485">
        <ele>187</ele>
        <time>2017-04-24T11:15:26Z</time>
      </trkpt>
      <trkpt lat="46.02508" lon="4.70492">
        <ele>187</ele>
        <time>2017-04-24T11:15:27Z</time>
      </trkpt>
      <trkpt lat="46.02507" lon="4.705">
        <ele>187</ele>
        <time>2017-04-24T11:15:28Z</time>
      </trkpt>
      <trkpt lat="46.02505" lon="4.70506">
        <ele>187</ele>
        <time>2017-04-24T11:15:29Z</time>
      </trkpt>
      <trkpt lat="46.02503" lon="4.70513">
        <ele>187</ele>
        <time>2017-04-24T11:15:30Z</time>
      </trkpt>
      <trkpt lat="46.02501" lon="4.70519">
        <ele>188</ele>
        <time>2017-04-24T11:15:31Z</time>
      </trkpt>
      <trkpt lat="46.025" lon="4.70525">
        <ele>186</ele>
        <time>2017-04-24T11:15:32Z</time>
      </trkpt>
      <trkpt lat="46.02498" lon="4.70532">
        <ele>186</ele>
        <time>2017-04-24T11:15:33Z</time>
      </trkpt>
      <trkpt lat="46.02496" lon="4.70538">
        <ele>186</ele>
        <time>2017-04-24T11:15:34Z</time>
      </trkpt>
      <trkpt lat="46.02494" lon="4.70544">
        <ele>186</ele>
        <time>2017-04-24T11:15:35Z</time>
      </trkpt>
      <trkpt lat="46.02493" lon="4.7055">
        <ele>186</ele>
        <time>2017-04-24T11:15:36Z</time>
      </trkpt>
      <trkpt lat="46.02491" lon="4.70557">
        <ele>187</ele>
        <time>2017-04-24T11:15:37Z</time>
      </trkpt>
      <trkpt lat="46.0249" lon="4.70564">
        <ele>187</ele>
        <time>2017-04-24T11:15:38Z</time>
      </trkpt>
      <trkpt lat="46.02488" lon="4.70571">
        <ele>187</ele>
        <time>2017-04-24T11:15:39Z</time>
      </trkpt>
      <trkpt lat="46.02486" lon="4.70578">
        <ele>187</ele>
        <time>2017-04-24T11:15:40Z</time>
      </trkpt>
      <trkpt lat="46.02483" lon="4.7059">
        <ele>188</ele>
        <time>2017-04-24T11:15:42Z</time>
      </trkpt>
      <trkpt lat="46.02482" lon="4.70596">
        <ele>188</ele>
        <time>2017-04-24T11:15:43Z</time>
      </trkpt>
      <trkpt lat="46.02481" lon="4.70602">
        <ele>188</ele>
        <time>2017-04-24T11:15:44Z</time>
      </trkpt>
      <trkpt lat="46.02479" lon="4.70609">
        <ele>188</ele>
        <time>2017-04-24T11:15:45Z</time>
      </trkpt>
      <trkpt lat="46.02478" lon="4.70616">
        <ele>188</ele>
        <time>2017-04-24T11:15:46Z</time>
      </trkpt>
      <trkpt lat="46.02477" lon="4.70622">
        <ele>188</ele>
        <time>2017-04-24T11:15:47Z</time>
      </trkpt>
      <trkpt lat="46.02475" lon="4.70628">
        <ele>188</ele>
        <time>2017-04-24T11:15:48Z</time>
      </trkpt>
      <trkpt lat="46.02473" lon="4.70634">
        <ele>188</ele>
        <time>2017-04-24T11:15:49Z</time>
      </trkpt>
      <trkpt lat="46.02472" lon="4.70641">
        <ele>188</ele>
        <time>2017-04-24T11:15:50Z</time>
      </trkpt>
      <trkpt lat="46.0247" lon="4.70647">
        <ele>189</ele>
        <time>2017-04-24T11:15:51Z</time>
      </trkpt>
      <trkpt lat="46.02469" lon="4.70654">
        <ele>189</ele>
        <time>2017-04-24T11:15:52Z</time>
      </trkpt>
      <trkpt lat="46.02467" lon="4.70661">
        <ele>189</ele>
        <time>2017-04-24T11:15:53Z</time>
      </trkpt>
      <trkpt lat="46.02465" lon="4.70667">
        <ele>190</ele>
        <time>2017-04-24T11:15:54Z</time>
      </trkpt>
      <trkpt lat="46.02463" lon="4.70674">
        <ele>190</ele>
        <time>2017-04-24T11:15:55Z</time>
      </trkpt>
      <trkpt lat="46.02462" lon="4.7068">
        <ele>190</ele>
        <time>2017-04-24T11:15:56Z</time>
      </trkpt>
      <trkpt lat="46.0246" lon="4.70687">
        <ele>190</ele>
        <time>2017-04-24T11:15:57Z</time>
      </trkpt>
      <trkpt lat="46.02459" lon="4.70694">
        <ele>190</ele>
        <time>2017-04-24T11:15:58Z</time>
      </trkpt>
      <trkpt lat="46.0246" lon="4.70701">
        <ele>190</ele>
        <time>2017-04-24T11:15:59Z</time>
      </trkpt>
      <trkpt lat="46.02458" lon="4.70709">
        <ele>190</ele>
        <time>2017-04-24T11:16:00Z</time>
      </trkpt>
      <trkpt lat="46.02457" lon="4.70716">
        <ele>190</ele>
        <time>2017-04-24T11:16:01Z</time>
      </trkpt>
      <trkpt lat="46.02454" lon="4.70724">
        <ele>190</ele>
        <time>2017-04-24T11:16:02Z</time>
      </trkpt>
      <trkpt lat="46.02452" lon="4.70731">
        <ele>190</ele>
        <time>2017-04-24T11:16:03Z</time>
      </trkpt>
      <trkpt lat="46.02449" lon="4.70737">
        <ele>190</ele>
        <time>2017-04-24T11:16:04Z</time>
      </trkpt>
      <trkpt lat="46.02446" lon="4.70743">
        <ele>190</ele>
        <time>2017-04-24T11:16:05Z</time>
      </trkpt>
      <trkpt lat="46.02442" lon="4.70749">
        <ele>190</ele>
        <time>2017-04-24T11:16:06Z</time>
      </trkpt>
      <trkpt lat="46.02438" lon="4.70754">
        <ele>189</ele>
        <time>2017-04-24T11:16:07Z</time>
      </trkpt>
      <trkpt lat="46.02433" lon="4.70758">
        <ele>189</ele>
        <time>2017-04-24T11:16:08Z</time>
      </trkpt>
      <trkpt lat="46.02427" lon="4.70763">
        <ele>189</ele>
        <time>2017-04-24T11:16:09Z</time>
      </trkpt>
      <trkpt lat="46.02422" lon="4.70767">
        <ele>189</ele>
        <time>2017-04-24T11:16:10Z</time>
      </trkpt>
      <trkpt lat="46.02417" lon="4.70772">
        <ele>189</ele>
        <time>2017-04-24T11:16:11Z</time>
      </trkpt>
      <trkpt lat="46.02412" lon="4.70776">
        <ele>185</ele>
        <time>2017-04-24T11:16:12Z</time>
      </trkpt>
      <trkpt lat="46.02406" lon="4.70779">
        <ele>185</ele>
        <time>2017-04-24T11:16:13Z</time>
      </trkpt>
      <trkpt lat="46.024" lon="4.70781">
        <ele>185</ele>
        <time>2017-04-24T11:16:14Z</time>
      </trkpt>
      <trkpt lat="46.02393" lon="4.70782">
        <ele>185</ele>
        <time>2017-04-24T11:16:15Z</time>
      </trkpt>
      <trkpt lat="46.02385" lon="4.70781">
        <ele>184</ele>
        <time>2017-04-24T11:16:16Z</time>
      </trkpt>
      <trkpt lat="46.02378" lon="4.7078">
        <ele>184</ele>
        <time>2017-04-24T11:16:17Z</time>
      </trkpt>
      <trkpt lat="46.02371" lon="4.70779">
        <ele>184</ele>
        <time>2017-04-24T11:16:18Z</time>
      </trkpt>
      <trkpt lat="46.02363" lon="4.70778">
        <ele>183</ele>
        <time>2017-04-24T11:16:19Z</time>
      </trkpt>
      <trkpt lat="46.02356" lon="4.70777">
        <ele>183</ele>
        <time>2017-04-24T11:16:20Z</time>
      </trkpt>
      <trkpt lat="46.02349" lon="4.70775">
        <ele>183</ele>
        <time>2017-04-24T11:16:21Z</time>
      </trkpt>
      <trkpt lat="46.02342" lon="4.70774">
        <ele>182</ele>
        <time>2017-04-24T11:16:22Z</time>
      </trkpt>
      <trkpt lat="46.02335" lon="4.70773">
        <ele>182</ele>
        <time>2017-04-24T11:16:23Z</time>
      </trkpt>
      <trkpt lat="46.02327" lon="4.70771">
        <ele>180</ele>
        <time>2017-04-24T11:16:24Z</time>
      </trkpt>
      <trkpt lat="46.0232" lon="4.7077">
        <ele>180</ele>
        <time>2017-04-24T11:16:25Z</time>
      </trkpt>
      <trkpt lat="46.02313" lon="4.70768">
        <ele>180</ele>
        <time>2017-04-24T11:16:26Z</time>
      </trkpt>
      <trkpt lat="46.02306" lon="4.70767">
        <ele>180</ele>
        <time>2017-04-24T11:16:27Z</time>
      </trkpt>
      <trkpt lat="46.02299" lon="4.70766">
        <ele>180</ele>
        <time>2017-04-24T11:16:28Z</time>
      </trkpt>
      <trkpt lat="46.02292" lon="4.70766">
        <ele>180</ele>
        <time>2017-04-24T11:16:29Z</time>
      </trkpt>
      <trkpt lat="46.02285" lon="4.70764">
        <ele>181</ele>
        <time>2017-04-24T11:16:30Z</time>
      </trkpt>
      <trkpt lat="46.02278" lon="4.70762">
        <ele>181</ele>
        <time>2017-04-24T11:16:31Z</time>
      </trkpt>
      <trkpt lat="46.02271" lon="4.7076">
        <ele>181</ele>
        <time>2017-04-24T11:16:32Z</time>
      </trkpt>
      <trkpt lat="46.02264" lon="4.70759">
        <ele>181</ele>
        <time>2017-04-24T11:16:33Z</time>
      </trkpt>
      <trkpt lat="46.02257" lon="4.70757">
        <ele>181</ele>
        <time>2017-04-24T11:16:34Z</time>
      </trkpt>
      <trkpt lat="46.0225" lon="4.70756">
        <ele>181</ele>
        <time>2017-04-24T11:16:35Z</time>
      </trkpt>
      <trkpt lat="46.02243" lon="4.70754">
        <ele>181</ele>
        <time>2017-04-24T11:16:36Z</time>
      </trkpt>
      <trkpt lat="46.02236" lon="4.70753">
        <ele>180</ele>
        <time>2017-04-24T11:16:37Z</time>
      </trkpt>
      <trkpt lat="46.02229" lon="4.70752">
        <ele>180</ele>
        <time>2017-04-24T11:16:38Z</time>
      </trkpt>
      <trkpt lat="46.02222" lon="4.70751">
        <ele>180</ele>
        <time>2017-04-24T11:16:39Z</time>
      </trkpt>
      <trkpt lat="46.02215" lon="4.7075">
        <ele>180</ele>
        <time>2017-04-24T11:16:40Z</time>
      </trkpt>
      <trkpt lat="46.02208" lon="4.70749">
        <ele>180</ele>
        <time>2017-04-24T11:16:41Z</time>
      </trkpt>
      <trkpt lat="46.02202" lon="4.70748">
        <ele>180</ele>
        <time>2017-04-24T11:16:42Z</time>
      </trkpt>
      <trkpt lat="46.02196" lon="4.70747">
        <ele>180</ele>
        <time>2017-04-24T11:16:43Z</time>
      </trkpt>
      <trkpt lat="46.02191" lon="4.70746">
        <ele>180</ele>
        <time>2017-04-24T11:16:44Z</time>
      </trkpt>
      <trkpt lat="46.02185" lon="4.70744">
        <ele>180</ele>
        <time>2017-04-24T11:16:45Z</time>
      </trkpt>
      <trkpt lat="46.0218" lon="4.70742">
        <ele>180</ele>
        <time>2017-04-24T11:16:46Z</time>
      </trkpt>
      <trkpt lat="46.02174" lon="4.70741">
        <ele>180</ele>
        <time>2017-04-24T11:16:47Z</time>
      </trkpt>
      <trkpt lat="46.02169" lon="4.7074">
        <ele>180</ele>
        <time>2017-04-24T11:16:48Z</time>
      </trkpt>
      <trkpt lat="46.02164" lon="4.70739">
        <ele>179</ele>
        <time>2017-04-24T11:16:49Z</time>
      </trkpt>
      <trkpt lat="46.02159" lon="4.70737">
        <ele>179</ele>
        <time>2017-04-24T11:16:50Z</time>
      </trkpt>
      <trkpt lat="46.02154" lon="4.70737">
        <ele>179</ele>
        <time>2017-04-24T11:16:51Z</time>
      </trkpt>
      <trkpt lat="46.02149" lon="4.70736">
        <ele>179</ele>
        <time>2017-04-24T11:16:52Z</time>
      </trkpt>
      <trkpt lat="46.02143" lon="4.70735">
        <ele>179</ele>
        <time>2017-04-24T11:16:53Z</time>
      </trkpt>
      <trkpt lat="46.02138" lon="4.70734">
        <ele>179</ele>
        <time>2017-04-24T11:16:54Z</time>
      </trkpt>
      <trkpt lat="46.02133" lon="4.70733">
        <ele>179</ele>
        <time>2017-04-24T11:16:55Z</time>
      </trkpt>
      <trkpt lat="46.02128" lon="4.70733">
        <ele>179</ele>
        <time>2017-04-24T11:16:56Z</time>
      </trkpt>
      <trkpt lat="46.02122" lon="4.70732">
        <ele>179</ele>
        <time>2017-04-24T11:16:57Z</time>
      </trkpt>
      <trkpt lat="46.02116" lon="4.7073">
        <ele>179</ele>
        <time>2017-04-24T11:16:58Z</time>
      </trkpt>
      <trkpt lat="46.0211" lon="4.7073">
        <ele>179</ele>
        <time>2017-04-24T11:16:59Z</time>
      </trkpt>
      <trkpt lat="46.02105" lon="4.70729">
        <ele>178</ele>
        <time>2017-04-24T11:17:00Z</time>
      </trkpt>
      <trkpt lat="46.021" lon="4.70729">
        <ele>178</ele>
        <time>2017-04-24T11:17:01Z</time>
      </trkpt>
      <trkpt lat="46.02094" lon="4.70728">
        <ele>178</ele>
        <time>2017-04-24T11:17:02Z</time>
      </trkpt>
      <trkpt lat="46.02089" lon="4.70727">
        <ele>178</ele>
        <time>2017-04-24T11:17:03Z</time>
      </trkpt>
      <trkpt lat="46.02085" lon="4.70725">
        <ele>178</ele>
        <time>2017-04-24T11:17:04Z</time>
      </trkpt>
      <trkpt lat="46.0208" lon="4.70725">
        <ele>178</ele>
        <time>2017-04-24T11:17:05Z</time>
      </trkpt>
      <trkpt lat="46.02075" lon="4.70724">
        <ele>178</ele>
        <time>2017-04-24T11:17:06Z</time>
      </trkpt>
      <trkpt lat="46.0207" lon="4.70723">
        <ele>179</ele>
        <time>2017-04-24T11:17:07Z</time>
      </trkpt>
      <trkpt lat="46.02065" lon="4.70721">
        <ele>179</ele>
        <time>2017-04-24T11:17:08Z</time>
      </trkpt>
      <trkpt lat="46.0206" lon="4.7072">
        <ele>179</ele>
        <time>2017-04-24T11:17:09Z</time>
      </trkpt>
      <trkpt lat="46.02055" lon="4.70719">
        <ele>179</ele>
        <time>2017-04-24T11:17:10Z</time>
      </trkpt>
      <trkpt lat="46.02051" lon="4.70718">
        <ele>179</ele>
        <time>2017-04-24T11:17:11Z</time>
      </trkpt>
      <trkpt lat="46.02046" lon="4.70717">
        <ele>179</ele>
        <time>2017-04-24T11:17:12Z</time>
      </trkpt>
      <trkpt lat="46.02041" lon="4.70716">
        <ele>179</ele>
        <time>2017-04-24T11:17:13Z</time>
      </trkpt>
      <trkpt lat="46.02033" lon="4.70715">
        <ele>179</ele>
        <time>2017-04-24T11:17:15Z</time>
      </trkpt>
      <trkpt lat="46.02028" lon="4.70715">
        <ele>179</ele>
        <time>2017-04-24T11:17:16Z</time>
      </trkpt>
      <trkpt lat="46.02023" lon="4.70714">
        <ele>179</ele>
        <time>2017-04-24T11:17:17Z</time>
      </trkpt>
      <trkpt lat="46.02019" lon="4.70714">
        <ele>179</ele>
        <time>2017-04-24T11:17:18Z</time>
      </trkpt>
      <trkpt lat="46.02011" lon="4.70712">
        <ele>179</ele>
        <time>2017-04-24T11:17:20Z</time>
      </trkpt>
      <trkpt lat="46.02006" lon="4.70711">
        <ele>179</ele>
        <time>2017-04-24T11:17:21Z</time>
      </trkpt>
      <trkpt lat="46.01998" lon="4.7071">
        <ele>181</ele>
        <time>2017-04-24T11:17:23Z</time>
      </trkpt>
      <trkpt lat="46.01994" lon="4.70708">
        <ele>181</ele>
        <time>2017-04-24T11:17:24Z</time>
      </trkpt>
      <trkpt lat="46.01986" lon="4.70707">
        <ele>181</ele>
        <time>2017-04-24T11:17:26Z</time>
      </trkpt>
      <trkpt lat="46.01983" lon="4.70707">
        <ele>181</ele>
        <time>2017-04-24T11:17:27Z</time>
      </trkpt>
      <trkpt lat="46.01975" lon="4.70705">
        <ele>181</ele>
        <time>2017-04-24T11:17:29Z</time>
      </trkpt>
      <trkpt lat="46.01971" lon="4.70704">
        <ele>181</ele>
        <time>2017-04-24T11:17:30Z</time>
      </trkpt>
      <trkpt lat="46.01965" lon="4.70702">
        <ele>181</ele>
        <time>2017-04-24T11:17:32Z</time>
      </trkpt>
      <trkpt lat="46.01961" lon="4.70701">
        <ele>181</ele>
        <time>2017-04-24T11:17:33Z</time>
      </trkpt>
      <trkpt lat="46.01954" lon="4.70699">
        <ele>181</ele>
        <time>2017-04-24T11:17:35Z</time>
      </trkpt>
      <trkpt lat="46.0195" lon="4.70698">
        <ele>182</ele>
        <time>2017-04-24T11:17:36Z</time>
      </trkpt>
      <trkpt lat="46.01941" lon="4.70696">
        <ele>182</ele>
        <time>2017-04-24T11:17:38Z</time>
      </trkpt>
      <trkpt lat="46.01937" lon="4.70695">
        <ele>182</ele>
        <time>2017-04-24T11:17:39Z</time>
      </trkpt>
      <trkpt lat="46.01929" lon="4.70694">
        <ele>182</ele>
        <time>2017-04-24T11:17:41Z</time>
      </trkpt>
      <trkpt lat="46.01925" lon="4.70693">
        <ele>182</ele>
        <time>2017-04-24T11:17:42Z</time>
      </trkpt>
      <trkpt lat="46.01917" lon="4.70692">
        <ele>182</ele>
        <time>2017-04-24T11:17:44Z</time>
      </trkpt>
      <trkpt lat="46.01914" lon="4.70691">
        <ele>184</ele>
        <time>2017-04-24T11:17:45Z</time>
      </trkpt>
      <trkpt lat="46.01909" lon="4.70691">
        <ele>184</ele>
        <time>2017-04-24T11:17:46Z</time>
      </trkpt>
      <trkpt lat="46.01904" lon="4.7069">
        <ele>184</ele>
        <time>2017-04-24T11:17:47Z</time>
      </trkpt>
      <trkpt lat="46.019" lon="4.70689">
        <ele>184</ele>
        <time>2017-04-24T11:17:48Z</time>
      </trkpt>
      <trkpt lat="46.01895" lon="4.70689">
        <ele>184</ele>
        <time>2017-04-24T11:17:49Z</time>
      </trkpt>
      <trkpt lat="46.01887" lon="4.70689">
        <ele>184</ele>
        <time>2017-04-24T11:17:51Z</time>
      </trkpt>
      <trkpt lat="46.01883" lon="4.70689">
        <ele>185</ele>
        <time>2017-04-24T11:17:52Z</time>
      </trkpt>
      <trkpt lat="46.01875" lon="4.7069">
        <ele>185</ele>
        <time>2017-04-24T11:17:54Z</time>
      </trkpt>
      <trkpt lat="46.01871" lon="4.7069">
        <ele>185</ele>
        <time>2017-04-24T11:17:55Z</time>
      </trkpt>
      <trkpt lat="46.01863" lon="4.7069">
        <ele>185</ele>
        <time>2017-04-24T11:17:57Z</time>
      </trkpt>
      <trkpt lat="46.01859" lon="4.70691">
        <ele>185</ele>
        <time>2017-04-24T11:17:58Z</time>
      </trkpt>
      <trkpt lat="46.01854" lon="4.70691">
        <ele>185</ele>
        <time>2017-04-24T11:17:59Z</time>
      </trkpt>
      <trkpt lat="46.0185" lon="4.70691">
        <ele>185</ele>
        <time>2017-04-24T11:18:00Z</time>
      </trkpt>
      <trkpt lat="46.01841" lon="4.70692">
        <ele>185</ele>
        <time>2017-04-24T11:18:02Z</time>
      </trkpt>
      <trkpt lat="46.01837" lon="4.70692">
        <ele>185</ele>
        <time>2017-04-24T11:18:03Z</time>
      </trkpt>
      <trkpt lat="46.01828" lon="4.70694">
        <ele>187</ele>
        <time>2017-04-24T11:18:05Z</time>
      </trkpt>
      <trkpt lat="46.01824" lon="4.70694">
        <ele>187</ele>
        <time>2017-04-24T11:18:06Z</time>
      </trkpt>
      <trkpt lat="46.01815" lon="4.70695">
        <ele>187</ele>
        <time>2017-04-24T11:18:08Z</time>
      </trkpt>
      <trkpt lat="46.01811" lon="4.70696">
        <ele>187</ele>
        <time>2017-04-24T11:18:09Z</time>
      </trkpt>
      <trkpt lat="46.01804" lon="4.70696">
        <ele>187</ele>
        <time>2017-04-24T11:18:11Z</time>
      </trkpt>
      <trkpt lat="46.018" lon="4.70697">
        <ele>187</ele>
        <time>2017-04-24T11:18:12Z</time>
      </trkpt>
      <trkpt lat="46.01791" lon="4.70699">
        <ele>187</ele>
        <time>2017-04-24T11:18:14Z</time>
      </trkpt>
      <trkpt lat="46.01787" lon="4.70699">
        <ele>187</ele>
        <time>2017-04-24T11:18:15Z</time>
      </trkpt>
      <trkpt lat="46.01779" lon="4.70701">
        <ele>187</ele>
        <time>2017-04-24T11:18:17Z</time>
      </trkpt>
      <trkpt lat="46.01776" lon="4.70701">
        <ele>187</ele>
        <time>2017-04-24T11:18:18Z</time>
      </trkpt>
      <trkpt lat="46.01769" lon="4.70701">
        <ele>187</ele>
        <time>2017-04-24T11:18:20Z</time>
      </trkpt>
      <trkpt lat="46.01765" lon="4.70703">
        <ele>187</ele>
        <time>2017-04-24T11:18:21Z</time>
      </trkpt>
      <trkpt lat="46.01758" lon="4.70704">
        <ele>187</ele>
        <time>2017-04-24T11:18:23Z</time>
      </trkpt>
      <trkpt lat="46.01754" lon="4.70705">
        <ele>187</ele>
        <time>2017-04-24T11:18:24Z</time>
      </trkpt>
      <trkpt lat="46.01746" lon="4.70705">
        <ele>188</ele>
        <time>2017-04-24T11:18:26Z</time>
      </trkpt>
      <trkpt lat="46.01742" lon="4.70705">
        <ele>188</ele>
        <time>2017-04-24T11:18:27Z</time>
      </trkpt>
      <trkpt lat="46.01735" lon="4.70706">
        <ele>188</ele>
        <time>2017-04-24T11:18:29Z</time>
      </trkpt>
      <trkpt lat="46.01732" lon="4.70706">
        <ele>188</ele>
        <time>2017-04-24T11:18:30Z</time>
      </trkpt>
      <trkpt lat="46.01726" lon="4.70705">
        <ele>188</ele>
        <time>2017-04-24T11:18:32Z</time>
      </trkpt>
      <trkpt lat="46.01723" lon="4.70705">
        <ele>188</ele>
        <time>2017-04-24T11:18:33Z</time>
      </trkpt>
      <trkpt lat="46.01714" lon="4.70706">
        <ele>188</ele>
        <time>2017-04-24T11:18:35Z</time>
      </trkpt>
      <trkpt lat="46.0171" lon="4.70706">
        <ele>188</ele>
        <time>2017-04-24T11:18:36Z</time>
      </trkpt>
      <trkpt lat="46.01703" lon="4.70708">
        <ele>189</ele>
        <time>2017-04-24T11:18:38Z</time>
      </trkpt>
      <trkpt lat="46.01699" lon="4.70708">
        <ele>189</ele>
        <time>2017-04-24T11:18:39Z</time>
      </trkpt>
      <trkpt lat="46.01691" lon="4.70709">
        <ele>189</ele>
        <time>2017-04-24T11:18:41Z</time>
      </trkpt>
      <trkpt lat="46.01687" lon="4.7071">
        <ele>189</ele>
        <time>2017-04-24T11:18:42Z</time>
      </trkpt>
      <trkpt lat="46.01683" lon="4.70711">
        <ele>189</ele>
        <time>2017-04-24T11:18:43Z</time>
      </trkpt>
      <trkpt lat="46.01678" lon="4.70712">
        <ele>189</ele>
        <time>2017-04-24T11:18:44Z</time>
      </trkpt>
      <trkpt lat="46.01671" lon="4.70714">
        <ele>189</ele>
        <time>2017-04-24T11:18:46Z</time>
      </trkpt>
      <trkpt lat="46.01667" lon="4.70714">
        <ele>189</ele>
        <time>2017-04-24T11:18:47Z</time>
      </trkpt>
      <trkpt lat="46.0166" lon="4.70715">
        <ele>190</ele>
        <time>2017-04-24T11:18:49Z</time>
      </trkpt>
      <trkpt lat="46.01655" lon="4.70715">
        <ele>190</ele>
        <time>2017-04-24T11:18:50Z</time>
      </trkpt>
      <trkpt lat="46.01648" lon="4.70717">
        <ele>190</ele>
        <time>2017-04-24T11:18:52Z</time>
      </trkpt>
      <trkpt lat="46.01644" lon="4.70718">
        <ele>190</ele>
        <time>2017-04-24T11:18:53Z</time>
      </trkpt>
      <trkpt lat="46.01636" lon="4.70719">
        <ele>190</ele>
        <time>2017-04-24T11:18:55Z</time>
      </trkpt>
      <trkpt lat="46.01632" lon="4.70719">
        <ele>190</ele>
        <time>2017-04-24T11:18:56Z</time>
      </trkpt>
      <trkpt lat="46.01625" lon="4.7072">
        <ele>190</ele>
        <time>2017-04-24T11:18:58Z</time>
      </trkpt>
      <trkpt lat="46.01621" lon="4.7072">
        <ele>190</ele>
        <time>2017-04-24T11:18:59Z</time>
      </trkpt>
      <trkpt lat="46.01612" lon="4.7072">
        <ele>190</ele>
        <time>2017-04-24T11:19:01Z</time>
      </trkpt>
      <trkpt lat="46.01609" lon="4.70721">
        <ele>190</ele>
        <time>2017-04-24T11:19:02Z</time>
      </trkpt>
      <trkpt lat="46.016" lon="4.70721">
        <ele>190</ele>
        <time>2017-04-24T11:19:04Z</time>
      </trkpt>
      <trkpt lat="46.01596" lon="4.70722">
        <ele>190</ele>
        <time>2017-04-24T11:19:05Z</time>
      </trkpt>
      <trkpt lat="46.01587" lon="4.70723">
        <ele>190</ele>
        <time>2017-04-24T11:19:07Z</time>
      </trkpt>
      <trkpt lat="46.01583" lon="4.70724">
        <ele>190</ele>
        <time>2017-04-24T11:19:08Z</time>
      </trkpt>
      <trkpt lat="46.01574" lon="4.70726">
        <ele>190</ele>
        <time>2017-04-24T11:19:10Z</time>
      </trkpt>
      <trkpt lat="46.0157" lon="4.70727">
        <ele>190</ele>
        <time>2017-04-24T11:19:11Z</time>
      </trkpt>
      <trkpt lat="46.01562" lon="4.70727">
        <ele>190</ele>
        <time>2017-04-24T11:19:13Z</time>
      </trkpt>
      <trkpt lat="46.01558" lon="4.70727">
        <ele>190</ele>
        <time>2017-04-24T11:19:14Z</time>
      </trkpt>
      <trkpt lat="46.0155" lon="4.70728">
        <ele>190</ele>
        <time>2017-04-24T11:19:16Z</time>
      </trkpt>
      <trkpt lat="46.01546" lon="4.70728">
        <ele>190</ele>
        <time>2017-04-24T11:19:17Z</time>
      </trkpt>
      <trkpt lat="46.01537" lon="4.70728">
        <ele>190</ele>
        <time>2017-04-24T11:19:19Z</time>
      </trkpt>
      <trkpt lat="46.01532" lon="4.70728">
        <ele>190</ele>
        <time>2017-04-24T11:19:20Z</time>
      </trkpt>
      <trkpt lat="46.01528" lon="4.70727">
        <ele>190</ele>
        <time>2017-04-24T11:19:21Z</time>
      </trkpt>
      <trkpt lat="46.01523" lon="4.70727">
        <ele>190</ele>
        <time>2017-04-24T11:19:22Z</time>
      </trkpt>
      <trkpt lat="46.01515" lon="4.70728">
        <ele>190</ele>
        <time>2017-04-24T11:19:24Z</time>
      </trkpt>
      <trkpt lat="46.0151" lon="4.70728">
        <ele>190</ele>
        <time>2017-04-24T11:19:25Z</time>
      </trkpt>
      <trkpt lat="46.01502" lon="4.70729">
        <ele>190</ele>
        <time>2017-04-24T11:19:27Z</time>
      </trkpt>
      <trkpt lat="46.01498" lon="4.7073">
        <ele>190</ele>
        <time>2017-04-24T11:19:28Z</time>
      </trkpt>
      <trkpt lat="46.0149" lon="4.70731">
        <ele>190</ele>
        <time>2017-04-24T11:19:30Z</time>
      </trkpt>
      <trkpt lat="46.01486" lon="4.70732">
        <ele>190</ele>
        <time>2017-04-24T11:19:31Z</time>
      </trkpt>
      <trkpt lat="46.01481" lon="4.70732">
        <ele>190</ele>
        <time>2017-04-24T11:19:32Z</time>
      </trkpt>
      <trkpt lat="46.01477" lon="4.70733">
        <ele>190</ele>
        <time>2017-04-24T11:19:33Z</time>
      </trkpt>
      <trkpt lat="46.01468" lon="4.70734">
        <ele>190</ele>
        <time>2017-04-24T11:19:35Z</time>
      </trkpt>
      <trkpt lat="46.01464" lon="4.70734">
        <ele>190</ele>
        <time>2017-04-24T11:19:36Z</time>
      </trkpt>
      <trkpt lat="46.01456" lon="4.70734">
        <ele>189</ele>
        <time>2017-04-24T11:19:38Z</time>
      </trkpt>
      <trkpt lat="46.01452" lon="4.70735">
        <ele>189</ele>
        <time>2017-04-24T11:19:39Z</time>
      </trkpt>
      <trkpt lat="46.01443" lon="4.70735">
        <ele>189</ele>
        <time>2017-04-24T11:19:41Z</time>
      </trkpt>
      <trkpt lat="46.01439" lon="4.70736">
        <ele>189</ele>
        <time>2017-04-24T11:19:42Z</time>
      </trkpt>
      <trkpt lat="46.01435" lon="4.70736">
        <ele>189</ele>
        <time>2017-04-24T11:19:43Z</time>
      </trkpt>
      <trkpt lat="46.0143" lon="4.70737">
        <ele>189</ele>
        <time>2017-04-24T11:19:44Z</time>
      </trkpt>
      <trkpt lat="46.01425" lon="4.70737">
        <ele>189</ele>
        <time>2017-04-24T11:19:45Z</time>
      </trkpt>
      <trkpt lat="46.01421" lon="4.70738">
        <ele>189</ele>
        <time>2017-04-24T11:19:46Z</time>
      </trkpt>
      <trkpt lat="46.01416" lon="4.70739">
        <ele>189</ele>
        <time>2017-04-24T11:19:47Z</time>
      </trkpt>
      <trkpt lat="46.01411" lon="4.70739">
        <ele>189</ele>
        <time>2017-04-24T11:19:48Z</time>
      </trkpt>
      <trkpt lat="46.01403" lon="4.70739">
        <ele>189</ele>
        <time>2017-04-24T11:19:50Z</time>
      </trkpt>
      <trkpt lat="46.01398" lon="4.70739">
        <ele>189</ele>
        <time>2017-04-24T11:19:51Z</time>
      </trkpt>
      <trkpt lat="46.0139" lon="4.7074">
        <ele>189</ele>
        <time>2017-04-24T11:19:53Z</time>
      </trkpt>
      <trkpt lat="46.01386" lon="4.7074">
        <ele>189</ele>
        <time>2017-04-24T11:19:54Z</time>
      </trkpt>
      <trkpt lat="46.01378" lon="4.70742">
        <ele>189</ele>
        <time>2017-04-24T11:19:56Z</time>
      </trkpt>
      <trkpt lat="46.01373" lon="4.70742">
        <ele>189</ele>
        <time>2017-04-24T11:19:57Z</time>
      </trkpt>
      <trkpt lat="46.01365" lon="4.70742">
        <ele>189</ele>
        <time>2017-04-24T11:19:59Z</time>
      </trkpt>
      <trkpt lat="46.01361" lon="4.70741">
        <ele>189</ele>
        <time>2017-04-24T11:20:00Z</time>
      </trkpt>
      <trkpt lat="46.01353" lon="4.7074">
        <ele>189</ele>
        <time>2017-04-24T11:20:02Z</time>
      </trkpt>
      <trkpt lat="46.01348" lon="4.70741">
        <ele>189</ele>
        <time>2017-04-24T11:20:03Z</time>
      </trkpt>
      <trkpt lat="46.01339" lon="4.7074">
        <ele>189</ele>
        <time>2017-04-24T11:20:05Z</time>
      </trkpt>
      <trkpt lat="46.01335" lon="4.70739">
        <ele>189</ele>
        <time>2017-04-24T11:20:06Z</time>
      </trkpt>
      <trkpt lat="46.01326" lon="4.70738">
        <ele>190</ele>
        <time>2017-04-24T11:20:08Z</time>
      </trkpt>
      <trkpt lat="46.01322" lon="4.70738">
        <ele>190</ele>
        <time>2017-04-24T11:20:09Z</time>
      </trkpt>
      <trkpt lat="46.01316" lon="4.70737">
        <ele>190</ele>
        <time>2017-04-24T11:20:11Z</time>
      </trkpt>
      <trkpt lat="46.01312" lon="4.70737">
        <ele>190</ele>
        <time>2017-04-24T11:20:12Z</time>
      </trkpt>
      <trkpt lat="46.01305" lon="4.70735">
        <ele>191</ele>
        <time>2017-04-24T11:20:14Z</time>
      </trkpt>
      <trkpt lat="46.01301" lon="4.70735">
        <ele>191</ele>
        <time>2017-04-24T11:20:15Z</time>
      </trkpt>
      <trkpt lat="46.01293" lon="4.70734">
        <ele>191</ele>
        <time>2017-04-24T11:20:17Z</time>
      </trkpt>
      <trkpt lat="46.01288" lon="4.70733">
        <ele>191</ele>
        <time>2017-04-24T11:20:18Z</time>
      </trkpt>
      <trkpt lat="46.01279" lon="4.70732">
        <ele>192</ele>
        <time>2017-04-24T11:20:20Z</time>
      </trkpt>
      <trkpt lat="46.01275" lon="4.70731">
        <ele>192</ele>
        <time>2017-04-24T11:20:21Z</time>
      </trkpt>
      <trkpt lat="46.01267" lon="4.7073">
        <ele>192</ele>
        <time>2017-04-24T11:20:23Z</time>
      </trkpt>
      <trkpt lat="46.01262" lon="4.70729">
        <ele>192</ele>
        <time>2017-04-24T11:20:24Z</time>
      </trkpt>
      <trkpt lat="46.01253" lon="4.70728">
        <ele>192</ele>
        <time>2017-04-24T11:20:26Z</time>
      </trkpt>
      <trkpt lat="46.01249" lon="4.70727">
        <ele>193</ele>
        <time>2017-04-24T11:20:27Z</time>
      </trkpt>
      <trkpt lat="46.0124" lon="4.70724">
        <ele>193</ele>
        <time>2017-04-24T11:20:29Z</time>
      </trkpt>
      <trkpt lat="46.01236" lon="4.70723">
        <ele>194</ele>
        <time>2017-04-24T11:20:30Z</time>
      </trkpt>
      <trkpt lat="46.01228" lon="4.70721">
        <ele>194</ele>
        <time>2017-04-24T11:20:32Z</time>
      </trkpt>
      <trkpt lat="46.01224" lon="4.70719">
        <ele>194</ele>
        <time>2017-04-24T11:20:33Z</time>
      </trkpt>
      <trkpt lat="46.01217" lon="4.70716">
        <ele>194</ele>
        <time>2017-04-24T11:20:35Z</time>
      </trkpt>
      <trkpt lat="46.01213" lon="4.70714">
        <ele>194</ele>
        <time>2017-04-24T11:20:36Z</time>
      </trkpt>
      <trkpt lat="46.01206" lon="4.70711">
        <ele>194</ele>
        <time>2017-04-24T11:20:38Z</time>
      </trkpt>
      <trkpt lat="46.01202" lon="4.70709">
        <ele>194</ele>
        <time>2017-04-24T11:20:39Z</time>
      </trkpt>
      <trkpt lat="46.01197" lon="4.70707">
        <ele>194</ele>
        <time>2017-04-24T11:20:40Z</time>
      </trkpt>
      <trkpt lat="46.01192" lon="4.70705">
        <ele>194</ele>
        <time>2017-04-24T11:20:41Z</time>
      </trkpt>
      <trkpt lat="46.01188" lon="4.70702">
        <ele>194</ele>
        <time>2017-04-24T11:20:42Z</time>
      </trkpt>
      <trkpt lat="46.01184" lon="4.707">
        <ele>194</ele>
        <time>2017-04-24T11:20:43Z</time>
      </trkpt>
      <trkpt lat="46.01179" lon="4.70698">
        <ele>194</ele>
        <time>2017-04-24T11:20:44Z</time>
      </trkpt>
      <trkpt lat="46.01175" lon="4.70695">
        <ele>194</ele>
        <time>2017-04-24T11:20:45Z</time>
      </trkpt>
      <trkpt lat="46.01167" lon="4.70692">
        <ele>194</ele>
        <time>2017-04-24T11:20:47Z</time>
      </trkpt>
      <trkpt lat="46.01164" lon="4.7069">
        <ele>194</ele>
        <time>2017-04-24T11:20:48Z</time>
      </trkpt>
      <trkpt lat="46.01156" lon="4.70686">
        <ele>194</ele>
        <time>2017-04-24T11:20:50Z</time>
      </trkpt>
      <trkpt lat="46.01152" lon="4.70685">
        <ele>194</ele>
        <time>2017-04-24T11:20:51Z</time>
      </trkpt>
      <trkpt lat="46.01144" lon="4.70681">
        <ele>194</ele>
        <time>2017-04-24T11:20:53Z</time>
      </trkpt>
      <trkpt lat="46.0114" lon="4.70679">
        <ele>194</ele>
        <time>2017-04-24T11:20:54Z</time>
      </trkpt>
      <trkpt lat="46.01133" lon="4.70674">
        <ele>194</ele>
        <time>2017-04-24T11:20:56Z</time>
      </trkpt>
      <trkpt lat="46.01128" lon="4.70672">
        <ele>194</ele>
        <time>2017-04-24T11:20:57Z</time>
      </trkpt>
      <trkpt lat="46.01124" lon="4.7067">
        <ele>195</ele>
        <time>2017-04-24T11:20:58Z</time>
      </trkpt>
      <trkpt lat="46.01119" lon="4.70668">
        <ele>195</ele>
        <time>2017-04-24T11:20:59Z</time>
      </trkpt>
      <trkpt lat="46.01115" lon="4.70666">
        <ele>194</ele>
        <time>2017-04-24T11:21:00Z</time>
      </trkpt>
      <trkpt lat="46.0111" lon="4.70664">
        <ele>194</ele>
        <time>2017-04-24T11:21:01Z</time>
      </trkpt>
      <trkpt lat="46.01106" lon="4.70662">
        <ele>195</ele>
        <time>2017-04-24T11:21:02Z</time>
      </trkpt>
      <trkpt lat="46.01101" lon="4.7066">
        <ele>195</ele>
        <time>2017-04-24T11:21:03Z</time>
      </trkpt>
      <trkpt lat="46.01096" lon="4.70657">
        <ele>195</ele>
        <time>2017-04-24T11:21:04Z</time>
      </trkpt>
      <trkpt lat="46.0109" lon="4.70655">
        <ele>195</ele>
        <time>2017-04-24T11:21:05Z</time>
      </trkpt>
      <trkpt lat="46.01085" lon="4.70653">
        <ele>195</ele>
        <time>2017-04-24T11:21:06Z</time>
      </trkpt>
      <trkpt lat="46.0108" lon="4.70651">
        <ele>195</ele>
        <time>2017-04-24T11:21:07Z</time>
      </trkpt>
      <trkpt lat="46.01073" lon="4.70647">
        <ele>195</ele>
        <time>2017-04-24T11:21:09Z</time>
      </trkpt>
      <trkpt lat="46.01069" lon="4.70645">
        <ele>195</ele>
        <time>2017-04-24T11:21:10Z</time>
      </trkpt>
      <trkpt lat="46.01061" lon="4.70642">
        <ele>195</ele>
        <time>2017-04-24T11:21:12Z</time>
      </trkpt>
      <trkpt lat="46.01057" lon="4.7064">
        <ele>195</ele>
        <time>2017-04-24T11:21:13Z</time>
      </trkpt>
      <trkpt lat="46.01052" lon="4.70639">
        <ele>195</ele>
        <time>2017-04-24T11:21:14Z</time>
      </trkpt>
      <trkpt lat="46.01048" lon="4.70637">
        <ele>195</ele>
        <time>2017-04-24T11:21:15Z</time>
      </trkpt>
      <trkpt lat="46.01043" lon="4.70635">
        <ele>195</ele>
        <time>2017-04-24T11:21:16Z</time>
      </trkpt>
      <trkpt lat="46.01039" lon="4.70633">
        <ele>196</ele>
        <time>2017-04-24T11:21:17Z</time>
      </trkpt>
      <trkpt lat="46.01034" lon="4.70631">
        <ele>196</ele>
        <time>2017-04-24T11:21:18Z</time>
      </trkpt>
      <trkpt lat="46.01029" lon="4.70629">
        <ele>196</ele>
        <time>2017-04-24T11:21:19Z</time>
      </trkpt>
      <trkpt lat="46.01023" lon="4.70627">
        <ele>196</ele>
        <time>2017-04-24T11:21:20Z</time>
      </trkpt>
      <trkpt lat="46.01019" lon="4.70624">
        <ele>196</ele>
        <time>2017-04-24T11:21:21Z</time>
      </trkpt>
      <trkpt lat="46.01014" lon="4.70622">
        <ele>196</ele>
        <time>2017-04-24T11:21:22Z</time>
      </trkpt>
      <trkpt lat="46.01009" lon="4.70621">
        <ele>196</ele>
        <time>2017-04-24T11:21:23Z</time>
      </trkpt>
      <trkpt lat="46.01001" lon="4.70617">
        <ele>196</ele>
        <time>2017-04-24T11:21:25Z</time>
      </trkpt>
      <trkpt lat="46.00997" lon="4.70615">
        <ele>197</ele>
        <time>2017-04-24T11:21:26Z</time>
      </trkpt>
      <trkpt lat="46.00989" lon="4.70611">
        <ele>197</ele>
        <time>2017-04-24T11:21:28Z</time>
      </trkpt>
      <trkpt lat="46.00985" lon="4.7061">
        <ele>197</ele>
        <time>2017-04-24T11:21:29Z</time>
      </trkpt>
      <trkpt lat="46.00976" lon="4.70607">
        <ele>197</ele>
        <time>2017-04-24T11:21:31Z</time>
      </trkpt>
      <trkpt lat="46.00972" lon="4.70605">
        <ele>197</ele>
        <time>2017-04-24T11:21:32Z</time>
      </trkpt>
      <trkpt lat="46.00964" lon="4.70601">
        <ele>197</ele>
        <time>2017-04-24T11:21:34Z</time>
      </trkpt>
      <trkpt lat="46.0096" lon="4.70599">
        <ele>197</ele>
        <time>2017-04-24T11:21:35Z</time>
      </trkpt>
      <trkpt lat="46.00953" lon="4.70598">
        <ele>197</ele>
        <time>2017-04-24T11:21:37Z</time>
      </trkpt>
      <trkpt lat="46.00948" lon="4.70597">
        <ele>197</ele>
        <time>2017-04-24T11:21:38Z</time>
      </trkpt>
      <trkpt lat="46.0094" lon="4.70594">
        <ele>198</ele>
        <time>2017-04-24T11:21:40Z</time>
      </trkpt>
      <trkpt lat="46.00936" lon="4.70593">
        <ele>198</ele>
        <time>2017-04-24T11:21:41Z</time>
      </trkpt>
      <trkpt lat="46.00928" lon="4.7059">
        <ele>198</ele>
        <time>2017-04-24T11:21:43Z</time>
      </trkpt>
      <trkpt lat="46.00925" lon="4.70588">
        <ele>198</ele>
        <time>2017-04-24T11:21:44Z</time>
      </trkpt>
      <trkpt lat="46.00917" lon="4.70585">
        <ele>198</ele>
        <time>2017-04-24T11:21:46Z</time>
      </trkpt>
      <trkpt lat="46.00913" lon="4.70583">
        <ele>198</ele>
        <time>2017-04-24T11:21:47Z</time>
      </trkpt>
      <trkpt lat="46.00906" lon="4.70579">
        <ele>199</ele>
        <time>2017-04-24T11:21:49Z</time>
      </trkpt>
      <trkpt lat="46.00902" lon="4.70577">
        <ele>199</ele>
        <time>2017-04-24T11:21:50Z</time>
      </trkpt>
      <trkpt lat="46.00894" lon="4.70573">
        <ele>200</ele>
        <time>2017-04-24T11:21:52Z</time>
      </trkpt>
      <trkpt lat="46.00891" lon="4.70571">
        <ele>200</ele>
        <time>2017-04-24T11:21:53Z</time>
      </trkpt>
      <trkpt lat="46.00883" lon="4.70566">
        <ele>200</ele>
        <time>2017-04-24T11:21:55Z</time>
      </trkpt>
      <trkpt lat="46.0088" lon="4.70565">
        <ele>200</ele>
        <time>2017-04-24T11:21:56Z</time>
      </trkpt>
      <trkpt lat="46.00873" lon="4.70562">
        <ele>201</ele>
        <time>2017-04-24T11:21:58Z</time>
      </trkpt>
      <trkpt lat="46.0087" lon="4.7056">
        <ele>201</ele>
        <time>2017-04-24T11:21:59Z</time>
      </trkpt>
      <trkpt lat="46.00863" lon="4.70557">
        <ele>201</ele>
        <time>2017-04-24T11:22:01Z</time>
      </trkpt>
      <trkpt lat="46.0086" lon="4.70555">
        <ele>201</ele>
        <time>2017-04-24T11:22:02Z</time>
      </trkpt>
      <trkpt lat="46.00852" lon="4.70553">
        <ele>201</ele>
        <time>2017-04-24T11:22:04Z</time>
      </trkpt>
      <trkpt lat="46.00848" lon="4.70551">
        <ele>201</ele>
        <time>2017-04-24T11:22:05Z</time>
      </trkpt>
      <trkpt lat="46.00841" lon="4.70547">
        <ele>201</ele>
        <time>2017-04-24T11:22:07Z</time>
      </trkpt>
      <trkpt lat="46.00837" lon="4.70545">
        <ele>201</ele>
        <time>2017-04-24T11:22:08Z</time>
      </trkpt>
      <trkpt lat="46.00831" lon="4.70541">
        <ele>203</ele>
        <time>2017-04-24T11:22:10Z</time>
      </trkpt>
      <trkpt lat="46.00828" lon="4.7054">
        <ele>203</ele>
        <time>2017-04-24T11:22:11Z</time>
      </trkpt>
      <trkpt lat="46.00821" lon="4.70537">
        <ele>203</ele>
        <time>2017-04-24T11:22:13Z</time>
      </trkpt>
      <trkpt lat="46.00818" lon="4.70535">
        <ele>203</ele>
        <time>2017-04-24T11:22:14Z</time>
      </trkpt>
      <trkpt lat="46.00811" lon="4.70531">
        <ele>204</ele>
        <time>2017-04-24T11:22:16Z</time>
      </trkpt>
      <trkpt lat="46.00808" lon="4.7053">
        <ele>204</ele>
        <time>2017-04-24T11:22:17Z</time>
      </trkpt>
      <trkpt lat="46.00801" lon="4.70527">
        <ele>204</ele>
        <time>2017-04-24T11:22:19Z</time>
      </trkpt>
      <trkpt lat="46.00797" lon="4.70526">
        <ele>204</ele>
        <time>2017-04-24T11:22:20Z</time>
      </trkpt>
      <trkpt lat="46.00791" lon="4.70523">
        <ele>204</ele>
        <time>2017-04-24T11:22:22Z</time>
      </trkpt>
      <trkpt lat="46.00788" lon="4.70521">
        <ele>204</ele>
        <time>2017-04-24T11:22:23Z</time>
      </trkpt>
      <trkpt lat="46.00781" lon="4.70517">
        <ele>205</ele>
        <time>2017-04-24T11:22:25Z</time>
      </trkpt>
      <trkpt lat="46.00777" lon="4.70516">
        <ele>205</ele>
        <time>2017-04-24T11:22:26Z</time>
      </trkpt>
      <trkpt lat="46.0077" lon="4.70512">
        <ele>205</ele>
        <time>2017-04-24T11:22:28Z</time>
      </trkpt>
      <trkpt lat="46.00767" lon="4.7051">
        <ele>206</ele>
        <time>2017-04-24T11:22:29Z</time>
      </trkpt>
      <trkpt lat="46.00761" lon="4.70507">
        <ele>206</ele>
        <time>2017-04-24T11:22:31Z</time>
      </trkpt>
      <trkpt lat="46.00758" lon="4.70506">
        <ele>207</ele>
        <time>2017-04-24T11:22:32Z</time>
      </trkpt>
      <trkpt lat="46.0075" lon="4.70504">
        <ele>207</ele>
        <time>2017-04-24T11:22:34Z</time>
      </trkpt>
      <trkpt lat="46.00747" lon="4.70503">
        <ele>208</ele>
        <time>2017-04-24T11:22:35Z</time>
      </trkpt>
      <trkpt lat="46.00741" lon="4.70501">
        <ele>207</ele>
        <time>2017-04-24T11:22:37Z</time>
      </trkpt>
      <trkpt lat="46.00737" lon="4.705">
        <ele>209</ele>
        <time>2017-04-24T11:22:38Z</time>
      </trkpt>
      <trkpt lat="46.0073" lon="4.70498">
        <ele>210</ele>
        <time>2017-04-24T11:22:40Z</time>
      </trkpt>
      <trkpt lat="46.00726" lon="4.70498">
        <ele>210</ele>
        <time>2017-04-24T11:22:41Z</time>
      </trkpt>
      <trkpt lat="46.00718" lon="4.70497">
        <ele>210</ele>
        <time>2017-04-24T11:22:43Z</time>
      </trkpt>
      <trkpt lat="46.00715" lon="4.70497">
        <ele>210</ele>
        <time>2017-04-24T11:22:44Z</time>
      </trkpt>
      <trkpt lat="46.00707" lon="4.70497">
        <ele>211</ele>
        <time>2017-04-24T11:22:46Z</time>
      </trkpt>
      <trkpt lat="46.00704" lon="4.70497">
        <ele>211</ele>
        <time>2017-04-24T11:22:47Z</time>
      </trkpt>
      <trkpt lat="46.00697" lon="4.70495">
        <ele>211</ele>
        <time>2017-04-24T11:22:49Z</time>
      </trkpt>
      <trkpt lat="46.00694" lon="4.70495">
        <ele>211</ele>
        <time>2017-04-24T11:22:50Z</time>
      </trkpt>
      <trkpt lat="46.00687" lon="4.70494">
        <ele>211</ele>
        <time>2017-04-24T11:22:52Z</time>
      </trkpt>
      <trkpt lat="46.00683" lon="4.70494">
        <ele>211</ele>
        <time>2017-04-24T11:22:53Z</time>
      </trkpt>
      <trkpt lat="46.00674" lon="4.70494">
        <ele>212</ele>
        <time>2017-04-24T11:22:55Z</time>
      </trkpt>
      <trkpt lat="46.0067" lon="4.70494">
        <ele>212</ele>
        <time>2017-04-24T11:22:56Z</time>
      </trkpt>
      <trkpt lat="46.00662" lon="4.70495">
        <ele>212</ele>
        <time>2017-04-24T11:22:58Z</time>
      </trkpt>
      <trkpt lat="46.00658" lon="4.70496">
        <ele>212</ele>
        <time>2017-04-24T11:22:59Z</time>
      </trkpt>
      <trkpt lat="46.0065" lon="4.70498">
        <ele>211</ele>
        <time>2017-04-24T11:23:01Z</time>
      </trkpt>
      <trkpt lat="46.00647" lon="4.70499">
        <ele>211</ele>
        <time>2017-04-24T11:23:02Z</time>
      </trkpt>
      <trkpt lat="46.00639" lon="4.70502">
        <ele>208</ele>
        <time>2017-04-24T11:23:04Z</time>
      </trkpt>
      <trkpt lat="46.00634" lon="4.70503">
        <ele>208</ele>
        <time>2017-04-24T11:23:05Z</time>
      </trkpt>
      <trkpt lat="46.00627" lon="4.70503">
        <ele>207</ele>
        <time>2017-04-24T11:23:07Z</time>
      </trkpt>
      <trkpt lat="46.00623" lon="4.70503">
        <ele>207</ele>
        <time>2017-04-24T11:23:08Z</time>
      </trkpt>
      <trkpt lat="46.00615" lon="4.70506">
        <ele>207</ele>
        <time>2017-04-24T11:23:10Z</time>
      </trkpt>
      <trkpt lat="46.00609" lon="4.70507">
        <ele>207</ele>
        <time>2017-04-24T11:23:11Z</time>
      </trkpt>
      <trkpt lat="46.00604" lon="4.70508">
        <ele>207</ele>
        <time>2017-04-24T11:23:12Z</time>
      </trkpt>
      <trkpt lat="46.00599" lon="4.70509">
        <ele>207</ele>
        <time>2017-04-24T11:23:13Z</time>
      </trkpt>
      <trkpt lat="46.00594" lon="4.7051">
        <ele>207</ele>
        <time>2017-04-24T11:23:14Z</time>
      </trkpt>
      <trkpt lat="46.0059" lon="4.70511">
        <ele>207</ele>
        <time>2017-04-24T11:23:15Z</time>
      </trkpt>
      <trkpt lat="46.00585" lon="4.70511">
        <ele>207</ele>
        <time>2017-04-24T11:23:16Z</time>
      </trkpt>
      <trkpt lat="46.0058" lon="4.70512">
        <ele>206</ele>
        <time>2017-04-24T11:23:17Z</time>
      </trkpt>
      <trkpt lat="46.00575" lon="4.70512">
        <ele>205</ele>
        <time>2017-04-24T11:23:18Z</time>
      </trkpt>
      <trkpt lat="46.0057" lon="4.70514">
        <ele>205</ele>
        <time>2017-04-24T11:23:19Z</time>
      </trkpt>
      <trkpt lat="46.00564" lon="4.70515">
        <ele>205</ele>
        <time>2017-04-24T11:23:20Z</time>
      </trkpt>
      <trkpt lat="46.00559" lon="4.70516">
        <ele>204</ele>
        <time>2017-04-24T11:23:21Z</time>
      </trkpt>
      <trkpt lat="46.00553" lon="4.70517">
        <ele>204</ele>
        <time>2017-04-24T11:23:22Z</time>
      </trkpt>
      <trkpt lat="46.00547" lon="4.70517">
        <ele>204</ele>
        <time>2017-04-24T11:23:23Z</time>
      </trkpt>
      <trkpt lat="46.00542" lon="4.70518">
        <ele>204</ele>
        <time>2017-04-24T11:23:24Z</time>
      </trkpt>
      <trkpt lat="46.00536" lon="4.70519">
        <ele>204</ele>
        <time>2017-04-24T11:23:25Z</time>
      </trkpt>
      <trkpt lat="46.00529" lon="4.7052">
        <ele>204</ele>
        <time>2017-04-24T11:23:26Z</time>
      </trkpt>
      <trkpt lat="46.00521" lon="4.70521">
        <ele>203</ele>
        <time>2017-04-24T11:23:27Z</time>
      </trkpt>
      <trkpt lat="46.00515" lon="4.70522">
        <ele>203</ele>
        <time>2017-04-24T11:23:28Z</time>
      </trkpt>
      <trkpt lat="46.00508" lon="4.70521">
        <ele>203</ele>
        <time>2017-04-24T11:23:29Z</time>
      </trkpt>
      <trkpt lat="46.00501" lon="4.7052">
        <ele>203</ele>
        <time>2017-04-24T11:23:30Z</time>
      </trkpt>
      <trkpt lat="46.00495" lon="4.70519">
        <ele>202</ele>
        <time>2017-04-24T11:23:31Z</time>
      </trkpt>
      <trkpt lat="46.00489" lon="4.70517">
        <ele>202</ele>
        <time>2017-04-24T11:23:32Z</time>
      </trkpt>
      <trkpt lat="46.00484" lon="4.70516">
        <ele>202</ele>
        <time>2017-04-24T11:23:33Z</time>
      </trkpt>
      <trkpt lat="46.00478" lon="4.70514">
        <ele>202</ele>
        <time>2017-04-24T11:23:34Z</time>
      </trkpt>
      <trkpt lat="46.00472" lon="4.70513">
        <ele>201</ele>
        <time>2017-04-24T11:23:35Z</time>
      </trkpt>
      <trkpt lat="46.00466" lon="4.70511">
        <ele>201</ele>
        <time>2017-04-24T11:23:36Z</time>
      </trkpt>
      <trkpt lat="46.0046" lon="4.70508">
        <ele>201</ele>
        <time>2017-04-24T11:23:37Z</time>
      </trkpt>
      <trkpt lat="46.00454" lon="4.70505">
        <ele>201</ele>
        <time>2017-04-24T11:23:38Z</time>
      </trkpt>
      <trkpt lat="46.00448" lon="4.70503">
        <ele>201</ele>
        <time>2017-04-24T11:23:39Z</time>
      </trkpt>
      <trkpt lat="46.00441" lon="4.70501">
        <ele>200</ele>
        <time>2017-04-24T11:23:40Z</time>
      </trkpt>
      <trkpt lat="46.00435" lon="4.705">
        <ele>202</ele>
        <time>2017-04-24T11:23:41Z</time>
      </trkpt>
      <trkpt lat="46.0043" lon="4.70499">
        <ele>201</ele>
        <time>2017-04-24T11:23:42Z</time>
      </trkpt>
      <trkpt lat="46.00424" lon="4.70498">
        <ele>201</ele>
        <time>2017-04-24T11:23:43Z</time>
      </trkpt>
      <trkpt lat="46.00419" lon="4.70498">
        <ele>200</ele>
        <time>2017-04-24T11:23:44Z</time>
      </trkpt>
      <trkpt lat="46.00413" lon="4.70497">
        <ele>200</ele>
        <time>2017-04-24T11:23:45Z</time>
      </trkpt>
      <trkpt lat="46.00408" lon="4.70497">
        <ele>200</ele>
        <time>2017-04-24T11:23:46Z</time>
      </trkpt>
      <trkpt lat="46.00402" lon="4.70497">
        <ele>200</ele>
        <time>2017-04-24T11:23:47Z</time>
      </trkpt>
      <trkpt lat="46.00397" lon="4.70497">
        <ele>200</ele>
        <time>2017-04-24T11:23:48Z</time>
      </trkpt>
      <trkpt lat="46.00392" lon="4.70496">
        <ele>200</ele>
        <time>2017-04-24T11:23:49Z</time>
      </trkpt>
      <trkpt lat="46.00386" lon="4.70497">
        <ele>200</ele>
        <time>2017-04-24T11:23:50Z</time>
      </trkpt>
      <trkpt lat="46.00381" lon="4.70497">
        <ele>200</ele>
        <time>2017-04-24T11:23:51Z</time>
      </trkpt>
      <trkpt lat="46.00376" lon="4.70498">
        <ele>200</ele>
        <time>2017-04-24T11:23:52Z</time>
      </trkpt>
      <trkpt lat="46.0037" lon="4.70499">
        <ele>200</ele>
        <time>2017-04-24T11:23:53Z</time>
      </trkpt>
      <trkpt lat="46.00363" lon="4.70499">
        <ele>200</ele>
        <time>2017-04-24T11:23:54Z</time>
      </trkpt>
      <trkpt lat="46.00358" lon="4.70501">
        <ele>198</ele>
        <time>2017-04-24T11:23:55Z</time>
      </trkpt>
      <trkpt lat="46.00352" lon="4.70502">
        <ele>198</ele>
        <time>2017-04-24T11:23:56Z</time>
      </trkpt>
      <trkpt lat="46.00346" lon="4.70503">
        <ele>198</ele>
        <time>2017-04-24T11:23:57Z</time>
      </trkpt>
      <trkpt lat="46.0034" lon="4.70504">
        <ele>198</ele>
        <time>2017-04-24T11:23:58Z</time>
      </trkpt>
      <trkpt lat="46.00334" lon="4.70505">
        <ele>198</ele>
        <time>2017-04-24T11:23:59Z</time>
      </trkpt>
      <trkpt lat="46.00328" lon="4.70506">
        <ele>198</ele>
        <time>2017-04-24T11:24:00Z</time>
      </trkpt>
      <trkpt lat="46.00322" lon="4.70507">
        <ele>198</ele>
        <time>2017-04-24T11:24:01Z</time>
      </trkpt>
      <trkpt lat="46.00315" lon="4.70507">
        <ele>197</ele>
        <time>2017-04-24T11:24:02Z</time>
      </trkpt>
      <trkpt lat="46.00311" lon="4.70506">
        <ele>197</ele>
        <time>2017-04-24T11:24:03Z</time>
      </trkpt>
      <trkpt lat="46.00306" lon="4.70506">
        <ele>197</ele>
        <time>2017-04-24T11:24:04Z</time>
      </trkpt>
      <trkpt lat="46.00301" lon="4.70507">
        <ele>197</ele>
        <time>2017-04-24T11:24:05Z</time>
      </trkpt>
      <trkpt lat="46.00296" lon="4.70508">
        <ele>197</ele>
        <time>2017-04-24T11:24:06Z</time>
      </trkpt>
      <trkpt lat="46.0029" lon="4.70509">
        <ele>197</ele>
        <time>2017-04-24T11:24:07Z</time>
      </trkpt>
      <trkpt lat="46.00285" lon="4.7051">
        <ele>197</ele>
        <time>2017-04-24T11:24:08Z</time>
      </trkpt>
      <trkpt lat="46.0028" lon="4.70511">
        <ele>197</ele>
        <time>2017-04-24T11:24:09Z</time>
      </trkpt>
      <trkpt lat="46.00275" lon="4.70512">
        <ele>197</ele>
        <time>2017-04-24T11:24:10Z</time>
      </trkpt>
      <trkpt lat="46.00268" lon="4.70513">
        <ele>197</ele>
        <time>2017-04-24T11:24:11Z</time>
      </trkpt>
      <trkpt lat="46.00262" lon="4.70515">
        <ele>197</ele>
        <time>2017-04-24T11:24:12Z</time>
      </trkpt>
      <trkpt lat="46.00256" lon="4.70516">
        <ele>197</ele>
        <time>2017-04-24T11:24:13Z</time>
      </trkpt>
      <trkpt lat="46.0025" lon="4.70517">
        <ele>198</ele>
        <time>2017-04-24T11:24:14Z</time>
      </trkpt>
      <trkpt lat="46.00244" lon="4.70519">
        <ele>198</ele>
        <time>2017-04-24T11:24:15Z</time>
      </trkpt>
      <trkpt lat="46.00237" lon="4.70521">
        <ele>198</ele>
        <time>2017-04-24T11:24:16Z</time>
      </trkpt>
      <trkpt lat="46.00231" lon="4.70522">
        <ele>198</ele>
        <time>2017-04-24T11:24:17Z</time>
      </trkpt>
      <trkpt lat="46.00225" lon="4.70524">
        <ele>198</ele>
        <time>2017-04-24T11:24:18Z</time>
      </trkpt>
      <trkpt lat="46.00219" lon="4.70526">
        <ele>198</ele>
        <time>2017-04-24T11:24:19Z</time>
      </trkpt>
      <trkpt lat="46.00213" lon="4.70528">
        <ele>198</ele>
        <time>2017-04-24T11:24:20Z</time>
      </trkpt>
      <trkpt lat="46.00207" lon="4.70529">
        <ele>198</ele>
        <time>2017-04-24T11:24:21Z</time>
      </trkpt>
      <trkpt lat="46.00202" lon="4.7053">
        <ele>198</ele>
        <time>2017-04-24T11:24:22Z</time>
      </trkpt>
      <trkpt lat="46.00195" lon="4.7053">
        <ele>198</ele>
        <time>2017-04-24T11:24:23Z</time>
      </trkpt>
      <trkpt lat="46.00189" lon="4.70531">
        <ele>198</ele>
        <time>2017-04-24T11:24:24Z</time>
      </trkpt>
      <trkpt lat="46.00182" lon="4.70532">
        <ele>198</ele>
        <time>2017-04-24T11:24:25Z</time>
      </trkpt>
      <trkpt lat="46.00176" lon="4.70532">
        <ele>198</ele>
        <time>2017-04-24T11:24:26Z</time>
      </trkpt>
      <trkpt lat="46.0017" lon="4.70531">
        <ele>198</ele>
        <time>2017-04-24T11:24:27Z</time>
      </trkpt>
      <trkpt lat="46.00165" lon="4.70528">
        <ele>198</ele>
        <time>2017-04-24T11:24:28Z</time>
      </trkpt>
      <trkpt lat="46.0016" lon="4.70524">
        <ele>198</ele>
        <time>2017-04-24T11:24:29Z</time>
      </trkpt>
      <trkpt lat="46.00156" lon="4.7052">
        <ele>198</ele>
        <time>2017-04-24T11:24:30Z</time>
      </trkpt>
      <trkpt lat="46.00151" lon="4.70517">
        <ele>198</ele>
        <time>2017-04-24T11:24:31Z</time>
      </trkpt>
      <trkpt lat="46.00146" lon="4.70518">
        <ele>198</ele>
        <time>2017-04-24T11:24:32Z</time>
      </trkpt>
      <trkpt lat="46.00141" lon="4.70521">
        <ele>198</ele>
        <time>2017-04-24T11:24:33Z</time>
      </trkpt>
      <trkpt lat="46.00137" lon="4.70526">
        <ele>198</ele>
        <time>2017-04-24T11:24:34Z</time>
      </trkpt>
      <trkpt lat="46.00135" lon="4.70533">
        <ele>198</ele>
        <time>2017-04-24T11:24:35Z</time>
      </trkpt>
      <trkpt lat="46.00133" lon="4.7054">
        <ele>198</ele>
        <time>2017-04-24T11:24:36Z</time>
      </trkpt>
      <trkpt lat="46.00132" lon="4.70546">
        <ele>198</ele>
        <time>2017-04-24T11:24:37Z</time>
      </trkpt>
      <trkpt lat="46.00131" lon="4.70553">
        <ele>198</ele>
        <time>2017-04-24T11:24:38Z</time>
      </trkpt>
      <trkpt lat="46.00128" lon="4.70559">
        <ele>198</ele>
        <time>2017-04-24T11:24:39Z</time>
      </trkpt>
      <trkpt lat="46.00125" lon="4.70564">
        <ele>198</ele>
        <time>2017-04-24T11:24:40Z</time>
      </trkpt>
      <trkpt lat="46.0012" lon="4.70568">
        <ele>198</ele>
        <time>2017-04-24T11:24:41Z</time>
      </trkpt>
      <trkpt lat="46.00116" lon="4.70571">
        <ele>198</ele>
        <time>2017-04-24T11:24:42Z</time>
      </trkpt>
      <trkpt lat="46.0011" lon="4.70573">
        <ele>198</ele>
        <time>2017-04-24T11:24:43Z</time>
      </trkpt>
      <trkpt lat="46.00105" lon="4.70576">
        <ele>198</ele>
        <time>2017-04-24T11:24:44Z</time>
      </trkpt>
      <trkpt lat="46.001" lon="4.70579">
        <ele>198</ele>
        <time>2017-04-24T11:24:45Z</time>
      </trkpt>
      <trkpt lat="46.00094" lon="4.70582">
        <ele>198</ele>
        <time>2017-04-24T11:24:46Z</time>
      </trkpt>
      <trkpt lat="46.00089" lon="4.70585">
        <ele>198</ele>
        <time>2017-04-24T11:24:47Z</time>
      </trkpt>
      <trkpt lat="46.00084" lon="4.70588">
        <ele>198</ele>
        <time>2017-04-24T11:24:48Z</time>
      </trkpt>
      <trkpt lat="46.00079" lon="4.70591">
        <ele>198</ele>
        <time>2017-04-24T11:24:49Z</time>
      </trkpt>
      <trkpt lat="46.00074" lon="4.70593">
        <ele>198</ele>
        <time>2017-04-24T11:24:50Z</time>
      </trkpt>
      <trkpt lat="46.00068" lon="4.70595">
        <ele>198</ele>
        <time>2017-04-24T11:24:51Z</time>
      </trkpt>
      <trkpt lat="46.00063" lon="4.70597">
        <ele>198</ele>
        <time>2017-04-24T11:24:52Z</time>
      </trkpt>
      <trkpt lat="46.00059" lon="4.70598">
        <ele>198</ele>
        <time>2017-04-24T11:24:53Z</time>
      </trkpt>
      <trkpt lat="46.0005" lon="4.706">
        <ele>198</ele>
        <time>2017-04-24T11:24:55Z</time>
      </trkpt>
      <trkpt lat="46.00047" lon="4.70601">
        <ele>198</ele>
        <time>2017-04-24T11:24:56Z</time>
      </trkpt>
      <trkpt lat="46.0004" lon="4.70602">
        <ele>199</ele>
        <time>2017-04-24T11:24:58Z</time>
      </trkpt>
      <trkpt lat="46.00036" lon="4.70603">
        <ele>199</ele>
        <time>2017-04-24T11:24:59Z</time>
      </trkpt>
      <trkpt lat="46.00029" lon="4.70606">
        <ele>199</ele>
        <time>2017-04-24T11:25:01Z</time>
      </trkpt>
      <trkpt lat="46.00025" lon="4.70607">
        <ele>199</ele>
        <time>2017-04-24T11:25:02Z</time>
      </trkpt>
      <trkpt lat="46.00017" lon="4.70611">
        <ele>199</ele>
        <time>2017-04-24T11:25:04Z</time>
      </trkpt>
      <trkpt lat="46.00011" lon="4.70612">
        <ele>199</ele>
        <time>2017-04-24T11:25:05Z</time>
      </trkpt>
      <trkpt lat="46.00006" lon="4.70614">
        <ele>199</ele>
        <time>2017-04-24T11:25:06Z</time>
      </trkpt>
      <trkpt lat="46" lon="4.70615">
        <ele>199</ele>
        <time>2017-04-24T11:25:07Z</time>
      </trkpt>
      <trkpt lat="45.99994" lon="4.70617">
        <ele>199</ele>
        <time>2017-04-24T11:25:08Z</time>
      </trkpt>
      <trkpt lat="45.99988" lon="4.70618">
        <ele>199</ele>
        <time>2017-04-24T11:25:09Z</time>
      </trkpt>
      <trkpt lat="45.99982" lon="4.70619">
        <ele>199</ele>
        <time>2017-04-24T11:25:10Z</time>
      </trkpt>
      <trkpt lat="45.99976" lon="4.70621">
        <ele>199</ele>
        <time>2017-04-24T11:25:11Z</time>
      </trkpt>
      <trkpt lat="45.99969" lon="4.70622">
        <ele>199</ele>
        <time>2017-04-24T11:25:12Z</time>
      </trkpt>
      <trkpt lat="45.99964" lon="4.70622">
        <ele>199</ele>
        <time>2017-04-24T11:25:13Z</time>
      </trkpt>
      <trkpt lat="45.99958" lon="4.70624">
        <ele>199</ele>
        <time>2017-04-24T11:25:14Z</time>
      </trkpt>
      <trkpt lat="45.99952" lon="4.70624">
        <ele>199</ele>
        <time>2017-04-24T11:25:15Z</time>
      </trkpt>
      <trkpt lat="45.99947" lon="4.70625">
        <ele>199</ele>
        <time>2017-04-24T11:25:16Z</time>
      </trkpt>
      <trkpt lat="45.99941" lon="4.70626">
        <ele>199</ele>
        <time>2017-04-24T11:25:17Z</time>
      </trkpt>
      <trkpt lat="45.99934" lon="4.70627">
        <ele>199</ele>
        <time>2017-04-24T11:25:18Z</time>
      </trkpt>
      <trkpt lat="45.99929" lon="4.70627">
        <ele>199</ele>
        <time>2017-04-24T11:25:19Z</time>
      </trkpt>
      <trkpt lat="45.99923" lon="4.70628">
        <ele>199</ele>
        <time>2017-04-24T11:25:20Z</time>
      </trkpt>
      <trkpt lat="45.99918" lon="4.70628">
        <ele>199</ele>
        <time>2017-04-24T11:25:21Z</time>
      </trkpt>
      <trkpt lat="45.99912" lon="4.70629">
        <ele>200</ele>
        <time>2017-04-24T11:25:22Z</time>
      </trkpt>
      <trkpt lat="45.99905" lon="4.7063">
        <ele>200</ele>
        <time>2017-04-24T11:25:23Z</time>
      </trkpt>
      <trkpt lat="45.999" lon="4.70631">
        <ele>200</ele>
        <time>2017-04-24T11:25:24Z</time>
      </trkpt>
      <trkpt lat="45.99894" lon="4.70632">
        <ele>200</ele>
        <time>2017-04-24T11:25:25Z</time>
      </trkpt>
      <trkpt lat="45.99889" lon="4.70633">
        <ele>200</ele>
        <time>2017-04-24T11:25:26Z</time>
      </trkpt>
      <trkpt lat="45.99884" lon="4.70635">
        <ele>201</ele>
        <time>2017-04-24T11:25:27Z</time>
      </trkpt>
      <trkpt lat="45.99878" lon="4.70636">
        <ele>201</ele>
        <time>2017-04-24T11:25:28Z</time>
      </trkpt>
      <trkpt lat="45.99873" lon="4.70637">
        <ele>201</ele>
        <time>2017-04-24T11:25:29Z</time>
      </trkpt>
      <trkpt lat="45.99868" lon="4.70638">
        <ele>201</ele>
        <time>2017-04-24T11:25:30Z</time>
      </trkpt>
      <trkpt lat="45.99864" lon="4.70639">
        <ele>201</ele>
        <time>2017-04-24T11:25:31Z</time>
      </trkpt>
      <trkpt lat="45.99859" lon="4.70641">
        <ele>201</ele>
        <time>2017-04-24T11:25:32Z</time>
      </trkpt>
      <trkpt lat="45.99854" lon="4.70643">
        <ele>201</ele>
        <time>2017-04-24T11:25:33Z</time>
      </trkpt>
      <trkpt lat="45.99849" lon="4.70644">
        <ele>201</ele>
        <time>2017-04-24T11:25:34Z</time>
      </trkpt>
      <trkpt lat="45.99844" lon="4.70645">
        <ele>201</ele>
        <time>2017-04-24T11:25:35Z</time>
      </trkpt>
      <trkpt lat="45.99839" lon="4.70647">
        <ele>201</ele>
        <time>2017-04-24T11:25:36Z</time>
      </trkpt>
      <trkpt lat="45.99834" lon="4.70648">
        <ele>201</ele>
        <time>2017-04-24T11:25:37Z</time>
      </trkpt>
      <trkpt lat="45.99829" lon="4.7065">
        <ele>202</ele>
        <time>2017-04-24T11:25:38Z</time>
      </trkpt>
      <trkpt lat="45.99824" lon="4.70651">
        <ele>202</ele>
        <time>2017-04-24T11:25:39Z</time>
      </trkpt>
      <trkpt lat="45.9982" lon="4.70652">
        <ele>202</ele>
        <time>2017-04-24T11:25:40Z</time>
      </trkpt>
      <trkpt lat="45.99814" lon="4.70653">
        <ele>202</ele>
        <time>2017-04-24T11:25:41Z</time>
      </trkpt>
      <trkpt lat="45.99806" lon="4.70655">
        <ele>202</ele>
        <time>2017-04-24T11:25:43Z</time>
      </trkpt>
      <trkpt lat="45.99802" lon="4.70656">
        <ele>202</ele>
        <time>2017-04-24T11:25:44Z</time>
      </trkpt>
      <trkpt lat="45.99794" lon="4.70659">
        <ele>202</ele>
        <time>2017-04-24T11:25:46Z</time>
      </trkpt>
      <trkpt lat="45.9979" lon="4.70661">
        <ele>202</ele>
        <time>2017-04-24T11:25:47Z</time>
      </trkpt>
      <trkpt lat="45.99784" lon="4.70663">
        <ele>202</ele>
        <time>2017-04-24T11:25:48Z</time>
      </trkpt>
      <trkpt lat="45.99778" lon="4.70665">
        <ele>202</ele>
        <time>2017-04-24T11:25:49Z</time>
      </trkpt>
      <trkpt lat="45.99771" lon="4.70666">
        <ele>202</ele>
        <time>2017-04-24T11:25:50Z</time>
      </trkpt>
      <trkpt lat="45.99766" lon="4.70668">
        <ele>202</ele>
        <time>2017-04-24T11:25:51Z</time>
      </trkpt>
      <trkpt lat="45.99757" lon="4.70669">
        <ele>202</ele>
        <time>2017-04-24T11:25:53Z</time>
      </trkpt>
      <trkpt lat="45.99753" lon="4.7067">
        <ele>202</ele>
        <time>2017-04-24T11:25:54Z</time>
      </trkpt>
      <trkpt lat="45.99748" lon="4.70671">
        <ele>202</ele>
        <time>2017-04-24T11:25:55Z</time>
      </trkpt>
      <trkpt lat="45.99743" lon="4.70672">
        <ele>202</ele>
        <time>2017-04-24T11:25:56Z</time>
      </trkpt>
      <trkpt lat="45.99738" lon="4.70672">
        <ele>202</ele>
        <time>2017-04-24T11:25:57Z</time>
      </trkpt>
      <trkpt lat="45.99734" lon="4.70673">
        <ele>202</ele>
        <time>2017-04-24T11:25:58Z</time>
      </trkpt>
      <trkpt lat="45.99728" lon="4.70675">
        <ele>202</ele>
        <time>2017-04-24T11:25:59Z</time>
      </trkpt>
      <trkpt lat="45.99723" lon="4.70675">
        <ele>201</ele>
        <time>2017-04-24T11:26:00Z</time>
      </trkpt>
      <trkpt lat="45.99718" lon="4.70676">
        <ele>201</ele>
        <time>2017-04-24T11:26:01Z</time>
      </trkpt>
      <trkpt lat="45.99714" lon="4.70677">
        <ele>201</ele>
        <time>2017-04-24T11:26:02Z</time>
      </trkpt>
      <trkpt lat="45.99709" lon="4.70679">
        <ele>201</ele>
        <time>2017-04-24T11:26:03Z</time>
      </trkpt>
      <trkpt lat="45.99704" lon="4.7068">
        <ele>201</ele>
        <time>2017-04-24T11:26:04Z</time>
      </trkpt>
      <trkpt lat="45.99699" lon="4.70683">
        <ele>201</ele>
        <time>2017-04-24T11:26:05Z</time>
      </trkpt>
      <trkpt lat="45.99694" lon="4.70684">
        <ele>201</ele>
        <time>2017-04-24T11:26:06Z</time>
      </trkpt>
      <trkpt lat="45.99689" lon="4.70686">
        <ele>201</ele>
        <time>2017-04-24T11:26:07Z</time>
      </trkpt>
      <trkpt lat="45.99684" lon="4.70687">
        <ele>201</ele>
        <time>2017-04-24T11:26:08Z</time>
      </trkpt>
      <trkpt lat="45.9968" lon="4.70688">
        <ele>201</ele>
        <time>2017-04-24T11:26:09Z</time>
      </trkpt>
      <trkpt lat="45.99675" lon="4.70689">
        <ele>201</ele>
        <time>2017-04-24T11:26:10Z</time>
      </trkpt>
      <trkpt lat="45.9967" lon="4.70689">
        <ele>201</ele>
        <time>2017-04-24T11:26:11Z</time>
      </trkpt>
      <trkpt lat="45.99665" lon="4.7069">
        <ele>201</ele>
        <time>2017-04-24T11:26:12Z</time>
      </trkpt>
      <trkpt lat="45.99657" lon="4.70692">
        <ele>201</ele>
        <time>2017-04-24T11:26:14Z</time>
      </trkpt>
      <trkpt lat="45.99652" lon="4.70692">
        <ele>200</ele>
        <time>2017-04-24T11:26:15Z</time>
      </trkpt>
      <trkpt lat="45.99647" lon="4.70693">
        <ele>200</ele>
        <time>2017-04-24T11:26:16Z</time>
      </trkpt>
      <trkpt lat="45.99642" lon="4.70694">
        <ele>200</ele>
        <time>2017-04-24T11:26:17Z</time>
      </trkpt>
      <trkpt lat="45.99636" lon="4.70695">
        <ele>200</ele>
        <time>2017-04-24T11:26:18Z</time>
      </trkpt>
      <trkpt lat="45.99631" lon="4.70696">
        <ele>200</ele>
        <time>2017-04-24T11:26:19Z</time>
      </trkpt>
      <trkpt lat="45.99626" lon="4.70697">
        <ele>200</ele>
        <time>2017-04-24T11:26:20Z</time>
      </trkpt>
      <trkpt lat="45.99621" lon="4.70698">
        <ele>200</ele>
        <time>2017-04-24T11:26:21Z</time>
      </trkpt>
      <trkpt lat="45.99616" lon="4.70699">
        <ele>200</ele>
        <time>2017-04-24T11:26:22Z</time>
      </trkpt>
      <trkpt lat="45.99611" lon="4.707">
        <ele>200</ele>
        <time>2017-04-24T11:26:23Z</time>
      </trkpt>
      <trkpt lat="45.99606" lon="4.70701">
        <ele>200</ele>
        <time>2017-04-24T11:26:24Z</time>
      </trkpt>
      <trkpt lat="45.99602" lon="4.70702">
        <ele>200</ele>
        <time>2017-04-24T11:26:25Z</time>
      </trkpt>
      <trkpt lat="45.99597" lon="4.70703">
        <ele>200</ele>
        <time>2017-04-24T11:26:26Z</time>
      </trkpt>
      <trkpt lat="45.99592" lon="4.70704">
        <ele>200</ele>
        <time>2017-04-24T11:26:27Z</time>
      </trkpt>
      <trkpt lat="45.99587" lon="4.70706">
        <ele>200</ele>
        <time>2017-04-24T11:26:28Z</time>
      </trkpt>
      <trkpt lat="45.99582" lon="4.70707">
        <ele>200</ele>
        <time>2017-04-24T11:26:29Z</time>
      </trkpt>
      <trkpt lat="45.99578" lon="4.70708">
        <ele>200</ele>
        <time>2017-04-24T11:26:30Z</time>
      </trkpt>
      <trkpt lat="45.99572" lon="4.70709">
        <ele>200</ele>
        <time>2017-04-24T11:26:31Z</time>
      </trkpt>
      <trkpt lat="45.99566" lon="4.7071">
        <ele>200</ele>
        <time>2017-04-24T11:26:32Z</time>
      </trkpt>
      <trkpt lat="45.9956" lon="4.70712">
        <ele>200</ele>
        <time>2017-04-24T11:26:33Z</time>
      </trkpt>
      <trkpt lat="45.99554" lon="4.70713">
        <ele>200</ele>
        <time>2017-04-24T11:26:34Z</time>
      </trkpt>
      <trkpt lat="45.99548" lon="4.70713">
        <ele>199</ele>
        <time>2017-04-24T11:26:35Z</time>
      </trkpt>
      <trkpt lat="45.99542" lon="4.70715">
        <ele>199</ele>
        <time>2017-04-24T11:26:36Z</time>
      </trkpt>
      <trkpt lat="45.99536" lon="4.70716">
        <ele>199</ele>
        <time>2017-04-24T11:26:37Z</time>
      </trkpt>
      <trkpt lat="45.9953" lon="4.70717">
        <ele>199</ele>
        <time>2017-04-24T11:26:38Z</time>
      </trkpt>
      <trkpt lat="45.99523" lon="4.70719">
        <ele>199</ele>
        <time>2017-04-24T11:26:39Z</time>
      </trkpt>
      <trkpt lat="45.99517" lon="4.7072">
        <ele>199</ele>
        <time>2017-04-24T11:26:40Z</time>
      </trkpt>
      <trkpt lat="45.99511" lon="4.70721">
        <ele>199</ele>
        <time>2017-04-24T11:26:41Z</time>
      </trkpt>
      <trkpt lat="45.99505" lon="4.70724">
        <ele>199</ele>
        <time>2017-04-24T11:26:42Z</time>
      </trkpt>
      <trkpt lat="45.995" lon="4.70727">
        <ele>199</ele>
        <time>2017-04-24T11:26:43Z</time>
      </trkpt>
      <trkpt lat="45.99494" lon="4.70729">
        <ele>199</ele>
        <time>2017-04-24T11:26:44Z</time>
      </trkpt>
      <trkpt lat="45.99489" lon="4.70729">
        <ele>199</ele>
        <time>2017-04-24T11:26:45Z</time>
      </trkpt>
      <trkpt lat="45.99482" lon="4.70727">
        <ele>199</ele>
        <time>2017-04-24T11:26:46Z</time>
      </trkpt>
      <trkpt lat="45.99476" lon="4.70726">
        <ele>199</ele>
        <time>2017-04-24T11:26:47Z</time>
      </trkpt>
      <trkpt lat="45.9947" lon="4.70727">
        <ele>200</ele>
        <time>2017-04-24T11:26:48Z</time>
      </trkpt>
      <trkpt lat="45.99464" lon="4.70726">
        <ele>200</ele>
        <time>2017-04-24T11:26:49Z</time>
      </trkpt>
      <trkpt lat="45.99458" lon="4.70726">
        <ele>200</ele>
        <time>2017-04-24T11:26:50Z</time>
      </trkpt>
      <trkpt lat="45.99452" lon="4.70725">
        <ele>200</ele>
        <time>2017-04-24T11:26:51Z</time>
      </trkpt>
      <trkpt lat="45.99447" lon="4.70724">
        <ele>200</ele>
        <time>2017-04-24T11:26:52Z</time>
      </trkpt>
      <trkpt lat="45.99441" lon="4.70724">
        <ele>200</ele>
        <time>2017-04-24T11:26:53Z</time>
      </trkpt>
      <trkpt lat="45.99434" lon="4.70724">
        <ele>200</ele>
        <time>2017-04-24T11:26:54Z</time>
      </trkpt>
      <trkpt lat="45.99428" lon="4.70724">
        <ele>200</ele>
        <time>2017-04-24T11:26:55Z</time>
      </trkpt>
      <trkpt lat="45.99422" lon="4.70724">
        <ele>200</ele>
        <time>2017-04-24T11:26:56Z</time>
      </trkpt>
      <trkpt lat="45.99416" lon="4.70724">
        <ele>199</ele>
        <time>2017-04-24T11:26:57Z</time>
      </trkpt>
      <trkpt lat="45.99411" lon="4.70724">
        <ele>199</ele>
        <time>2017-04-24T11:26:58Z</time>
      </trkpt>
      <trkpt lat="45.99406" lon="4.70724">
        <ele>199</ele>
        <time>2017-04-24T11:26:59Z</time>
      </trkpt>
      <trkpt lat="45.99401" lon="4.70724">
        <ele>199</ele>
        <time>2017-04-24T11:27:00Z</time>
      </trkpt>
      <trkpt lat="45.99395" lon="4.70724">
        <ele>199</ele>
        <time>2017-04-24T11:27:01Z</time>
      </trkpt>
      <trkpt lat="45.9939" lon="4.70725">
        <ele>199</ele>
        <time>2017-04-24T11:27:02Z</time>
      </trkpt>
      <trkpt lat="45.99384" lon="4.70725">
        <ele>199</ele>
        <time>2017-04-24T11:27:03Z</time>
      </trkpt>
      <trkpt lat="45.99379" lon="4.70725">
        <ele>198</ele>
        <time>2017-04-24T11:27:04Z</time>
      </trkpt>
      <trkpt lat="45.99375" lon="4.70725">
        <ele>198</ele>
        <time>2017-04-24T11:27:05Z</time>
      </trkpt>
      <trkpt lat="45.99369" lon="4.70724">
        <ele>198</ele>
        <time>2017-04-24T11:27:06Z</time>
      </trkpt>
      <trkpt lat="45.99364" lon="4.70723">
        <ele>198</ele>
        <time>2017-04-24T11:27:07Z</time>
      </trkpt>
      <trkpt lat="45.99359" lon="4.70722">
        <ele>198</ele>
        <time>2017-04-24T11:27:08Z</time>
      </trkpt>
      <trkpt lat="45.99354" lon="4.70721">
        <ele>198</ele>
        <time>2017-04-24T11:27:09Z</time>
      </trkpt>
      <trkpt lat="45.99348" lon="4.70721">
        <ele>197</ele>
        <time>2017-04-24T11:27:10Z</time>
      </trkpt>
      <trkpt lat="45.99342" lon="4.70721">
        <ele>197</ele>
        <time>2017-04-24T11:27:11Z</time>
      </trkpt>
      <trkpt lat="45.99337" lon="4.70721">
        <ele>197</ele>
        <time>2017-04-24T11:27:12Z</time>
      </trkpt>
      <trkpt lat="45.9933" lon="4.70721">
        <ele>196</ele>
        <time>2017-04-24T11:27:13Z</time>
      </trkpt>
      <trkpt lat="45.99324" lon="4.70721">
        <ele>196</ele>
        <time>2017-04-24T11:27:14Z</time>
      </trkpt>
      <trkpt lat="45.99318" lon="4.7072">
        <ele>196</ele>
        <time>2017-04-24T11:27:15Z</time>
      </trkpt>
      <trkpt lat="45.99313" lon="4.7072">
        <ele>196</ele>
        <time>2017-04-24T11:27:16Z</time>
      </trkpt>
      <trkpt lat="45.99307" lon="4.7072">
        <ele>196</ele>
        <time>2017-04-24T11:27:17Z</time>
      </trkpt>
      <trkpt lat="45.993" lon="4.70721">
        <ele>196</ele>
        <time>2017-04-24T11:27:19Z</time>
      </trkpt>
      <trkpt lat="45.99294" lon="4.70721">
        <ele>196</ele>
        <time>2017-04-24T11:27:20Z</time>
      </trkpt>
      <trkpt lat="45.99289" lon="4.70719">
        <ele>196</ele>
        <time>2017-04-24T11:27:21Z</time>
      </trkpt>
      <trkpt lat="45.99284" lon="4.70717">
        <ele>196</ele>
        <time>2017-04-24T11:27:22Z</time>
      </trkpt>
      <trkpt lat="45.99278" lon="4.70718">
        <ele>196</ele>
        <time>2017-04-24T11:27:23Z</time>
      </trkpt>
      <trkpt lat="45.99272" lon="4.70718">
        <ele>196</ele>
        <time>2017-04-24T11:27:24Z</time>
      </trkpt>
      <trkpt lat="45.99267" lon="4.70718">
        <ele>196</ele>
        <time>2017-04-24T11:27:25Z</time>
      </trkpt>
      <trkpt lat="45.99261" lon="4.70718">
        <ele>196</ele>
        <time>2017-04-24T11:27:26Z</time>
      </trkpt>
      <trkpt lat="45.99254" lon="4.70717">
        <ele>196</ele>
        <time>2017-04-24T11:27:27Z</time>
      </trkpt>
      <trkpt lat="45.99249" lon="4.70717">
        <ele>196</ele>
        <time>2017-04-24T11:27:28Z</time>
      </trkpt>
      <trkpt lat="45.99243" lon="4.70716">
        <ele>196</ele>
        <time>2017-04-24T11:27:29Z</time>
      </trkpt>
      <trkpt lat="45.99237" lon="4.70716">
        <ele>196</ele>
        <time>2017-04-24T11:27:30Z</time>
      </trkpt>
      <trkpt lat="45.99231" lon="4.70716">
        <ele>196</ele>
        <time>2017-04-24T11:27:31Z</time>
      </trkpt>
      <trkpt lat="45.99225" lon="4.70716">
        <ele>196</ele>
        <time>2017-04-24T11:27:32Z</time>
      </trkpt>
      <trkpt lat="45.99219" lon="4.70716">
        <ele>196</ele>
        <time>2017-04-24T11:27:33Z</time>
      </trkpt>
      <trkpt lat="45.99214" lon="4.70716">
        <ele>196</ele>
        <time>2017-04-24T11:27:34Z</time>
      </trkpt>
      <trkpt lat="45.99208" lon="4.70716">
        <ele>196</ele>
        <time>2017-04-24T11:27:35Z</time>
      </trkpt>
      <trkpt lat="45.99203" lon="4.70715">
        <ele>196</ele>
        <time>2017-04-24T11:27:36Z</time>
      </trkpt>
      <trkpt lat="45.99197" lon="4.70715">
        <ele>196</ele>
        <time>2017-04-24T11:27:37Z</time>
      </trkpt>
      <trkpt lat="45.99192" lon="4.70715">
        <ele>196</ele>
        <time>2017-04-24T11:27:38Z</time>
      </trkpt>
      <trkpt lat="45.99187" lon="4.70715">
        <ele>196</ele>
        <time>2017-04-24T11:27:39Z</time>
      </trkpt>
      <trkpt lat="45.99181" lon="4.70715">
        <ele>196</ele>
        <time>2017-04-24T11:27:40Z</time>
      </trkpt>
      <trkpt lat="45.99176" lon="4.70714">
        <ele>196</ele>
        <time>2017-04-24T11:27:41Z</time>
      </trkpt>
      <trkpt lat="45.9917" lon="4.70715">
        <ele>196</ele>
        <time>2017-04-24T11:27:42Z</time>
      </trkpt>
      <trkpt lat="45.99164" lon="4.70716">
        <ele>195</ele>
        <time>2017-04-24T11:27:43Z</time>
      </trkpt>
      <trkpt lat="45.99158" lon="4.70716">
        <ele>195</ele>
        <time>2017-04-24T11:27:44Z</time>
      </trkpt>
      <trkpt lat="45.99152" lon="4.70716">
        <ele>195</ele>
        <time>2017-04-24T11:27:45Z</time>
      </trkpt>
      <trkpt lat="45.99145" lon="4.70717">
        <ele>195</ele>
        <time>2017-04-24T11:27:46Z</time>
      </trkpt>
      <trkpt lat="45.99139" lon="4.70716">
        <ele>195</ele>
        <time>2017-04-24T11:27:47Z</time>
      </trkpt>
      <trkpt lat="45.9913" lon="4.70715">
        <ele>195</ele>
        <time>2017-04-24T11:27:48Z</time>
      </trkpt>
      <trkpt lat="45.99124" lon="4.70715">
        <ele>195</ele>
        <time>2017-04-24T11:27:49Z</time>
      </trkpt>
      <trkpt lat="45.99118" lon="4.70715">
        <ele>195</ele>
        <time>2017-04-24T11:27:50Z</time>
      </trkpt>
      <trkpt lat="45.99112" lon="4.70715">
        <ele>195</ele>
        <time>2017-04-24T11:27:51Z</time>
      </trkpt>
      <trkpt lat="45.99105" lon="4.70715">
        <ele>194</ele>
        <time>2017-04-24T11:27:52Z</time>
      </trkpt>
      <trkpt lat="45.99098" lon="4.70715">
        <ele>194</ele>
        <time>2017-04-24T11:27:53Z</time>
      </trkpt>
      <trkpt lat="45.99093" lon="4.70715">
        <ele>194</ele>
        <time>2017-04-24T11:27:54Z</time>
      </trkpt>
      <trkpt lat="45.99087" lon="4.70715">
        <ele>194</ele>
        <time>2017-04-24T11:27:55Z</time>
      </trkpt>
      <trkpt lat="45.99082" lon="4.70715">
        <ele>193</ele>
        <time>2017-04-24T11:27:56Z</time>
      </trkpt>
      <trkpt lat="45.99075" lon="4.70715">
        <ele>193</ele>
        <time>2017-04-24T11:27:58Z</time>
      </trkpt>
      <trkpt lat="45.99072" lon="4.70714">
        <ele>193</ele>
        <time>2017-04-24T11:27:59Z</time>
      </trkpt>
      <trkpt lat="45.99063" lon="4.70714">
        <ele>193</ele>
        <time>2017-04-24T11:28:03Z</time>
      </trkpt>
      <trkpt lat="45.9906" lon="4.70713">
        <ele>193</ele>
        <time>2017-04-24T11:28:04Z</time>
      </trkpt>
      <trkpt lat="45.99055" lon="4.70714">
        <ele>193</ele>
        <time>2017-04-24T11:28:05Z</time>
      </trkpt>
      <trkpt lat="45.9905" lon="4.70715">
        <ele>193</ele>
        <time>2017-04-24T11:28:06Z</time>
      </trkpt>
      <trkpt lat="45.99045" lon="4.70716">
        <ele>192</ele>
        <time>2017-04-24T11:28:07Z</time>
      </trkpt>
      <trkpt lat="45.99039" lon="4.70717">
        <ele>192</ele>
        <time>2017-04-24T11:28:08Z</time>
      </trkpt>
      <trkpt lat="45.99033" lon="4.70717">
        <ele>192</ele>
        <time>2017-04-24T11:28:09Z</time>
      </trkpt>
      <trkpt lat="45.99026" lon="4.70718">
        <ele>192</ele>
        <time>2017-04-24T11:28:10Z</time>
      </trkpt>
      <trkpt lat="45.99022" lon="4.70719">
        <ele>192</ele>
        <time>2017-04-24T11:28:11Z</time>
      </trkpt>
      <trkpt lat="45.99016" lon="4.7072">
        <ele>192</ele>
        <time>2017-04-24T11:28:12Z</time>
      </trkpt>
      <trkpt lat="45.99011" lon="4.70721">
        <ele>192</ele>
        <time>2017-04-24T11:28:13Z</time>
      </trkpt>
      <trkpt lat="45.99006" lon="4.70723">
        <ele>192</ele>
        <time>2017-04-24T11:28:14Z</time>
      </trkpt>
      <trkpt lat="45.99001" lon="4.70725">
        <ele>192</ele>
        <time>2017-04-24T11:28:15Z</time>
      </trkpt>
      <trkpt lat="45.98995" lon="4.70728">
        <ele>191</ele>
        <time>2017-04-24T11:28:16Z</time>
      </trkpt>
      <trkpt lat="45.98988" lon="4.70733">
        <ele>190</ele>
        <time>2017-04-24T11:28:17Z</time>
      </trkpt>
      <trkpt lat="45.98983" lon="4.70739">
        <ele>190</ele>
        <time>2017-04-24T11:28:18Z</time>
      </trkpt>
      <trkpt lat="45.98978" lon="4.70747">
        <ele>190</ele>
        <time>2017-04-24T11:28:19Z</time>
      </trkpt>
      <trkpt lat="45.98974" lon="4.70755">
        <ele>189</ele>
        <time>2017-04-24T11:28:20Z</time>
      </trkpt>
      <trkpt lat="45.9897" lon="4.70762">
        <ele>189</ele>
        <time>2017-04-24T11:28:21Z</time>
      </trkpt>
      <trkpt lat="45.98965" lon="4.70771">
        <ele>189</ele>
        <time>2017-04-24T11:28:22Z</time>
      </trkpt>
      <trkpt lat="45.9896" lon="4.70779">
        <ele>189</ele>
        <time>2017-04-24T11:28:23Z</time>
      </trkpt>
      <trkpt lat="45.98956" lon="4.70787">
        <ele>189</ele>
        <time>2017-04-24T11:28:24Z</time>
      </trkpt>
      <trkpt lat="45.98953" lon="4.70796">
        <ele>189</ele>
        <time>2017-04-24T11:28:25Z</time>
      </trkpt>
      <trkpt lat="45.98948" lon="4.70804">
        <ele>189</ele>
        <time>2017-04-24T11:28:26Z</time>
      </trkpt>
      <trkpt lat="45.98944" lon="4.70812">
        <ele>188</ele>
        <time>2017-04-24T11:28:27Z</time>
      </trkpt>
      <trkpt lat="45.98938" lon="4.70821">
        <ele>188</ele>
        <time>2017-04-24T11:28:28Z</time>
      </trkpt>
      <trkpt lat="45.98933" lon="4.70829">
        <ele>188</ele>
        <time>2017-04-24T11:28:29Z</time>
      </trkpt>
      <trkpt lat="45.98926" lon="4.70838">
        <ele>187</ele>
        <time>2017-04-24T11:28:30Z</time>
      </trkpt>
      <trkpt lat="45.9892" lon="4.70847">
        <ele>187</ele>
        <time>2017-04-24T11:28:31Z</time>
      </trkpt>
      <trkpt lat="45.98915" lon="4.70854">
        <ele>186</ele>
        <time>2017-04-24T11:28:32Z</time>
      </trkpt>
      <trkpt lat="45.98911" lon="4.70863">
        <ele>186</ele>
        <time>2017-04-24T11:28:33Z</time>
      </trkpt>
      <trkpt lat="45.98907" lon="4.70871">
        <ele>186</ele>
        <time>2017-04-24T11:28:34Z</time>
      </trkpt>
      <trkpt lat="45.98903" lon="4.70881">
        <ele>186</ele>
        <time>2017-04-24T11:28:35Z</time>
      </trkpt>
      <trkpt lat="45.98901" lon="4.7089">
        <ele>186</ele>
        <time>2017-04-24T11:28:36Z</time>
      </trkpt>
      <trkpt lat="45.98896" lon="4.70899">
        <ele>186</ele>
        <time>2017-04-24T11:28:37Z</time>
      </trkpt>
      <trkpt lat="45.98893" lon="4.70907">
        <ele>186</ele>
        <time>2017-04-24T11:28:38Z</time>
      </trkpt>
      <trkpt lat="45.98889" lon="4.70914">
        <ele>186</ele>
        <time>2017-04-24T11:28:39Z</time>
      </trkpt>
      <trkpt lat="45.98885" lon="4.70921">
        <ele>185</ele>
        <time>2017-04-24T11:28:40Z</time>
      </trkpt>
      <trkpt lat="45.98883" lon="4.70929">
        <ele>185</ele>
        <time>2017-04-24T11:28:41Z</time>
      </trkpt>
      <trkpt lat="45.98881" lon="4.70936">
        <ele>185</ele>
        <time>2017-04-24T11:28:42Z</time>
      </trkpt>
      <trkpt lat="45.98878" lon="4.70944">
        <ele>185</ele>
        <time>2017-04-24T11:28:43Z</time>
      </trkpt>
      <trkpt lat="45.98876" lon="4.70951">
        <ele>185</ele>
        <time>2017-04-24T11:28:44Z</time>
      </trkpt>
      <trkpt lat="45.98874" lon="4.70959">
        <ele>185</ele>
        <time>2017-04-24T11:28:45Z</time>
      </trkpt>
      <trkpt lat="45.98872" lon="4.70966">
        <ele>185</ele>
        <time>2017-04-24T11:28:46Z</time>
      </trkpt>
      <trkpt lat="45.98869" lon="4.70973">
        <ele>185</ele>
        <time>2017-04-24T11:28:47Z</time>
      </trkpt>
      <trkpt lat="45.98867" lon="4.7098">
        <ele>185</ele>
        <time>2017-04-24T11:28:48Z</time>
      </trkpt>
      <trkpt lat="45.98865" lon="4.70987">
        <ele>185</ele>
        <time>2017-04-24T11:28:49Z</time>
      </trkpt>
      <trkpt lat="45.98861" lon="4.70993">
        <ele>185</ele>
        <time>2017-04-24T11:28:50Z</time>
      </trkpt>
      <trkpt lat="45.98857" lon="4.70999">
        <ele>185</ele>
        <time>2017-04-24T11:28:51Z</time>
      </trkpt>
      <trkpt lat="45.98854" lon="4.71006">
        <ele>185</ele>
        <time>2017-04-24T11:28:52Z</time>
      </trkpt>
      <trkpt lat="45.9885" lon="4.71012">
        <ele>185</ele>
        <time>2017-04-24T11:28:53Z</time>
      </trkpt>
      <trkpt lat="45.98845" lon="4.71018">
        <ele>185</ele>
        <time>2017-04-24T11:28:54Z</time>
      </trkpt>
      <trkpt lat="45.98841" lon="4.71024">
        <ele>185</ele>
        <time>2017-04-24T11:28:55Z</time>
      </trkpt>
      <trkpt lat="45.98837" lon="4.7103">
        <ele>186</ele>
        <time>2017-04-24T11:28:56Z</time>
      </trkpt>
      <trkpt lat="45.98833" lon="4.71037">
        <ele>187</ele>
        <time>2017-04-24T11:28:57Z</time>
      </trkpt>
      <trkpt lat="45.9883" lon="4.71044">
        <ele>187</ele>
        <time>2017-04-24T11:28:58Z</time>
      </trkpt>
      <trkpt lat="45.98827" lon="4.71052">
        <ele>187</ele>
        <time>2017-04-24T11:28:59Z</time>
      </trkpt>
      <trkpt lat="45.98825" lon="4.7106">
        <ele>187</ele>
        <time>2017-04-24T11:29:00Z</time>
      </trkpt>
      <trkpt lat="45.98822" lon="4.71067">
        <ele>187</ele>
        <time>2017-04-24T11:29:01Z</time>
      </trkpt>
      <trkpt lat="45.9882" lon="4.71075">
        <ele>187</ele>
        <time>2017-04-24T11:29:02Z</time>
      </trkpt>
      <trkpt lat="45.98817" lon="4.71082">
        <ele>187</ele>
        <time>2017-04-24T11:29:03Z</time>
      </trkpt>
      <trkpt lat="45.98815" lon="4.71089">
        <ele>188</ele>
        <time>2017-04-24T11:29:04Z</time>
      </trkpt>
      <trkpt lat="45.98814" lon="4.71095">
        <ele>188</ele>
        <time>2017-04-24T11:29:05Z</time>
      </trkpt>
      <trkpt lat="45.98812" lon="4.71102">
        <ele>188</ele>
        <time>2017-04-24T11:29:06Z</time>
      </trkpt>
      <trkpt lat="45.98809" lon="4.71114">
        <ele>187</ele>
        <time>2017-04-24T11:29:08Z</time>
      </trkpt>
      <trkpt lat="45.98808" lon="4.71122">
        <ele>187</ele>
        <time>2017-04-24T11:29:09Z</time>
      </trkpt>
      <trkpt lat="45.98806" lon="4.7113">
        <ele>187</ele>
        <time>2017-04-24T11:29:10Z</time>
      </trkpt>
      <trkpt lat="45.98804" lon="4.71137">
        <ele>187</ele>
        <time>2017-04-24T11:29:11Z</time>
      </trkpt>
      <trkpt lat="45.98803" lon="4.71144">
        <ele>187</ele>
        <time>2017-04-24T11:29:12Z</time>
      </trkpt>
      <trkpt lat="45.988" lon="4.71151">
        <ele>187</ele>
        <time>2017-04-24T11:29:13Z</time>
      </trkpt>
      <trkpt lat="45.98798" lon="4.71158">
        <ele>187</ele>
        <time>2017-04-24T11:29:14Z</time>
      </trkpt>
      <trkpt lat="45.98796" lon="4.71164">
        <ele>187</ele>
        <time>2017-04-24T11:29:15Z</time>
      </trkpt>
      <trkpt lat="45.98793" lon="4.7117">
        <ele>186</ele>
        <time>2017-04-24T11:29:16Z</time>
      </trkpt>
      <trkpt lat="45.9879" lon="4.71176">
        <ele>186</ele>
        <time>2017-04-24T11:29:17Z</time>
      </trkpt>
      <trkpt lat="45.98787" lon="4.71182">
        <ele>186</ele>
        <time>2017-04-24T11:29:18Z</time>
      </trkpt>
      <trkpt lat="45.98785" lon="4.71187">
        <ele>186</ele>
        <time>2017-04-24T11:29:19Z</time>
      </trkpt>
      <trkpt lat="45.98783" lon="4.71192">
        <ele>186</ele>
        <time>2017-04-24T11:29:20Z</time>
      </trkpt>
      <trkpt lat="45.98779" lon="4.71199">
        <ele>186</ele>
        <time>2017-04-24T11:29:21Z</time>
      </trkpt>
      <trkpt lat="45.98776" lon="4.7121">
        <ele>186</ele>
        <time>2017-04-24T11:29:23Z</time>
      </trkpt>
      <trkpt lat="45.98774" lon="4.71218">
        <ele>186</ele>
        <time>2017-04-24T11:29:24Z</time>
      </trkpt>
      <trkpt lat="45.98771" lon="4.71224">
        <ele>186</ele>
        <time>2017-04-24T11:29:25Z</time>
      </trkpt>
      <trkpt lat="45.98768" lon="4.7123">
        <ele>186</ele>
        <time>2017-04-24T11:29:26Z</time>
      </trkpt>
      <trkpt lat="45.98766" lon="4.71236">
        <ele>186</ele>
        <time>2017-04-24T11:29:27Z</time>
      </trkpt>
      <trkpt lat="45.98764" lon="4.71243">
        <ele>186</ele>
        <time>2017-04-24T11:29:28Z</time>
      </trkpt>
      <trkpt lat="45.98763" lon="4.71251">
        <ele>186</ele>
        <time>2017-04-24T11:29:29Z</time>
      </trkpt>
      <trkpt lat="45.98761" lon="4.71258">
        <ele>186</ele>
        <time>2017-04-24T11:29:30Z</time>
      </trkpt>
      <trkpt lat="45.98759" lon="4.71265">
        <ele>186</ele>
        <time>2017-04-24T11:29:31Z</time>
      </trkpt>
      <trkpt lat="45.98756" lon="4.71271">
        <ele>186</ele>
        <time>2017-04-24T11:29:32Z</time>
      </trkpt>
      <trkpt lat="45.98755" lon="4.71278">
        <ele>186</ele>
        <time>2017-04-24T11:29:33Z</time>
      </trkpt>
      <trkpt lat="45.98753" lon="4.71284">
        <ele>186</ele>
        <time>2017-04-24T11:29:34Z</time>
      </trkpt>
      <trkpt lat="45.9875" lon="4.7129">
        <ele>185</ele>
        <time>2017-04-24T11:29:35Z</time>
      </trkpt>
      <trkpt lat="45.98749" lon="4.71296">
        <ele>188</ele>
        <time>2017-04-24T11:29:36Z</time>
      </trkpt>
      <trkpt lat="45.98747" lon="4.71302">
        <ele>188</ele>
        <time>2017-04-24T11:29:37Z</time>
      </trkpt>
      <trkpt lat="45.98745" lon="4.71308">
        <ele>188</ele>
        <time>2017-04-24T11:29:38Z</time>
      </trkpt>
      <trkpt lat="45.98741" lon="4.71319">
        <ele>187</ele>
        <time>2017-04-24T11:29:40Z</time>
      </trkpt>
      <trkpt lat="45.98739" lon="4.71325">
        <ele>187</ele>
        <time>2017-04-24T11:29:41Z</time>
      </trkpt>
      <trkpt lat="45.98735" lon="4.71336">
        <ele>187</ele>
        <time>2017-04-24T11:29:43Z</time>
      </trkpt>
      <trkpt lat="45.98733" lon="4.71342">
        <ele>187</ele>
        <time>2017-04-24T11:29:44Z</time>
      </trkpt>
      <trkpt lat="45.98732" lon="4.71351">
        <ele>187</ele>
        <time>2017-04-24T11:29:45Z</time>
      </trkpt>
      <trkpt lat="45.98734" lon="4.71363">
        <ele>187</ele>
        <time>2017-04-24T11:29:46Z</time>
      </trkpt>
      <trkpt lat="45.98734" lon="4.7137">
        <ele>187</ele>
        <time>2017-04-24T11:29:47Z</time>
      </trkpt>
      <trkpt lat="45.98734" lon="4.71377">
        <ele>187</ele>
        <time>2017-04-24T11:29:48Z</time>
      </trkpt>
      <trkpt lat="45.98733" lon="4.71383">
        <ele>187</ele>
        <time>2017-04-24T11:29:49Z</time>
      </trkpt>
      <trkpt lat="45.98731" lon="4.7139">
        <ele>187</ele>
        <time>2017-04-24T11:29:50Z</time>
      </trkpt>
      <trkpt lat="45.98729" lon="4.71401">
        <ele>186</ele>
        <time>2017-04-24T11:29:52Z</time>
      </trkpt>
      <trkpt lat="45.98728" lon="4.71405">
        <ele>186</ele>
        <time>2017-04-24T11:29:53Z</time>
      </trkpt>
      <trkpt lat="45.98729" lon="4.71411">
        <ele>186</ele>
        <time>2017-04-24T11:29:55Z</time>
      </trkpt>
      <trkpt lat="45.9873" lon="4.71413">
        <ele>186</ele>
        <time>2017-04-24T11:29:56Z</time>
      </trkpt>
      <trkpt lat="45.98734" lon="4.7142">
        <ele>185</ele>
        <time>2017-04-24T11:30:01Z</time>
      </trkpt>
      <trkpt lat="45.98734" lon="4.71423">
        <ele>185</ele>
        <time>2017-04-24T11:30:02Z</time>
      </trkpt>
      <trkpt lat="45.98733" lon="4.71435">
        <ele>186</ele>
        <time>2017-04-24T11:30:06Z</time>
      </trkpt>
      <trkpt lat="45.98732" lon="4.71437">
        <ele>186</ele>
        <time>2017-04-24T11:30:07Z</time>
      </trkpt>
      <trkpt lat="45.98728" lon="4.71447">
        <ele>186</ele>
        <time>2017-04-24T11:30:10Z</time>
      </trkpt>
      <trkpt lat="45.98726" lon="4.71451">
        <ele>186</ele>
        <time>2017-04-24T11:30:11Z</time>
      </trkpt>
      <trkpt lat="45.9872" lon="4.7146">
        <ele>186</ele>
        <time>2017-04-24T11:30:13Z</time>
      </trkpt>
      <trkpt lat="45.9872" lon="4.71465">
        <ele>186</ele>
        <time>2017-04-24T11:30:14Z</time>
      </trkpt>
      <trkpt lat="45.98717" lon="4.71476">
        <ele>186</ele>
        <time>2017-04-24T11:30:16Z</time>
      </trkpt>
      <trkpt lat="45.98712" lon="4.71478">
        <ele>186</ele>
        <time>2017-04-24T11:30:17Z</time>
      </trkpt>
      <trkpt lat="45.98707" lon="4.71478">
        <ele>187</ele>
        <time>2017-04-24T11:30:18Z</time>
      </trkpt>
      <trkpt lat="45.98702" lon="4.71479">
        <ele>187</ele>
        <time>2017-04-24T11:30:19Z</time>
      </trkpt>
      <trkpt lat="45.98693" lon="4.71479">
        <ele>187</ele>
        <time>2017-04-24T11:30:21Z</time>
      </trkpt>
      <trkpt lat="45.98689" lon="4.71479">
        <ele>187</ele>
        <time>2017-04-24T11:30:22Z</time>
      </trkpt>
      <trkpt lat="45.98683" lon="4.71479">
        <ele>187</ele>
        <time>2017-04-24T11:30:24Z</time>
      </trkpt>
      <trkpt lat="45.9868" lon="4.7148">
        <ele>188</ele>
        <time>2017-04-24T11:30:25Z</time>
      </trkpt>
      <trkpt lat="45.98672" lon="4.71483">
        <ele>188</ele>
        <time>2017-04-24T11:30:27Z</time>
      </trkpt>
      <trkpt lat="45.98669" lon="4.71485">
        <ele>188</ele>
        <time>2017-04-24T11:30:28Z</time>
      </trkpt>
      <trkpt lat="45.98661" lon="4.71487">
        <ele>190</ele>
        <time>2017-04-24T11:30:30Z</time>
      </trkpt>
      <trkpt lat="45.98658" lon="4.71488">
        <ele>190</ele>
        <time>2017-04-24T11:30:31Z</time>
      </trkpt>
      <trkpt lat="45.98649" lon="4.7149">
        <ele>190</ele>
        <time>2017-04-24T11:30:34Z</time>
      </trkpt>
      <trkpt lat="45.98646" lon="4.71492">
        <ele>190</ele>
        <time>2017-04-24T11:30:35Z</time>
      </trkpt>
      <trkpt lat="45.98639" lon="4.71492">
        <ele>190</ele>
        <time>2017-04-24T11:30:38Z</time>
      </trkpt>
      <trkpt lat="45.98637" lon="4.71492">
        <ele>190</ele>
        <time>2017-04-24T11:30:39Z</time>
      </trkpt>
      <trkpt lat="45.98629" lon="4.71493">
        <ele>190</ele>
        <time>2017-04-24T11:30:41Z</time>
      </trkpt>
      <trkpt lat="45.98622" lon="4.71495">
        <ele>190</ele>
        <time>2017-04-24T11:30:42Z</time>
      </trkpt>
      <trkpt lat="45.98617" lon="4.71496">
        <ele>191</ele>
        <time>2017-04-24T11:30:43Z</time>
      </trkpt>
      <trkpt lat="45.98613" lon="4.71498">
        <ele>191</ele>
        <time>2017-04-24T11:30:44Z</time>
      </trkpt>
      <trkpt lat="45.98605" lon="4.71499">
        <ele>191</ele>
        <time>2017-04-24T11:30:47Z</time>
      </trkpt>
      <trkpt lat="45.98604" lon="4.71499">
        <ele>191</ele>
        <time>2017-04-24T11:30:48Z</time>
      </trkpt>
      <trkpt lat="45.98596" lon="4.71505">
        <ele>192</ele>
        <time>2017-04-24T11:30:51Z</time>
      </trkpt>
      <trkpt lat="45.98593" lon="4.71507">
        <ele>192</ele>
        <time>2017-04-24T11:30:52Z</time>
      </trkpt>
      <trkpt lat="45.98584" lon="4.7151">
        <ele>192</ele>
        <time>2017-04-24T11:30:54Z</time>
      </trkpt>
      <trkpt lat="45.9858" lon="4.71514">
        <ele>193</ele>
        <time>2017-04-24T11:30:55Z</time>
      </trkpt>
      <trkpt lat="45.98574" lon="4.71518">
        <ele>193</ele>
        <time>2017-04-24T11:30:57Z</time>
      </trkpt>
      <trkpt lat="45.98571" lon="4.71519">
        <ele>193</ele>
        <time>2017-04-24T11:30:58Z</time>
      </trkpt>
      <trkpt lat="45.98565" lon="4.71522">
        <ele>194</ele>
        <time>2017-04-24T11:31:00Z</time>
      </trkpt>
      <trkpt lat="45.98562" lon="4.71523">
        <ele>194</ele>
        <time>2017-04-24T11:31:01Z</time>
      </trkpt>
      <trkpt lat="45.98554" lon="4.71526">
        <ele>194</ele>
        <time>2017-04-24T11:31:04Z</time>
      </trkpt>
      <trkpt lat="45.98551" lon="4.71527">
        <ele>194</ele>
        <time>2017-04-24T11:31:05Z</time>
      </trkpt>
      <trkpt lat="45.98544" lon="4.7153">
        <ele>194</ele>
        <time>2017-04-24T11:31:09Z</time>
      </trkpt>
      <trkpt lat="45.98542" lon="4.71531">
        <ele>194</ele>
        <time>2017-04-24T11:31:10Z</time>
      </trkpt>
      <trkpt lat="45.98534" lon="4.71531">
        <ele>194</ele>
        <time>2017-04-24T11:31:33Z</time>
      </trkpt>
      <trkpt lat="45.98531" lon="4.71532">
        <ele>194</ele>
        <time>2017-04-24T11:31:34Z</time>
      </trkpt>
      <trkpt lat="45.98524" lon="4.71533">
        <ele>194</ele>
        <time>2017-04-24T11:31:38Z</time>
      </trkpt>
      <trkpt lat="45.98521" lon="4.71534">
        <ele>194</ele>
        <time>2017-04-24T11:31:39Z</time>
      </trkpt>
      <trkpt lat="45.98515" lon="4.71536">
        <ele>195</ele>
        <time>2017-04-24T11:31:42Z</time>
      </trkpt>
      <trkpt lat="45.9851" lon="4.71534">
        <ele>195</ele>
        <time>2017-04-24T11:31:43Z</time>
      </trkpt>
      <trkpt lat="45.98504" lon="4.71524">
        <ele>195</ele>
        <time>2017-04-24T11:31:47Z</time>
      </trkpt>
      <trkpt lat="45.98502" lon="4.71524">
        <ele>195</ele>
        <time>2017-04-24T11:31:48Z</time>
      </trkpt>
      <trkpt lat="45.98494" lon="4.71527">
        <ele>196</ele>
        <time>2017-04-24T11:31:53Z</time>
      </trkpt>
      <trkpt lat="45.98492" lon="4.71528">
        <ele>196</ele>
        <time>2017-04-24T11:31:54Z</time>
      </trkpt>
      <trkpt lat="45.98485" lon="4.71531">
        <ele>196</ele>
        <time>2017-04-24T11:31:57Z</time>
      </trkpt>
      <trkpt lat="45.98483" lon="4.71531">
        <ele>196</ele>
        <time>2017-04-24T11:31:58Z</time>
      </trkpt>
      <trkpt lat="45.98475" lon="4.71533">
        <ele>196</ele>
        <time>2017-04-24T11:32:01Z</time>
      </trkpt>
      <trkpt lat="45.98473" lon="4.71534">
        <ele>197</ele>
        <time>2017-04-24T11:32:02Z</time>
      </trkpt>
      <trkpt lat="45.98467" lon="4.71536">
        <ele>197</ele>
        <time>2017-04-24T11:32:04Z</time>
      </trkpt>
      <trkpt lat="45.98463" lon="4.71537">
        <ele>197</ele>
        <time>2017-04-24T11:32:05Z</time>
      </trkpt>
      <trkpt lat="45.98455" lon="4.71539">
        <ele>197</ele>
        <time>2017-04-24T11:32:07Z</time>
      </trkpt>
      <trkpt lat="45.98451" lon="4.71541">
        <ele>197</ele>
        <time>2017-04-24T11:32:08Z</time>
      </trkpt>
      <trkpt lat="45.98443" lon="4.71545">
        <ele>197</ele>
        <time>2017-04-24T11:32:15Z</time>
      </trkpt>
      <trkpt lat="45.98442" lon="4.71545">
        <ele>197</ele>
        <time>2017-04-24T11:32:16Z</time>
      </trkpt>
      <trkpt lat="45.98443" lon="4.71545">
        <ele>197</ele>
        <time>2017-04-24T11:32:17Z</time>
      </trkpt>
      <trkpt lat="45.98442" lon="4.71547">
        <ele>197</ele>
        <time>2017-04-24T11:33:19Z</time>
      </trkpt>
      <trkpt lat="45.98434" lon="4.71552">
        <ele>197</ele>
        <time>2017-04-24T11:33:20Z</time>
      </trkpt>
      <trkpt lat="45.9843" lon="4.71558">
        <ele>197</ele>
        <time>2017-04-24T11:33:23Z</time>
      </trkpt>
      <trkpt lat="45.98426" lon="4.71562">
        <ele>197</ele>
        <time>2017-04-24T11:33:24Z</time>
      </trkpt>
      <trkpt lat="45.9842" lon="4.71569">
        <ele>197</ele>
        <time>2017-04-24T11:33:26Z</time>
      </trkpt>
      <trkpt lat="45.98418" lon="4.71573">
        <ele>197</ele>
        <time>2017-04-24T11:33:27Z</time>
      </trkpt>
      <trkpt lat="45.9841" lon="4.71579">
        <ele>197</ele>
        <time>2017-04-24T11:33:29Z</time>
      </trkpt>
      <trkpt lat="45.98406" lon="4.71581">
        <ele>198</ele>
        <time>2017-04-24T11:33:30Z</time>
      </trkpt>
      <trkpt lat="45.984" lon="4.71588">
        <ele>197</ele>
        <time>2017-04-24T11:33:32Z</time>
      </trkpt>
      <trkpt lat="45.98396" lon="4.71592">
        <ele>198</ele>
        <time>2017-04-24T11:33:33Z</time>
      </trkpt>
      <trkpt lat="45.98391" lon="4.71594">
        <ele>198</ele>
        <time>2017-04-24T11:33:34Z</time>
      </trkpt>
      <trkpt lat="45.98386" lon="4.71594">
        <ele>198</ele>
        <time>2017-04-24T11:33:35Z</time>
      </trkpt>
      <trkpt lat="45.98381" lon="4.71594">
        <ele>198</ele>
        <time>2017-04-24T11:33:36Z</time>
      </trkpt>
      <trkpt lat="45.98377" lon="4.71594">
        <ele>198</ele>
        <time>2017-04-24T11:33:37Z</time>
      </trkpt>
      <trkpt lat="45.98372" lon="4.71593">
        <ele>198</ele>
        <time>2017-04-24T11:33:38Z</time>
      </trkpt>
      <trkpt lat="45.98367" lon="4.71591">
        <ele>198</ele>
        <time>2017-04-24T11:33:39Z</time>
      </trkpt>
      <trkpt lat="45.98361" lon="4.7159">
        <ele>198</ele>
        <time>2017-04-24T11:33:40Z</time>
      </trkpt>
      <trkpt lat="45.98355" lon="4.71587">
        <ele>198</ele>
        <time>2017-04-24T11:33:41Z</time>
      </trkpt>
      <trkpt lat="45.98347" lon="4.71583">
        <ele>199</ele>
        <time>2017-04-24T11:33:43Z</time>
      </trkpt>
      <trkpt lat="45.98344" lon="4.71581">
        <ele>199</ele>
        <time>2017-04-24T11:33:44Z</time>
      </trkpt>
      <trkpt lat="45.98336" lon="4.71576">
        <ele>199</ele>
        <time>2017-04-24T11:33:46Z</time>
      </trkpt>
      <trkpt lat="45.98332" lon="4.71571">
        <ele>199</ele>
        <time>2017-04-24T11:33:47Z</time>
      </trkpt>
      <trkpt lat="45.98326" lon="4.71569">
        <ele>198</ele>
        <time>2017-04-24T11:33:48Z</time>
      </trkpt>
      <trkpt lat="45.98321" lon="4.71566">
        <ele>198</ele>
        <time>2017-04-24T11:33:49Z</time>
      </trkpt>
      <trkpt lat="45.98317" lon="4.71563">
        <ele>198</ele>
        <time>2017-04-24T11:33:50Z</time>
      </trkpt>
      <trkpt lat="45.98313" lon="4.71561">
        <ele>198</ele>
        <time>2017-04-24T11:33:51Z</time>
      </trkpt>
      <trkpt lat="45.98306" lon="4.71555">
        <ele>198</ele>
        <time>2017-04-24T11:33:53Z</time>
      </trkpt>
      <trkpt lat="45.98302" lon="4.71553">
        <ele>198</ele>
        <time>2017-04-24T11:33:54Z</time>
      </trkpt>
      <trkpt lat="45.98295" lon="4.71548">
        <ele>198</ele>
        <time>2017-04-24T11:33:56Z</time>
      </trkpt>
      <trkpt lat="45.98288" lon="4.71546">
        <ele>198</ele>
        <time>2017-04-24T11:33:57Z</time>
      </trkpt>
      <trkpt lat="45.98284" lon="4.71544">
        <ele>198</ele>
        <time>2017-04-24T11:33:58Z</time>
      </trkpt>
      <trkpt lat="45.98279" lon="4.71541">
        <ele>198</ele>
        <time>2017-04-24T11:33:59Z</time>
      </trkpt>
      <trkpt lat="45.98274" lon="4.71538">
        <ele>197</ele>
        <time>2017-04-24T11:34:00Z</time>
      </trkpt>
      <trkpt lat="45.98269" lon="4.71535">
        <ele>197</ele>
        <time>2017-04-24T11:34:01Z</time>
      </trkpt>
      <trkpt lat="45.98264" lon="4.71533">
        <ele>197</ele>
        <time>2017-04-24T11:34:02Z</time>
      </trkpt>
      <trkpt lat="45.98259" lon="4.71531">
        <ele>197</ele>
        <time>2017-04-24T11:34:03Z</time>
      </trkpt>
      <trkpt lat="45.98253" lon="4.71529">
        <ele>197</ele>
        <time>2017-04-24T11:34:04Z</time>
      </trkpt>
      <trkpt lat="45.98249" lon="4.71526">
        <ele>196</ele>
        <time>2017-04-24T11:34:05Z</time>
      </trkpt>
      <trkpt lat="45.98244" lon="4.71524">
        <ele>196</ele>
        <time>2017-04-24T11:34:06Z</time>
      </trkpt>
      <trkpt lat="45.9824" lon="4.71522">
        <ele>196</ele>
        <time>2017-04-24T11:34:07Z</time>
      </trkpt>
      <trkpt lat="45.98231" lon="4.71518">
        <ele>196</ele>
        <time>2017-04-24T11:34:09Z</time>
      </trkpt>
      <trkpt lat="45.98227" lon="4.71515">
        <ele>196</ele>
        <time>2017-04-24T11:34:10Z</time>
      </trkpt>
      <trkpt lat="45.98222" lon="4.71512">
        <ele>196</ele>
        <time>2017-04-24T11:34:11Z</time>
      </trkpt>
      <trkpt lat="45.98218" lon="4.7151">
        <ele>196</ele>
        <time>2017-04-24T11:34:12Z</time>
      </trkpt>
      <trkpt lat="45.98209" lon="4.71505">
        <ele>196</ele>
        <time>2017-04-24T11:34:14Z</time>
      </trkpt>
      <trkpt lat="45.98204" lon="4.71503">
        <ele>197</ele>
        <time>2017-04-24T11:34:15Z</time>
      </trkpt>
      <trkpt lat="45.98197" lon="4.71501">
        <ele>197</ele>
        <time>2017-04-24T11:34:17Z</time>
      </trkpt>
      <trkpt lat="45.98193" lon="4.715">
        <ele>197</ele>
        <time>2017-04-24T11:34:18Z</time>
      </trkpt>
      <trkpt lat="45.98186" lon="4.71499">
        <ele>197</ele>
        <time>2017-04-24T11:34:20Z</time>
      </trkpt>
      <trkpt lat="45.98183" lon="4.71499">
        <ele>197</ele>
        <time>2017-04-24T11:34:21Z</time>
      </trkpt>
      <trkpt lat="45.98178" lon="4.71501">
        <ele>197</ele>
        <time>2017-04-24T11:34:23Z</time>
      </trkpt>
      <trkpt lat="45.98174" lon="4.71503">
        <ele>197</ele>
        <time>2017-04-24T11:34:24Z</time>
      </trkpt>
      <trkpt lat="45.98168" lon="4.71509">
        <ele>197</ele>
        <time>2017-04-24T11:34:26Z</time>
      </trkpt>
      <trkpt lat="45.98164" lon="4.71512">
        <ele>197</ele>
        <time>2017-04-24T11:34:27Z</time>
      </trkpt>
      <trkpt lat="45.9816" lon="4.71515">
        <ele>197</ele>
        <time>2017-04-24T11:34:28Z</time>
      </trkpt>
      <trkpt lat="45.98156" lon="4.71518">
        <ele>197</ele>
        <time>2017-04-24T11:34:29Z</time>
      </trkpt>
      <trkpt lat="45.98152" lon="4.71521">
        <ele>197</ele>
        <time>2017-04-24T11:34:30Z</time>
      </trkpt>
      <trkpt lat="45.98147" lon="4.71524">
        <ele>197</ele>
        <time>2017-04-24T11:34:31Z</time>
      </trkpt>
      <trkpt lat="45.98141" lon="4.71528">
        <ele>197</ele>
        <time>2017-04-24T11:34:33Z</time>
      </trkpt>
      <trkpt lat="45.98137" lon="4.71531">
        <ele>197</ele>
        <time>2017-04-24T11:34:34Z</time>
      </trkpt>
      <trkpt lat="45.9813" lon="4.71535">
        <ele>197</ele>
        <time>2017-04-24T11:34:36Z</time>
      </trkpt>
      <trkpt lat="45.98127" lon="4.71537">
        <ele>197</ele>
        <time>2017-04-24T11:34:37Z</time>
      </trkpt>
      <trkpt lat="45.98122" lon="4.71542">
        <ele>197</ele>
        <time>2017-04-24T11:34:39Z</time>
      </trkpt>
      <trkpt lat="45.98118" lon="4.71544">
        <ele>197</ele>
        <time>2017-04-24T11:34:40Z</time>
      </trkpt>
      <trkpt lat="45.98112" lon="4.71548">
        <ele>197</ele>
        <time>2017-04-24T11:34:42Z</time>
      </trkpt>
      <trkpt lat="45.98107" lon="4.7155">
        <ele>197</ele>
        <time>2017-04-24T11:34:43Z</time>
      </trkpt>
      <trkpt lat="45.981" lon="4.71553">
        <ele>197</ele>
        <time>2017-04-24T11:34:45Z</time>
      </trkpt>
      <trkpt lat="45.98096" lon="4.71556">
        <ele>197</ele>
        <time>2017-04-24T11:34:46Z</time>
      </trkpt>
      <trkpt lat="45.9809" lon="4.71561">
        <ele>198</ele>
        <time>2017-04-24T11:34:48Z</time>
      </trkpt>
      <trkpt lat="45.98087" lon="4.71565">
        <ele>198</ele>
        <time>2017-04-24T11:34:49Z</time>
      </trkpt>
      <trkpt lat="45.98084" lon="4.71568">
        <ele>198</ele>
        <time>2017-04-24T11:34:50Z</time>
      </trkpt>
      <trkpt lat="45.9808" lon="4.71572">
        <ele>198</ele>
        <time>2017-04-24T11:34:51Z</time>
      </trkpt>
      <trkpt lat="45.98076" lon="4.71575">
        <ele>198</ele>
        <time>2017-04-24T11:34:52Z</time>
      </trkpt>
      <trkpt lat="45.98071" lon="4.71578">
        <ele>198</ele>
        <time>2017-04-24T11:34:53Z</time>
      </trkpt>
      <trkpt lat="45.98067" lon="4.71581">
        <ele>198</ele>
        <time>2017-04-24T11:34:54Z</time>
      </trkpt>
      <trkpt lat="45.98063" lon="4.71584">
        <ele>198</ele>
        <time>2017-04-24T11:34:55Z</time>
      </trkpt>
      <trkpt lat="45.98058" lon="4.71586">
        <ele>198</ele>
        <time>2017-04-24T11:34:56Z</time>
      </trkpt>
      <trkpt lat="45.98053" lon="4.71589">
        <ele>198</ele>
        <time>2017-04-24T11:34:57Z</time>
      </trkpt>
      <trkpt lat="45.98046" lon="4.71595">
        <ele>198</ele>
        <time>2017-04-24T11:34:59Z</time>
      </trkpt>
      <trkpt lat="45.98043" lon="4.71597">
        <ele>198</ele>
        <time>2017-04-24T11:35:00Z</time>
      </trkpt>
      <trkpt lat="45.98038" lon="4.71602">
        <ele>198</ele>
        <time>2017-04-24T11:35:02Z</time>
      </trkpt>
      <trkpt lat="45.98033" lon="4.71605">
        <ele>198</ele>
        <time>2017-04-24T11:35:03Z</time>
      </trkpt>
      <trkpt lat="45.9803" lon="4.71609">
        <ele>198</ele>
        <time>2017-04-24T11:35:04Z</time>
      </trkpt>
      <trkpt lat="45.98023" lon="4.71613">
        <ele>198</ele>
        <time>2017-04-24T11:35:05Z</time>
      </trkpt>
      <trkpt lat="45.98018" lon="4.71616">
        <ele>198</ele>
        <time>2017-04-24T11:35:06Z</time>
      </trkpt>
      <trkpt lat="45.98013" lon="4.71619">
        <ele>198</ele>
        <time>2017-04-24T11:35:07Z</time>
      </trkpt>
      <trkpt lat="45.98008" lon="4.71623">
        <ele>198</ele>
        <time>2017-04-24T11:35:08Z</time>
      </trkpt>
      <trkpt lat="45.98003" lon="4.71627">
        <ele>198</ele>
        <time>2017-04-24T11:35:09Z</time>
      </trkpt>
      <trkpt lat="45.97998" lon="4.71631">
        <ele>198</ele>
        <time>2017-04-24T11:35:10Z</time>
      </trkpt>
      <trkpt lat="45.97994" lon="4.71635">
        <ele>198</ele>
        <time>2017-04-24T11:35:11Z</time>
      </trkpt>
      <trkpt lat="45.97989" lon="4.71639">
        <ele>198</ele>
        <time>2017-04-24T11:35:12Z</time>
      </trkpt>
      <trkpt lat="45.97984" lon="4.71644">
        <ele>198</ele>
        <time>2017-04-24T11:35:13Z</time>
      </trkpt>
      <trkpt lat="45.97978" lon="4.71648">
        <ele>198</ele>
        <time>2017-04-24T11:35:14Z</time>
      </trkpt>
      <trkpt lat="45.97972" lon="4.71652">
        <ele>197</ele>
        <time>2017-04-24T11:35:15Z</time>
      </trkpt>
      <trkpt lat="45.97967" lon="4.71656">
        <ele>197</ele>
        <time>2017-04-24T11:35:16Z</time>
      </trkpt>
      <trkpt lat="45.97961" lon="4.7166">
        <ele>197</ele>
        <time>2017-04-24T11:35:17Z</time>
      </trkpt>
      <trkpt lat="45.97956" lon="4.71665">
        <ele>197</ele>
        <time>2017-04-24T11:35:18Z</time>
      </trkpt>
      <trkpt lat="45.9795" lon="4.71669">
        <ele>197</ele>
        <time>2017-04-24T11:35:19Z</time>
      </trkpt>
      <trkpt lat="45.97943" lon="4.71673">
        <ele>196</ele>
        <time>2017-04-24T11:35:20Z</time>
      </trkpt>
      <trkpt lat="45.97938" lon="4.71677">
        <ele>196</ele>
        <time>2017-04-24T11:35:21Z</time>
      </trkpt>
      <trkpt lat="45.97933" lon="4.71682">
        <ele>196</ele>
        <time>2017-04-24T11:35:22Z</time>
      </trkpt>
      <trkpt lat="45.97929" lon="4.71686">
        <ele>196</ele>
        <time>2017-04-24T11:35:23Z</time>
      </trkpt>
      <trkpt lat="45.97925" lon="4.71691">
        <ele>196</ele>
        <time>2017-04-24T11:35:24Z</time>
      </trkpt>
      <trkpt lat="45.97921" lon="4.71696">
        <ele>196</ele>
        <time>2017-04-24T11:35:25Z</time>
      </trkpt>
      <trkpt lat="45.97917" lon="4.71701">
        <ele>196</ele>
        <time>2017-04-24T11:35:26Z</time>
      </trkpt>
      <trkpt lat="45.97914" lon="4.71706">
        <ele>196</ele>
        <time>2017-04-24T11:35:27Z</time>
      </trkpt>
      <trkpt lat="45.9791" lon="4.71711">
        <ele>196</ele>
        <time>2017-04-24T11:35:28Z</time>
      </trkpt>
      <trkpt lat="45.97905" lon="4.71714">
        <ele>196</ele>
        <time>2017-04-24T11:35:29Z</time>
      </trkpt>
      <trkpt lat="45.979" lon="4.71715">
        <ele>196</ele>
        <time>2017-04-24T11:35:30Z</time>
      </trkpt>
      <trkpt lat="45.97892" lon="4.71714">
        <ele>196</ele>
        <time>2017-04-24T11:35:31Z</time>
      </trkpt>
      <trkpt lat="45.97884" lon="4.71715">
        <ele>196</ele>
        <time>2017-04-24T11:35:32Z</time>
      </trkpt>
      <trkpt lat="45.97877" lon="4.71717">
        <ele>196</ele>
        <time>2017-04-24T11:35:33Z</time>
      </trkpt>
      <trkpt lat="45.97872" lon="4.71721">
        <ele>196</ele>
        <time>2017-04-24T11:35:34Z</time>
      </trkpt>
      <trkpt lat="45.97866" lon="4.71726">
        <ele>196</ele>
        <time>2017-04-24T11:35:35Z</time>
      </trkpt>
      <trkpt lat="45.97861" lon="4.71732">
        <ele>196</ele>
        <time>2017-04-24T11:35:36Z</time>
      </trkpt>
      <trkpt lat="45.97857" lon="4.71739">
        <ele>196</ele>
        <time>2017-04-24T11:35:37Z</time>
      </trkpt>
      <trkpt lat="45.97852" lon="4.71744">
        <ele>196</ele>
        <time>2017-04-24T11:35:38Z</time>
      </trkpt>
      <trkpt lat="45.97847" lon="4.71747">
        <ele>195</ele>
        <time>2017-04-24T11:35:39Z</time>
      </trkpt>
      <trkpt lat="45.97841" lon="4.71747">
        <ele>195</ele>
        <time>2017-04-24T11:35:40Z</time>
      </trkpt>
      <trkpt lat="45.97834" lon="4.71746">
        <ele>195</ele>
        <time>2017-04-24T11:35:41Z</time>
      </trkpt>
      <trkpt lat="45.97827" lon="4.71745">
        <ele>195</ele>
        <time>2017-04-24T11:35:42Z</time>
      </trkpt>
      <trkpt lat="45.97821" lon="4.71745">
        <ele>196</ele>
        <time>2017-04-24T11:35:43Z</time>
      </trkpt>
      <trkpt lat="45.97815" lon="4.71745">
        <ele>196</ele>
        <time>2017-04-24T11:35:44Z</time>
      </trkpt>
      <trkpt lat="45.9781" lon="4.71745">
        <ele>196</ele>
        <time>2017-04-24T11:35:45Z</time>
      </trkpt>
      <trkpt lat="45.97804" lon="4.71745">
        <ele>196</ele>
        <time>2017-04-24T11:35:46Z</time>
      </trkpt>
      <trkpt lat="45.97799" lon="4.71744">
        <ele>196</ele>
        <time>2017-04-24T11:35:47Z</time>
      </trkpt>
      <trkpt lat="45.97794" lon="4.71744">
        <ele>196</ele>
        <time>2017-04-24T11:35:48Z</time>
      </trkpt>
      <trkpt lat="45.97789" lon="4.71743">
        <ele>196</ele>
        <time>2017-04-24T11:35:49Z</time>
      </trkpt>
      <trkpt lat="45.97785" lon="4.71744">
        <ele>196</ele>
        <time>2017-04-24T11:35:50Z</time>
      </trkpt>
      <trkpt lat="45.9778" lon="4.71744">
        <ele>196</ele>
        <time>2017-04-24T11:35:51Z</time>
      </trkpt>
      <trkpt lat="45.97776" lon="4.71744">
        <ele>196</ele>
        <time>2017-04-24T11:35:52Z</time>
      </trkpt>
      <trkpt lat="45.97771" lon="4.71743">
        <ele>196</ele>
        <time>2017-04-24T11:35:53Z</time>
      </trkpt>
      <trkpt lat="45.97766" lon="4.71743">
        <ele>196</ele>
        <time>2017-04-24T11:35:54Z</time>
      </trkpt>
      <trkpt lat="45.97761" lon="4.71742">
        <ele>196</ele>
        <time>2017-04-24T11:35:55Z</time>
      </trkpt>
      <trkpt lat="45.97755" lon="4.71743">
        <ele>196</ele>
        <time>2017-04-24T11:35:56Z</time>
      </trkpt>
      <trkpt lat="45.97749" lon="4.71742">
        <ele>196</ele>
        <time>2017-04-24T11:35:57Z</time>
      </trkpt>
      <trkpt lat="45.97743" lon="4.71742">
        <ele>196</ele>
        <time>2017-04-24T11:35:58Z</time>
      </trkpt>
      <trkpt lat="45.97738" lon="4.71741">
        <ele>196</ele>
        <time>2017-04-24T11:35:59Z</time>
      </trkpt>
      <trkpt lat="45.97733" lon="4.71741">
        <ele>196</ele>
        <time>2017-04-24T11:36:00Z</time>
      </trkpt>
      <trkpt lat="45.97728" lon="4.7174">
        <ele>196</ele>
        <time>2017-04-24T11:36:01Z</time>
      </trkpt>
      <trkpt lat="45.97723" lon="4.7174">
        <ele>196</ele>
        <time>2017-04-24T11:36:02Z</time>
      </trkpt>
      <trkpt lat="45.97718" lon="4.7174">
        <ele>196</ele>
        <time>2017-04-24T11:36:03Z</time>
      </trkpt>
      <trkpt lat="45.97713" lon="4.7174">
        <ele>196</ele>
        <time>2017-04-24T11:36:04Z</time>
      </trkpt>
      <trkpt lat="45.97709" lon="4.7174">
        <ele>196</ele>
        <time>2017-04-24T11:36:05Z</time>
      </trkpt>
      <trkpt lat="45.97701" lon="4.71738">
        <ele>196</ele>
        <time>2017-04-24T11:36:07Z</time>
      </trkpt>
      <trkpt lat="45.97697" lon="4.71739">
        <ele>196</ele>
        <time>2017-04-24T11:36:08Z</time>
      </trkpt>
      <trkpt lat="45.97688" lon="4.71739">
        <ele>196</ele>
        <time>2017-04-24T11:36:10Z</time>
      </trkpt>
      <trkpt lat="45.97683" lon="4.71738">
        <ele>196</ele>
        <time>2017-04-24T11:36:11Z</time>
      </trkpt>
      <trkpt lat="45.97677" lon="4.71737">
        <ele>195</ele>
        <time>2017-04-24T11:36:12Z</time>
      </trkpt>
      <trkpt lat="45.97671" lon="4.71737">
        <ele>195</ele>
        <time>2017-04-24T11:36:13Z</time>
      </trkpt>
      <trkpt lat="45.97666" lon="4.71737">
        <ele>195</ele>
        <time>2017-04-24T11:36:14Z</time>
      </trkpt>
      <trkpt lat="45.97661" lon="4.71738">
        <ele>195</ele>
        <time>2017-04-24T11:36:15Z</time>
      </trkpt>
      <trkpt lat="45.97653" lon="4.71737">
        <ele>196</ele>
        <time>2017-04-24T11:36:17Z</time>
      </trkpt>
      <trkpt lat="45.97647" lon="4.71736">
        <ele>196</ele>
        <time>2017-04-24T11:36:18Z</time>
      </trkpt>
      <trkpt lat="45.97645" lon="4.71725">
        <ele>196</ele>
        <time>2017-04-24T11:36:20Z</time>
      </trkpt>
      <trkpt lat="45.97641" lon="4.7172">
        <ele>197</ele>
        <time>2017-04-24T11:36:21Z</time>
      </trkpt>
      <trkpt lat="45.97638" lon="4.71714">
        <ele>197</ele>
        <time>2017-04-24T11:36:22Z</time>
      </trkpt>
      <trkpt lat="45.97634" lon="4.71711">
        <ele>197</ele>
        <time>2017-04-24T11:36:23Z</time>
      </trkpt>
      <trkpt lat="45.97629" lon="4.7171">
        <ele>197</ele>
        <time>2017-04-24T11:36:24Z</time>
      </trkpt>
      <trkpt lat="45.97623" lon="4.71712">
        <ele>197</ele>
        <time>2017-04-24T11:36:25Z</time>
      </trkpt>
      <trkpt lat="45.97617" lon="4.71716">
        <ele>197</ele>
        <time>2017-04-24T11:36:26Z</time>
      </trkpt>
      <trkpt lat="45.97612" lon="4.7172">
        <ele>197</ele>
        <time>2017-04-24T11:36:27Z</time>
      </trkpt>
      <trkpt lat="45.97607" lon="4.71723">
        <ele>197</ele>
        <time>2017-04-24T11:36:28Z</time>
      </trkpt>
      <trkpt lat="45.97602" lon="4.71726">
        <ele>196</ele>
        <time>2017-04-24T11:36:29Z</time>
      </trkpt>
      <trkpt lat="45.97596" lon="4.71727">
        <ele>196</ele>
        <time>2017-04-24T11:36:30Z</time>
      </trkpt>
      <trkpt lat="45.97591" lon="4.71727">
        <ele>196</ele>
        <time>2017-04-24T11:36:31Z</time>
      </trkpt>
      <trkpt lat="45.97586" lon="4.71726">
        <ele>196</ele>
        <time>2017-04-24T11:36:32Z</time>
      </trkpt>
      <trkpt lat="45.97581" lon="4.71725">
        <ele>197</ele>
        <time>2017-04-24T11:36:33Z</time>
      </trkpt>
      <trkpt lat="45.97577" lon="4.71725">
        <ele>197</ele>
        <time>2017-04-24T11:36:34Z</time>
      </trkpt>
      <trkpt lat="45.97572" lon="4.71725">
        <ele>197</ele>
        <time>2017-04-24T11:36:35Z</time>
      </trkpt>
      <trkpt lat="45.97563" lon="4.71725">
        <ele>198</ele>
        <time>2017-04-24T11:36:37Z</time>
      </trkpt>
      <trkpt lat="45.97558" lon="4.71725">
        <ele>198</ele>
        <time>2017-04-24T11:36:38Z</time>
      </trkpt>
      <trkpt lat="45.97553" lon="4.71724">
        <ele>198</ele>
        <time>2017-04-24T11:36:39Z</time>
      </trkpt>
      <trkpt lat="45.97548" lon="4.71724">
        <ele>198</ele>
        <time>2017-04-24T11:36:40Z</time>
      </trkpt>
      <trkpt lat="45.97542" lon="4.71724">
        <ele>198</ele>
        <time>2017-04-24T11:36:41Z</time>
      </trkpt>
      <trkpt lat="45.97537" lon="4.71723">
        <ele>198</ele>
        <time>2017-04-24T11:36:42Z</time>
      </trkpt>
      <trkpt lat="45.97531" lon="4.71723">
        <ele>198</ele>
        <time>2017-04-24T11:36:43Z</time>
      </trkpt>
      <trkpt lat="45.97525" lon="4.71722">
        <ele>198</ele>
        <time>2017-04-24T11:36:44Z</time>
      </trkpt>
      <trkpt lat="45.9752" lon="4.71722">
        <ele>198</ele>
        <time>2017-04-24T11:36:45Z</time>
      </trkpt>
      <trkpt lat="45.97515" lon="4.71723">
        <ele>198</ele>
        <time>2017-04-24T11:36:46Z</time>
      </trkpt>
      <trkpt lat="45.97506" lon="4.71723">
        <ele>198</ele>
        <time>2017-04-24T11:36:48Z</time>
      </trkpt>
      <trkpt lat="45.97501" lon="4.71723">
        <ele>198</ele>
        <time>2017-04-24T11:36:49Z</time>
      </trkpt>
      <trkpt lat="45.97492" lon="4.71722">
        <ele>197</ele>
        <time>2017-04-24T11:36:51Z</time>
      </trkpt>
      <trkpt lat="45.97487" lon="4.71722">
        <ele>197</ele>
        <time>2017-04-24T11:36:52Z</time>
      </trkpt>
      <trkpt lat="45.97482" lon="4.71722">
        <ele>197</ele>
        <time>2017-04-24T11:36:53Z</time>
      </trkpt>
      <trkpt lat="45.97477" lon="4.71721">
        <ele>197</ele>
        <time>2017-04-24T11:36:54Z</time>
      </trkpt>
      <trkpt lat="45.97472" lon="4.7172">
        <ele>197</ele>
        <time>2017-04-24T11:36:55Z</time>
      </trkpt>
      <trkpt lat="45.97467" lon="4.7172">
        <ele>197</ele>
        <time>2017-04-24T11:36:56Z</time>
      </trkpt>
      <trkpt lat="45.97461" lon="4.7172">
        <ele>197</ele>
        <time>2017-04-24T11:36:57Z</time>
      </trkpt>
      <trkpt lat="45.97456" lon="4.7172">
        <ele>197</ele>
        <time>2017-04-24T11:36:58Z</time>
      </trkpt>
      <trkpt lat="45.9745" lon="4.7172">
        <ele>197</ele>
        <time>2017-04-24T11:36:59Z</time>
      </trkpt>
      <trkpt lat="45.97445" lon="4.7172">
        <ele>197</ele>
        <time>2017-04-24T11:37:00Z</time>
      </trkpt>
      <trkpt lat="45.9744" lon="4.71719">
        <ele>196</ele>
        <time>2017-04-24T11:37:01Z</time>
      </trkpt>
      <trkpt lat="45.97435" lon="4.71719">
        <ele>196</ele>
        <time>2017-04-24T11:37:02Z</time>
      </trkpt>
      <trkpt lat="45.9743" lon="4.71718">
        <ele>196</ele>
        <time>2017-04-24T11:37:03Z</time>
      </trkpt>
      <trkpt lat="45.97426" lon="4.71718">
        <ele>196</ele>
        <time>2017-04-24T11:37:04Z</time>
      </trkpt>
      <trkpt lat="45.97417" lon="4.71716">
        <ele>195</ele>
        <time>2017-04-24T11:37:06Z</time>
      </trkpt>
      <trkpt lat="45.97412" lon="4.71716">
        <ele>195</ele>
        <time>2017-04-24T11:37:07Z</time>
      </trkpt>
      <trkpt lat="45.97404" lon="4.71713">
        <ele>195</ele>
        <time>2017-04-24T11:37:09Z</time>
      </trkpt>
      <trkpt lat="45.97399" lon="4.71713">
        <ele>195</ele>
        <time>2017-04-24T11:37:10Z</time>
      </trkpt>
      <trkpt lat="45.97394" lon="4.71713">
        <ele>195</ele>
        <time>2017-04-24T11:37:11Z</time>
      </trkpt>
      <trkpt lat="45.9739" lon="4.71713">
        <ele>195</ele>
        <time>2017-04-24T11:37:12Z</time>
      </trkpt>
      <trkpt lat="45.97386" lon="4.71712">
        <ele>195</ele>
        <time>2017-04-24T11:37:13Z</time>
      </trkpt>
      <trkpt lat="45.9738" lon="4.71712">
        <ele>195</ele>
        <time>2017-04-24T11:37:14Z</time>
      </trkpt>
      <trkpt lat="45.97372" lon="4.71712">
        <ele>195</ele>
        <time>2017-04-24T11:37:16Z</time>
      </trkpt>
      <trkpt lat="45.97367" lon="4.71712">
        <ele>195</ele>
        <time>2017-04-24T11:37:17Z</time>
      </trkpt>
      <trkpt lat="45.97362" lon="4.71711">
        <ele>195</ele>
        <time>2017-04-24T11:37:18Z</time>
      </trkpt>
      <trkpt lat="45.97358" lon="4.71711">
        <ele>195</ele>
        <time>2017-04-24T11:37:19Z</time>
      </trkpt>
      <trkpt lat="45.9735" lon="4.71711">
        <ele>195</ele>
        <time>2017-04-24T11:37:21Z</time>
      </trkpt>
      <trkpt lat="45.97346" lon="4.7171">
        <ele>195</ele>
        <time>2017-04-24T11:37:22Z</time>
      </trkpt>
      <trkpt lat="45.97338" lon="4.7171">
        <ele>195</ele>
        <time>2017-04-24T11:37:24Z</time>
      </trkpt>
      <trkpt lat="45.97334" lon="4.71709">
        <ele>195</ele>
        <time>2017-04-24T11:37:25Z</time>
      </trkpt>
      <trkpt lat="45.97327" lon="4.71708">
        <ele>196</ele>
        <time>2017-04-24T11:37:27Z</time>
      </trkpt>
      <trkpt lat="45.97324" lon="4.71706">
        <ele>196</ele>
        <time>2017-04-24T11:37:28Z</time>
      </trkpt>
      <trkpt lat="45.97317" lon="4.71701">
        <ele>196</ele>
        <time>2017-04-24T11:37:30Z</time>
      </trkpt>
      <trkpt lat="45.97313" lon="4.71699">
        <ele>196</ele>
        <time>2017-04-24T11:37:31Z</time>
      </trkpt>
      <trkpt lat="45.97305" lon="4.71696">
        <ele>196</ele>
        <time>2017-04-24T11:37:33Z</time>
      </trkpt>
      <trkpt lat="45.97301" lon="4.71696">
        <ele>196</ele>
        <time>2017-04-24T11:37:34Z</time>
      </trkpt>
      <trkpt lat="45.97296" lon="4.71697">
        <ele>196</ele>
        <time>2017-04-24T11:37:35Z</time>
      </trkpt>
      <trkpt lat="45.97292" lon="4.717">
        <ele>196</ele>
        <time>2017-04-24T11:37:36Z</time>
      </trkpt>
      <trkpt lat="45.97284" lon="4.71704">
        <ele>196</ele>
        <time>2017-04-24T11:37:38Z</time>
      </trkpt>
      <trkpt lat="45.9728" lon="4.71705">
        <ele>196</ele>
        <time>2017-04-24T11:37:39Z</time>
      </trkpt>
      <trkpt lat="45.97274" lon="4.71703">
        <ele>197</ele>
        <time>2017-04-24T11:37:40Z</time>
      </trkpt>
      <trkpt lat="45.97269" lon="4.71701">
        <ele>197</ele>
        <time>2017-04-24T11:37:41Z</time>
      </trkpt>
      <trkpt lat="45.97263" lon="4.717">
        <ele>197</ele>
        <time>2017-04-24T11:37:42Z</time>
      </trkpt>
      <trkpt lat="45.97257" lon="4.71699">
        <ele>197</ele>
        <time>2017-04-24T11:37:43Z</time>
      </trkpt>
      <trkpt lat="45.97252" lon="4.71698">
        <ele>197</ele>
        <time>2017-04-24T11:37:44Z</time>
      </trkpt>
      <trkpt lat="45.97246" lon="4.71697">
        <ele>197</ele>
        <time>2017-04-24T11:37:45Z</time>
      </trkpt>
      <trkpt lat="45.9724" lon="4.71696">
        <ele>197</ele>
        <time>2017-04-24T11:37:46Z</time>
      </trkpt>
      <trkpt lat="45.97235" lon="4.71696">
        <ele>197</ele>
        <time>2017-04-24T11:37:47Z</time>
      </trkpt>
      <trkpt lat="45.9723" lon="4.71695">
        <ele>197</ele>
        <time>2017-04-24T11:37:48Z</time>
      </trkpt>
      <trkpt lat="45.97224" lon="4.71695">
        <ele>197</ele>
        <time>2017-04-24T11:37:49Z</time>
      </trkpt>
      <trkpt lat="45.97219" lon="4.71695">
        <ele>197</ele>
        <time>2017-04-24T11:37:50Z</time>
      </trkpt>
      <trkpt lat="45.97214" lon="4.71695">
        <ele>197</ele>
        <time>2017-04-24T11:37:51Z</time>
      </trkpt>
      <trkpt lat="45.97208" lon="4.71695">
        <ele>197</ele>
        <time>2017-04-24T11:37:52Z</time>
      </trkpt>
      <trkpt lat="45.97203" lon="4.71695">
        <ele>197</ele>
        <time>2017-04-24T11:37:53Z</time>
      </trkpt>
      <trkpt lat="45.97197" lon="4.71695">
        <ele>197</ele>
        <time>2017-04-24T11:37:54Z</time>
      </trkpt>
      <trkpt lat="45.97191" lon="4.71695">
        <ele>197</ele>
        <time>2017-04-24T11:37:55Z</time>
      </trkpt>
      <trkpt lat="45.97185" lon="4.71695">
        <ele>197</ele>
        <time>2017-04-24T11:37:56Z</time>
      </trkpt>
      <trkpt lat="45.9718" lon="4.71694">
        <ele>197</ele>
        <time>2017-04-24T11:37:57Z</time>
      </trkpt>
      <trkpt lat="45.97174" lon="4.71694">
        <ele>197</ele>
        <time>2017-04-24T11:37:58Z</time>
      </trkpt>
      <trkpt lat="45.97169" lon="4.71693">
        <ele>197</ele>
        <time>2017-04-24T11:37:59Z</time>
      </trkpt>
      <trkpt lat="45.97163" lon="4.71692">
        <ele>195</ele>
        <time>2017-04-24T11:38:00Z</time>
      </trkpt>
      <trkpt lat="45.97158" lon="4.71692">
        <ele>195</ele>
        <time>2017-04-24T11:38:01Z</time>
      </trkpt>
      <trkpt lat="45.97153" lon="4.71691">
        <ele>195</ele>
        <time>2017-04-24T11:38:02Z</time>
      </trkpt>
      <trkpt lat="45.97147" lon="4.71691">
        <ele>195</ele>
        <time>2017-04-24T11:38:03Z</time>
      </trkpt>
      <trkpt lat="45.97142" lon="4.71691">
        <ele>195</ele>
        <time>2017-04-24T11:38:04Z</time>
      </trkpt>
      <trkpt lat="45.97137" lon="4.71691">
        <ele>195</ele>
        <time>2017-04-24T11:38:05Z</time>
      </trkpt>
      <trkpt lat="45.97131" lon="4.71689">
        <ele>195</ele>
        <time>2017-04-24T11:38:06Z</time>
      </trkpt>
      <trkpt lat="45.97125" lon="4.71689">
        <ele>195</ele>
        <time>2017-04-24T11:38:07Z</time>
      </trkpt>
      <trkpt lat="45.97119" lon="4.71688">
        <ele>194</ele>
        <time>2017-04-24T11:38:08Z</time>
      </trkpt>
      <trkpt lat="45.97113" lon="4.71687">
        <ele>194</ele>
        <time>2017-04-24T11:38:09Z</time>
      </trkpt>
      <trkpt lat="45.97107" lon="4.71686">
        <ele>194</ele>
        <time>2017-04-24T11:38:10Z</time>
      </trkpt>
      <trkpt lat="45.97101" lon="4.71686">
        <ele>194</ele>
        <time>2017-04-24T11:38:11Z</time>
      </trkpt>
      <trkpt lat="45.97095" lon="4.71685">
        <ele>194</ele>
        <time>2017-04-24T11:38:12Z</time>
      </trkpt>
      <trkpt lat="45.97088" lon="4.71685">
        <ele>194</ele>
        <time>2017-04-24T11:38:13Z</time>
      </trkpt>
      <trkpt lat="45.97082" lon="4.71685">
        <ele>193</ele>
        <time>2017-04-24T11:38:14Z</time>
      </trkpt>
      <trkpt lat="45.97075" lon="4.71684">
        <ele>193</ele>
        <time>2017-04-24T11:38:15Z</time>
      </trkpt>
      <trkpt lat="45.97068" lon="4.71683">
        <ele>193</ele>
        <time>2017-04-24T11:38:16Z</time>
      </trkpt>
      <trkpt lat="45.97062" lon="4.71682">
        <ele>193</ele>
        <time>2017-04-24T11:38:17Z</time>
      </trkpt>
      <trkpt lat="45.97056" lon="4.71682">
        <ele>193</ele>
        <time>2017-04-24T11:38:18Z</time>
      </trkpt>
      <trkpt lat="45.97049" lon="4.71681">
        <ele>193</ele>
        <time>2017-04-24T11:38:19Z</time>
      </trkpt>
      <trkpt lat="45.97043" lon="4.71681">
        <ele>193</ele>
        <time>2017-04-24T11:38:20Z</time>
      </trkpt>
      <trkpt lat="45.97037" lon="4.71681">
        <ele>193</ele>
        <time>2017-04-24T11:38:21Z</time>
      </trkpt>
      <trkpt lat="45.97031" lon="4.71682">
        <ele>193</ele>
        <time>2017-04-24T11:38:22Z</time>
      </trkpt>
      <trkpt lat="45.97025" lon="4.71681">
        <ele>193</ele>
        <time>2017-04-24T11:38:23Z</time>
      </trkpt>
      <trkpt lat="45.97019" lon="4.71681">
        <ele>193</ele>
        <time>2017-04-24T11:38:24Z</time>
      </trkpt>
      <trkpt lat="45.97013" lon="4.7168">
        <ele>193</ele>
        <time>2017-04-24T11:38:25Z</time>
      </trkpt>
      <trkpt lat="45.97007" lon="4.7168">
        <ele>193</ele>
        <time>2017-04-24T11:38:26Z</time>
      </trkpt>
      <trkpt lat="45.97002" lon="4.7168">
        <ele>193</ele>
        <time>2017-04-24T11:38:27Z</time>
      </trkpt>
      <trkpt lat="45.96996" lon="4.7168">
        <ele>193</ele>
        <time>2017-04-24T11:38:28Z</time>
      </trkpt>
      <trkpt lat="45.9699" lon="4.7168">
        <ele>192</ele>
        <time>2017-04-24T11:38:29Z</time>
      </trkpt>
      <trkpt lat="45.96984" lon="4.7168">
        <ele>192</ele>
        <time>2017-04-24T11:38:30Z</time>
      </trkpt>
      <trkpt lat="45.96979" lon="4.71679">
        <ele>192</ele>
        <time>2017-04-24T11:38:31Z</time>
      </trkpt>
      <trkpt lat="45.96973" lon="4.71678">
        <ele>192</ele>
        <time>2017-04-24T11:38:32Z</time>
      </trkpt>
      <trkpt lat="45.96968" lon="4.71678">
        <ele>192</ele>
        <time>2017-04-24T11:38:33Z</time>
      </trkpt>
      <trkpt lat="45.96962" lon="4.71677">
        <ele>192</ele>
        <time>2017-04-24T11:38:34Z</time>
      </trkpt>
      <trkpt lat="45.96955" lon="4.71676">
        <ele>192</ele>
        <time>2017-04-24T11:38:35Z</time>
      </trkpt>
      <trkpt lat="45.9695" lon="4.71676">
        <ele>192</ele>
        <time>2017-04-24T11:38:36Z</time>
      </trkpt>
      <trkpt lat="45.96944" lon="4.71675">
        <ele>192</ele>
        <time>2017-04-24T11:38:37Z</time>
      </trkpt>
      <trkpt lat="45.96938" lon="4.71674">
        <ele>192</ele>
        <time>2017-04-24T11:38:38Z</time>
      </trkpt>
      <trkpt lat="45.96932" lon="4.71674">
        <ele>193</ele>
        <time>2017-04-24T11:38:39Z</time>
      </trkpt>
      <trkpt lat="45.96926" lon="4.71673">
        <ele>193</ele>
        <time>2017-04-24T11:38:40Z</time>
      </trkpt>
      <trkpt lat="45.9692" lon="4.71673">
        <ele>194</ele>
        <time>2017-04-24T11:38:41Z</time>
      </trkpt>
      <trkpt lat="45.96915" lon="4.71672">
        <ele>194</ele>
        <time>2017-04-24T11:38:42Z</time>
      </trkpt>
      <trkpt lat="45.96908" lon="4.71672">
        <ele>193</ele>
        <time>2017-04-24T11:38:43Z</time>
      </trkpt>
      <trkpt lat="45.96901" lon="4.71671">
        <ele>192</ele>
        <time>2017-04-24T11:38:44Z</time>
      </trkpt>
      <trkpt lat="45.96895" lon="4.7167">
        <ele>191</ele>
        <time>2017-04-24T11:38:45Z</time>
      </trkpt>
      <trkpt lat="45.96887" lon="4.71669">
        <ele>191</ele>
        <time>2017-04-24T11:38:46Z</time>
      </trkpt>
      <trkpt lat="45.9688" lon="4.71669">
        <ele>191</ele>
        <time>2017-04-24T11:38:47Z</time>
      </trkpt>
      <trkpt lat="45.96873" lon="4.71669">
        <ele>190</ele>
        <time>2017-04-24T11:38:48Z</time>
      </trkpt>
      <trkpt lat="45.96866" lon="4.71668">
        <ele>190</ele>
        <time>2017-04-24T11:38:49Z</time>
      </trkpt>
      <trkpt lat="45.96859" lon="4.71668">
        <ele>190</ele>
        <time>2017-04-24T11:38:50Z</time>
      </trkpt>
      <trkpt lat="45.96851" lon="4.71667">
        <ele>191</ele>
        <time>2017-04-24T11:38:51Z</time>
      </trkpt>
      <trkpt lat="45.96844" lon="4.71666">
        <ele>193</ele>
        <time>2017-04-24T11:38:52Z</time>
      </trkpt>
      <trkpt lat="45.96837" lon="4.71665">
        <ele>193</ele>
        <time>2017-04-24T11:38:53Z</time>
      </trkpt>
      <trkpt lat="45.96831" lon="4.71664">
        <ele>192</ele>
        <time>2017-04-24T11:38:54Z</time>
      </trkpt>
      <trkpt lat="45.96824" lon="4.71664">
        <ele>192</ele>
        <time>2017-04-24T11:38:55Z</time>
      </trkpt>
      <trkpt lat="45.96817" lon="4.71662">
        <ele>193</ele>
        <time>2017-04-24T11:38:56Z</time>
      </trkpt>
      <trkpt lat="45.96811" lon="4.71661">
        <ele>193</ele>
        <time>2017-04-24T11:38:57Z</time>
      </trkpt>
      <trkpt lat="45.96804" lon="4.7166">
        <ele>193</ele>
        <time>2017-04-24T11:38:58Z</time>
      </trkpt>
      <trkpt lat="45.96797" lon="4.71659">
        <ele>192</ele>
        <time>2017-04-24T11:38:59Z</time>
      </trkpt>
      <trkpt lat="45.9679" lon="4.71658">
        <ele>192</ele>
        <time>2017-04-24T11:39:00Z</time>
      </trkpt>
      <trkpt lat="45.96783" lon="4.71657">
        <ele>192</ele>
        <time>2017-04-24T11:39:01Z</time>
      </trkpt>
      <trkpt lat="45.96777" lon="4.71656">
        <ele>192</ele>
        <time>2017-04-24T11:39:02Z</time>
      </trkpt>
      <trkpt lat="45.9677" lon="4.71655">
        <ele>192</ele>
        <time>2017-04-24T11:39:03Z</time>
      </trkpt>
      <trkpt lat="45.96764" lon="4.71654">
        <ele>191</ele>
        <time>2017-04-24T11:39:04Z</time>
      </trkpt>
      <trkpt lat="45.96757" lon="4.71653">
        <ele>191</ele>
        <time>2017-04-24T11:39:05Z</time>
      </trkpt>
      <trkpt lat="45.96751" lon="4.71652">
        <ele>191</ele>
        <time>2017-04-24T11:39:06Z</time>
      </trkpt>
      <trkpt lat="45.96744" lon="4.71651">
        <ele>190</ele>
        <time>2017-04-24T11:39:07Z</time>
      </trkpt>
      <trkpt lat="45.96737" lon="4.7165">
        <ele>190</ele>
        <time>2017-04-24T11:39:08Z</time>
      </trkpt>
      <trkpt lat="45.96731" lon="4.71649">
        <ele>190</ele>
        <time>2017-04-24T11:39:09Z</time>
      </trkpt>
      <trkpt lat="45.96725" lon="4.71648">
        <ele>190</ele>
        <time>2017-04-24T11:39:10Z</time>
      </trkpt>
      <trkpt lat="45.96718" lon="4.71648">
        <ele>190</ele>
        <time>2017-04-24T11:39:11Z</time>
      </trkpt>
      <trkpt lat="45.96712" lon="4.71646">
        <ele>190</ele>
        <time>2017-04-24T11:39:12Z</time>
      </trkpt>
      <trkpt lat="45.96706" lon="4.71645">
        <ele>190</ele>
        <time>2017-04-24T11:39:13Z</time>
      </trkpt>
      <trkpt lat="45.967" lon="4.71643">
        <ele>190</ele>
        <time>2017-04-24T11:39:14Z</time>
      </trkpt>
      <trkpt lat="45.96694" lon="4.71642">
        <ele>190</ele>
        <time>2017-04-24T11:39:15Z</time>
      </trkpt>
      <trkpt lat="45.96687" lon="4.71641">
        <ele>190</ele>
        <time>2017-04-24T11:39:16Z</time>
      </trkpt>
      <trkpt lat="45.96681" lon="4.71639">
        <ele>190</ele>
        <time>2017-04-24T11:39:17Z</time>
      </trkpt>
      <trkpt lat="45.96675" lon="4.71639">
        <ele>190</ele>
        <time>2017-04-24T11:39:18Z</time>
      </trkpt>
      <trkpt lat="45.96668" lon="4.71638">
        <ele>189</ele>
        <time>2017-04-24T11:39:19Z</time>
      </trkpt>
      <trkpt lat="45.96661" lon="4.71637">
        <ele>188</ele>
        <time>2017-04-24T11:39:20Z</time>
      </trkpt>
      <trkpt lat="45.96655" lon="4.71635">
        <ele>188</ele>
        <time>2017-04-24T11:39:21Z</time>
      </trkpt>
      <trkpt lat="45.96649" lon="4.71634">
        <ele>188</ele>
        <time>2017-04-24T11:39:22Z</time>
      </trkpt>
      <trkpt lat="45.96642" lon="4.71633">
        <ele>188</ele>
        <time>2017-04-24T11:39:23Z</time>
      </trkpt>
      <trkpt lat="45.96636" lon="4.71632">
        <ele>188</ele>
        <time>2017-04-24T11:39:24Z</time>
      </trkpt>
      <trkpt lat="45.9663" lon="4.7163">
        <ele>188</ele>
        <time>2017-04-24T11:39:25Z</time>
      </trkpt>
      <trkpt lat="45.96624" lon="4.71629">
        <ele>188</ele>
        <time>2017-04-24T11:39:26Z</time>
      </trkpt>
      <trkpt lat="45.96617" lon="4.71628">
        <ele>187</ele>
        <time>2017-04-24T11:39:27Z</time>
      </trkpt>
      <trkpt lat="45.96611" lon="4.71627">
        <ele>187</ele>
        <time>2017-04-24T11:39:28Z</time>
      </trkpt>
      <trkpt lat="45.96605" lon="4.71626">
        <ele>187</ele>
        <time>2017-04-24T11:39:29Z</time>
      </trkpt>
      <trkpt lat="45.96599" lon="4.71625">
        <ele>187</ele>
        <time>2017-04-24T11:39:30Z</time>
      </trkpt>
      <trkpt lat="45.96593" lon="4.71625">
        <ele>187</ele>
        <time>2017-04-24T11:39:31Z</time>
      </trkpt>
      <trkpt lat="45.96587" lon="4.71624">
        <ele>187</ele>
        <time>2017-04-24T11:39:32Z</time>
      </trkpt>
      <trkpt lat="45.96581" lon="4.71623">
        <ele>185</ele>
        <time>2017-04-24T11:39:33Z</time>
      </trkpt>
      <trkpt lat="45.96574" lon="4.71622">
        <ele>185</ele>
        <time>2017-04-24T11:39:34Z</time>
      </trkpt>
      <trkpt lat="45.96568" lon="4.71621">
        <ele>185</ele>
        <time>2017-04-24T11:39:35Z</time>
      </trkpt>
      <trkpt lat="45.96562" lon="4.71621">
        <ele>185</ele>
        <time>2017-04-24T11:39:36Z</time>
      </trkpt>
      <trkpt lat="45.96556" lon="4.71619">
        <ele>185</ele>
        <time>2017-04-24T11:39:37Z</time>
      </trkpt>
      <trkpt lat="45.9655" lon="4.71616">
        <ele>185</ele>
        <time>2017-04-24T11:39:38Z</time>
      </trkpt>
      <trkpt lat="45.96546" lon="4.71612">
        <ele>185</ele>
        <time>2017-04-24T11:39:39Z</time>
      </trkpt>
      <trkpt lat="45.96541" lon="4.71608">
        <ele>185</ele>
        <time>2017-04-24T11:39:40Z</time>
      </trkpt>
      <trkpt lat="45.96536" lon="4.71606">
        <ele>185</ele>
        <time>2017-04-24T11:39:41Z</time>
      </trkpt>
      <trkpt lat="45.9653" lon="4.71606">
        <ele>185</ele>
        <time>2017-04-24T11:39:42Z</time>
      </trkpt>
      <trkpt lat="45.96524" lon="4.71608">
        <ele>184</ele>
        <time>2017-04-24T11:39:43Z</time>
      </trkpt>
      <trkpt lat="45.9652" lon="4.71611">
        <ele>184</ele>
        <time>2017-04-24T11:39:44Z</time>
      </trkpt>
      <trkpt lat="45.96516" lon="4.71611">
        <ele>184</ele>
        <time>2017-04-24T11:39:45Z</time>
      </trkpt>
      <trkpt lat="45.9651" lon="4.71612">
        <ele>184</ele>
        <time>2017-04-24T11:39:46Z</time>
      </trkpt>
      <trkpt lat="45.96504" lon="4.71612">
        <ele>184</ele>
        <time>2017-04-24T11:39:47Z</time>
      </trkpt>
      <trkpt lat="45.96498" lon="4.71611">
        <ele>183</ele>
        <time>2017-04-24T11:39:48Z</time>
      </trkpt>
      <trkpt lat="45.96492" lon="4.7161">
        <ele>183</ele>
        <time>2017-04-24T11:39:49Z</time>
      </trkpt>
      <trkpt lat="45.96487" lon="4.71607">
        <ele>183</ele>
        <time>2017-04-24T11:39:50Z</time>
      </trkpt>
      <trkpt lat="45.96482" lon="4.71605">
        <ele>183</ele>
        <time>2017-04-24T11:39:51Z</time>
      </trkpt>
      <trkpt lat="45.96476" lon="4.71604">
        <ele>183</ele>
        <time>2017-04-24T11:39:52Z</time>
      </trkpt>
      <trkpt lat="45.9647" lon="4.71603">
        <ele>183</ele>
        <time>2017-04-24T11:39:53Z</time>
      </trkpt>
      <trkpt lat="45.96462" lon="4.71602">
        <ele>183</ele>
        <time>2017-04-24T11:39:54Z</time>
      </trkpt>
      <trkpt lat="45.96456" lon="4.71601">
        <ele>183</ele>
        <time>2017-04-24T11:39:55Z</time>
      </trkpt>
      <trkpt lat="45.9645" lon="4.716">
        <ele>183</ele>
        <time>2017-04-24T11:39:56Z</time>
      </trkpt>
      <trkpt lat="45.96443" lon="4.71599">
        <ele>183</ele>
        <time>2017-04-24T11:39:57Z</time>
      </trkpt>
      <trkpt lat="45.96436" lon="4.71598">
        <ele>183</ele>
        <time>2017-04-24T11:39:58Z</time>
      </trkpt>
      <trkpt lat="45.9643" lon="4.71597">
        <ele>184</ele>
        <time>2017-04-24T11:39:59Z</time>
      </trkpt>
      <trkpt lat="45.96424" lon="4.71596">
        <ele>184</ele>
        <time>2017-04-24T11:40:00Z</time>
      </trkpt>
      <trkpt lat="45.96418" lon="4.71595">
        <ele>184</ele>
        <time>2017-04-24T11:40:01Z</time>
      </trkpt>
      <trkpt lat="45.96412" lon="4.71595">
        <ele>184</ele>
        <time>2017-04-24T11:40:02Z</time>
      </trkpt>
      <trkpt lat="45.96406" lon="4.71594">
        <ele>183</ele>
        <time>2017-04-24T11:40:03Z</time>
      </trkpt>
      <trkpt lat="45.964" lon="4.71593">
        <ele>183</ele>
        <time>2017-04-24T11:40:04Z</time>
      </trkpt>
      <trkpt lat="45.96394" lon="4.71592">
        <ele>183</ele>
        <time>2017-04-24T11:40:05Z</time>
      </trkpt>
      <trkpt lat="45.96388" lon="4.71591">
        <ele>183</ele>
        <time>2017-04-24T11:40:06Z</time>
      </trkpt>
      <trkpt lat="45.96382" lon="4.7159">
        <ele>183</ele>
        <time>2017-04-24T11:40:07Z</time>
      </trkpt>
      <trkpt lat="45.96376" lon="4.7159">
        <ele>182</ele>
        <time>2017-04-24T11:40:08Z</time>
      </trkpt>
      <trkpt lat="45.9637" lon="4.71589">
        <ele>182</ele>
        <time>2017-04-24T11:40:09Z</time>
      </trkpt>
      <trkpt lat="45.96365" lon="4.71588">
        <ele>182</ele>
        <time>2017-04-24T11:40:10Z</time>
      </trkpt>
      <trkpt lat="45.96359" lon="4.71588">
        <ele>182</ele>
        <time>2017-04-24T11:40:11Z</time>
      </trkpt>
      <trkpt lat="45.96354" lon="4.71587">
        <ele>182</ele>
        <time>2017-04-24T11:40:12Z</time>
      </trkpt>
      <trkpt lat="45.96349" lon="4.71586">
        <ele>182</ele>
        <time>2017-04-24T11:40:13Z</time>
      </trkpt>
      <trkpt lat="45.96344" lon="4.71585">
        <ele>183</ele>
        <time>2017-04-24T11:40:14Z</time>
      </trkpt>
      <trkpt lat="45.96339" lon="4.71584">
        <ele>183</ele>
        <time>2017-04-24T11:40:15Z</time>
      </trkpt>
      <trkpt lat="45.96334" lon="4.71584">
        <ele>183</ele>
        <time>2017-04-24T11:40:16Z</time>
      </trkpt>
      <trkpt lat="45.9633" lon="4.71583">
        <ele>183</ele>
        <time>2017-04-24T11:40:17Z</time>
      </trkpt>
      <trkpt lat="45.96325" lon="4.71582">
        <ele>184</ele>
        <time>2017-04-24T11:40:18Z</time>
      </trkpt>
      <trkpt lat="45.96321" lon="4.71582">
        <ele>184</ele>
        <time>2017-04-24T11:40:19Z</time>
      </trkpt>
      <trkpt lat="45.96316" lon="4.7158">
        <ele>184</ele>
        <time>2017-04-24T11:40:20Z</time>
      </trkpt>
      <trkpt lat="45.96311" lon="4.71579">
        <ele>184</ele>
        <time>2017-04-24T11:40:21Z</time>
      </trkpt>
      <trkpt lat="45.96306" lon="4.71579">
        <ele>184</ele>
        <time>2017-04-24T11:40:22Z</time>
      </trkpt>
      <trkpt lat="45.96301" lon="4.71579">
        <ele>184</ele>
        <time>2017-04-24T11:40:23Z</time>
      </trkpt>
      <trkpt lat="45.96296" lon="4.71578">
        <ele>184</ele>
        <time>2017-04-24T11:40:24Z</time>
      </trkpt>
      <trkpt lat="45.96291" lon="4.71577">
        <ele>184</ele>
        <time>2017-04-24T11:40:25Z</time>
      </trkpt>
      <trkpt lat="45.96286" lon="4.71576">
        <ele>184</ele>
        <time>2017-04-24T11:40:26Z</time>
      </trkpt>
      <trkpt lat="45.9628" lon="4.71575">
        <ele>184</ele>
        <time>2017-04-24T11:40:27Z</time>
      </trkpt>
      <trkpt lat="45.96274" lon="4.71574">
        <ele>184</ele>
        <time>2017-04-24T11:40:28Z</time>
      </trkpt>
      <trkpt lat="45.96269" lon="4.71573">
        <ele>183</ele>
        <time>2017-04-24T11:40:29Z</time>
      </trkpt>
      <trkpt lat="45.96263" lon="4.71573">
        <ele>183</ele>
        <time>2017-04-24T11:40:30Z</time>
      </trkpt>
      <trkpt lat="45.96256" lon="4.71572">
        <ele>183</ele>
        <time>2017-04-24T11:40:31Z</time>
      </trkpt>
      <trkpt lat="45.9625" lon="4.71571">
        <ele>183</ele>
        <time>2017-04-24T11:40:32Z</time>
      </trkpt>
      <trkpt lat="45.96244" lon="4.7157">
        <ele>182</ele>
        <time>2017-04-24T11:40:33Z</time>
      </trkpt>
      <trkpt lat="45.96238" lon="4.71569">
        <ele>183</ele>
        <time>2017-04-24T11:40:34Z</time>
      </trkpt>
      <trkpt lat="45.96231" lon="4.71568">
        <ele>183</ele>
        <time>2017-04-24T11:40:35Z</time>
      </trkpt>
      <trkpt lat="45.96226" lon="4.71567">
        <ele>183</ele>
        <time>2017-04-24T11:40:36Z</time>
      </trkpt>
      <trkpt lat="45.9622" lon="4.71566">
        <ele>183</ele>
        <time>2017-04-24T11:40:37Z</time>
      </trkpt>
      <trkpt lat="45.96214" lon="4.71565">
        <ele>183</ele>
        <time>2017-04-24T11:40:38Z</time>
      </trkpt>
      <trkpt lat="45.96209" lon="4.71565">
        <ele>183</ele>
        <time>2017-04-24T11:40:39Z</time>
      </trkpt>
      <trkpt lat="45.96204" lon="4.71564">
        <ele>183</ele>
        <time>2017-04-24T11:40:40Z</time>
      </trkpt>
      <trkpt lat="45.96199" lon="4.71563">
        <ele>183</ele>
        <time>2017-04-24T11:40:41Z</time>
      </trkpt>
      <trkpt lat="45.96194" lon="4.71562">
        <ele>183</ele>
        <time>2017-04-24T11:40:42Z</time>
      </trkpt>
      <trkpt lat="45.96189" lon="4.71561">
        <ele>183</ele>
        <time>2017-04-24T11:40:43Z</time>
      </trkpt>
      <trkpt lat="45.96184" lon="4.7156">
        <ele>183</ele>
        <time>2017-04-24T11:40:44Z</time>
      </trkpt>
      <trkpt lat="45.96179" lon="4.71559">
        <ele>183</ele>
        <time>2017-04-24T11:40:45Z</time>
      </trkpt>
      <trkpt lat="45.96174" lon="4.71558">
        <ele>183</ele>
        <time>2017-04-24T11:40:46Z</time>
      </trkpt>
      <trkpt lat="45.96168" lon="4.71556">
        <ele>183</ele>
        <time>2017-04-24T11:40:47Z</time>
      </trkpt>
      <trkpt lat="45.96163" lon="4.71555">
        <ele>184</ele>
        <time>2017-04-24T11:40:48Z</time>
      </trkpt>
      <trkpt lat="45.96157" lon="4.71554">
        <ele>184</ele>
        <time>2017-04-24T11:40:49Z</time>
      </trkpt>
      <trkpt lat="45.96151" lon="4.71553">
        <ele>184</ele>
        <time>2017-04-24T11:40:50Z</time>
      </trkpt>
      <trkpt lat="45.96145" lon="4.71552">
        <ele>184</ele>
        <time>2017-04-24T11:40:51Z</time>
      </trkpt>
      <trkpt lat="45.9614" lon="4.7155">
        <ele>184</ele>
        <time>2017-04-24T11:40:52Z</time>
      </trkpt>
      <trkpt lat="45.96134" lon="4.71549">
        <ele>184</ele>
        <time>2017-04-24T11:40:53Z</time>
      </trkpt>
      <trkpt lat="45.96129" lon="4.71548">
        <ele>184</ele>
        <time>2017-04-24T11:40:54Z</time>
      </trkpt>
      <trkpt lat="45.96123" lon="4.71547">
        <ele>185</ele>
        <time>2017-04-24T11:40:55Z</time>
      </trkpt>
      <trkpt lat="45.96117" lon="4.71546">
        <ele>185</ele>
        <time>2017-04-24T11:40:56Z</time>
      </trkpt>
      <trkpt lat="45.96111" lon="4.71546">
        <ele>185</ele>
        <time>2017-04-24T11:40:57Z</time>
      </trkpt>
      <trkpt lat="45.96106" lon="4.71545">
        <ele>185</ele>
        <time>2017-04-24T11:40:58Z</time>
      </trkpt>
      <trkpt lat="45.96101" lon="4.71544">
        <ele>185</ele>
        <time>2017-04-24T11:40:59Z</time>
      </trkpt>
      <trkpt lat="45.96096" lon="4.71543">
        <ele>185</ele>
        <time>2017-04-24T11:41:00Z</time>
      </trkpt>
      <trkpt lat="45.96091" lon="4.71542">
        <ele>185</ele>
        <time>2017-04-24T11:41:01Z</time>
      </trkpt>
      <trkpt lat="45.96086" lon="4.71542">
        <ele>185</ele>
        <time>2017-04-24T11:41:02Z</time>
      </trkpt>
      <trkpt lat="45.96081" lon="4.71541">
        <ele>185</ele>
        <time>2017-04-24T11:41:03Z</time>
      </trkpt>
      <trkpt lat="45.96077" lon="4.7154">
        <ele>185</ele>
        <time>2017-04-24T11:41:04Z</time>
      </trkpt>
      <trkpt lat="45.96072" lon="4.71539">
        <ele>185</ele>
        <time>2017-04-24T11:41:05Z</time>
      </trkpt>
      <trkpt lat="45.96067" lon="4.71538">
        <ele>185</ele>
        <time>2017-04-24T11:41:06Z</time>
      </trkpt>
      <trkpt lat="45.96062" lon="4.71536">
        <ele>186</ele>
        <time>2017-04-24T11:41:07Z</time>
      </trkpt>
      <trkpt lat="45.96057" lon="4.71535">
        <ele>186</ele>
        <time>2017-04-24T11:41:08Z</time>
      </trkpt>
      <trkpt lat="45.96052" lon="4.71534">
        <ele>186</ele>
        <time>2017-04-24T11:41:09Z</time>
      </trkpt>
      <trkpt lat="45.96046" lon="4.71533">
        <ele>186</ele>
        <time>2017-04-24T11:41:10Z</time>
      </trkpt>
      <trkpt lat="45.96041" lon="4.71532">
        <ele>186</ele>
        <time>2017-04-24T11:41:11Z</time>
      </trkpt>
      <trkpt lat="45.96036" lon="4.71531">
        <ele>186</ele>
        <time>2017-04-24T11:41:12Z</time>
      </trkpt>
      <trkpt lat="45.9603" lon="4.7153">
        <ele>186</ele>
        <time>2017-04-24T11:41:13Z</time>
      </trkpt>
      <trkpt lat="45.96026" lon="4.71529">
        <ele>186</ele>
        <time>2017-04-24T11:41:14Z</time>
      </trkpt>
      <trkpt lat="45.96021" lon="4.71528">
        <ele>186</ele>
        <time>2017-04-24T11:41:15Z</time>
      </trkpt>
      <trkpt lat="45.96016" lon="4.71527">
        <ele>186</ele>
        <time>2017-04-24T11:41:16Z</time>
      </trkpt>
      <trkpt lat="45.96011" lon="4.71526">
        <ele>186</ele>
        <time>2017-04-24T11:41:17Z</time>
      </trkpt>
      <trkpt lat="45.96006" lon="4.71525">
        <ele>186</ele>
        <time>2017-04-24T11:41:18Z</time>
      </trkpt>
      <trkpt lat="45.96001" lon="4.71523">
        <ele>186</ele>
        <time>2017-04-24T11:41:19Z</time>
      </trkpt>
      <trkpt lat="45.95996" lon="4.7152">
        <ele>185</ele>
        <time>2017-04-24T11:41:20Z</time>
      </trkpt>
      <trkpt lat="45.95991" lon="4.71517">
        <ele>185</ele>
        <time>2017-04-24T11:41:21Z</time>
      </trkpt>
      <trkpt lat="45.95986" lon="4.71515">
        <ele>185</ele>
        <time>2017-04-24T11:41:22Z</time>
      </trkpt>
      <trkpt lat="45.95981" lon="4.71515">
        <ele>185</ele>
        <time>2017-04-24T11:41:23Z</time>
      </trkpt>
      <trkpt lat="45.95976" lon="4.71516">
        <ele>185</ele>
        <time>2017-04-24T11:41:24Z</time>
      </trkpt>
      <trkpt lat="45.95971" lon="4.71519">
        <ele>184</ele>
        <time>2017-04-24T11:41:25Z</time>
      </trkpt>
      <trkpt lat="45.95966" lon="4.71521">
        <ele>184</ele>
        <time>2017-04-24T11:41:26Z</time>
      </trkpt>
      <trkpt lat="45.95961" lon="4.71522">
        <ele>184</ele>
        <time>2017-04-24T11:41:27Z</time>
      </trkpt>
      <trkpt lat="45.95956" lon="4.71522">
        <ele>184</ele>
        <time>2017-04-24T11:41:28Z</time>
      </trkpt>
      <trkpt lat="45.95951" lon="4.71523">
        <ele>184</ele>
        <time>2017-04-24T11:41:29Z</time>
      </trkpt>
      <trkpt lat="45.95945" lon="4.71523">
        <ele>184</ele>
        <time>2017-04-24T11:41:30Z</time>
      </trkpt>
      <trkpt lat="45.95939" lon="4.71523">
        <ele>184</ele>
        <time>2017-04-24T11:41:31Z</time>
      </trkpt>
      <trkpt lat="45.95933" lon="4.71524">
        <ele>184</ele>
        <time>2017-04-24T11:41:32Z</time>
      </trkpt>
      <trkpt lat="45.95927" lon="4.71524">
        <ele>184</ele>
        <time>2017-04-24T11:41:33Z</time>
      </trkpt>
      <trkpt lat="45.95921" lon="4.71524">
        <ele>184</ele>
        <time>2017-04-24T11:41:34Z</time>
      </trkpt>
      <trkpt lat="45.95914" lon="4.71524">
        <ele>183</ele>
        <time>2017-04-24T11:41:35Z</time>
      </trkpt>
      <trkpt lat="45.95908" lon="4.71524">
        <ele>182</ele>
        <time>2017-04-24T11:41:36Z</time>
      </trkpt>
      <trkpt lat="45.95902" lon="4.71524">
        <ele>182</ele>
        <time>2017-04-24T11:41:37Z</time>
      </trkpt>
      <trkpt lat="45.95896" lon="4.71523">
        <ele>182</ele>
        <time>2017-04-24T11:41:38Z</time>
      </trkpt>
      <trkpt lat="45.9589" lon="4.71523">
        <ele>182</ele>
        <time>2017-04-24T11:41:39Z</time>
      </trkpt>
      <trkpt lat="45.95884" lon="4.71523">
        <ele>182</ele>
        <time>2017-04-24T11:41:40Z</time>
      </trkpt>
      <trkpt lat="45.95878" lon="4.71523">
        <ele>182</ele>
        <time>2017-04-24T11:41:41Z</time>
      </trkpt>
      <trkpt lat="45.95872" lon="4.71523">
        <ele>182</ele>
        <time>2017-04-24T11:41:42Z</time>
      </trkpt>
      <trkpt lat="45.95866" lon="4.71524">
        <ele>182</ele>
        <time>2017-04-24T11:41:43Z</time>
      </trkpt>
      <trkpt lat="45.95861" lon="4.71523">
        <ele>182</ele>
        <time>2017-04-24T11:41:44Z</time>
      </trkpt>
      <trkpt lat="45.95855" lon="4.71523">
        <ele>182</ele>
        <time>2017-04-24T11:41:45Z</time>
      </trkpt>
      <trkpt lat="45.95849" lon="4.71523">
        <ele>182</ele>
        <time>2017-04-24T11:41:46Z</time>
      </trkpt>
      <trkpt lat="45.95844" lon="4.71523">
        <ele>182</ele>
        <time>2017-04-24T11:41:47Z</time>
      </trkpt>
      <trkpt lat="45.95838" lon="4.71523">
        <ele>182</ele>
        <time>2017-04-24T11:41:48Z</time>
      </trkpt>
      <trkpt lat="45.95832" lon="4.71523">
        <ele>182</ele>
        <time>2017-04-24T11:41:49Z</time>
      </trkpt>
      <trkpt lat="45.95826" lon="4.71522">
        <ele>182</ele>
        <time>2017-04-24T11:41:50Z</time>
      </trkpt>
      <trkpt lat="45.95821" lon="4.71522">
        <ele>182</ele>
        <time>2017-04-24T11:41:51Z</time>
      </trkpt>
      <trkpt lat="45.95814" lon="4.71521">
        <ele>181</ele>
        <time>2017-04-24T11:41:52Z</time>
      </trkpt>
      <trkpt lat="45.95808" lon="4.71521">
        <ele>181</ele>
        <time>2017-04-24T11:41:53Z</time>
      </trkpt>
      <trkpt lat="45.95802" lon="4.7152">
        <ele>181</ele>
        <time>2017-04-24T11:41:54Z</time>
      </trkpt>
      <trkpt lat="45.95795" lon="4.7152">
        <ele>181</ele>
        <time>2017-04-24T11:41:55Z</time>
      </trkpt>
      <trkpt lat="45.95788" lon="4.71519">
        <ele>181</ele>
        <time>2017-04-24T11:41:56Z</time>
      </trkpt>
      <trkpt lat="45.9578" lon="4.71518">
        <ele>181</ele>
        <time>2017-04-24T11:41:57Z</time>
      </trkpt>
      <trkpt lat="45.95773" lon="4.71518">
        <ele>181</ele>
        <time>2017-04-24T11:41:58Z</time>
      </trkpt>
      <trkpt lat="45.95766" lon="4.71518">
        <ele>181</ele>
        <time>2017-04-24T11:41:59Z</time>
      </trkpt>
      <trkpt lat="45.95759" lon="4.71517">
        <ele>181</ele>
        <time>2017-04-24T11:42:00Z</time>
      </trkpt>
      <trkpt lat="45.95752" lon="4.71517">
        <ele>181</ele>
        <time>2017-04-24T11:42:01Z</time>
      </trkpt>
      <trkpt lat="45.95745" lon="4.71517">
        <ele>181</ele>
        <time>2017-04-24T11:42:02Z</time>
      </trkpt>
      <trkpt lat="45.95738" lon="4.71517">
        <ele>181</ele>
        <time>2017-04-24T11:42:03Z</time>
      </trkpt>
      <trkpt lat="45.95731" lon="4.71516">
        <ele>180</ele>
        <time>2017-04-24T11:42:04Z</time>
      </trkpt>
      <trkpt lat="45.95724" lon="4.71516">
        <ele>180</ele>
        <time>2017-04-24T11:42:05Z</time>
      </trkpt>
      <trkpt lat="45.95717" lon="4.71516">
        <ele>180</ele>
        <time>2017-04-24T11:42:06Z</time>
      </trkpt>
      <trkpt lat="45.95711" lon="4.71516">
        <ele>180</ele>
        <time>2017-04-24T11:42:07Z</time>
      </trkpt>
      <trkpt lat="45.95704" lon="4.71515">
        <ele>180</ele>
        <time>2017-04-24T11:42:08Z</time>
      </trkpt>
      <trkpt lat="45.95697" lon="4.71515">
        <ele>180</ele>
        <time>2017-04-24T11:42:09Z</time>
      </trkpt>
      <trkpt lat="45.95691" lon="4.71514">
        <ele>180</ele>
        <time>2017-04-24T11:42:10Z</time>
      </trkpt>
      <trkpt lat="45.95684" lon="4.71514">
        <ele>181</ele>
        <time>2017-04-24T11:42:11Z</time>
      </trkpt>
      <trkpt lat="45.95677" lon="4.71514">
        <ele>181</ele>
        <time>2017-04-24T11:42:12Z</time>
      </trkpt>
      <trkpt lat="45.95671" lon="4.71513">
        <ele>181</ele>
        <time>2017-04-24T11:42:13Z</time>
      </trkpt>
      <trkpt lat="45.95663" lon="4.71513">
        <ele>181</ele>
        <time>2017-04-24T11:42:14Z</time>
      </trkpt>
      <trkpt lat="45.95656" lon="4.71512">
        <ele>180</ele>
        <time>2017-04-24T11:42:15Z</time>
      </trkpt>
      <trkpt lat="45.9565" lon="4.71512">
        <ele>180</ele>
        <time>2017-04-24T11:42:16Z</time>
      </trkpt>
      <trkpt lat="45.95643" lon="4.71511">
        <ele>180</ele>
        <time>2017-04-24T11:42:17Z</time>
      </trkpt>
      <trkpt lat="45.95636" lon="4.71511">
        <ele>180</ele>
        <time>2017-04-24T11:42:18Z</time>
      </trkpt>
      <trkpt lat="45.9563" lon="4.7151">
        <ele>180</ele>
        <time>2017-04-24T11:42:19Z</time>
      </trkpt>
      <trkpt lat="45.95623" lon="4.71509">
        <ele>179</ele>
        <time>2017-04-24T11:42:20Z</time>
      </trkpt>
      <trkpt lat="45.95616" lon="4.71508">
        <ele>179</ele>
        <time>2017-04-24T11:42:21Z</time>
      </trkpt>
      <trkpt lat="45.9561" lon="4.71507">
        <ele>179</ele>
        <time>2017-04-24T11:42:22Z</time>
      </trkpt>
      <trkpt lat="45.95603" lon="4.71506">
        <ele>179</ele>
        <time>2017-04-24T11:42:23Z</time>
      </trkpt>
      <trkpt lat="45.95597" lon="4.71505">
        <ele>180</ele>
        <time>2017-04-24T11:42:24Z</time>
      </trkpt>
      <trkpt lat="45.95591" lon="4.71505">
        <ele>180</ele>
        <time>2017-04-24T11:42:25Z</time>
      </trkpt>
      <trkpt lat="45.95584" lon="4.71504">
        <ele>180</ele>
        <time>2017-04-24T11:42:26Z</time>
      </trkpt>
      <trkpt lat="45.95577" lon="4.71504">
        <ele>179</ele>
        <time>2017-04-24T11:42:27Z</time>
      </trkpt>
      <trkpt lat="45.95571" lon="4.71504">
        <ele>179</ele>
        <time>2017-04-24T11:42:28Z</time>
      </trkpt>
      <trkpt lat="45.95565" lon="4.71504">
        <ele>178</ele>
        <time>2017-04-24T11:42:29Z</time>
      </trkpt>
      <trkpt lat="45.95558" lon="4.71503">
        <ele>178</ele>
        <time>2017-04-24T11:42:30Z</time>
      </trkpt>
      <trkpt lat="45.95552" lon="4.71503">
        <ele>178</ele>
        <time>2017-04-24T11:42:31Z</time>
      </trkpt>
      <trkpt lat="45.95545" lon="4.71502">
        <ele>178</ele>
        <time>2017-04-24T11:42:32Z</time>
      </trkpt>
      <trkpt lat="45.95539" lon="4.71502">
        <ele>177</ele>
        <time>2017-04-24T11:42:33Z</time>
      </trkpt>
      <trkpt lat="45.95532" lon="4.71502">
        <ele>177</ele>
        <time>2017-04-24T11:42:34Z</time>
      </trkpt>
      <trkpt lat="45.95526" lon="4.71502">
        <ele>177</ele>
        <time>2017-04-24T11:42:35Z</time>
      </trkpt>
      <trkpt lat="45.95519" lon="4.71502">
        <ele>177</ele>
        <time>2017-04-24T11:42:36Z</time>
      </trkpt>
      <trkpt lat="45.95513" lon="4.71501">
        <ele>177</ele>
        <time>2017-04-24T11:42:37Z</time>
      </trkpt>
      <trkpt lat="45.95506" lon="4.71501">
        <ele>177</ele>
        <time>2017-04-24T11:42:38Z</time>
      </trkpt>
      <trkpt lat="45.95499" lon="4.71501">
        <ele>177</ele>
        <time>2017-04-24T11:42:39Z</time>
      </trkpt>
      <trkpt lat="45.95493" lon="4.71501">
        <ele>176</ele>
        <time>2017-04-24T11:42:40Z</time>
      </trkpt>
      <trkpt lat="45.95487" lon="4.715">
        <ele>177</ele>
        <time>2017-04-24T11:42:41Z</time>
      </trkpt>
      <trkpt lat="45.9548" lon="4.715">
        <ele>176</ele>
        <time>2017-04-24T11:42:42Z</time>
      </trkpt>
      <trkpt lat="45.95473" lon="4.71499">
        <ele>176</ele>
        <time>2017-04-24T11:42:43Z</time>
      </trkpt>
      <trkpt lat="45.95467" lon="4.71499">
        <ele>176</ele>
        <time>2017-04-24T11:42:44Z</time>
      </trkpt>
      <trkpt lat="45.9546" lon="4.71499">
        <ele>176</ele>
        <time>2017-04-24T11:42:45Z</time>
      </trkpt>
      <trkpt lat="45.95453" lon="4.71499">
        <ele>176</ele>
        <time>2017-04-24T11:42:46Z</time>
      </trkpt>
      <trkpt lat="45.95447" lon="4.71499">
        <ele>176</ele>
        <time>2017-04-24T11:42:47Z</time>
      </trkpt>
      <trkpt lat="45.95441" lon="4.71498">
        <ele>175</ele>
        <time>2017-04-24T11:42:48Z</time>
      </trkpt>
      <trkpt lat="45.95436" lon="4.71498">
        <ele>175</ele>
        <time>2017-04-24T11:42:49Z</time>
      </trkpt>
      <trkpt lat="45.95429" lon="4.71499">
        <ele>175</ele>
        <time>2017-04-24T11:42:50Z</time>
      </trkpt>
      <trkpt lat="45.95423" lon="4.71499">
        <ele>175</ele>
        <time>2017-04-24T11:42:51Z</time>
      </trkpt>
      <trkpt lat="45.95416" lon="4.71499">
        <ele>174</ele>
        <time>2017-04-24T11:42:52Z</time>
      </trkpt>
      <trkpt lat="45.95409" lon="4.71499">
        <ele>174</ele>
        <time>2017-04-24T11:42:53Z</time>
      </trkpt>
      <trkpt lat="45.95403" lon="4.71498">
        <ele>175</ele>
        <time>2017-04-24T11:42:54Z</time>
      </trkpt>
      <trkpt lat="45.95396" lon="4.71497">
        <ele>175</ele>
        <time>2017-04-24T11:42:55Z</time>
      </trkpt>
      <trkpt lat="45.9539" lon="4.71496">
        <ele>175</ele>
        <time>2017-04-24T11:42:56Z</time>
      </trkpt>
      <trkpt lat="45.95383" lon="4.71496">
        <ele>175</ele>
        <time>2017-04-24T11:42:57Z</time>
      </trkpt>
      <trkpt lat="45.95377" lon="4.71495">
        <ele>175</ele>
        <time>2017-04-24T11:42:58Z</time>
      </trkpt>
      <trkpt lat="45.95371" lon="4.71495">
        <ele>175</ele>
        <time>2017-04-24T11:42:59Z</time>
      </trkpt>
      <trkpt lat="45.95365" lon="4.71494">
        <ele>175</ele>
        <time>2017-04-24T11:43:00Z</time>
      </trkpt>
      <trkpt lat="45.95359" lon="4.71493">
        <ele>175</ele>
        <time>2017-04-24T11:43:01Z</time>
      </trkpt>
      <trkpt lat="45.95353" lon="4.71492">
        <ele>175</ele>
        <time>2017-04-24T11:43:02Z</time>
      </trkpt>
      <trkpt lat="45.95347" lon="4.71492">
        <ele>175</ele>
        <time>2017-04-24T11:43:03Z</time>
      </trkpt>
      <trkpt lat="45.95341" lon="4.71491">
        <ele>174</ele>
        <time>2017-04-24T11:43:04Z</time>
      </trkpt>
      <trkpt lat="45.95335" lon="4.71489">
        <ele>174</ele>
        <time>2017-04-24T11:43:05Z</time>
      </trkpt>
      <trkpt lat="45.95329" lon="4.71489">
        <ele>175</ele>
        <time>2017-04-24T11:43:06Z</time>
      </trkpt>
      <trkpt lat="45.95324" lon="4.71488">
        <ele>175</ele>
        <time>2017-04-24T11:43:07Z</time>
      </trkpt>
      <trkpt lat="45.95318" lon="4.71488">
        <ele>175</ele>
        <time>2017-04-24T11:43:08Z</time>
      </trkpt>
      <trkpt lat="45.95312" lon="4.71487">
        <ele>175</ele>
        <time>2017-04-24T11:43:09Z</time>
      </trkpt>
      <trkpt lat="45.95306" lon="4.71487">
        <ele>175</ele>
        <time>2017-04-24T11:43:10Z</time>
      </trkpt>
      <trkpt lat="45.953" lon="4.71487">
        <ele>175</ele>
        <time>2017-04-24T11:43:11Z</time>
      </trkpt>
      <trkpt lat="45.95295" lon="4.71486">
        <ele>176</ele>
        <time>2017-04-24T11:43:12Z</time>
      </trkpt>
      <trkpt lat="45.95289" lon="4.71486">
        <ele>176</ele>
        <time>2017-04-24T11:43:13Z</time>
      </trkpt>
      <trkpt lat="45.95284" lon="4.71485">
        <ele>176</ele>
        <time>2017-04-24T11:43:14Z</time>
      </trkpt>
      <trkpt lat="45.95279" lon="4.71485">
        <ele>176</ele>
        <time>2017-04-24T11:43:15Z</time>
      </trkpt>
      <trkpt lat="45.95274" lon="4.71485">
        <ele>176</ele>
        <time>2017-04-24T11:43:16Z</time>
      </trkpt>
      <trkpt lat="45.95268" lon="4.71485">
        <ele>176</ele>
        <time>2017-04-24T11:43:17Z</time>
      </trkpt>
      <trkpt lat="45.95263" lon="4.71484">
        <ele>176</ele>
        <time>2017-04-24T11:43:18Z</time>
      </trkpt>
      <trkpt lat="45.95256" lon="4.71484">
        <ele>176</ele>
        <time>2017-04-24T11:43:19Z</time>
      </trkpt>
      <trkpt lat="45.95251" lon="4.71483">
        <ele>176</ele>
        <time>2017-04-24T11:43:20Z</time>
      </trkpt>
      <trkpt lat="45.95245" lon="4.71482">
        <ele>177</ele>
        <time>2017-04-24T11:43:21Z</time>
      </trkpt>
      <trkpt lat="45.95239" lon="4.71481">
        <ele>177</ele>
        <time>2017-04-24T11:43:22Z</time>
      </trkpt>
      <trkpt lat="45.95233" lon="4.7148">
        <ele>177</ele>
        <time>2017-04-24T11:43:23Z</time>
      </trkpt>
      <trkpt lat="45.95226" lon="4.71479">
        <ele>177</ele>
        <time>2017-04-24T11:43:24Z</time>
      </trkpt>
      <trkpt lat="45.95221" lon="4.71479">
        <ele>177</ele>
        <time>2017-04-24T11:43:25Z</time>
      </trkpt>
      <trkpt lat="45.95214" lon="4.71479">
        <ele>177</ele>
        <time>2017-04-24T11:43:26Z</time>
      </trkpt>
      <trkpt lat="45.95209" lon="4.71479">
        <ele>177</ele>
        <time>2017-04-24T11:43:27Z</time>
      </trkpt>
      <trkpt lat="45.95203" lon="4.71479">
        <ele>177</ele>
        <time>2017-04-24T11:43:28Z</time>
      </trkpt>
      <trkpt lat="45.95197" lon="4.71479">
        <ele>177</ele>
        <time>2017-04-24T11:43:29Z</time>
      </trkpt>
      <trkpt lat="45.95191" lon="4.71478">
        <ele>177</ele>
        <time>2017-04-24T11:43:30Z</time>
      </trkpt>
      <trkpt lat="45.95185" lon="4.71478">
        <ele>177</ele>
        <time>2017-04-24T11:43:31Z</time>
      </trkpt>
      <trkpt lat="45.9518" lon="4.71477">
        <ele>177</ele>
        <time>2017-04-24T11:43:32Z</time>
      </trkpt>
      <trkpt lat="45.95173" lon="4.71477">
        <ele>177</ele>
        <time>2017-04-24T11:43:33Z</time>
      </trkpt>
      <trkpt lat="45.95167" lon="4.71476">
        <ele>177</ele>
        <time>2017-04-24T11:43:34Z</time>
      </trkpt>
      <trkpt lat="45.95161" lon="4.71476">
        <ele>178</ele>
        <time>2017-04-24T11:43:35Z</time>
      </trkpt>
      <trkpt lat="45.95155" lon="4.71476">
        <ele>178</ele>
        <time>2017-04-24T11:43:36Z</time>
      </trkpt>
      <trkpt lat="45.95149" lon="4.71475">
        <ele>178</ele>
        <time>2017-04-24T11:43:37Z</time>
      </trkpt>
      <trkpt lat="45.95144" lon="4.71475">
        <ele>178</ele>
        <time>2017-04-24T11:43:38Z</time>
      </trkpt>
      <trkpt lat="45.95138" lon="4.71474">
        <ele>178</ele>
        <time>2017-04-24T11:43:39Z</time>
      </trkpt>
      <trkpt lat="45.95133" lon="4.71474">
        <ele>178</ele>
        <time>2017-04-24T11:43:40Z</time>
      </trkpt>
      <trkpt lat="45.95128" lon="4.71473">
        <ele>178</ele>
        <time>2017-04-24T11:43:41Z</time>
      </trkpt>
      <trkpt lat="45.95123" lon="4.71472">
        <ele>178</ele>
        <time>2017-04-24T11:43:42Z</time>
      </trkpt>
      <trkpt lat="45.95118" lon="4.71472">
        <ele>179</ele>
        <time>2017-04-24T11:43:43Z</time>
      </trkpt>
      <trkpt lat="45.95113" lon="4.71472">
        <ele>179</ele>
        <time>2017-04-24T11:43:44Z</time>
      </trkpt>
      <trkpt lat="45.95107" lon="4.71472">
        <ele>179</ele>
        <time>2017-04-24T11:43:45Z</time>
      </trkpt>
      <trkpt lat="45.95102" lon="4.71471">
        <ele>179</ele>
        <time>2017-04-24T11:43:46Z</time>
      </trkpt>
      <trkpt lat="45.95097" lon="4.71471">
        <ele>179</ele>
        <time>2017-04-24T11:43:47Z</time>
      </trkpt>
      <trkpt lat="45.95092" lon="4.71471">
        <ele>179</ele>
        <time>2017-04-24T11:43:48Z</time>
      </trkpt>
      <trkpt lat="45.95087" lon="4.7147">
        <ele>179</ele>
        <time>2017-04-24T11:43:49Z</time>
      </trkpt>
      <trkpt lat="45.95082" lon="4.71469">
        <ele>181</ele>
        <time>2017-04-24T11:43:50Z</time>
      </trkpt>
      <trkpt lat="45.95077" lon="4.71469">
        <ele>181</ele>
        <time>2017-04-24T11:43:51Z</time>
      </trkpt>
      <trkpt lat="45.95072" lon="4.71469">
        <ele>181</ele>
        <time>2017-04-24T11:43:52Z</time>
      </trkpt>
      <trkpt lat="45.95067" lon="4.71469">
        <ele>181</ele>
        <time>2017-04-24T11:43:53Z</time>
      </trkpt>
      <trkpt lat="45.95062" lon="4.71469">
        <ele>181</ele>
        <time>2017-04-24T11:43:54Z</time>
      </trkpt>
      <trkpt lat="45.95058" lon="4.71469">
        <ele>181</ele>
        <time>2017-04-24T11:43:55Z</time>
      </trkpt>
      <trkpt lat="45.95053" lon="4.71469">
        <ele>181</ele>
        <time>2017-04-24T11:43:56Z</time>
      </trkpt>
      <trkpt lat="45.95048" lon="4.71469">
        <ele>181</ele>
        <time>2017-04-24T11:43:57Z</time>
      </trkpt>
      <trkpt lat="45.95044" lon="4.71469">
        <ele>181</ele>
        <time>2017-04-24T11:43:58Z</time>
      </trkpt>
      <trkpt lat="45.95039" lon="4.71469">
        <ele>182</ele>
        <time>2017-04-24T11:43:59Z</time>
      </trkpt>
      <trkpt lat="45.95034" lon="4.71469">
        <ele>182</ele>
        <time>2017-04-24T11:44:00Z</time>
      </trkpt>
      <trkpt lat="45.95029" lon="4.71469">
        <ele>182</ele>
        <time>2017-04-24T11:44:01Z</time>
      </trkpt>
      <trkpt lat="45.95025" lon="4.71469">
        <ele>182</ele>
        <time>2017-04-24T11:44:02Z</time>
      </trkpt>
      <trkpt lat="45.9502" lon="4.71469">
        <ele>182</ele>
        <time>2017-04-24T11:44:03Z</time>
      </trkpt>
      <trkpt lat="45.95012" lon="4.71469">
        <ele>182</ele>
        <time>2017-04-24T11:44:05Z</time>
      </trkpt>
      <trkpt lat="45.95007" lon="4.71468">
        <ele>182</ele>
        <time>2017-04-24T11:44:06Z</time>
      </trkpt>
      <trkpt lat="45.94999" lon="4.71464">
        <ele>183</ele>
        <time>2017-04-24T11:44:08Z</time>
      </trkpt>
      <trkpt lat="45.94996" lon="4.7146">
        <ele>183</ele>
        <time>2017-04-24T11:44:09Z</time>
      </trkpt>
      <trkpt lat="45.94993" lon="4.71456">
        <ele>184</ele>
        <time>2017-04-24T11:44:10Z</time>
      </trkpt>
      <trkpt lat="45.9499" lon="4.71451">
        <ele>184</ele>
        <time>2017-04-24T11:44:11Z</time>
      </trkpt>
      <trkpt lat="45.94983" lon="4.71443">
        <ele>184</ele>
        <time>2017-04-24T11:44:13Z</time>
      </trkpt>
      <trkpt lat="45.9498" lon="4.7144">
        <ele>184</ele>
        <time>2017-04-24T11:44:14Z</time>
      </trkpt>
      <trkpt lat="45.94972" lon="4.71435">
        <ele>185</ele>
        <time>2017-04-24T11:44:16Z</time>
      </trkpt>
      <trkpt lat="45.94968" lon="4.71435">
        <ele>184</ele>
        <time>2017-04-24T11:44:17Z</time>
      </trkpt>
      <trkpt lat="45.94961" lon="4.71438">
        <ele>184</ele>
        <time>2017-04-24T11:44:19Z</time>
      </trkpt>
      <trkpt lat="45.94958" lon="4.71442">
        <ele>184</ele>
        <time>2017-04-24T11:44:20Z</time>
      </trkpt>
      <trkpt lat="45.94954" lon="4.71446">
        <ele>184</ele>
        <time>2017-04-24T11:44:21Z</time>
      </trkpt>
      <trkpt lat="45.94951" lon="4.7145">
        <ele>184</ele>
        <time>2017-04-24T11:44:22Z</time>
      </trkpt>
      <trkpt lat="45.94944" lon="4.71457">
        <ele>184</ele>
        <time>2017-04-24T11:44:24Z</time>
      </trkpt>
      <trkpt lat="45.9494" lon="4.71459">
        <ele>183</ele>
        <time>2017-04-24T11:44:25Z</time>
      </trkpt>
      <trkpt lat="45.94935" lon="4.7146">
        <ele>183</ele>
        <time>2017-04-24T11:44:26Z</time>
      </trkpt>
      <trkpt lat="45.94931" lon="4.71459">
        <ele>183</ele>
        <time>2017-04-24T11:44:27Z</time>
      </trkpt>
      <trkpt lat="45.94926" lon="4.71459">
        <ele>183</ele>
        <time>2017-04-24T11:44:28Z</time>
      </trkpt>
      <trkpt lat="45.94921" lon="4.71458">
        <ele>184</ele>
        <time>2017-04-24T11:44:29Z</time>
      </trkpt>
      <trkpt lat="45.94916" lon="4.71458">
        <ele>184</ele>
        <time>2017-04-24T11:44:30Z</time>
      </trkpt>
      <trkpt lat="45.9491" lon="4.71458">
        <ele>184</ele>
        <time>2017-04-24T11:44:31Z</time>
      </trkpt>
      <trkpt lat="45.94905" lon="4.71457">
        <ele>184</ele>
        <time>2017-04-24T11:44:32Z</time>
      </trkpt>
      <trkpt lat="45.94901" lon="4.71456">
        <ele>184</ele>
        <time>2017-04-24T11:44:33Z</time>
      </trkpt>
      <trkpt lat="45.94896" lon="4.71455">
        <ele>184</ele>
        <time>2017-04-24T11:44:34Z</time>
      </trkpt>
      <trkpt lat="45.94891" lon="4.71454">
        <ele>184</ele>
        <time>2017-04-24T11:44:35Z</time>
      </trkpt>
      <trkpt lat="45.94884" lon="4.71453">
        <ele>184</ele>
        <time>2017-04-24T11:44:37Z</time>
      </trkpt>
      <trkpt lat="45.9488" lon="4.71453">
        <ele>184</ele>
        <time>2017-04-24T11:44:38Z</time>
      </trkpt>
      <trkpt lat="45.94873" lon="4.71452">
        <ele>184</ele>
        <time>2017-04-24T11:44:40Z</time>
      </trkpt>
      <trkpt lat="45.94869" lon="4.71452">
        <ele>184</ele>
        <time>2017-04-24T11:44:41Z</time>
      </trkpt>
      <trkpt lat="45.94864" lon="4.71452">
        <ele>184</ele>
        <time>2017-04-24T11:44:42Z</time>
      </trkpt>
      <trkpt lat="45.9486" lon="4.71452">
        <ele>184</ele>
        <time>2017-04-24T11:44:43Z</time>
      </trkpt>
      <trkpt lat="45.94852" lon="4.71453">
        <ele>184</ele>
        <time>2017-04-24T11:44:45Z</time>
      </trkpt>
      <trkpt lat="45.94847" lon="4.71453">
        <ele>184</ele>
        <time>2017-04-24T11:44:46Z</time>
      </trkpt>
      <trkpt lat="45.94843" lon="4.71452">
        <ele>184</ele>
        <time>2017-04-24T11:44:47Z</time>
      </trkpt>
      <trkpt lat="45.94838" lon="4.71452">
        <ele>184</ele>
        <time>2017-04-24T11:44:48Z</time>
      </trkpt>
      <trkpt lat="45.9483" lon="4.71452">
        <ele>183</ele>
        <time>2017-04-24T11:44:50Z</time>
      </trkpt>
      <trkpt lat="45.94827" lon="4.71452">
        <ele>183</ele>
        <time>2017-04-24T11:44:51Z</time>
      </trkpt>
      <trkpt lat="45.94818" lon="4.71452">
        <ele>183</ele>
        <time>2017-04-24T11:44:53Z</time>
      </trkpt>
      <trkpt lat="45.94813" lon="4.71452">
        <ele>183</ele>
        <time>2017-04-24T11:44:54Z</time>
      </trkpt>
      <trkpt lat="45.94804" lon="4.71451">
        <ele>183</ele>
        <time>2017-04-24T11:44:56Z</time>
      </trkpt>
      <trkpt lat="45.948" lon="4.71451">
        <ele>183</ele>
        <time>2017-04-24T11:44:57Z</time>
      </trkpt>
      <trkpt lat="45.94795" lon="4.7145">
        <ele>183</ele>
        <time>2017-04-24T11:44:58Z</time>
      </trkpt>
      <trkpt lat="45.94789" lon="4.7145">
        <ele>183</ele>
        <time>2017-04-24T11:44:59Z</time>
      </trkpt>
      <trkpt lat="45.94784" lon="4.7145">
        <ele>183</ele>
        <time>2017-04-24T11:45:00Z</time>
      </trkpt>
      <trkpt lat="45.94779" lon="4.71449">
        <ele>183</ele>
        <time>2017-04-24T11:45:01Z</time>
      </trkpt>
      <trkpt lat="45.94771" lon="4.71448">
        <ele>183</ele>
        <time>2017-04-24T11:45:03Z</time>
      </trkpt>
      <trkpt lat="45.94768" lon="4.71448">
        <ele>183</ele>
        <time>2017-04-24T11:45:04Z</time>
      </trkpt>
      <trkpt lat="45.94759" lon="4.71449">
        <ele>183</ele>
        <time>2017-04-24T11:45:06Z</time>
      </trkpt>
      <trkpt lat="45.94754" lon="4.7145">
        <ele>183</ele>
        <time>2017-04-24T11:45:07Z</time>
      </trkpt>
      <trkpt lat="45.94749" lon="4.7145">
        <ele>182</ele>
        <time>2017-04-24T11:45:08Z</time>
      </trkpt>
      <trkpt lat="45.94745" lon="4.71449">
        <ele>182</ele>
        <time>2017-04-24T11:45:09Z</time>
      </trkpt>
      <trkpt lat="45.9474" lon="4.71449">
        <ele>182</ele>
        <time>2017-04-24T11:45:10Z</time>
      </trkpt>
      <trkpt lat="45.94735" lon="4.71449">
        <ele>182</ele>
        <time>2017-04-24T11:45:11Z</time>
      </trkpt>
      <trkpt lat="45.94729" lon="4.71449">
        <ele>182</ele>
        <time>2017-04-24T11:45:12Z</time>
      </trkpt>
      <trkpt lat="45.94723" lon="4.71449">
        <ele>182</ele>
        <time>2017-04-24T11:45:13Z</time>
      </trkpt>
      <trkpt lat="45.94717" lon="4.7145">
        <ele>182</ele>
        <time>2017-04-24T11:45:14Z</time>
      </trkpt>
      <trkpt lat="45.94711" lon="4.7145">
        <ele>182</ele>
        <time>2017-04-24T11:45:15Z</time>
      </trkpt>
      <trkpt lat="45.94706" lon="4.7145">
        <ele>182</ele>
        <time>2017-04-24T11:45:16Z</time>
      </trkpt>
      <trkpt lat="45.94701" lon="4.7145">
        <ele>182</ele>
        <time>2017-04-24T11:45:17Z</time>
      </trkpt>
      <trkpt lat="45.94696" lon="4.7145">
        <ele>182</ele>
        <time>2017-04-24T11:45:18Z</time>
      </trkpt>
      <trkpt lat="45.94692" lon="4.71449">
        <ele>182</ele>
        <time>2017-04-24T11:45:19Z</time>
      </trkpt>
      <trkpt lat="45.94687" lon="4.71447">
        <ele>182</ele>
        <time>2017-04-24T11:45:20Z</time>
      </trkpt>
      <trkpt lat="45.94682" lon="4.71447">
        <ele>182</ele>
        <time>2017-04-24T11:45:21Z</time>
      </trkpt>
      <trkpt lat="45.94677" lon="4.71446">
        <ele>182</ele>
        <time>2017-04-24T11:45:22Z</time>
      </trkpt>
      <trkpt lat="45.94671" lon="4.71445">
        <ele>182</ele>
        <time>2017-04-24T11:45:23Z</time>
      </trkpt>
      <trkpt lat="45.94665" lon="4.71444">
        <ele>181</ele>
        <time>2017-04-24T11:45:24Z</time>
      </trkpt>
      <trkpt lat="45.9466" lon="4.71444">
        <ele>181</ele>
        <time>2017-04-24T11:45:25Z</time>
      </trkpt>
      <trkpt lat="45.94655" lon="4.71444">
        <ele>181</ele>
        <time>2017-04-24T11:45:26Z</time>
      </trkpt>
      <trkpt lat="45.94651" lon="4.71443">
        <ele>181</ele>
        <time>2017-04-24T11:45:27Z</time>
      </trkpt>
      <trkpt lat="45.94642" lon="4.71442">
        <ele>181</ele>
        <time>2017-04-24T11:45:29Z</time>
      </trkpt>
      <trkpt lat="45.94638" lon="4.71442">
        <ele>181</ele>
        <time>2017-04-24T11:45:30Z</time>
      </trkpt>
      <trkpt lat="45.94633" lon="4.71441">
        <ele>181</ele>
        <time>2017-04-24T11:45:31Z</time>
      </trkpt>
      <trkpt lat="45.94628" lon="4.71441">
        <ele>181</ele>
        <time>2017-04-24T11:45:32Z</time>
      </trkpt>
      <trkpt lat="45.94624" lon="4.71441">
        <ele>181</ele>
        <time>2017-04-24T11:45:33Z</time>
      </trkpt>
      <trkpt lat="45.94619" lon="4.71441">
        <ele>181</ele>
        <time>2017-04-24T11:45:34Z</time>
      </trkpt>
      <trkpt lat="45.94614" lon="4.71441">
        <ele>181</ele>
        <time>2017-04-24T11:45:35Z</time>
      </trkpt>
      <trkpt lat="45.94608" lon="4.7144">
        <ele>182</ele>
        <time>2017-04-24T11:45:36Z</time>
      </trkpt>
      <trkpt lat="45.94603" lon="4.7144">
        <ele>182</ele>
        <time>2017-04-24T11:45:37Z</time>
      </trkpt>
      <trkpt lat="45.94597" lon="4.71441">
        <ele>182</ele>
        <time>2017-04-24T11:45:38Z</time>
      </trkpt>
      <trkpt lat="45.94591" lon="4.7144">
        <ele>182</ele>
        <time>2017-04-24T11:45:39Z</time>
      </trkpt>
      <trkpt lat="45.94586" lon="4.7144">
        <ele>182</ele>
        <time>2017-04-24T11:45:40Z</time>
      </trkpt>
      <trkpt lat="45.9458" lon="4.7144">
        <ele>182</ele>
        <time>2017-04-24T11:45:41Z</time>
      </trkpt>
      <trkpt lat="45.94575" lon="4.7144">
        <ele>182</ele>
        <time>2017-04-24T11:45:42Z</time>
      </trkpt>
      <trkpt lat="45.94569" lon="4.71442">
        <ele>181</ele>
        <time>2017-04-24T11:45:43Z</time>
      </trkpt>
      <trkpt lat="45.94563" lon="4.71443">
        <ele>181</ele>
        <time>2017-04-24T11:45:44Z</time>
      </trkpt>
      <trkpt lat="45.94558" lon="4.71445">
        <ele>181</ele>
        <time>2017-04-24T11:45:45Z</time>
      </trkpt>
      <trkpt lat="45.94552" lon="4.71447">
        <ele>181</ele>
        <time>2017-04-24T11:45:46Z</time>
      </trkpt>
      <trkpt lat="45.94545" lon="4.71449">
        <ele>180</ele>
        <time>2017-04-24T11:45:47Z</time>
      </trkpt>
      <trkpt lat="45.94539" lon="4.71451">
        <ele>180</ele>
        <time>2017-04-24T11:45:48Z</time>
      </trkpt>
      <trkpt lat="45.94533" lon="4.71453">
        <ele>180</ele>
        <time>2017-04-24T11:45:49Z</time>
      </trkpt>
      <trkpt lat="45.94527" lon="4.71456">
        <ele>180</ele>
        <time>2017-04-24T11:45:50Z</time>
      </trkpt>
      <trkpt lat="45.94521" lon="4.71459">
        <ele>180</ele>
        <time>2017-04-24T11:45:51Z</time>
      </trkpt>
      <trkpt lat="45.94514" lon="4.71461">
        <ele>180</ele>
        <time>2017-04-24T11:45:52Z</time>
      </trkpt>
      <trkpt lat="45.94508" lon="4.71464">
        <ele>180</ele>
        <time>2017-04-24T11:45:53Z</time>
      </trkpt>
      <trkpt lat="45.94501" lon="4.71466">
        <ele>179</ele>
        <time>2017-04-24T11:45:54Z</time>
      </trkpt>
      <trkpt lat="45.94494" lon="4.71469">
        <ele>179</ele>
        <time>2017-04-24T11:45:55Z</time>
      </trkpt>
      <trkpt lat="45.94487" lon="4.71471">
        <ele>179</ele>
        <time>2017-04-24T11:45:56Z</time>
      </trkpt>
      <trkpt lat="45.9448" lon="4.71473">
        <ele>179</ele>
        <time>2017-04-24T11:45:57Z</time>
      </trkpt>
      <trkpt lat="45.94473" lon="4.71476">
        <ele>179</ele>
        <time>2017-04-24T11:45:58Z</time>
      </trkpt>
      <trkpt lat="45.94465" lon="4.71478">
        <ele>179</ele>
        <time>2017-04-24T11:45:59Z</time>
      </trkpt>
      <trkpt lat="45.94458" lon="4.7148">
        <ele>179</ele>
        <time>2017-04-24T11:46:00Z</time>
      </trkpt>
      <trkpt lat="45.94452" lon="4.71482">
        <ele>179</ele>
        <time>2017-04-24T11:46:01Z</time>
      </trkpt>
      <trkpt lat="45.94445" lon="4.71484">
        <ele>179</ele>
        <time>2017-04-24T11:46:02Z</time>
      </trkpt>
      <trkpt lat="45.94438" lon="4.71486">
        <ele>179</ele>
        <time>2017-04-24T11:46:03Z</time>
      </trkpt>
      <trkpt lat="45.94432" lon="4.71489">
        <ele>178</ele>
        <time>2017-04-24T11:46:04Z</time>
      </trkpt>
      <trkpt lat="45.94425" lon="4.71492">
        <ele>178</ele>
        <time>2017-04-24T11:46:05Z</time>
      </trkpt>
      <trkpt lat="45.94417" lon="4.71495">
        <ele>178</ele>
        <time>2017-04-24T11:46:06Z</time>
      </trkpt>
      <trkpt lat="45.9441" lon="4.71498">
        <ele>178</ele>
        <time>2017-04-24T11:46:07Z</time>
      </trkpt>
      <trkpt lat="45.94402" lon="4.71501">
        <ele>177</ele>
        <time>2017-04-24T11:46:08Z</time>
      </trkpt>
      <trkpt lat="45.94395" lon="4.71504">
        <ele>177</ele>
        <time>2017-04-24T11:46:09Z</time>
      </trkpt>
      <trkpt lat="45.94387" lon="4.71507">
        <ele>177</ele>
        <time>2017-04-24T11:46:10Z</time>
      </trkpt>
      <trkpt lat="45.9438" lon="4.7151">
        <ele>177</ele>
        <time>2017-04-24T11:46:11Z</time>
      </trkpt>
      <trkpt lat="45.94372" lon="4.71513">
        <ele>176</ele>
        <time>2017-04-24T11:46:12Z</time>
      </trkpt>
      <trkpt lat="45.94365" lon="4.71516">
        <ele>176</ele>
        <time>2017-04-24T11:46:13Z</time>
      </trkpt>
      <trkpt lat="45.94358" lon="4.71519">
        <ele>176</ele>
        <time>2017-04-24T11:46:14Z</time>
      </trkpt>
      <trkpt lat="45.9435" lon="4.71522">
        <ele>176</ele>
        <time>2017-04-24T11:46:15Z</time>
      </trkpt>
      <trkpt lat="45.94343" lon="4.71525">
        <ele>176</ele>
        <time>2017-04-24T11:46:16Z</time>
      </trkpt>
      <trkpt lat="45.94337" lon="4.71527">
        <ele>176</ele>
        <time>2017-04-24T11:46:17Z</time>
      </trkpt>
      <trkpt lat="45.94329" lon="4.7153">
        <ele>176</ele>
        <time>2017-04-24T11:46:18Z</time>
      </trkpt>
      <trkpt lat="45.94323" lon="4.71533">
        <ele>176</ele>
        <time>2017-04-24T11:46:19Z</time>
      </trkpt>
      <trkpt lat="45.94317" lon="4.71535">
        <ele>175</ele>
        <time>2017-04-24T11:46:20Z</time>
      </trkpt>
      <trkpt lat="45.9431" lon="4.71538">
        <ele>175</ele>
        <time>2017-04-24T11:46:21Z</time>
      </trkpt>
      <trkpt lat="45.94304" lon="4.71541">
        <ele>175</ele>
        <time>2017-04-24T11:46:22Z</time>
      </trkpt>
      <trkpt lat="45.94297" lon="4.71545">
        <ele>175</ele>
        <time>2017-04-24T11:46:23Z</time>
      </trkpt>
      <trkpt lat="45.94291" lon="4.71548">
        <ele>175</ele>
        <time>2017-04-24T11:46:24Z</time>
      </trkpt>
      <trkpt lat="45.94285" lon="4.7155">
        <ele>175</ele>
        <time>2017-04-24T11:46:25Z</time>
      </trkpt>
      <trkpt lat="45.94278" lon="4.71553">
        <ele>175</ele>
        <time>2017-04-24T11:46:26Z</time>
      </trkpt>
      <trkpt lat="45.94271" lon="4.71556">
        <ele>175</ele>
        <time>2017-04-24T11:46:27Z</time>
      </trkpt>
      <trkpt lat="45.94265" lon="4.71558">
        <ele>175</ele>
        <time>2017-04-24T11:46:28Z</time>
      </trkpt>
      <trkpt lat="45.94259" lon="4.71561">
        <ele>175</ele>
        <time>2017-04-24T11:46:29Z</time>
      </trkpt>
      <trkpt lat="45.94253" lon="4.71564">
        <ele>175</ele>
        <time>2017-04-24T11:46:30Z</time>
      </trkpt>
      <trkpt lat="45.94247" lon="4.71567">
        <ele>174</ele>
        <time>2017-04-24T11:46:31Z</time>
      </trkpt>
      <trkpt lat="45.94241" lon="4.71571">
        <ele>174</ele>
        <time>2017-04-24T11:46:32Z</time>
      </trkpt>
      <trkpt lat="45.94235" lon="4.71574">
        <ele>174</ele>
        <time>2017-04-24T11:46:33Z</time>
      </trkpt>
      <trkpt lat="45.94229" lon="4.71577">
        <ele>174</ele>
        <time>2017-04-24T11:46:34Z</time>
      </trkpt>
      <trkpt lat="45.94223" lon="4.71579">
        <ele>174</ele>
        <time>2017-04-24T11:46:35Z</time>
      </trkpt>
      <trkpt lat="45.94217" lon="4.71581">
        <ele>174</ele>
        <time>2017-04-24T11:46:36Z</time>
      </trkpt>
      <trkpt lat="45.94212" lon="4.71582">
        <ele>174</ele>
        <time>2017-04-24T11:46:37Z</time>
      </trkpt>
      <trkpt lat="45.94206" lon="4.71584">
        <ele>173</ele>
        <time>2017-04-24T11:46:38Z</time>
      </trkpt>
      <trkpt lat="45.942" lon="4.71586">
        <ele>173</ele>
        <time>2017-04-24T11:46:39Z</time>
      </trkpt>
      <trkpt lat="45.94195" lon="4.71588">
        <ele>173</ele>
        <time>2017-04-24T11:46:40Z</time>
      </trkpt>
      <trkpt lat="45.9419" lon="4.71591">
        <ele>173</ele>
        <time>2017-04-24T11:46:41Z</time>
      </trkpt>
      <trkpt lat="45.94184" lon="4.71593">
        <ele>173</ele>
        <time>2017-04-24T11:46:42Z</time>
      </trkpt>
      <trkpt lat="45.94178" lon="4.71595">
        <ele>173</ele>
        <time>2017-04-24T11:46:43Z</time>
      </trkpt>
      <trkpt lat="45.94173" lon="4.71596">
        <ele>173</ele>
        <time>2017-04-24T11:46:44Z</time>
      </trkpt>
      <trkpt lat="45.94168" lon="4.71597">
        <ele>173</ele>
        <time>2017-04-24T11:46:45Z</time>
      </trkpt>
      <trkpt lat="45.94162" lon="4.71599">
        <ele>173</ele>
        <time>2017-04-24T11:46:46Z</time>
      </trkpt>
      <trkpt lat="45.94157" lon="4.716">
        <ele>173</ele>
        <time>2017-04-24T11:46:47Z</time>
      </trkpt>
      <trkpt lat="45.94152" lon="4.71602">
        <ele>173</ele>
        <time>2017-04-24T11:46:48Z</time>
      </trkpt>
      <trkpt lat="45.94146" lon="4.71604">
        <ele>173</ele>
        <time>2017-04-24T11:46:49Z</time>
      </trkpt>
      <trkpt lat="45.9414" lon="4.71606">
        <ele>173</ele>
        <time>2017-04-24T11:46:50Z</time>
      </trkpt>
      <trkpt lat="45.94135" lon="4.71608">
        <ele>173</ele>
        <time>2017-04-24T11:46:51Z</time>
      </trkpt>
      <trkpt lat="45.94129" lon="4.7161">
        <ele>173</ele>
        <time>2017-04-24T11:46:52Z</time>
      </trkpt>
      <trkpt lat="45.94124" lon="4.71613">
        <ele>173</ele>
        <time>2017-04-24T11:46:53Z</time>
      </trkpt>
      <trkpt lat="45.94118" lon="4.71615">
        <ele>173</ele>
        <time>2017-04-24T11:46:54Z</time>
      </trkpt>
      <trkpt lat="45.94113" lon="4.71618">
        <ele>173</ele>
        <time>2017-04-24T11:46:55Z</time>
      </trkpt>
      <trkpt lat="45.94107" lon="4.7162">
        <ele>173</ele>
        <time>2017-04-24T11:46:56Z</time>
      </trkpt>
      <trkpt lat="45.94101" lon="4.71622">
        <ele>173</ele>
        <time>2017-04-24T11:46:57Z</time>
      </trkpt>
      <trkpt lat="45.94095" lon="4.71624">
        <ele>173</ele>
        <time>2017-04-24T11:46:58Z</time>
      </trkpt>
      <trkpt lat="45.9409" lon="4.71627">
        <ele>173</ele>
        <time>2017-04-24T11:46:59Z</time>
      </trkpt>
      <trkpt lat="45.94083" lon="4.71629">
        <ele>174</ele>
        <time>2017-04-24T11:47:00Z</time>
      </trkpt>
      <trkpt lat="45.94078" lon="4.71631">
        <ele>174</ele>
        <time>2017-04-24T11:47:01Z</time>
      </trkpt>
      <trkpt lat="45.94072" lon="4.71633">
        <ele>174</ele>
        <time>2017-04-24T11:47:02Z</time>
      </trkpt>
      <trkpt lat="45.94067" lon="4.71636">
        <ele>174</ele>
        <time>2017-04-24T11:47:03Z</time>
      </trkpt>
      <trkpt lat="45.94063" lon="4.71638">
        <ele>174</ele>
        <time>2017-04-24T11:47:04Z</time>
      </trkpt>
      <trkpt lat="45.94057" lon="4.7164">
        <ele>174</ele>
        <time>2017-04-24T11:47:05Z</time>
      </trkpt>
      <trkpt lat="45.94053" lon="4.71643">
        <ele>175</ele>
        <time>2017-04-24T11:47:06Z</time>
      </trkpt>
      <trkpt lat="45.94047" lon="4.71645">
        <ele>175</ele>
        <time>2017-04-24T11:47:07Z</time>
      </trkpt>
      <trkpt lat="45.94041" lon="4.71647">
        <ele>175</ele>
        <time>2017-04-24T11:47:08Z</time>
      </trkpt>
      <trkpt lat="45.94036" lon="4.71649">
        <ele>175</ele>
        <time>2017-04-24T11:47:09Z</time>
      </trkpt>
      <trkpt lat="45.94031" lon="4.71652">
        <ele>175</ele>
        <time>2017-04-24T11:47:10Z</time>
      </trkpt>
      <trkpt lat="45.94027" lon="4.71655">
        <ele>175</ele>
        <time>2017-04-24T11:47:11Z</time>
      </trkpt>
      <trkpt lat="45.94022" lon="4.71657">
        <ele>176</ele>
        <time>2017-04-24T11:47:12Z</time>
      </trkpt>
      <trkpt lat="45.94018" lon="4.71659">
        <ele>176</ele>
        <time>2017-04-24T11:47:13Z</time>
      </trkpt>
      <trkpt lat="45.94013" lon="4.71661">
        <ele>176</ele>
        <time>2017-04-24T11:47:14Z</time>
      </trkpt>
      <trkpt lat="45.94009" lon="4.71662">
        <ele>176</ele>
        <time>2017-04-24T11:47:15Z</time>
      </trkpt>
      <trkpt lat="45.94004" lon="4.71663">
        <ele>177</ele>
        <time>2017-04-24T11:47:16Z</time>
      </trkpt>
      <trkpt lat="45.94" lon="4.71663">
        <ele>177</ele>
        <time>2017-04-24T11:47:17Z</time>
      </trkpt>
      <trkpt lat="45.93995" lon="4.71663">
        <ele>177</ele>
        <time>2017-04-24T11:47:18Z</time>
      </trkpt>
      <trkpt lat="45.93989" lon="4.71665">
        <ele>177</ele>
        <time>2017-04-24T11:47:19Z</time>
      </trkpt>
      <trkpt lat="45.93983" lon="4.71667">
        <ele>176</ele>
        <time>2017-04-24T11:47:20Z</time>
      </trkpt>
      <trkpt lat="45.93978" lon="4.7167">
        <ele>176</ele>
        <time>2017-04-24T11:47:21Z</time>
      </trkpt>
      <trkpt lat="45.93972" lon="4.71672">
        <ele>175</ele>
        <time>2017-04-24T11:47:22Z</time>
      </trkpt>
      <trkpt lat="45.93966" lon="4.71675">
        <ele>175</ele>
        <time>2017-04-24T11:47:23Z</time>
      </trkpt>
      <trkpt lat="45.93961" lon="4.71677">
        <ele>175</ele>
        <time>2017-04-24T11:47:24Z</time>
      </trkpt>
      <trkpt lat="45.93956" lon="4.71678">
        <ele>175</ele>
        <time>2017-04-24T11:47:25Z</time>
      </trkpt>
      <trkpt lat="45.93951" lon="4.7168">
        <ele>175</ele>
        <time>2017-04-24T11:47:26Z</time>
      </trkpt>
      <trkpt lat="45.93946" lon="4.71682">
        <ele>175</ele>
        <time>2017-04-24T11:47:27Z</time>
      </trkpt>
      <trkpt lat="45.93941" lon="4.71684">
        <ele>175</ele>
        <time>2017-04-24T11:47:28Z</time>
      </trkpt>
      <trkpt lat="45.93937" lon="4.71685">
        <ele>175</ele>
        <time>2017-04-24T11:47:29Z</time>
      </trkpt>
      <trkpt lat="45.93931" lon="4.71686">
        <ele>175</ele>
        <time>2017-04-24T11:47:30Z</time>
      </trkpt>
      <trkpt lat="45.93926" lon="4.71688">
        <ele>175</ele>
        <time>2017-04-24T11:47:31Z</time>
      </trkpt>
      <trkpt lat="45.93921" lon="4.7169">
        <ele>175</ele>
        <time>2017-04-24T11:47:32Z</time>
      </trkpt>
      <trkpt lat="45.93917" lon="4.71692">
        <ele>174</ele>
        <time>2017-04-24T11:47:33Z</time>
      </trkpt>
      <trkpt lat="45.93912" lon="4.71694">
        <ele>174</ele>
        <time>2017-04-24T11:47:34Z</time>
      </trkpt>
      <trkpt lat="45.93906" lon="4.71695">
        <ele>174</ele>
        <time>2017-04-24T11:47:35Z</time>
      </trkpt>
      <trkpt lat="45.939" lon="4.71697">
        <ele>174</ele>
        <time>2017-04-24T11:47:36Z</time>
      </trkpt>
      <trkpt lat="45.93893" lon="4.71699">
        <ele>174</ele>
        <time>2017-04-24T11:47:37Z</time>
      </trkpt>
      <trkpt lat="45.93888" lon="4.71701">
        <ele>174</ele>
        <time>2017-04-24T11:47:38Z</time>
      </trkpt>
      <trkpt lat="45.93882" lon="4.71704">
        <ele>174</ele>
        <time>2017-04-24T11:47:39Z</time>
      </trkpt>
      <trkpt lat="45.93877" lon="4.71707">
        <ele>174</ele>
        <time>2017-04-24T11:47:40Z</time>
      </trkpt>
      <trkpt lat="45.93872" lon="4.7171">
        <ele>174</ele>
        <time>2017-04-24T11:47:41Z</time>
      </trkpt>
      <trkpt lat="45.93867" lon="4.71712">
        <ele>174</ele>
        <time>2017-04-24T11:47:42Z</time>
      </trkpt>
      <trkpt lat="45.93862" lon="4.71714">
        <ele>174</ele>
        <time>2017-04-24T11:47:43Z</time>
      </trkpt>
      <trkpt lat="45.93857" lon="4.71716">
        <ele>174</ele>
        <time>2017-04-24T11:47:44Z</time>
      </trkpt>
      <trkpt lat="45.93851" lon="4.71718">
        <ele>174</ele>
        <time>2017-04-24T11:47:45Z</time>
      </trkpt>
      <trkpt lat="45.93846" lon="4.7172">
        <ele>174</ele>
        <time>2017-04-24T11:47:46Z</time>
      </trkpt>
      <trkpt lat="45.93841" lon="4.71722">
        <ele>175</ele>
        <time>2017-04-24T11:47:47Z</time>
      </trkpt>
      <trkpt lat="45.93835" lon="4.71724">
        <ele>175</ele>
        <time>2017-04-24T11:47:48Z</time>
      </trkpt>
      <trkpt lat="45.93829" lon="4.71727">
        <ele>175</ele>
        <time>2017-04-24T11:47:49Z</time>
      </trkpt>
      <trkpt lat="45.93824" lon="4.71729">
        <ele>175</ele>
        <time>2017-04-24T11:47:50Z</time>
      </trkpt>
      <trkpt lat="45.9382" lon="4.71731">
        <ele>175</ele>
        <time>2017-04-24T11:47:51Z</time>
      </trkpt>
      <trkpt lat="45.93815" lon="4.71733">
        <ele>175</ele>
        <time>2017-04-24T11:47:52Z</time>
      </trkpt>
      <trkpt lat="45.9381" lon="4.71735">
        <ele>175</ele>
        <time>2017-04-24T11:47:53Z</time>
      </trkpt>
      <trkpt lat="45.93804" lon="4.71738">
        <ele>175</ele>
        <time>2017-04-24T11:47:54Z</time>
      </trkpt>
      <trkpt lat="45.93799" lon="4.7174">
        <ele>175</ele>
        <time>2017-04-24T11:47:55Z</time>
      </trkpt>
      <trkpt lat="45.93794" lon="4.71743">
        <ele>175</ele>
        <time>2017-04-24T11:47:56Z</time>
      </trkpt>
      <trkpt lat="45.93789" lon="4.71745">
        <ele>175</ele>
        <time>2017-04-24T11:47:57Z</time>
      </trkpt>
      <trkpt lat="45.93784" lon="4.71747">
        <ele>175</ele>
        <time>2017-04-24T11:47:58Z</time>
      </trkpt>
      <trkpt lat="45.93778" lon="4.7175">
        <ele>175</ele>
        <time>2017-04-24T11:47:59Z</time>
      </trkpt>
      <trkpt lat="45.93772" lon="4.71752">
        <ele>175</ele>
        <time>2017-04-24T11:48:00Z</time>
      </trkpt>
      <trkpt lat="45.93766" lon="4.71755">
        <ele>175</ele>
        <time>2017-04-24T11:48:01Z</time>
      </trkpt>
      <trkpt lat="45.93761" lon="4.71757">
        <ele>175</ele>
        <time>2017-04-24T11:48:02Z</time>
      </trkpt>
      <trkpt lat="45.93756" lon="4.7176">
        <ele>175</ele>
        <time>2017-04-24T11:48:03Z</time>
      </trkpt>
      <trkpt lat="45.93751" lon="4.71763">
        <ele>175</ele>
        <time>2017-04-24T11:48:04Z</time>
      </trkpt>
      <trkpt lat="45.93745" lon="4.71765">
        <ele>176</ele>
        <time>2017-04-24T11:48:05Z</time>
      </trkpt>
      <trkpt lat="45.93739" lon="4.71767">
        <ele>176</ele>
        <time>2017-04-24T11:48:06Z</time>
      </trkpt>
      <trkpt lat="45.93734" lon="4.7177">
        <ele>176</ele>
        <time>2017-04-24T11:48:07Z</time>
      </trkpt>
      <trkpt lat="45.93731" lon="4.71773">
        <ele>176</ele>
        <time>2017-04-24T11:48:08Z</time>
      </trkpt>
      <trkpt lat="45.93725" lon="4.71782">
        <ele>176</ele>
        <time>2017-04-24T11:48:10Z</time>
      </trkpt>
      <trkpt lat="45.93722" lon="4.71788">
        <ele>176</ele>
        <time>2017-04-24T11:48:11Z</time>
      </trkpt>
      <trkpt lat="45.9372" lon="4.71795">
        <ele>176</ele>
        <time>2017-04-24T11:48:12Z</time>
      </trkpt>
      <trkpt lat="45.93716" lon="4.71801">
        <ele>176</ele>
        <time>2017-04-24T11:48:13Z</time>
      </trkpt>
      <trkpt lat="45.93714" lon="4.71808">
        <ele>176</ele>
        <time>2017-04-24T11:48:14Z</time>
      </trkpt>
      <trkpt lat="45.93712" lon="4.71815">
        <ele>176</ele>
        <time>2017-04-24T11:48:15Z</time>
      </trkpt>
      <trkpt lat="45.9371" lon="4.71821">
        <ele>176</ele>
        <time>2017-04-24T11:48:16Z</time>
      </trkpt>
      <trkpt lat="45.93708" lon="4.71827">
        <ele>176</ele>
        <time>2017-04-24T11:48:17Z</time>
      </trkpt>
      <trkpt lat="45.93705" lon="4.71836">
        <ele>175</ele>
        <time>2017-04-24T11:48:19Z</time>
      </trkpt>
      <trkpt lat="45.93703" lon="4.7184">
        <ele>175</ele>
        <time>2017-04-24T11:48:20Z</time>
      </trkpt>
      <trkpt lat="45.937" lon="4.71845">
        <ele>175</ele>
        <time>2017-04-24T11:48:21Z</time>
      </trkpt>
      <trkpt lat="45.93698" lon="4.71851">
        <ele>175</ele>
        <time>2017-04-24T11:48:22Z</time>
      </trkpt>
      <trkpt lat="45.93694" lon="4.71862">
        <ele>175</ele>
        <time>2017-04-24T11:48:24Z</time>
      </trkpt>
      <trkpt lat="45.93691" lon="4.71868">
        <ele>175</ele>
        <time>2017-04-24T11:48:25Z</time>
      </trkpt>
      <trkpt lat="45.93688" lon="4.71879">
        <ele>175</ele>
        <time>2017-04-24T11:48:27Z</time>
      </trkpt>
      <trkpt lat="45.93686" lon="4.71885">
        <ele>175</ele>
        <time>2017-04-24T11:48:28Z</time>
      </trkpt>
      <trkpt lat="45.93681" lon="4.71896">
        <ele>175</ele>
        <time>2017-04-24T11:48:30Z</time>
      </trkpt>
      <trkpt lat="45.93678" lon="4.71901">
        <ele>175</ele>
        <time>2017-04-24T11:48:31Z</time>
      </trkpt>
      <trkpt lat="45.93673" lon="4.7191">
        <ele>175</ele>
        <time>2017-04-24T11:48:33Z</time>
      </trkpt>
      <trkpt lat="45.93672" lon="4.71914">
        <ele>175</ele>
        <time>2017-04-24T11:48:34Z</time>
      </trkpt>
      <trkpt lat="45.93669" lon="4.71922">
        <ele>174</ele>
        <time>2017-04-24T11:48:38Z</time>
      </trkpt>
      <trkpt lat="45.9367" lon="4.71922">
        <ele>175</ele>
        <time>2017-04-24T11:48:39Z</time>
      </trkpt>
      <trkpt lat="45.9367" lon="4.71921">
        <ele>175</ele>
        <time>2017-04-24T11:48:50Z</time>
      </trkpt>
      <trkpt lat="45.93671" lon="4.71921">
        <ele>175</ele>
        <time>2017-04-24T11:48:51Z</time>
      </trkpt>
      <trkpt lat="45.93664" lon="4.71929">
        <ele>175</ele>
        <time>2017-04-24T11:48:55Z</time>
      </trkpt>
      <trkpt lat="45.93663" lon="4.71933">
        <ele>175</ele>
        <time>2017-04-24T11:48:56Z</time>
      </trkpt>
      <trkpt lat="45.9366" lon="4.71941">
        <ele>175</ele>
        <time>2017-04-24T11:48:58Z</time>
      </trkpt>
      <trkpt lat="45.93659" lon="4.71945">
        <ele>175</ele>
        <time>2017-04-24T11:48:59Z</time>
      </trkpt>
      <trkpt lat="45.93655" lon="4.71954">
        <ele>175</ele>
        <time>2017-04-24T11:49:01Z</time>
      </trkpt>
      <trkpt lat="45.93653" lon="4.71959">
        <ele>175</ele>
        <time>2017-04-24T11:49:02Z</time>
      </trkpt>
      <trkpt lat="45.9365" lon="4.71966">
        <ele>175</ele>
        <time>2017-04-24T11:49:03Z</time>
      </trkpt>
      <trkpt lat="45.93648" lon="4.71972">
        <ele>175</ele>
        <time>2017-04-24T11:49:04Z</time>
      </trkpt>
      <trkpt lat="45.93645" lon="4.71979">
        <ele>175</ele>
        <time>2017-04-24T11:49:05Z</time>
      </trkpt>
      <trkpt lat="45.93642" lon="4.71986">
        <ele>175</ele>
        <time>2017-04-24T11:49:06Z</time>
      </trkpt>
      <trkpt lat="45.9364" lon="4.71996">
        <ele>175</ele>
        <time>2017-04-24T11:49:07Z</time>
      </trkpt>
      <trkpt lat="45.93638" lon="4.72003">
        <ele>174</ele>
        <time>2017-04-24T11:49:08Z</time>
      </trkpt>
      <trkpt lat="45.93636" lon="4.72009">
        <ele>174</ele>
        <time>2017-04-24T11:49:09Z</time>
      </trkpt>
      <trkpt lat="45.93634" lon="4.72015">
        <ele>174</ele>
        <time>2017-04-24T11:49:10Z</time>
      </trkpt>
      <trkpt lat="45.93633" lon="4.72022">
        <ele>174</ele>
        <time>2017-04-24T11:49:11Z</time>
      </trkpt>
      <trkpt lat="45.9363" lon="4.72029">
        <ele>174</ele>
        <time>2017-04-24T11:49:12Z</time>
      </trkpt>
      <trkpt lat="45.93628" lon="4.72035">
        <ele>174</ele>
        <time>2017-04-24T11:49:13Z</time>
      </trkpt>
      <trkpt lat="45.93626" lon="4.72041">
        <ele>174</ele>
        <time>2017-04-24T11:49:14Z</time>
      </trkpt>
      <trkpt lat="45.93624" lon="4.72047">
        <ele>175</ele>
        <time>2017-04-24T11:49:15Z</time>
      </trkpt>
      <trkpt lat="45.93621" lon="4.72052">
        <ele>175</ele>
        <time>2017-04-24T11:49:16Z</time>
      </trkpt>
      <trkpt lat="45.93617" lon="4.72063">
        <ele>175</ele>
        <time>2017-04-24T11:49:18Z</time>
      </trkpt>
      <trkpt lat="45.93614" lon="4.72069">
        <ele>175</ele>
        <time>2017-04-24T11:49:19Z</time>
      </trkpt>
      <trkpt lat="45.93612" lon="4.72074">
        <ele>175</ele>
        <time>2017-04-24T11:49:20Z</time>
      </trkpt>
      <trkpt lat="45.93608" lon="4.72079">
        <ele>175</ele>
        <time>2017-04-24T11:49:21Z</time>
      </trkpt>
      <trkpt lat="45.93603" lon="4.72089">
        <ele>174</ele>
        <time>2017-04-24T11:49:23Z</time>
      </trkpt>
      <trkpt lat="45.93601" lon="4.72094">
        <ele>174</ele>
        <time>2017-04-24T11:49:24Z</time>
      </trkpt>
      <trkpt lat="45.93597" lon="4.72103">
        <ele>174</ele>
        <time>2017-04-24T11:49:26Z</time>
      </trkpt>
      <trkpt lat="45.93593" lon="4.72107">
        <ele>174</ele>
        <time>2017-04-24T11:49:27Z</time>
      </trkpt>
      <trkpt lat="45.93587" lon="4.72114">
        <ele>174</ele>
        <time>2017-04-24T11:49:29Z</time>
      </trkpt>
      <trkpt lat="45.93584" lon="4.72119">
        <ele>174</ele>
        <time>2017-04-24T11:49:30Z</time>
      </trkpt>
      <trkpt lat="45.93579" lon="4.7213">
        <ele>174</ele>
        <time>2017-04-24T11:49:32Z</time>
      </trkpt>
      <trkpt lat="45.93578" lon="4.72136">
        <ele>174</ele>
        <time>2017-04-24T11:49:33Z</time>
      </trkpt>
      <trkpt lat="45.93575" lon="4.72143">
        <ele>174</ele>
        <time>2017-04-24T11:49:34Z</time>
      </trkpt>
      <trkpt lat="45.93573" lon="4.72151">
        <ele>174</ele>
        <time>2017-04-24T11:49:35Z</time>
      </trkpt>
      <trkpt lat="45.93572" lon="4.72159">
        <ele>174</ele>
        <time>2017-04-24T11:49:36Z</time>
      </trkpt>
      <trkpt lat="45.9357" lon="4.72167">
        <ele>174</ele>
        <time>2017-04-24T11:49:37Z</time>
      </trkpt>
      <trkpt lat="45.93569" lon="4.72176">
        <ele>173</ele>
        <time>2017-04-24T11:49:38Z</time>
      </trkpt>
      <trkpt lat="45.93568" lon="4.72184">
        <ele>173</ele>
        <time>2017-04-24T11:49:39Z</time>
      </trkpt>
      <trkpt lat="45.93565" lon="4.72192">
        <ele>173</ele>
        <time>2017-04-24T11:49:40Z</time>
      </trkpt>
      <trkpt lat="45.93563" lon="4.72201">
        <ele>173</ele>
        <time>2017-04-24T11:49:41Z</time>
      </trkpt>
      <trkpt lat="45.93561" lon="4.72208">
        <ele>173</ele>
        <time>2017-04-24T11:49:42Z</time>
      </trkpt>
      <trkpt lat="45.93556" lon="4.72215">
        <ele>173</ele>
        <time>2017-04-24T11:49:43Z</time>
      </trkpt>
      <trkpt lat="45.93553" lon="4.72222">
        <ele>173</ele>
        <time>2017-04-24T11:49:44Z</time>
      </trkpt>
      <trkpt lat="45.93549" lon="4.72229">
        <ele>172</ele>
        <time>2017-04-24T11:49:45Z</time>
      </trkpt>
      <trkpt lat="45.93546" lon="4.72236">
        <ele>172</ele>
        <time>2017-04-24T11:49:46Z</time>
      </trkpt>
      <trkpt lat="45.93543" lon="4.72243">
        <ele>172</ele>
        <time>2017-04-24T11:49:47Z</time>
      </trkpt>
      <trkpt lat="45.93539" lon="4.72251">
        <ele>172</ele>
        <time>2017-04-24T11:49:48Z</time>
      </trkpt>
      <trkpt lat="45.93536" lon="4.72258">
        <ele>172</ele>
        <time>2017-04-24T11:49:49Z</time>
      </trkpt>
      <trkpt lat="45.93533" lon="4.72265">
        <ele>172</ele>
        <time>2017-04-24T11:49:50Z</time>
      </trkpt>
      <trkpt lat="45.9353" lon="4.72271">
        <ele>172</ele>
        <time>2017-04-24T11:49:51Z</time>
      </trkpt>
      <trkpt lat="45.93527" lon="4.72277">
        <ele>172</ele>
        <time>2017-04-24T11:49:52Z</time>
      </trkpt>
      <trkpt lat="45.93524" lon="4.72284">
        <ele>172</ele>
        <time>2017-04-24T11:49:53Z</time>
      </trkpt>
      <trkpt lat="45.9352" lon="4.72291">
        <ele>172</ele>
        <time>2017-04-24T11:49:54Z</time>
      </trkpt>
      <trkpt lat="45.93517" lon="4.72297">
        <ele>172</ele>
        <time>2017-04-24T11:49:55Z</time>
      </trkpt>
      <trkpt lat="45.93513" lon="4.72305">
        <ele>173</ele>
        <time>2017-04-24T11:49:56Z</time>
      </trkpt>
      <trkpt lat="45.93509" lon="4.72311">
        <ele>173</ele>
        <time>2017-04-24T11:49:57Z</time>
      </trkpt>
      <trkpt lat="45.93505" lon="4.72318">
        <ele>173</ele>
        <time>2017-04-24T11:49:58Z</time>
      </trkpt>
      <trkpt lat="45.93501" lon="4.72324">
        <ele>173</ele>
        <time>2017-04-24T11:49:59Z</time>
      </trkpt>
      <trkpt lat="45.93497" lon="4.7233">
        <ele>173</ele>
        <time>2017-04-24T11:50:00Z</time>
      </trkpt>
      <trkpt lat="45.93492" lon="4.72336">
        <ele>173</ele>
        <time>2017-04-24T11:50:01Z</time>
      </trkpt>
      <trkpt lat="45.93488" lon="4.72342">
        <ele>173</ele>
        <time>2017-04-24T11:50:02Z</time>
      </trkpt>
      <trkpt lat="45.93484" lon="4.72348">
        <ele>173</ele>
        <time>2017-04-24T11:50:03Z</time>
      </trkpt>
      <trkpt lat="45.9348" lon="4.72354">
        <ele>173</ele>
        <time>2017-04-24T11:50:04Z</time>
      </trkpt>
      <trkpt lat="45.93476" lon="4.7236">
        <ele>173</ele>
        <time>2017-04-24T11:50:05Z</time>
      </trkpt>
      <trkpt lat="45.93472" lon="4.72365">
        <ele>173</ele>
        <time>2017-04-24T11:50:06Z</time>
      </trkpt>
      <trkpt lat="45.93468" lon="4.7237">
        <ele>173</ele>
        <time>2017-04-24T11:50:07Z</time>
      </trkpt>
      <trkpt lat="45.93464" lon="4.72375">
        <ele>173</ele>
        <time>2017-04-24T11:50:08Z</time>
      </trkpt>
      <trkpt lat="45.93461" lon="4.7238">
        <ele>173</ele>
        <time>2017-04-24T11:50:09Z</time>
      </trkpt>
      <trkpt lat="45.93457" lon="4.72385">
        <ele>173</ele>
        <time>2017-04-24T11:50:10Z</time>
      </trkpt>
      <trkpt lat="45.93453" lon="4.7239">
        <ele>173</ele>
        <time>2017-04-24T11:50:11Z</time>
      </trkpt>
      <trkpt lat="45.93448" lon="4.72393">
        <ele>173</ele>
        <time>2017-04-24T11:50:12Z</time>
      </trkpt>
      <trkpt lat="45.93444" lon="4.72397">
        <ele>173</ele>
        <time>2017-04-24T11:50:13Z</time>
      </trkpt>
      <trkpt lat="45.9344" lon="4.72401">
        <ele>173</ele>
        <time>2017-04-24T11:50:14Z</time>
      </trkpt>
      <trkpt lat="45.93435" lon="4.72404">
        <ele>174</ele>
        <time>2017-04-24T11:50:15Z</time>
      </trkpt>
      <trkpt lat="45.93429" lon="4.72406">
        <ele>174</ele>
        <time>2017-04-24T11:50:16Z</time>
      </trkpt>
      <trkpt lat="45.93424" lon="4.72409">
        <ele>174</ele>
        <time>2017-04-24T11:50:17Z</time>
      </trkpt>
      <trkpt lat="45.93418" lon="4.7241">
        <ele>174</ele>
        <time>2017-04-24T11:50:18Z</time>
      </trkpt>
      <trkpt lat="45.93412" lon="4.72411">
        <ele>174</ele>
        <time>2017-04-24T11:50:19Z</time>
      </trkpt>
      <trkpt lat="45.93407" lon="4.72412">
        <ele>174</ele>
        <time>2017-04-24T11:50:20Z</time>
      </trkpt>
      <trkpt lat="45.93402" lon="4.7241">
        <ele>174</ele>
        <time>2017-04-24T11:50:21Z</time>
      </trkpt>
      <trkpt lat="45.93397" lon="4.7241">
        <ele>174</ele>
        <time>2017-04-24T11:50:22Z</time>
      </trkpt>
      <trkpt lat="45.93392" lon="4.72412">
        <ele>174</ele>
        <time>2017-04-24T11:50:23Z</time>
      </trkpt>
      <trkpt lat="45.93387" lon="4.72417">
        <ele>174</ele>
        <time>2017-04-24T11:50:24Z</time>
      </trkpt>
      <trkpt lat="45.93384" lon="4.72424">
        <ele>173</ele>
        <time>2017-04-24T11:50:25Z</time>
      </trkpt>
      <trkpt lat="45.93384" lon="4.72431">
        <ele>173</ele>
        <time>2017-04-24T11:50:26Z</time>
      </trkpt>
      <trkpt lat="45.93385" lon="4.72438">
        <ele>173</ele>
        <time>2017-04-24T11:50:27Z</time>
      </trkpt>
      <trkpt lat="45.93387" lon="4.72445">
        <ele>173</ele>
        <time>2017-04-24T11:50:28Z</time>
      </trkpt>
      <trkpt lat="45.93389" lon="4.72451">
        <ele>173</ele>
        <time>2017-04-24T11:50:29Z</time>
      </trkpt>
      <trkpt lat="45.93389" lon="4.72459">
        <ele>173</ele>
        <time>2017-04-24T11:50:30Z</time>
      </trkpt>
      <trkpt lat="45.93388" lon="4.72466">
        <ele>173</ele>
        <time>2017-04-24T11:50:31Z</time>
      </trkpt>
      <trkpt lat="45.93385" lon="4.72472">
        <ele>173</ele>
        <time>2017-04-24T11:50:32Z</time>
      </trkpt>
      <trkpt lat="45.93382" lon="4.72477">
        <ele>173</ele>
        <time>2017-04-24T11:50:33Z</time>
      </trkpt>
      <trkpt lat="45.93378" lon="4.72481">
        <ele>173</ele>
        <time>2017-04-24T11:50:34Z</time>
      </trkpt>
      <trkpt lat="45.93375" lon="4.72486">
        <ele>173</ele>
        <time>2017-04-24T11:50:35Z</time>
      </trkpt>
      <trkpt lat="45.93371" lon="4.7249">
        <ele>173</ele>
        <time>2017-04-24T11:50:36Z</time>
      </trkpt>
      <trkpt lat="45.93367" lon="4.72494">
        <ele>173</ele>
        <time>2017-04-24T11:50:37Z</time>
      </trkpt>
      <trkpt lat="45.93363" lon="4.72499">
        <ele>173</ele>
        <time>2017-04-24T11:50:38Z</time>
      </trkpt>
      <trkpt lat="45.93359" lon="4.72503">
        <ele>172</ele>
        <time>2017-04-24T11:50:39Z</time>
      </trkpt>
      <trkpt lat="45.93356" lon="4.72509">
        <ele>172</ele>
        <time>2017-04-24T11:50:40Z</time>
      </trkpt>
      <trkpt lat="45.93353" lon="4.72513">
        <ele>172</ele>
        <time>2017-04-24T11:50:41Z</time>
      </trkpt>
      <trkpt lat="45.93349" lon="4.72518">
        <ele>172</ele>
        <time>2017-04-24T11:50:42Z</time>
      </trkpt>
      <trkpt lat="45.93346" lon="4.72522">
        <ele>172</ele>
        <time>2017-04-24T11:50:43Z</time>
      </trkpt>
      <trkpt lat="45.93339" lon="4.7253">
        <ele>172</ele>
        <time>2017-04-24T11:50:45Z</time>
      </trkpt>
      <trkpt lat="45.93335" lon="4.72534">
        <ele>172</ele>
        <time>2017-04-24T11:50:46Z</time>
      </trkpt>
      <trkpt lat="45.93332" lon="4.72539">
        <ele>172</ele>
        <time>2017-04-24T11:50:47Z</time>
      </trkpt>
      <trkpt lat="45.93328" lon="4.72543">
        <ele>172</ele>
        <time>2017-04-24T11:50:48Z</time>
      </trkpt>
      <trkpt lat="45.93324" lon="4.72548">
        <ele>172</ele>
        <time>2017-04-24T11:50:49Z</time>
      </trkpt>
      <trkpt lat="45.93321" lon="4.72553">
        <ele>172</ele>
        <time>2017-04-24T11:50:50Z</time>
      </trkpt>
      <trkpt lat="45.93317" lon="4.72558">
        <ele>171</ele>
        <time>2017-04-24T11:50:51Z</time>
      </trkpt>
      <trkpt lat="45.93313" lon="4.72564">
        <ele>171</ele>
        <time>2017-04-24T11:50:52Z</time>
      </trkpt>
      <trkpt lat="45.93309" lon="4.72569">
        <ele>171</ele>
        <time>2017-04-24T11:50:53Z</time>
      </trkpt>
      <trkpt lat="45.93304" lon="4.72574">
        <ele>171</ele>
        <time>2017-04-24T11:50:54Z</time>
      </trkpt>
      <trkpt lat="45.933" lon="4.72579">
        <ele>171</ele>
        <time>2017-04-24T11:50:55Z</time>
      </trkpt>
      <trkpt lat="45.93296" lon="4.72584">
        <ele>170</ele>
        <time>2017-04-24T11:50:56Z</time>
      </trkpt>
      <trkpt lat="45.93292" lon="4.72588">
        <ele>170</ele>
        <time>2017-04-24T11:50:57Z</time>
      </trkpt>
      <trkpt lat="45.93288" lon="4.72593">
        <ele>170</ele>
        <time>2017-04-24T11:50:58Z</time>
      </trkpt>
      <trkpt lat="45.93284" lon="4.72597">
        <ele>170</ele>
        <time>2017-04-24T11:50:59Z</time>
      </trkpt>
      <trkpt lat="45.9328" lon="4.72602">
        <ele>170</ele>
        <time>2017-04-24T11:51:00Z</time>
      </trkpt>
      <trkpt lat="45.93274" lon="4.7261">
        <ele>170</ele>
        <time>2017-04-24T11:51:02Z</time>
      </trkpt>
      <trkpt lat="45.9327" lon="4.72615">
        <ele>170</ele>
        <time>2017-04-24T11:51:03Z</time>
      </trkpt>
      <trkpt lat="45.93266" lon="4.72618">
        <ele>170</ele>
        <time>2017-04-24T11:51:04Z</time>
      </trkpt>
      <trkpt lat="45.93262" lon="4.72622">
        <ele>170</ele>
        <time>2017-04-24T11:51:05Z</time>
      </trkpt>
      <trkpt lat="45.93258" lon="4.72627">
        <ele>170</ele>
        <time>2017-04-24T11:51:06Z</time>
      </trkpt>
      <trkpt lat="45.93255" lon="4.72631">
        <ele>170</ele>
        <time>2017-04-24T11:51:07Z</time>
      </trkpt>
      <trkpt lat="45.93251" lon="4.72635">
        <ele>170</ele>
        <time>2017-04-24T11:51:08Z</time>
      </trkpt>
      <trkpt lat="45.93247" lon="4.72639">
        <ele>170</ele>
        <time>2017-04-24T11:51:09Z</time>
      </trkpt>
      <trkpt lat="45.93243" lon="4.72644">
        <ele>170</ele>
        <time>2017-04-24T11:51:10Z</time>
      </trkpt>
      <trkpt lat="45.93239" lon="4.72647">
        <ele>170</ele>
        <time>2017-04-24T11:51:11Z</time>
      </trkpt>
      <trkpt lat="45.93235" lon="4.72651">
        <ele>170</ele>
        <time>2017-04-24T11:51:12Z</time>
      </trkpt>
      <trkpt lat="45.93231" lon="4.72655">
        <ele>170</ele>
        <time>2017-04-24T11:51:13Z</time>
      </trkpt>
      <trkpt lat="45.93228" lon="4.7266">
        <ele>170</ele>
        <time>2017-04-24T11:51:14Z</time>
      </trkpt>
      <trkpt lat="45.93224" lon="4.72664">
        <ele>170</ele>
        <time>2017-04-24T11:51:15Z</time>
      </trkpt>
      <trkpt lat="45.9322" lon="4.72668">
        <ele>169</ele>
        <time>2017-04-24T11:51:16Z</time>
      </trkpt>
      <trkpt lat="45.93216" lon="4.72672">
        <ele>169</ele>
        <time>2017-04-24T11:51:17Z</time>
      </trkpt>
      <trkpt lat="45.93212" lon="4.72677">
        <ele>169</ele>
        <time>2017-04-24T11:51:18Z</time>
      </trkpt>
      <trkpt lat="45.93209" lon="4.72681">
        <ele>169</ele>
        <time>2017-04-24T11:51:19Z</time>
      </trkpt>
      <trkpt lat="45.93202" lon="4.72689">
        <ele>169</ele>
        <time>2017-04-24T11:51:21Z</time>
      </trkpt>
      <trkpt lat="45.93198" lon="4.72693">
        <ele>169</ele>
        <time>2017-04-24T11:51:22Z</time>
      </trkpt>
      <trkpt lat="45.93194" lon="4.72697">
        <ele>169</ele>
        <time>2017-04-24T11:51:23Z</time>
      </trkpt>
      <trkpt lat="45.9319" lon="4.72701">
        <ele>169</ele>
        <time>2017-04-24T11:51:24Z</time>
      </trkpt>
      <trkpt lat="45.93185" lon="4.72706">
        <ele>169</ele>
        <time>2017-04-24T11:51:25Z</time>
      </trkpt>
      <trkpt lat="45.93181" lon="4.72711">
        <ele>169</ele>
        <time>2017-04-24T11:51:26Z</time>
      </trkpt>
      <trkpt lat="45.93177" lon="4.72715">
        <ele>169</ele>
        <time>2017-04-24T11:51:27Z</time>
      </trkpt>
      <trkpt lat="45.93172" lon="4.7272">
        <ele>170</ele>
        <time>2017-04-24T11:51:28Z</time>
      </trkpt>
      <trkpt lat="45.93168" lon="4.72725">
        <ele>170</ele>
        <time>2017-04-24T11:51:29Z</time>
      </trkpt>
      <trkpt lat="45.93163" lon="4.7273">
        <ele>170</ele>
        <time>2017-04-24T11:51:30Z</time>
      </trkpt>
      <trkpt lat="45.93159" lon="4.72734">
        <ele>170</ele>
        <time>2017-04-24T11:51:31Z</time>
      </trkpt>
      <trkpt lat="45.93154" lon="4.72738">
        <ele>170</ele>
        <time>2017-04-24T11:51:32Z</time>
      </trkpt>
      <trkpt lat="45.9315" lon="4.72743">
        <ele>170</ele>
        <time>2017-04-24T11:51:33Z</time>
      </trkpt>
      <trkpt lat="45.93146" lon="4.72748">
        <ele>170</ele>
        <time>2017-04-24T11:51:34Z</time>
      </trkpt>
      <trkpt lat="45.93142" lon="4.72753">
        <ele>171</ele>
        <time>2017-04-24T11:51:35Z</time>
      </trkpt>
      <trkpt lat="45.93138" lon="4.72757">
        <ele>171</ele>
        <time>2017-04-24T11:51:36Z</time>
      </trkpt>
      <trkpt lat="45.93134" lon="4.72762">
        <ele>171</ele>
        <time>2017-04-24T11:51:37Z</time>
      </trkpt>
      <trkpt lat="45.9313" lon="4.72767">
        <ele>171</ele>
        <time>2017-04-24T11:51:38Z</time>
      </trkpt>
      <trkpt lat="45.93126" lon="4.72772">
        <ele>171</ele>
        <time>2017-04-24T11:51:39Z</time>
      </trkpt>
      <trkpt lat="45.93122" lon="4.72778">
        <ele>171</ele>
        <time>2017-04-24T11:51:40Z</time>
      </trkpt>
      <trkpt lat="45.93118" lon="4.72783">
        <ele>171</ele>
        <time>2017-04-24T11:51:41Z</time>
      </trkpt>
      <trkpt lat="45.93115" lon="4.72788">
        <ele>171</ele>
        <time>2017-04-24T11:51:42Z</time>
      </trkpt>
      <trkpt lat="45.93111" lon="4.72793">
        <ele>171</ele>
        <time>2017-04-24T11:51:43Z</time>
      </trkpt>
      <trkpt lat="45.93107" lon="4.72798">
        <ele>171</ele>
        <time>2017-04-24T11:51:44Z</time>
      </trkpt>
      <trkpt lat="45.93103" lon="4.72803">
        <ele>171</ele>
        <time>2017-04-24T11:51:45Z</time>
      </trkpt>
      <trkpt lat="45.93099" lon="4.72808">
        <ele>172</ele>
        <time>2017-04-24T11:51:46Z</time>
      </trkpt>
      <trkpt lat="45.93095" lon="4.72812">
        <ele>172</ele>
        <time>2017-04-24T11:51:47Z</time>
      </trkpt>
      <trkpt lat="45.9309" lon="4.72817">
        <ele>172</ele>
        <time>2017-04-24T11:51:48Z</time>
      </trkpt>
      <trkpt lat="45.93086" lon="4.72822">
        <ele>172</ele>
        <time>2017-04-24T11:51:49Z</time>
      </trkpt>
      <trkpt lat="45.93081" lon="4.72827">
        <ele>173</ele>
        <time>2017-04-24T11:51:50Z</time>
      </trkpt>
      <trkpt lat="45.93078" lon="4.72831">
        <ele>173</ele>
        <time>2017-04-24T11:51:51Z</time>
      </trkpt>
      <trkpt lat="45.93074" lon="4.72837">
        <ele>173</ele>
        <time>2017-04-24T11:51:52Z</time>
      </trkpt>
      <trkpt lat="45.93071" lon="4.72841">
        <ele>173</ele>
        <time>2017-04-24T11:51:53Z</time>
      </trkpt>
      <trkpt lat="45.93067" lon="4.72845">
        <ele>172</ele>
        <time>2017-04-24T11:51:54Z</time>
      </trkpt>
      <trkpt lat="45.93064" lon="4.7285">
        <ele>172</ele>
        <time>2017-04-24T11:51:55Z</time>
      </trkpt>
      <trkpt lat="45.93059" lon="4.72857">
        <ele>172</ele>
        <time>2017-04-24T11:51:56Z</time>
      </trkpt>
      <trkpt lat="45.93054" lon="4.72861">
        <ele>172</ele>
        <time>2017-04-24T11:51:57Z</time>
      </trkpt>
      <trkpt lat="45.93051" lon="4.72866">
        <ele>172</ele>
        <time>2017-04-24T11:51:58Z</time>
      </trkpt>
      <trkpt lat="45.93046" lon="4.72871">
        <ele>172</ele>
        <time>2017-04-24T11:51:59Z</time>
      </trkpt>
      <trkpt lat="45.93042" lon="4.72876">
        <ele>172</ele>
        <time>2017-04-24T11:52:00Z</time>
      </trkpt>
      <trkpt lat="45.93038" lon="4.72881">
        <ele>172</ele>
        <time>2017-04-24T11:52:01Z</time>
      </trkpt>
      <trkpt lat="45.93033" lon="4.72886">
        <ele>172</ele>
        <time>2017-04-24T11:52:02Z</time>
      </trkpt>
      <trkpt lat="45.9303" lon="4.7289">
        <ele>172</ele>
        <time>2017-04-24T11:52:03Z</time>
      </trkpt>
      <trkpt lat="45.93025" lon="4.72895">
        <ele>172</ele>
        <time>2017-04-24T11:52:04Z</time>
      </trkpt>
      <trkpt lat="45.93021" lon="4.72899">
        <ele>172</ele>
        <time>2017-04-24T11:52:05Z</time>
      </trkpt>
      <trkpt lat="45.93016" lon="4.72903">
        <ele>172</ele>
        <time>2017-04-24T11:52:06Z</time>
      </trkpt>
      <trkpt lat="45.93012" lon="4.72908">
        <ele>171</ele>
        <time>2017-04-24T11:52:07Z</time>
      </trkpt>
      <trkpt lat="45.93007" lon="4.72913">
        <ele>171</ele>
        <time>2017-04-24T11:52:08Z</time>
      </trkpt>
      <trkpt lat="45.93002" lon="4.72918">
        <ele>171</ele>
        <time>2017-04-24T11:52:09Z</time>
      </trkpt>
      <trkpt lat="45.92998" lon="4.72924">
        <ele>171</ele>
        <time>2017-04-24T11:52:10Z</time>
      </trkpt>
      <trkpt lat="45.92993" lon="4.72929">
        <ele>171</ele>
        <time>2017-04-24T11:52:11Z</time>
      </trkpt>
      <trkpt lat="45.92989" lon="4.72934">
        <ele>171</ele>
        <time>2017-04-24T11:52:12Z</time>
      </trkpt>
      <trkpt lat="45.92985" lon="4.7294">
        <ele>171</ele>
        <time>2017-04-24T11:52:13Z</time>
      </trkpt>
      <trkpt lat="45.9298" lon="4.72945">
        <ele>171</ele>
        <time>2017-04-24T11:52:14Z</time>
      </trkpt>
      <trkpt lat="45.92975" lon="4.72951">
        <ele>171</ele>
        <time>2017-04-24T11:52:15Z</time>
      </trkpt>
      <trkpt lat="45.92971" lon="4.72956">
        <ele>171</ele>
        <time>2017-04-24T11:52:16Z</time>
      </trkpt>
      <trkpt lat="45.92967" lon="4.72961">
        <ele>171</ele>
        <time>2017-04-24T11:52:17Z</time>
      </trkpt>
      <trkpt lat="45.92963" lon="4.72966">
        <ele>171</ele>
        <time>2017-04-24T11:52:18Z</time>
      </trkpt>
      <trkpt lat="45.92959" lon="4.7297">
        <ele>171</ele>
        <time>2017-04-24T11:52:19Z</time>
      </trkpt>
      <trkpt lat="45.92955" lon="4.72974">
        <ele>171</ele>
        <time>2017-04-24T11:52:20Z</time>
      </trkpt>
      <trkpt lat="45.92951" lon="4.72979">
        <ele>171</ele>
        <time>2017-04-24T11:52:21Z</time>
      </trkpt>
      <trkpt lat="45.92948" lon="4.72983">
        <ele>171</ele>
        <time>2017-04-24T11:52:22Z</time>
      </trkpt>
      <trkpt lat="45.92944" lon="4.72987">
        <ele>171</ele>
        <time>2017-04-24T11:52:23Z</time>
      </trkpt>
      <trkpt lat="45.9294" lon="4.72992">
        <ele>171</ele>
        <time>2017-04-24T11:52:24Z</time>
      </trkpt>
      <trkpt lat="45.92936" lon="4.72997">
        <ele>171</ele>
        <time>2017-04-24T11:52:25Z</time>
      </trkpt>
      <trkpt lat="45.92932" lon="4.73001">
        <ele>171</ele>
        <time>2017-04-24T11:52:26Z</time>
      </trkpt>
      <trkpt lat="45.92928" lon="4.73006">
        <ele>172</ele>
        <time>2017-04-24T11:52:27Z</time>
      </trkpt>
      <trkpt lat="45.92924" lon="4.73011">
        <ele>172</ele>
        <time>2017-04-24T11:52:28Z</time>
      </trkpt>
      <trkpt lat="45.9292" lon="4.73016">
        <ele>172</ele>
        <time>2017-04-24T11:52:29Z</time>
      </trkpt>
      <trkpt lat="45.92916" lon="4.73021">
        <ele>172</ele>
        <time>2017-04-24T11:52:30Z</time>
      </trkpt>
      <trkpt lat="45.92913" lon="4.73026">
        <ele>172</ele>
        <time>2017-04-24T11:52:31Z</time>
      </trkpt>
      <trkpt lat="45.92909" lon="4.73031">
        <ele>172</ele>
        <time>2017-04-24T11:52:32Z</time>
      </trkpt>
      <trkpt lat="45.92906" lon="4.73035">
        <ele>172</ele>
        <time>2017-04-24T11:52:33Z</time>
      </trkpt>
      <trkpt lat="45.92903" lon="4.7304">
        <ele>172</ele>
        <time>2017-04-24T11:52:34Z</time>
      </trkpt>
      <trkpt lat="45.929" lon="4.73044">
        <ele>172</ele>
        <time>2017-04-24T11:52:35Z</time>
      </trkpt>
      <trkpt lat="45.92897" lon="4.73049">
        <ele>172</ele>
        <time>2017-04-24T11:52:36Z</time>
      </trkpt>
      <trkpt lat="45.92893" lon="4.73054">
        <ele>172</ele>
        <time>2017-04-24T11:52:37Z</time>
      </trkpt>
      <trkpt lat="45.9289" lon="4.7306">
        <ele>172</ele>
        <time>2017-04-24T11:52:38Z</time>
      </trkpt>
      <trkpt lat="45.92887" lon="4.73065">
        <ele>172</ele>
        <time>2017-04-24T11:52:39Z</time>
      </trkpt>
      <trkpt lat="45.92884" lon="4.73071">
        <ele>172</ele>
        <time>2017-04-24T11:52:40Z</time>
      </trkpt>
      <trkpt lat="45.92882" lon="4.73077">
        <ele>172</ele>
        <time>2017-04-24T11:52:41Z</time>
      </trkpt>
      <trkpt lat="45.92879" lon="4.73084">
        <ele>172</ele>
        <time>2017-04-24T11:52:42Z</time>
      </trkpt>
      <trkpt lat="45.92877" lon="4.73091">
        <ele>172</ele>
        <time>2017-04-24T11:52:43Z</time>
      </trkpt>
      <trkpt lat="45.92875" lon="4.73097">
        <ele>172</ele>
        <time>2017-04-24T11:52:44Z</time>
      </trkpt>
      <trkpt lat="45.92871" lon="4.73104">
        <ele>172</ele>
        <time>2017-04-24T11:52:45Z</time>
      </trkpt>
      <trkpt lat="45.92869" lon="4.73112">
        <ele>171</ele>
        <time>2017-04-24T11:52:46Z</time>
      </trkpt>
      <trkpt lat="45.92867" lon="4.73119">
        <ele>171</ele>
        <time>2017-04-24T11:52:47Z</time>
      </trkpt>
      <trkpt lat="45.92865" lon="4.73128">
        <ele>171</ele>
        <time>2017-04-24T11:52:48Z</time>
      </trkpt>
      <trkpt lat="45.92864" lon="4.73136">
        <ele>171</ele>
        <time>2017-04-24T11:52:49Z</time>
      </trkpt>
      <trkpt lat="45.92862" lon="4.73144">
        <ele>171</ele>
        <time>2017-04-24T11:52:50Z</time>
      </trkpt>
      <trkpt lat="45.92861" lon="4.73152">
        <ele>171</ele>
        <time>2017-04-24T11:52:51Z</time>
      </trkpt>
      <trkpt lat="45.9286" lon="4.73159">
        <ele>171</ele>
        <time>2017-04-24T11:52:52Z</time>
      </trkpt>
      <trkpt lat="45.92859" lon="4.73167">
        <ele>171</ele>
        <time>2017-04-24T11:52:53Z</time>
      </trkpt>
      <trkpt lat="45.92858" lon="4.73174">
        <ele>171</ele>
        <time>2017-04-24T11:52:54Z</time>
      </trkpt>
      <trkpt lat="45.92857" lon="4.73181">
        <ele>171</ele>
        <time>2017-04-24T11:52:55Z</time>
      </trkpt>
      <trkpt lat="45.92857" lon="4.73188">
        <ele>171</ele>
        <time>2017-04-24T11:52:56Z</time>
      </trkpt>
      <trkpt lat="45.92857" lon="4.73195">
        <ele>171</ele>
        <time>2017-04-24T11:52:57Z</time>
      </trkpt>
      <trkpt lat="45.92856" lon="4.73203">
        <ele>171</ele>
        <time>2017-04-24T11:52:58Z</time>
      </trkpt>
      <trkpt lat="45.92855" lon="4.73211">
        <ele>171</ele>
        <time>2017-04-24T11:52:59Z</time>
      </trkpt>
      <trkpt lat="45.92855" lon="4.7322">
        <ele>171</ele>
        <time>2017-04-24T11:53:00Z</time>
      </trkpt>
      <trkpt lat="45.92854" lon="4.73228">
        <ele>171</ele>
        <time>2017-04-24T11:53:01Z</time>
      </trkpt>
      <trkpt lat="45.92853" lon="4.73237">
        <ele>171</ele>
        <time>2017-04-24T11:53:02Z</time>
      </trkpt>
      <trkpt lat="45.92852" lon="4.73245">
        <ele>171</ele>
        <time>2017-04-24T11:53:03Z</time>
      </trkpt>
      <trkpt lat="45.92852" lon="4.73253">
        <ele>171</ele>
        <time>2017-04-24T11:53:04Z</time>
      </trkpt>
      <trkpt lat="45.92851" lon="4.73261">
        <ele>171</ele>
        <time>2017-04-24T11:53:05Z</time>
      </trkpt>
      <trkpt lat="45.9285" lon="4.73269">
        <ele>171</ele>
        <time>2017-04-24T11:53:06Z</time>
      </trkpt>
      <trkpt lat="45.92849" lon="4.73276">
        <ele>171</ele>
        <time>2017-04-24T11:53:07Z</time>
      </trkpt>
      <trkpt lat="45.92848" lon="4.73283">
        <ele>171</ele>
        <time>2017-04-24T11:53:08Z</time>
      </trkpt>
      <trkpt lat="45.92847" lon="4.7329">
        <ele>171</ele>
        <time>2017-04-24T11:53:09Z</time>
      </trkpt>
      <trkpt lat="45.92846" lon="4.73297">
        <ele>171</ele>
        <time>2017-04-24T11:53:10Z</time>
      </trkpt>
      <trkpt lat="45.92845" lon="4.73304">
        <ele>171</ele>
        <time>2017-04-24T11:53:11Z</time>
      </trkpt>
      <trkpt lat="45.92845" lon="4.73311">
        <ele>171</ele>
        <time>2017-04-24T11:53:12Z</time>
      </trkpt>
      <trkpt lat="45.92844" lon="4.73318">
        <ele>171</ele>
        <time>2017-04-24T11:53:13Z</time>
      </trkpt>
      <trkpt lat="45.92843" lon="4.73325">
        <ele>171</ele>
        <time>2017-04-24T11:53:14Z</time>
      </trkpt>
      <trkpt lat="45.92842" lon="4.73332">
        <ele>171</ele>
        <time>2017-04-24T11:53:15Z</time>
      </trkpt>
      <trkpt lat="45.92842" lon="4.7334">
        <ele>171</ele>
        <time>2017-04-24T11:53:16Z</time>
      </trkpt>
      <trkpt lat="45.92841" lon="4.73347">
        <ele>171</ele>
        <time>2017-04-24T11:53:17Z</time>
      </trkpt>
      <trkpt lat="45.92841" lon="4.73354">
        <ele>171</ele>
        <time>2017-04-24T11:53:18Z</time>
      </trkpt>
      <trkpt lat="45.9284" lon="4.73362">
        <ele>171</ele>
        <time>2017-04-24T11:53:19Z</time>
      </trkpt>
      <trkpt lat="45.92839" lon="4.7337">
        <ele>171</ele>
        <time>2017-04-24T11:53:20Z</time>
      </trkpt>
      <trkpt lat="45.92838" lon="4.73378">
        <ele>172</ele>
        <time>2017-04-24T11:53:21Z</time>
      </trkpt>
      <trkpt lat="45.92837" lon="4.73386">
        <ele>172</ele>
        <time>2017-04-24T11:53:22Z</time>
      </trkpt>
      <trkpt lat="45.92836" lon="4.73393">
        <ele>172</ele>
        <time>2017-04-24T11:53:23Z</time>
      </trkpt>
      <trkpt lat="45.92835" lon="4.73401">
        <ele>172</ele>
        <time>2017-04-24T11:53:24Z</time>
      </trkpt>
      <trkpt lat="45.92834" lon="4.73408">
        <ele>172</ele>
        <time>2017-04-24T11:53:25Z</time>
      </trkpt>
      <trkpt lat="45.92833" lon="4.73416">
        <ele>172</ele>
        <time>2017-04-24T11:53:26Z</time>
      </trkpt>
      <trkpt lat="45.92831" lon="4.73428">
        <ele>172</ele>
        <time>2017-04-24T11:53:28Z</time>
      </trkpt>
      <trkpt lat="45.9283" lon="4.73435">
        <ele>172</ele>
        <time>2017-04-24T11:53:29Z</time>
      </trkpt>
      <trkpt lat="45.92829" lon="4.73447">
        <ele>172</ele>
        <time>2017-04-24T11:53:31Z</time>
      </trkpt>
      <trkpt lat="45.92828" lon="4.73454">
        <ele>172</ele>
        <time>2017-04-24T11:53:32Z</time>
      </trkpt>
      <trkpt lat="45.92828" lon="4.73461">
        <ele>172</ele>
        <time>2017-04-24T11:53:33Z</time>
      </trkpt>
      <trkpt lat="45.92827" lon="4.73469">
        <ele>172</ele>
        <time>2017-04-24T11:53:34Z</time>
      </trkpt>
      <trkpt lat="45.92826" lon="4.73476">
        <ele>172</ele>
        <time>2017-04-24T11:53:35Z</time>
      </trkpt>
      <trkpt lat="45.92825" lon="4.73484">
        <ele>172</ele>
        <time>2017-04-24T11:53:36Z</time>
      </trkpt>
      <trkpt lat="45.92825" lon="4.73492">
        <ele>172</ele>
        <time>2017-04-24T11:53:37Z</time>
      </trkpt>
      <trkpt lat="45.92824" lon="4.73499">
        <ele>172</ele>
        <time>2017-04-24T11:53:38Z</time>
      </trkpt>
      <trkpt lat="45.92823" lon="4.73506">
        <ele>172</ele>
        <time>2017-04-24T11:53:39Z</time>
      </trkpt>
      <trkpt lat="45.92821" lon="4.73514">
        <ele>172</ele>
        <time>2017-04-24T11:53:40Z</time>
      </trkpt>
      <trkpt lat="45.92821" lon="4.73521">
        <ele>172</ele>
        <time>2017-04-24T11:53:41Z</time>
      </trkpt>
      <trkpt lat="45.9282" lon="4.73528">
        <ele>172</ele>
        <time>2017-04-24T11:53:42Z</time>
      </trkpt>
      <trkpt lat="45.9282" lon="4.73536">
        <ele>172</ele>
        <time>2017-04-24T11:53:43Z</time>
      </trkpt>
      <trkpt lat="45.9282" lon="4.73543">
        <ele>171</ele>
        <time>2017-04-24T11:53:44Z</time>
      </trkpt>
      <trkpt lat="45.92819" lon="4.73551">
        <ele>171</ele>
        <time>2017-04-24T11:53:45Z</time>
      </trkpt>
      <trkpt lat="45.92817" lon="4.7356">
        <ele>171</ele>
        <time>2017-04-24T11:53:46Z</time>
      </trkpt>
      <trkpt lat="45.92816" lon="4.73568">
        <ele>171</ele>
        <time>2017-04-24T11:53:47Z</time>
      </trkpt>
      <trkpt lat="45.92816" lon="4.73574">
        <ele>171</ele>
        <time>2017-04-24T11:53:48Z</time>
      </trkpt>
      <trkpt lat="45.92815" lon="4.73587">
        <ele>171</ele>
        <time>2017-04-24T11:53:50Z</time>
      </trkpt>
      <trkpt lat="45.92815" lon="4.73593">
        <ele>171</ele>
        <time>2017-04-24T11:53:51Z</time>
      </trkpt>
      <trkpt lat="45.92816" lon="4.73605">
        <ele>172</ele>
        <time>2017-04-24T11:53:53Z</time>
      </trkpt>
      <trkpt lat="45.92816" lon="4.73611">
        <ele>172</ele>
        <time>2017-04-24T11:53:54Z</time>
      </trkpt>
      <trkpt lat="45.92813" lon="4.73623">
        <ele>172</ele>
        <time>2017-04-24T11:53:56Z</time>
      </trkpt>
      <trkpt lat="45.9281" lon="4.73629">
        <ele>172</ele>
        <time>2017-04-24T11:53:57Z</time>
      </trkpt>
      <trkpt lat="45.92807" lon="4.73634">
        <ele>172</ele>
        <time>2017-04-24T11:53:58Z</time>
      </trkpt>
      <trkpt lat="45.92804" lon="4.7364">
        <ele>172</ele>
        <time>2017-04-24T11:53:59Z</time>
      </trkpt>
      <trkpt lat="45.92802" lon="4.73647">
        <ele>172</ele>
        <time>2017-04-24T11:54:00Z</time>
      </trkpt>
      <trkpt lat="45.928" lon="4.73653">
        <ele>172</ele>
        <time>2017-04-24T11:54:01Z</time>
      </trkpt>
      <trkpt lat="45.92798" lon="4.73659">
        <ele>172</ele>
        <time>2017-04-24T11:54:02Z</time>
      </trkpt>
      <trkpt lat="45.92796" lon="4.73665">
        <ele>172</ele>
        <time>2017-04-24T11:54:03Z</time>
      </trkpt>
      <trkpt lat="45.92793" lon="4.73676">
        <ele>172</ele>
        <time>2017-04-24T11:54:05Z</time>
      </trkpt>
      <trkpt lat="45.92791" lon="4.73681">
        <ele>172</ele>
        <time>2017-04-24T11:54:06Z</time>
      </trkpt>
      <trkpt lat="45.92789" lon="4.73692">
        <ele>172</ele>
        <time>2017-04-24T11:54:08Z</time>
      </trkpt>
      <trkpt lat="45.92788" lon="4.73698">
        <ele>172</ele>
        <time>2017-04-24T11:54:09Z</time>
      </trkpt>
      <trkpt lat="45.92787" lon="4.73709">
        <ele>172</ele>
        <time>2017-04-24T11:54:11Z</time>
      </trkpt>
      <trkpt lat="45.92786" lon="4.73714">
        <ele>172</ele>
        <time>2017-04-24T11:54:12Z</time>
      </trkpt>
      <trkpt lat="45.92782" lon="4.73726">
        <ele>172</ele>
        <time>2017-04-24T11:54:15Z</time>
      </trkpt>
      <trkpt lat="45.9278" lon="4.73727">
        <ele>172</ele>
        <time>2017-04-24T11:54:16Z</time>
      </trkpt>
      <trkpt lat="45.92774" lon="4.73727">
        <ele>172</ele>
        <time>2017-04-24T11:54:18Z</time>
      </trkpt>
      <trkpt lat="45.92771" lon="4.73727">
        <ele>172</ele>
        <time>2017-04-24T11:54:19Z</time>
      </trkpt>
      <trkpt lat="45.92764" lon="4.73725">
        <ele>172</ele>
        <time>2017-04-24T11:54:21Z</time>
      </trkpt>
      <trkpt lat="45.9276" lon="4.73723">
        <ele>172</ele>
        <time>2017-04-24T11:54:22Z</time>
      </trkpt>
      <trkpt lat="45.92751" lon="4.73721">
        <ele>172</ele>
        <time>2017-04-24T11:54:24Z</time>
      </trkpt>
      <trkpt lat="45.92747" lon="4.7372">
        <ele>173</ele>
        <time>2017-04-24T11:54:25Z</time>
      </trkpt>
      <trkpt lat="45.92739" lon="4.73717">
        <ele>173</ele>
        <time>2017-04-24T11:54:27Z</time>
      </trkpt>
      <trkpt lat="45.92735" lon="4.73717">
        <ele>173</ele>
        <time>2017-04-24T11:54:28Z</time>
      </trkpt>
      <trkpt lat="45.92727" lon="4.73717">
        <ele>173</ele>
        <time>2017-04-24T11:54:30Z</time>
      </trkpt>
      <trkpt lat="45.92722" lon="4.73716">
        <ele>173</ele>
        <time>2017-04-24T11:54:31Z</time>
      </trkpt>
      <trkpt lat="45.92714" lon="4.73716">
        <ele>173</ele>
        <time>2017-04-24T11:54:33Z</time>
      </trkpt>
      <trkpt lat="45.9271" lon="4.73715">
        <ele>173</ele>
        <time>2017-04-24T11:54:34Z</time>
      </trkpt>
      <trkpt lat="45.92701" lon="4.73713">
        <ele>173</ele>
        <time>2017-04-24T11:54:36Z</time>
      </trkpt>
      <trkpt lat="45.92698" lon="4.73712">
        <ele>173</ele>
        <time>2017-04-24T11:54:37Z</time>
      </trkpt>
      <trkpt lat="45.9269" lon="4.73709">
        <ele>173</ele>
        <time>2017-04-24T11:54:39Z</time>
      </trkpt>
      <trkpt lat="45.92686" lon="4.73707">
        <ele>173</ele>
        <time>2017-04-24T11:54:40Z</time>
      </trkpt>
      <trkpt lat="45.92678" lon="4.73703">
        <ele>173</ele>
        <time>2017-04-24T11:54:42Z</time>
      </trkpt>
      <trkpt lat="45.92673" lon="4.737">
        <ele>174</ele>
        <time>2017-04-24T11:54:43Z</time>
      </trkpt>
      <trkpt lat="45.92669" lon="4.73697">
        <ele>174</ele>
        <time>2017-04-24T11:54:44Z</time>
      </trkpt>
      <trkpt lat="45.92664" lon="4.73693">
        <ele>173</ele>
        <time>2017-04-24T11:54:45Z</time>
      </trkpt>
      <trkpt lat="45.92659" lon="4.73689">
        <ele>173</ele>
        <time>2017-04-24T11:54:46Z</time>
      </trkpt>
      <trkpt lat="45.92655" lon="4.73686">
        <ele>173</ele>
        <time>2017-04-24T11:54:47Z</time>
      </trkpt>
      <trkpt lat="45.92651" lon="4.73682">
        <ele>173</ele>
        <time>2017-04-24T11:54:48Z</time>
      </trkpt>
      <trkpt lat="45.92648" lon="4.73677">
        <ele>173</ele>
        <time>2017-04-24T11:54:49Z</time>
      </trkpt>
      <trkpt lat="45.92644" lon="4.73673">
        <ele>173</ele>
        <time>2017-04-24T11:54:50Z</time>
      </trkpt>
      <trkpt lat="45.92641" lon="4.73668">
        <ele>173</ele>
        <time>2017-04-24T11:54:51Z</time>
      </trkpt>
      <trkpt lat="45.92637" lon="4.73656">
        <ele>173</ele>
        <time>2017-04-24T11:54:53Z</time>
      </trkpt>
      <trkpt lat="45.92636" lon="4.7365">
        <ele>173</ele>
        <time>2017-04-24T11:54:54Z</time>
      </trkpt>
      <trkpt lat="45.92632" lon="4.73639">
        <ele>173</ele>
        <time>2017-04-24T11:54:56Z</time>
      </trkpt>
      <trkpt lat="45.9263" lon="4.73634">
        <ele>173</ele>
        <time>2017-04-24T11:54:57Z</time>
      </trkpt>
      <trkpt lat="45.92626" lon="4.73629">
        <ele>173</ele>
        <time>2017-04-24T11:54:58Z</time>
      </trkpt>
      <trkpt lat="45.92621" lon="4.73625">
        <ele>173</ele>
        <time>2017-04-24T11:54:59Z</time>
      </trkpt>
      <trkpt lat="45.92616" lon="4.73623">
        <ele>173</ele>
        <time>2017-04-24T11:55:00Z</time>
      </trkpt>
      <trkpt lat="45.92611" lon="4.73621">
        <ele>173</ele>
        <time>2017-04-24T11:55:01Z</time>
      </trkpt>
      <trkpt lat="45.92607" lon="4.73619">
        <ele>173</ele>
        <time>2017-04-24T11:55:02Z</time>
      </trkpt>
      <trkpt lat="45.92602" lon="4.73619">
        <ele>173</ele>
        <time>2017-04-24T11:55:03Z</time>
      </trkpt>
      <trkpt lat="45.92596" lon="4.7362">
        <ele>173</ele>
        <time>2017-04-24T11:55:04Z</time>
      </trkpt>
      <trkpt lat="45.92591" lon="4.73621">
        <ele>173</ele>
        <time>2017-04-24T11:55:05Z</time>
      </trkpt>
      <trkpt lat="45.92583" lon="4.73625">
        <ele>173</ele>
        <time>2017-04-24T11:55:07Z</time>
      </trkpt>
      <trkpt lat="45.92578" lon="4.73626">
        <ele>173</ele>
        <time>2017-04-24T11:55:08Z</time>
      </trkpt>
      <trkpt lat="45.9257" lon="4.73628">
        <ele>173</ele>
        <time>2017-04-24T11:55:10Z</time>
      </trkpt>
      <trkpt lat="45.92566" lon="4.73629">
        <ele>173</ele>
        <time>2017-04-24T11:55:11Z</time>
      </trkpt>
      <trkpt lat="45.92558" lon="4.73631">
        <ele>173</ele>
        <time>2017-04-24T11:55:13Z</time>
      </trkpt>
      <trkpt lat="45.92554" lon="4.73633">
        <ele>173</ele>
        <time>2017-04-24T11:55:14Z</time>
      </trkpt>
      <trkpt lat="45.9255" lon="4.73634">
        <ele>173</ele>
        <time>2017-04-24T11:55:15Z</time>
      </trkpt>
      <trkpt lat="45.92545" lon="4.73635">
        <ele>173</ele>
        <time>2017-04-24T11:55:16Z</time>
      </trkpt>
      <trkpt lat="45.92536" lon="4.73637">
        <ele>173</ele>
        <time>2017-04-24T11:55:18Z</time>
      </trkpt>
      <trkpt lat="45.92531" lon="4.73636">
        <ele>173</ele>
        <time>2017-04-24T11:55:19Z</time>
      </trkpt>
      <trkpt lat="45.92525" lon="4.73638">
        <ele>173</ele>
        <time>2017-04-24T11:55:21Z</time>
      </trkpt>
      <trkpt lat="45.92521" lon="4.73639">
        <ele>173</ele>
        <time>2017-04-24T11:55:22Z</time>
      </trkpt>
      <trkpt lat="45.92514" lon="4.73641">
        <ele>174</ele>
        <time>2017-04-24T11:55:24Z</time>
      </trkpt>
      <trkpt lat="45.92509" lon="4.73641">
        <ele>174</ele>
        <time>2017-04-24T11:55:25Z</time>
      </trkpt>
      <trkpt lat="45.92501" lon="4.73641">
        <ele>174</ele>
        <time>2017-04-24T11:55:27Z</time>
      </trkpt>
      <trkpt lat="45.92497" lon="4.73641">
        <ele>174</ele>
        <time>2017-04-24T11:55:28Z</time>
      </trkpt>
      <trkpt lat="45.92492" lon="4.73642">
        <ele>174</ele>
        <time>2017-04-24T11:55:29Z</time>
      </trkpt>
      <trkpt lat="45.92487" lon="4.73646">
        <ele>174</ele>
        <time>2017-04-24T11:55:30Z</time>
      </trkpt>
      <trkpt lat="45.92482" lon="4.73649">
        <ele>174</ele>
        <time>2017-04-24T11:55:31Z</time>
      </trkpt>
      <trkpt lat="45.92479" lon="4.73654">
        <ele>174</ele>
        <time>2017-04-24T11:55:32Z</time>
      </trkpt>
      <trkpt lat="45.92476" lon="4.73664">
        <ele>174</ele>
        <time>2017-04-24T11:55:34Z</time>
      </trkpt>
      <trkpt lat="45.92476" lon="4.7367">
        <ele>175</ele>
        <time>2017-04-24T11:55:35Z</time>
      </trkpt>
      <trkpt lat="45.92474" lon="4.7368">
        <ele>174</ele>
        <time>2017-04-24T11:55:37Z</time>
      </trkpt>
      <trkpt lat="45.92472" lon="4.73685">
        <ele>174</ele>
        <time>2017-04-24T11:55:38Z</time>
      </trkpt>
      <trkpt lat="45.9247" lon="4.73697">
        <ele>174</ele>
        <time>2017-04-24T11:55:41Z</time>
      </trkpt>
      <trkpt lat="45.92469" lon="4.73699">
        <ele>174</ele>
        <time>2017-04-24T11:55:42Z</time>
      </trkpt>
      <trkpt lat="45.92468" lon="4.737">
        <ele>174</ele>
        <time>2017-04-24T11:58:23.359Z</time>
      </trkpt>
    </trkseg>
  </trk>
</gpx>